<?xml version='1.0' encoding='UTF-8'?><gpx version="1.1" creator="JPX - https://github.com/jenetics/jpx" xmlns="http://www.topografix.com/GPX/1/1"><trk><trkseg><trkpt lat="45.98898959109794" lon="12.242661998834341"><ele>230.0</ele><time>2026-03-23T08:52:36.999Z</time></trkpt><trkpt lat="45.9890292693793" lon="12.242757313699991"><ele>230.0</ele><time>2026-03-23T08:52:37.999Z</time></trkpt><trkpt lat="45.98908451124256" lon="12.242869343549515"><ele>230.0</ele><time>2026-03-23T08:52:38.999Z</time></trkpt><trkpt lat="45.98915673500298" lon="12.242989918382058"><ele>230.0</ele><time>2026-03-23T08:52:39.999Z</time></trkpt><trkpt lat="45.98923597061533" lon="12.243111250788683"><ele>230.0</ele><time>2026-03-23T08:52:40.999Z</time></trkpt><trkpt lat="45.98932104348192" lon="12.243241965458855"><ele>229.5</ele><time>2026-03-23T08:52:41.999Z</time></trkpt><trkpt lat="45.98941279580473" lon="12.243388156313314"><ele>229.0</ele><time>2026-03-23T08:52:42.999Z</time></trkpt><trkpt lat="45.98950528404588" lon="12.243538673019609"><ele>228.5</ele><time>2026-03-23T08:52:43.999Z</time></trkpt><trkpt lat="45.9896004389205" lon="12.243688911154122"><ele>228.0</ele><time>2026-03-23T08:52:44.999Z</time></trkpt><trkpt lat="45.98969919429568" lon="12.243835084332245"><ele>228.0</ele><time>2026-03-23T08:52:45.999Z</time></trkpt><trkpt lat="45.98980557170471" lon="12.243983824116384"><ele>228.0</ele><time>2026-03-23T08:52:46.999Z</time></trkpt><trkpt lat="45.98991179123274" lon="12.244130823073952"><ele>228.0</ele><time>2026-03-23T08:52:47.999Z</time></trkpt><trkpt lat="45.99001735148822" lon="12.244271735643105"><ele>228.0</ele><time>2026-03-23T08:52:48.999Z</time></trkpt><trkpt lat="45.99012057416809" lon="12.2444062114857"><ele>228.0</ele><time>2026-03-23T08:52:49.999Z</time></trkpt><trkpt lat="45.990221492207255" lon="12.244536622864622"><ele>228.0</ele><time>2026-03-23T08:52:50.999Z</time></trkpt><trkpt lat="45.99031935966204" lon="12.244663897945202"><ele>228.0</ele><time>2026-03-23T08:52:51.999Z</time></trkpt><trkpt lat="45.990419327695044" lon="12.244796976810719"><ele>228.0</ele><time>2026-03-23T08:52:52.999Z</time></trkpt><trkpt lat="45.9905302601404" lon="12.244945193886975"><ele>227.75</ele><time>2026-03-23T08:52:53.999Z</time></trkpt><trkpt lat="45.9906392735929" lon="12.245087552513557"><ele>227.5</ele><time>2026-03-23T08:52:54.999Z</time></trkpt><trkpt lat="45.99074318301192" lon="12.24522027590596"><ele>227.25</ele><time>2026-03-23T08:52:55.999Z</time></trkpt><trkpt lat="45.990837884306586" lon="12.24534531751853"><ele>227.0</ele><time>2026-03-23T08:52:56.999Z</time></trkpt><trkpt lat="45.990936085152896" lon="12.245475288317188"><ele>227.0</ele><time>2026-03-23T08:52:57.999Z</time></trkpt><trkpt lat="45.991038054439976" lon="12.24560553516907"><ele>227.0</ele><time>2026-03-23T08:52:58.999Z</time></trkpt><trkpt lat="45.99114360844284" lon="12.245734639420176"><ele>227.0</ele><time>2026-03-23T08:52:59.999Z</time></trkpt><trkpt lat="45.99125261063909" lon="12.245860832205445"><ele>227.0</ele><time>2026-03-23T08:53:00.999Z</time></trkpt><trkpt lat="45.9913632577164" lon="12.245977926048116"><ele>227.0</ele><time>2026-03-23T08:53:01.999Z</time></trkpt><trkpt lat="45.99147582879731" lon="12.246083094206817"><ele>227.0</ele><time>2026-03-23T08:53:02.999Z</time></trkpt><trkpt lat="45.99158718423921" lon="12.246182310397387"><ele>227.0</ele><time>2026-03-23T08:53:03.999Z</time></trkpt><trkpt lat="45.99169919324438" lon="12.24627024989233"><ele>227.0</ele><time>2026-03-23T08:53:04.999Z</time></trkpt><trkpt lat="45.991816047145974" lon="12.24634911295673"><ele>226.75</ele><time>2026-03-23T08:53:05.999Z</time></trkpt><trkpt lat="45.99193301716704" lon="12.246433652763763"><ele>226.5</ele><time>2026-03-23T08:53:06.999Z</time></trkpt><trkpt lat="45.99206003335668" lon="12.246531976308138"><ele>226.25</ele><time>2026-03-23T08:53:07.999Z</time></trkpt><trkpt lat="45.99218767916082" lon="12.2466249061287"><ele>226.0</ele><time>2026-03-23T08:53:08.999Z</time></trkpt><trkpt lat="45.99229985497179" lon="12.246703862403974"><ele>226.25</ele><time>2026-03-23T08:53:09.999Z</time></trkpt><trkpt lat="45.992405644974255" lon="12.246773688796402"><ele>226.5</ele><time>2026-03-23T08:53:10.999Z</time></trkpt><trkpt lat="45.99251079873452" lon="12.246819568535905"><ele>226.75</ele><time>2026-03-23T08:53:11.999Z</time></trkpt><trkpt lat="45.9926200164915" lon="12.246857798390511"><ele>227.0</ele><time>2026-03-23T08:53:12.999Z</time></trkpt><trkpt lat="45.9927368319538" lon="12.246877082648098"><ele>227.0</ele><time>2026-03-23T08:53:13.999Z</time></trkpt><trkpt lat="45.992852255359374" lon="12.24687331648641"><ele>227.0</ele><time>2026-03-23T08:53:14.999Z</time></trkpt><trkpt lat="45.9929718258428" lon="12.246839382290908"><ele>227.0</ele><time>2026-03-23T08:53:15.999Z</time></trkpt><trkpt lat="45.993092263756154" lon="12.246783083305315"><ele>227.0</ele><time>2026-03-23T08:53:16.999Z</time></trkpt><trkpt lat="45.993215277394654" lon="12.246720033006547"><ele>226.75</ele><time>2026-03-23T08:53:17.999Z</time></trkpt><trkpt lat="45.99334010517177" lon="12.24666491675669"><ele>226.5</ele><time>2026-03-23T08:53:18.999Z</time></trkpt><trkpt lat="45.99346518299005" lon="12.24661190683558"><ele>226.25</ele><time>2026-03-23T08:53:19.999Z</time></trkpt><trkpt lat="45.99358273362759" lon="12.246561205744824"><ele>226.0</ele><time>2026-03-23T08:53:20.999Z</time></trkpt><trkpt lat="45.99369631689028" lon="12.24651905569968"><ele>226.0</ele><time>2026-03-23T08:53:21.999Z</time></trkpt><trkpt lat="45.993809370976216" lon="12.246471658722365"><ele>226.0</ele><time>2026-03-23T08:53:22.999Z</time></trkpt><trkpt lat="45.99392551551886" lon="12.246420160151995"><ele>226.0</ele><time>2026-03-23T08:53:23.999Z</time></trkpt><trkpt lat="45.9940441722141" lon="12.246361765318635"><ele>226.0</ele><time>2026-03-23T08:53:24.999Z</time></trkpt><trkpt lat="45.994171354111806" lon="12.246322896626124"><ele>226.0</ele><time>2026-03-23T08:53:25.999Z</time></trkpt><trkpt lat="45.99429615471785" lon="12.24624017711985"><ele>226.0</ele><time>2026-03-23T08:53:26.999Z</time></trkpt><trkpt lat="45.994437649900796" lon="12.246169240327166"><ele>226.0</ele><time>2026-03-23T08:53:27.999Z</time></trkpt><trkpt lat="45.99458982637121" lon="12.24609663656418"><ele>226.0</ele><time>2026-03-23T08:53:28.999Z</time></trkpt><trkpt lat="45.99474091419994" lon="12.245980359446968"><ele>226.0</ele><time>2026-03-23T08:53:29.999Z</time></trkpt><trkpt lat="45.994890970086985" lon="12.245877831498113"><ele>226.0</ele><time>2026-03-23T08:53:30.999Z</time></trkpt><trkpt lat="45.99503202527185" lon="12.245773809144477"><ele>226.0</ele><time>2026-03-23T08:53:31.999Z</time></trkpt><trkpt lat="45.99516868543464" lon="12.245660354851083"><ele>226.25</ele><time>2026-03-23T08:53:32.999Z</time></trkpt><trkpt lat="45.99528934957937" lon="12.245545059141817"><ele>226.5</ele><time>2026-03-23T08:53:33.999Z</time></trkpt><trkpt lat="45.995402383697744" lon="12.245427322655042"><ele>226.75</ele><time>2026-03-23T08:53:34.999Z</time></trkpt><trkpt lat="45.995517805962535" lon="12.245309034715754"><ele>227.0</ele><time>2026-03-23T08:53:35.999Z</time></trkpt><trkpt lat="45.99562946456632" lon="12.24518739613763"><ele>227.0</ele><time>2026-03-23T08:53:36.999Z</time></trkpt><trkpt lat="45.99573322202399" lon="12.24506978020334"><ele>227.0</ele><time>2026-03-23T08:53:37.999Z</time></trkpt><trkpt lat="45.995830164186366" lon="12.24496927048353"><ele>227.0</ele><time>2026-03-23T08:53:38.999Z</time></trkpt><trkpt lat="45.995920486394915" lon="12.244878868085966"><ele>227.0</ele><time>2026-03-23T08:53:39.999Z</time></trkpt><trkpt lat="45.996003144943806" lon="12.244796267051417"><ele>229.8</ele><time>2026-03-23T08:53:40.999Z</time></trkpt><trkpt lat="45.9960769487953" lon="12.244721531303508"><ele>232.6</ele><time>2026-03-23T08:53:41.999Z</time></trkpt><trkpt lat="45.996145353635335" lon="12.24465789583708"><ele>235.40000000000003</ele><time>2026-03-23T08:53:42.999Z</time></trkpt><trkpt lat="45.996222208066726" lon="12.244591205587346"><ele>238.20000000000002</ele><time>2026-03-23T08:53:44.999Z</time></trkpt><trkpt lat="45.99627118133417" lon="12.244513073455742"><ele>241.0</ele><time>2026-03-23T08:53:49.999Z</time></trkpt><trkpt lat="45.996213062455816" lon="12.244366492835297"><ele>241.0</ele><time>2026-03-23T08:53:50.999Z</time></trkpt><trkpt lat="45.99615257296606" lon="12.24424399932937"><ele>241.0</ele><time>2026-03-23T08:53:51.999Z</time></trkpt><trkpt lat="45.99608519418817" lon="12.244111487050784"><ele>241.0</ele><time>2026-03-23T08:53:52.999Z</time></trkpt><trkpt lat="45.99601306580953" lon="12.243968502003256"><ele>241.0</ele><time>2026-03-23T08:53:53.999Z</time></trkpt><trkpt lat="45.995940836324486" lon="12.24382084801219"><ele>240.25</ele><time>2026-03-23T08:53:54.999Z</time></trkpt><trkpt lat="45.995867604079244" lon="12.243659885528949"><ele>239.5</ele><time>2026-03-23T08:53:55.999Z</time></trkpt><trkpt lat="45.99579445449535" lon="12.243485488235043"><ele>238.75</ele><time>2026-03-23T08:53:56.999Z</time></trkpt><trkpt lat="45.99573307390238" lon="12.243299492725725"><ele>238.0</ele><time>2026-03-23T08:53:57.999Z</time></trkpt><trkpt lat="45.99568257667055" lon="12.24311067674578"><ele>238.0</ele><time>2026-03-23T08:53:58.999Z</time></trkpt><trkpt lat="45.995636782333904" lon="12.242907886260882"><ele>238.0</ele><time>2026-03-23T08:53:59.999Z</time></trkpt><trkpt lat="45.995601084362946" lon="12.242691005936123"><ele>238.0</ele><time>2026-03-23T08:54:00.999Z</time></trkpt><trkpt lat="45.99556836719842" lon="12.242462705735061"><ele>240.0</ele><time>2026-03-23T08:54:01.999Z</time></trkpt><trkpt lat="45.99553574169953" lon="12.242216266711717"><ele>242.0</ele><time>2026-03-23T08:54:02.999Z</time></trkpt><trkpt lat="45.995495505481124" lon="12.241977612216658"><ele>244.0</ele><time>2026-03-23T08:54:03.999Z</time></trkpt><trkpt lat="45.99545859376687" lon="12.241764726931908"><ele>244.0</ele><time>2026-03-23T08:54:04.999Z</time></trkpt><trkpt lat="45.995419484305884" lon="12.241567210702879"><ele>244.0</ele><time>2026-03-23T08:54:05.999Z</time></trkpt><trkpt lat="45.99537351635986" lon="12.24137305744561"><ele>244.0</ele><time>2026-03-23T08:54:06.999Z</time></trkpt><trkpt lat="45.995319834611166" lon="12.241173111143889"><ele>244.0</ele><time>2026-03-23T08:54:07.999Z</time></trkpt><trkpt lat="45.995256503435805" lon="12.240977845518595"><ele>248.33333333333331</ele><time>2026-03-23T08:54:08.999Z</time></trkpt><trkpt lat="45.99518503461979" lon="12.24078311423192"><ele>252.66666666666669</ele><time>2026-03-23T08:54:09.999Z</time></trkpt><trkpt lat="45.995104621869544" lon="12.240588560839782"><ele>257.0</ele><time>2026-03-23T08:54:10.999Z</time></trkpt><trkpt lat="45.99501646753287" lon="12.240397745639523"><ele>250.33333333333334</ele><time>2026-03-23T08:54:11.999Z</time></trkpt><trkpt lat="45.99492282201621" lon="12.240205990709027"><ele>243.66666666666669</ele><time>2026-03-23T08:54:12.999Z</time></trkpt><trkpt lat="45.994821335513876" lon="12.240015462180606"><ele>237.0</ele><time>2026-03-23T08:54:13.999Z</time></trkpt><trkpt lat="45.99472115062752" lon="12.239836851156436"><ele>238.39999999999998</ele><time>2026-03-23T08:54:14.999Z</time></trkpt><trkpt lat="45.99462318310125" lon="12.239668493820519"><ele>239.79999999999998</ele><time>2026-03-23T08:54:15.999Z</time></trkpt><trkpt lat="45.99454621889979" lon="12.23953051093472"><ele>241.2</ele><time>2026-03-23T08:54:16.999Z</time></trkpt><trkpt lat="45.994492319378516" lon="12.239428356501017"><ele>242.6</ele><time>2026-03-23T08:54:17.999Z</time></trkpt><trkpt lat="45.9944563092043" lon="12.239323088680287"><ele>244.0</ele><time>2026-03-23T08:54:18.999Z</time></trkpt><trkpt lat="45.99444366294748" lon="12.239210121833194"><ele>244.0</ele><time>2026-03-23T08:54:19.999Z</time></trkpt><trkpt lat="45.99442756498838" lon="12.239072694700132"><ele>243.99999999999997</ele><time>2026-03-23T08:54:20.999Z</time></trkpt><trkpt lat="45.99441170105362" lon="12.238913056054315"><ele>243.99999999999997</ele><time>2026-03-23T08:54:21.999Z</time></trkpt><trkpt lat="45.994390161867265" lon="12.238741303381621"><ele>244.0</ele><time>2026-03-23T08:54:22.999Z</time></trkpt><trkpt lat="45.99436512999092" lon="12.238576893579904"><ele>244.0</ele><time>2026-03-23T08:54:23.999Z</time></trkpt><trkpt lat="45.99433718096331" lon="12.238413103846389"><ele>247.0</ele><time>2026-03-23T08:54:24.999Z</time></trkpt><trkpt lat="45.99430819172638" lon="12.238250704744594"><ele>249.99999999999997</ele><time>2026-03-23T08:54:25.999Z</time></trkpt><trkpt lat="45.994276997505054" lon="12.238093241722899"><ele>252.99999999999997</ele><time>2026-03-23T08:54:26.999Z</time></trkpt><trkpt lat="45.99427089297267" lon="12.237949078682655"><ele>256.0</ele><time>2026-03-23T08:54:27.999Z</time></trkpt><trkpt lat="45.99424360385539" lon="12.237820868867686"><ele>259.0</ele><time>2026-03-23T08:54:28.999Z</time></trkpt><trkpt lat="45.99423425171928" lon="12.237711969830878"><ele>257.8333333333333</ele><time>2026-03-23T08:54:29.999Z</time></trkpt><trkpt lat="45.99422274243444" lon="12.237592866124162"><ele>256.66666666666663</ele><time>2026-03-23T08:54:30.999Z</time></trkpt><trkpt lat="45.994211204798475" lon="12.237485347173036"><ele>255.5</ele><time>2026-03-23T08:54:31.999Z</time></trkpt><trkpt lat="45.994194024338164" lon="12.237395202598433"><ele>254.33333333333331</ele><time>2026-03-23T08:54:32.999Z</time></trkpt><trkpt lat="45.99417994990818" lon="12.237299675419187"><ele>253.16666666666666</ele><time>2026-03-23T08:54:33.999Z</time></trkpt><trkpt lat="45.994138299861575" lon="12.237201191065408"><ele>252.0</ele><time>2026-03-23T08:54:34.999Z</time></trkpt><trkpt lat="45.994070778350775" lon="12.23711728578862"><ele>252.0</ele><time>2026-03-23T08:54:35.999Z</time></trkpt><trkpt lat="45.99402921373923" lon="12.23699837628854"><ele>252.0</ele><time>2026-03-23T08:54:36.999Z</time></trkpt><trkpt lat="45.993960400664136" lon="12.236900313019222"><ele>252.0</ele><time>2026-03-23T08:54:37.999Z</time></trkpt><trkpt lat="45.99390712765305" lon="12.236782874697196"><ele>252.0</ele><time>2026-03-23T08:54:38.999Z</time></trkpt><trkpt lat="45.99385692651636" lon="12.236656779131907"><ele>252.0</ele><time>2026-03-23T08:54:39.999Z</time></trkpt><trkpt lat="45.9938014508019" lon="12.236532555901956"><ele>253.0</ele><time>2026-03-23T08:54:40.999Z</time></trkpt><trkpt lat="45.993744707265634" lon="12.236420512692943"><ele>254.0</ele><time>2026-03-23T08:54:41.999Z</time></trkpt><trkpt lat="45.99368975406074" lon="12.236332375222256"><ele>255.0</ele><time>2026-03-23T08:54:42.999Z</time></trkpt><trkpt lat="45.9936365283001" lon="12.236250751528571"><ele>256.0</ele><time>2026-03-23T08:54:43.999Z</time></trkpt><trkpt lat="45.99358081636206" lon="12.236170692633154"><ele>257.0</ele><time>2026-03-23T08:54:44.999Z</time></trkpt><trkpt lat="45.99352332636889" lon="12.236090613010436"><ele>258.0</ele><time>2026-03-23T08:54:45.999Z</time></trkpt><trkpt lat="45.99346486373174" lon="12.23601512061617"><ele>258.0</ele><time>2026-03-23T08:54:46.999Z</time></trkpt><trkpt lat="45.99342474054431" lon="12.235921567736607"><ele>258.0</ele><time>2026-03-23T08:54:47.999Z</time></trkpt><trkpt lat="45.99337701460502" lon="12.23584935651053"><ele>258.0</ele><time>2026-03-23T08:54:48.999Z</time></trkpt><trkpt lat="45.993330042896076" lon="12.235776756883485"><ele>258.0</ele><time>2026-03-23T08:54:49.999Z</time></trkpt><trkpt lat="45.993272782589095" lon="12.235713192149012"><ele>258.0</ele><time>2026-03-23T08:54:50.999Z</time></trkpt><trkpt lat="45.99322813399953" lon="12.235617441061269"><ele>258.0</ele><time>2026-03-23T08:54:51.999Z</time></trkpt><trkpt lat="45.993182626191896" lon="12.235516778426733"><ele>257.3333333333333</ele><time>2026-03-23T08:54:52.999Z</time></trkpt><trkpt lat="45.99313495752222" lon="12.235415483846277"><ele>256.6666666666667</ele><time>2026-03-23T08:54:53.999Z</time></trkpt><trkpt lat="45.99308984551943" lon="12.235309946392789"><ele>256.0</ele><time>2026-03-23T08:54:54.999Z</time></trkpt><trkpt lat="45.99304471840807" lon="12.235213034086474"><ele>255.33333333333334</ele><time>2026-03-23T08:54:55.999Z</time></trkpt><trkpt lat="45.992997183156255" lon="12.235110182622615"><ele>254.66666666666669</ele><time>2026-03-23T08:54:56.999Z</time></trkpt><trkpt lat="45.99294500035663" lon="12.235002862077183"><ele>254.0</ele><time>2026-03-23T08:54:57.999Z</time></trkpt><trkpt lat="45.992894731282526" lon="12.234887405871229"><ele>255.6</ele><time>2026-03-23T08:54:58.999Z</time></trkpt><trkpt lat="45.99284465394996" lon="12.234783759731652"><ele>257.2</ele><time>2026-03-23T08:54:59.999Z</time></trkpt><trkpt lat="45.992790036723356" lon="12.234685474849973"><ele>258.79999999999995</ele><time>2026-03-23T08:55:00.999Z</time></trkpt><trkpt lat="45.99273273553845" lon="12.234586536611577"><ele>260.4</ele><time>2026-03-23T08:55:01.999Z</time></trkpt><trkpt lat="45.99267319049308" lon="12.234479585577624"><ele>262.0</ele><time>2026-03-23T08:55:02.999Z</time></trkpt><trkpt lat="45.99261470521667" lon="12.234365613761046"><ele>262.0</ele><time>2026-03-23T08:55:03.999Z</time></trkpt><trkpt lat="45.992560201015216" lon="12.234239482808109"><ele>262.0</ele><time>2026-03-23T08:55:04.999Z</time></trkpt><trkpt lat="45.99251282872458" lon="12.234109947712035"><ele>262.0</ele><time>2026-03-23T08:55:05.999Z</time></trkpt><trkpt lat="45.99246541748689" lon="12.233974911324767"><ele>262.0</ele><time>2026-03-23T08:55:06.999Z</time></trkpt><trkpt lat="45.992419831958145" lon="12.23382670016463"><ele>262.0</ele><time>2026-03-23T08:55:07.999Z</time></trkpt><trkpt lat="45.992380795255606" lon="12.233666259130356"><ele>261.8</ele><time>2026-03-23T08:55:08.999Z</time></trkpt><trkpt lat="45.99235090987495" lon="12.233503217865346"><ele>261.6</ele><time>2026-03-23T08:55:09.999Z</time></trkpt><trkpt lat="45.99232329739886" lon="12.233333519869753"><ele>261.40000000000003</ele><time>2026-03-23T08:55:10.999Z</time></trkpt><trkpt lat="45.992302460039554" lon="12.233182746603903"><ele>261.2</ele><time>2026-03-23T08:55:11.999Z</time></trkpt><trkpt lat="45.99227997011665" lon="12.233057014201327"><ele>261.0</ele><time>2026-03-23T08:55:12.999Z</time></trkpt><trkpt lat="45.992270794678035" lon="12.232956450496735"><ele>261.0</ele><time>2026-03-23T08:55:13.999Z</time></trkpt><trkpt lat="45.992278187723066" lon="12.232806272926503"><ele>261.0</ele><time>2026-03-23T08:55:15.999Z</time></trkpt><trkpt lat="45.99228207758126" lon="12.232682189705514"><ele>261.0</ele><time>2026-03-23T08:55:17.999Z</time></trkpt><trkpt lat="45.992346712796255" lon="12.232614829185184"><ele>261.0</ele><time>2026-03-23T08:55:19.999Z</time></trkpt><trkpt lat="45.99233912700361" lon="12.232496279248771"><ele>261.0</ele><time>2026-03-23T08:55:22.999Z</time></trkpt><trkpt lat="45.992283027817116" lon="12.232430571984617"><ele>261.0</ele><time>2026-03-23T08:55:23.999Z</time></trkpt><trkpt lat="45.99220655333643" lon="12.232342230659858"><ele>261.6666666666667</ele><time>2026-03-23T08:55:25.999Z</time></trkpt><trkpt lat="45.99214776520154" lon="12.23223707514371"><ele>262.3333333333333</ele><time>2026-03-23T08:55:27.999Z</time></trkpt><trkpt lat="45.992138087903584" lon="12.232126969640818"><ele>263.0</ele><time>2026-03-23T08:55:29.999Z</time></trkpt><trkpt lat="45.9921745618425" lon="12.232035793518813"><ele>263.66666666666663</ele><time>2026-03-23T08:55:33.999Z</time></trkpt><trkpt lat="45.99226383212798" lon="12.232024207719306"><ele>264.3333333333333</ele><time>2026-03-23T08:55:34.999Z</time></trkpt><trkpt lat="45.99234720926977" lon="12.2320137008788"><ele>265.0</ele><time>2026-03-23T08:55:36.999Z</time></trkpt><trkpt lat="45.9924334189158" lon="12.232081597645253"><ele>268.5</ele><time>2026-03-23T08:55:38.999Z</time></trkpt><trkpt lat="45.992508132083955" lon="12.232090577205797"><ele>272.0</ele><time>2026-03-23T08:55:40.999Z</time></trkpt><trkpt lat="45.99259687462319" lon="12.232100343347206"><ele>275.5</ele><time>2026-03-23T08:55:42.999Z</time></trkpt><trkpt lat="45.99266998702939" lon="12.232096847532967"><ele>279.0</ele><time>2026-03-23T08:55:44.999Z</time></trkpt><trkpt lat="45.99273720718353" lon="12.232095197423385"><ele>282.5</ele><time>2026-03-23T08:55:46.999Z</time></trkpt><trkpt lat="45.99280222196604" lon="12.231988481639656"><ele>286.0</ele><time>2026-03-23T08:55:48.999Z</time></trkpt><trkpt lat="45.99284725889309" lon="12.231879829962875"><ele>285.99999999999994</ele><time>2026-03-23T08:55:51.999Z</time></trkpt><trkpt lat="45.99289068606047" lon="12.231803460321098"><ele>286.0</ele><time>2026-03-23T08:55:53.999Z</time></trkpt><trkpt lat="45.99291913866727" lon="12.231719565091078"><ele>286.0</ele><time>2026-03-23T08:56:03.999Z</time></trkpt><trkpt lat="45.99287760863898" lon="12.231826967806462"><ele>286.0</ele><time>2026-03-23T08:56:11.999Z</time></trkpt><trkpt lat="45.99283323111388" lon="12.23191357043745"><ele>286.0</ele><time>2026-03-23T08:56:13.999Z</time></trkpt><trkpt lat="45.99277932265852" lon="12.231976999927664"><ele>285.99999999999994</ele><time>2026-03-23T08:56:14.999Z</time></trkpt><trkpt lat="45.992750521357806" lon="12.23208000089509"><ele>286.0</ele><time>2026-03-23T08:56:16.999Z</time></trkpt><trkpt lat="45.99269700152019" lon="12.232134962673143"><ele>286.0</ele><time>2026-03-23T08:56:18.999Z</time></trkpt><trkpt lat="45.99260154407714" lon="12.232144375033451"><ele>286.0</ele><time>2026-03-23T08:56:20.999Z</time></trkpt><trkpt lat="45.9925508745767" lon="12.232088367991876"><ele>286.0</ele><time>2026-03-23T08:56:21.999Z</time></trkpt><trkpt lat="45.992461106879816" lon="12.232068401875845"><ele>286.0</ele><time>2026-03-23T08:56:23.999Z</time></trkpt><trkpt lat="45.99237567818548" lon="12.232040060479054"><ele>286.0</ele><time>2026-03-23T08:56:25.999Z</time></trkpt><trkpt lat="45.99228929267506" lon="12.232008859872856"><ele>286.0</ele><time>2026-03-23T08:56:27.999Z</time></trkpt><trkpt lat="45.992205074849885" lon="12.232037422460678"><ele>281.8</ele><time>2026-03-23T08:56:30.999Z</time></trkpt><trkpt lat="45.992154334870754" lon="12.232104583336852"><ele>277.6</ele><time>2026-03-23T08:56:33.999Z</time></trkpt><trkpt lat="45.99213226062955" lon="12.23193833983756"><ele>273.4</ele><time>2026-03-23T08:56:35.999Z</time></trkpt><trkpt lat="45.992003542958315" lon="12.23184731232443"><ele>269.2</ele><time>2026-03-23T08:56:37.999Z</time></trkpt><trkpt lat="45.99194683128904" lon="12.231782742476458"><ele>265.0</ele><time>2026-03-23T08:56:38.999Z</time></trkpt><trkpt lat="45.991899657541815" lon="12.231704872835103"><ele>265.0</ele><time>2026-03-23T08:56:39.999Z</time></trkpt><trkpt lat="45.99183674964675" lon="12.231557024300733"><ele>265.0</ele><time>2026-03-23T08:56:41.999Z</time></trkpt><trkpt lat="45.99177433985035" lon="12.231436061174392"><ele>265.0</ele><time>2026-03-23T08:56:43.999Z</time></trkpt><trkpt lat="45.99170843729485" lon="12.231290120889406"><ele>265.0</ele><time>2026-03-23T08:56:45.999Z</time></trkpt><trkpt lat="45.99162231987467" lon="12.23119646065399"><ele>262.3333333333333</ele><time>2026-03-23T08:56:47.999Z</time></trkpt><trkpt lat="45.99155889566274" lon="12.231099593708207"><ele>259.66666666666663</ele><time>2026-03-23T08:56:49.999Z</time></trkpt><trkpt lat="45.991553479643244" lon="12.2309471433947"><ele>257.0</ele><time>2026-03-23T08:56:50.999Z</time></trkpt><trkpt lat="45.991544451704236" lon="12.230827670448578"><ele>254.33333333333331</ele><time>2026-03-23T08:56:51.999Z</time></trkpt><trkpt lat="45.9915386139872" lon="12.230720049138208"><ele>251.66666666666666</ele><time>2026-03-23T08:56:52.999Z</time></trkpt><trkpt lat="45.99152511619225" lon="12.230612157106878"><ele>249.0</ele><time>2026-03-23T08:56:53.999Z</time></trkpt><trkpt lat="45.99151203109221" lon="12.230497472436081"><ele>248.6</ele><time>2026-03-23T08:56:54.999Z</time></trkpt><trkpt lat="45.99149681463933" lon="12.230371324421853"><ele>248.2</ele><time>2026-03-23T08:56:55.999Z</time></trkpt><trkpt lat="45.99147343474663" lon="12.230240569090887"><ele>247.79999999999998</ele><time>2026-03-23T08:56:56.999Z</time></trkpt><trkpt lat="45.99144250429145" lon="12.230101400700068"><ele>247.39999999999998</ele><time>2026-03-23T08:56:57.999Z</time></trkpt><trkpt lat="45.99143380000855" lon="12.229953499188964"><ele>247.0</ele><time>2026-03-23T08:56:58.999Z</time></trkpt><trkpt lat="45.99140839319506" lon="12.229811530755788"><ele>247.39999999999998</ele><time>2026-03-23T08:56:59.999Z</time></trkpt><trkpt lat="45.99138151991163" lon="12.229661367984136"><ele>247.79999999999998</ele><time>2026-03-23T08:57:00.999Z</time></trkpt><trkpt lat="45.99133842787261" lon="12.229514166948379"><ele>248.2</ele><time>2026-03-23T08:57:01.999Z</time></trkpt><trkpt lat="45.991312031777056" lon="12.229375468821686"><ele>248.6</ele><time>2026-03-23T08:57:02.999Z</time></trkpt><trkpt lat="45.99128286481209" lon="12.229253055358072"><ele>249.0</ele><time>2026-03-23T08:57:03.999Z</time></trkpt><trkpt lat="45.991233150943195" lon="12.229139160096762"><ele>249.0</ele><time>2026-03-23T08:57:04.999Z</time></trkpt><trkpt lat="45.99117695980032" lon="12.228994967468962"><ele>249.0</ele><time>2026-03-23T08:57:05.999Z</time></trkpt><trkpt lat="45.991109093483765" lon="12.228865276201123"><ele>249.0</ele><time>2026-03-23T08:57:06.999Z</time></trkpt><trkpt lat="45.99104003177382" lon="12.22872365061892"><ele>249.0</ele><time>2026-03-23T08:57:07.999Z</time></trkpt><trkpt lat="45.99096418553655" lon="12.228563446228543"><ele>249.39999999999998</ele><time>2026-03-23T08:57:08.999Z</time></trkpt><trkpt lat="45.990897247834276" lon="12.228414887730514"><ele>249.79999999999998</ele><time>2026-03-23T08:57:09.999Z</time></trkpt><trkpt lat="45.99084051060057" lon="12.228280477509983"><ele>250.20000000000002</ele><time>2026-03-23T08:57:10.999Z</time></trkpt><trkpt lat="45.99079326871218" lon="12.228161960736239"><ele>250.60000000000002</ele><time>2026-03-23T08:57:11.999Z</time></trkpt><trkpt lat="45.990753972826646" lon="12.22806034555804"><ele>251.0</ele><time>2026-03-23T08:57:12.999Z</time></trkpt><trkpt lat="45.990708882717435" lon="12.227943776267916"><ele>251.0</ele><time>2026-03-23T08:57:14.999Z</time></trkpt><trkpt lat="45.990673494590965" lon="12.227839583503505"><ele>251.00000000000003</ele><time>2026-03-23T08:57:53.999Z</time></trkpt><trkpt lat="45.99064114609687" lon="12.227749593720185"><ele>251.00000000000003</ele><time>2026-03-23T08:57:54.999Z</time></trkpt><trkpt lat="45.99060267270375" lon="12.22761721253029"><ele>251.0</ele><time>2026-03-23T08:57:55.999Z</time></trkpt><trkpt lat="45.990558274176294" lon="12.227489922501363"><ele>251.0</ele><time>2026-03-23T08:57:56.999Z</time></trkpt><trkpt lat="45.99050825182512" lon="12.227357229301733"><ele>252.4</ele><time>2026-03-23T08:57:57.999Z</time></trkpt><trkpt lat="45.990451488882485" lon="12.227228540337858"><ele>253.8</ele><time>2026-03-23T08:57:58.999Z</time></trkpt><trkpt lat="45.99039221140222" lon="12.227113101320644"><ele>255.20000000000002</ele><time>2026-03-23T08:57:59.999Z</time></trkpt><trkpt lat="45.99033930176526" lon="12.227004651465764"><ele>256.6</ele><time>2026-03-23T08:58:00.999Z</time></trkpt><trkpt lat="45.99029096568774" lon="12.226906191723687"><ele>258.0</ele><time>2026-03-23T08:58:01.999Z</time></trkpt><trkpt lat="45.990242264478816" lon="12.226817917261288"><ele>258.0</ele><time>2026-03-23T08:58:02.999Z</time></trkpt><trkpt lat="45.990209867775825" lon="12.226723590976333"><ele>258.0</ele><time>2026-03-23T08:58:03.999Z</time></trkpt><trkpt lat="45.99017437366222" lon="12.226632940129742"><ele>258.0</ele><time>2026-03-23T08:58:04.999Z</time></trkpt><trkpt lat="45.99013483005928" lon="12.226535939908413"><ele>258.0</ele><time>2026-03-23T08:58:05.999Z</time></trkpt><trkpt lat="45.99010705298854" lon="12.226416311004972"><ele>258.0</ele><time>2026-03-23T08:58:06.999Z</time></trkpt><trkpt lat="45.990043997374684" lon="12.226307002108864"><ele>258.0</ele><time>2026-03-23T08:58:07.999Z</time></trkpt><trkpt lat="45.99000432821462" lon="12.226167613971404"><ele>258.4</ele><time>2026-03-23T08:58:08.999Z</time></trkpt><trkpt lat="45.989963873137526" lon="12.226022500785207"><ele>258.8</ele><time>2026-03-23T08:58:09.999Z</time></trkpt><trkpt lat="45.989923298204026" lon="12.225873579315293"><ele>259.2</ele><time>2026-03-23T08:58:10.999Z</time></trkpt><trkpt lat="45.98987936017653" lon="12.22572534561375"><ele>259.6</ele><time>2026-03-23T08:58:11.999Z</time></trkpt><trkpt lat="45.98984905257467" lon="12.225585221556791"><ele>260.0</ele><time>2026-03-23T08:58:12.999Z</time></trkpt><trkpt lat="45.98981048130331" lon="12.225475583798953"><ele>260.0</ele><time>2026-03-23T08:58:13.999Z</time></trkpt><trkpt lat="45.98977359972375" lon="12.22537222432722"><ele>260.0</ele><time>2026-03-23T08:58:14.999Z</time></trkpt><trkpt lat="45.98973134430045" lon="12.225251993892117"><ele>260.0</ele><time>2026-03-23T08:58:15.999Z</time></trkpt><trkpt lat="45.98968778816686" lon="12.225116947445079"><ele>260.0</ele><time>2026-03-23T08:58:16.999Z</time></trkpt><trkpt lat="45.98963340553509" lon="12.224993973347308"><ele>260.0</ele><time>2026-03-23T08:58:17.999Z</time></trkpt><trkpt lat="45.98960388393993" lon="12.22485211591361"><ele>261.4</ele><time>2026-03-23T08:58:18.999Z</time></trkpt><trkpt lat="45.989565445422635" lon="12.224707545716257"><ele>262.8</ele><time>2026-03-23T08:58:19.999Z</time></trkpt><trkpt lat="45.989527991034855" lon="12.224566911121569"><ele>264.2</ele><time>2026-03-23T08:58:20.999Z</time></trkpt><trkpt lat="45.989492739943294" lon="12.22444051599181"><ele>265.6</ele><time>2026-03-23T08:58:21.999Z</time></trkpt><trkpt lat="45.9894619807899" lon="12.224317103626106"><ele>267.0</ele><time>2026-03-23T08:58:22.999Z</time></trkpt><trkpt lat="45.9894353432684" lon="12.224190669753728"><ele>267.0</ele><time>2026-03-23T08:58:23.999Z</time></trkpt><trkpt lat="45.989407526461335" lon="12.224057303659347"><ele>267.0</ele><time>2026-03-23T08:58:24.999Z</time></trkpt><trkpt lat="45.98938198514749" lon="12.223919558496"><ele>267.0</ele><time>2026-03-23T08:58:25.999Z</time></trkpt><trkpt lat="45.98935928255595" lon="12.223779015740158"><ele>267.0</ele><time>2026-03-23T08:58:26.999Z</time></trkpt><trkpt lat="45.9893371503069" lon="12.22364038154693"><ele>267.0</ele><time>2026-03-23T08:58:27.999Z</time></trkpt><trkpt lat="45.98932102487445" lon="12.223497746748748"><ele>269.2</ele><time>2026-03-23T08:58:28.999Z</time></trkpt><trkpt lat="45.98932503018231" lon="12.22334638439517"><ele>271.4</ele><time>2026-03-23T08:58:29.999Z</time></trkpt><trkpt lat="45.98931381030111" lon="12.223197571859316"><ele>273.6</ele><time>2026-03-23T08:58:30.999Z</time></trkpt><trkpt lat="45.98929777992148" lon="12.223052822792836"><ele>275.8</ele><time>2026-03-23T08:58:31.999Z</time></trkpt><trkpt lat="45.98927038466662" lon="12.222906297836667"><ele>278.0</ele><time>2026-03-23T08:58:32.999Z</time></trkpt><trkpt lat="45.989230445682075" lon="12.222755006147533"><ele>281.5</ele><time>2026-03-23T08:58:33.999Z</time></trkpt><trkpt lat="45.989188982873195" lon="12.222600167317005"><ele>285.0</ele><time>2026-03-23T08:58:34.999Z</time></trkpt><trkpt lat="45.989157098115285" lon="12.222440674331084"><ele>288.5</ele><time>2026-03-23T08:58:35.999Z</time></trkpt><trkpt lat="45.989131666045886" lon="12.222280245987623"><ele>292.0</ele><time>2026-03-23T08:58:36.999Z</time></trkpt><trkpt lat="45.98910956620756" lon="12.22212260302837"><ele>285.4</ele><time>2026-03-23T08:58:37.999Z</time></trkpt><trkpt lat="45.989089743248535" lon="12.221965316650923"><ele>278.79999999999995</ele><time>2026-03-23T08:58:38.999Z</time></trkpt><trkpt lat="45.989056987889796" lon="12.22183003688012"><ele>272.2</ele><time>2026-03-23T08:58:39.999Z</time></trkpt><trkpt lat="45.98904148466736" lon="12.22171115428429"><ele>265.59999999999997</ele><time>2026-03-23T08:58:40.999Z</time></trkpt><trkpt lat="45.98902880819649" lon="12.221600307732869"><ele>259.0</ele><time>2026-03-23T08:58:41.999Z</time></trkpt><trkpt lat="45.98901405586766" lon="12.221487817968752"><ele>260.4</ele><time>2026-03-23T08:58:42.999Z</time></trkpt><trkpt lat="45.98899030368582" lon="12.221365463251859"><ele>261.79999999999995</ele><time>2026-03-23T08:58:43.999Z</time></trkpt><trkpt lat="45.98895087559462" lon="12.221227642091288"><ele>263.20000000000005</ele><time>2026-03-23T08:58:44.999Z</time></trkpt><trkpt lat="45.988917597698986" lon="12.221067044158849"><ele>264.6</ele><time>2026-03-23T08:58:45.999Z</time></trkpt><trkpt lat="45.9888665824676" lon="12.22091253093656"><ele>266.0</ele><time>2026-03-23T08:58:46.999Z</time></trkpt><trkpt lat="45.988818005072794" lon="12.220777313729908"><ele>266.0</ele><time>2026-03-23T08:58:47.999Z</time></trkpt><trkpt lat="45.98877243705281" lon="12.220650473221143"><ele>266.0</ele><time>2026-03-23T08:58:48.999Z</time></trkpt><trkpt lat="45.988730232035785" lon="12.220524203441657"><ele>266.0</ele><time>2026-03-23T08:58:49.999Z</time></trkpt><trkpt lat="45.98868772141606" lon="12.220395809499612"><ele>266.0</ele><time>2026-03-23T08:58:50.999Z</time></trkpt><trkpt lat="45.98864172159818" lon="12.22027271670771"><ele>266.0</ele><time>2026-03-23T08:58:51.999Z</time></trkpt><trkpt lat="45.988580308854175" lon="12.22016055450095"><ele>265.0</ele><time>2026-03-23T08:58:52.999Z</time></trkpt><trkpt lat="45.98849248047891" lon="12.220072705634916"><ele>264.0</ele><time>2026-03-23T08:58:53.999Z</time></trkpt><trkpt lat="45.988395779914505" lon="12.220002100246274"><ele>263.0</ele><time>2026-03-23T08:58:54.999Z</time></trkpt><trkpt lat="45.98829725541314" lon="12.219928308150854"><ele>262.0</ele><time>2026-03-23T08:58:55.999Z</time></trkpt><trkpt lat="45.98818592047982" lon="12.219883057506884"><ele>261.0</ele><time>2026-03-23T08:58:56.999Z</time></trkpt><trkpt lat="45.9880938831175" lon="12.219808375184076"><ele>261.0</ele><time>2026-03-23T08:58:57.999Z</time></trkpt><trkpt lat="45.98800727071854" lon="12.219740611885802"><ele>261.0</ele><time>2026-03-23T08:58:58.999Z</time></trkpt><trkpt lat="45.987932809707324" lon="12.21967762309677"><ele>261.0</ele><time>2026-03-23T08:58:59.999Z</time></trkpt><trkpt lat="45.987883734960285" lon="12.219588319398838"><ele>261.0</ele><time>2026-03-23T08:59:00.999Z</time></trkpt><trkpt lat="45.987834961678956" lon="12.219529142060761"><ele>261.0</ele><time>2026-03-23T08:59:01.999Z</time></trkpt><trkpt lat="45.98774539458187" lon="12.219411546548626"><ele>261.0</ele><time>2026-03-23T08:59:03.999Z</time></trkpt><trkpt lat="45.98770142895999" lon="12.219323953337625"><ele>261.0</ele><time>2026-03-23T08:59:05.999Z</time></trkpt><trkpt lat="45.9876463788038" lon="12.219245529415472"><ele>261.0</ele><time>2026-03-23T08:59:18.999Z</time></trkpt><trkpt lat="45.98759278070003" lon="12.219164238567581"><ele>261.0</ele><time>2026-03-23T08:59:20.999Z</time></trkpt><trkpt lat="45.98748810852821" lon="12.21905136258044"><ele>261.0</ele><time>2026-03-23T08:59:22.999Z</time></trkpt><trkpt lat="45.987429749770456" lon="12.21898842988648"><ele>261.0</ele><time>2026-03-23T08:59:23.999Z</time></trkpt><trkpt lat="45.98736833384902" lon="12.218922200425798"><ele>261.0</ele><time>2026-03-23T08:59:24.999Z</time></trkpt><trkpt lat="45.98730307155512" lon="12.218854764761979"><ele>259.0</ele><time>2026-03-23T08:59:25.999Z</time></trkpt><trkpt lat="45.987232490715584" lon="12.218812210126174"><ele>257.0</ele><time>2026-03-23T08:59:26.999Z</time></trkpt><trkpt lat="45.98717699113063" lon="12.218760071814046"><ele>255.0</ele><time>2026-03-23T08:59:27.999Z</time></trkpt><trkpt lat="45.987108862644895" lon="12.218719864626792"><ele>253.0</ele><time>2026-03-23T08:59:28.999Z</time></trkpt><trkpt lat="45.98704340688001" lon="12.218666319750216"><ele>251.0</ele><time>2026-03-23T08:59:29.999Z</time></trkpt><trkpt lat="45.986975081165234" lon="12.218627832708128"><ele>249.0</ele><time>2026-03-23T08:59:30.999Z</time></trkpt><trkpt lat="45.98690436680872" lon="12.218595974361797"><ele>247.0</ele><time>2026-03-23T08:59:31.999Z</time></trkpt><trkpt lat="45.98681011252983" lon="12.218593757555393"><ele>247.0</ele><time>2026-03-23T08:59:33.999Z</time></trkpt><trkpt lat="45.986724878414925" lon="12.218408624534012"><ele>247.0</ele><time>2026-03-23T08:59:37.999Z</time></trkpt><trkpt lat="45.98669840901286" lon="12.218304385122877"><ele>247.0</ele><time>2026-03-23T08:59:38.999Z</time></trkpt><trkpt lat="45.98665887483548" lon="12.218199019586672"><ele>247.0</ele><time>2026-03-23T08:59:39.999Z</time></trkpt><trkpt lat="45.98661333514494" lon="12.21807782094626"><ele>247.0</ele><time>2026-03-23T08:59:40.999Z</time></trkpt><trkpt lat="45.98656725974766" lon="12.217942523006942"><ele>245.83333333333331</ele><time>2026-03-23T08:59:41.999Z</time></trkpt><trkpt lat="45.98652267635353" lon="12.21779810325902"><ele>244.66666666666666</ele><time>2026-03-23T08:59:42.999Z</time></trkpt><trkpt lat="45.986476247032826" lon="12.217654172282566"><ele>243.5</ele><time>2026-03-23T08:59:43.999Z</time></trkpt><trkpt lat="45.98644036185248" lon="12.217535477865415"><ele>242.33333333333331</ele><time>2026-03-23T08:59:44.999Z</time></trkpt><trkpt lat="45.98641698959986" lon="12.217450704328668"><ele>241.16666666666666</ele><time>2026-03-23T08:59:45.999Z</time></trkpt><trkpt lat="45.986393848881754" lon="12.217351132397146"><ele>240.0</ele><time>2026-03-23T08:59:47.999Z</time></trkpt><trkpt lat="45.98637509087491" lon="12.217237082705758"><ele>240.0</ele><time>2026-03-23T08:59:56.999Z</time></trkpt><trkpt lat="45.986344729128696" lon="12.217078391394262"><ele>240.0</ele><time>2026-03-23T08:59:59Z</time></trkpt><trkpt lat="45.986327176606785" lon="12.216972517428722"><ele>240.0</ele><time>2026-03-23T09:00:00Z</time></trkpt><trkpt lat="45.986306708296205" lon="12.216855967093919"><ele>240.0</ele><time>2026-03-23T09:00:01Z</time></trkpt><trkpt lat="45.986284263628754" lon="12.216718756795146"><ele>240.0</ele><time>2026-03-23T09:00:02Z</time></trkpt><trkpt lat="45.986263645500244" lon="12.216579057232869"><ele>240.0</ele><time>2026-03-23T09:00:03Z</time></trkpt><trkpt lat="45.986244825572776" lon="12.21643454545418"><ele>240.0</ele><time>2026-03-23T09:00:04Z</time></trkpt><trkpt lat="45.98622440697892" lon="12.216282254677722"><ele>240.0</ele><time>2026-03-23T09:00:05Z</time></trkpt><trkpt lat="45.98620141618776" lon="12.216121080787085"><ele>240.0</ele><time>2026-03-23T09:00:06Z</time></trkpt><trkpt lat="45.986175655372534" lon="12.215951211408525"><ele>240.0</ele><time>2026-03-23T09:00:07Z</time></trkpt><trkpt lat="45.98615150648258" lon="12.215776506419372"><ele>240.25</ele><time>2026-03-23T09:00:08Z</time></trkpt><trkpt lat="45.986114558300194" lon="12.21559456080564"><ele>240.5</ele><time>2026-03-23T09:00:09Z</time></trkpt><trkpt lat="45.98608522786563" lon="12.215410996218601"><ele>240.75</ele><time>2026-03-23T09:00:10Z</time></trkpt><trkpt lat="45.98605511149694" lon="12.215233392610267"><ele>241.0</ele><time>2026-03-23T09:00:11Z</time></trkpt><trkpt lat="45.98602090444301" lon="12.215053982531964"><ele>241.0</ele><time>2026-03-23T09:00:12Z</time></trkpt><trkpt lat="45.98598400521811" lon="12.214887797183064"><ele>241.0</ele><time>2026-03-23T09:00:13Z</time></trkpt><trkpt lat="45.98593188620325" lon="12.214730126215496"><ele>241.0</ele><time>2026-03-23T09:00:14Z</time></trkpt><trkpt lat="45.98586525219738" lon="12.214570430184335"><ele>241.0</ele><time>2026-03-23T09:00:15Z</time></trkpt><trkpt lat="45.98578844807602" lon="12.214398849094298"><ele>240.0</ele><time>2026-03-23T09:00:16Z</time></trkpt><trkpt lat="45.98570282463055" lon="12.214222031223208"><ele>239.0</ele><time>2026-03-23T09:00:17Z</time></trkpt><trkpt lat="45.98560819966781" lon="12.21403966200547"><ele>238.0</ele><time>2026-03-23T09:00:18Z</time></trkpt><trkpt lat="45.98551143542117" lon="12.2138531640083"><ele>238.0</ele><time>2026-03-23T09:00:19Z</time></trkpt><trkpt lat="45.985415537238275" lon="12.21366316691886"><ele>238.0</ele><time>2026-03-23T09:00:20Z</time></trkpt><trkpt lat="45.98532356713352" lon="12.213469477539652"><ele>238.0</ele><time>2026-03-23T09:00:21Z</time></trkpt><trkpt lat="45.98522826236575" lon="12.213277735060506"><ele>238.33333333333331</ele><time>2026-03-23T09:00:22Z</time></trkpt><trkpt lat="45.985135461043896" lon="12.213098220548032"><ele>238.66666666666669</ele><time>2026-03-23T09:00:23Z</time></trkpt><trkpt lat="45.985047661084934" lon="12.212917370215518"><ele>239.0</ele><time>2026-03-23T09:00:24Z</time></trkpt><trkpt lat="45.98495900726263" lon="12.21273312415646"><ele>237.66666666666669</ele><time>2026-03-23T09:00:25Z</time></trkpt><trkpt lat="45.98486575585618" lon="12.212549926724442"><ele>236.33333333333331</ele><time>2026-03-23T09:00:26Z</time></trkpt><trkpt lat="45.98477232335674" lon="12.212362354783158"><ele>235.0</ele><time>2026-03-23T09:00:27Z</time></trkpt><trkpt lat="45.98467892422327" lon="12.212169194000689"><ele>235.0</ele><time>2026-03-23T09:00:28Z</time></trkpt><trkpt lat="45.98458441493965" lon="12.211971606105157"><ele>235.0</ele><time>2026-03-23T09:00:29Z</time></trkpt><trkpt lat="45.98448565611338" lon="12.211769753048086"><ele>235.0</ele><time>2026-03-23T09:00:30Z</time></trkpt><trkpt lat="45.984385820055444" lon="12.211566360209808"><ele>234.0</ele><time>2026-03-23T09:00:31Z</time></trkpt><trkpt lat="45.98428800678229" lon="12.211370389371538"><ele>233.0</ele><time>2026-03-23T09:00:32Z</time></trkpt><trkpt lat="45.984195806291034" lon="12.211185678939982"><ele>232.0</ele><time>2026-03-23T09:00:33Z</time></trkpt><trkpt lat="45.98412055515683" lon="12.21100333771505"><ele>232.0</ele><time>2026-03-23T09:00:34Z</time></trkpt><trkpt lat="45.984045492873015" lon="12.210844290711854"><ele>232.0</ele><time>2026-03-23T09:00:35Z</time></trkpt><trkpt lat="45.983953386958106" lon="12.210729109196194"><ele>232.0</ele><time>2026-03-23T09:00:36Z</time></trkpt><trkpt lat="45.983884448156964" lon="12.210613319315584"><ele>232.0</ele><time>2026-03-23T09:00:37Z</time></trkpt><trkpt lat="45.983809897981324" lon="12.210517270394192"><ele>232.33333333333331</ele><time>2026-03-23T09:00:38Z</time></trkpt><trkpt lat="45.98374373987715" lon="12.210434152410143"><ele>232.66666666666666</ele><time>2026-03-23T09:00:39Z</time></trkpt><trkpt lat="45.98368737921402" lon="12.210353377305186"><ele>233.0</ele><time>2026-03-23T09:00:40Z</time></trkpt><trkpt lat="45.98362833176371" lon="12.210312661542803"><ele>233.33333333333331</ele><time>2026-03-23T09:00:41Z</time></trkpt><trkpt lat="45.983613508382845" lon="12.210149233980207"><ele>233.66666666666666</ele><time>2026-03-23T09:00:42Z</time></trkpt><trkpt lat="45.98358129273247" lon="12.210029918175811"><ele>234.0</ele><time>2026-03-23T09:00:43Z</time></trkpt><trkpt lat="45.98354217850937" lon="12.209895025222789"><ele>234.39999999999998</ele><time>2026-03-23T09:00:44Z</time></trkpt><trkpt lat="45.98349307165094" lon="12.209758561357413"><ele>234.79999999999998</ele><time>2026-03-23T09:00:45Z</time></trkpt><trkpt lat="45.98344476415457" lon="12.209629515107752"><ele>235.20000000000002</ele><time>2026-03-23T09:00:46Z</time></trkpt><trkpt lat="45.983402434154755" lon="12.209513949487182"><ele>235.60000000000002</ele><time>2026-03-23T09:00:47Z</time></trkpt><trkpt lat="45.98336431388439" lon="12.209406711160847"><ele>236.0</ele><time>2026-03-23T09:00:48Z</time></trkpt><trkpt lat="45.98332399934218" lon="12.20929405343909"><ele>235.4</ele><time>2026-03-23T09:00:49Z</time></trkpt><trkpt lat="45.983285605645264" lon="12.209178565001642"><ele>234.8</ele><time>2026-03-23T09:00:50Z</time></trkpt><trkpt lat="45.983271296475245" lon="12.209034895083605"><ele>234.20000000000002</ele><time>2026-03-23T09:00:52Z</time></trkpt><trkpt lat="45.98334224788844" lon="12.208909376019317"><ele>233.60000000000002</ele><time>2026-03-23T09:00:54Z</time></trkpt><trkpt lat="45.98341566484422" lon="12.208839723990813"><ele>233.0</ele><time>2026-03-23T09:00:55Z</time></trkpt><trkpt lat="45.98349813604633" lon="12.208763522073092"><ele>234.16666666666669</ele><time>2026-03-23T09:00:56Z</time></trkpt><trkpt lat="45.98358549737367" lon="12.20868504526259"><ele>235.33333333333334</ele><time>2026-03-23T09:00:57Z</time></trkpt><trkpt lat="45.98366090758953" lon="12.208620318298683"><ele>236.5</ele><time>2026-03-23T09:00:57.999Z</time></trkpt><trkpt lat="45.98371863540277" lon="12.208572600777902"><ele>237.66666666666669</ele><time>2026-03-23T09:00:58.999Z</time></trkpt><trkpt lat="45.98381158635538" lon="12.208495759842426"><ele>238.83333333333334</ele><time>2026-03-23T09:01:00.999Z</time></trkpt><trkpt lat="45.98386776396435" lon="12.20844544568677"><ele>240.0</ele><time>2026-03-23T09:01:01.999Z</time></trkpt><trkpt lat="45.98392991629076" lon="12.2083925140081"><ele>240.0</ele><time>2026-03-23T09:01:02.999Z</time></trkpt><trkpt lat="45.98399514753562" lon="12.20833716094901"><ele>240.0</ele><time>2026-03-23T09:01:03.999Z</time></trkpt><trkpt lat="45.98407162430025" lon="12.208296803802467"><ele>240.0</ele><time>2026-03-23T09:01:04.999Z</time></trkpt><trkpt lat="45.984142792342006" lon="12.208219632576958"><ele>240.0</ele><time>2026-03-23T09:01:05.999Z</time></trkpt><trkpt lat="45.984219562959076" lon="12.20815826257585"><ele>240.0</ele><time>2026-03-23T09:01:06.999Z</time></trkpt><trkpt lat="45.98429731170551" lon="12.208086221581894"><ele>240.0</ele><time>2026-03-23T09:01:07.999Z</time></trkpt><trkpt lat="45.98435474669752" lon="12.207991407439767"><ele>241.6</ele><time>2026-03-23T09:01:08.999Z</time></trkpt><trkpt lat="45.9844159202226" lon="12.207896636820957"><ele>243.2</ele><time>2026-03-23T09:01:09.999Z</time></trkpt><trkpt lat="45.9844551203501" lon="12.207767798411254"><ele>244.8</ele><time>2026-03-23T09:01:10.999Z</time></trkpt><trkpt lat="45.98448525817762" lon="12.207623121439674"><ele>246.4</ele><time>2026-03-23T09:01:11.999Z</time></trkpt><trkpt lat="45.984519287532464" lon="12.207470350591661"><ele>248.0</ele><time>2026-03-23T09:01:12.999Z</time></trkpt><trkpt lat="45.9845467013888" lon="12.20730665027906"><ele>248.5</ele><time>2026-03-23T09:01:13.999Z</time></trkpt><trkpt lat="45.98456603172757" lon="12.207137195621911"><ele>249.0</ele><time>2026-03-23T09:01:14.999Z</time></trkpt><trkpt lat="45.98458027112409" lon="12.206962777279147"><ele>249.5</ele><time>2026-03-23T09:01:15.999Z</time></trkpt><trkpt lat="45.984590825203476" lon="12.206745231600744"><ele>250.0</ele><time>2026-03-23T09:01:16.999Z</time></trkpt><trkpt lat="45.984592084124245" lon="12.20654005092657"><ele>251.25</ele><time>2026-03-23T09:01:17.999Z</time></trkpt><trkpt lat="45.984589491277106" lon="12.206344961645826"><ele>252.5</ele><time>2026-03-23T09:01:18.999Z</time></trkpt><trkpt lat="45.98458406699457" lon="12.206154694590849"><ele>253.75</ele><time>2026-03-23T09:01:19.999Z</time></trkpt><trkpt lat="45.984572728446025" lon="12.20596660086135"><ele>255.0</ele><time>2026-03-23T09:01:20.999Z</time></trkpt><trkpt lat="45.984559045385595" lon="12.205807912970327"><ele>255.0</ele><time>2026-03-23T09:01:21.999Z</time></trkpt><trkpt lat="45.984549039587606" lon="12.205673757432596"><ele>255.0</ele><time>2026-03-23T09:01:22.999Z</time></trkpt><trkpt lat="45.984545619243605" lon="12.205543880049449"><ele>255.0</ele><time>2026-03-23T09:01:23.999Z</time></trkpt><trkpt lat="45.984554715328834" lon="12.205405869267517"><ele>255.0</ele><time>2026-03-23T09:01:24.999Z</time></trkpt><trkpt lat="45.98458138174982" lon="12.205267803320654"><ele>255.0</ele><time>2026-03-23T09:01:25.999Z</time></trkpt><trkpt lat="45.984600480619164" lon="12.205117710246851"><ele>255.4</ele><time>2026-03-23T09:01:26.999Z</time></trkpt><trkpt lat="45.98463827322397" lon="12.204981146567533"><ele>255.8</ele><time>2026-03-23T09:01:27.999Z</time></trkpt><trkpt lat="45.98469256289582" lon="12.204848026411616"><ele>256.2</ele><time>2026-03-23T09:01:28.999Z</time></trkpt><trkpt lat="45.98472506611619" lon="12.204691197484285"><ele>256.6</ele><time>2026-03-23T09:01:29.999Z</time></trkpt><trkpt lat="45.98474116449045" lon="12.204544094687842"><ele>257.0</ele><time>2026-03-23T09:01:30.999Z</time></trkpt><trkpt lat="45.984736076885525" lon="12.204389736160588"><ele>258.6</ele><time>2026-03-23T09:01:31.999Z</time></trkpt><trkpt lat="45.984708925243716" lon="12.204244504485985"><ele>260.2</ele><time>2026-03-23T09:01:32.999Z</time></trkpt><trkpt lat="45.98466616515543" lon="12.204098417835"><ele>261.8</ele><time>2026-03-23T09:01:33.999Z</time></trkpt><trkpt lat="45.98462336041933" lon="12.203955318717446"><ele>263.4</ele><time>2026-03-23T09:01:34.999Z</time></trkpt><trkpt lat="45.984586178217796" lon="12.203838548589902"><ele>265.0</ele><time>2026-03-23T09:01:35.999Z</time></trkpt><trkpt lat="45.984546075676526" lon="12.203709561166425"><ele>266.16666666666663</ele><time>2026-03-23T09:01:36.999Z</time></trkpt><trkpt lat="45.98451325159968" lon="12.203588799688866"><ele>267.3333333333333</ele><time>2026-03-23T09:01:37.999Z</time></trkpt><trkpt lat="45.98449031663065" lon="12.203482930386452"><ele>268.5</ele><time>2026-03-23T09:01:38.999Z</time></trkpt><trkpt lat="45.98448094890433" lon="12.203354509974861"><ele>269.6666666666667</ele><time>2026-03-23T09:01:40.999Z</time></trkpt><trkpt lat="45.98455905559384" lon="12.20330510202835"><ele>270.83333333333337</ele><time>2026-03-23T09:01:41.999Z</time></trkpt><trkpt lat="45.98460872897791" lon="12.203221525205318"><ele>272.0</ele><time>2026-03-23T09:01:42.999Z</time></trkpt><trkpt lat="45.98467680189355" lon="12.20315942273434"><ele>273.0</ele><time>2026-03-23T09:01:43.999Z</time></trkpt><trkpt lat="45.98473284078657" lon="12.203065316013669"><ele>274.0</ele><time>2026-03-23T09:01:45.999Z</time></trkpt><trkpt lat="45.9848047379949" lon="12.202874180348072"><ele>275.0</ele><time>2026-03-23T09:01:47.999Z</time></trkpt><trkpt lat="45.98488054035216" lon="12.202839694906643"><ele>276.0</ele><time>2026-03-23T09:01:48.999Z</time></trkpt><trkpt lat="45.98494792964422" lon="12.202813382592437"><ele>277.0</ele><time>2026-03-23T09:01:49.999Z</time></trkpt><trkpt lat="45.98502697929726" lon="12.202781624653168"><ele>279.4</ele><time>2026-03-23T09:01:50.999Z</time></trkpt><trkpt lat="45.9851067431641" lon="12.202749579601898"><ele>281.79999999999995</ele><time>2026-03-23T09:01:51.999Z</time></trkpt><trkpt lat="45.98516812255439" lon="12.202712968070639"><ele>284.2</ele><time>2026-03-23T09:01:52.999Z</time></trkpt><trkpt lat="45.985230938795986" lon="12.20266517271879"><ele>286.59999999999997</ele><time>2026-03-23T09:01:53.999Z</time></trkpt><trkpt lat="45.98531926215706" lon="12.202488981541256"><ele>289.0</ele><time>2026-03-23T09:01:55.999Z</time></trkpt><trkpt lat="45.98540592051326" lon="12.202387327821299"><ele>290.0</ele><time>2026-03-23T09:01:57Z</time></trkpt><trkpt lat="45.985495506285694" lon="12.202286577648094"><ele>291.0</ele><time>2026-03-23T09:01:58Z</time></trkpt><trkpt lat="45.98557059111793" lon="12.202202134557712"><ele>292.0</ele><time>2026-03-23T09:01:59Z</time></trkpt><trkpt lat="45.98563682080559" lon="12.202127650035097"><ele>293.0</ele><time>2026-03-23T09:02:00Z</time></trkpt><trkpt lat="45.98570264115433" lon="12.202053625869874"><ele>294.0</ele><time>2026-03-23T09:02:01Z</time></trkpt><trkpt lat="45.98595755041971" lon="12.202333718399727"><ele>297.4</ele><time>2026-03-23T09:02:02Z</time></trkpt><trkpt lat="45.98604277310197" lon="12.202305937938258"><ele>300.79999999999995</ele><time>2026-03-23T09:02:03Z</time></trkpt><trkpt lat="45.986136514476954" lon="12.202292999713828"><ele>304.20000000000005</ele><time>2026-03-23T09:02:04Z</time></trkpt><trkpt lat="45.98623245061775" lon="12.20227844497546"><ele>307.6</ele><time>2026-03-23T09:02:05Z</time></trkpt><trkpt lat="45.986336307973" lon="12.202225516357082"><ele>311.0</ele><time>2026-03-23T09:02:06Z</time></trkpt><trkpt lat="45.986474992644034" lon="12.20214234715411"><ele>311.0</ele><time>2026-03-23T09:02:07Z</time></trkpt><trkpt lat="45.98661054155017" lon="12.202053404670561"><ele>311.0</ele><time>2026-03-23T09:02:08Z</time></trkpt><trkpt lat="45.986711308310895" lon="12.201989314851122"><ele>311.0</ele><time>2026-03-23T09:02:09Z</time></trkpt><trkpt lat="45.98678844472574" lon="12.20194496776248"><ele>311.0</ele><time>2026-03-23T09:02:10Z</time></trkpt><trkpt lat="45.986859105360104" lon="12.201894084311407"><ele>311.0</ele><time>2026-03-23T09:02:11Z</time></trkpt><trkpt lat="45.98691048004261" lon="12.201832857388284"><ele>314.83333333333337</ele><time>2026-03-23T09:02:12Z</time></trkpt><trkpt lat="45.98693255340886" lon="12.20174550513447"><ele>318.6666666666667</ele><time>2026-03-23T09:02:13Z</time></trkpt><trkpt lat="45.98694531734524" lon="12.201640685478683"><ele>322.5</ele><time>2026-03-23T09:02:14Z</time></trkpt><trkpt lat="45.98694981562273" lon="12.201531834005028"><ele>326.3333333333333</ele><time>2026-03-23T09:02:15Z</time></trkpt><trkpt lat="45.9869533227971" lon="12.201431980272082"><ele>330.16666666666663</ele><time>2026-03-23T09:02:16Z</time></trkpt><trkpt lat="45.986987713093164" lon="12.201254030793693"><ele>334.0</ele><time>2026-03-23T09:02:18Z</time></trkpt><trkpt lat="45.987022796014614" lon="12.201163939996128"><ele>336.0</ele><time>2026-03-23T09:02:19Z</time></trkpt><trkpt lat="45.987046412325" lon="12.201076445111147"><ele>338.0</ele><time>2026-03-23T09:02:20Z</time></trkpt><trkpt lat="45.987060380137635" lon="12.200984455784623"><ele>340.0</ele><time>2026-03-23T09:02:21Z</time></trkpt><trkpt lat="45.98707990662308" lon="12.200882966371461"><ele>342.0</ele><time>2026-03-23T09:02:22Z</time></trkpt><trkpt lat="45.98717681963474" lon="12.200763458074869"><ele>344.0</ele><time>2026-03-23T09:02:24Z</time></trkpt><trkpt lat="45.98724960455109" lon="12.200719057773364"><ele>346.0</ele><time>2026-03-23T09:02:25Z</time></trkpt><trkpt lat="45.987241956791856" lon="12.200568313246158"><ele>348.20000000000005</ele><time>2026-03-23T09:02:27Z</time></trkpt><trkpt lat="45.987209186050535" lon="12.200487257154997"><ele>350.40000000000003</ele><time>2026-03-23T09:02:28Z</time></trkpt><trkpt lat="45.98715431101387" lon="12.200408741542326"><ele>352.6</ele><time>2026-03-23T09:02:29Z</time></trkpt><trkpt lat="45.98706093888488" lon="12.200363829595435"><ele>354.8</ele><time>2026-03-23T09:02:30Z</time></trkpt><trkpt lat="45.986998641230095" lon="12.200252985312869"><ele>357.0</ele><time>2026-03-23T09:02:32Z</time></trkpt><trkpt lat="45.98702089656109" lon="12.200027259978317"><ele>357.0</ele><time>2026-03-23T09:02:34Z</time></trkpt><trkpt lat="45.98703745422021" lon="12.199889434919486"><ele>357.0</ele><time>2026-03-23T09:02:35Z</time></trkpt><trkpt lat="45.98702091523348" lon="12.199774297185119"><ele>357.0</ele><time>2026-03-23T09:02:36Z</time></trkpt><trkpt lat="45.98695984308391" lon="12.199652198443166"><ele>357.0</ele><time>2026-03-23T09:02:37Z</time></trkpt><trkpt lat="45.98693093176668" lon="12.199537147883847"><ele>357.0</ele><time>2026-03-23T09:02:39Z</time></trkpt><trkpt lat="45.98700190311426" lon="12.199529228816223"><ele>357.0</ele><time>2026-03-23T09:02:41Z</time></trkpt><trkpt lat="45.9870943001691" lon="12.199644348692596"><ele>357.0</ele><time>2026-03-23T09:02:43Z</time></trkpt><trkpt lat="45.987165826133136" lon="12.199759713328227"><ele>357.0</ele><time>2026-03-23T09:02:44Z</time></trkpt><trkpt lat="45.98722937299678" lon="12.199865472292842"><ele>357.0</ele><time>2026-03-23T09:02:45Z</time></trkpt><trkpt lat="45.98727236173333" lon="12.199934914194008"><ele>357.0</ele><time>2026-03-23T09:02:46Z</time></trkpt><trkpt lat="45.9873050148125" lon="12.199814830115459"><ele>357.0</ele><time>2026-03-23T09:02:50Z</time></trkpt><trkpt lat="45.98720103059875" lon="12.199647693804527"><ele>361.6</ele><time>2026-03-23T09:02:52Z</time></trkpt><trkpt lat="45.987129971004016" lon="12.19952854343017"><ele>366.20000000000005</ele><time>2026-03-23T09:02:53Z</time></trkpt><trkpt lat="45.987090116492325" lon="12.199437627871617"><ele>370.8</ele><time>2026-03-23T09:02:54Z</time></trkpt><trkpt lat="45.98706812642089" lon="12.199319014656712"><ele>375.4</ele><time>2026-03-23T09:02:56Z</time></trkpt><trkpt lat="45.98713626348872" lon="12.199310415194008"><ele>380.0</ele><time>2026-03-23T09:02:58Z</time></trkpt><trkpt lat="45.98719795499569" lon="12.199446931578125"><ele>380.0</ele><time>2026-03-23T09:03:00Z</time></trkpt><trkpt lat="45.98723914223873" lon="12.199522746656147"><ele>380.0</ele><time>2026-03-23T09:03:01Z</time></trkpt><trkpt lat="45.98731251162089" lon="12.199565268327312"><ele>380.0</ele><time>2026-03-23T09:03:02Z</time></trkpt><trkpt lat="45.98742153154968" lon="12.199638941169445"><ele>380.0</ele><time>2026-03-23T09:03:03Z</time></trkpt><trkpt lat="45.98755916905779" lon="12.199710268156176"><ele>380.0</ele><time>2026-03-23T09:03:04Z</time></trkpt><trkpt lat="45.987670088117056" lon="12.199767203489378"><ele>379.83333333333337</ele><time>2026-03-23T09:03:05Z</time></trkpt><trkpt lat="45.9877564172734" lon="12.199813192086069"><ele>379.6666666666667</ele><time>2026-03-23T09:03:06Z</time></trkpt><trkpt lat="45.98782916887724" lon="12.19984727677752"><ele>379.5</ele><time>2026-03-23T09:03:07Z</time></trkpt><trkpt lat="45.987891029495714" lon="12.19988110142558"><ele>379.3333333333333</ele><time>2026-03-23T09:03:08Z</time></trkpt><trkpt lat="45.9879706521926" lon="12.199864313919338"><ele>379.16666666666663</ele><time>2026-03-23T09:03:09Z</time></trkpt><trkpt lat="45.98806862137262" lon="12.19983284556026"><ele>379.0</ele><time>2026-03-23T09:03:10Z</time></trkpt><trkpt lat="45.98813586003121" lon="12.199817121949415"><ele>385.0</ele><time>2026-03-23T09:03:11Z</time></trkpt><trkpt lat="45.98812916412102" lon="12.199714427654419"><ele>391.0</ele><time>2026-03-23T09:03:14Z</time></trkpt><trkpt lat="45.98799849889423" lon="12.199708259945712"><ele>397.0</ele><time>2026-03-23T09:03:16Z</time></trkpt><trkpt lat="45.987923600192076" lon="12.19969244907607"><ele>403.0</ele><time>2026-03-23T09:03:17Z</time></trkpt><trkpt lat="45.98784431674832" lon="12.199530053789488"><ele>409.0</ele><time>2026-03-23T09:03:19Z</time></trkpt><trkpt lat="45.98776986902626" lon="12.199412582946348"><ele>409.0</ele><time>2026-03-23T09:03:20Z</time></trkpt><trkpt lat="45.98765854997933" lon="12.199290218873292"><ele>409.0</ele><time>2026-03-23T09:03:21Z</time></trkpt><trkpt lat="45.98755517616998" lon="12.199183997177437"><ele>409.0</ele><time>2026-03-23T09:03:22Z</time></trkpt><trkpt lat="45.98748715492203" lon="12.199113488549512"><ele>409.0</ele><time>2026-03-23T09:03:23Z</time></trkpt><trkpt lat="45.98744711234825" lon="12.199020791828389"><ele>409.0</ele><time>2026-03-23T09:03:24Z</time></trkpt><trkpt lat="45.98740269960887" lon="12.198898364408775"><ele>409.79999999999995</ele><time>2026-03-23T09:03:25Z</time></trkpt><trkpt lat="45.98736195308511" lon="12.19875207379758"><ele>410.59999999999997</ele><time>2026-03-23T09:03:26Z</time></trkpt><trkpt lat="45.98731663111719" lon="12.198628150659605"><ele>411.4</ele><time>2026-03-23T09:03:27Z</time></trkpt><trkpt lat="45.98723671081948" lon="12.198525800203546"><ele>412.2</ele><time>2026-03-23T09:03:28Z</time></trkpt><trkpt lat="45.987137965421546" lon="12.198437898934811"><ele>413.0</ele><time>2026-03-23T09:03:29Z</time></trkpt><trkpt lat="45.987046159787354" lon="12.198357714318393"><ele>412.99999999999994</ele><time>2026-03-23T09:03:30Z</time></trkpt><trkpt lat="45.98696102748293" lon="12.198290414686356"><ele>413.0</ele><time>2026-03-23T09:03:31Z</time></trkpt><trkpt lat="45.986900328604605" lon="12.198246774010515"><ele>413.0</ele><time>2026-03-23T09:03:32Z</time></trkpt><trkpt lat="45.986849950906" lon="12.198164916923453"><ele>413.0</ele><time>2026-03-23T09:03:33Z</time></trkpt><trkpt lat="45.986795196724096" lon="12.198083337092948"><ele>412.99999999999994</ele><time>2026-03-23T09:03:34Z</time></trkpt><trkpt lat="45.986729429699736" lon="12.197979594667496"><ele>413.0</ele><time>2026-03-23T09:03:35Z</time></trkpt><trkpt lat="45.98667385278602" lon="12.197885189378814"><ele>414.59999999999997</ele><time>2026-03-23T09:03:36Z</time></trkpt><trkpt lat="45.98663224358597" lon="12.19776179652206"><ele>416.2</ele><time>2026-03-23T09:03:37Z</time></trkpt><trkpt lat="45.986606979771096" lon="12.197656630818216"><ele>417.8</ele><time>2026-03-23T09:03:38Z</time></trkpt><trkpt lat="45.98657539163527" lon="12.19754093195872"><ele>419.4</ele><time>2026-03-23T09:03:39Z</time></trkpt><trkpt lat="45.98653699018918" lon="12.197408678968156"><ele>421.0</ele><time>2026-03-23T09:03:40Z</time></trkpt><trkpt lat="45.98651420230727" lon="12.197277722220365"><ele>421.0</ele><time>2026-03-23T09:03:41Z</time></trkpt><trkpt lat="45.98650746299353" lon="12.197118520739158"><ele>421.0</ele><time>2026-03-23T09:03:42Z</time></trkpt><trkpt lat="45.98648582993314" lon="12.196940278289798"><ele>421.0</ele><time>2026-03-23T09:03:43Z</time></trkpt><trkpt lat="45.986457339963216" lon="12.196746609331688"><ele>421.0</ele><time>2026-03-23T09:03:44Z</time></trkpt><trkpt lat="45.98643084986627" lon="12.196539173929898"><ele>423.25</ele><time>2026-03-23T09:03:44.999Z</time></trkpt><trkpt lat="45.98641428413655" lon="12.196314008062068"><ele>425.5</ele><time>2026-03-23T09:03:45.999Z</time></trkpt><trkpt lat="45.98638509459301" lon="12.196120876233014"><ele>427.75</ele><time>2026-03-23T09:03:46.999Z</time></trkpt><trkpt lat="45.98636035462511" lon="12.195943137578164"><ele>430.0</ele><time>2026-03-23T09:03:47.999Z</time></trkpt><trkpt lat="45.98633618900959" lon="12.195786729366475"><ele>431.25</ele><time>2026-03-23T09:03:48.999Z</time></trkpt><trkpt lat="45.9863258661209" lon="12.195639662607924"><ele>432.5</ele><time>2026-03-23T09:03:49.999Z</time></trkpt><trkpt lat="45.98634195279562" lon="12.195472828344736"><ele>433.75</ele><time>2026-03-23T09:03:50.999Z</time></trkpt><trkpt lat="45.98635602735559" lon="12.19529756248258"><ele>435.0</ele><time>2026-03-23T09:03:51.999Z</time></trkpt><trkpt lat="45.98635066271378" lon="12.195135559249637"><ele>435.0</ele><time>2026-03-23T09:03:52.999Z</time></trkpt><trkpt lat="45.98632840559727" lon="12.194994957753735"><ele>435.0</ele><time>2026-03-23T09:03:53.999Z</time></trkpt><trkpt lat="45.98628768350257" lon="12.194892815074464"><ele>435.0</ele><time>2026-03-23T09:03:55Z</time></trkpt><trkpt lat="45.986301626077314" lon="12.194800424282288"><ele>435.0</ele><time>2026-03-23T09:03:56Z</time></trkpt><trkpt lat="45.98632809315921" lon="12.194703435985392"><ele>435.0</ele><time>2026-03-23T09:03:57Z</time></trkpt><trkpt lat="45.986359427869836" lon="12.194611289404486"><ele>435.0</ele><time>2026-03-23T09:03:58Z</time></trkpt><trkpt lat="45.98641684887756" lon="12.194511225611656"><ele>435.0</ele><time>2026-03-23T09:04:00Z</time></trkpt><trkpt lat="45.9864661823093" lon="12.194599486226824"><ele>435.0</ele><time>2026-03-23T09:04:04Z</time></trkpt><trkpt lat="45.986431266613586" lon="12.19481731698053"><ele>435.0</ele><time>2026-03-23T09:04:06Z</time></trkpt><trkpt lat="45.986433368537746" lon="12.194925920152281"><ele>435.0</ele><time>2026-03-23T09:04:07Z</time></trkpt><trkpt lat="45.98646024870713" lon="12.19502966544908"><ele>435.0</ele><time>2026-03-23T09:04:08Z</time></trkpt><trkpt lat="45.986498136122364" lon="12.195157249877367"><ele>435.0</ele><time>2026-03-23T09:04:09Z</time></trkpt><trkpt lat="45.98653604995527" lon="12.195305447394402"><ele>435.0</ele><time>2026-03-23T09:04:10Z</time></trkpt><trkpt lat="45.986581302463236" lon="12.19547235080654"><ele>435.0</ele><time>2026-03-23T09:04:11Z</time></trkpt><trkpt lat="45.98663633701751" lon="12.195630945849286"><ele>435.0</ele><time>2026-03-23T09:04:12Z</time></trkpt><trkpt lat="45.98666167616338" lon="12.195761566647368"><ele>445.0</ele><time>2026-03-23T09:04:13Z</time></trkpt><trkpt lat="45.986705653819385" lon="12.195895815740164"><ele>455.0</ele><time>2026-03-23T09:04:14Z</time></trkpt><trkpt lat="45.98675470124032" lon="12.196051971996512"><ele>465.0</ele><time>2026-03-23T09:04:15Z</time></trkpt><trkpt lat="45.986802326954745" lon="12.196236285450736"><ele>475.0</ele><time>2026-03-23T09:04:16Z</time></trkpt><trkpt lat="45.986842827371106" lon="12.196402821519326"><ele>473.2</ele><time>2026-03-23T09:04:17Z</time></trkpt><trkpt lat="45.98687439467255" lon="12.19652333582761"><ele>471.4</ele><time>2026-03-23T09:04:18Z</time></trkpt><trkpt lat="45.98691318865592" lon="12.196645436852078"><ele>469.6</ele><time>2026-03-23T09:04:19Z</time></trkpt><trkpt lat="45.986966029793095" lon="12.196747521702836"><ele>467.8</ele><time>2026-03-23T09:04:20Z</time></trkpt><trkpt lat="45.98702927207207" lon="12.196858613231873"><ele>466.0</ele><time>2026-03-23T09:04:21Z</time></trkpt><trkpt lat="45.98709842423915" lon="12.19697857074793"><ele>466.0</ele><time>2026-03-23T09:04:22Z</time></trkpt><trkpt lat="45.9871796385837" lon="12.197110400698845"><ele>466.0</ele><time>2026-03-23T09:04:23Z</time></trkpt><trkpt lat="45.9872433238441" lon="12.197231489307908"><ele>466.0</ele><time>2026-03-23T09:04:24Z</time></trkpt><trkpt lat="45.98730465173545" lon="12.19734190318053"><ele>466.0</ele><time>2026-03-23T09:04:25Z</time></trkpt><trkpt lat="45.987387452315566" lon="12.197416161932685"><ele>466.0</ele><time>2026-03-23T09:04:26Z</time></trkpt><trkpt lat="45.98745741329197" lon="12.197480379717383"><ele>467.8</ele><time>2026-03-23T09:04:27Z</time></trkpt><trkpt lat="45.98753579609852" lon="12.197552601612417"><ele>469.6</ele><time>2026-03-23T09:04:28Z</time></trkpt><trkpt lat="45.987621530655254" lon="12.197602913043104"><ele>471.4</ele><time>2026-03-23T09:04:29Z</time></trkpt><trkpt lat="45.98769722740077" lon="12.197646377673557"><ele>473.2</ele><time>2026-03-23T09:04:30Z</time></trkpt><trkpt lat="45.98778643680472" lon="12.19767536940814"><ele>475.0</ele><time>2026-03-23T09:04:31Z</time></trkpt><trkpt lat="45.987876404836925" lon="12.197765049828169"><ele>475.0</ele><time>2026-03-23T09:04:32Z</time></trkpt><trkpt lat="45.98795617002108" lon="12.197854257677959"><ele>475.0</ele><time>2026-03-23T09:04:33Z</time></trkpt><trkpt lat="45.98802209556095" lon="12.197922896120252"><ele>475.0</ele><time>2026-03-23T09:04:34Z</time></trkpt><trkpt lat="45.98805443984452" lon="12.19781473851161"><ele>475.0</ele><time>2026-03-23T09:04:39Z</time></trkpt><trkpt lat="45.987973670807264" lon="12.197748420828445"><ele>475.0</ele><time>2026-03-23T09:04:41Z</time></trkpt><trkpt lat="45.98791913373964" lon="12.19762294112967"><ele>475.00000000000006</ele><time>2026-03-23T09:04:42Z</time></trkpt><trkpt lat="45.98785776011499" lon="12.197540326084036"><ele>475.0</ele><time>2026-03-23T09:04:43Z</time></trkpt><trkpt lat="45.9878000728338" lon="12.197438063538753"><ele>475.0</ele><time>2026-03-23T09:04:44Z</time></trkpt><trkpt lat="45.987728835031035" lon="12.19736485134383"><ele>475.0</ele><time>2026-03-23T09:04:45Z</time></trkpt><trkpt lat="45.98766686870013" lon="12.19728697153202"><ele>475.00000000000006</ele><time>2026-03-23T09:04:46Z</time></trkpt><trkpt lat="45.987640346514546" lon="12.19720005179495"><ele>475.0</ele><time>2026-03-23T09:04:47Z</time></trkpt><trkpt lat="45.98762166926427" lon="12.197071964682067"><ele>475.0</ele><time>2026-03-23T09:04:48Z</time></trkpt><trkpt lat="45.987578055647184" lon="12.196943361453794"><ele>475.0</ele><time>2026-03-23T09:04:49Z</time></trkpt><trkpt lat="45.987513679068876" lon="12.196751307985437"><ele>475.0</ele><time>2026-03-23T09:04:50Z</time></trkpt><trkpt lat="45.98747169653399" lon="12.196620486763747"><ele>475.0</ele><time>2026-03-23T09:04:51Z</time></trkpt><trkpt lat="45.987447771140076" lon="12.19651785607841"><ele>475.0</ele><time>2026-03-23T09:04:52Z</time></trkpt><trkpt lat="45.98743267809033" lon="12.196366169992052"><ele>475.0</ele><time>2026-03-23T09:04:53Z</time></trkpt><trkpt lat="45.98740048190782" lon="12.196206180409044"><ele>475.0</ele><time>2026-03-23T09:04:54Z</time></trkpt><trkpt lat="45.98740390059328" lon="12.196032400812916"><ele>475.0</ele><time>2026-03-23T09:04:55Z</time></trkpt><trkpt lat="45.9873902964684" lon="12.195825618322777"><ele>475.0</ele><time>2026-03-23T09:04:56Z</time></trkpt><trkpt lat="45.98738333651123" lon="12.19567129391731"><ele>475.0</ele><time>2026-03-23T09:04:57Z</time></trkpt><trkpt lat="45.98737810632366" lon="12.195578493399921"><ele>475.0</ele><time>2026-03-23T09:04:58Z</time></trkpt><trkpt lat="45.98739873085558" lon="12.19544615237292"><ele>475.0</ele><time>2026-03-23T09:04:59Z</time></trkpt><trkpt lat="45.98740515486394" lon="12.195306671638022"><ele>475.0</ele><time>2026-03-23T09:05:00Z</time></trkpt><trkpt lat="45.98742581110492" lon="12.195173844258264"><ele>475.0</ele><time>2026-03-23T09:05:01Z</time></trkpt><trkpt lat="45.987477858251964" lon="12.195014329599864"><ele>475.0</ele><time>2026-03-23T09:05:02Z</time></trkpt><trkpt lat="45.98746217591974" lon="12.194891876112237"><ele>475.0</ele><time>2026-03-23T09:05:03Z</time></trkpt><trkpt lat="45.987513583943986" lon="12.194776529889376"><ele>475.0</ele><time>2026-03-23T09:05:04Z</time></trkpt><trkpt lat="45.987572469815404" lon="12.194656750979151"><ele>475.0</ele><time>2026-03-23T09:05:05Z</time></trkpt><trkpt lat="45.987644330384896" lon="12.194538802352309"><ele>475.0</ele><time>2026-03-23T09:05:06Z</time></trkpt><trkpt lat="45.98770877637498" lon="12.194429619183344"><ele>481.00000000000006</ele><time>2026-03-23T09:05:07Z</time></trkpt><trkpt lat="45.98777406786736" lon="12.194346169028893"><ele>487.0</ele><time>2026-03-23T09:05:08Z</time></trkpt><trkpt lat="45.98783985516618" lon="12.19428510251456"><ele>493.0</ele><time>2026-03-23T09:05:09Z</time></trkpt><trkpt lat="45.98791185437077" lon="12.194233656000327"><ele>499.0</ele><time>2026-03-23T09:05:10Z</time></trkpt><trkpt lat="45.987995974636505" lon="12.194183146026832"><ele>505.00000000000006</ele><time>2026-03-23T09:05:11Z</time></trkpt><trkpt lat="45.98805326896278" lon="12.194074592846219"><ele>511.0</ele><time>2026-03-23T09:05:13Z</time></trkpt><trkpt lat="45.98796874784809" lon="12.193899808468966"><ele>513.2</ele><time>2026-03-23T09:05:15Z</time></trkpt><trkpt lat="45.98790097226866" lon="12.19376843159803"><ele>515.4000000000001</ele><time>2026-03-23T09:05:16Z</time></trkpt><trkpt lat="45.98785502615622" lon="12.193612421792276"><ele>517.6</ele><time>2026-03-23T09:05:17Z</time></trkpt><trkpt lat="45.987839482944686" lon="12.19349316705232"><ele>519.8000000000001</ele><time>2026-03-23T09:05:18Z</time></trkpt><trkpt lat="45.98775711941373" lon="12.193425887845338"><ele>522.0</ele><time>2026-03-23T09:05:19Z</time></trkpt><trkpt lat="45.98766100458769" lon="12.193367213496721"><ele>522.0</ele><time>2026-03-23T09:05:20Z</time></trkpt><trkpt lat="45.9875798755005" lon="12.193317618057245"><ele>522.0</ele><time>2026-03-23T09:05:21Z</time></trkpt><trkpt lat="45.98753490665182" lon="12.193237325156613"><ele>522.0</ele><time>2026-03-23T09:05:22Z</time></trkpt><trkpt lat="45.98749975502426" lon="12.193137133604386"><ele>522.0</ele><time>2026-03-23T09:05:23Z</time></trkpt><trkpt lat="45.98748453528201" lon="12.19303709235533"><ele>522.0</ele><time>2026-03-23T09:05:24Z</time></trkpt><trkpt lat="45.98751777938369" lon="12.192950750731415"><ele>522.0</ele><time>2026-03-23T09:05:26Z</time></trkpt><trkpt lat="45.98760861007089" lon="12.193037462261863"><ele>522.0</ele><time>2026-03-23T09:05:29Z</time></trkpt><trkpt lat="45.98764561523661" lon="12.193119051233802"><ele>522.0</ele><time>2026-03-23T09:05:30Z</time></trkpt><trkpt lat="45.98774724966678" lon="12.193178227926104"><ele>522.0</ele><time>2026-03-23T09:05:32Z</time></trkpt><trkpt lat="45.98783103892115" lon="12.193194620448091"><ele>522.0</ele><time>2026-03-23T09:05:33Z</time></trkpt><trkpt lat="45.98793082687994" lon="12.1931899164989"><ele>522.0</ele><time>2026-03-23T09:05:34Z</time></trkpt><trkpt lat="45.9880130414464" lon="12.19323465091073"><ele>522.0</ele><time>2026-03-23T09:05:35Z</time></trkpt><trkpt lat="45.98807957999295" lon="12.193310493766559"><ele>522.0</ele><time>2026-03-23T09:05:36Z</time></trkpt><trkpt lat="45.98813937875118" lon="12.193434592443118"><ele>522.0</ele><time>2026-03-23T09:05:37Z</time></trkpt><trkpt lat="45.98819860433347" lon="12.193589341412888"><ele>522.0</ele><time>2026-03-23T09:05:38Z</time></trkpt><trkpt lat="45.98826659375275" lon="12.193733212384883"><ele>522.0</ele><time>2026-03-23T09:05:39Z</time></trkpt><trkpt lat="45.988336835931506" lon="12.193858926519175"><ele>526.8333333333334</ele><time>2026-03-23T09:05:40Z</time></trkpt><trkpt lat="45.98839650668428" lon="12.193942993073223"><ele>531.6666666666666</ele><time>2026-03-23T09:05:41Z</time></trkpt><trkpt lat="45.988449314486154" lon="12.194010890172368"><ele>536.5</ele><time>2026-03-23T09:05:42Z</time></trkpt><trkpt lat="45.988533428741015" lon="12.194063689387654"><ele>541.3333333333333</ele><time>2026-03-23T09:05:43Z</time></trkpt><trkpt lat="45.988601709586064" lon="12.194132385050342"><ele>546.1666666666666</ele><time>2026-03-23T09:05:44Z</time></trkpt><trkpt lat="45.98861419857838" lon="12.194225562895197"><ele>551.0</ele><time>2026-03-23T09:05:45Z</time></trkpt><trkpt lat="45.98858241376514" lon="12.194313388776944"><ele>551.0</ele><time>2026-03-23T09:05:46Z</time></trkpt><trkpt lat="45.988512486961156" lon="12.19439285120139"><ele>551.0</ele><time>2026-03-23T09:05:47Z</time></trkpt><trkpt lat="45.9884232578591" lon="12.194476098957546"><ele>551.0</ele><time>2026-03-23T09:05:48Z</time></trkpt><trkpt lat="45.988366378148285" lon="12.194555052217703"><ele>551.0</ele><time>2026-03-23T09:05:49Z</time></trkpt><trkpt lat="45.98832981049423" lon="12.194673218728058"><ele>551.0</ele><time>2026-03-23T09:05:50Z</time></trkpt><trkpt lat="45.98831919976856" lon="12.194832411223384"><ele>551.8</ele><time>2026-03-23T09:05:51Z</time></trkpt><trkpt lat="45.988325409376095" lon="12.195021058088889"><ele>552.6</ele><time>2026-03-23T09:05:52Z</time></trkpt><trkpt lat="45.988328093939536" lon="12.195167701645094"><ele>553.4</ele><time>2026-03-23T09:05:53Z</time></trkpt><trkpt lat="45.98835218383909" lon="12.195309327825564"><ele>554.2</ele><time>2026-03-23T09:05:54Z</time></trkpt><trkpt lat="45.988373945651745" lon="12.19546695901095"><ele>555.0</ele><time>2026-03-23T09:05:55Z</time></trkpt><trkpt lat="45.98838206845965" lon="12.19564393789667"><ele>553.6</ele><time>2026-03-23T09:05:56Z</time></trkpt><trkpt lat="45.98839728186145" lon="12.195777455112971"><ele>552.2</ele><time>2026-03-23T09:05:57Z</time></trkpt><trkpt lat="45.98843820475205" lon="12.195883865833467"><ele>550.8</ele><time>2026-03-23T09:05:58Z</time></trkpt><trkpt lat="45.98850738205247" lon="12.195975946486403"><ele>549.4</ele><time>2026-03-23T09:05:59Z</time></trkpt><trkpt lat="45.98860328454526" lon="12.196067178572976"><ele>548.0</ele><time>2026-03-23T09:06:00Z</time></trkpt><trkpt lat="45.98869525687749" lon="12.196159350564443"><ele>548.0</ele><time>2026-03-23T09:06:01Z</time></trkpt><trkpt lat="45.98874042567027" lon="12.196234649536082"><ele>548.0</ele><time>2026-03-23T09:06:02Z</time></trkpt><trkpt lat="45.9887958208031" lon="12.19628318760261"><ele>548.0</ele><time>2026-03-23T09:06:03Z</time></trkpt><trkpt lat="45.988869612228065" lon="12.196322035571638"><ele>548.0</ele><time>2026-03-23T09:06:04Z</time></trkpt><trkpt lat="45.988971251358386" lon="12.196336620681949"><ele>548.0</ele><time>2026-03-23T09:06:05Z</time></trkpt><trkpt lat="45.98908997892709" lon="12.196356715223038"><ele>548.0</ele><time>2026-03-23T09:06:06Z</time></trkpt><trkpt lat="45.989192286600996" lon="12.196367136734466"><ele>548.0</ele><time>2026-03-23T09:06:07Z</time></trkpt><trkpt lat="45.98926802638156" lon="12.196435460278892"><ele>548.0</ele><time>2026-03-23T09:06:08Z</time></trkpt><trkpt lat="45.989334769085374" lon="12.196506880792514"><ele>548.0</ele><time>2026-03-23T09:06:10Z</time></trkpt><trkpt lat="45.98937616788879" lon="12.196398616727318"><ele>548.0</ele><time>2026-03-23T09:06:13Z</time></trkpt><trkpt lat="45.98929767535514" lon="12.196313126184188"><ele>548.0</ele><time>2026-03-23T09:06:15Z</time></trkpt><trkpt lat="45.98922145808767" lon="12.196290844207944"><ele>548.0</ele><time>2026-03-23T09:06:16Z</time></trkpt><trkpt lat="45.98911941247795" lon="12.196235412784059"><ele>548.0</ele><time>2026-03-23T09:06:17Z</time></trkpt><trkpt lat="45.98901748104494" lon="12.19617370614443"><ele>548.0</ele><time>2026-03-23T09:06:18Z</time></trkpt><trkpt lat="45.98895336949931" lon="12.196100879574812"><ele>548.0</ele><time>2026-03-23T09:06:19Z</time></trkpt><trkpt lat="45.988896284946065" lon="12.19602089560483"><ele>548.0</ele><time>2026-03-23T09:06:20Z</time></trkpt><trkpt lat="45.98884686410584" lon="12.195917109395133"><ele>548.0</ele><time>2026-03-23T09:06:21Z</time></trkpt><trkpt lat="45.988793954086645" lon="12.195798758940613"><ele>548.0</ele><time>2026-03-23T09:06:22Z</time></trkpt><trkpt lat="45.98878772943291" lon="12.195694413823443"><ele>548.0</ele><time>2026-03-23T09:06:23Z</time></trkpt><trkpt lat="45.9887906904709" lon="12.19559547087405"><ele>548.0</ele><time>2026-03-23T09:06:24Z</time></trkpt><trkpt lat="45.98881166006122" lon="12.195479862226339"><ele>548.0</ele><time>2026-03-23T09:06:25Z</time></trkpt><trkpt lat="45.988844161080706" lon="12.195312629379826"><ele>548.0</ele><time>2026-03-23T09:06:26Z</time></trkpt><trkpt lat="45.988873106714415" lon="12.195119833839474"><ele>548.6</ele><time>2026-03-23T09:06:27Z</time></trkpt><trkpt lat="45.98890962786378" lon="12.194941956784163"><ele>549.1999999999999</ele><time>2026-03-23T09:06:28Z</time></trkpt><trkpt lat="45.988954757184224" lon="12.194779061607713"><ele>549.8</ele><time>2026-03-23T09:06:29Z</time></trkpt><trkpt lat="45.98899345695682" lon="12.194650799115804"><ele>550.4</ele><time>2026-03-23T09:06:30Z</time></trkpt><trkpt lat="45.98904860368929" lon="12.194535038112088"><ele>551.0</ele><time>2026-03-23T09:06:31Z</time></trkpt><trkpt lat="45.98911503174331" lon="12.194409509235115"><ele>557.8333333333333</ele><time>2026-03-23T09:06:32Z</time></trkpt><trkpt lat="45.989181773045594" lon="12.194298307296243"><ele>564.6666666666666</ele><time>2026-03-23T09:06:33Z</time></trkpt><trkpt lat="45.98925530126198" lon="12.194201955313645"><ele>571.5</ele><time>2026-03-23T09:06:34Z</time></trkpt><trkpt lat="45.98931388287854" lon="12.194107501051112"><ele>578.3333333333334</ele><time>2026-03-23T09:06:35Z</time></trkpt><trkpt lat="45.98934388809158" lon="12.19400520588918"><ele>585.1666666666667</ele><time>2026-03-23T09:06:36Z</time></trkpt><trkpt lat="45.989312852157944" lon="12.193899839985582"><ele>592.0</ele><time>2026-03-23T09:06:37Z</time></trkpt><trkpt lat="45.98928131626447" lon="12.193803441361759"><ele>593.4</ele><time>2026-03-23T09:06:38Z</time></trkpt><trkpt lat="45.98920973591866" lon="12.193682090156397"><ele>594.8000000000001</ele><time>2026-03-23T09:06:39Z</time></trkpt><trkpt lat="45.98911484601824" lon="12.193551453654338"><ele>596.2</ele><time>2026-03-23T09:06:40Z</time></trkpt><trkpt lat="45.98904768344968" lon="12.19344293916929"><ele>597.6</ele><time>2026-03-23T09:06:41Z</time></trkpt><trkpt lat="45.98901525828873" lon="12.193346106993982"><ele>599.0</ele><time>2026-03-23T09:06:42Z</time></trkpt><trkpt lat="45.989008791657255" lon="12.193241944929497"><ele>594.2</ele><time>2026-03-23T09:06:43Z</time></trkpt><trkpt lat="45.98901553121736" lon="12.193070119911955"><ele>589.4</ele><time>2026-03-23T09:06:44Z</time></trkpt><trkpt lat="45.98898875742025" lon="12.192922459771413"><ele>584.6</ele><time>2026-03-23T09:06:45Z</time></trkpt><trkpt lat="45.98896495955592" lon="12.192785423713996"><ele>579.8</ele><time>2026-03-23T09:06:47Z</time></trkpt><trkpt lat="45.98903990676459" lon="12.192778503630908"><ele>575.0</ele><time>2026-03-23T09:06:50Z</time></trkpt><trkpt lat="45.98907637493209" lon="12.19288405695305"><ele>575.0</ele><time>2026-03-23T09:06:52Z</time></trkpt><trkpt lat="45.989081198190945" lon="12.192997996579912"><ele>575.0</ele><time>2026-03-23T09:06:53Z</time></trkpt><trkpt lat="45.989088845514985" lon="12.193135447049206"><ele>575.0</ele><time>2026-03-23T09:06:54Z</time></trkpt><trkpt lat="45.989134415101624" lon="12.193238521953544"><ele>575.0</ele><time>2026-03-23T09:06:55Z</time></trkpt><trkpt lat="45.98919838223659" lon="12.193316808603834"><ele>575.0</ele><time>2026-03-23T09:06:56Z</time></trkpt><trkpt lat="45.98928283144471" lon="12.193403197653787"><ele>575.0</ele><time>2026-03-23T09:06:57Z</time></trkpt><trkpt lat="45.98938439028848" lon="12.193484820091209"><ele>579.8</ele><time>2026-03-23T09:06:58Z</time></trkpt><trkpt lat="45.989492140857315" lon="12.193551023213695"><ele>584.6</ele><time>2026-03-23T09:06:59Z</time></trkpt><trkpt lat="45.989583419221425" lon="12.193579402831855"><ele>589.4</ele><time>2026-03-23T09:07:00Z</time></trkpt><trkpt lat="45.98963537340777" lon="12.193656694769567"><ele>594.2</ele><time>2026-03-23T09:07:01Z</time></trkpt><trkpt lat="45.989653307163" lon="12.193760077518494"><ele>599.0</ele><time>2026-03-23T09:07:02Z</time></trkpt><trkpt lat="45.98965783822638" lon="12.193927588121275"><ele>597.6</ele><time>2026-03-23T09:07:03Z</time></trkpt><trkpt lat="45.989673594481125" lon="12.194087617141378"><ele>596.2</ele><time>2026-03-23T09:07:04Z</time></trkpt><trkpt lat="45.98972442957699" lon="12.194247160832216"><ele>594.8000000000001</ele><time>2026-03-23T09:07:05Z</time></trkpt><trkpt lat="45.989758373160555" lon="12.194370471796294"><ele>593.4</ele><time>2026-03-23T09:07:06Z</time></trkpt><trkpt lat="45.98974849733555" lon="12.194499875304292"><ele>592.0</ele><time>2026-03-23T09:07:07Z</time></trkpt><trkpt lat="45.98973449888088" lon="12.194661842903388"><ele>592.0</ele><time>2026-03-23T09:07:08Z</time></trkpt><trkpt lat="45.989746089009934" lon="12.194811592968945"><ele>592.0</ele><time>2026-03-23T09:07:09Z</time></trkpt><trkpt lat="45.98976389442599" lon="12.19493362467382"><ele>592.0</ele><time>2026-03-23T09:07:10Z</time></trkpt><trkpt lat="45.98982362824659" lon="12.195025222521739"><ele>592.0</ele><time>2026-03-23T09:07:12Z</time></trkpt><trkpt lat="45.98989141735375" lon="12.19493809135746"><ele>592.0</ele><time>2026-03-23T09:07:14Z</time></trkpt><trkpt lat="45.98990568453866" lon="12.194848646878583"><ele>592.0</ele><time>2026-03-23T09:07:15Z</time></trkpt><trkpt lat="45.98992380483581" lon="12.19471072143356"><ele>592.0</ele><time>2026-03-23T09:07:16Z</time></trkpt><trkpt lat="45.98997149719924" lon="12.194559974037038"><ele>592.0</ele><time>2026-03-23T09:07:17Z</time></trkpt><trkpt lat="45.990020660977564" lon="12.19443173341436"><ele>592.0</ele><time>2026-03-23T09:07:18Z</time></trkpt><trkpt lat="45.990066027665094" lon="12.194345479871922"><ele>592.0</ele><time>2026-03-23T09:07:19Z</time></trkpt><trkpt lat="45.99014068960609" lon="12.19426442204585"><ele>592.0</ele><time>2026-03-23T09:07:20Z</time></trkpt><trkpt lat="45.99018625302136" lon="12.19419182691652"><ele>593.4</ele><time>2026-03-23T09:07:21Z</time></trkpt><trkpt lat="45.9901298191675" lon="12.194037641709336"><ele>594.8000000000001</ele><time>2026-03-23T09:07:23Z</time></trkpt><trkpt lat="45.990050358936024" lon="12.193961406382162"><ele>596.2</ele><time>2026-03-23T09:07:24Z</time></trkpt><trkpt lat="45.990013768569725" lon="12.193856249950903"><ele>597.6</ele><time>2026-03-23T09:07:25Z</time></trkpt><trkpt lat="45.98999664678238" lon="12.193755652852131"><ele>599.0</ele><time>2026-03-23T09:07:26Z</time></trkpt><trkpt lat="45.990001488861374" lon="12.193600765351436"><ele>603.0</ele><time>2026-03-23T09:07:27Z</time></trkpt><trkpt lat="45.99002683026676" lon="12.1934660188155"><ele>607.0</ele><time>2026-03-23T09:07:28Z</time></trkpt><trkpt lat="45.99004588726413" lon="12.193275042826398"><ele>611.0</ele><time>2026-03-23T09:07:29Z</time></trkpt><trkpt lat="45.99004625338789" lon="12.193106305857992"><ele>615.0</ele><time>2026-03-23T09:07:30Z</time></trkpt><trkpt lat="45.99000251309269" lon="12.192965784766542"><ele>615.0</ele><time>2026-03-23T09:07:31Z</time></trkpt><trkpt lat="45.98993458278694" lon="12.192789976131964"><ele>615.0</ele><time>2026-03-23T09:07:32Z</time></trkpt><trkpt lat="45.98982863373605" lon="12.192613441370531"><ele>615.0</ele><time>2026-03-23T09:07:33Z</time></trkpt><trkpt lat="45.98974728614394" lon="12.192454278364742"><ele>615.0</ele><time>2026-03-23T09:07:34Z</time></trkpt><trkpt lat="45.989705495454345" lon="12.19235471993547"><ele>615.0</ele><time>2026-03-23T09:07:35Z</time></trkpt><trkpt lat="45.989753301736066" lon="12.192280320729848"><ele>615.0</ele><time>2026-03-23T09:07:39Z</time></trkpt><trkpt lat="45.98982474063269" lon="12.192371422470584"><ele>615.0</ele><time>2026-03-23T09:07:41Z</time></trkpt><trkpt lat="45.98985862449434" lon="12.192472341589447"><ele>615.0</ele><time>2026-03-23T09:07:42Z</time></trkpt><trkpt lat="45.98991564015619" lon="12.19254806341132"><ele>615.0</ele><time>2026-03-23T09:07:43Z</time></trkpt><trkpt lat="45.990009811681546" lon="12.192637683770698"><ele>615.0</ele><time>2026-03-23T09:07:44Z</time></trkpt><trkpt lat="45.99010976172297" lon="12.192719405600641"><ele>620.0</ele><time>2026-03-23T09:07:45Z</time></trkpt><trkpt lat="45.990256351886586" lon="12.192827335635961"><ele>625.0</ele><time>2026-03-23T09:07:46Z</time></trkpt><trkpt lat="45.990362645397354" lon="12.19295616872201"><ele>630.0</ele><time>2026-03-23T09:07:47Z</time></trkpt><trkpt lat="45.99044457454304" lon="12.193104264440251"><ele>635.0</ele><time>2026-03-23T09:07:48Z</time></trkpt><trkpt lat="45.99054443054001" lon="12.19323933949135"><ele>635.0</ele><time>2026-03-23T09:07:49Z</time></trkpt><trkpt lat="45.990636095610014" lon="12.19336077597085"><ele>635.0</ele><time>2026-03-23T09:07:50Z</time></trkpt><trkpt lat="45.99071157713269" lon="12.193506594224568"><ele>635.0</ele><time>2026-03-23T09:07:51Z</time></trkpt><trkpt lat="45.990796157242144" lon="12.193662163158105"><ele>635.0</ele><time>2026-03-23T09:07:52Z</time></trkpt><trkpt lat="45.99087359397089" lon="12.19380293996107"><ele>633.8333333333333</ele><time>2026-03-23T09:07:53Z</time></trkpt><trkpt lat="45.99094074659958" lon="12.193905912599954"><ele>632.6666666666666</ele><time>2026-03-23T09:07:54Z</time></trkpt><trkpt lat="45.99100050977536" lon="12.193988216772837"><ele>631.5</ele><time>2026-03-23T09:07:55Z</time></trkpt><trkpt lat="45.99106887268264" lon="12.19400669551026"><ele>630.3333333333334</ele><time>2026-03-23T09:07:57Z</time></trkpt><trkpt lat="45.99108069084999" lon="12.193897238513681"><ele>629.1666666666667</ele><time>2026-03-23T09:07:59Z</time></trkpt><trkpt lat="45.99100603902089" lon="12.193770536627602"><ele>628.0</ele><time>2026-03-23T09:08:01Z</time></trkpt><trkpt lat="45.990943558224366" lon="12.193672305014882"><ele>636.0</ele><time>2026-03-23T09:08:02Z</time></trkpt><trkpt lat="45.990929350235646" lon="12.193575410639204"><ele>644.0</ele><time>2026-03-23T09:08:03Z</time></trkpt><trkpt lat="45.99093414482113" lon="12.193412925161292"><ele>652.0</ele><time>2026-03-23T09:08:04Z</time></trkpt><trkpt lat="45.990916761659776" lon="12.193222737956827"><ele>660.0</ele><time>2026-03-23T09:08:05Z</time></trkpt><trkpt lat="45.99085385113367" lon="12.193030250314884"><ele>658.0</ele><time>2026-03-23T09:08:06Z</time></trkpt><trkpt lat="45.99078912244401" lon="12.192860374402093"><ele>656.0</ele><time>2026-03-23T09:08:07Z</time></trkpt><trkpt lat="45.990718576650075" lon="12.192708858009011"><ele>654.0</ele><time>2026-03-23T09:08:08Z</time></trkpt><trkpt lat="45.990663104371365" lon="12.192587095578094"><ele>652.0</ele><time>2026-03-23T09:08:09Z</time></trkpt><trkpt lat="45.990630555004216" lon="12.19246179363962"><ele>656.25</ele><time>2026-03-23T09:08:10Z</time></trkpt><trkpt lat="45.990623914899096" lon="12.192295097160967"><ele>660.5</ele><time>2026-03-23T09:08:11Z</time></trkpt><trkpt lat="45.99058386292325" lon="12.192121399866553"><ele>664.75</ele><time>2026-03-23T09:08:12Z</time></trkpt><trkpt lat="45.99051551905856" lon="12.191954669549183"><ele>669.0</ele><time>2026-03-23T09:08:13Z</time></trkpt><trkpt lat="45.990451074068055" lon="12.191813629542136"><ele>669.0</ele><time>2026-03-23T09:08:14Z</time></trkpt><trkpt lat="45.990430341308716" lon="12.191725197213582"><ele>669.0</ele><time>2026-03-23T09:08:15Z</time></trkpt><trkpt lat="45.99044633799272" lon="12.191513440454795"><ele>669.0</ele><time>2026-03-23T09:08:17Z</time></trkpt><trkpt lat="45.990454371746374" lon="12.191338491274717"><ele>669.0</ele><time>2026-03-23T09:08:18Z</time></trkpt><trkpt lat="45.99046192208524" lon="12.19118529060704"><ele>669.0</ele><time>2026-03-23T09:08:19Z</time></trkpt><trkpt lat="45.99044591910194" lon="12.191092810449595"><ele>669.0</ele><time>2026-03-23T09:08:20Z</time></trkpt><trkpt lat="45.99050695832685" lon="12.1910311587509"><ele>669.0</ele><time>2026-03-23T09:08:23Z</time></trkpt><trkpt lat="45.990557937165484" lon="12.191097440907743"><ele>669.0</ele><time>2026-03-23T09:08:25Z</time></trkpt><trkpt lat="45.99056285171608" lon="12.191288787744288"><ele>669.0</ele><time>2026-03-23T09:08:27Z</time></trkpt><trkpt lat="45.99057904751785" lon="12.191376642633958"><ele>669.0</ele><time>2026-03-23T09:08:28Z</time></trkpt><trkpt lat="45.99063060114421" lon="12.191511824760546"><ele>669.0</ele><time>2026-03-23T09:08:30Z</time></trkpt><trkpt lat="45.99067087844403" lon="12.191586054986026"><ele>669.0</ele><time>2026-03-23T09:08:31Z</time></trkpt><trkpt lat="45.99072195016621" lon="12.191671456996959"><ele>669.0</ele><time>2026-03-23T09:08:32Z</time></trkpt><trkpt lat="45.99077369609604" lon="12.191740544826878"><ele>669.0</ele><time>2026-03-23T09:08:33Z</time></trkpt><trkpt lat="45.990846485830936" lon="12.1917975462553"><ele>669.0</ele><time>2026-03-23T09:08:34Z</time></trkpt><trkpt lat="45.99095643888149" lon="12.191840835271485"><ele>669.0</ele><time>2026-03-23T09:08:35Z</time></trkpt><trkpt lat="45.99107879796627" lon="12.191902534706937"><ele>672.2</ele><time>2026-03-23T09:08:36Z</time></trkpt><trkpt lat="45.991174696801714" lon="12.191987958365827"><ele>675.4000000000001</ele><time>2026-03-23T09:08:37Z</time></trkpt><trkpt lat="45.99123400277479" lon="12.1920820739765"><ele>678.6</ele><time>2026-03-23T09:08:38Z</time></trkpt><trkpt lat="45.99130376158446" lon="12.192194120029903"><ele>681.8</ele><time>2026-03-23T09:08:39Z</time></trkpt><trkpt lat="45.991353438024674" lon="12.192306226724758"><ele>685.0</ele><time>2026-03-23T09:08:40Z</time></trkpt><trkpt lat="45.991423977969674" lon="12.192390634321471"><ele>685.0</ele><time>2026-03-23T09:08:41Z</time></trkpt><trkpt lat="45.99151532830851" lon="12.192467861078942"><ele>685.0</ele><time>2026-03-23T09:08:42Z</time></trkpt><trkpt lat="45.99162013609172" lon="12.19257537015497"><ele>685.0</ele><time>2026-03-23T09:08:43Z</time></trkpt><trkpt lat="45.9917029946806" lon="12.192679634033604"><ele>685.0</ele><time>2026-03-23T09:08:44Z</time></trkpt><trkpt lat="45.99178102893248" lon="12.192753248820221"><ele>685.0</ele><time>2026-03-23T09:08:45Z</time></trkpt><trkpt lat="45.9918385049464" lon="12.192792318698835"><ele>688.3333333333334</ele><time>2026-03-23T09:08:46Z</time></trkpt><trkpt lat="45.99190902257205" lon="12.192840935801335"><ele>691.6666666666667</ele><time>2026-03-23T09:08:47Z</time></trkpt><trkpt lat="45.991970344459155" lon="12.192866259474775"><ele>695.0</ele><time>2026-03-23T09:08:48Z</time></trkpt><trkpt lat="45.99204370017213" lon="12.192876946928452"><ele>698.3333333333334</ele><time>2026-03-23T09:08:49Z</time></trkpt><trkpt lat="45.99213056836774" lon="12.192913214085715"><ele>701.6666666666666</ele><time>2026-03-23T09:08:50Z</time></trkpt><trkpt lat="45.992225987635045" lon="12.192895085411847"><ele>705.0</ele><time>2026-03-23T09:08:51Z</time></trkpt><trkpt lat="45.992295228315" lon="12.192854850371983"><ele>705.0</ele><time>2026-03-23T09:08:52Z</time></trkpt><trkpt lat="45.99236454877499" lon="12.192843255427599"><ele>705.0</ele><time>2026-03-23T09:08:53Z</time></trkpt><trkpt lat="45.9924337818119" lon="12.1928296093203"><ele>705.0</ele><time>2026-03-23T09:08:54Z</time></trkpt><trkpt lat="45.99254893996512" lon="12.192795413523273"><ele>705.0</ele><time>2026-03-23T09:08:56Z</time></trkpt><trkpt lat="45.99263454195193" lon="12.192668749336988"><ele>705.0</ele><time>2026-03-23T09:08:58Z</time></trkpt><trkpt lat="45.992677690527536" lon="12.192591067420386"><ele>705.0</ele><time>2026-03-23T09:08:59Z</time></trkpt><trkpt lat="45.99274681869783" lon="12.192508865220645"><ele>703.6</ele><time>2026-03-23T09:09:00Z</time></trkpt><trkpt lat="45.99282526652556" lon="12.192431860791602"><ele>702.2</ele><time>2026-03-23T09:09:01Z</time></trkpt><trkpt lat="45.9929077930888" lon="12.192370609475985"><ele>700.8</ele><time>2026-03-23T09:09:02Z</time></trkpt><trkpt lat="45.993004452416585" lon="12.192324936149662"><ele>699.4</ele><time>2026-03-23T09:09:03Z</time></trkpt><trkpt lat="45.9930965620887" lon="12.192275323828325"><ele>698.0</ele><time>2026-03-23T09:09:04Z</time></trkpt><trkpt lat="45.99319043330345" lon="12.192240680393082"><ele>704.6666666666666</ele><time>2026-03-23T09:09:05Z</time></trkpt><trkpt lat="45.993265026123346" lon="12.19223879860528"><ele>711.3333333333333</ele><time>2026-03-23T09:09:06Z</time></trkpt><trkpt lat="45.99335682566173" lon="12.192271269194258"><ele>718.0</ele><time>2026-03-23T09:09:07Z</time></trkpt><trkpt lat="45.99343509991222" lon="12.192311704315227"><ele>724.6666666666666</ele><time>2026-03-23T09:09:08Z</time></trkpt><trkpt lat="45.99349885303811" lon="12.192261333527089"><ele>731.3333333333334</ele><time>2026-03-23T09:09:10Z</time></trkpt><trkpt lat="45.99343791264402" lon="12.192170514806044"><ele>738.0</ele><time>2026-03-23T09:09:12Z</time></trkpt><trkpt lat="45.993354998782095" lon="12.19214747834152"><ele>740.0</ele><time>2026-03-23T09:09:13Z</time></trkpt><trkpt lat="45.99324973776171" lon="12.192117865183613"><ele>742.0</ele><time>2026-03-23T09:09:14Z</time></trkpt><trkpt lat="45.99312518837146" lon="12.192084608550285"><ele>744.0</ele><time>2026-03-23T09:09:15Z</time></trkpt><trkpt lat="45.99299868181239" lon="12.192085622277077"><ele>746.0</ele><time>2026-03-23T09:09:16Z</time></trkpt><trkpt lat="45.99286966708441" lon="12.192096059958168"><ele>746.0</ele><time>2026-03-23T09:09:17Z</time></trkpt><trkpt lat="45.992747020360795" lon="12.192121660655742"><ele>746.0</ele><time>2026-03-23T09:09:18Z</time></trkpt><trkpt lat="45.99265613609219" lon="12.192183257745297"><ele>746.0</ele><time>2026-03-23T09:09:19Z</time></trkpt><trkpt lat="45.99256924794179" lon="12.192196918232135"><ele>746.0</ele><time>2026-03-23T09:09:20Z</time></trkpt><trkpt lat="45.99248889945697" lon="12.192198515122227"><ele>746.0</ele><time>2026-03-23T09:09:21Z</time></trkpt><trkpt lat="45.99238700090877" lon="12.19214982123136"><ele>743.1999999999999</ele><time>2026-03-23T09:09:23Z</time></trkpt><trkpt lat="45.99228292258567" lon="12.192033874302044"><ele>740.4</ele><time>2026-03-23T09:09:25Z</time></trkpt><trkpt lat="45.992249478711045" lon="12.191942899058716"><ele>737.6</ele><time>2026-03-23T09:09:26Z</time></trkpt><trkpt lat="45.992213061558076" lon="12.191828831515075"><ele>734.8</ele><time>2026-03-23T09:09:27Z</time></trkpt><trkpt lat="45.99219967059186" lon="12.191730857430322"><ele>732.0</ele><time>2026-03-23T09:09:28Z</time></trkpt><trkpt lat="45.99220342477007" lon="12.191587513748392"><ele>737.6</ele><time>2026-03-23T09:09:29Z</time></trkpt><trkpt lat="45.99221776575879" lon="12.191453518255036"><ele>743.2</ele><time>2026-03-23T09:09:30Z</time></trkpt><trkpt lat="45.99221354382623" lon="12.191315614522022"><ele>748.8</ele><time>2026-03-23T09:09:31Z</time></trkpt><trkpt lat="45.99216751063361" lon="12.1911972146806"><ele>754.4</ele><time>2026-03-23T09:09:32Z</time></trkpt><trkpt lat="45.992081659620155" lon="12.191085175334191"><ele>760.0</ele><time>2026-03-23T09:09:33Z</time></trkpt><trkpt lat="45.99201254965788" lon="12.190969129009302"><ele>760.0</ele><time>2026-03-23T09:09:34Z</time></trkpt><trkpt lat="45.99198230885038" lon="12.190834317958597"><ele>760.0</ele><time>2026-03-23T09:09:35Z</time></trkpt><trkpt lat="45.99194903547783" lon="12.190681693258645"><ele>760.0</ele><time>2026-03-23T09:09:36Z</time></trkpt><trkpt lat="45.99189363207742" lon="12.190531516272724"><ele>760.0</ele><time>2026-03-23T09:09:37Z</time></trkpt><trkpt lat="45.991831478130386" lon="12.190367182881166"><ele>761.0</ele><time>2026-03-23T09:09:38Z</time></trkpt><trkpt lat="45.99178421358255" lon="12.190225709417023"><ele>762.0</ele><time>2026-03-23T09:09:39Z</time></trkpt><trkpt lat="45.991750993414634" lon="12.190086710819777"><ele>763.0</ele><time>2026-03-23T09:09:40Z</time></trkpt><trkpt lat="45.99171250237272" lon="12.189936911706944"><ele>764.0</ele><time>2026-03-23T09:09:41Z</time></trkpt><trkpt lat="45.99166661573198" lon="12.189782238446963"><ele>765.0</ele><time>2026-03-23T09:09:42Z</time></trkpt><trkpt lat="45.991611520580946" lon="12.189642129124255"><ele>765.0</ele><time>2026-03-23T09:09:43Z</time></trkpt><trkpt lat="45.9915494733845" lon="12.189492174392232"><ele>765.0</ele><time>2026-03-23T09:09:44Z</time></trkpt><trkpt lat="45.99150545222438" lon="12.189366604435337"><ele>765.0</ele><time>2026-03-23T09:09:45Z</time></trkpt><trkpt lat="45.991463265915804" lon="12.189214563823134"><ele>765.0</ele><time>2026-03-23T09:09:46Z</time></trkpt><trkpt lat="45.99143046512796" lon="12.189032404429135"><ele>770.75</ele><time>2026-03-23T09:09:47Z</time></trkpt><trkpt lat="45.991376560325484" lon="12.188834671928973"><ele>776.5</ele><time>2026-03-23T09:09:48Z</time></trkpt><trkpt lat="45.99132814345283" lon="12.188682955901376"><ele>782.25</ele><time>2026-03-23T09:09:49Z</time></trkpt><trkpt lat="45.991282683252024" lon="12.188579642480292"><ele>788.0</ele><time>2026-03-23T09:09:50Z</time></trkpt><trkpt lat="45.99120429697764" lon="12.18846658370501"><ele>788.0000000000001</ele><time>2026-03-23T09:09:51Z</time></trkpt><trkpt lat="45.9911188896919" lon="12.188394151314371"><ele>788.0</ele><time>2026-03-23T09:09:52Z</time></trkpt><trkpt lat="45.99106007065884" lon="12.188329634282493"><ele>788.0</ele><time>2026-03-23T09:09:53Z</time></trkpt><trkpt lat="45.99099590084488" lon="12.188266137461701"><ele>788.0</ele><time>2026-03-23T09:09:55Z</time></trkpt><trkpt lat="45.99104923564435" lon="12.188194366779154"><ele>788.0000000000001</ele><time>2026-03-23T09:09:59Z</time></trkpt><trkpt lat="45.99111237489627" lon="12.188192248039705"><ele>788.0</ele><time>2026-03-23T09:10:01Z</time></trkpt><trkpt lat="45.99119152582488" lon="12.188329625877415"><ele>788.0</ele><time>2026-03-23T09:10:03Z</time></trkpt><trkpt lat="45.991252604795925" lon="12.188413605586549"><ele>788.0</ele><time>2026-03-23T09:10:04Z</time></trkpt><trkpt lat="45.9913229512147" lon="12.188483955135451"><ele>788.0</ele><time>2026-03-23T09:10:05Z</time></trkpt><trkpt lat="45.99141759635759" lon="12.188568470455246"><ele>788.0</ele><time>2026-03-23T09:10:06Z</time></trkpt><trkpt lat="45.99149809618248" lon="12.188678738936515"><ele>788.0</ele><time>2026-03-23T09:10:07Z</time></trkpt><trkpt lat="45.99156073499952" lon="12.188795479980339"><ele>788.0</ele><time>2026-03-23T09:10:08Z</time></trkpt><trkpt lat="45.99162526842122" lon="12.188917444868471"><ele>788.0</ele><time>2026-03-23T09:10:09Z</time></trkpt><trkpt lat="45.99170489888107" lon="12.189034738734879"><ele>788.0</ele><time>2026-03-23T09:10:10Z</time></trkpt><trkpt lat="45.99178913482265" lon="12.189169900373054"><ele>788.0</ele><time>2026-03-23T09:10:11Z</time></trkpt><trkpt lat="45.991878109180945" lon="12.189327505625482"><ele>788.5</ele><time>2026-03-23T09:10:12Z</time></trkpt><trkpt lat="45.99197240045701" lon="12.189470231445522"><ele>789.0</ele><time>2026-03-23T09:10:13Z</time></trkpt><trkpt lat="45.992070596458" lon="12.189595534870039"><ele>789.5</ele><time>2026-03-23T09:10:14Z</time></trkpt><trkpt lat="45.99215719781769" lon="12.189741121923063"><ele>790.0</ele><time>2026-03-23T09:10:15Z</time></trkpt><trkpt lat="45.99224491796052" lon="12.18986793647696"><ele>790.0</ele><time>2026-03-23T09:10:16Z</time></trkpt><trkpt lat="45.99232882147925" lon="12.189961530127347"><ele>790.0</ele><time>2026-03-23T09:10:17Z</time></trkpt><trkpt lat="45.992414991954846" lon="12.19005963458365"><ele>790.0</ele><time>2026-03-23T09:10:18Z</time></trkpt><trkpt lat="45.99251018336215" lon="12.190143744997322"><ele>790.0</ele><time>2026-03-23T09:10:19Z</time></trkpt><trkpt lat="45.9926188777143" lon="12.19022137907528"><ele>790.0</ele><time>2026-03-23T09:10:20Z</time></trkpt><trkpt lat="45.99271849628672" lon="12.190291673365287"><ele>796.2</ele><time>2026-03-23T09:10:21Z</time></trkpt><trkpt lat="45.992830729397674" lon="12.19035711652296"><ele>802.4</ele><time>2026-03-23T09:10:22Z</time></trkpt><trkpt lat="45.992930681989925" lon="12.19043665598601"><ele>808.5999999999999</ele><time>2026-03-23T09:10:23Z</time></trkpt><trkpt lat="45.99303511620643" lon="12.19046312132048"><ele>814.8</ele><time>2026-03-23T09:10:24Z</time></trkpt><trkpt lat="45.993118753156" lon="12.190487224198177"><ele>821.0</ele><time>2026-03-23T09:10:25Z</time></trkpt><trkpt lat="45.99320214431142" lon="12.19048638597959"><ele>821.0000000000001</ele><time>2026-03-23T09:10:26Z</time></trkpt><trkpt lat="45.993286980789605" lon="12.190486935915416"><ele>821.0</ele><time>2026-03-23T09:10:27Z</time></trkpt><trkpt lat="45.99336537715571" lon="12.190455152253577"><ele>821.0</ele><time>2026-03-23T09:10:28Z</time></trkpt><trkpt lat="45.99345824951537" lon="12.19041973733099"><ele>821.0</ele><time>2026-03-23T09:10:29Z</time></trkpt><trkpt lat="45.99353470170126" lon="12.190388466814467"><ele>821.0000000000001</ele><time>2026-03-23T09:10:30Z</time></trkpt><trkpt lat="45.993609774316425" lon="12.190332007112616"><ele>821.0</ele><time>2026-03-23T09:10:31Z</time></trkpt><trkpt lat="45.993722125908015" lon="12.190250820982213"><ele>822.0</ele><time>2026-03-23T09:10:32Z</time></trkpt><trkpt lat="45.99383075038528" lon="12.190157340952682"><ele>823.0</ele><time>2026-03-23T09:10:33Z</time></trkpt><trkpt lat="45.993965218241904" lon="12.190081525635586"><ele>824.0</ele><time>2026-03-23T09:10:34Z</time></trkpt><trkpt lat="45.994101016909276" lon="12.190012463754234"><ele>825.0</ele><time>2026-03-23T09:10:35Z</time></trkpt><trkpt lat="45.994198168031886" lon="12.1899684393634"><ele>825.4</ele><time>2026-03-23T09:10:36Z</time></trkpt><trkpt lat="45.9942830494038" lon="12.189949075365474"><ele>825.8</ele><time>2026-03-23T09:10:37Z</time></trkpt><trkpt lat="45.994370822112046" lon="12.189970836568932"><ele>826.2</ele><time>2026-03-23T09:10:38Z</time></trkpt><trkpt lat="45.994472627412385" lon="12.190023839965225"><ele>826.6</ele><time>2026-03-23T09:10:39Z</time></trkpt><trkpt lat="45.994572004848195" lon="12.19002451621603"><ele>827.0</ele><time>2026-03-23T09:10:40Z</time></trkpt><trkpt lat="45.99466631286284" lon="12.190028487716262"><ele>827.0</ele><time>2026-03-23T09:10:41Z</time></trkpt><trkpt lat="45.994757620192665" lon="12.190015982178227"><ele>827.0</ele><time>2026-03-23T09:10:42Z</time></trkpt><trkpt lat="45.99483940277559" lon="12.18998868943344"><ele>827.0</ele><time>2026-03-23T09:10:43Z</time></trkpt><trkpt lat="45.99494776565304" lon="12.189946350586277"><ele>827.0</ele><time>2026-03-23T09:10:44Z</time></trkpt><trkpt lat="45.995061428210235" lon="12.189903594024951"><ele>827.0</ele><time>2026-03-23T09:10:45Z</time></trkpt><trkpt lat="45.995154319516764" lon="12.189861830121929"><ele>827.6</ele><time>2026-03-23T09:10:46Z</time></trkpt><trkpt lat="45.99524044331215" lon="12.189862697893597"><ele>828.2</ele><time>2026-03-23T09:10:47Z</time></trkpt><trkpt lat="45.995336491690004" lon="12.18981782689613"><ele>828.8</ele><time>2026-03-23T09:10:48Z</time></trkpt><trkpt lat="45.99543462424938" lon="12.189784740551742"><ele>829.4</ele><time>2026-03-23T09:10:49Z</time></trkpt><trkpt lat="45.995522985157166" lon="12.189776422468604"><ele>830.0</ele><time>2026-03-23T09:10:50Z</time></trkpt><trkpt lat="45.995626274633636" lon="12.18976566987904"><ele>834.8</ele><time>2026-03-23T09:10:51Z</time></trkpt><trkpt lat="45.99572071849783" lon="12.189771305988156"><ele>839.6</ele><time>2026-03-23T09:10:52Z</time></trkpt><trkpt lat="45.995824230222915" lon="12.189808017970108"><ele>844.4000000000001</ele><time>2026-03-23T09:10:53Z</time></trkpt><trkpt lat="45.99592462723157" lon="12.189870460719998"><ele>849.2</ele><time>2026-03-23T09:10:54Z</time></trkpt><trkpt lat="45.996017523888845" lon="12.189939130720752"><ele>854.0</ele><time>2026-03-23T09:10:55Z</time></trkpt><trkpt lat="45.996126483538596" lon="12.189990294575896"><ele>854.0</ele><time>2026-03-23T09:10:56Z</time></trkpt><trkpt lat="45.99623124373047" lon="12.190054680388114"><ele>854.0</ele><time>2026-03-23T09:10:57Z</time></trkpt><trkpt lat="45.996353080132685" lon="12.19011623302346"><ele>854.0</ele><time>2026-03-23T09:10:58Z</time></trkpt><trkpt lat="45.99646476429839" lon="12.190167295320053"><ele>854.0</ele><time>2026-03-23T09:10:59Z</time></trkpt><trkpt lat="45.99656313720619" lon="12.190200670573937"><ele>862.0</ele><time>2026-03-23T09:11:00Z</time></trkpt><trkpt lat="45.99667314923356" lon="12.190232710880213"><ele>870.0000000000001</ele><time>2026-03-23T09:11:01Z</time></trkpt><trkpt lat="45.99680656813492" lon="12.190253148434454"><ele>878.0000000000001</ele><time>2026-03-23T09:11:02Z</time></trkpt><trkpt lat="45.99691612455195" lon="12.190276270356756"><ele>886.0</ele><time>2026-03-23T09:11:03Z</time></trkpt><trkpt lat="45.99698426482732" lon="12.190291744003721"><ele>894.0</ele><time>2026-03-23T09:11:04Z</time></trkpt><trkpt lat="45.99703986530807" lon="12.190355797852282"><ele>894.0</ele><time>2026-03-23T09:11:06Z</time></trkpt><trkpt lat="45.99701225902595" lon="12.190492168531891"><ele>894.0000000000001</ele><time>2026-03-23T09:11:08Z</time></trkpt><trkpt lat="45.996958541505826" lon="12.190571073144476"><ele>894.0000000000001</ele><time>2026-03-23T09:11:09Z</time></trkpt><trkpt lat="45.99686968987369" lon="12.190659755571888"><ele>894.0</ele><time>2026-03-23T09:11:10Z</time></trkpt><trkpt lat="45.99678986771738" lon="12.190743345268318"><ele>894.0</ele><time>2026-03-23T09:11:11Z</time></trkpt><trkpt lat="45.996747302066225" lon="12.190819597753377"><ele>893.4000000000001</ele><time>2026-03-23T09:11:12Z</time></trkpt><trkpt lat="45.99672763722396" lon="12.19091002380988"><ele>892.8000000000001</ele><time>2026-03-23T09:11:13Z</time></trkpt><trkpt lat="45.99675429568736" lon="12.19107952841916"><ele>892.1999999999999</ele><time>2026-03-23T09:11:15Z</time></trkpt><trkpt lat="45.99679634444611" lon="12.191179326060654"><ele>891.5999999999999</ele><time>2026-03-23T09:11:16Z</time></trkpt><trkpt lat="45.996829471234676" lon="12.191327923972093"><ele>891.0</ele><time>2026-03-23T09:11:17Z</time></trkpt><trkpt lat="45.99685600710761" lon="12.191490412058245"><ele>895.4</ele><time>2026-03-23T09:11:18Z</time></trkpt><trkpt lat="45.996862808300136" lon="12.191686148660901"><ele>899.8</ele><time>2026-03-23T09:11:19Z</time></trkpt><trkpt lat="45.99685414423248" lon="12.191857739240891"><ele>904.1999999999999</ele><time>2026-03-23T09:11:20Z</time></trkpt><trkpt lat="45.996826445718135" lon="12.191977285104032"><ele>908.5999999999999</ele><time>2026-03-23T09:11:21Z</time></trkpt><trkpt lat="45.996793297452555" lon="12.19207762338167"><ele>913.0</ele><time>2026-03-23T09:11:22Z</time></trkpt><trkpt lat="45.99673330192926" lon="12.192178933617916"><ele>904.4999999999999</ele><time>2026-03-23T09:11:23Z</time></trkpt><trkpt lat="45.99665444601029" lon="12.192279033878512"><ele>896.0</ele><time>2026-03-23T09:11:24Z</time></trkpt><trkpt lat="45.99659670444551" lon="12.192357692585013"><ele>887.5</ele><time>2026-03-23T09:11:25Z</time></trkpt><trkpt lat="45.9965606391728" lon="12.192463615806538"><ele>879.0</ele><time>2026-03-23T09:11:26Z</time></trkpt><trkpt lat="45.99654949987248" lon="12.192572670157945"><ele>870.4999999999999</ele><time>2026-03-23T09:11:27Z</time></trkpt><trkpt lat="45.99655248269" lon="12.192689040979829"><ele>862.0</ele><time>2026-03-23T09:11:28Z</time></trkpt><trkpt lat="45.99656370451268" lon="12.192812398390597"><ele>861.9999999999999</ele><time>2026-03-23T09:11:29Z</time></trkpt><trkpt lat="45.996578219820165" lon="12.19294886307827"><ele>862.0</ele><time>2026-03-23T09:11:30Z</time></trkpt><trkpt lat="45.9965869257679" lon="12.193085280896756"><ele>862.0</ele><time>2026-03-23T09:11:31Z</time></trkpt><trkpt lat="45.99661108999444" lon="12.19321448440346"><ele>862.0</ele><time>2026-03-23T09:11:32Z</time></trkpt><trkpt lat="45.99663763213118" lon="12.193312337718508"><ele>861.9999999999999</ele><time>2026-03-23T09:11:33Z</time></trkpt><trkpt lat="45.996674774970415" lon="12.193412441636863"><ele>862.0</ele><time>2026-03-23T09:11:34Z</time></trkpt><trkpt lat="45.9967275637624" lon="12.193486486788156"><ele>870.9999999999999</ele><time>2026-03-23T09:11:35Z</time></trkpt><trkpt lat="45.99677842705382" lon="12.193545216823836"><ele>880.0</ele><time>2026-03-23T09:11:36Z</time></trkpt><trkpt lat="45.996881075674295" lon="12.193601121776622"><ele>889.0</ele><time>2026-03-23T09:11:38Z</time></trkpt><trkpt lat="45.99694104821029" lon="12.193646647143852"><ele>898.0</ele><time>2026-03-23T09:11:39Z</time></trkpt><trkpt lat="45.99701577145255" lon="12.193679985536258"><ele>906.9999999999999</ele><time>2026-03-23T09:11:40Z</time></trkpt><trkpt lat="45.99709621479687" lon="12.193732126415354"><ele>916.0</ele><time>2026-03-23T09:11:41Z</time></trkpt><trkpt lat="45.99715034305044" lon="12.193815045158297"><ele>915.9999999999999</ele><time>2026-03-23T09:11:42Z</time></trkpt><trkpt lat="45.99719321121191" lon="12.193925808882286"><ele>916.0</ele><time>2026-03-23T09:11:43Z</time></trkpt><trkpt lat="45.997218056935736" lon="12.194044852711697"><ele>916.0</ele><time>2026-03-23T09:11:44Z</time></trkpt><trkpt lat="45.99722977881045" lon="12.194188390184683"><ele>916.0</ele><time>2026-03-23T09:11:45Z</time></trkpt><trkpt lat="45.9972319766965" lon="12.19431676308671"><ele>915.9999999999999</ele><time>2026-03-23T09:11:46Z</time></trkpt><trkpt lat="45.997220346941404" lon="12.194435528810878"><ele>916.0</ele><time>2026-03-23T09:11:47Z</time></trkpt><trkpt lat="45.99724011286417" lon="12.19460857256486"><ele>912.8</ele><time>2026-03-23T09:11:49Z</time></trkpt><trkpt lat="45.997287264926676" lon="12.194695647631702"><ele>909.5999999999999</ele><time>2026-03-23T09:11:50Z</time></trkpt><trkpt lat="45.99734657770958" lon="12.194797167623053"><ele>906.4</ele><time>2026-03-23T09:11:51Z</time></trkpt><trkpt lat="45.9974163186259" lon="12.19493099608042"><ele>903.2</ele><time>2026-03-23T09:11:52Z</time></trkpt><trkpt lat="45.99749429075705" lon="12.19508018703947"><ele>900.0</ele><time>2026-03-23T09:11:53Z</time></trkpt><trkpt lat="45.997544280904656" lon="12.195224564194879"><ele>908.6</ele><time>2026-03-23T09:11:54Z</time></trkpt><trkpt lat="45.99761935188053" lon="12.195366838430129"><ele>917.2</ele><time>2026-03-23T09:11:55Z</time></trkpt><trkpt lat="45.99766769613026" lon="12.195472920373291"><ele>925.8</ele><time>2026-03-23T09:11:56Z</time></trkpt><trkpt lat="45.99768291361829" lon="12.195566319761992"><ele>934.4</ele><time>2026-03-23T09:11:57Z</time></trkpt><trkpt lat="45.99766917830733" lon="12.19566621769478"><ele>943.0</ele><time>2026-03-23T09:11:58Z</time></trkpt><trkpt lat="45.99763674301981" lon="12.195816121029257"><ele>943.0</ele><time>2026-03-23T09:11:59Z</time></trkpt><trkpt lat="45.99759418813575" lon="12.195996945902465"><ele>943.0</ele><time>2026-03-23T09:12:00Z</time></trkpt><trkpt lat="45.997588418299635" lon="12.196171693436309"><ele>943.0</ele><time>2026-03-23T09:12:01Z</time></trkpt><trkpt lat="45.997599743029035" lon="12.196337943908993"><ele>943.0</ele><time>2026-03-23T09:12:02Z</time></trkpt><trkpt lat="45.997596565483725" lon="12.196491281079004"><ele>943.5999999999999</ele><time>2026-03-23T09:12:03Z</time></trkpt><trkpt lat="45.99754890294206" lon="12.196643659002003"><ele>944.1999999999999</ele><time>2026-03-23T09:12:04Z</time></trkpt><trkpt lat="45.99750699589424" lon="12.196777489841459"><ele>944.8</ele><time>2026-03-23T09:12:05Z</time></trkpt><trkpt lat="45.99750200155774" lon="12.196894783239005"><ele>945.4</ele><time>2026-03-23T09:12:06Z</time></trkpt><trkpt lat="45.997493211482016" lon="12.197047870290154"><ele>946.0</ele><time>2026-03-23T09:12:07Z</time></trkpt><trkpt lat="45.9974775350897" lon="12.197194616750872"><ele>936.5999999999999</ele><time>2026-03-23T09:12:08Z</time></trkpt><trkpt lat="45.99744018348266" lon="12.197343395272622"><ele>927.1999999999999</ele><time>2026-03-23T09:12:09Z</time></trkpt><trkpt lat="45.99739579541565" lon="12.197473591959504"><ele>917.8000000000001</ele><time>2026-03-23T09:12:10Z</time></trkpt><trkpt lat="45.99736311087688" lon="12.197577586572168"><ele>908.4000000000001</ele><time>2026-03-23T09:12:11Z</time></trkpt><trkpt lat="45.99734894134855" lon="12.197709629715478"><ele>899.0</ele><time>2026-03-23T09:12:12Z</time></trkpt><trkpt lat="45.99733653125176" lon="12.197823119567897"><ele>899.0000000000001</ele><time>2026-03-23T09:12:13Z</time></trkpt><trkpt lat="45.99733475632082" lon="12.197934409768223"><ele>899.0</ele><time>2026-03-23T09:12:14Z</time></trkpt><trkpt lat="45.99733526095287" lon="12.198035600294986"><ele>899.0</ele><time>2026-03-23T09:12:15Z</time></trkpt><trkpt lat="45.99733938785616" lon="12.198155275791002"><ele>899.0</ele><time>2026-03-23T09:12:16Z</time></trkpt><trkpt lat="45.99735900004779" lon="12.198282724770976"><ele>899.0000000000001</ele><time>2026-03-23T09:12:17Z</time></trkpt><trkpt lat="45.997386993754375" lon="12.198418544099374"><ele>899.0</ele><time>2026-03-23T09:12:18Z</time></trkpt><trkpt lat="45.99741869315113" lon="12.198548530042126"><ele>900.2</ele><time>2026-03-23T09:12:19Z</time></trkpt><trkpt lat="45.99745730486573" lon="12.198676737861833"><ele>901.4000000000001</ele><time>2026-03-23T09:12:20Z</time></trkpt><trkpt lat="45.99749921836648" lon="12.198806138626423"><ele>902.6</ele><time>2026-03-23T09:12:21Z</time></trkpt><trkpt lat="45.9975486998554" lon="12.198912861581643"><ele>903.8</ele><time>2026-03-23T09:12:22Z</time></trkpt><trkpt lat="45.99761300509105" lon="12.199034398894431"><ele>905.0</ele><time>2026-03-23T09:12:23Z</time></trkpt><trkpt lat="45.99768530421122" lon="12.199163456974095"><ele>918.5</ele><time>2026-03-23T09:12:24Z</time></trkpt><trkpt lat="45.997750689080526" lon="12.1993013592033"><ele>932.0</ele><time>2026-03-23T09:12:25Z</time></trkpt><trkpt lat="45.99782981335553" lon="12.19945122001433"><ele>945.5</ele><time>2026-03-23T09:12:26Z</time></trkpt><trkpt lat="45.9979276012532" lon="12.199594822828367"><ele>959.0</ele><time>2026-03-23T09:12:27Z</time></trkpt><trkpt lat="45.99799667054838" lon="12.199759680199875"><ele>961.8333333333334</ele><time>2026-03-23T09:12:28Z</time></trkpt><trkpt lat="45.99803794653558" lon="12.199879753981175"><ele>964.6666666666667</ele><time>2026-03-23T09:12:29Z</time></trkpt><trkpt lat="45.998076565566535" lon="12.199953839319422"><ele>967.5</ele><time>2026-03-23T09:12:30Z</time></trkpt><trkpt lat="45.99814065000182" lon="12.200025967672337"><ele>970.3333333333333</ele><time>2026-03-23T09:12:31Z</time></trkpt><trkpt lat="45.99822154003929" lon="12.200089564864847"><ele>973.1666666666666</ele><time>2026-03-23T09:12:32Z</time></trkpt><trkpt lat="45.9983119405351" lon="12.200155561856667"><ele>976.0</ele><time>2026-03-23T09:12:33Z</time></trkpt><trkpt lat="45.99844595183325" lon="12.20022395696996"><ele>976.0</ele><time>2026-03-23T09:12:34Z</time></trkpt><trkpt lat="45.9986027077899" lon="12.200303392830122"><ele>976.0</ele><time>2026-03-23T09:12:35Z</time></trkpt><trkpt lat="45.99876895666754" lon="12.200404351716863"><ele>976.0</ele><time>2026-03-23T09:12:36Z</time></trkpt><trkpt lat="45.99895109928812" lon="12.20049988212352"><ele>976.0</ele><time>2026-03-23T09:12:37Z</time></trkpt><trkpt lat="45.999129848988126" lon="12.200580709595002"><ele>976.0</ele><time>2026-03-23T09:12:38Z</time></trkpt><trkpt lat="45.99928096263621" lon="12.20067829799436"><ele>976.0</ele><time>2026-03-23T09:12:39Z</time></trkpt><trkpt lat="45.999394859212025" lon="12.200746841935871"><ele>978.8</ele><time>2026-03-23T09:12:40Z</time></trkpt><trkpt lat="45.999474751889714" lon="12.200804489576777"><ele>981.5999999999999</ele><time>2026-03-23T09:12:41Z</time></trkpt><trkpt lat="45.99953824878463" lon="12.200888625792599"><ele>984.4</ele><time>2026-03-23T09:12:42Z</time></trkpt><trkpt lat="45.99957441202793" lon="12.201004929935166"><ele>987.2</ele><time>2026-03-23T09:12:43Z</time></trkpt><trkpt lat="45.999626673886254" lon="12.201172936045555"><ele>990.0</ele><time>2026-03-23T09:12:44Z</time></trkpt><trkpt lat="45.99969806648406" lon="12.201337708758546"><ele>990.0</ele><time>2026-03-23T09:12:45Z</time></trkpt><trkpt lat="45.99975543216865" lon="12.201481589384281"><ele>990.0</ele><time>2026-03-23T09:12:46Z</time></trkpt><trkpt lat="45.999776231020995" lon="12.201642078858656"><ele>990.0</ele><time>2026-03-23T09:12:47Z</time></trkpt><trkpt lat="45.99977769187361" lon="12.20183509923108"><ele>990.0</ele><time>2026-03-23T09:12:48Z</time></trkpt><trkpt lat="45.999762633077516" lon="12.202006682306795"><ele>987.8</ele><time>2026-03-23T09:12:49Z</time></trkpt><trkpt lat="45.99976339854717" lon="12.2021396512832"><ele>985.6</ele><time>2026-03-23T09:12:50Z</time></trkpt><trkpt lat="45.99977801325831" lon="12.202241710740598"><ele>983.4000000000001</ele><time>2026-03-23T09:12:51Z</time></trkpt><trkpt lat="45.99981195868105" lon="12.202355388356676"><ele>981.2</ele><time>2026-03-23T09:12:52Z</time></trkpt><trkpt lat="45.999857836375966" lon="12.202471390557298"><ele>979.0</ele><time>2026-03-23T09:12:53Z</time></trkpt><trkpt lat="45.99991570237819" lon="12.202612037760126"><ele>979.0</ele><time>2026-03-23T09:12:54Z</time></trkpt><trkpt lat="45.99999980977664" lon="12.202745780788955"><ele>979.0</ele><time>2026-03-23T09:12:55Z</time></trkpt><trkpt lat="46.000085768806166" lon="12.20291080429746"><ele>979.0</ele><time>2026-03-23T09:12:56Z</time></trkpt><trkpt lat="46.000184241313356" lon="12.203068985736845"><ele>979.0</ele><time>2026-03-23T09:12:57Z</time></trkpt><trkpt lat="46.000270369111924" lon="12.203209297555487"><ele>975.25</ele><time>2026-03-23T09:12:58Z</time></trkpt><trkpt lat="46.00034272827144" lon="12.203339943869842"><ele>971.5</ele><time>2026-03-23T09:12:59Z</time></trkpt><trkpt lat="46.00043001236236" lon="12.203437434272992"><ele>967.75</ele><time>2026-03-23T09:13:00Z</time></trkpt><trkpt lat="46.00054481800612" lon="12.203545756861088"><ele>964.0</ele><time>2026-03-23T09:13:01Z</time></trkpt><trkpt lat="46.000676816179386" lon="12.203686156468434"><ele>964.0</ele><time>2026-03-23T09:13:02Z</time></trkpt><trkpt lat="46.00076380745213" lon="12.203826948028414"><ele>964.0</ele><time>2026-03-23T09:13:03Z</time></trkpt><trkpt lat="46.0008226395056" lon="12.20397405954697"><ele>964.0</ele><time>2026-03-23T09:13:04Z</time></trkpt><trkpt lat="46.000872250318174" lon="12.204121499372016"><ele>964.0</ele><time>2026-03-23T09:13:05Z</time></trkpt><trkpt lat="46.00090577334087" lon="12.204266087231042"><ele>971.25</ele><time>2026-03-23T09:13:06Z</time></trkpt><trkpt lat="46.000915196182035" lon="12.204422438479742"><ele>978.5</ele><time>2026-03-23T09:13:07Z</time></trkpt><trkpt lat="46.00091376316101" lon="12.204644023590301"><ele>985.75</ele><time>2026-03-23T09:13:08Z</time></trkpt><trkpt lat="46.000913681236334" lon="12.204849715361407"><ele>993.0</ele><time>2026-03-23T09:13:09Z</time></trkpt><trkpt lat="46.0009241575882" lon="12.204992881712384"><ele>994.0</ele><time>2026-03-23T09:13:10Z</time></trkpt><trkpt lat="46.00088721207924" lon="12.205111913126906"><ele>995.0</ele><time>2026-03-23T09:13:11Z</time></trkpt><trkpt lat="46.00081919805539" lon="12.20523297414914"><ele>996.0</ele><time>2026-03-23T09:13:12Z</time></trkpt><trkpt lat="46.00076451460164" lon="12.205314490141491"><ele>997.0</ele><time>2026-03-23T09:13:13Z</time></trkpt><trkpt lat="46.00073764502078" lon="12.205402657574854"><ele>998.0</ele><time>2026-03-23T09:13:14Z</time></trkpt><trkpt lat="46.00074253561575" lon="12.20551675722494"><ele>999.0</ele><time>2026-03-23T09:13:15Z</time></trkpt><trkpt lat="46.00077234533302" lon="12.20566234359433"><ele>1001.3333333333333</ele><time>2026-03-23T09:13:16Z</time></trkpt><trkpt lat="46.00082669045216" lon="12.205865296414482"><ele>1003.6666666666666</ele><time>2026-03-23T09:13:17Z</time></trkpt><trkpt lat="46.0008693858063" lon="12.206085885219846"><ele>1006.0</ele><time>2026-03-23T09:13:18Z</time></trkpt><trkpt lat="46.000869125397266" lon="12.206298417677223"><ele>1008.6666666666666</ele><time>2026-03-23T09:13:19Z</time></trkpt><trkpt lat="46.000836181846715" lon="12.206562664285546"><ele>1011.3333333333333</ele><time>2026-03-23T09:13:20Z</time></trkpt><trkpt lat="46.00079659356873" lon="12.206829179034507"><ele>1014.0</ele><time>2026-03-23T09:13:21Z</time></trkpt><trkpt lat="46.00076063377606" lon="12.20703180145822"><ele>1009.6</ele><time>2026-03-23T09:13:22Z</time></trkpt><trkpt lat="46.0007244287981" lon="12.207206259350029"><ele>1005.2</ele><time>2026-03-23T09:13:23Z</time></trkpt><trkpt lat="46.000686318286206" lon="12.207352226886089"><ele>1000.8000000000001</ele><time>2026-03-23T09:13:24Z</time></trkpt><trkpt lat="46.00067402967093" lon="12.207468347457194"><ele>996.4000000000001</ele><time>2026-03-23T09:13:25Z</time></trkpt><trkpt lat="46.00058921831105" lon="12.207593361354828"><ele>992.0</ele><time>2026-03-23T09:13:27Z</time></trkpt><trkpt lat="46.000524093812565" lon="12.207597536209777"><ele>992.0000000000001</ele><time>2026-03-23T09:13:28Z</time></trkpt><trkpt lat="46.0004397636987" lon="12.207571197795575"><ele>992.0</ele><time>2026-03-23T09:13:29Z</time></trkpt><trkpt lat="46.00037231129757" lon="12.20760679935186"><ele>992.0</ele><time>2026-03-23T09:13:30Z</time></trkpt><trkpt lat="46.000307502310235" lon="12.207658461489673"><ele>992.0</ele><time>2026-03-23T09:13:31Z</time></trkpt><trkpt lat="46.000257971727656" lon="12.20773534624273"><ele>992.0000000000001</ele><time>2026-03-23T09:13:32Z</time></trkpt><trkpt lat="46.00022230912575" lon="12.207916667365774"><ele>992.0</ele><time>2026-03-23T09:13:34Z</time></trkpt><trkpt lat="46.00021662907712" lon="12.208039365633397"><ele>993.6</ele><time>2026-03-23T09:13:35Z</time></trkpt><trkpt lat="46.000227257445296" lon="12.208167798002634"><ele>995.2</ele><time>2026-03-23T09:13:36Z</time></trkpt><trkpt lat="46.00023617797078" lon="12.20831143291088"><ele>996.8</ele><time>2026-03-23T09:13:37Z</time></trkpt><trkpt lat="46.00025486514355" lon="12.20846775796865"><ele>998.4</ele><time>2026-03-23T09:13:38Z</time></trkpt><trkpt lat="46.00028379691222" lon="12.20861921245482"><ele>1000.0</ele><time>2026-03-23T09:13:39Z</time></trkpt><trkpt lat="46.00032283230309" lon="12.208757428367912"><ele>1000.0</ele><time>2026-03-23T09:13:40Z</time></trkpt><trkpt lat="46.00038127192964" lon="12.208900872720617"><ele>1000.0</ele><time>2026-03-23T09:13:41Z</time></trkpt><trkpt lat="46.00045735093938" lon="12.209074222632598"><ele>1000.0</ele><time>2026-03-23T09:13:42Z</time></trkpt><trkpt lat="46.000542454922176" lon="12.209260100038767"><ele>1000.0</ele><time>2026-03-23T09:13:43Z</time></trkpt><trkpt lat="46.00063923995975" lon="12.209477083220026"><ele>998.6666666666666</ele><time>2026-03-23T09:13:44Z</time></trkpt><trkpt lat="46.00074059238257" lon="12.209716614322886"><ele>997.3333333333333</ele><time>2026-03-23T09:13:45Z</time></trkpt><trkpt lat="46.000829311762615" lon="12.209931725316368"><ele>996.0</ele><time>2026-03-23T09:13:46Z</time></trkpt><trkpt lat="46.000891855096356" lon="12.21011891693914"><ele>1001.25</ele><time>2026-03-23T09:13:47Z</time></trkpt><trkpt lat="46.00093749655232" lon="12.210287814907991"><ele>1006.5</ele><time>2026-03-23T09:13:48Z</time></trkpt><trkpt lat="46.000992098327245" lon="12.210447481461314"><ele>1011.75</ele><time>2026-03-23T09:13:49Z</time></trkpt><trkpt lat="46.00105754203004" lon="12.210603575753021"><ele>1017.0</ele><time>2026-03-23T09:13:50Z</time></trkpt><trkpt lat="46.001128551230096" lon="12.210742189110624"><ele>1017.0</ele><time>2026-03-23T09:13:51Z</time></trkpt><trkpt lat="46.0011965127474" lon="12.21085005520536"><ele>1017.0</ele><time>2026-03-23T09:13:52Z</time></trkpt><trkpt lat="46.001257795065584" lon="12.210941477933504"><ele>1017.0</ele><time>2026-03-23T09:13:53Z</time></trkpt><trkpt lat="46.001325437868914" lon="12.211030904275965"><ele>1017.0</ele><time>2026-03-23T09:13:54Z</time></trkpt><trkpt lat="46.001404315828275" lon="12.21110998022495"><ele>1017.0</ele><time>2026-03-23T09:13:55Z</time></trkpt><trkpt lat="46.00148227261447" lon="12.211166591594408"><ele>1017.0</ele><time>2026-03-23T09:13:56Z</time></trkpt><trkpt lat="46.00154225738329" lon="12.211196915560823"><ele>1017.0</ele><time>2026-03-23T09:13:57Z</time></trkpt><trkpt lat="46.0016733396248" lon="12.211167369148413"><ele>1017.0</ele><time>2026-03-23T09:13:59Z</time></trkpt><trkpt lat="46.001749619497616" lon="12.211161113589105"><ele>1017.0</ele><time>2026-03-23T09:14:00Z</time></trkpt><trkpt lat="46.00183861487536" lon="12.211309501293862"><ele>1017.0</ele><time>2026-03-23T09:14:02Z</time></trkpt><trkpt lat="46.00187396050489" lon="12.211420684922155"><ele>1020.6</ele><time>2026-03-23T09:14:03Z</time></trkpt><trkpt lat="46.0019004890299" lon="12.211526872875531"><ele>1024.2</ele><time>2026-03-23T09:14:04Z</time></trkpt><trkpt lat="46.00198135028554" lon="12.21167057415901"><ele>1027.8</ele><time>2026-03-23T09:14:06Z</time></trkpt><trkpt lat="46.0020459833221" lon="12.211735291629838"><ele>1031.4</ele><time>2026-03-23T09:14:07Z</time></trkpt><trkpt lat="46.0021203012131" lon="12.211814658837039"><ele>1035.0</ele><time>2026-03-23T09:14:08Z</time></trkpt><trkpt lat="46.00219389040627" lon="12.21194114937282"><ele>1035.0</ele><time>2026-03-23T09:14:09Z</time></trkpt><trkpt lat="46.002271460764916" lon="12.212086759338783"><ele>1035.0</ele><time>2026-03-23T09:14:10Z</time></trkpt><trkpt lat="46.002349006288746" lon="12.2122570074215"><ele>1035.0</ele><time>2026-03-23T09:14:11Z</time></trkpt><trkpt lat="46.00242526868283" lon="12.212422432227898"><ele>1035.0</ele><time>2026-03-23T09:14:12Z</time></trkpt><trkpt lat="46.00253257605576" lon="12.212603838146666"><ele>1037.25</ele><time>2026-03-23T09:14:13Z</time></trkpt><trkpt lat="46.00263487093744" lon="12.212755681441976"><ele>1039.5</ele><time>2026-03-23T09:14:14Z</time></trkpt><trkpt lat="46.00271565900131" lon="12.212884048626254"><ele>1041.75</ele><time>2026-03-23T09:14:15Z</time></trkpt><trkpt lat="46.00276718288118" lon="12.213039716117862"><ele>1044.0</ele><time>2026-03-23T09:14:16Z</time></trkpt><trkpt lat="46.002817039016406" lon="12.213248709999817"><ele>1044.0</ele><time>2026-03-23T09:14:17Z</time></trkpt><trkpt lat="46.002855492551866" lon="12.213446548466333"><ele>1044.0</ele><time>2026-03-23T09:14:18Z</time></trkpt><trkpt lat="46.002879535629106" lon="12.213585026798814"><ele>1044.0</ele><time>2026-03-23T09:14:19Z</time></trkpt><trkpt lat="46.00290304838485" lon="12.213685826496961"><ele>1044.0</ele><time>2026-03-23T09:14:20Z</time></trkpt><trkpt lat="46.002946593597116" lon="12.213753910506465"><ele>1044.0</ele><time>2026-03-23T09:14:22Z</time></trkpt><trkpt lat="46.00296613679404" lon="12.21357837740467"><ele>1044.0</ele><time>2026-03-23T09:14:25Z</time></trkpt><trkpt lat="46.0029195414558" lon="12.21340419411576"><ele>1044.0</ele><time>2026-03-23T09:14:26Z</time></trkpt><trkpt lat="46.00291862577812" lon="12.213214680912383"><ele>1044.0</ele><time>2026-03-23T09:14:27Z</time></trkpt><trkpt lat="46.002925123871634" lon="12.213008304305795"><ele>1044.0</ele><time>2026-03-23T09:14:28Z</time></trkpt><trkpt lat="46.00293077186775" lon="12.21282800632956"><ele>1047.0</ele><time>2026-03-23T09:14:29Z</time></trkpt><trkpt lat="46.00290595769541" lon="12.212655589566964"><ele>1050.0</ele><time>2026-03-23T09:14:30Z</time></trkpt><trkpt lat="46.00285969220278" lon="12.21243485245758"><ele>1053.0</ele><time>2026-03-23T09:14:31Z</time></trkpt><trkpt lat="46.00282135424962" lon="12.212216073009337"><ele>1056.0</ele><time>2026-03-23T09:14:32Z</time></trkpt><trkpt lat="46.00279950700505" lon="12.212048891614037"><ele>1061.6666666666667</ele><time>2026-03-23T09:14:33Z</time></trkpt><trkpt lat="46.00278698475481" lon="12.211835926583475"><ele>1067.3333333333335</ele><time>2026-03-23T09:14:34Z</time></trkpt><trkpt lat="46.00274121371073" lon="12.211576861939482"><ele>1073.0</ele><time>2026-03-23T09:14:35Z</time></trkpt><trkpt lat="46.002662749100246" lon="12.211306279722178"><ele>1073.0</ele><time>2026-03-23T09:14:36Z</time></trkpt><trkpt lat="46.00260019698134" lon="12.211094914126726"><ele>1073.0</ele><time>2026-03-23T09:14:37Z</time></trkpt><trkpt lat="46.00255045263707" lon="12.210927362600762"><ele>1073.0</ele><time>2026-03-23T09:14:38Z</time></trkpt><trkpt lat="46.00251183180761" lon="12.210781656457455"><ele>1073.0</ele><time>2026-03-23T09:14:39Z</time></trkpt><trkpt lat="46.00248186835715" lon="12.21062858663376"><ele>1073.0</ele><time>2026-03-23T09:14:40Z</time></trkpt><trkpt lat="46.00246018890091" lon="12.210446867019947"><ele>1073.0</ele><time>2026-03-23T09:14:41Z</time></trkpt><trkpt lat="46.00243836896923" lon="12.210239181566402"><ele>1073.0</ele><time>2026-03-23T09:14:42Z</time></trkpt><trkpt lat="46.00241758271911" lon="12.210024033460499"><ele>1073.0</ele><time>2026-03-23T09:14:43Z</time></trkpt><trkpt lat="46.00239481998728" lon="12.20986228771124"><ele>1074.4</ele><time>2026-03-23T09:14:44Z</time></trkpt><trkpt lat="46.00237093863449" lon="12.209745012296615"><ele>1075.8</ele><time>2026-03-23T09:14:45Z</time></trkpt><trkpt lat="46.00234684348009" lon="12.209645124352775"><ele>1077.2</ele><time>2026-03-23T09:14:46Z</time></trkpt><trkpt lat="46.00232495336261" lon="12.209509591880336"><ele>1078.6</ele><time>2026-03-23T09:14:48Z</time></trkpt><trkpt lat="46.00230432670516" lon="12.209324191820883"><ele>1080.0</ele><time>2026-03-23T09:14:50Z</time></trkpt><trkpt lat="46.00230478210699" lon="12.209160337664024"><ele>1080.0</ele><time>2026-03-23T09:14:51Z</time></trkpt><trkpt lat="46.00231607712176" lon="12.208994714958585"><ele>1080.0</ele><time>2026-03-23T09:14:52Z</time></trkpt><trkpt lat="46.00232791815756" lon="12.208849057560478"><ele>1080.0</ele><time>2026-03-23T09:14:53Z</time></trkpt><trkpt lat="46.00232819950272" lon="12.208723749698184"><ele>1080.0</ele><time>2026-03-23T09:14:54Z</time></trkpt><trkpt lat="46.00233128526509" lon="12.2086312392579"><ele>1080.0</ele><time>2026-03-23T09:14:55Z</time></trkpt><trkpt lat="46.00236253471993" lon="12.208546266993814"><ele>1080.0</ele><time>2026-03-23T09:14:57Z</time></trkpt><trkpt lat="46.0024216160172" lon="12.208356035270429"><ele>1079.8</ele><time>2026-03-23T09:14:59Z</time></trkpt><trkpt lat="46.002447731620066" lon="12.208228698890432"><ele>1079.6</ele><time>2026-03-23T09:15:00Z</time></trkpt><trkpt lat="46.00246173339934" lon="12.208086235528675"><ele>1079.4</ele><time>2026-03-23T09:15:01Z</time></trkpt><trkpt lat="46.00248098680731" lon="12.207952285494011"><ele>1079.2</ele><time>2026-03-23T09:15:02Z</time></trkpt><trkpt lat="46.00250549034571" lon="12.207819542365156"><ele>1079.0</ele><time>2026-03-23T09:15:03Z</time></trkpt><trkpt lat="46.002523958733136" lon="12.207666030282638"><ele>1085.8</ele><time>2026-03-23T09:15:04Z</time></trkpt><trkpt lat="46.002537636422524" lon="12.207526041571573"><ele>1092.6000000000001</ele><time>2026-03-23T09:15:05Z</time></trkpt><trkpt lat="46.002550997465114" lon="12.207386245303313"><ele>1099.4</ele><time>2026-03-23T09:15:06Z</time></trkpt><trkpt lat="46.00256765497293" lon="12.207284166398813"><ele>1106.2</ele><time>2026-03-23T09:15:07Z</time></trkpt><trkpt lat="46.002573670992184" lon="12.207142855568659"><ele>1113.0</ele><time>2026-03-23T09:15:09Z</time></trkpt><trkpt lat="46.00253670318002" lon="12.207026657156236"><ele>1113.0</ele><time>2026-03-23T09:15:11Z</time></trkpt><trkpt lat="46.002500941606094" lon="12.206887051799244"><ele>1113.0</ele><time>2026-03-23T09:17:58Z</time></trkpt><trkpt lat="46.00248984535824" lon="12.206763699673921"><ele>1113.0</ele><time>2026-03-23T09:18:00Z</time></trkpt><trkpt lat="46.0024873861857" lon="12.206669394252888"><ele>1113.0</ele><time>2026-03-23T09:18:02Z</time></trkpt><trkpt lat="46.002481852400784" lon="12.206551188484195"><ele>1113.0</ele><time>2026-03-23T09:18:04Z</time></trkpt><trkpt lat="46.00248413690335" lon="12.206422689016346"><ele>1113.0</ele><time>2026-03-23T09:18:06Z</time></trkpt><trkpt lat="46.00249551811446" lon="12.20628292566726"><ele>1112.4</ele><time>2026-03-23T09:18:08Z</time></trkpt><trkpt lat="46.00249917806712" lon="12.206143830754968"><ele>1111.8</ele><time>2026-03-23T09:18:10Z</time></trkpt><trkpt lat="46.00250716244231" lon="12.205990827000724"><ele>1111.2</ele><time>2026-03-23T09:18:12Z</time></trkpt><trkpt lat="46.0025053163991" lon="12.20583132957701"><ele>1110.6</ele><time>2026-03-23T09:18:14Z</time></trkpt><trkpt lat="46.00250648884983" lon="12.205674965411266"><ele>1110.0</ele><time>2026-03-23T09:18:16Z</time></trkpt><trkpt lat="46.00251566609078" lon="12.205563445930506"><ele>1108.3333333333333</ele><time>2026-03-23T09:18:18Z</time></trkpt><trkpt lat="46.00251805888729" lon="12.205471448438864"><ele>1106.6666666666667</ele><time>2026-03-23T09:18:20Z</time></trkpt><trkpt lat="46.00251878052039" lon="12.205324342047177"><ele>1105.0</ele><time>2026-03-23T09:18:23Z</time></trkpt><trkpt lat="46.002534159552084" lon="12.205224774708595"><ele>1103.3333333333335</ele><time>2026-03-23T09:18:24Z</time></trkpt><trkpt lat="46.002544134701175" lon="12.205116658350974"><ele>1101.6666666666667</ele><time>2026-03-23T09:18:25Z</time></trkpt><trkpt lat="46.00255353867831" lon="12.205014515844297"><ele>1100.0</ele><time>2026-03-23T09:18:26Z</time></trkpt><trkpt lat="46.00256223424601" lon="12.204911406778617"><ele>1099.0</ele><time>2026-03-23T09:18:27.001Z</time></trkpt><trkpt lat="46.002575440724414" lon="12.204811610480508"><ele>1098.0</ele><time>2026-03-23T09:18:28.001Z</time></trkpt><trkpt lat="46.002589147019215" lon="12.204701087098746"><ele>1097.0</ele><time>2026-03-23T09:18:29.001Z</time></trkpt><trkpt lat="46.002599068433895" lon="12.204575657465558"><ele>1096.0</ele><time>2026-03-23T09:18:30.001Z</time></trkpt><trkpt lat="46.002604859778465" lon="12.204402762603793"><ele>1095.0</ele><time>2026-03-23T09:18:31.001Z</time></trkpt><trkpt lat="46.00260934940649" lon="12.204238050128438"><ele>1095.0</ele><time>2026-03-23T09:18:32Z</time></trkpt><trkpt lat="46.002613042513666" lon="12.204095707780969"><ele>1095.0</ele><time>2026-03-23T09:18:33Z</time></trkpt><trkpt lat="46.00262727593444" lon="12.203948891997713"><ele>1095.0</ele><time>2026-03-23T09:18:34Z</time></trkpt><trkpt lat="46.00265128482682" lon="12.203792597034315"><ele>1095.0</ele><time>2026-03-23T09:18:35Z</time></trkpt><trkpt lat="46.002668523815366" lon="12.20365154441816"><ele>1095.0</ele><time>2026-03-23T09:18:36Z</time></trkpt><trkpt lat="46.002672434352334" lon="12.20353480862472"><ele>1096.1666666666667</ele><time>2026-03-23T09:18:37Z</time></trkpt><trkpt lat="46.002656595525366" lon="12.20344668926214"><ele>1097.3333333333333</ele><time>2026-03-23T09:18:38Z</time></trkpt><trkpt lat="46.00262724704772" lon="12.203350326551451"><ele>1098.5</ele><time>2026-03-23T09:18:39Z</time></trkpt><trkpt lat="46.002586201163794" lon="12.20322604789418"><ele>1099.6666666666665</ele><time>2026-03-23T09:18:40Z</time></trkpt><trkpt lat="46.00254744736786" lon="12.203088845129091"><ele>1100.8333333333333</ele><time>2026-03-23T09:18:41Z</time></trkpt><trkpt lat="46.00253170376504" lon="12.20296463179423"><ele>1102.0</ele><time>2026-03-23T09:18:42Z</time></trkpt><trkpt lat="46.002518597038254" lon="12.202833319733244"><ele>1104.4</ele><time>2026-03-23T09:18:43Z</time></trkpt><trkpt lat="46.002519796162595" lon="12.20270205621694"><ele>1106.8000000000002</ele><time>2026-03-23T09:18:44Z</time></trkpt><trkpt lat="46.00252060605219" lon="12.202556395616247"><ele>1109.2</ele><time>2026-03-23T09:18:45Z</time></trkpt><trkpt lat="46.00253501226915" lon="12.202408057712088"><ele>1111.6000000000001</ele><time>2026-03-23T09:18:46Z</time></trkpt><trkpt lat="46.0025607365115" lon="12.202275507961703"><ele>1114.0</ele><time>2026-03-23T09:18:47Z</time></trkpt><trkpt lat="46.0025958940485" lon="12.202132513204115"><ele>1116.8</ele><time>2026-03-23T09:18:48Z</time></trkpt><trkpt lat="46.00263898617459" lon="12.20198180866539"><ele>1119.6000000000001</ele><time>2026-03-23T09:18:49Z</time></trkpt><trkpt lat="46.00268806545349" lon="12.201867611379866"><ele>1122.4</ele><time>2026-03-23T09:18:50Z</time></trkpt><trkpt lat="46.002747014191925" lon="12.201770217218693"><ele>1125.2</ele><time>2026-03-23T09:18:51Z</time></trkpt><trkpt lat="46.00281228746818" lon="12.201682002206384"><ele>1128.0</ele><time>2026-03-23T09:18:52Z</time></trkpt><trkpt lat="46.00285793993721" lon="12.201594300672141"><ele>1130.8</ele><time>2026-03-23T09:18:53Z</time></trkpt><trkpt lat="46.002897114549775" lon="12.201475737804252"><ele>1133.6</ele><time>2026-03-23T09:18:54Z</time></trkpt><trkpt lat="46.002937178099" lon="12.201341892015034"><ele>1136.4</ele><time>2026-03-23T09:18:55Z</time></trkpt><trkpt lat="46.002987024211464" lon="12.201216106173616"><ele>1139.2</ele><time>2026-03-23T09:18:56Z</time></trkpt><trkpt lat="46.00303884978054" lon="12.20110884596191"><ele>1142.0</ele><time>2026-03-23T09:18:57Z</time></trkpt><trkpt lat="46.0030935937687" lon="12.200988193908834"><ele>1142.0</ele><time>2026-03-23T09:18:58Z</time></trkpt><trkpt lat="46.00314797082719" lon="12.200857104667175"><ele>1142.0</ele><time>2026-03-23T09:18:59Z</time></trkpt><trkpt lat="46.00319789113179" lon="12.200757025973227"><ele>1142.0</ele><time>2026-03-23T09:19:00Z</time></trkpt><trkpt lat="46.00324732031186" lon="12.200671800308097"><ele>1142.0</ele><time>2026-03-23T09:19:01Z</time></trkpt><trkpt lat="46.00330387928204" lon="12.200580321284233"><ele>1142.0</ele><time>2026-03-23T09:19:02Z</time></trkpt><trkpt lat="46.00335970683234" lon="12.200482067716703"><ele>1142.0</ele><time>2026-03-23T09:19:03Z</time></trkpt><trkpt lat="46.00341743550382" lon="12.200369972768401"><ele>1144.0</ele><time>2026-03-23T09:19:04Z</time></trkpt><trkpt lat="46.00347824473124" lon="12.200267324872055"><ele>1146.0</ele><time>2026-03-23T09:19:05Z</time></trkpt><trkpt lat="46.003549474991495" lon="12.200157341627586"><ele>1148.0</ele><time>2026-03-23T09:19:06Z</time></trkpt><trkpt lat="46.00359844373376" lon="12.200085600391606"><ele>1150.0</ele><time>2026-03-23T09:19:07Z</time></trkpt><trkpt lat="46.00368061123528" lon="12.19999249338977"><ele>1152.0</ele><time>2026-03-23T09:19:09Z</time></trkpt><trkpt lat="46.0037322491187" lon="12.199864343307047"><ele>1152.6</ele><time>2026-03-23T09:19:11Z</time></trkpt><trkpt lat="46.003733955162815" lon="12.19969853065158"><ele>1153.2</ele><time>2026-03-23T09:19:13Z</time></trkpt><trkpt lat="46.00370180170839" lon="12.199591816582476"><ele>1153.8</ele><time>2026-03-23T09:19:14Z</time></trkpt><trkpt lat="46.00364918339557" lon="12.199442155023702"><ele>1154.4</ele><time>2026-03-23T09:19:15Z</time></trkpt><trkpt lat="46.003640541080834" lon="12.199335155958456"><ele>1155.0</ele><time>2026-03-23T09:19:16Z</time></trkpt><trkpt lat="46.00364923749922" lon="12.199200563760789"><ele>1155.0</ele><time>2026-03-23T09:19:17Z</time></trkpt><trkpt lat="46.00365710107366" lon="12.199049030566439"><ele>1155.0</ele><time>2026-03-23T09:19:18Z</time></trkpt><trkpt lat="46.00365828656491" lon="12.19890117928965"><ele>1155.0</ele><time>2026-03-23T09:19:19Z</time></trkpt><trkpt lat="46.00368102605056" lon="12.198770632465411"><ele>1155.0</ele><time>2026-03-23T09:19:20Z</time></trkpt><trkpt lat="46.003701278733416" lon="12.198633056318268"><ele>1155.0</ele><time>2026-03-23T09:19:21Z</time></trkpt><trkpt lat="46.003715679331435" lon="12.198499231440056"><ele>1154.8333333333333</ele><time>2026-03-23T09:19:22Z</time></trkpt><trkpt lat="46.003751121213085" lon="12.198352962385284"><ele>1154.6666666666667</ele><time>2026-03-23T09:19:23Z</time></trkpt><trkpt lat="46.003783041440364" lon="12.198230425513815"><ele>1154.5</ele><time>2026-03-23T09:19:24Z</time></trkpt><trkpt lat="46.00379645585539" lon="12.198141614482722"><ele>1154.3333333333335</ele><time>2026-03-23T09:19:25Z</time></trkpt><trkpt lat="46.00379134320735" lon="12.197977517602272"><ele>1154.1666666666667</ele><time>2026-03-23T09:19:27Z</time></trkpt><trkpt lat="46.0037776279545" lon="12.197876463776776"><ele>1154.0</ele><time>2026-03-23T09:19:28Z</time></trkpt><trkpt lat="46.00372855802738" lon="12.197696562285133"><ele>1152.3333333333335</ele><time>2026-03-23T09:19:30Z</time></trkpt><trkpt lat="46.00367912604148" lon="12.19761284107975"><ele>1150.6666666666667</ele><time>2026-03-23T09:19:31Z</time></trkpt><trkpt lat="46.00362651825131" lon="12.19752453893573"><ele>1149.0</ele><time>2026-03-23T09:19:32Z</time></trkpt><trkpt lat="46.00357203740765" lon="12.197445055521015"><ele>1147.3333333333333</ele><time>2026-03-23T09:19:33Z</time></trkpt><trkpt lat="46.00351715783984" lon="12.197360415494297"><ele>1145.6666666666665</ele><time>2026-03-23T09:19:34Z</time></trkpt><trkpt lat="46.00345879426531" lon="12.197283986388607"><ele>1144.0</ele><time>2026-03-23T09:19:35Z</time></trkpt><trkpt lat="46.00341578372799" lon="12.197198327588026"><ele>1142.0</ele><time>2026-03-23T09:19:36Z</time></trkpt><trkpt lat="46.00337774302029" lon="12.197125996038789"><ele>1140.0</ele><time>2026-03-23T09:19:37Z</time></trkpt><trkpt lat="46.00330299234115" lon="12.197022840461633"><ele>1138.0</ele><time>2026-03-23T09:19:39Z</time></trkpt><trkpt lat="46.00324960916267" lon="12.196928324067459"><ele>1136.0</ele><time>2026-03-23T09:19:41Z</time></trkpt><trkpt lat="46.00320563294097" lon="12.196839852955211"><ele>1134.0</ele><time>2026-03-23T09:19:43Z</time></trkpt><trkpt lat="46.00315550912257" lon="12.196714380716159"><ele>1132.0</ele><time>2026-03-23T09:19:45Z</time></trkpt><trkpt lat="46.0031354040325" lon="12.196569444683895"><ele>1129.8</ele><time>2026-03-23T09:19:47Z</time></trkpt><trkpt lat="46.00309387061645" lon="12.196397218376944"><ele>1127.6</ele><time>2026-03-23T09:19:49Z</time></trkpt><trkpt lat="46.003075725361924" lon="12.196302097802038"><ele>1125.3999999999999</ele><time>2026-03-23T09:19:50Z</time></trkpt><trkpt lat="46.00306489530806" lon="12.196208225162811"><ele>1123.2</ele><time>2026-03-23T09:19:51Z</time></trkpt><trkpt lat="46.0030728948871" lon="12.196055650293784"><ele>1121.0</ele><time>2026-03-23T09:19:53Z</time></trkpt><trkpt lat="46.00309250459146" lon="12.19591007807793"><ele>1121.0</ele><time>2026-03-23T09:19:55Z</time></trkpt><trkpt lat="46.003115354561906" lon="12.195769324990964"><ele>1121.0</ele><time>2026-03-23T09:19:57Z</time></trkpt><trkpt lat="46.00316406284507" lon="12.195647384656915"><ele>1121.0</ele><time>2026-03-23T09:19:59Z</time></trkpt><trkpt lat="46.00325305897922" lon="12.195539170779657"><ele>1121.0</ele><time>2026-03-23T09:20:01Z</time></trkpt><trkpt lat="46.00332472587133" lon="12.195449753142793"><ele>1121.0</ele><time>2026-03-23T09:20:02Z</time></trkpt><trkpt lat="46.00339225089257" lon="12.195370115972977"><ele>1126.0</ele><time>2026-03-23T09:20:03Z</time></trkpt><trkpt lat="46.00344544887374" lon="12.195297617728846"><ele>1131.0</ele><time>2026-03-23T09:20:04Z</time></trkpt><trkpt lat="46.00351965062809" lon="12.19516013812452"><ele>1136.0</ele><time>2026-03-23T09:20:06Z</time></trkpt><trkpt lat="46.00355806408881" lon="12.195066352203698"><ele>1141.0</ele><time>2026-03-23T09:20:07Z</time></trkpt><trkpt lat="46.003604664320825" lon="12.194965406695509"><ele>1146.0</ele><time>2026-03-23T09:20:08Z</time></trkpt><trkpt lat="46.00366231171679" lon="12.194862519932204"><ele>1151.0</ele><time>2026-03-23T09:20:09Z</time></trkpt><trkpt lat="46.00371544226388" lon="12.194762256159748"><ele>1153.5</ele><time>2026-03-23T09:20:10Z</time></trkpt><trkpt lat="46.003768301830064" lon="12.194660854887129"><ele>1156.0</ele><time>2026-03-23T09:20:11Z</time></trkpt><trkpt lat="46.00381500178113" lon="12.194572925707735"><ele>1158.5</ele><time>2026-03-23T09:20:12Z</time></trkpt><trkpt lat="46.00386659345185" lon="12.1944864059337"><ele>1161.0</ele><time>2026-03-23T09:20:13Z</time></trkpt><trkpt lat="46.003922042687954" lon="12.19440518795285"><ele>1163.5</ele><time>2026-03-23T09:20:14Z</time></trkpt><trkpt lat="46.00398141687839" lon="12.194319844786037"><ele>1166.0</ele><time>2026-03-23T09:20:15Z</time></trkpt><trkpt lat="46.004036876385726" lon="12.194254043065563"><ele>1166.0000000000002</ele><time>2026-03-23T09:20:16Z</time></trkpt><trkpt lat="46.00409595971669" lon="12.194194723894476"><ele>1166.0</ele><time>2026-03-23T09:20:17Z</time></trkpt><trkpt lat="46.00416582554537" lon="12.194146929978894"><ele>1166.0</ele><time>2026-03-23T09:20:18Z</time></trkpt><trkpt lat="46.00422640791795" lon="12.194119752681852"><ele>1166.0</ele><time>2026-03-23T09:20:19Z</time></trkpt><trkpt lat="46.004291856427066" lon="12.194106484116544"><ele>1166.0</ele><time>2026-03-23T09:20:20Z</time></trkpt><trkpt lat="46.00436785109604" lon="12.19411051268579"><ele>1166.0000000000002</ele><time>2026-03-23T09:20:21Z</time></trkpt><trkpt lat="46.00443130962464" lon="12.194125070842201"><ele>1166.0</ele><time>2026-03-23T09:20:22Z</time></trkpt><trkpt lat="46.00450994957094" lon="12.194139299834523"><ele>1167.0</ele><time>2026-03-23T09:20:23Z</time></trkpt><trkpt lat="46.004589879467716" lon="12.19413548370971"><ele>1168.0</ele><time>2026-03-23T09:20:24Z</time></trkpt><trkpt lat="46.0046645369809" lon="12.194129140923554"><ele>1169.0</ele><time>2026-03-23T09:20:25Z</time></trkpt><trkpt lat="46.004735716700495" lon="12.194109052551044"><ele>1170.0</ele><time>2026-03-23T09:20:26Z</time></trkpt><trkpt lat="46.004854491624414" lon="12.194051521940672"><ele>1171.0</ele><time>2026-03-23T09:20:28Z</time></trkpt><trkpt lat="46.004921279904025" lon="12.194015187480389"><ele>1172.0</ele><time>2026-03-23T09:20:29Z</time></trkpt><trkpt lat="46.00498458524487" lon="12.19397485518887"><ele>1177.0</ele><time>2026-03-23T09:20:30Z</time></trkpt><trkpt lat="46.00504428926754" lon="12.193934766145055"><ele>1182.0</ele><time>2026-03-23T09:20:31Z</time></trkpt><trkpt lat="46.00513719226439" lon="12.193856031572043"><ele>1187.0</ele><time>2026-03-23T09:20:33Z</time></trkpt><trkpt lat="46.005164431091515" lon="12.193711655112523"><ele>1192.0</ele><time>2026-03-23T09:20:35Z</time></trkpt><trkpt lat="46.00516393729273" lon="12.193536448102778"><ele>1197.0</ele><time>2026-03-23T09:20:37Z</time></trkpt><trkpt lat="46.00519758662691" lon="12.193369404994934"><ele>1197.0</ele><time>2026-03-23T09:20:39Z</time></trkpt><trkpt lat="46.00526655113504" lon="12.19322395867981"><ele>1197.0</ele><time>2026-03-23T09:20:41Z</time></trkpt><trkpt lat="46.00530856929651" lon="12.193152238857472"><ele>1197.0</ele><time>2026-03-23T09:20:42Z</time></trkpt><trkpt lat="46.00535406198422" lon="12.193078277366487"><ele>1197.0</ele><time>2026-03-23T09:20:43Z</time></trkpt><trkpt lat="46.00540351203434" lon="12.193005660493473"><ele>1197.0</ele><time>2026-03-23T09:20:44Z</time></trkpt><trkpt lat="46.00549933770119" lon="12.192958065699294"><ele>1197.0</ele><time>2026-03-23T09:20:46Z</time></trkpt><trkpt lat="46.00560952261764" lon="12.192948048663476"><ele>1199.4</ele><time>2026-03-23T09:20:48Z</time></trkpt><trkpt lat="46.00569853763562" lon="12.192917560545402"><ele>1201.8000000000002</ele><time>2026-03-23T09:20:49Z</time></trkpt><trkpt lat="46.005782568860766" lon="12.192903021110565"><ele>1204.2</ele><time>2026-03-23T09:20:50Z</time></trkpt><trkpt lat="46.00588240197444" lon="12.192873257643216"><ele>1206.6000000000001</ele><time>2026-03-23T09:20:51Z</time></trkpt><trkpt lat="46.00596679929164" lon="12.192846936053552"><ele>1209.0</ele><time>2026-03-23T09:20:52Z</time></trkpt><trkpt lat="46.00610313404809" lon="12.192808662045701"><ele>1209.0</ele><time>2026-03-23T09:20:54Z</time></trkpt><trkpt lat="46.00621454901377" lon="12.192741474123013"><ele>1209.0</ele><time>2026-03-23T09:20:56Z</time></trkpt><trkpt lat="46.00627784348455" lon="12.192626707291227"><ele>1209.0</ele><time>2026-03-23T09:20:58Z</time></trkpt><trkpt lat="46.00630105130741" lon="12.192478470667535"><ele>1209.0</ele><time>2026-03-23T09:21:00Z</time></trkpt><trkpt lat="46.00632150253989" lon="12.192383321614034"><ele>1209.0</ele><time>2026-03-23T09:21:01Z</time></trkpt><trkpt lat="46.00634046973162" lon="12.192289758742358"><ele>1213.5</ele><time>2026-03-23T09:21:02Z</time></trkpt><trkpt lat="46.006338030977325" lon="12.192172607374612"><ele>1218.0</ele><time>2026-03-23T09:21:03Z</time></trkpt><trkpt lat="46.00633450371203" lon="12.19201680549879"><ele>1222.5</ele><time>2026-03-23T09:21:05Z</time></trkpt><trkpt lat="46.006358115768975" lon="12.191926469420023"><ele>1227.0</ele><time>2026-03-23T09:21:06Z</time></trkpt><trkpt lat="46.00640333348483" lon="12.19182729024779"><ele>1231.5</ele><time>2026-03-23T09:21:07Z</time></trkpt><trkpt lat="46.006458675441685" lon="12.191722079835642"><ele>1236.0</ele><time>2026-03-23T09:21:08Z</time></trkpt><trkpt lat="46.00651641196806" lon="12.19162717782471"><ele>1236.0</ele><time>2026-03-23T09:21:09Z</time></trkpt><trkpt lat="46.00659280850235" lon="12.191538458857192"><ele>1236.0</ele><time>2026-03-23T09:21:10Z</time></trkpt><trkpt lat="46.00666752189836" lon="12.191481276516914"><ele>1236.0</ele><time>2026-03-23T09:21:11Z</time></trkpt><trkpt lat="46.006738023164274" lon="12.19143270924308"><ele>1236.0</ele><time>2026-03-23T09:21:12Z</time></trkpt><trkpt lat="46.00684187473568" lon="12.191384000756614"><ele>1236.0</ele><time>2026-03-23T09:21:13Z</time></trkpt><trkpt lat="46.00693274231888" lon="12.191335483955214"><ele>1233.8</ele><time>2026-03-23T09:21:14Z</time></trkpt><trkpt lat="46.007026027717224" lon="12.191271298598254"><ele>1231.6</ele><time>2026-03-23T09:21:15Z</time></trkpt><trkpt lat="46.0071283531476" lon="12.19122413901313"><ele>1229.4</ele><time>2026-03-23T09:21:16Z</time></trkpt><trkpt lat="46.007235596274725" lon="12.191163827708271"><ele>1227.2</ele><time>2026-03-23T09:21:17Z</time></trkpt><trkpt lat="46.00733320695163" lon="12.19110108183447"><ele>1225.0</ele><time>2026-03-23T09:21:18Z</time></trkpt><trkpt lat="46.007431843565435" lon="12.191066833656002"><ele>1224.6</ele><time>2026-03-23T09:21:19Z</time></trkpt><trkpt lat="46.00752449352268" lon="12.191045042073386"><ele>1224.2</ele><time>2026-03-23T09:21:20Z</time></trkpt><trkpt lat="46.00762036493389" lon="12.191054935514211"><ele>1223.8</ele><time>2026-03-23T09:21:21Z</time></trkpt><trkpt lat="46.00771557737855" lon="12.191046222606447"><ele>1223.4</ele><time>2026-03-23T09:21:22Z</time></trkpt><trkpt lat="46.00783479683598" lon="12.191022672380857"><ele>1223.0</ele><time>2026-03-23T09:21:23Z</time></trkpt><trkpt lat="46.007944412188024" lon="12.190981335501457"><ele>1223.0</ele><time>2026-03-23T09:21:24Z</time></trkpt><trkpt lat="46.00804959326557" lon="12.190978744772266"><ele>1223.0</ele><time>2026-03-23T09:21:25Z</time></trkpt><trkpt lat="46.00815519496593" lon="12.190964691048022"><ele>1223.0</ele><time>2026-03-23T09:21:26Z</time></trkpt><trkpt lat="46.008243738991276" lon="12.190934417975896"><ele>1223.0</ele><time>2026-03-23T09:21:27Z</time></trkpt><trkpt lat="46.00832773670939" lon="12.190898622247861"><ele>1223.0</ele><time>2026-03-23T09:21:28Z</time></trkpt><trkpt lat="46.00841272108752" lon="12.190877707256739"><ele>1222.8</ele><time>2026-03-23T09:21:29Z</time></trkpt><trkpt lat="46.00848093428713" lon="12.190871262009539"><ele>1222.6</ele><time>2026-03-23T09:21:30Z</time></trkpt><trkpt lat="46.00857265343616" lon="12.1908156430298"><ele>1222.4</ele><time>2026-03-23T09:21:31Z</time></trkpt><trkpt lat="46.008654575105446" lon="12.19073563851902"><ele>1222.2</ele><time>2026-03-23T09:21:32Z</time></trkpt><trkpt lat="46.00874002021976" lon="12.190654568227506"><ele>1222.0</ele><time>2026-03-23T09:21:33Z</time></trkpt><trkpt lat="46.0088204332897" lon="12.190588870264547"><ele>1227.5</ele><time>2026-03-23T09:21:34Z</time></trkpt><trkpt lat="46.00891028948087" lon="12.190552058661734"><ele>1233.0</ele><time>2026-03-23T09:21:35Z</time></trkpt><trkpt lat="46.008999876031794" lon="12.19054959793604"><ele>1238.5</ele><time>2026-03-23T09:21:36Z</time></trkpt><trkpt lat="46.0090665026874" lon="12.190585804010295"><ele>1244.0</ele><time>2026-03-23T09:21:37Z</time></trkpt><trkpt lat="46.009131249165875" lon="12.190597545755535"><ele>1249.5</ele><time>2026-03-23T09:21:38Z</time></trkpt><trkpt lat="46.00922517283636" lon="12.190532234719166"><ele>1255.0</ele><time>2026-03-23T09:21:40Z</time></trkpt><trkpt lat="46.00927076430645" lon="12.1904520983706"><ele>1255.0</ele><time>2026-03-23T09:21:41Z</time></trkpt><trkpt lat="46.009355925199586" lon="12.190362543693745"><ele>1255.0</ele><time>2026-03-23T09:21:42Z</time></trkpt><trkpt lat="46.009455564123094" lon="12.190268296021236"><ele>1255.0</ele><time>2026-03-23T09:21:43Z</time></trkpt><trkpt lat="46.0095271525852" lon="12.19018685671461"><ele>1255.0</ele><time>2026-03-23T09:21:44Z</time></trkpt><trkpt lat="46.00959688715918" lon="12.19004312299554"><ele>1255.0</ele><time>2026-03-23T09:21:46Z</time></trkpt><trkpt lat="46.00965089015265" lon="12.189946455641731"><ele>1255.0</ele><time>2026-03-23T09:21:47Z</time></trkpt><trkpt lat="46.00970197419345" lon="12.189847966414876"><ele>1255.0</ele><time>2026-03-23T09:21:48Z</time></trkpt><trkpt lat="46.00975559243084" lon="12.189747877030836"><ele>1255.0</ele><time>2026-03-23T09:21:49Z</time></trkpt><trkpt lat="46.00979668927695" lon="12.189647531975567"><ele>1255.0</ele><time>2026-03-23T09:21:50Z</time></trkpt><trkpt lat="46.009855460248026" lon="12.18957932234203"><ele>1255.0</ele><time>2026-03-23T09:21:51Z</time></trkpt><trkpt lat="46.00994143182733" lon="12.18952733661103"><ele>1255.0</ele><time>2026-03-23T09:21:52Z</time></trkpt><trkpt lat="46.0100071032637" lon="12.1894762453272"><ele>1255.857142857143</ele><time>2026-03-23T09:21:53Z</time></trkpt><trkpt lat="46.010057500469834" lon="12.189411752016925"><ele>1256.7142857142856</ele><time>2026-03-23T09:21:54Z</time></trkpt><trkpt lat="46.01010693049758" lon="12.189329976348358"><ele>1257.5714285714284</ele><time>2026-03-23T09:21:55Z</time></trkpt><trkpt lat="46.010144638964874" lon="12.189249971573632"><ele>1258.4285714285716</ele><time>2026-03-23T09:21:56Z</time></trkpt><trkpt lat="46.01019647567387" lon="12.189188549349165"><ele>1259.2857142857142</ele><time>2026-03-23T09:21:57Z</time></trkpt><trkpt lat="46.01026261656398" lon="12.189135423944386"><ele>1260.142857142857</ele><time>2026-03-23T09:21:59Z</time></trkpt><trkpt lat="46.01033136866481" lon="12.189042178077038"><ele>1261.0</ele><time>2026-03-23T09:22:01Z</time></trkpt><trkpt lat="46.01040939259193" lon="12.188958198387564"><ele>1261.0</ele><time>2026-03-23T09:22:03Z</time></trkpt><trkpt lat="46.010489129234834" lon="12.188934863646256"><ele>1261.0</ele><time>2026-03-23T09:22:06Z</time></trkpt><trkpt lat="46.01057085501591" lon="12.188984716164494"><ele>1261.0</ele><time>2026-03-23T09:22:10Z</time></trkpt><trkpt lat="46.010500066884184" lon="12.188969348927754"><ele>1261.0</ele><time>2026-03-23T09:22:27Z</time></trkpt><trkpt lat="46.01039563120289" lon="12.189012798572513"><ele>1261.0</ele><time>2026-03-23T09:22:29Z</time></trkpt><trkpt lat="46.01030192896176" lon="12.189122964197914"><ele>1261.0</ele><time>2026-03-23T09:22:31Z</time></trkpt><trkpt lat="46.01019716941086" lon="12.189225331556"><ele>1261.0</ele><time>2026-03-23T09:22:32Z</time></trkpt><trkpt lat="46.010124716950735" lon="12.18929995818407"><ele>1261.0</ele><time>2026-03-23T09:22:33Z</time></trkpt><trkpt lat="46.010067481346454" lon="12.189375848547343"><ele>1261.0</ele><time>2026-03-23T09:22:34Z</time></trkpt><trkpt lat="46.010025828025164" lon="12.189458821718292"><ele>1261.0</ele><time>2026-03-23T09:22:35Z</time></trkpt><trkpt lat="46.009981039389494" lon="12.189523732216763"><ele>1261.0</ele><time>2026-03-23T09:22:36Z</time></trkpt><trkpt lat="46.00991983454051" lon="12.189570099454901"><ele>1259.8</ele><time>2026-03-23T09:22:37Z</time></trkpt><trkpt lat="46.00980473475201" lon="12.189671266527107"><ele>1258.6</ele><time>2026-03-23T09:22:39Z</time></trkpt><trkpt lat="46.00974633886781" lon="12.189755069472705"><ele>1257.4</ele><time>2026-03-23T09:22:40Z</time></trkpt><trkpt lat="46.00969009074529" lon="12.189867679665836"><ele>1256.2</ele><time>2026-03-23T09:22:41Z</time></trkpt><trkpt lat="46.009638898510225" lon="12.189991389162657"><ele>1255.0</ele><time>2026-03-23T09:22:42Z</time></trkpt><trkpt lat="46.00960044075736" lon="12.19007875377002"><ele>1255.0</ele><time>2026-03-23T09:22:43Z</time></trkpt><trkpt lat="46.009559333838574" lon="12.19015068954307"><ele>1255.0</ele><time>2026-03-23T09:22:44Z</time></trkpt><trkpt lat="46.00951341956557" lon="12.190221230915558"><ele>1255.0</ele><time>2026-03-23T09:22:45Z</time></trkpt><trkpt lat="46.00945955407348" lon="12.190274191090033"><ele>1255.0</ele><time>2026-03-23T09:22:46Z</time></trkpt><trkpt lat="46.009380028923275" lon="12.190358299479323"><ele>1255.0</ele><time>2026-03-23T09:22:47Z</time></trkpt><trkpt lat="46.00929151485181" lon="12.190421787196541"><ele>1255.0</ele><time>2026-03-23T09:22:48Z</time></trkpt><trkpt lat="46.00924436845755" lon="12.19049555467259"><ele>1255.0</ele><time>2026-03-23T09:22:49Z</time></trkpt><trkpt lat="46.00915842264308" lon="12.19058080820472"><ele>1255.0</ele><time>2026-03-23T09:22:51Z</time></trkpt><trkpt lat="46.009093076391906" lon="12.190603203165837"><ele>1255.0</ele><time>2026-03-23T09:22:52Z</time></trkpt><trkpt lat="46.00902605739956" lon="12.190585309452219"><ele>1255.0</ele><time>2026-03-23T09:22:53Z</time></trkpt><trkpt lat="46.00895996447184" lon="12.190558583576035"><ele>1255.0</ele><time>2026-03-23T09:22:54Z</time></trkpt><trkpt lat="46.00888720506678" lon="12.190550232623929"><ele>1255.0</ele><time>2026-03-23T09:22:55Z</time></trkpt><trkpt lat="46.00882080134876" lon="12.190582080418817"><ele>1255.0</ele><time>2026-03-23T09:22:56Z</time></trkpt><trkpt lat="46.00873141282626" lon="12.190660397779974"><ele>1255.0</ele><time>2026-03-23T09:22:57Z</time></trkpt><trkpt lat="46.00863431292566" lon="12.19076067290537"><ele>1255.0</ele><time>2026-03-23T09:22:58Z</time></trkpt><trkpt lat="46.00856190775985" lon="12.190831654383409"><ele>1255.0</ele><time>2026-03-23T09:22:59Z</time></trkpt><trkpt lat="46.0084878636472" lon="12.190880441628181"><ele>1255.0</ele><time>2026-03-23T09:23:00Z</time></trkpt><trkpt lat="46.00840421922753" lon="12.19090543300825"><ele>1248.6</ele><time>2026-03-23T09:23:01Z</time></trkpt><trkpt lat="46.00830711903275" lon="12.190927505766556"><ele>1242.2</ele><time>2026-03-23T09:23:02Z</time></trkpt><trkpt lat="46.008199871917064" lon="12.190953009892558"><ele>1235.8</ele><time>2026-03-23T09:23:03Z</time></trkpt><trkpt lat="46.008097108837894" lon="12.190994970500803"><ele>1229.4</ele><time>2026-03-23T09:23:04Z</time></trkpt><trkpt lat="46.00800064307735" lon="12.191004117955703"><ele>1223.0</ele><time>2026-03-23T09:23:05Z</time></trkpt><trkpt lat="46.00791044902837" lon="12.19101164130219"><ele>1223.0</ele><time>2026-03-23T09:23:06Z</time></trkpt><trkpt lat="46.00780931613574" lon="12.191022804444613"><ele>1223.0</ele><time>2026-03-23T09:23:07Z</time></trkpt><trkpt lat="46.007715688371775" lon="12.19103741812669"><ele>1223.0</ele><time>2026-03-23T09:23:08Z</time></trkpt><trkpt lat="46.007623042368245" lon="12.19105591584523"><ele>1223.0</ele><time>2026-03-23T09:23:09Z</time></trkpt><trkpt lat="46.00753051984492" lon="12.191071612787672"><ele>1223.0</ele><time>2026-03-23T09:23:10Z</time></trkpt><trkpt lat="46.007436196239844" lon="12.191090450238942"><ele>1223.4</ele><time>2026-03-23T09:23:11Z</time></trkpt><trkpt lat="46.00733774084018" lon="12.191111476349358"><ele>1223.8</ele><time>2026-03-23T09:23:12Z</time></trkpt><trkpt lat="46.007257764763864" lon="12.191160224505282"><ele>1224.2</ele><time>2026-03-23T09:23:13Z</time></trkpt><trkpt lat="46.00716007200956" lon="12.191199331802757"><ele>1224.6</ele><time>2026-03-23T09:23:14Z</time></trkpt><trkpt lat="46.00706172801031" lon="12.191251158136932"><ele>1225.0</ele><time>2026-03-23T09:23:15Z</time></trkpt><trkpt lat="46.006970857588456" lon="12.191301773287279"><ele>1225.0</ele><time>2026-03-23T09:23:16Z</time></trkpt><trkpt lat="46.00688512758925" lon="12.191359183026247"><ele>1225.0</ele><time>2026-03-23T09:23:17Z</time></trkpt><trkpt lat="46.00679439096249" lon="12.191411063446846"><ele>1225.0</ele><time>2026-03-23T09:23:18Z</time></trkpt><trkpt lat="46.00670215155117" lon="12.191491114675044"><ele>1225.0</ele><time>2026-03-23T09:23:19Z</time></trkpt><trkpt lat="46.00660355066733" lon="12.191524394930518"><ele>1225.0</ele><time>2026-03-23T09:23:20Z</time></trkpt><trkpt lat="46.006508341367166" lon="12.19159662451296"><ele>1227.2</ele><time>2026-03-23T09:23:21Z</time></trkpt><trkpt lat="46.00645474146264" lon="12.191739963818897"><ele>1229.4</ele><time>2026-03-23T09:23:22Z</time></trkpt><trkpt lat="46.006404819275545" lon="12.191876953318266"><ele>1231.6</ele><time>2026-03-23T09:23:23Z</time></trkpt><trkpt lat="46.00634412366599" lon="12.191999954471692"><ele>1233.8</ele><time>2026-03-23T09:23:24Z</time></trkpt><trkpt lat="46.00631826174949" lon="12.192107732677034"><ele>1236.0</ele><time>2026-03-23T09:23:25Z</time></trkpt><trkpt lat="46.00633214357524" lon="12.192243927144807"><ele>1230.6</ele><time>2026-03-23T09:23:26Z</time></trkpt><trkpt lat="46.00633795754306" lon="12.192370522726929"><ele>1225.1999999999998</ele><time>2026-03-23T09:23:27Z</time></trkpt><trkpt lat="46.00630255913692" lon="12.192548182427142"><ele>1219.8000000000002</ele><time>2026-03-23T09:23:29Z</time></trkpt><trkpt lat="46.006257675460745" lon="12.192642418655607"><ele>1214.4</ele><time>2026-03-23T09:23:30Z</time></trkpt><trkpt lat="46.00618625507654" lon="12.19276536983859"><ele>1209.0</ele><time>2026-03-23T09:23:32Z</time></trkpt><trkpt lat="46.00608365374714" lon="12.192837054429226"><ele>1209.0</ele><time>2026-03-23T09:23:34Z</time></trkpt><trkpt lat="46.006000271925444" lon="12.192862985555259"><ele>1209.0</ele><time>2026-03-23T09:23:35Z</time></trkpt><trkpt lat="46.00585740329118" lon="12.192878503436498"><ele>1209.0</ele><time>2026-03-23T09:23:37Z</time></trkpt><trkpt lat="46.00577049321244" lon="12.19292593752065"><ele>1209.0</ele><time>2026-03-23T09:23:39Z</time></trkpt><trkpt lat="46.00569359708232" lon="12.192942119259847"><ele>1209.0</ele><time>2026-03-23T09:23:40Z</time></trkpt><trkpt lat="46.00560531086701" lon="12.192965575751003"><ele>1211.4</ele><time>2026-03-23T09:23:41Z</time></trkpt><trkpt lat="46.00551791772075" lon="12.193011560576892"><ele>1213.8000000000002</ele><time>2026-03-23T09:23:42Z</time></trkpt><trkpt lat="46.005447846734235" lon="12.193013375928821"><ele>1216.1999999999998</ele><time>2026-03-23T09:23:43Z</time></trkpt><trkpt lat="46.005339440826724" lon="12.193096569762947"><ele>1218.6</ele><time>2026-03-23T09:23:45Z</time></trkpt><trkpt lat="46.00530735427347" lon="12.19317503338409"><ele>1221.0</ele><time>2026-03-23T09:23:46Z</time></trkpt><trkpt lat="46.00525632618397" lon="12.193306826237384"><ele>1217.0</ele><time>2026-03-23T09:23:47Z</time></trkpt><trkpt lat="46.00520541392177" lon="12.19343584883305"><ele>1213.0</ele><time>2026-03-23T09:23:48Z</time></trkpt><trkpt lat="46.0051750783397" lon="12.19354102484655"><ele>1209.0</ele><time>2026-03-23T09:23:49Z</time></trkpt><trkpt lat="46.005153822651444" lon="12.193664024370893"><ele>1205.0</ele><time>2026-03-23T09:23:50Z</time></trkpt><trkpt lat="46.00515684326612" lon="12.193756127438071"><ele>1201.0</ele><time>2026-03-23T09:23:51Z</time></trkpt><trkpt lat="46.00513041956069" lon="12.19387369145932"><ele>1197.0</ele><time>2026-03-23T09:23:53Z</time></trkpt><trkpt lat="46.005047186981" lon="12.19395609032719"><ele>1192.0</ele><time>2026-03-23T09:23:55Z</time></trkpt><trkpt lat="46.004944905033064" lon="12.194010687021839"><ele>1187.0</ele><time>2026-03-23T09:23:57Z</time></trkpt><trkpt lat="46.004851070097125" lon="12.194061346316984"><ele>1182.0</ele><time>2026-03-23T09:23:59Z</time></trkpt><trkpt lat="46.004708667666314" lon="12.19411038380013"><ele>1177.0</ele><time>2026-03-23T09:24:01Z</time></trkpt><trkpt lat="46.00463133876062" lon="12.194129638811459"><ele>1172.0</ele><time>2026-03-23T09:24:02Z</time></trkpt><trkpt lat="46.00455635501908" lon="12.194138787424441"><ele>1172.0</ele><time>2026-03-23T09:24:03Z</time></trkpt><trkpt lat="46.00445627812702" lon="12.194140017416643"><ele>1172.0</ele><time>2026-03-23T09:24:04Z</time></trkpt><trkpt lat="46.00437366250183" lon="12.194130157196295"><ele>1172.0</ele><time>2026-03-23T09:24:05Z</time></trkpt><trkpt lat="46.00430179648949" lon="12.194111452924044"><ele>1172.0</ele><time>2026-03-23T09:24:06Z</time></trkpt><trkpt lat="46.0042214862963" lon="12.194129310171334"><ele>1172.0</ele><time>2026-03-23T09:24:07Z</time></trkpt><trkpt lat="46.00413629603139" lon="12.194168780166715"><ele>1172.0</ele><time>2026-03-23T09:24:08Z</time></trkpt><trkpt lat="46.0040635948783" lon="12.194222024700684"><ele>1171.0</ele><time>2026-03-23T09:24:09Z</time></trkpt><trkpt lat="46.00399965077076" lon="12.194298657354611"><ele>1170.0</ele><time>2026-03-23T09:24:10Z</time></trkpt><trkpt lat="46.00393273264265" lon="12.194390803955699"><ele>1169.0</ele><time>2026-03-23T09:24:11Z</time></trkpt><trkpt lat="46.00386968050049" lon="12.194493172042568"><ele>1168.0</ele><time>2026-03-23T09:24:12Z</time></trkpt><trkpt lat="46.003810400828826" lon="12.194603016808411"><ele>1167.0</ele><time>2026-03-23T09:24:13Z</time></trkpt><trkpt lat="46.003763248014124" lon="12.194688137960023"><ele>1166.0</ele><time>2026-03-23T09:24:14Z</time></trkpt><trkpt lat="46.0037176553204" lon="12.194780098253966"><ele>1163.5</ele><time>2026-03-23T09:24:15Z</time></trkpt><trkpt lat="46.00366632255287" lon="12.194872355996509"><ele>1161.0</ele><time>2026-03-23T09:24:16Z</time></trkpt><trkpt lat="46.00363079573794" lon="12.194949067520058"><ele>1158.5</ele><time>2026-03-23T09:24:17Z</time></trkpt><trkpt lat="46.00359144262724" lon="12.195023536317448"><ele>1156.0</ele><time>2026-03-23T09:24:18Z</time></trkpt><trkpt lat="46.00355297681432" lon="12.19510943182298"><ele>1153.5</ele><time>2026-03-23T09:24:19Z</time></trkpt><trkpt lat="46.003515418898" lon="12.195192413833682"><ele>1151.0</ele><time>2026-03-23T09:24:20Z</time></trkpt><trkpt lat="46.003441792370154" lon="12.1953296635628"><ele>1151.0</ele><time>2026-03-23T09:24:22Z</time></trkpt><trkpt lat="46.00339244174267" lon="12.195396085965747"><ele>1151.0</ele><time>2026-03-23T09:24:23Z</time></trkpt><trkpt lat="46.00334173931955" lon="12.19546269310689"><ele>1151.0</ele><time>2026-03-23T09:24:24Z</time></trkpt><trkpt lat="46.003290013667154" lon="12.195519251566688"><ele>1151.0</ele><time>2026-03-23T09:24:25Z</time></trkpt><trkpt lat="46.00321512539979" lon="12.195606934290222"><ele>1151.0</ele><time>2026-03-23T09:24:27Z</time></trkpt><trkpt lat="46.00314457429386" lon="12.1956745819104"><ele>1151.0</ele><time>2026-03-23T09:24:30Z</time></trkpt><trkpt lat="46.00311079173282" lon="12.195807986406646"><ele>1147.5</ele><time>2026-03-23T09:24:32Z</time></trkpt><trkpt lat="46.00309781107848" lon="12.195916158929897"><ele>1144.0</ele><time>2026-03-23T09:24:33Z</time></trkpt><trkpt lat="46.003082896602955" lon="12.196010859474152"><ele>1140.5</ele><time>2026-03-23T09:24:34Z</time></trkpt><trkpt lat="46.00308333282618" lon="12.196177364357117"><ele>1137.0</ele><time>2026-03-23T09:24:36Z</time></trkpt><trkpt lat="46.00308751210542" lon="12.196284312796225"><ele>1133.5</ele><time>2026-03-23T09:24:37Z</time></trkpt><trkpt lat="46.00309259674712" lon="12.196382364244146"><ele>1130.0</ele><time>2026-03-23T09:24:38Z</time></trkpt><trkpt lat="46.00312802058393" lon="12.196563324161072"><ele>1130.0</ele><time>2026-03-23T09:24:40Z</time></trkpt><trkpt lat="46.003155018593425" lon="12.196668073787807"><ele>1130.0</ele><time>2026-03-23T09:24:41Z</time></trkpt><trkpt lat="46.00318122380515" lon="12.196751708795611"><ele>1130.0</ele><time>2026-03-23T09:24:42Z</time></trkpt><trkpt lat="46.003204308435144" lon="12.196870942585674"><ele>1130.0</ele><time>2026-03-23T09:24:44Z</time></trkpt><trkpt lat="46.00325737231745" lon="12.196935303945098"><ele>1130.0</ele><time>2026-03-23T09:24:54Z</time></trkpt><trkpt lat="46.003295813586924" lon="12.196845590106452"><ele>1130.0</ele><time>2026-03-23T09:24:58Z</time></trkpt><trkpt lat="46.00322762565823" lon="12.196778535070878"><ele>1130.0</ele><time>2026-03-23T09:25:07Z</time></trkpt><trkpt lat="46.003151607042845" lon="12.196661050064657"><ele>1130.0</ele><time>2026-03-23T09:25:09Z</time></trkpt><trkpt lat="46.00313495435688" lon="12.19656220094641"><ele>1130.0</ele><time>2026-03-23T09:25:10Z</time></trkpt><trkpt lat="46.0031214104212" lon="12.196449371944098"><ele>1130.0</ele><time>2026-03-23T09:25:11Z</time></trkpt><trkpt lat="46.003103440770744" lon="12.196334634312228"><ele>1130.0</ele><time>2026-03-23T09:25:12Z</time></trkpt><trkpt lat="46.00309003227369" lon="12.196217066369105"><ele>1130.0</ele><time>2026-03-23T09:25:13Z</time></trkpt><trkpt lat="46.00308575217418" lon="12.196111453494908"><ele>1128.2</ele><time>2026-03-23T09:25:14Z</time></trkpt><trkpt lat="46.00308930690878" lon="12.195998224651062"><ele>1126.4</ele><time>2026-03-23T09:25:15Z</time></trkpt><trkpt lat="46.00310076733221" lon="12.19589523417562"><ele>1124.6</ele><time>2026-03-23T09:25:16Z</time></trkpt><trkpt lat="46.00311746093299" lon="12.1957898316257"><ele>1122.8</ele><time>2026-03-23T09:25:17Z</time></trkpt><trkpt lat="46.00316425964095" lon="12.195658585489964"><ele>1121.0</ele><time>2026-03-23T09:25:19Z</time></trkpt><trkpt lat="46.003254476978896" lon="12.195529920766958"><ele>1120.3999999999999</ele><time>2026-03-23T09:25:21Z</time></trkpt><trkpt lat="46.003322127607156" lon="12.195449488008988"><ele>1119.8</ele><time>2026-03-23T09:25:22Z</time></trkpt><trkpt lat="46.00338255928537" lon="12.195388016463934"><ele>1119.1999999999998</ele><time>2026-03-23T09:25:23Z</time></trkpt><trkpt lat="46.003463250462545" lon="12.195283013853395"><ele>1118.6</ele><time>2026-03-23T09:25:25Z</time></trkpt><trkpt lat="46.003530713471946" lon="12.195159943979181"><ele>1118.0</ele><time>2026-03-23T09:25:27Z</time></trkpt><trkpt lat="46.00358666948547" lon="12.195032942688057"><ele>1123.5</ele><time>2026-03-23T09:25:29Z</time></trkpt><trkpt lat="46.003662923496265" lon="12.194883577499295"><ele>1129.0</ele><time>2026-03-23T09:25:31Z</time></trkpt><trkpt lat="46.0037051031099" lon="12.194797895587262"><ele>1134.5</ele><time>2026-03-23T09:25:32Z</time></trkpt><trkpt lat="46.00375102794543" lon="12.19470247405315"><ele>1140.0</ele><time>2026-03-23T09:25:33Z</time></trkpt><trkpt lat="46.00380031564559" lon="12.19460296313162"><ele>1145.5</ele><time>2026-03-23T09:25:34Z</time></trkpt><trkpt lat="46.003839045932594" lon="12.194516823067298"><ele>1151.0</ele><time>2026-03-23T09:25:35Z</time></trkpt><trkpt lat="46.003891122843314" lon="12.19444292455996"><ele>1154.0</ele><time>2026-03-23T09:25:36Z</time></trkpt><trkpt lat="46.00395111049758" lon="12.194399824892354"><ele>1157.0</ele><time>2026-03-23T09:25:37Z</time></trkpt><trkpt lat="46.00404746897893" lon="12.194353755642522"><ele>1160.0</ele><time>2026-03-23T09:25:39Z</time></trkpt><trkpt lat="46.00417925148726" lon="12.194322654992762"><ele>1163.0</ele><time>2026-03-23T09:25:41Z</time></trkpt><trkpt lat="46.00425742528719" lon="12.194313142709396"><ele>1166.0</ele><time>2026-03-23T09:25:42Z</time></trkpt><trkpt lat="46.00433381900429" lon="12.194325906906515"><ele>1166.857142857143</ele><time>2026-03-23T09:25:43Z</time></trkpt><trkpt lat="46.004407047253196" lon="12.19434808947032"><ele>1167.7142857142858</ele><time>2026-03-23T09:25:44Z</time></trkpt><trkpt lat="46.004473886521545" lon="12.19438883198174"><ele>1168.5714285714284</ele><time>2026-03-23T09:25:45Z</time></trkpt><trkpt lat="46.0045474847293" lon="12.194426191677085"><ele>1169.4285714285716</ele><time>2026-03-23T09:25:46Z</time></trkpt><trkpt lat="46.0046255325434" lon="12.19444544498997"><ele>1170.2857142857142</ele><time>2026-03-23T09:25:47Z</time></trkpt><trkpt lat="46.00469226807115" lon="12.194453280896035"><ele>1171.142857142857</ele><time>2026-03-23T09:25:48Z</time></trkpt><trkpt lat="46.00476580617337" lon="12.194454400308121"><ele>1172.0</ele><time>2026-03-23T09:25:49Z</time></trkpt><trkpt lat="46.004846679757016" lon="12.194437290984366"><ele>1172.0</ele><time>2026-03-23T09:25:50Z</time></trkpt><trkpt lat="46.00492001536649" lon="12.194405024093484"><ele>1172.0</ele><time>2026-03-23T09:25:51Z</time></trkpt><trkpt lat="46.004992146088945" lon="12.19438742546713"><ele>1172.0</ele><time>2026-03-23T09:25:52Z</time></trkpt><trkpt lat="46.00507603620579" lon="12.194364585062699"><ele>1172.0</ele><time>2026-03-23T09:25:53Z</time></trkpt><trkpt lat="46.005163894892966" lon="12.194331520938555"><ele>1172.0</ele><time>2026-03-23T09:25:54Z</time></trkpt><trkpt lat="46.00523469527592" lon="12.194310753016554"><ele>1172.0</ele><time>2026-03-23T09:25:55Z</time></trkpt><trkpt lat="46.00535087529297" lon="12.194253320360657"><ele>1170.5</ele><time>2026-03-23T09:25:57Z</time></trkpt><trkpt lat="46.00540040450076" lon="12.194193982828661"><ele>1169.0</ele><time>2026-03-23T09:25:58Z</time></trkpt><trkpt lat="46.00545952254999" lon="12.194037779108687"><ele>1167.5</ele><time>2026-03-23T09:26:00Z</time></trkpt><trkpt lat="46.00546938536885" lon="12.193945697182375"><ele>1166.0</ele><time>2026-03-23T09:26:01Z</time></trkpt><trkpt lat="46.00546649482441" lon="12.193840956988824"><ele>1164.5</ele><time>2026-03-23T09:26:02Z</time></trkpt><trkpt lat="46.005472506047504" lon="12.193735945943127"><ele>1163.0</ele><time>2026-03-23T09:26:03Z</time></trkpt><trkpt lat="46.00551558484845" lon="12.19359041107318"><ele>1165.2</ele><time>2026-03-23T09:26:05Z</time></trkpt><trkpt lat="46.00560032935318" lon="12.19350534276969"><ele>1167.4</ele><time>2026-03-23T09:26:07Z</time></trkpt><trkpt lat="46.00571652796121" lon="12.193482695324525"><ele>1169.6000000000001</ele><time>2026-03-23T09:26:09Z</time></trkpt><trkpt lat="46.00578763488432" lon="12.193482403471444"><ele>1171.8</ele><time>2026-03-23T09:26:10Z</time></trkpt><trkpt lat="46.00586882957147" lon="12.193480242732642"><ele>1174.0</ele><time>2026-03-23T09:26:11Z</time></trkpt><trkpt lat="46.00595081363133" lon="12.193483227087434"><ele>1174.0</ele><time>2026-03-23T09:26:12Z</time></trkpt><trkpt lat="46.006039411445435" lon="12.193490988802408"><ele>1174.0</ele><time>2026-03-23T09:26:13Z</time></trkpt><trkpt lat="46.00611160746886" lon="12.193494003891534"><ele>1174.0</ele><time>2026-03-23T09:26:14Z</time></trkpt><trkpt lat="46.00622888118019" lon="12.193519919214861"><ele>1174.0</ele><time>2026-03-23T09:26:16Z</time></trkpt><trkpt lat="46.00635237558875" lon="12.19350295938336"><ele>1174.0</ele><time>2026-03-23T09:26:18Z</time></trkpt><trkpt lat="46.006411768322685" lon="12.193467574318507"><ele>1174.0</ele><time>2026-03-23T09:26:19Z</time></trkpt><trkpt lat="46.00651847261976" lon="12.193383968185131"><ele>1174.0</ele><time>2026-03-23T09:26:21Z</time></trkpt><trkpt lat="46.00660289067719" lon="12.193264075651278"><ele>1174.0</ele><time>2026-03-23T09:26:23Z</time></trkpt><trkpt lat="46.006664566412084" lon="12.193102636648199"><ele>1174.0</ele><time>2026-03-23T09:26:25Z</time></trkpt><trkpt lat="46.006683262610835" lon="12.193015038272524"><ele>1174.0</ele><time>2026-03-23T09:26:26Z</time></trkpt><trkpt lat="46.00671089263572" lon="12.192931385717316"><ele>1174.8333333333333</ele><time>2026-03-23T09:26:27Z</time></trkpt><trkpt lat="46.006738450962835" lon="12.192843159101187"><ele>1175.6666666666665</ele><time>2026-03-23T09:26:28Z</time></trkpt><trkpt lat="46.00677304705718" lon="12.19276455739945"><ele>1176.5</ele><time>2026-03-23T09:26:29Z</time></trkpt><trkpt lat="46.006849389444874" lon="12.192617482799745"><ele>1177.3333333333333</ele><time>2026-03-23T09:26:31Z</time></trkpt><trkpt lat="46.006875565646816" lon="12.192530594864843"><ele>1178.1666666666667</ele><time>2026-03-23T09:26:32Z</time></trkpt><trkpt lat="46.00688950629862" lon="12.192433997009902"><ele>1179.0</ele><time>2026-03-23T09:26:33Z</time></trkpt><trkpt lat="46.00691814537117" lon="12.192343912209113"><ele>1184.4</ele><time>2026-03-23T09:26:34Z</time></trkpt><trkpt lat="46.00698063766052" lon="12.192291739354577"><ele>1189.8000000000002</ele><time>2026-03-23T09:26:35Z</time></trkpt><trkpt lat="46.00710945389766" lon="12.192247237045523"><ele>1195.1999999999998</ele><time>2026-03-23T09:26:37Z</time></trkpt><trkpt lat="46.00718758945739" lon="12.192230049420077"><ele>1200.6</ele><time>2026-03-23T09:26:38Z</time></trkpt><trkpt lat="46.00727581658417" lon="12.192205453103366"><ele>1206.0</ele><time>2026-03-23T09:26:39Z</time></trkpt><trkpt lat="46.00737662109374" lon="12.192188784867458"><ele>1206.0</ele><time>2026-03-23T09:26:40Z</time></trkpt><trkpt lat="46.00746468068967" lon="12.19218121070899"><ele>1206.0</ele><time>2026-03-23T09:26:41Z</time></trkpt><trkpt lat="46.007551091700556" lon="12.192167897468392"><ele>1206.0</ele><time>2026-03-23T09:26:42Z</time></trkpt><trkpt lat="46.00765346176602" lon="12.192158723580384"><ele>1206.0</ele><time>2026-03-23T09:26:43Z</time></trkpt><trkpt lat="46.007739736340355" lon="12.192181726841302"><ele>1206.0</ele><time>2026-03-23T09:26:44Z</time></trkpt><trkpt lat="46.00781250038155" lon="12.192182590758094"><ele>1206.0</ele><time>2026-03-23T09:26:45Z</time></trkpt><trkpt lat="46.007896856303496" lon="12.192181898016763"><ele>1202.6666666666667</ele><time>2026-03-23T09:26:46Z</time></trkpt><trkpt lat="46.00797333562934" lon="12.192192619059284"><ele>1199.3333333333333</ele><time>2026-03-23T09:26:47Z</time></trkpt><trkpt lat="46.00808179761502" lon="12.192270156321658"><ele>1196.0</ele><time>2026-03-23T09:26:49Z</time></trkpt><trkpt lat="46.00814123816564" lon="12.192313360295392"><ele>1192.6666666666665</ele><time>2026-03-23T09:26:50Z</time></trkpt><trkpt lat="46.008217491935916" lon="12.192335950118046"><ele>1189.3333333333333</ele><time>2026-03-23T09:26:51Z</time></trkpt><trkpt lat="46.008300829054434" lon="12.192324338065493"><ele>1186.0</ele><time>2026-03-23T09:26:52Z</time></trkpt><trkpt lat="46.00840926939251" lon="12.192311182381156"><ele>1184.6</ele><time>2026-03-23T09:26:53Z</time></trkpt><trkpt lat="46.00850386052522" lon="12.192305621857319"><ele>1183.1999999999998</ele><time>2026-03-23T09:26:54Z</time></trkpt><trkpt lat="46.00858883636696" lon="12.19232465414971"><ele>1181.8000000000002</ele><time>2026-03-23T09:26:55Z</time></trkpt><trkpt lat="46.00866121196113" lon="12.19235063530345"><ele>1180.4</ele><time>2026-03-23T09:26:56Z</time></trkpt><trkpt lat="46.00879688637249" lon="12.192313087155025"><ele>1179.0</ele><time>2026-03-23T09:26:58Z</time></trkpt><trkpt lat="46.00887864513347" lon="12.192252739206987"><ele>1179.0</ele><time>2026-03-23T09:26:59Z</time></trkpt><trkpt lat="46.00895550437449" lon="12.192213394350079"><ele>1179.0</ele><time>2026-03-23T09:27:00Z</time></trkpt><trkpt lat="46.00903053451886" lon="12.192190003006303"><ele>1179.0</ele><time>2026-03-23T09:27:01Z</time></trkpt><trkpt lat="46.00911648800356" lon="12.192211699120564"><ele>1179.0</ele><time>2026-03-23T09:27:02Z</time></trkpt><trkpt lat="46.0092201317832" lon="12.19225353639847"><ele>1179.0</ele><time>2026-03-23T09:27:03Z</time></trkpt><trkpt lat="46.00931570377044" lon="12.192275935523506"><ele>1178.8</ele><time>2026-03-23T09:27:04Z</time></trkpt><trkpt lat="46.00942563859528" lon="12.192293103655427"><ele>1178.6000000000001</ele><time>2026-03-23T09:27:05Z</time></trkpt><trkpt lat="46.0095160476525" lon="12.192337944198602"><ele>1178.4</ele><time>2026-03-23T09:27:06Z</time></trkpt><trkpt lat="46.00961323912212" lon="12.192380875321401"><ele>1178.2</ele><time>2026-03-23T09:27:07Z</time></trkpt><trkpt lat="46.00970052409891" lon="12.192406627213192"><ele>1178.0</ele><time>2026-03-23T09:27:08Z</time></trkpt><trkpt lat="46.00978460307413" lon="12.192434134910851"><ele>1174.8333333333335</ele><time>2026-03-23T09:27:09Z</time></trkpt><trkpt lat="46.00989964941723" lon="12.192439307138192"><ele>1171.6666666666667</ele><time>2026-03-23T09:27:11Z</time></trkpt><trkpt lat="46.00998178528571" lon="12.192419567826814"><ele>1168.5</ele><time>2026-03-23T09:27:13Z</time></trkpt><trkpt lat="46.01003246772685" lon="12.192327754108033"><ele>1165.3333333333333</ele><time>2026-03-23T09:27:15Z</time></trkpt><trkpt lat="46.01006431631314" lon="12.192238765841294"><ele>1162.1666666666665</ele><time>2026-03-23T09:27:16Z</time></trkpt><trkpt lat="46.01009509369749" lon="12.19214171591446"><ele>1159.0</ele><time>2026-03-23T09:27:17Z</time></trkpt><trkpt lat="46.01013402894487" lon="12.192065364587833"><ele>1159.0</ele><time>2026-03-23T09:27:18Z</time></trkpt><trkpt lat="46.0102444065157" lon="12.19196198452273"><ele>1159.0</ele><time>2026-03-23T09:27:20Z</time></trkpt><trkpt lat="46.010328487552314" lon="12.19193709464766"><ele>1159.0</ele><time>2026-03-23T09:27:21Z</time></trkpt><trkpt lat="46.01042031831889" lon="12.191899713822195"><ele>1159.0</ele><time>2026-03-23T09:27:22Z</time></trkpt><trkpt lat="46.01049878846688" lon="12.191869794139187"><ele>1159.0</ele><time>2026-03-23T09:27:23Z</time></trkpt><trkpt lat="46.01057325987929" lon="12.19183225959397"><ele>1159.0</ele><time>2026-03-23T09:27:24Z</time></trkpt><trkpt lat="46.010638186338866" lon="12.191798999718351"><ele>1159.0</ele><time>2026-03-23T09:27:25Z</time></trkpt><trkpt lat="46.01070328242484" lon="12.191739630229609"><ele>1159.0</ele><time>2026-03-23T09:27:26Z</time></trkpt><trkpt lat="46.0107592306058" lon="12.191662420112584"><ele>1159.0</ele><time>2026-03-23T09:27:27Z</time></trkpt><trkpt lat="46.0108185453866" lon="12.19158069307127"><ele>1159.0</ele><time>2026-03-23T09:27:28Z</time></trkpt><trkpt lat="46.010883203316155" lon="12.191526970752019"><ele>1159.0</ele><time>2026-03-23T09:27:29Z</time></trkpt><trkpt lat="46.010963863719255" lon="12.191497762516507"><ele>1160.4</ele><time>2026-03-23T09:27:30Z</time></trkpt><trkpt lat="46.01105253616396" lon="12.19148670377765"><ele>1161.8000000000002</ele><time>2026-03-23T09:27:31Z</time></trkpt><trkpt lat="46.01114506255708" lon="12.191509868718395"><ele>1163.1999999999998</ele><time>2026-03-23T09:27:32Z</time></trkpt><trkpt lat="46.01125291067652" lon="12.191510175487581"><ele>1164.6</ele><time>2026-03-23T09:27:33Z</time></trkpt><trkpt lat="46.01135263713736" lon="12.191515500760792"><ele>1166.0</ele><time>2026-03-23T09:27:34Z</time></trkpt><trkpt lat="46.01145506825707" lon="12.1915391850994"><ele>1159.1666666666667</ele><time>2026-03-23T09:27:35Z</time></trkpt><trkpt lat="46.01154988013426" lon="12.191551183452784"><ele>1152.3333333333335</ele><time>2026-03-23T09:27:36Z</time></trkpt><trkpt lat="46.01164641358159" lon="12.191582481399452"><ele>1145.5</ele><time>2026-03-23T09:27:37Z</time></trkpt><trkpt lat="46.01173912754985" lon="12.191579340823587"><ele>1138.6666666666667</ele><time>2026-03-23T09:27:38Z</time></trkpt><trkpt lat="46.01181866031253" lon="12.191565461685196"><ele>1131.8333333333333</ele><time>2026-03-23T09:27:39Z</time></trkpt><trkpt lat="46.01188304653363" lon="12.19157419819661"><ele>1125.0</ele><time>2026-03-23T09:27:40Z</time></trkpt><trkpt lat="46.01196186873492" lon="12.191639944243619"><ele>1122.6666666666667</ele><time>2026-03-23T09:27:42Z</time></trkpt><trkpt lat="46.012026208116005" lon="12.191711237645933"><ele>1120.3333333333333</ele><time>2026-03-23T09:27:44Z</time></trkpt><trkpt lat="46.012083100168226" lon="12.191803670278652"><ele>1118.0</ele><time>2026-03-23T09:27:46Z</time></trkpt><trkpt lat="46.01213110197995" lon="12.191895420595914"><ele>1115.6666666666665</ele><time>2026-03-23T09:27:48Z</time></trkpt><trkpt lat="46.01205040645008" lon="12.191787996322395"><ele>1113.3333333333333</ele><time>2026-03-23T09:29:09Z</time></trkpt><trkpt lat="46.012018898010815" lon="12.191700213893766"><ele>1111.0</ele><time>2026-03-23T09:29:11Z</time></trkpt><trkpt lat="46.012067574733685" lon="12.191772635764167"><ele>1111.0</ele><time>2026-03-23T09:29:22Z</time></trkpt><trkpt lat="46.012120200048344" lon="12.191853010146064"><ele>1111.0</ele><time>2026-03-23T09:29:24Z</time></trkpt><trkpt lat="46.01216462206163" lon="12.191917853408984"><ele>1111.0</ele><time>2026-03-23T09:29:27Z</time></trkpt><trkpt lat="46.012233807292134" lon="12.19200039679628"><ele>1111.0</ele><time>2026-03-23T09:30:08Z</time></trkpt><trkpt lat="46.012316234623626" lon="12.192120500813632"><ele>1111.0</ele><time>2026-03-23T09:30:11Z</time></trkpt><trkpt lat="46.012364502444235" lon="12.192201424349797"><ele>1111.0</ele><time>2026-03-23T09:30:12Z</time></trkpt><trkpt lat="46.012429730321564" lon="12.192344170298933"><ele>1106.8</ele><time>2026-03-23T09:30:14Z</time></trkpt><trkpt lat="46.01249871665136" lon="12.19246360785145"><ele>1102.6</ele><time>2026-03-23T09:30:16Z</time></trkpt><trkpt lat="46.01257738572176" lon="12.192567718449114"><ele>1098.4</ele><time>2026-03-23T09:30:18Z</time></trkpt><trkpt lat="46.01266854020976" lon="12.192659107061212"><ele>1094.2</ele><time>2026-03-23T09:30:20Z</time></trkpt><trkpt lat="46.01272595514783" lon="12.192720208749083"><ele>1090.0</ele><time>2026-03-23T09:30:21Z</time></trkpt><trkpt lat="46.01283627060472" lon="12.192809830671939"><ele>1090.0</ele><time>2026-03-23T09:30:23Z</time></trkpt><trkpt lat="46.012910968500485" lon="12.192844645930348"><ele>1090.0</ele><time>2026-03-23T09:30:24Z</time></trkpt><trkpt lat="46.01298052645196" lon="12.19287330039381"><ele>1090.0</ele><time>2026-03-23T09:30:25Z</time></trkpt><trkpt lat="46.01304531693436" lon="12.19290473925254"><ele>1090.0</ele><time>2026-03-23T09:30:26Z</time></trkpt><trkpt lat="46.01313246232995" lon="12.192881485010663"><ele>1090.0</ele><time>2026-03-23T09:30:28Z</time></trkpt><trkpt lat="46.013193913507635" lon="12.192755480272389"><ele>1090.0</ele><time>2026-03-23T09:30:30Z</time></trkpt><trkpt lat="46.013236795070995" lon="12.192553571532905"><ele>1090.0</ele><time>2026-03-23T09:30:32Z</time></trkpt><trkpt lat="46.01326843011043" lon="12.192419523134811"><ele>1090.0</ele><time>2026-03-23T09:30:33Z</time></trkpt><trkpt lat="46.01331068275613" lon="12.192280518283475"><ele>1090.0</ele><time>2026-03-23T09:30:34Z</time></trkpt><trkpt lat="46.013355930493574" lon="12.192179967081426"><ele>1090.0</ele><time>2026-03-23T09:30:35Z</time></trkpt><trkpt lat="46.01340855441522" lon="12.192071784810866"><ele>1090.0</ele><time>2026-03-23T09:30:36Z</time></trkpt><trkpt lat="46.01345074754657" lon="12.191974838698668"><ele>1094.4285714285716</ele><time>2026-03-23T09:30:37Z</time></trkpt><trkpt lat="46.013499838453924" lon="12.191891089982784"><ele>1098.857142857143</ele><time>2026-03-23T09:30:38Z</time></trkpt><trkpt lat="46.01355886686839" lon="12.191839283447708"><ele>1103.2857142857142</ele><time>2026-03-23T09:30:39Z</time></trkpt><trkpt lat="46.01362804197847" lon="12.191794512619321"><ele>1107.7142857142858</ele><time>2026-03-23T09:30:40Z</time></trkpt><trkpt lat="46.01370097071997" lon="12.191769447704193"><ele>1112.142857142857</ele><time>2026-03-23T09:30:41Z</time></trkpt><trkpt lat="46.01376434152347" lon="12.191754756411118"><ele>1116.5714285714287</ele><time>2026-03-23T09:30:42Z</time></trkpt><trkpt lat="46.01383779237755" lon="12.191725362409768"><ele>1121.0</ele><time>2026-03-23T09:30:43Z</time></trkpt><trkpt lat="46.01397462373494" lon="12.191748495219668"><ele>1121.0</ele><time>2026-03-23T09:30:45Z</time></trkpt><trkpt lat="46.01406256105396" lon="12.19176894590752"><ele>1121.0</ele><time>2026-03-23T09:30:46Z</time></trkpt><trkpt lat="46.01412549411835" lon="12.191778669502646"><ele>1121.0</ele><time>2026-03-23T09:30:47Z</time></trkpt><trkpt lat="46.014234861611456" lon="12.19176551289573"><ele>1121.0</ele><time>2026-03-23T09:30:49Z</time></trkpt><trkpt lat="46.01431935381629" lon="12.191753733802274"><ele>1121.0</ele><time>2026-03-23T09:30:51Z</time></trkpt><trkpt lat="46.01441809030453" lon="12.191771815201031"><ele>1121.0</ele><time>2026-03-23T09:31:35Z</time></trkpt><trkpt lat="46.01451258093896" lon="12.191786793461802"><ele>1116.2</ele><time>2026-03-23T09:31:37Z</time></trkpt><trkpt lat="46.014621989752435" lon="12.191844095162116"><ele>1111.3999999999999</ele><time>2026-03-23T09:31:39Z</time></trkpt><trkpt lat="46.01472645001081" lon="12.191916235131233"><ele>1106.6</ele><time>2026-03-23T09:31:41Z</time></trkpt><trkpt lat="46.014844500191685" lon="12.191965043096033"><ele>1101.8</ele><time>2026-03-23T09:31:43Z</time></trkpt><trkpt lat="46.014921575794766" lon="12.191976135616793"><ele>1097.0</ele><time>2026-03-23T09:31:44Z</time></trkpt><trkpt lat="46.01498444503731" lon="12.191987891281105"><ele>1095.4</ele><time>2026-03-23T09:31:45Z</time></trkpt><trkpt lat="46.01507625364656" lon="12.192033442820692"><ele>1093.8000000000002</ele><time>2026-03-23T09:31:47Z</time></trkpt><trkpt lat="46.01519198609477" lon="12.192020012391753"><ele>1092.2</ele><time>2026-03-23T09:31:49Z</time></trkpt><trkpt lat="46.01525790420703" lon="12.191999871844972"><ele>1090.6000000000001</ele><time>2026-03-23T09:31:50Z</time></trkpt><trkpt lat="46.01531643880703" lon="12.191963649143869"><ele>1089.0</ele><time>2026-03-23T09:31:51Z</time></trkpt><trkpt lat="46.01542581954319" lon="12.19190265039906"><ele>1089.0</ele><time>2026-03-23T09:31:53Z</time></trkpt><trkpt lat="46.015492582361944" lon="12.191883082759835"><ele>1089.0</ele><time>2026-03-23T09:31:54Z</time></trkpt><trkpt lat="46.015604367363096" lon="12.19185405382149"><ele>1089.0</ele><time>2026-03-23T09:31:56Z</time></trkpt><trkpt lat="46.0155336953115" lon="12.191867470151506"><ele>1089.0</ele><time>2026-03-23T09:32:08Z</time></trkpt><trkpt lat="46.015463678470894" lon="12.19193167885106"><ele>1089.0</ele><time>2026-03-23T09:32:10Z</time></trkpt><trkpt lat="46.01534284353092" lon="12.191956203428576"><ele>1089.0</ele><time>2026-03-23T09:32:12Z</time></trkpt><trkpt lat="46.01526084606861" lon="12.19199167636183"><ele>1089.0</ele><time>2026-03-23T09:32:13Z</time></trkpt><trkpt lat="46.01518312307202" lon="12.192036680662769"><ele>1089.0</ele><time>2026-03-23T09:32:14Z</time></trkpt><trkpt lat="46.01509787726045" lon="12.192052545897056"><ele>1089.0</ele><time>2026-03-23T09:32:16Z</time></trkpt><trkpt lat="46.01501658566884" lon="12.192039354506957"><ele>1089.0</ele><time>2026-03-23T09:32:18Z</time></trkpt><trkpt lat="46.01490250654874" lon="12.191974902388381"><ele>1090.1428571428573</ele><time>2026-03-23T09:32:20Z</time></trkpt><trkpt lat="46.014833477525634" lon="12.191955445291438"><ele>1091.2857142857142</ele><time>2026-03-23T09:32:21Z</time></trkpt><trkpt lat="46.01475627547443" lon="12.191943435006351"><ele>1092.4285714285716</ele><time>2026-03-23T09:32:22Z</time></trkpt><trkpt lat="46.014692294803986" lon="12.191908891915446"><ele>1093.5714285714287</ele><time>2026-03-23T09:32:23Z</time></trkpt><trkpt lat="46.01464703675038" lon="12.19183506650215"><ele>1094.7142857142858</ele><time>2026-03-23T09:32:24Z</time></trkpt><trkpt lat="46.014579535422705" lon="12.191796146377763"><ele>1095.857142857143</ele><time>2026-03-23T09:32:25Z</time></trkpt><trkpt lat="46.01451098857807" lon="12.191765894422355"><ele>1097.0</ele><time>2026-03-23T09:32:26Z</time></trkpt><trkpt lat="46.014445427130404" lon="12.19175908959473"><ele>1097.0</ele><time>2026-03-23T09:32:27Z</time></trkpt><trkpt lat="46.01437927983629" lon="12.191768230955448"><ele>1097.0</ele><time>2026-03-23T09:32:29Z</time></trkpt><trkpt lat="46.01431263338002" lon="12.191792784336503"><ele>1097.0</ele><time>2026-03-23T09:33:29Z</time></trkpt><trkpt lat="46.01421657341472" lon="12.191801345856787"><ele>1097.0</ele><time>2026-03-23T09:33:31Z</time></trkpt><trkpt lat="46.0141493637693" lon="12.191799084018504"><ele>1097.0</ele><time>2026-03-23T09:33:32Z</time></trkpt><trkpt lat="46.01408528078561" lon="12.191787456874382"><ele>1097.0</ele><time>2026-03-23T09:33:33Z</time></trkpt><trkpt lat="46.01402056326569" lon="12.19177704873719"><ele>1097.0</ele><time>2026-03-23T09:33:34Z</time></trkpt><trkpt lat="46.01391946924179" lon="12.191763742681653"><ele>1101.8</ele><time>2026-03-23T09:33:36Z</time></trkpt><trkpt lat="46.01380237829524" lon="12.191747279366925"><ele>1106.6</ele><time>2026-03-23T09:33:38Z</time></trkpt><trkpt lat="46.013741833515326" lon="12.191796042377668"><ele>1111.3999999999999</ele><time>2026-03-23T09:33:39Z</time></trkpt><trkpt lat="46.01365416884014" lon="12.191846006098572"><ele>1116.2</ele><time>2026-03-23T09:33:40Z</time></trkpt><trkpt lat="46.01358798569816" lon="12.191868623894774"><ele>1121.0</ele><time>2026-03-23T09:33:41Z</time></trkpt><trkpt lat="46.01349201588114" lon="12.191979238885052"><ele>1121.0</ele><time>2026-03-23T09:33:43Z</time></trkpt><trkpt lat="46.013451947633946" lon="12.192061521182552"><ele>1121.0</ele><time>2026-03-23T09:33:44Z</time></trkpt><trkpt lat="46.01339832312261" lon="12.192181877994809"><ele>1121.0</ele><time>2026-03-23T09:33:45Z</time></trkpt><trkpt lat="46.01334972124424" lon="12.192297572428105"><ele>1121.0</ele><time>2026-03-23T09:33:46Z</time></trkpt><trkpt lat="46.013316755125466" lon="12.192375774791216"><ele>1121.0</ele><time>2026-03-23T09:33:47Z</time></trkpt><trkpt lat="46.01328369086279" lon="12.192510008711212"><ele>1121.0</ele><time>2026-03-23T09:33:49Z</time></trkpt><trkpt lat="46.01326348723846" lon="12.192601587480418"><ele>1114.8</ele><time>2026-03-23T09:33:50Z</time></trkpt><trkpt lat="46.01322883831802" lon="12.1927298615955"><ele>1108.6</ele><time>2026-03-23T09:33:51Z</time></trkpt><trkpt lat="46.013177042787824" lon="12.192877214614386"><ele>1102.4</ele><time>2026-03-23T09:33:53Z</time></trkpt><trkpt lat="46.01309388839791" lon="12.192942755242388"><ele>1096.2</ele><time>2026-03-23T09:33:55Z</time></trkpt><trkpt lat="46.01300324373031" lon="12.192908718750742"><ele>1090.0</ele><time>2026-03-23T09:33:57Z</time></trkpt><trkpt lat="46.012932560346606" lon="12.192869245446383"><ele>1090.0</ele><time>2026-03-23T09:33:58Z</time></trkpt><trkpt lat="46.012861917733176" lon="12.19283053201637"><ele>1090.0</ele><time>2026-03-23T09:33:59Z</time></trkpt><trkpt lat="46.01279270447547" lon="12.192789615913139"><ele>1090.0</ele><time>2026-03-23T09:34:00Z</time></trkpt><trkpt lat="46.01273449227532" lon="12.192752122866688"><ele>1090.0</ele><time>2026-03-23T09:34:01Z</time></trkpt><trkpt lat="46.01268119747129" lon="12.192697298290751"><ele>1090.0</ele><time>2026-03-23T09:34:02Z</time></trkpt><trkpt lat="46.01262963897955" lon="12.192634984018326"><ele>1090.0</ele><time>2026-03-23T09:34:03Z</time></trkpt><trkpt lat="46.01257388735613" lon="12.192570409958165"><ele>1090.0</ele><time>2026-03-23T09:34:04Z</time></trkpt><trkpt lat="46.012518424064965" lon="12.192505366760797"><ele>1087.0</ele><time>2026-03-23T09:34:05Z</time></trkpt><trkpt lat="46.01246360979253" lon="12.192434272226492"><ele>1084.0</ele><time>2026-03-23T09:34:06Z</time></trkpt><trkpt lat="46.012422720328814" lon="12.192360241668041"><ele>1081.0</ele><time>2026-03-23T09:34:07Z</time></trkpt><trkpt lat="46.01238000805694" lon="12.192273334006261"><ele>1078.0</ele><time>2026-03-23T09:34:08Z</time></trkpt><trkpt lat="46.01230829477612" lon="12.192149463278815"><ele>1075.0</ele><time>2026-03-23T09:34:10Z</time></trkpt><trkpt lat="46.012277028513246" lon="12.19206993107416"><ele>1072.0</ele><time>2026-03-23T09:34:12Z</time></trkpt><trkpt lat="46.01222616542758" lon="12.192004560942344"><ele>1078.5</ele><time>2026-03-23T09:34:15Z</time></trkpt><trkpt lat="46.01217179150106" lon="12.191943983238513"><ele>1085.0</ele><time>2026-03-23T09:34:35Z</time></trkpt><trkpt lat="46.012110681841506" lon="12.1918573653695"><ele>1091.5</ele><time>2026-03-23T09:34:37Z</time></trkpt><trkpt lat="46.012054740936726" lon="12.19179402997451"><ele>1098.0</ele><time>2026-03-23T09:34:38Z</time></trkpt><trkpt lat="46.01200577229915" lon="12.19170751186844"><ele>1104.5</ele><time>2026-03-23T09:34:39Z</time></trkpt><trkpt lat="46.011944063849555" lon="12.19162976008016"><ele>1111.0</ele><time>2026-03-23T09:34:40Z</time></trkpt><trkpt lat="46.01181503989337" lon="12.191586734784385"><ele>1111.0</ele><time>2026-03-23T09:34:42Z</time></trkpt><trkpt lat="46.011725294254084" lon="12.191579485148607"><ele>1111.0</ele><time>2026-03-23T09:34:43Z</time></trkpt><trkpt lat="46.01162325123845" lon="12.191593389060198"><ele>1111.0</ele><time>2026-03-23T09:34:44Z</time></trkpt><trkpt lat="46.01153626758606" lon="12.191596038227493"><ele>1111.0</ele><time>2026-03-23T09:34:45Z</time></trkpt><trkpt lat="46.011461780448" lon="12.191586733935031"><ele>1111.0</ele><time>2026-03-23T09:34:46Z</time></trkpt><trkpt lat="46.01136417757148" lon="12.191548626473212"><ele>1113.8</ele><time>2026-03-23T09:34:47Z</time></trkpt><trkpt lat="46.01125148285506" lon="12.19152757177044"><ele>1116.6</ele><time>2026-03-23T09:34:48Z</time></trkpt><trkpt lat="46.01114297594996" lon="12.191533154255843"><ele>1119.4</ele><time>2026-03-23T09:34:49Z</time></trkpt><trkpt lat="46.01104099761758" lon="12.19153994304542"><ele>1122.2</ele><time>2026-03-23T09:34:50Z</time></trkpt><trkpt lat="46.01094809333701" lon="12.191549780022259"><ele>1125.0</ele><time>2026-03-23T09:34:51Z</time></trkpt><trkpt lat="46.010875239822674" lon="12.191569387360785"><ele>1130.6666666666667</ele><time>2026-03-23T09:34:52Z</time></trkpt><trkpt lat="46.01080394385844" lon="12.191614745072739"><ele>1136.3333333333333</ele><time>2026-03-23T09:34:53Z</time></trkpt><trkpt lat="46.01073627695049" lon="12.191687868651933"><ele>1142.0</ele><time>2026-03-23T09:34:54Z</time></trkpt><trkpt lat="46.01066790988452" lon="12.191790070171246"><ele>1147.6666666666665</ele><time>2026-03-23T09:34:55Z</time></trkpt><trkpt lat="46.010619109351765" lon="12.191857318811577"><ele>1153.3333333333333</ele><time>2026-03-23T09:34:56Z</time></trkpt><trkpt lat="46.01053881711264" lon="12.191909038464907"><ele>1159.0</ele><time>2026-03-23T09:34:57Z</time></trkpt><trkpt lat="46.01045845304996" lon="12.191935104597388"><ele>1159.0</ele><time>2026-03-23T09:34:58Z</time></trkpt><trkpt lat="46.01036877652617" lon="12.191965915484275"><ele>1159.0</ele><time>2026-03-23T09:34:59Z</time></trkpt><trkpt lat="46.01027228813951" lon="12.192016982526626"><ele>1159.0</ele><time>2026-03-23T09:35:00Z</time></trkpt><trkpt lat="46.01019851482442" lon="12.19204148683707"><ele>1159.0</ele><time>2026-03-23T09:35:01Z</time></trkpt><trkpt lat="46.01014055799384" lon="12.192081609260445"><ele>1159.0</ele><time>2026-03-23T09:35:02Z</time></trkpt><trkpt lat="46.0100996297163" lon="12.192155116319347"><ele>1159.0</ele><time>2026-03-23T09:35:03Z</time></trkpt><trkpt lat="46.01006468774352" lon="12.192258531106289"><ele>1154.8333333333333</ele><time>2026-03-23T09:35:04Z</time></trkpt><trkpt lat="46.01003636213474" lon="12.192367441798522"><ele>1150.6666666666665</ele><time>2026-03-23T09:35:05Z</time></trkpt><trkpt lat="46.00996012649376" lon="12.192456977594993"><ele>1146.5</ele><time>2026-03-23T09:35:07Z</time></trkpt><trkpt lat="46.009851903441444" lon="12.192474624258319"><ele>1142.3333333333333</ele><time>2026-03-23T09:35:09Z</time></trkpt><trkpt lat="46.00978800116476" lon="12.192462823229945"><ele>1138.1666666666667</ele><time>2026-03-23T09:35:10Z</time></trkpt><trkpt lat="46.009712480207305" lon="12.192433921297699"><ele>1134.0</ele><time>2026-03-23T09:35:11Z</time></trkpt><trkpt lat="46.00960355396636" lon="12.192388666547593"><ele>1134.0</ele><time>2026-03-23T09:35:12Z</time></trkpt><trkpt lat="46.00950567158439" lon="12.192342966458257"><ele>1134.0</ele><time>2026-03-23T09:35:13Z</time></trkpt><trkpt lat="46.00940266054841" lon="12.192303126574647"><ele>1134.0</ele><time>2026-03-23T09:35:14Z</time></trkpt><trkpt lat="46.009308408416906" lon="12.192262750021879"><ele>1134.0</ele><time>2026-03-23T09:35:15Z</time></trkpt><trkpt lat="46.00919561403786" lon="12.192245316945616"><ele>1134.0</ele><time>2026-03-23T09:35:16Z</time></trkpt><trkpt lat="46.009092871726075" lon="12.192234902014498"><ele>1133.5</ele><time>2026-03-23T09:35:17Z</time></trkpt><trkpt lat="46.00901470990948" lon="12.192217367611356"><ele>1133.0</ele><time>2026-03-23T09:35:18Z</time></trkpt><trkpt lat="46.0089450135558" lon="12.192205966748544"><ele>1132.5</ele><time>2026-03-23T09:35:19Z</time></trkpt><trkpt lat="46.00888214636396" lon="12.192224549111502"><ele>1132.0</ele><time>2026-03-23T09:35:20Z</time></trkpt><trkpt lat="46.00881390972655" lon="12.192286020017418"><ele>1131.5</ele><time>2026-03-23T09:35:21Z</time></trkpt><trkpt lat="46.00874299470694" lon="12.192348480853656"><ele>1131.0</ele><time>2026-03-23T09:35:22Z</time></trkpt><trkpt lat="46.008663571576285" lon="12.192363296431866"><ele>1131.0</ele><time>2026-03-23T09:35:23Z</time></trkpt><trkpt lat="46.008588601640625" lon="12.192358445422112"><ele>1131.0</ele><time>2026-03-23T09:35:24Z</time></trkpt><trkpt lat="46.00851875951442" lon="12.192314962024378"><ele>1131.0</ele><time>2026-03-23T09:35:25Z</time></trkpt><trkpt lat="46.00843311829806" lon="12.192287863463063"><ele>1131.0</ele><time>2026-03-23T09:35:26Z</time></trkpt><trkpt lat="46.008339958937746" lon="12.192299958125425"><ele>1131.0</ele><time>2026-03-23T09:35:27Z</time></trkpt><trkpt lat="46.00824387801882" lon="12.192321494131354"><ele>1131.0</ele><time>2026-03-23T09:35:28Z</time></trkpt><trkpt lat="46.008176414348775" lon="12.19232165099189"><ele>1140.1666666666667</ele><time>2026-03-23T09:35:29Z</time></trkpt><trkpt lat="46.00811220779984" lon="12.192301148494478"><ele>1149.3333333333333</ele><time>2026-03-23T09:35:30Z</time></trkpt><trkpt lat="46.008041405457355" lon="12.192269467744994"><ele>1158.5</ele><time>2026-03-23T09:35:31Z</time></trkpt><trkpt lat="46.007979106719716" lon="12.192216746060717"><ele>1167.6666666666665</ele><time>2026-03-23T09:35:32Z</time></trkpt><trkpt lat="46.00790839560617" lon="12.192162046552156"><ele>1176.8333333333333</ele><time>2026-03-23T09:35:33Z</time></trkpt><trkpt lat="46.00781924016102" lon="12.192165432364483"><ele>1186.0</ele><time>2026-03-23T09:35:34Z</time></trkpt><trkpt lat="46.00773005477073" lon="12.192160644341001"><ele>1186.0</ele><time>2026-03-23T09:35:35Z</time></trkpt><trkpt lat="46.007626541975746" lon="12.19217737804208"><ele>1186.0</ele><time>2026-03-23T09:35:36Z</time></trkpt><trkpt lat="46.0075218169551" lon="12.19217031066368"><ele>1186.0</ele><time>2026-03-23T09:35:37Z</time></trkpt><trkpt lat="46.007421300598985" lon="12.192166716372393"><ele>1186.0</ele><time>2026-03-23T09:35:38Z</time></trkpt><trkpt lat="46.007321675721194" lon="12.192203883464323"><ele>1186.0</ele><time>2026-03-23T09:35:39Z</time></trkpt><trkpt lat="46.00722641749124" lon="12.192227879747383"><ele>1184.6</ele><time>2026-03-23T09:35:40Z</time></trkpt><trkpt lat="46.00713042022925" lon="12.192268009096592"><ele>1183.1999999999998</ele><time>2026-03-23T09:35:41Z</time></trkpt><trkpt lat="46.00704110770538" lon="12.192300096047992"><ele>1181.8000000000002</ele><time>2026-03-23T09:35:42Z</time></trkpt><trkpt lat="46.006973174513455" lon="12.192335957157079"><ele>1180.4</ele><time>2026-03-23T09:35:43Z</time></trkpt><trkpt lat="46.00688174755108" lon="12.192460534429971"><ele>1179.0</ele><time>2026-03-23T09:35:45Z</time></trkpt><trkpt lat="46.00684774164929" lon="12.192595360404503"><ele>1179.0</ele><time>2026-03-23T09:35:46Z</time></trkpt><trkpt lat="46.006827866688205" lon="12.192728118152223"><ele>1179.0</ele><time>2026-03-23T09:35:47Z</time></trkpt><trkpt lat="46.00679440030781" lon="12.19285143524442"><ele>1179.0</ele><time>2026-03-23T09:35:48Z</time></trkpt><trkpt lat="46.00671760283237" lon="12.1930202208444"><ele>1179.0</ele><time>2026-03-23T09:35:50Z</time></trkpt><trkpt lat="46.006678514864475" lon="12.193108774101916"><ele>1179.0</ele><time>2026-03-23T09:35:51Z</time></trkpt><trkpt lat="46.006635888456195" lon="12.193210865542909"><ele>1178.0</ele><time>2026-03-23T09:35:52Z</time></trkpt><trkpt lat="46.006605414177514" lon="12.193295074069628"><ele>1177.0</ele><time>2026-03-23T09:35:53Z</time></trkpt><trkpt lat="46.006561819379705" lon="12.193366600872432"><ele>1176.0</ele><time>2026-03-23T09:35:54Z</time></trkpt><trkpt lat="46.00646081044111" lon="12.193465266273856"><ele>1175.0</ele><time>2026-03-23T09:35:56Z</time></trkpt><trkpt lat="46.00635199657929" lon="12.19351767476484"><ele>1174.0</ele><time>2026-03-23T09:35:58Z</time></trkpt><trkpt lat="46.00622734362319" lon="12.19355269130061"><ele>1174.0</ele><time>2026-03-23T09:36:00Z</time></trkpt><trkpt lat="46.00614795586313" lon="12.193544240639515"><ele>1174.0</ele><time>2026-03-23T09:36:01Z</time></trkpt><trkpt lat="46.00604204743202" lon="12.19353179565648"><ele>1174.0</ele><time>2026-03-23T09:36:02Z</time></trkpt><trkpt lat="46.00593487650175" lon="12.193520122471305"><ele>1174.0</ele><time>2026-03-23T09:36:03Z</time></trkpt><trkpt lat="46.00583941023142" lon="12.193526790733312"><ele>1174.0</ele><time>2026-03-23T09:36:04Z</time></trkpt><trkpt lat="46.00575675712442" lon="12.193523275397897"><ele>1177.8333333333333</ele><time>2026-03-23T09:36:05Z</time></trkpt><trkpt lat="46.005682654033954" lon="12.193528785247853"><ele>1181.6666666666665</ele><time>2026-03-23T09:36:06Z</time></trkpt><trkpt lat="46.005600229811066" lon="12.193546152527261"><ele>1185.5</ele><time>2026-03-23T09:36:07Z</time></trkpt><trkpt lat="46.005498021574944" lon="12.193642135256601"><ele>1189.3333333333333</ele><time>2026-03-23T09:36:09Z</time></trkpt><trkpt lat="46.0054679061066" lon="12.19374689923098"><ele>1193.1666666666667</ele><time>2026-03-23T09:36:10Z</time></trkpt><trkpt lat="46.00545287739845" lon="12.193850097581986"><ele>1197.0</ele><time>2026-03-23T09:36:11Z</time></trkpt><trkpt lat="46.00545486439734" lon="12.193976809032984"><ele>1191.3333333333333</ele><time>2026-03-23T09:36:12Z</time></trkpt><trkpt lat="46.00544592658251" lon="12.194089993869229"><ele>1185.6666666666667</ele><time>2026-03-23T09:36:13Z</time></trkpt><trkpt lat="46.0054139473444" lon="12.194176981972664"><ele>1180.0</ele><time>2026-03-23T09:36:14Z</time></trkpt><trkpt lat="46.005368389598694" lon="12.194241296648297"><ele>1174.3333333333335</ele><time>2026-03-23T09:36:15Z</time></trkpt><trkpt lat="46.00524857363655" lon="12.19432129256388"><ele>1168.6666666666667</ele><time>2026-03-23T09:36:17Z</time></trkpt><trkpt lat="46.0051578570505" lon="12.194344818759578"><ele>1163.0</ele><time>2026-03-23T09:36:18Z</time></trkpt><trkpt lat="46.005048175960944" lon="12.194369718767273"><ele>1164.8</ele><time>2026-03-23T09:36:19Z</time></trkpt><trkpt lat="46.00492528668574" lon="12.194403779060705"><ele>1166.6</ele><time>2026-03-23T09:36:20Z</time></trkpt><trkpt lat="46.00482731735919" lon="12.194432847482474"><ele>1168.4</ele><time>2026-03-23T09:36:21Z</time></trkpt><trkpt lat="46.00474043374672" lon="12.194448335474972"><ele>1170.2</ele><time>2026-03-23T09:36:22Z</time></trkpt><trkpt lat="46.00466009136233" lon="12.194452216754172"><ele>1172.0</ele><time>2026-03-23T09:36:23Z</time></trkpt><trkpt lat="46.00459160646191" lon="12.194434534438562"><ele>1172.0</ele><time>2026-03-23T09:36:24Z</time></trkpt><trkpt lat="46.00449591781041" lon="12.194402049356462"><ele>1172.0</ele><time>2026-03-23T09:36:25Z</time></trkpt><trkpt lat="46.00438158283461" lon="12.194347853760048"><ele>1172.0</ele><time>2026-03-23T09:36:26Z</time></trkpt><trkpt lat="46.00427057230905" lon="12.194311890696303"><ele>1172.0</ele><time>2026-03-23T09:36:27Z</time></trkpt><trkpt lat="46.00416271471883" lon="12.194301248880477"><ele>1172.0</ele><time>2026-03-23T09:36:28Z</time></trkpt><trkpt lat="46.004070242624444" lon="12.194329279513857"><ele>1170.8</ele><time>2026-03-23T09:36:29Z</time></trkpt><trkpt lat="46.004002789685764" lon="12.194371443999426"><ele>1169.6</ele><time>2026-03-23T09:36:30Z</time></trkpt><trkpt lat="46.00391722799917" lon="12.194440318511946"><ele>1168.3999999999999</ele><time>2026-03-23T09:36:32Z</time></trkpt><trkpt lat="46.003854599974595" lon="12.194514623708532"><ele>1167.2</ele><time>2026-03-23T09:36:33Z</time></trkpt><trkpt lat="46.00378266300033" lon="12.194646190340086"><ele>1166.0</ele><time>2026-03-23T09:36:34Z</time></trkpt><trkpt lat="46.00370085213454" lon="12.194814939795679"><ele>1163.0</ele><time>2026-03-23T09:36:35Z</time></trkpt><trkpt lat="46.00362861388631" lon="12.19496024979"><ele>1160.0</ele><time>2026-03-23T09:36:36Z</time></trkpt><trkpt lat="46.003565125735584" lon="12.195084168658754"><ele>1157.0</ele><time>2026-03-23T09:36:37Z</time></trkpt><trkpt lat="46.003508731178805" lon="12.195202045170575"><ele>1154.0</ele><time>2026-03-23T09:36:38Z</time></trkpt><trkpt lat="46.003456027018665" lon="12.195307471661629"><ele>1151.0</ele><time>2026-03-23T09:36:39Z</time></trkpt><trkpt lat="46.00339292723709" lon="12.195404761098883"><ele>1146.0</ele><time>2026-03-23T09:36:40Z</time></trkpt><trkpt lat="46.00331586421382" lon="12.195501404127986"><ele>1141.0</ele><time>2026-03-23T09:36:41Z</time></trkpt><trkpt lat="46.00322903454725" lon="12.195595552031065"><ele>1136.0</ele><time>2026-03-23T09:36:42Z</time></trkpt><trkpt lat="46.003169729688885" lon="12.195677596803218"><ele>1131.0</ele><time>2026-03-23T09:36:43Z</time></trkpt><trkpt lat="46.003131954821264" lon="12.195757108278261"><ele>1126.0</ele><time>2026-03-23T09:36:44Z</time></trkpt><trkpt lat="46.00310571925164" lon="12.195848747106078"><ele>1121.0</ele><time>2026-03-23T09:36:45Z</time></trkpt><trkpt lat="46.003088772493236" lon="12.195948949956243"><ele>1121.0</ele><time>2026-03-23T09:36:46Z</time></trkpt><trkpt lat="46.003085726354406" lon="12.196055244752804"><ele>1121.0</ele><time>2026-03-23T09:36:47Z</time></trkpt><trkpt lat="46.00308402175614" lon="12.196171204373492"><ele>1121.0</ele><time>2026-03-23T09:36:48Z</time></trkpt><trkpt lat="46.00308931066836" lon="12.19629310068888"><ele>1121.0</ele><time>2026-03-23T09:36:49Z</time></trkpt><trkpt lat="46.00309788637517" lon="12.196403707034277"><ele>1121.0</ele><time>2026-03-23T09:36:50Z</time></trkpt><trkpt lat="46.00311654316843" lon="12.196510916331647"><ele>1121.0</ele><time>2026-03-23T09:36:51Z</time></trkpt><trkpt lat="46.003154733257134" lon="12.19666018513598"><ele>1122.8</ele><time>2026-03-23T09:36:52Z</time></trkpt><trkpt lat="46.00319253291822" lon="12.196798542401897"><ele>1124.6</ele><time>2026-03-23T09:36:53Z</time></trkpt><trkpt lat="46.003234589001515" lon="12.196901690002786"><ele>1126.4</ele><time>2026-03-23T09:36:54Z</time></trkpt><trkpt lat="46.00327739662557" lon="12.197001697451533"><ele>1128.2</ele><time>2026-03-23T09:36:55Z</time></trkpt><trkpt lat="46.00333886695509" lon="12.19708654769308"><ele>1130.0</ele><time>2026-03-23T09:36:56Z</time></trkpt><trkpt lat="46.003423524830424" lon="12.197208634775867"><ele>1132.8</ele><time>2026-03-23T09:36:57Z</time></trkpt><trkpt lat="46.003510717799834" lon="12.197348564396524"><ele>1135.6</ele><time>2026-03-23T09:36:58Z</time></trkpt><trkpt lat="46.0035710419856" lon="12.197447140871812"><ele>1138.4</ele><time>2026-03-23T09:36:59Z</time></trkpt><trkpt lat="46.003621792608214" lon="12.197546191125662"><ele>1141.2</ele><time>2026-03-23T09:37:00Z</time></trkpt><trkpt lat="46.00368312271646" lon="12.197649269430954"><ele>1144.0</ele><time>2026-03-23T09:37:01Z</time></trkpt><trkpt lat="46.003734414101444" lon="12.197755929209533"><ele>1144.0</ele><time>2026-03-23T09:37:02Z</time></trkpt><trkpt lat="46.0037681916199" lon="12.197848133317247"><ele>1144.0</ele><time>2026-03-23T09:37:03Z</time></trkpt><trkpt lat="46.003784357557876" lon="12.197947808329946"><ele>1144.0</ele><time>2026-03-23T09:37:04Z</time></trkpt><trkpt lat="46.00379354129888" lon="12.198045468978474"><ele>1144.0</ele><time>2026-03-23T09:37:05Z</time></trkpt><trkpt lat="46.00378828160926" lon="12.198169243508238"><ele>1144.0</ele><time>2026-03-23T09:37:06Z</time></trkpt><trkpt lat="46.00377111356291" lon="12.198283308084864"><ele>1144.0</ele><time>2026-03-23T09:37:07Z</time></trkpt><trkpt lat="46.00374157817272" lon="12.198430919679215"><ele>1146.5</ele><time>2026-03-23T09:37:08Z</time></trkpt><trkpt lat="46.00370818258954" lon="12.198613280389946"><ele>1149.0</ele><time>2026-03-23T09:37:09Z</time></trkpt><trkpt lat="46.00367540654203" lon="12.19881747328252"><ele>1151.5</ele><time>2026-03-23T09:37:10Z</time></trkpt><trkpt lat="46.00365385504964" lon="12.198995162504279"><ele>1154.0</ele><time>2026-03-23T09:37:11Z</time></trkpt><trkpt lat="46.00365883995898" lon="12.199168355146613"><ele>1154.2</ele><time>2026-03-23T09:37:12Z</time></trkpt><trkpt lat="46.003662551507425" lon="12.199331914297941"><ele>1154.4</ele><time>2026-03-23T09:37:13Z</time></trkpt><trkpt lat="46.00366856376388" lon="12.199479821650856"><ele>1154.6</ele><time>2026-03-23T09:37:14Z</time></trkpt><trkpt lat="46.00368780168529" lon="12.199582356913183"><ele>1154.8</ele><time>2026-03-23T09:37:15Z</time></trkpt><trkpt lat="46.00372680263179" lon="12.199712327106775"><ele>1155.0</ele><time>2026-03-23T09:37:16Z</time></trkpt><trkpt lat="46.00375030757305" lon="12.199846243586233"><ele>1154.4</ele><time>2026-03-23T09:37:18Z</time></trkpt><trkpt lat="46.003697852007726" lon="12.199983077263152"><ele>1153.8</ele><time>2026-03-23T09:37:20Z</time></trkpt><trkpt lat="46.00363628358703" lon="12.200067392025877"><ele>1153.2</ele><time>2026-03-23T09:37:21Z</time></trkpt><trkpt lat="46.00356146995971" lon="12.200171510153803"><ele>1152.6</ele><time>2026-03-23T09:37:22Z</time></trkpt><trkpt lat="46.00346349578561" lon="12.200313006617868"><ele>1152.0</ele><time>2026-03-23T09:37:23Z</time></trkpt><trkpt lat="46.00337349730808" lon="12.200468426320668"><ele>1150.5</ele><time>2026-03-23T09:37:24Z</time></trkpt><trkpt lat="46.00328803094217" lon="12.200625237580153"><ele>1149.0</ele><time>2026-03-23T09:37:25Z</time></trkpt><trkpt lat="46.00322129720836" lon="12.200759690986613"><ele>1147.5</ele><time>2026-03-23T09:37:26Z</time></trkpt><trkpt lat="46.00315189927041" lon="12.200894838595623"><ele>1146.0</ele><time>2026-03-23T09:37:27Z</time></trkpt><trkpt lat="46.00308427819685" lon="12.201043010056901"><ele>1145.2</ele><time>2026-03-23T09:37:28Z</time></trkpt><trkpt lat="46.00302322823401" lon="12.201205348462201"><ele>1144.3999999999999</ele><time>2026-03-23T09:37:29Z</time></trkpt><trkpt lat="46.002961536864426" lon="12.201344041798697"><ele>1143.6</ele><time>2026-03-23T09:37:30Z</time></trkpt><trkpt lat="46.00291204615135" lon="12.201474952881888"><ele>1142.8</ele><time>2026-03-23T09:37:31Z</time></trkpt><trkpt lat="46.002872003311055" lon="12.201583329071966"><ele>1142.0</ele><time>2026-03-23T09:37:32Z</time></trkpt><trkpt lat="46.00283015709463" lon="12.201684059544517"><ele>1139.2</ele><time>2026-03-23T09:37:33Z</time></trkpt><trkpt lat="46.00277325461367" lon="12.20178886079833"><ele>1136.4</ele><time>2026-03-23T09:37:34Z</time></trkpt><trkpt lat="46.00271048326505" lon="12.201886420309558"><ele>1133.6</ele><time>2026-03-23T09:37:35Z</time></trkpt><trkpt lat="46.00265303819744" lon="12.20197865462694"><ele>1130.8</ele><time>2026-03-23T09:37:36Z</time></trkpt><trkpt lat="46.00260528709967" lon="12.20209791956508"><ele>1128.0</ele><time>2026-03-23T09:37:37Z</time></trkpt><trkpt lat="46.00258178952151" lon="12.20224172627484"><ele>1125.2</ele><time>2026-03-23T09:37:38Z</time></trkpt><trkpt lat="46.00255833261164" lon="12.202378445324927"><ele>1122.4</ele><time>2026-03-23T09:37:39Z</time></trkpt><trkpt lat="46.002540469120426" lon="12.20251648605859"><ele>1119.6000000000001</ele><time>2026-03-23T09:37:40Z</time></trkpt><trkpt lat="46.00253435977223" lon="12.202662595206093"><ele>1116.8</ele><time>2026-03-23T09:37:41Z</time></trkpt><trkpt lat="46.00252582265557" lon="12.202796382330975"><ele>1114.0</ele><time>2026-03-23T09:37:42Z</time></trkpt><trkpt lat="46.00253124474671" lon="12.202910685435928"><ele>1114.0</ele><time>2026-03-23T09:37:43Z</time></trkpt><trkpt lat="46.00254066910416" lon="12.203013308448924"><ele>1114.0</ele><time>2026-03-23T09:37:44Z</time></trkpt><trkpt lat="46.00255972196918" lon="12.203117557974306"><ele>1114.0</ele><time>2026-03-23T09:37:45Z</time></trkpt><trkpt lat="46.002588122980825" lon="12.203237337688043"><ele>1114.0</ele><time>2026-03-23T09:37:46Z</time></trkpt><trkpt lat="46.00261237033775" lon="12.203354809018556"><ele>1114.0</ele><time>2026-03-23T09:37:47Z</time></trkpt><trkpt lat="46.0026354148745" lon="12.20345636070255"><ele>1114.0</ele><time>2026-03-23T09:37:48Z</time></trkpt><trkpt lat="46.002664376729875" lon="12.203562381899843"><ele>1111.6000000000001</ele><time>2026-03-23T09:37:49Z</time></trkpt><trkpt lat="46.002673375239254" lon="12.203654096959468"><ele>1109.2</ele><time>2026-03-23T09:37:50Z</time></trkpt><trkpt lat="46.00267449401657" lon="12.203755767150488"><ele>1106.8000000000002</ele><time>2026-03-23T09:37:51Z</time></trkpt><trkpt lat="46.002656647001544" lon="12.203875624128282"><ele>1104.4</ele><time>2026-03-23T09:37:52Z</time></trkpt><trkpt lat="46.00262772890624" lon="12.204048184894443"><ele>1102.0</ele><time>2026-03-23T09:37:53Z</time></trkpt><trkpt lat="46.00260184836144" lon="12.204236404369226"><ele>1101.5</ele><time>2026-03-23T09:37:54Z</time></trkpt><trkpt lat="46.00259629287027" lon="12.204432611156395"><ele>1101.0</ele><time>2026-03-23T09:37:55Z</time></trkpt><trkpt lat="46.00258912016739" lon="12.204648560816386"><ele>1100.5</ele><time>2026-03-23T09:37:56Z</time></trkpt><trkpt lat="46.00257473537349" lon="12.204855005708827"><ele>1100.0</ele><time>2026-03-23T09:37:57Z</time></trkpt><trkpt lat="46.002555329336225" lon="12.205031401299854"><ele>1100.0</ele><time>2026-03-23T09:37:58Z</time></trkpt><trkpt lat="46.002542944975595" lon="12.205183385373507"><ele>1100.0</ele><time>2026-03-23T09:37:59Z</time></trkpt><trkpt lat="46.00253318257855" lon="12.205321446042765"><ele>1100.0</ele><time>2026-03-23T09:38:00Z</time></trkpt><trkpt lat="46.00252620791311" lon="12.205433001864769"><ele>1100.0</ele><time>2026-03-23T09:38:01Z</time></trkpt><trkpt lat="46.00251751450454" lon="12.205525903728141"><ele>1100.0</ele><time>2026-03-23T09:38:02Z</time></trkpt><trkpt lat="46.0025086720371" lon="12.205719126845256"><ele>1102.0</ele><time>2026-03-23T09:38:04Z</time></trkpt><trkpt lat="46.00251200977137" lon="12.205843223153943"><ele>1104.0</ele><time>2026-03-23T09:38:05Z</time></trkpt><trkpt lat="46.00251026412221" lon="12.20597681077569"><ele>1106.0</ele><time>2026-03-23T09:38:06Z</time></trkpt><trkpt lat="46.00251053744492" lon="12.206137078098093"><ele>1108.0</ele><time>2026-03-23T09:38:07Z</time></trkpt><trkpt lat="46.00250368399096" lon="12.20630045980936"><ele>1110.0</ele><time>2026-03-23T09:38:08Z</time></trkpt><trkpt lat="46.00248972279597" lon="12.20646972636996"><ele>1110.5</ele><time>2026-03-23T09:38:09Z</time></trkpt><trkpt lat="46.00248341343026" lon="12.206620863740898"><ele>1111.0</ele><time>2026-03-23T09:38:10Z</time></trkpt><trkpt lat="46.00248206156662" lon="12.206742716906042"><ele>1111.5</ele><time>2026-03-23T09:38:11Z</time></trkpt><trkpt lat="46.00249030315883" lon="12.206851924696906"><ele>1112.0</ele><time>2026-03-23T09:38:12Z</time></trkpt><trkpt lat="46.00250220449298" lon="12.206966533326401"><ele>1112.5</ele><time>2026-03-23T09:38:13Z</time></trkpt><trkpt lat="46.00251989846051" lon="12.207105716179372"><ele>1113.0</ele><time>2026-03-23T09:38:15Z</time></trkpt><trkpt lat="46.002554220189346" lon="12.207291648290294"><ele>1113.3333333333333</ele><time>2026-03-23T09:38:17Z</time></trkpt><trkpt lat="46.00256686602716" lon="12.20739719608993"><ele>1113.6666666666667</ele><time>2026-03-23T09:38:18Z</time></trkpt><trkpt lat="46.00257389684923" lon="12.207526411095785"><ele>1114.0</ele><time>2026-03-23T09:38:19Z</time></trkpt><trkpt lat="46.00256893432871" lon="12.207648858283289"><ele>1114.3333333333335</ele><time>2026-03-23T09:38:20Z</time></trkpt><trkpt lat="46.00256442450014" lon="12.2077673816214"><ele>1114.6666666666667</ele><time>2026-03-23T09:38:21Z</time></trkpt><trkpt lat="46.00255955845693" lon="12.207859513547222"><ele>1115.0</ele><time>2026-03-23T09:38:22Z</time></trkpt><trkpt lat="46.002551592929194" lon="12.20796283089528"><ele>1115.0</ele><time>2026-03-23T09:38:23Z</time></trkpt><trkpt lat="46.00254030005765" lon="12.208156723104722"><ele>1115.0</ele><time>2026-03-23T09:38:25Z</time></trkpt><trkpt lat="46.00254060328244" lon="12.208323651127483"><ele>1115.0</ele><time>2026-03-23T09:38:27Z</time></trkpt><trkpt lat="46.00252738860126" lon="12.208447086785581"><ele>1115.0</ele><time>2026-03-23T09:38:29Z</time></trkpt><trkpt lat="46.002530773788166" lon="12.208562285619076"><ele>1115.0</ele><time>2026-03-23T09:38:31Z</time></trkpt><trkpt lat="46.002523603751406" lon="12.208653863675472"><ele>1110.0</ele><time>2026-03-23T09:38:33Z</time></trkpt><trkpt lat="46.002477368420735" lon="12.208748554895166"><ele>1105.0</ele><time>2026-03-23T09:38:36Z</time></trkpt><trkpt lat="46.00240916558431" lon="12.208736455332517"><ele>1100.0</ele><time>2026-03-23T09:38:39Z</time></trkpt><trkpt lat="46.00233191786089" lon="12.208711778187785"><ele>1095.0</ele><time>2026-03-23T09:38:42Z</time></trkpt><trkpt lat="46.002311137489144" lon="12.208812330386504"><ele>1090.0</ele><time>2026-03-23T09:38:44Z</time></trkpt><trkpt lat="46.00231980024789" lon="12.208906658930239"><ele>1085.0</ele><time>2026-03-23T09:38:45Z</time></trkpt><trkpt lat="46.00232910186705" lon="12.208999952254823"><ele>1080.0</ele><time>2026-03-23T09:38:46Z</time></trkpt><trkpt lat="46.0023153714325" lon="12.209151415935407"><ele>1080.0</ele><time>2026-03-23T09:38:48Z</time></trkpt><trkpt lat="46.00231060593418" lon="12.209295380344754"><ele>1080.0</ele><time>2026-03-23T09:38:50Z</time></trkpt><trkpt lat="46.00231060966995" lon="12.209389169349436"><ele>1080.0</ele><time>2026-03-23T09:38:51Z</time></trkpt><trkpt lat="46.002321563830115" lon="12.209483890679278"><ele>1080.0</ele><time>2026-03-23T09:38:52Z</time></trkpt><trkpt lat="46.00234999647953" lon="12.209574475050914"><ele>1080.0</ele><time>2026-03-23T09:38:53Z</time></trkpt><trkpt lat="46.0024018264194" lon="12.209663534505063"><ele>1080.0</ele><time>2026-03-23T09:38:54Z</time></trkpt><trkpt lat="46.00246306811913" lon="12.209766797652305"><ele>1084.4</ele><time>2026-03-23T09:38:55Z</time></trkpt><trkpt lat="46.002520639566775" lon="12.209887717354546"><ele>1088.8</ele><time>2026-03-23T09:38:56Z</time></trkpt><trkpt lat="46.00256592190781" lon="12.210017331673557"><ele>1093.2</ele><time>2026-03-23T09:38:57Z</time></trkpt><trkpt lat="46.00259496039118" lon="12.210145048337266"><ele>1097.6</ele><time>2026-03-23T09:38:58Z</time></trkpt><trkpt lat="46.002614564151436" lon="12.210272162771645"><ele>1102.0</ele><time>2026-03-23T09:38:59Z</time></trkpt><trkpt lat="46.0026332744551" lon="12.210391616008156"><ele>1102.0</ele><time>2026-03-23T09:39:00Z</time></trkpt><trkpt lat="46.002652439564585" lon="12.210523150607765"><ele>1102.0</ele><time>2026-03-23T09:39:01Z</time></trkpt><trkpt lat="46.00268417283188" lon="12.210657511526472"><ele>1102.0</ele><time>2026-03-23T09:39:02Z</time></trkpt><trkpt lat="46.00271562609698" lon="12.21078843449702"><ele>1102.0</ele><time>2026-03-23T09:39:03Z</time></trkpt><trkpt lat="46.00275803281751" lon="12.210919529822421"><ele>1102.0</ele><time>2026-03-23T09:39:04Z</time></trkpt><trkpt lat="46.00280991932288" lon="12.211062581725452"><ele>1099.6</ele><time>2026-03-23T09:39:05Z</time></trkpt><trkpt lat="46.00285689388109" lon="12.211189622389337"><ele>1097.2</ele><time>2026-03-23T09:39:06Z</time></trkpt><trkpt lat="46.00289919947579" lon="12.211307651565983"><ele>1094.8</ele><time>2026-03-23T09:39:07Z</time></trkpt><trkpt lat="46.00293612828048" lon="12.211421547246163"><ele>1092.4</ele><time>2026-03-23T09:39:08Z</time></trkpt><trkpt lat="46.00297794676083" lon="12.211550899164346"><ele>1090.0</ele><time>2026-03-23T09:39:09Z</time></trkpt><trkpt lat="46.00302754950196" lon="12.211687478317838"><ele>1085.75</ele><time>2026-03-23T09:39:10Z</time></trkpt><trkpt lat="46.003076382598486" lon="12.211837557163408"><ele>1081.5</ele><time>2026-03-23T09:39:11Z</time></trkpt><trkpt lat="46.00311651483717" lon="12.212023155023974"><ele>1077.25</ele><time>2026-03-23T09:39:12Z</time></trkpt><trkpt lat="46.00314539161285" lon="12.21220399653303"><ele>1073.0</ele><time>2026-03-23T09:39:13Z</time></trkpt><trkpt lat="46.003177880881694" lon="12.212388453528696"><ele>1068.75</ele><time>2026-03-23T09:39:14Z</time></trkpt><trkpt lat="46.00321984871336" lon="12.212557601926113"><ele>1064.5</ele><time>2026-03-23T09:39:14.999Z</time></trkpt><trkpt lat="46.00326746389588" lon="12.212720114674593"><ele>1060.25</ele><time>2026-03-23T09:39:15.999Z</time></trkpt><trkpt lat="46.00330592303126" lon="12.212877280966019"><ele>1056.0</ele><time>2026-03-23T09:39:16.999Z</time></trkpt><trkpt lat="46.00332649301551" lon="12.21303312947184"><ele>1063.8</ele><time>2026-03-23T09:39:17.999Z</time></trkpt><trkpt lat="46.0033348909234" lon="12.21318420644137"><ele>1071.6</ele><time>2026-03-23T09:39:18.999Z</time></trkpt><trkpt lat="46.00334889697025" lon="12.213331357120131"><ele>1079.4</ele><time>2026-03-23T09:39:19.999Z</time></trkpt><trkpt lat="46.00337081834566" lon="12.213479847922146"><ele>1087.2</ele><time>2026-03-23T09:39:20.999Z</time></trkpt><trkpt lat="46.00340488303651" lon="12.21364637463114"><ele>1095.0</ele><time>2026-03-23T09:39:21.999Z</time></trkpt><trkpt lat="46.00344873513721" lon="12.213831152762292"><ele>1091.3333333333333</ele><time>2026-03-23T09:39:22.999Z</time></trkpt><trkpt lat="46.00349717460091" lon="12.214032899701436"><ele>1087.6666666666665</ele><time>2026-03-23T09:39:23.999Z</time></trkpt><trkpt lat="46.00354169714725" lon="12.214250781404692"><ele>1084.0</ele><time>2026-03-23T09:39:24.999Z</time></trkpt><trkpt lat="46.0035906594899" lon="12.214473625307873"><ele>1084.0</ele><time>2026-03-23T09:39:25.999Z</time></trkpt><trkpt lat="46.00364942828061" lon="12.214693981294312"><ele>1084.0</ele><time>2026-03-23T09:39:27Z</time></trkpt><trkpt lat="46.00371092213635" lon="12.214910975866283"><ele>1084.0</ele><time>2026-03-23T09:39:28Z</time></trkpt><trkpt lat="46.003765304565555" lon="12.215125476223005"><ele>1080.75</ele><time>2026-03-23T09:39:29Z</time></trkpt><trkpt lat="46.00380701063718" lon="12.21533789809593"><ele>1077.5</ele><time>2026-03-23T09:39:30Z</time></trkpt><trkpt lat="46.003845241109346" lon="12.21553867501559"><ele>1074.25</ele><time>2026-03-23T09:39:31Z</time></trkpt><trkpt lat="46.00387751503134" lon="12.215718545659659"><ele>1071.0</ele><time>2026-03-23T09:39:32Z</time></trkpt><trkpt lat="46.00390348204258" lon="12.215877689059981"><ele>1068.8</ele><time>2026-03-23T09:39:33Z</time></trkpt><trkpt lat="46.003929058918516" lon="12.216014923218411"><ele>1066.6</ele><time>2026-03-23T09:39:34Z</time></trkpt><trkpt lat="46.00395959932696" lon="12.216129967542315"><ele>1064.4</ele><time>2026-03-23T09:39:35Z</time></trkpt><trkpt lat="46.00400609255706" lon="12.216222001565052"><ele>1062.2</ele><time>2026-03-23T09:39:36Z</time></trkpt><trkpt lat="46.00407815387836" lon="12.216304418454918"><ele>1060.0</ele><time>2026-03-23T09:39:37Z</time></trkpt><trkpt lat="46.004194742277264" lon="12.216406181614728"><ele>1066.5</ele><time>2026-03-23T09:39:38Z</time></trkpt><trkpt lat="46.00432025220069" lon="12.216516570835012"><ele>1073.0</ele><time>2026-03-23T09:39:39Z</time></trkpt><trkpt lat="46.00442153283379" lon="12.216617351784027"><ele>1079.5</ele><time>2026-03-23T09:39:40Z</time></trkpt><trkpt lat="46.00450622912909" lon="12.216713726594232"><ele>1086.0</ele><time>2026-03-23T09:39:41Z</time></trkpt><trkpt lat="46.00457892314063" lon="12.216795112460526"><ele>1086.0</ele><time>2026-03-23T09:39:42Z</time></trkpt><trkpt lat="46.00465350791208" lon="12.216868932421871"><ele>1086.0</ele><time>2026-03-23T09:39:43Z</time></trkpt><trkpt lat="46.004728274670946" lon="12.216932868570138"><ele>1086.0</ele><time>2026-03-23T09:39:44Z</time></trkpt><trkpt lat="46.00481729651508" lon="12.21699741790228"><ele>1086.0</ele><time>2026-03-23T09:39:45Z</time></trkpt><trkpt lat="46.00491946163929" lon="12.217059050835005"><ele>1086.0</ele><time>2026-03-23T09:39:46Z</time></trkpt><trkpt lat="46.00502747812074" lon="12.217131040791967"><ele>1086.3999999999999</ele><time>2026-03-23T09:39:47Z</time></trkpt><trkpt lat="46.00512406966019" lon="12.217208484486573"><ele>1086.8</ele><time>2026-03-23T09:39:48Z</time></trkpt><trkpt lat="46.00521213843144" lon="12.21729329475268"><ele>1087.1999999999998</ele><time>2026-03-23T09:39:49Z</time></trkpt><trkpt lat="46.00528240676561" lon="12.217351276911788"><ele>1087.6</ele><time>2026-03-23T09:39:50Z</time></trkpt><trkpt lat="46.005412942286775" lon="12.217322384942399"><ele>1088.0</ele><time>2026-03-23T09:39:52Z</time></trkpt><trkpt lat="46.00548084257028" lon="12.21727086970651"><ele>1087.9999999999998</ele><time>2026-03-23T09:39:53Z</time></trkpt><trkpt lat="46.005544250379266" lon="12.217219589049806"><ele>1088.0</ele><time>2026-03-23T09:39:54Z</time></trkpt><trkpt lat="46.005612026270995" lon="12.21721241111385"><ele>1088.0</ele><time>2026-03-23T09:39:55Z</time></trkpt><trkpt lat="46.00567761480809" lon="12.217246804770955"><ele>1088.0</ele><time>2026-03-23T09:39:56Z</time></trkpt><trkpt lat="46.00573718567691" lon="12.217306596271523"><ele>1088.0</ele><time>2026-03-23T09:39:57Z</time></trkpt><trkpt lat="46.00579167844803" lon="12.21738218316822"><ele>1087.9999999999998</ele><time>2026-03-23T09:39:58Z</time></trkpt><trkpt lat="46.00582028202844" lon="12.217482088150078"><ele>1088.0</ele><time>2026-03-23T09:39:59Z</time></trkpt><trkpt lat="46.00583344022524" lon="12.217606874859905"><ele>1089.5</ele><time>2026-03-23T09:40:00Z</time></trkpt><trkpt lat="46.005854416557504" lon="12.217780302839985"><ele>1091.0</ele><time>2026-03-23T09:40:01Z</time></trkpt><trkpt lat="46.00588765606519" lon="12.217960984954138"><ele>1092.5</ele><time>2026-03-23T09:40:02Z</time></trkpt><trkpt lat="46.00590818357528" lon="12.218124565637897"><ele>1094.0</ele><time>2026-03-23T09:40:03Z</time></trkpt><trkpt lat="46.00590339113195" lon="12.218266042064515"><ele>1094.0</ele><time>2026-03-23T09:40:04Z</time></trkpt><trkpt lat="46.00587970540537" lon="12.21837840170551"><ele>1094.0</ele><time>2026-03-23T09:40:05Z</time></trkpt><trkpt lat="46.00588069637305" lon="12.21847320884667"><ele>1094.0</ele><time>2026-03-23T09:40:06Z</time></trkpt><trkpt lat="46.00592109713677" lon="12.21859432931499"><ele>1094.0</ele><time>2026-03-23T09:40:07Z</time></trkpt><trkpt lat="46.005972469639794" lon="12.21876647836079"><ele>1094.0</ele><time>2026-03-23T09:40:08Z</time></trkpt><trkpt lat="46.00602350200833" lon="12.218962719117117"><ele>1094.0</ele><time>2026-03-23T09:40:09Z</time></trkpt><trkpt lat="46.00606046424969" lon="12.219136248494118"><ele>1094.0</ele><time>2026-03-23T09:40:10Z</time></trkpt><trkpt lat="46.00607906981468" lon="12.21928475019203"><ele>1094.0</ele><time>2026-03-23T09:40:11Z</time></trkpt><trkpt lat="46.00608108952327" lon="12.21942356504378"><ele>1094.0</ele><time>2026-03-23T09:40:12Z</time></trkpt><trkpt lat="46.00605863431506" lon="12.219557891161646"><ele>1094.0</ele><time>2026-03-23T09:40:13Z</time></trkpt><trkpt lat="46.00602731370555" lon="12.219688835409936"><ele>1094.0</ele><time>2026-03-23T09:40:14Z</time></trkpt><trkpt lat="46.006030081251666" lon="12.219804268757622"><ele>1094.0</ele><time>2026-03-23T09:40:15Z</time></trkpt><trkpt lat="46.00607010256477" lon="12.21993854412305"><ele>1094.0</ele><time>2026-03-23T09:40:16Z</time></trkpt><trkpt lat="46.00614930668973" lon="12.220061121642273"><ele>1094.0</ele><time>2026-03-23T09:40:17Z</time></trkpt><trkpt lat="46.00625025963884" lon="12.220187036576474"><ele>1094.0</ele><time>2026-03-23T09:40:18Z</time></trkpt><trkpt lat="46.006326280960366" lon="12.220290224167528"><ele>1095.6000000000001</ele><time>2026-03-23T09:40:19Z</time></trkpt><trkpt lat="46.00638303413539" lon="12.220376554632654"><ele>1097.2</ele><time>2026-03-23T09:40:20Z</time></trkpt><trkpt lat="46.00643156035745" lon="12.220471935181285"><ele>1098.8000000000002</ele><time>2026-03-23T09:40:21Z</time></trkpt><trkpt lat="46.006472374813086" lon="12.2206035368808"><ele>1100.4</ele><time>2026-03-23T09:40:22Z</time></trkpt><trkpt lat="46.00652054817623" lon="12.220786191413582"><ele>1102.0</ele><time>2026-03-23T09:40:23Z</time></trkpt><trkpt lat="46.00659306207954" lon="12.220937708638457"><ele>1102.0</ele><time>2026-03-23T09:40:24Z</time></trkpt><trkpt lat="46.006641432418114" lon="12.221021407620027"><ele>1102.0</ele><time>2026-03-23T09:40:25Z</time></trkpt><trkpt lat="46.006672202009675" lon="12.221109920527033"><ele>1102.0</ele><time>2026-03-23T09:40:26Z</time></trkpt><trkpt lat="46.00668576191453" lon="12.221221259689145"><ele>1102.0</ele><time>2026-03-23T09:40:27Z</time></trkpt><trkpt lat="46.00668596443122" lon="12.221379858465836"><ele>1102.0</ele><time>2026-03-23T09:40:28Z</time></trkpt><trkpt lat="46.0066850187647" lon="12.221561666717808"><ele>1100.75</ele><time>2026-03-23T09:40:29Z</time></trkpt><trkpt lat="46.00667975301558" lon="12.221755934804976"><ele>1099.5</ele><time>2026-03-23T09:40:30Z</time></trkpt><trkpt lat="46.00666953939009" lon="12.221946589200718"><ele>1098.25</ele><time>2026-03-23T09:40:31Z</time></trkpt><trkpt lat="46.006663186962186" lon="12.222120869652434"><ele>1097.0</ele><time>2026-03-23T09:40:32Z</time></trkpt><trkpt lat="46.00665845697419" lon="12.222267959223634"><ele>1096.8333333333335</ele><time>2026-03-23T09:40:33Z</time></trkpt><trkpt lat="46.0066607151363" lon="12.222381645307257"><ele>1096.6666666666667</ele><time>2026-03-23T09:40:34Z</time></trkpt><trkpt lat="46.006704853219404" lon="12.222531695818603"><ele>1096.5</ele><time>2026-03-23T09:40:36Z</time></trkpt><trkpt lat="46.00677031845717" lon="12.222613228524466"><ele>1096.3333333333333</ele><time>2026-03-23T09:40:39Z</time></trkpt><trkpt lat="46.00684603026402" lon="12.222619508895258"><ele>1096.1666666666665</ele><time>2026-03-23T09:40:42Z</time></trkpt><trkpt lat="46.006905037715846" lon="12.222535177844584"><ele>1096.0</ele><time>2026-03-23T09:40:44Z</time></trkpt><trkpt lat="46.00698045479977" lon="12.222408685050157"><ele>1096.0</ele><time>2026-03-23T09:40:46Z</time></trkpt><trkpt lat="46.00707012505119" lon="12.222351932177647"><ele>1096.0</ele><time>2026-03-23T09:40:48Z</time></trkpt><trkpt lat="46.00712396383229" lon="12.222297043117948"><ele>1096.0</ele><time>2026-03-23T09:40:50Z</time></trkpt><trkpt lat="46.00706165408736" lon="12.222203720510395"><ele>1096.0</ele><time>2026-03-23T09:40:53Z</time></trkpt><trkpt lat="46.00694845187235" lon="12.222226113494706"><ele>1096.0</ele><time>2026-03-23T09:40:55Z</time></trkpt><trkpt lat="46.006850915352885" lon="12.222228314164465"><ele>1096.2</ele><time>2026-03-23T09:40:57Z</time></trkpt><trkpt lat="46.00681209073635" lon="12.222117538102047"><ele>1096.3999999999999</ele><time>2026-03-23T09:40:58.999Z</time></trkpt><trkpt lat="46.00685225644493" lon="12.22193126035199"><ele>1096.6</ele><time>2026-03-23T09:41:00.999Z</time></trkpt><trkpt lat="46.00689473070722" lon="12.221832274662777"><ele>1096.8</ele><time>2026-03-23T09:41:01.999Z</time></trkpt><trkpt lat="46.00692804332082" lon="12.221735088786"><ele>1097.0</ele><time>2026-03-23T09:41:02.999Z</time></trkpt><trkpt lat="46.00696090708311" lon="12.221642643774"><ele>1097.0</ele><time>2026-03-23T09:41:03.999Z</time></trkpt><trkpt lat="46.006978533680595" lon="12.221550372743767"><ele>1097.0</ele><time>2026-03-23T09:41:04.999Z</time></trkpt><trkpt lat="46.00700990005145" lon="12.221448383976277"><ele>1097.0</ele><time>2026-03-23T09:41:05.999Z</time></trkpt><trkpt lat="46.00704905233736" lon="12.22132735800908"><ele>1097.0</ele><time>2026-03-23T09:41:06.999Z</time></trkpt><trkpt lat="46.00708267015626" lon="12.221193044955863"><ele>1097.0</ele><time>2026-03-23T09:41:07.999Z</time></trkpt><trkpt lat="46.00711863319657" lon="12.221065497449263"><ele>1097.0</ele><time>2026-03-23T09:41:08.999Z</time></trkpt><trkpt lat="46.00715762877227" lon="12.22094102862052"><ele>1097.0</ele><time>2026-03-23T09:41:09.999Z</time></trkpt><trkpt lat="46.00717788242179" lon="12.220829857516085"><ele>1097.0</ele><time>2026-03-23T09:41:10.999Z</time></trkpt><trkpt lat="46.007203034416754" lon="12.22073172965847"><ele>1097.0</ele><time>2026-03-23T09:41:11.999Z</time></trkpt><trkpt lat="46.007228052463454" lon="12.220621697760832"><ele>1097.0</ele><time>2026-03-23T09:41:12.999Z</time></trkpt><trkpt lat="46.007262536173684" lon="12.220545668792004"><ele>1097.0</ele><time>2026-03-23T09:41:13.999Z</time></trkpt><trkpt lat="46.00730180218144" lon="12.220460648432335"><ele>1097.0</ele><time>2026-03-23T09:41:14.999Z</time></trkpt><trkpt lat="46.00737792385037" lon="12.220369471361257"><ele>1095.6</ele><time>2026-03-23T09:41:15.999Z</time></trkpt><trkpt lat="46.007469929452576" lon="12.220291648696048"><ele>1094.2</ele><time>2026-03-23T09:41:16.999Z</time></trkpt><trkpt lat="46.007531465221916" lon="12.220240225601955"><ele>1092.8</ele><time>2026-03-23T09:41:17.999Z</time></trkpt><trkpt lat="46.007628711907145" lon="12.220144633632467"><ele>1091.4</ele><time>2026-03-23T09:41:19.999Z</time></trkpt><trkpt lat="46.007676516749584" lon="12.2200650975465"><ele>1090.0</ele><time>2026-03-23T09:41:20.999Z</time></trkpt><trkpt lat="46.00771814946854" lon="12.219960907632283"><ele>1089.25</ele><time>2026-03-23T09:41:21.999Z</time></trkpt><trkpt lat="46.00774488472679" lon="12.21980645776043"><ele>1088.5</ele><time>2026-03-23T09:41:22.999Z</time></trkpt><trkpt lat="46.00778064008675" lon="12.219628222324816"><ele>1087.75</ele><time>2026-03-23T09:41:23.999Z</time></trkpt><trkpt lat="46.00780963170737" lon="12.21943870258227"><ele>1087.0</ele><time>2026-03-23T09:41:24.999Z</time></trkpt><trkpt lat="46.00784531190812" lon="12.21930734371353"><ele>1087.0</ele><time>2026-03-23T09:41:25.999Z</time></trkpt><trkpt lat="46.00788612833628" lon="12.219192415479865"><ele>1087.0</ele><time>2026-03-23T09:41:26.999Z</time></trkpt><trkpt lat="46.007917551568354" lon="12.219048072800154"><ele>1087.0</ele><time>2026-03-23T09:41:27.999Z</time></trkpt><trkpt lat="46.007933825434186" lon="12.218898890334781"><ele>1087.0</ele><time>2026-03-23T09:41:28.999Z</time></trkpt><trkpt lat="46.00794634053595" lon="12.218773422014378"><ele>1087.0</ele><time>2026-03-23T09:41:29.999Z</time></trkpt><trkpt lat="46.00795675260793" lon="12.218669032929926"><ele>1087.4</ele><time>2026-03-23T09:41:30.999Z</time></trkpt><trkpt lat="46.00795808804827" lon="12.218533784111715"><ele>1087.8000000000002</ele><time>2026-03-23T09:41:31.999Z</time></trkpt><trkpt lat="46.00795218842554" lon="12.218417224219396"><ele>1088.2</ele><time>2026-03-23T09:41:33Z</time></trkpt><trkpt lat="46.00796028572743" lon="12.218285268433553"><ele>1088.6000000000001</ele><time>2026-03-23T09:41:34Z</time></trkpt><trkpt lat="46.00797902962771" lon="12.218139601049169"><ele>1089.0</ele><time>2026-03-23T09:41:35Z</time></trkpt><trkpt lat="46.008010883290396" lon="12.217991223469518"><ele>1089.0</ele><time>2026-03-23T09:41:36Z</time></trkpt><trkpt lat="46.008048525408235" lon="12.2178678967695"><ele>1089.0</ele><time>2026-03-23T09:41:37Z</time></trkpt><trkpt lat="46.00807163226721" lon="12.21773724954651"><ele>1089.0</ele><time>2026-03-23T09:41:38Z</time></trkpt><trkpt lat="46.00812508336207" lon="12.217598409903495"><ele>1089.0</ele><time>2026-03-23T09:41:39Z</time></trkpt><trkpt lat="46.00816874956975" lon="12.217464317016855"><ele>1089.0</ele><time>2026-03-23T09:41:40Z</time></trkpt><trkpt lat="46.0082305171936" lon="12.217341098966548"><ele>1087.1666666666667</ele><time>2026-03-23T09:41:41Z</time></trkpt><trkpt lat="46.008255541547726" lon="12.217223118803147"><ele>1085.3333333333333</ele><time>2026-03-23T09:41:42Z</time></trkpt><trkpt lat="46.008278167410104" lon="12.217098655626694"><ele>1083.5</ele><time>2026-03-23T09:41:43Z</time></trkpt><trkpt lat="46.008284543715504" lon="12.216961625616696"><ele>1081.6666666666665</ele><time>2026-03-23T09:41:44Z</time></trkpt><trkpt lat="46.00830713295844" lon="12.216849245196695"><ele>1079.8333333333333</ele><time>2026-03-23T09:41:45Z</time></trkpt><trkpt lat="46.00832964029957" lon="12.216757889844025"><ele>1078.0</ele><time>2026-03-23T09:41:46Z</time></trkpt><trkpt lat="46.00835941348047" lon="12.216674494354907"><ele>1076.1666666666665</ele><time>2026-03-23T09:41:47Z</time></trkpt><trkpt lat="46.00841808216194" lon="12.216594412787389"><ele>1074.3333333333333</ele><time>2026-03-23T09:41:48Z</time></trkpt><trkpt lat="46.00847755735355" lon="12.216505546527642"><ele>1072.5</ele><time>2026-03-23T09:41:49Z</time></trkpt><trkpt lat="46.00852016200714" lon="12.216419413952627"><ele>1070.6666666666667</ele><time>2026-03-23T09:41:50Z</time></trkpt><trkpt lat="46.00855260772516" lon="12.216296160589508"><ele>1068.8333333333335</ele><time>2026-03-23T09:41:51Z</time></trkpt><trkpt lat="46.00859137621626" lon="12.216183281973336"><ele>1067.0</ele><time>2026-03-23T09:41:52Z</time></trkpt><trkpt lat="46.00864939500685" lon="12.216087312848016"><ele>1067.0</ele><time>2026-03-23T09:41:53Z</time></trkpt><trkpt lat="46.00873073848045" lon="12.215982043712708"><ele>1067.0</ele><time>2026-03-23T09:41:54Z</time></trkpt><trkpt lat="46.00881288992432" lon="12.215868516913705"><ele>1067.0</ele><time>2026-03-23T09:41:55Z</time></trkpt><trkpt lat="46.00888701251936" lon="12.215764459547273"><ele>1067.0</ele><time>2026-03-23T09:41:56Z</time></trkpt><trkpt lat="46.00895645894021" lon="12.215688126872909"><ele>1067.0</ele><time>2026-03-23T09:41:57Z</time></trkpt><trkpt lat="46.009028085022095" lon="12.215594821858343"><ele>1071.2</ele><time>2026-03-23T09:41:58Z</time></trkpt><trkpt lat="46.00911713012196" lon="12.215542748163223"><ele>1075.4</ele><time>2026-03-23T09:41:59Z</time></trkpt><trkpt lat="46.00920428433567" lon="12.215475901115854"><ele>1079.6</ele><time>2026-03-23T09:42:00Z</time></trkpt><trkpt lat="46.00929140031781" lon="12.21543655730336"><ele>1083.8</ele><time>2026-03-23T09:42:01Z</time></trkpt><trkpt lat="46.009390408291004" lon="12.215406132102832"><ele>1088.0</ele><time>2026-03-23T09:42:02Z</time></trkpt><trkpt lat="46.009462042332196" lon="12.215396448066077"><ele>1079.6</ele><time>2026-03-23T09:42:03Z</time></trkpt><trkpt lat="46.00958224243669" lon="12.21535378780434"><ele>1071.1999999999998</ele><time>2026-03-23T09:42:05Z</time></trkpt><trkpt lat="46.00962814245473" lon="12.215285096362958"><ele>1062.8</ele><time>2026-03-23T09:42:06Z</time></trkpt><trkpt lat="46.00970748473302" lon="12.215196493513352"><ele>1054.3999999999999</ele><time>2026-03-23T09:42:07Z</time></trkpt><trkpt lat="46.00976809542744" lon="12.215079979852954"><ele>1046.0</ele><time>2026-03-23T09:42:08Z</time></trkpt><trkpt lat="46.00982738673628" lon="12.214977833111138"><ele>1046.0</ele><time>2026-03-23T09:42:09Z</time></trkpt><trkpt lat="46.009896932214815" lon="12.214912716195112"><ele>1046.0</ele><time>2026-03-23T09:42:10Z</time></trkpt><trkpt lat="46.00997727562933" lon="12.21485643392461"><ele>1046.0</ele><time>2026-03-23T09:42:11Z</time></trkpt><trkpt lat="46.010071337641456" lon="12.214825850933638"><ele>1046.0</ele><time>2026-03-23T09:42:12Z</time></trkpt><trkpt lat="46.010146607656914" lon="12.214778077848539"><ele>1046.0</ele><time>2026-03-23T09:42:13Z</time></trkpt><trkpt lat="46.010227492400205" lon="12.214704675762825"><ele>1046.0</ele><time>2026-03-23T09:42:14Z</time></trkpt><trkpt lat="46.01030115391498" lon="12.21463071685596"><ele>1044.6</ele><time>2026-03-23T09:42:15Z</time></trkpt><trkpt lat="46.01037760624649" lon="12.214515328312793"><ele>1043.1999999999998</ele><time>2026-03-23T09:42:16Z</time></trkpt><trkpt lat="46.01045449961888" lon="12.214438110204107"><ele>1041.8000000000002</ele><time>2026-03-23T09:42:17Z</time></trkpt><trkpt lat="46.01053262205727" lon="12.21437538439901"><ele>1040.4</ele><time>2026-03-23T09:42:18Z</time></trkpt><trkpt lat="46.010616124950474" lon="12.214326565634424"><ele>1039.0</ele><time>2026-03-23T09:42:19Z</time></trkpt><trkpt lat="46.010700993953556" lon="12.214272714310583"><ele>1039.0</ele><time>2026-03-23T09:42:20Z</time></trkpt><trkpt lat="46.010769799857464" lon="12.214226260957629"><ele>1039.0</ele><time>2026-03-23T09:42:21Z</time></trkpt><trkpt lat="46.010839416789615" lon="12.21417787187789"><ele>1039.0</ele><time>2026-03-23T09:42:22Z</time></trkpt><trkpt lat="46.01093319765939" lon="12.214122735619608"><ele>1039.0</ele><time>2026-03-23T09:42:23Z</time></trkpt><trkpt lat="46.01101127572917" lon="12.214027046308404"><ele>1039.0</ele><time>2026-03-23T09:42:24Z</time></trkpt><trkpt lat="46.01108328806106" lon="12.213929185957939"><ele>1036.4</ele><time>2026-03-23T09:42:25Z</time></trkpt><trkpt lat="46.01116947178633" lon="12.213819471984511"><ele>1033.8000000000002</ele><time>2026-03-23T09:42:26Z</time></trkpt><trkpt lat="46.01125645564016" lon="12.213697320295907"><ele>1031.1999999999998</ele><time>2026-03-23T09:42:27Z</time></trkpt><trkpt lat="46.01133739723253" lon="12.213591468213101"><ele>1028.6</ele><time>2026-03-23T09:42:28Z</time></trkpt><trkpt lat="46.011414746808825" lon="12.213494699650436"><ele>1026.0</ele><time>2026-03-23T09:42:29Z</time></trkpt><trkpt lat="46.01149379947846" lon="12.213398943330448"><ele>1026.0</ele><time>2026-03-23T09:42:30Z</time></trkpt><trkpt lat="46.01156012073771" lon="12.213311735455033"><ele>1026.0</ele><time>2026-03-23T09:42:31Z</time></trkpt><trkpt lat="46.011624815837294" lon="12.213231498630753"><ele>1026.0</ele><time>2026-03-23T09:42:32Z</time></trkpt><trkpt lat="46.01169892860948" lon="12.21318652184858"><ele>1026.0</ele><time>2026-03-23T09:42:33Z</time></trkpt><trkpt lat="46.01178843991338" lon="12.213139547573428"><ele>1026.0</ele><time>2026-03-23T09:42:34Z</time></trkpt><trkpt lat="46.01186688910184" lon="12.213086583673762"><ele>1026.0</ele><time>2026-03-23T09:42:35Z</time></trkpt><trkpt lat="46.01195290343936" lon="12.213057522813216"><ele>1024.5</ele><time>2026-03-23T09:42:36Z</time></trkpt><trkpt lat="46.0120300517856" lon="12.213036359441272"><ele>1023.0</ele><time>2026-03-23T09:42:37Z</time></trkpt><trkpt lat="46.012111628686974" lon="12.213031828168397"><ele>1021.5</ele><time>2026-03-23T09:42:38Z</time></trkpt><trkpt lat="46.01217606173265" lon="12.212980637398042"><ele>1020.0</ele><time>2026-03-23T09:42:39Z</time></trkpt><trkpt lat="46.01226168976087" lon="12.212914601758543"><ele>1018.5</ele><time>2026-03-23T09:42:40Z</time></trkpt><trkpt lat="46.012343420703765" lon="12.212820959834119"><ele>1017.0</ele><time>2026-03-23T09:42:41Z</time></trkpt><trkpt lat="46.012410210861454" lon="12.21272412867311"><ele>1017.0</ele><time>2026-03-23T09:42:42Z</time></trkpt><trkpt lat="46.01247159198525" lon="12.212629378093338"><ele>1017.0</ele><time>2026-03-23T09:42:43Z</time></trkpt><trkpt lat="46.012540987364844" lon="12.212563691792178"><ele>1017.0</ele><time>2026-03-23T09:42:44Z</time></trkpt><trkpt lat="46.012618324452404" lon="12.21251252505035"><ele>1017.0</ele><time>2026-03-23T09:42:45Z</time></trkpt><trkpt lat="46.012720707833566" lon="12.212470484099244"><ele>1017.0</ele><time>2026-03-23T09:42:46Z</time></trkpt><trkpt lat="46.012824067314334" lon="12.212425254944746"><ele>1018.0</ele><time>2026-03-23T09:42:47Z</time></trkpt><trkpt lat="46.01292234294525" lon="12.212388800306533"><ele>1019.0</ele><time>2026-03-23T09:42:48Z</time></trkpt><trkpt lat="46.01301835766744" lon="12.21234460004018"><ele>1020.0</ele><time>2026-03-23T09:42:49Z</time></trkpt><trkpt lat="46.01311983491499" lon="12.212307302670265"><ele>1021.0</ele><time>2026-03-23T09:42:50Z</time></trkpt><trkpt lat="46.01320608592455" lon="12.212285346035182"><ele>1022.0</ele><time>2026-03-23T09:42:51Z</time></trkpt><trkpt lat="46.013291469926166" lon="12.21230502702837"><ele>1016.8</ele><time>2026-03-23T09:42:52Z</time></trkpt><trkpt lat="46.01337727606049" lon="12.212342524233309"><ele>1011.6</ele><time>2026-03-23T09:42:53Z</time></trkpt><trkpt lat="46.01348469451761" lon="12.212349086650388"><ele>1006.3999999999999</ele><time>2026-03-23T09:42:54Z</time></trkpt><trkpt lat="46.013591422968936" lon="12.212327790501668"><ele>1001.1999999999999</ele><time>2026-03-23T09:42:55Z</time></trkpt><trkpt lat="46.013698044876094" lon="12.21228624163579"><ele>996.0</ele><time>2026-03-23T09:42:56Z</time></trkpt><trkpt lat="46.01379604050945" lon="12.212260554302754"><ele>996.0</ele><time>2026-03-23T09:42:57Z</time></trkpt><trkpt lat="46.01389406898912" lon="12.212256560104105"><ele>995.9999999999999</ele><time>2026-03-23T09:42:58Z</time></trkpt><trkpt lat="46.01400106007997" lon="12.212259668851862"><ele>995.9999999999999</ele><time>2026-03-23T09:42:59Z</time></trkpt><trkpt lat="46.014099065484984" lon="12.212264076510511"><ele>996.0</ele><time>2026-03-23T09:43:00Z</time></trkpt><trkpt lat="46.01418179632928" lon="12.212249501386097"><ele>996.0</ele><time>2026-03-23T09:43:01Z</time></trkpt><trkpt lat="46.01426031944077" lon="12.212211577810647"><ele>991.1999999999999</ele><time>2026-03-23T09:43:02Z</time></trkpt><trkpt lat="46.01435918984123" lon="12.212144781550142"><ele>986.3999999999999</ele><time>2026-03-23T09:43:03Z</time></trkpt><trkpt lat="46.014457181792565" lon="12.212092595041174"><ele>981.6</ele><time>2026-03-23T09:43:04Z</time></trkpt><trkpt lat="46.014545078977115" lon="12.212055864493648"><ele>976.8</ele><time>2026-03-23T09:43:05Z</time></trkpt><trkpt lat="46.01464405482147" lon="12.211982363590412"><ele>972.0</ele><time>2026-03-23T09:43:06Z</time></trkpt><trkpt lat="46.01473569593376" lon="12.211876407914035"><ele>972.0</ele><time>2026-03-23T09:43:06.999Z</time></trkpt><trkpt lat="46.01479231173391" lon="12.21179672232276"><ele>972.0</ele><time>2026-03-23T09:43:07.999Z</time></trkpt><trkpt lat="46.01484924636583" lon="12.211735995783402"><ele>972.0</ele><time>2026-03-23T09:43:08.999Z</time></trkpt><trkpt lat="46.014944755349006" lon="12.211705361126004"><ele>972.0</ele><time>2026-03-23T09:43:09.999Z</time></trkpt><trkpt lat="46.01504784112035" lon="12.21164184762059"><ele>972.0</ele><time>2026-03-23T09:43:10.999Z</time></trkpt><trkpt lat="46.01514353061245" lon="12.211555182224576"><ele>973.0</ele><time>2026-03-23T09:43:11.999Z</time></trkpt><trkpt lat="46.01522930135324" lon="12.2114859764859"><ele>974.0</ele><time>2026-03-23T09:43:12.999Z</time></trkpt><trkpt lat="46.01531479894063" lon="12.211444699359868"><ele>975.0</ele><time>2026-03-23T09:43:13.999Z</time></trkpt><trkpt lat="46.015392248138795" lon="12.211422011294578"><ele>976.0</ele><time>2026-03-23T09:43:14.999Z</time></trkpt><trkpt lat="46.01547513420284" lon="12.211418792662142"><ele>977.0</ele><time>2026-03-23T09:43:15.999Z</time></trkpt><trkpt lat="46.015573353673396" lon="12.21141786933586"><ele>978.0</ele><time>2026-03-23T09:43:16.999Z</time></trkpt><trkpt lat="46.015669158820046" lon="12.21140165815365"><ele>978.0</ele><time>2026-03-23T09:43:17.999Z</time></trkpt><trkpt lat="46.01575767605039" lon="12.211367609552486"><ele>978.0</ele><time>2026-03-23T09:43:18.999Z</time></trkpt><trkpt lat="46.01583954452954" lon="12.211334346960298"><ele>978.0</ele><time>2026-03-23T09:43:19.999Z</time></trkpt><trkpt lat="46.0159134066504" lon="12.211281800935287"><ele>978.0</ele><time>2026-03-23T09:43:20.999Z</time></trkpt><trkpt lat="46.01597962728753" lon="12.211194217617848"><ele>978.0</ele><time>2026-03-23T09:43:21.999Z</time></trkpt><trkpt lat="46.01603469935792" lon="12.211060721899688"><ele>975.8333333333334</ele><time>2026-03-23T09:43:22.999Z</time></trkpt><trkpt lat="46.01608994628042" lon="12.210950941433389"><ele>973.6666666666667</ele><time>2026-03-23T09:43:23.999Z</time></trkpt><trkpt lat="46.01615678116536" lon="12.210898653003143"><ele>971.5</ele><time>2026-03-23T09:43:24.999Z</time></trkpt><trkpt lat="46.016242127539975" lon="12.210868497198735"><ele>969.3333333333334</ele><time>2026-03-23T09:43:25.999Z</time></trkpt><trkpt lat="46.01632903768782" lon="12.21083362834927"><ele>967.1666666666667</ele><time>2026-03-23T09:43:26.999Z</time></trkpt><trkpt lat="46.01640719103098" lon="12.210802048341234"><ele>965.0</ele><time>2026-03-23T09:43:27.999Z</time></trkpt><trkpt lat="46.01648310464749" lon="12.210755277644635"><ele>965.0</ele><time>2026-03-23T09:43:28.999Z</time></trkpt><trkpt lat="46.01655935007776" lon="12.210690439353852"><ele>965.0</ele><time>2026-03-23T09:43:29.999Z</time></trkpt><trkpt lat="46.01663360856434" lon="12.210620305680427"><ele>965.0</ele><time>2026-03-23T09:43:30.999Z</time></trkpt><trkpt lat="46.01670806776943" lon="12.21056267888859"><ele>965.0</ele><time>2026-03-23T09:43:31.999Z</time></trkpt><trkpt lat="46.01680870704308" lon="12.210506948390949"><ele>965.0</ele><time>2026-03-23T09:43:32.999Z</time></trkpt><trkpt lat="46.01688978267036" lon="12.210477680071524"><ele>968.2</ele><time>2026-03-23T09:43:33.999Z</time></trkpt><trkpt lat="46.01695752036667" lon="12.210473084638547"><ele>971.4</ele><time>2026-03-23T09:43:34.999Z</time></trkpt><trkpt lat="46.017044223587405" lon="12.21047062700348"><ele>974.5999999999999</ele><time>2026-03-23T09:43:35.999Z</time></trkpt><trkpt lat="46.0171464690891" lon="12.21048523711229"><ele>977.8</ele><time>2026-03-23T09:43:36.999Z</time></trkpt><trkpt lat="46.01724944954214" lon="12.210474756747796"><ele>981.0</ele><time>2026-03-23T09:43:37.999Z</time></trkpt><trkpt lat="46.017345303510695" lon="12.210458292087404"><ele>981.0</ele><time>2026-03-23T09:43:39Z</time></trkpt><trkpt lat="46.017437371307146" lon="12.21042873701409"><ele>980.9999999999999</ele><time>2026-03-23T09:43:40Z</time></trkpt><trkpt lat="46.01753015557678" lon="12.210391281858186"><ele>980.9999999999999</ele><time>2026-03-23T09:43:41Z</time></trkpt><trkpt lat="46.01762295900715" lon="12.210348367269235"><ele>981.0</ele><time>2026-03-23T09:43:42Z</time></trkpt><trkpt lat="46.01771478246717" lon="12.210298438286905"><ele>981.0</ele><time>2026-03-23T09:43:43Z</time></trkpt><trkpt lat="46.01780053593621" lon="12.210251974911216"><ele>978.6666666666666</ele><time>2026-03-23T09:43:44Z</time></trkpt><trkpt lat="46.01788760732277" lon="12.210228946814402"><ele>976.3333333333333</ele><time>2026-03-23T09:43:45Z</time></trkpt><trkpt lat="46.017975469354724" lon="12.210223383814192"><ele>974.0</ele><time>2026-03-23T09:43:46Z</time></trkpt><trkpt lat="46.018047742415916" lon="12.210228541083929"><ele>971.6666666666666</ele><time>2026-03-23T09:43:47Z</time></trkpt><trkpt lat="46.0181182691677" lon="12.210205576241057"><ele>969.3333333333333</ele><time>2026-03-23T09:43:48Z</time></trkpt><trkpt lat="46.018183133007575" lon="12.210140404546047"><ele>967.0</ele><time>2026-03-23T09:43:49Z</time></trkpt><trkpt lat="46.01827346200524" lon="12.210063586460974"><ele>968.6</ele><time>2026-03-23T09:43:50Z</time></trkpt><trkpt lat="46.01837179397625" lon="12.210020796356881"><ele>970.2</ele><time>2026-03-23T09:43:51Z</time></trkpt><trkpt lat="46.01846786626033" lon="12.209976612041913"><ele>971.8</ele><time>2026-03-23T09:43:52Z</time></trkpt><trkpt lat="46.018545060929945" lon="12.209914951535785"><ele>973.4</ele><time>2026-03-23T09:43:53Z</time></trkpt><trkpt lat="46.01862640960297" lon="12.209849115191682"><ele>975.0</ele><time>2026-03-23T09:43:54Z</time></trkpt><trkpt lat="46.01870323472803" lon="12.209791554761814"><ele>975.0</ele><time>2026-03-23T09:43:55Z</time></trkpt><trkpt lat="46.01879135758746" lon="12.209732483587802"><ele>975.0</ele><time>2026-03-23T09:43:56Z</time></trkpt><trkpt lat="46.01887561776572" lon="12.20966503722853"><ele>975.0</ele><time>2026-03-23T09:43:57Z</time></trkpt><trkpt lat="46.01895041526624" lon="12.209602544027"><ele>975.0</ele><time>2026-03-23T09:43:58Z</time></trkpt><trkpt lat="46.0190180366905" lon="12.209540586568266"><ele>975.0</ele><time>2026-03-23T09:43:59Z</time></trkpt><trkpt lat="46.01908515276274" lon="12.209466407818178"><ele>975.0</ele><time>2026-03-23T09:44:00Z</time></trkpt><trkpt lat="46.019166475498494" lon="12.20937582484088"><ele>971.1666666666666</ele><time>2026-03-23T09:44:01Z</time></trkpt><trkpt lat="46.019232930287586" lon="12.209298475972863"><ele>967.3333333333333</ele><time>2026-03-23T09:44:02Z</time></trkpt><trkpt lat="46.01929532255716" lon="12.209255702385164"><ele>963.5</ele><time>2026-03-23T09:44:03Z</time></trkpt><trkpt lat="46.019374166348776" lon="12.20921454482291"><ele>959.6666666666666</ele><time>2026-03-23T09:44:04Z</time></trkpt><trkpt lat="46.01947655634068" lon="12.209174256112039"><ele>955.8333333333333</ele><time>2026-03-23T09:44:05Z</time></trkpt><trkpt lat="46.01955248388479" lon="12.209093597328005"><ele>952.0</ele><time>2026-03-23T09:44:06Z</time></trkpt><trkpt lat="46.01962339957438" lon="12.209017786840775"><ele>951.9999999999999</ele><time>2026-03-23T09:44:07Z</time></trkpt><trkpt lat="46.019692569496655" lon="12.208966497527836"><ele>952.0</ele><time>2026-03-23T09:44:08Z</time></trkpt><trkpt lat="46.019771413797834" lon="12.208933289055018"><ele>952.0</ele><time>2026-03-23T09:44:09Z</time></trkpt><trkpt lat="46.019840602580544" lon="12.208891564266198"><ele>952.0</ele><time>2026-03-23T09:44:10Z</time></trkpt><trkpt lat="46.01989597803632" lon="12.208842058302725"><ele>951.9999999999999</ele><time>2026-03-23T09:44:12Z</time></trkpt><trkpt lat="46.01985396389619" lon="12.208953060239796"><ele>952.0</ele><time>2026-03-23T09:44:18Z</time></trkpt><trkpt lat="46.01974700113227" lon="12.209085961439616"><ele>951.9999999999999</ele><time>2026-03-23T09:44:20Z</time></trkpt><trkpt lat="46.01970330348968" lon="12.209173581295586"><ele>952.0</ele><time>2026-03-23T09:44:21Z</time></trkpt><trkpt lat="46.019656992857726" lon="12.209261462777372"><ele>952.0</ele><time>2026-03-23T09:44:22Z</time></trkpt><trkpt lat="46.019615658492384" lon="12.20936038172288"><ele>952.0</ele><time>2026-03-23T09:44:23Z</time></trkpt><trkpt lat="46.019570644760414" lon="12.20947562801602"><ele>951.9999999999999</ele><time>2026-03-23T09:44:24Z</time></trkpt><trkpt lat="46.01951956134439" lon="12.209608442368825"><ele>952.0</ele><time>2026-03-23T09:44:25Z</time></trkpt><trkpt lat="46.01947752049555" lon="12.209745006311431"><ele>948.0</ele><time>2026-03-23T09:44:26Z</time></trkpt><trkpt lat="46.01944323278057" lon="12.209878658834096"><ele>944.0</ele><time>2026-03-23T09:44:27Z</time></trkpt><trkpt lat="46.01942083665763" lon="12.210007092564483"><ele>940.0</ele><time>2026-03-23T09:44:28Z</time></trkpt><trkpt lat="46.019394712463836" lon="12.210126710879189"><ele>936.0</ele><time>2026-03-23T09:44:29Z</time></trkpt><trkpt lat="46.01934760591049" lon="12.210262493184782"><ele>932.0</ele><time>2026-03-23T09:44:30Z</time></trkpt><trkpt lat="46.01928913683666" lon="12.210394985157892"><ele>932.0</ele><time>2026-03-23T09:44:31Z</time></trkpt><trkpt lat="46.01923139113937" lon="12.210525216952112"><ele>932.0</ele><time>2026-03-23T09:44:32Z</time></trkpt><trkpt lat="46.01917617403494" lon="12.21065696220887"><ele>932.0</ele><time>2026-03-23T09:44:33Z</time></trkpt><trkpt lat="46.019119460198255" lon="12.210783971094301"><ele>932.0</ele><time>2026-03-23T09:44:34Z</time></trkpt><trkpt lat="46.01906487540279" lon="12.210906421550812"><ele>932.0</ele><time>2026-03-23T09:44:35Z</time></trkpt><trkpt lat="46.019024114211135" lon="12.211029041934058"><ele>932.0000000000001</ele><time>2026-03-23T09:44:36Z</time></trkpt><trkpt lat="46.01899206694018" lon="12.211153430548098"><ele>932.0</ele><time>2026-03-23T09:44:37Z</time></trkpt><trkpt lat="46.01895468293495" lon="12.211270047802016"><ele>932.0</ele><time>2026-03-23T09:44:38Z</time></trkpt><trkpt lat="46.018897658492854" lon="12.211372188159087"><ele>932.0</ele><time>2026-03-23T09:44:39Z</time></trkpt><trkpt lat="46.01883261632546" lon="12.211464906132528"><ele>932.0000000000001</ele><time>2026-03-23T09:44:40Z</time></trkpt><trkpt lat="46.01879825116052" lon="12.211572201329748"><ele>932.0</ele><time>2026-03-23T09:44:41Z</time></trkpt><trkpt lat="46.018796268634226" lon="12.211670824259539"><ele>929.75</ele><time>2026-03-23T09:44:42Z</time></trkpt><trkpt lat="46.018836462186876" lon="12.211840371431501"><ele>927.5</ele><time>2026-03-23T09:44:44Z</time></trkpt><trkpt lat="46.018983504696635" lon="12.211920144353769"><ele>925.25</ele><time>2026-03-23T09:44:46Z</time></trkpt><trkpt lat="46.01910411350072" lon="12.211945929117055"><ele>923.0</ele><time>2026-03-23T09:44:47Z</time></trkpt><trkpt lat="46.019254929952865" lon="12.211970911829605"><ele>919.0</ele><time>2026-03-23T09:44:48Z</time></trkpt><trkpt lat="46.019404855877774" lon="12.211968227783206"><ele>915.0</ele><time>2026-03-23T09:44:49Z</time></trkpt><trkpt lat="46.01954470687544" lon="12.211935464079566"><ele>911.0</ele><time>2026-03-23T09:44:50Z</time></trkpt><trkpt lat="46.019699319842196" lon="12.211881883918014"><ele>911.0</ele><time>2026-03-23T09:44:51Z</time></trkpt><trkpt lat="46.019871940338916" lon="12.211820544070918"><ele>911.0</ele><time>2026-03-23T09:44:52Z</time></trkpt><trkpt lat="46.020014952577064" lon="12.211783642720986"><ele>911.0</ele><time>2026-03-23T09:44:53Z</time></trkpt><trkpt lat="46.02015085752358" lon="12.211766807557693"><ele>910.25</ele><time>2026-03-23T09:44:54Z</time></trkpt><trkpt lat="46.02028737475066" lon="12.211763622003852"><ele>909.5</ele><time>2026-03-23T09:44:55Z</time></trkpt><trkpt lat="46.02043783993724" lon="12.211759618435552"><ele>908.75</ele><time>2026-03-23T09:44:56Z</time></trkpt><trkpt lat="46.02056119370544" lon="12.211751762342187"><ele>908.0</ele><time>2026-03-23T09:44:56.999Z</time></trkpt><trkpt lat="46.02067079178216" lon="12.211750705457757"><ele>908.0</ele><time>2026-03-23T09:44:57.999Z</time></trkpt><trkpt lat="46.020769662822744" lon="12.211750638002025"><ele>908.0</ele><time>2026-03-23T09:44:58.999Z</time></trkpt><trkpt lat="46.02087347105029" lon="12.211748781088444"><ele>908.0</ele><time>2026-03-23T09:44:59.999Z</time></trkpt><trkpt lat="46.02099965326691" lon="12.211744607502018"><ele>908.0</ele><time>2026-03-23T09:45:00.999Z</time></trkpt><trkpt lat="46.021110835533094" lon="12.21172137048153"><ele>908.0</ele><time>2026-03-23T09:45:01.999Z</time></trkpt><trkpt lat="46.02123897463072" lon="12.21167963941386"><ele>908.8</ele><time>2026-03-23T09:45:02.999Z</time></trkpt><trkpt lat="46.02136536681703" lon="12.211616849409522"><ele>909.5999999999999</ele><time>2026-03-23T09:45:03.999Z</time></trkpt><trkpt lat="46.02147592684104" lon="12.211558889928517"><ele>910.4000000000001</ele><time>2026-03-23T09:45:04.999Z</time></trkpt><trkpt lat="46.021567435720215" lon="12.211518253177745"><ele>911.2</ele><time>2026-03-23T09:45:05.999Z</time></trkpt><trkpt lat="46.02163844906871" lon="12.211477087597956"><ele>912.0</ele><time>2026-03-23T09:45:06.999Z</time></trkpt><trkpt lat="46.02170445287224" lon="12.211475219607575"><ele>913.8</ele><time>2026-03-23T09:45:07.999Z</time></trkpt><trkpt lat="46.021780953999134" lon="12.21149764566885"><ele>915.6</ele><time>2026-03-23T09:45:08.999Z</time></trkpt><trkpt lat="46.021885020070705" lon="12.21153804830106"><ele>917.3999999999999</ele><time>2026-03-23T09:45:09.999Z</time></trkpt><trkpt lat="46.02199018426985" lon="12.211572944320828"><ele>919.1999999999999</ele><time>2026-03-23T09:45:10.999Z</time></trkpt><trkpt lat="46.0220651194201" lon="12.211614480782345"><ele>921.0</ele><time>2026-03-23T09:45:11.999Z</time></trkpt><trkpt lat="46.02214672582913" lon="12.211668413345034"><ele>921.0</ele><time>2026-03-23T09:45:12.999Z</time></trkpt><trkpt lat="46.02223926532992" lon="12.211710471351275"><ele>921.0</ele><time>2026-03-23T09:45:13.999Z</time></trkpt><trkpt lat="46.022330424430095" lon="12.211725064082716"><ele>921.0</ele><time>2026-03-23T09:45:14.999Z</time></trkpt><trkpt lat="46.02241244734038" lon="12.211719524909554"><ele>921.0</ele><time>2026-03-23T09:45:15.999Z</time></trkpt><trkpt lat="46.0224815493809" lon="12.211688889335022"><ele>921.0</ele><time>2026-03-23T09:45:16.999Z</time></trkpt><trkpt lat="46.022551906203546" lon="12.211643741824929"><ele>921.0</ele><time>2026-03-23T09:45:17.999Z</time></trkpt><trkpt lat="46.02261621564438" lon="12.211588719016572"><ele>922.0</ele><time>2026-03-23T09:45:18.999Z</time></trkpt><trkpt lat="46.022678630088926" lon="12.211551680348698"><ele>923.0</ele><time>2026-03-23T09:45:19.999Z</time></trkpt><trkpt lat="46.022746788492206" lon="12.211535392638467"><ele>924.0</ele><time>2026-03-23T09:45:20.999Z</time></trkpt><trkpt lat="46.022825241787444" lon="12.211524276678666"><ele>925.0</ele><time>2026-03-23T09:45:21.999Z</time></trkpt><trkpt lat="46.022914498599796" lon="12.211538344961093"><ele>926.0</ele><time>2026-03-23T09:45:22.999Z</time></trkpt><trkpt lat="46.02300611806874" lon="12.211560774902276"><ele>927.0</ele><time>2026-03-23T09:45:23.999Z</time></trkpt><trkpt lat="46.02310591730451" lon="12.21159097936971"><ele>927.0</ele><time>2026-03-23T09:45:24.999Z</time></trkpt><trkpt lat="46.02321136271016" lon="12.211614313400784"><ele>927.0</ele><time>2026-03-23T09:45:25.999Z</time></trkpt><trkpt lat="46.023310198678274" lon="12.211631336603471"><ele>927.0</ele><time>2026-03-23T09:45:26.999Z</time></trkpt><trkpt lat="46.02340231634725" lon="12.211634217065807"><ele>927.0</ele><time>2026-03-23T09:45:27.999Z</time></trkpt><trkpt lat="46.02348720239049" lon="12.211625520721128"><ele>927.0</ele><time>2026-03-23T09:45:28.999Z</time></trkpt><trkpt lat="46.02356283501059" lon="12.211627776703553"><ele>925.8</ele><time>2026-03-23T09:45:29.999Z</time></trkpt><trkpt lat="46.02366476340108" lon="12.211696742442996"><ele>924.6</ele><time>2026-03-23T09:45:31.999Z</time></trkpt><trkpt lat="46.02372578434265" lon="12.21183210418721"><ele>923.3999999999999</ele><time>2026-03-23T09:45:33.999Z</time></trkpt><trkpt lat="46.023750406055136" lon="12.211915805583493"><ele>922.1999999999999</ele><time>2026-03-23T09:45:34.999Z</time></trkpt><trkpt lat="46.02378414020436" lon="12.211996754998415"><ele>921.0</ele><time>2026-03-23T09:45:35.999Z</time></trkpt><trkpt lat="46.023889032860204" lon="12.2120579147451"><ele>921.0</ele><time>2026-03-23T09:45:37.999Z</time></trkpt><trkpt lat="46.023963897447935" lon="12.212044276649067"><ele>921.0</ele><time>2026-03-23T09:45:38.999Z</time></trkpt><trkpt lat="46.0240356304317" lon="12.212035095837555"><ele>921.0</ele><time>2026-03-23T09:45:39.999Z</time></trkpt><trkpt lat="46.02410216147625" lon="12.212037107533195"><ele>921.0</ele><time>2026-03-23T09:45:40.999Z</time></trkpt><trkpt lat="46.024211268390324" lon="12.212048692566764"><ele>921.0</ele><time>2026-03-23T09:45:42.999Z</time></trkpt><trkpt lat="46.0242922679368" lon="12.212012265600688"><ele>921.0</ele><time>2026-03-23T09:45:45Z</time></trkpt><trkpt lat="46.02436891372604" lon="12.211899968388305"><ele>918.4</ele><time>2026-03-23T09:45:47Z</time></trkpt><trkpt lat="46.02443883060434" lon="12.211728194611657"><ele>915.8</ele><time>2026-03-23T09:45:49Z</time></trkpt><trkpt lat="46.02446730511856" lon="12.211627679823895"><ele>913.1999999999999</ele><time>2026-03-23T09:45:50Z</time></trkpt><trkpt lat="46.024544841122335" lon="12.211459370701453"><ele>910.5999999999999</ele><time>2026-03-23T09:45:52Z</time></trkpt><trkpt lat="46.024604681209084" lon="12.211385699579262"><ele>908.0</ele><time>2026-03-23T09:45:53Z</time></trkpt><trkpt lat="46.02466137556841" lon="12.211306282064394"><ele>904.8333333333334</ele><time>2026-03-23T09:45:54Z</time></trkpt><trkpt lat="46.02472417919177" lon="12.211231560917538"><ele>901.6666666666667</ele><time>2026-03-23T09:45:55Z</time></trkpt><trkpt lat="46.02478326693134" lon="12.21117791186486"><ele>898.5</ele><time>2026-03-23T09:45:56Z</time></trkpt><trkpt lat="46.02484649682935" lon="12.211135685254439"><ele>895.3333333333333</ele><time>2026-03-23T09:45:58Z</time></trkpt><trkpt lat="46.024925360490144" lon="12.211126069865546"><ele>892.1666666666666</ele><time>2026-03-23T09:46:12Z</time></trkpt><trkpt lat="46.025020781247704" lon="12.21122097576014"><ele>889.0</ele><time>2026-03-23T09:46:14Z</time></trkpt><trkpt lat="46.02510406292422" lon="12.211337774851952"><ele>888.9999999999999</ele><time>2026-03-23T09:46:16Z</time></trkpt><trkpt lat="46.02520977485089" lon="12.211391929640191"><ele>889.0</ele><time>2026-03-23T09:46:18Z</time></trkpt><trkpt lat="46.025278332679704" lon="12.21139437322984"><ele>889.0</ele><time>2026-03-23T09:46:19Z</time></trkpt><trkpt lat="46.0253666956009" lon="12.211412096368244"><ele>889.0</ele><time>2026-03-23T09:46:20Z</time></trkpt><trkpt lat="46.025443139158824" lon="12.21143802368303"><ele>888.9999999999999</ele><time>2026-03-23T09:46:21Z</time></trkpt><trkpt lat="46.02551946622143" lon="12.211470996858226"><ele>889.0</ele><time>2026-03-23T09:46:22Z</time></trkpt><trkpt lat="46.025593842241776" lon="12.211473301518758"><ele>888.9999999999999</ele><time>2026-03-23T09:46:23Z</time></trkpt><trkpt lat="46.025658732800565" lon="12.211443208901562"><ele>889.0</ele><time>2026-03-23T09:46:24Z</time></trkpt><trkpt lat="46.02571703104866" lon="12.21139037988597"><ele>889.0</ele><time>2026-03-23T09:46:25Z</time></trkpt><trkpt lat="46.02576639519626" lon="12.21130346851071"><ele>889.0</ele><time>2026-03-23T09:46:26Z</time></trkpt><trkpt lat="46.02581824214633" lon="12.21118726269223"><ele>888.9999999999999</ele><time>2026-03-23T09:46:27Z</time></trkpt><trkpt lat="46.02587983852129" lon="12.211023914005759"><ele>889.0</ele><time>2026-03-23T09:46:28Z</time></trkpt><trkpt lat="46.025940176571616" lon="12.210894796203515"><ele>889.6666666666666</ele><time>2026-03-23T09:46:29Z</time></trkpt><trkpt lat="46.02599749360651" lon="12.210798609654434"><ele>890.3333333333333</ele><time>2026-03-23T09:46:30Z</time></trkpt><trkpt lat="46.02605331066147" lon="12.210725448443164"><ele>891.0</ele><time>2026-03-23T09:46:31Z</time></trkpt><trkpt lat="46.02611556158759" lon="12.2106573445868"><ele>891.6666666666667</ele><time>2026-03-23T09:46:32Z</time></trkpt><trkpt lat="46.026183553504744" lon="12.210601571241185"><ele>892.3333333333334</ele><time>2026-03-23T09:46:33Z</time></trkpt><trkpt lat="46.02627587260661" lon="12.210550434891005"><ele>893.0</ele><time>2026-03-23T09:46:34Z</time></trkpt><trkpt lat="46.026379952568064" lon="12.210498255816898"><ele>892.75</ele><time>2026-03-23T09:46:35Z</time></trkpt><trkpt lat="46.026492671068695" lon="12.210437518713736"><ele>892.5</ele><time>2026-03-23T09:46:36Z</time></trkpt><trkpt lat="46.02661293569233" lon="12.210357431014154"><ele>892.25</ele><time>2026-03-23T09:46:37Z</time></trkpt><trkpt lat="46.02673996345636" lon="12.210271570887773"><ele>892.0</ele><time>2026-03-23T09:46:38Z</time></trkpt><trkpt lat="46.0268695925298" lon="12.21019298652965"><ele>892.0</ele><time>2026-03-23T09:46:39Z</time></trkpt><trkpt lat="46.02698618143293" lon="12.210117003840129"><ele>892.0</ele><time>2026-03-23T09:46:40Z</time></trkpt><trkpt lat="46.027084036153134" lon="12.210039731366516"><ele>892.0</ele><time>2026-03-23T09:46:41Z</time></trkpt><trkpt lat="46.02716563589139" lon="12.209944366321704"><ele>892.0</ele><time>2026-03-23T09:46:42Z</time></trkpt><trkpt lat="46.0272341721202" lon="12.209834608435637"><ele>892.0</ele><time>2026-03-23T09:46:43Z</time></trkpt><trkpt lat="46.027301763595524" lon="12.20972604811155"><ele>891.4000000000001</ele><time>2026-03-23T09:46:44Z</time></trkpt><trkpt lat="46.02736812289402" lon="12.209618987714173"><ele>890.8000000000001</ele><time>2026-03-23T09:46:45Z</time></trkpt><trkpt lat="46.02743811447103" lon="12.209496783143384"><ele>890.2</ele><time>2026-03-23T09:46:46Z</time></trkpt><trkpt lat="46.027507996054815" lon="12.209390759250097"><ele>889.6</ele><time>2026-03-23T09:46:47Z</time></trkpt><trkpt lat="46.027576273535445" lon="12.209282459971204"><ele>889.0</ele><time>2026-03-23T09:46:48Z</time></trkpt><trkpt lat="46.0276442409016" lon="12.20917764023733"><ele>889.0</ele><time>2026-03-23T09:46:49Z</time></trkpt><trkpt lat="46.027714516540016" lon="12.20906213890936"><ele>889.0000000000001</ele><time>2026-03-23T09:46:50Z</time></trkpt><trkpt lat="46.02778795778661" lon="12.208943841703777"><ele>889.0000000000001</ele><time>2026-03-23T09:46:51Z</time></trkpt><trkpt lat="46.02786136130644" lon="12.208830430148684"><ele>889.0</ele><time>2026-03-23T09:46:52Z</time></trkpt><trkpt lat="46.02793152681228" lon="12.208717265510657"><ele>889.0</ele><time>2026-03-23T09:46:53Z</time></trkpt><trkpt lat="46.02799894763389" lon="12.208611577099594"><ele>888.6</ele><time>2026-03-23T09:46:54Z</time></trkpt><trkpt lat="46.028062329245586" lon="12.208513904343269"><ele>888.2</ele><time>2026-03-23T09:46:55Z</time></trkpt><trkpt lat="46.02812277222381" lon="12.20841734540687"><ele>887.8000000000001</ele><time>2026-03-23T09:46:56Z</time></trkpt><trkpt lat="46.02818152560633" lon="12.20833054833978"><ele>887.4000000000001</ele><time>2026-03-23T09:46:57Z</time></trkpt><trkpt lat="46.02824499831936" lon="12.208244817841958"><ele>887.0</ele><time>2026-03-23T09:46:58Z</time></trkpt><trkpt lat="46.028324675401876" lon="12.208163476797239"><ele>885.6</ele><time>2026-03-23T09:46:59Z</time></trkpt><trkpt lat="46.02841475902601" lon="12.208079538322583"><ele>884.2</ele><time>2026-03-23T09:47:00Z</time></trkpt><trkpt lat="46.0285050965659" lon="12.208004326078848"><ele>882.8</ele><time>2026-03-23T09:47:01Z</time></trkpt><trkpt lat="46.02859087466425" lon="12.20793608972769"><ele>881.4</ele><time>2026-03-23T09:47:02Z</time></trkpt><trkpt lat="46.02867961679306" lon="12.207876025694986"><ele>880.0</ele><time>2026-03-23T09:47:03Z</time></trkpt><trkpt lat="46.02877201343297" lon="12.207828381290794"><ele>880.0</ele><time>2026-03-23T09:47:04Z</time></trkpt><trkpt lat="46.02886800258683" lon="12.20779068378686"><ele>880.0</ele><time>2026-03-23T09:47:05Z</time></trkpt><trkpt lat="46.02897053385962" lon="12.207760355581609"><ele>880.0</ele><time>2026-03-23T09:47:06Z</time></trkpt><trkpt lat="46.02908080959579" lon="12.20772494736518"><ele>880.0</ele><time>2026-03-23T09:47:07Z</time></trkpt><trkpt lat="46.02918152862249" lon="12.20767711102567"><ele>880.0</ele><time>2026-03-23T09:47:08Z</time></trkpt><trkpt lat="46.029256517192145" lon="12.207589193356313"><ele>881.5</ele><time>2026-03-23T09:47:09Z</time></trkpt><trkpt lat="46.02933177981844" lon="12.207484105511211"><ele>883.0</ele><time>2026-03-23T09:47:10Z</time></trkpt><trkpt lat="46.02942607960888" lon="12.207373187025533"><ele>884.5</ele><time>2026-03-23T09:47:11Z</time></trkpt><trkpt lat="46.02955356200302" lon="12.207263441494987"><ele>886.0</ele><time>2026-03-23T09:47:12Z</time></trkpt><trkpt lat="46.02970203187753" lon="12.207150467705635"><ele>882.5</ele><time>2026-03-23T09:47:13Z</time></trkpt><trkpt lat="46.02984832661051" lon="12.207037172531306"><ele>879.0</ele><time>2026-03-23T09:47:14Z</time></trkpt><trkpt lat="46.02997246759246" lon="12.206939593843392"><ele>875.5</ele><time>2026-03-23T09:47:15Z</time></trkpt><trkpt lat="46.03008589801919" lon="12.206854865540501"><ele>872.0</ele><time>2026-03-23T09:47:16Z</time></trkpt><trkpt lat="46.03019263692464" lon="12.206783070141638"><ele>872.0000000000001</ele><time>2026-03-23T09:47:17Z</time></trkpt><trkpt lat="46.030296298458886" lon="12.206718070654423"><ele>872.0</ele><time>2026-03-23T09:47:18Z</time></trkpt><trkpt lat="46.03038722150536" lon="12.206667975117794"><ele>872.0</ele><time>2026-03-23T09:47:19Z</time></trkpt><trkpt lat="46.030468447084516" lon="12.206629858515953"><ele>872.0</ele><time>2026-03-23T09:47:20Z</time></trkpt><trkpt lat="46.03053029153461" lon="12.20660853166597"><ele>872.0000000000001</ele><time>2026-03-23T09:47:21Z</time></trkpt><trkpt lat="46.03059991888904" lon="12.206583459936125"><ele>872.0</ele><time>2026-03-23T09:47:24Z</time></trkpt><trkpt lat="46.03066929535272" lon="12.2065714966245"><ele>872.0000000000001</ele><time>2026-03-23T09:47:31Z</time></trkpt><trkpt lat="46.030795479311" lon="12.206532417784796"><ele>872.0</ele><time>2026-03-23T09:47:33Z</time></trkpt><trkpt lat="46.03086110861928" lon="12.20650783495657"><ele>872.0</ele><time>2026-03-23T09:47:34Z</time></trkpt><trkpt lat="46.03093463642153" lon="12.206478965650573"><ele>872.0</ele><time>2026-03-23T09:47:35Z</time></trkpt><trkpt lat="46.03101035843007" lon="12.206442304714255"><ele>872.0000000000001</ele><time>2026-03-23T09:47:36Z</time></trkpt><trkpt lat="46.031076006810466" lon="12.206403439591751"><ele>872.0</ele><time>2026-03-23T09:47:37Z</time></trkpt><trkpt lat="46.03113313656378" lon="12.206333281319512"><ele>871.6666666666667</ele><time>2026-03-23T09:47:38Z</time></trkpt><trkpt lat="46.031182810708415" lon="12.206235590805447"><ele>871.3333333333334</ele><time>2026-03-23T09:47:39Z</time></trkpt><trkpt lat="46.031227125953365" lon="12.206121089774639"><ele>871.0</ele><time>2026-03-23T09:47:40Z</time></trkpt><trkpt lat="46.031261127993766" lon="12.206022961948506"><ele>870.6666666666667</ele><time>2026-03-23T09:47:41Z</time></trkpt><trkpt lat="46.031308285369526" lon="12.205958688102374"><ele>870.3333333333334</ele><time>2026-03-23T09:47:41.999Z</time></trkpt><trkpt lat="46.03136793341631" lon="12.205909705256515"><ele>870.0</ele><time>2026-03-23T09:47:42.999Z</time></trkpt><trkpt lat="46.0314396954628" lon="12.205883973578072"><ele>870.0</ele><time>2026-03-23T09:47:43.999Z</time></trkpt><trkpt lat="46.0315246767091" lon="12.205869782542424"><ele>870.0</ele><time>2026-03-23T09:47:44.999Z</time></trkpt><trkpt lat="46.031604959219024" lon="12.205844682266164"><ele>870.0</ele><time>2026-03-23T09:47:45.999Z</time></trkpt><trkpt lat="46.031680679267104" lon="12.205804166348992"><ele>870.0</ele><time>2026-03-23T09:47:46.999Z</time></trkpt><trkpt lat="46.03174567680937" lon="12.205748032077798"><ele>870.0</ele><time>2026-03-23T09:47:47.999Z</time></trkpt><trkpt lat="46.03179614643119" lon="12.20566433112064"><ele>870.0</ele><time>2026-03-23T09:47:48.999Z</time></trkpt><trkpt lat="46.03182603228547" lon="12.205561367470127"><ele>869.6666666666666</ele><time>2026-03-23T09:47:49.999Z</time></trkpt><trkpt lat="46.03185673257157" lon="12.20547679027029"><ele>869.3333333333333</ele><time>2026-03-23T09:47:51Z</time></trkpt><trkpt lat="46.03189958165073" lon="12.205397127678511"><ele>869.0</ele><time>2026-03-23T09:47:52Z</time></trkpt><trkpt lat="46.031957913553384" lon="12.20530182684286"><ele>868.6666666666666</ele><time>2026-03-23T09:47:53Z</time></trkpt><trkpt lat="46.03203239877183" lon="12.205229889647125"><ele>868.3333333333333</ele><time>2026-03-23T09:47:54Z</time></trkpt><trkpt lat="46.032129780774056" lon="12.205169219754335"><ele>868.0</ele><time>2026-03-23T09:47:55Z</time></trkpt><trkpt lat="46.032234141051674" lon="12.205114185130636"><ele>868.0</ele><time>2026-03-23T09:47:56Z</time></trkpt><trkpt lat="46.032326274012604" lon="12.205050963996172"><ele>868.0</ele><time>2026-03-23T09:47:57Z</time></trkpt><trkpt lat="46.03241379404708" lon="12.204962013822877"><ele>868.0</ele><time>2026-03-23T09:47:58Z</time></trkpt><trkpt lat="46.03250059073332" lon="12.20484986646684"><ele>868.0</ele><time>2026-03-23T09:47:59Z</time></trkpt><trkpt lat="46.03259645231061" lon="12.204744168455306"><ele>868.0</ele><time>2026-03-23T09:48:00Z</time></trkpt><trkpt lat="46.032698052045944" lon="12.20466258738198"><ele>865.0</ele><time>2026-03-23T09:48:01Z</time></trkpt><trkpt lat="46.032804378399575" lon="12.204590918376338"><ele>862.0</ele><time>2026-03-23T09:48:02Z</time></trkpt><trkpt lat="46.032916963190196" lon="12.20449572651227"><ele>859.0</ele><time>2026-03-23T09:48:03Z</time></trkpt><trkpt lat="46.03301233289598" lon="12.20439062962441"><ele>856.0</ele><time>2026-03-23T09:48:04Z</time></trkpt><trkpt lat="46.03308579081338" lon="12.204327078955624"><ele>855.9999999999999</ele><time>2026-03-23T09:48:05Z</time></trkpt><trkpt lat="46.03315821424238" lon="12.204297358107722"><ele>856.0</ele><time>2026-03-23T09:48:06Z</time></trkpt><trkpt lat="46.03322974304024" lon="12.204284011025308"><ele>856.0</ele><time>2026-03-23T09:48:07Z</time></trkpt><trkpt lat="46.033306636820164" lon="12.204287566999596"><ele>856.0</ele><time>2026-03-23T09:48:08Z</time></trkpt><trkpt lat="46.03338458566983" lon="12.204286498412905"><ele>855.9999999999999</ele><time>2026-03-23T09:48:09Z</time></trkpt><trkpt lat="46.03345983963751" lon="12.204253442982605"><ele>856.0</ele><time>2026-03-23T09:48:10Z</time></trkpt><trkpt lat="46.03351979341476" lon="12.204190266280213"><ele>857.1999999999999</ele><time>2026-03-23T09:48:11Z</time></trkpt><trkpt lat="46.03357636381353" lon="12.204098421437275"><ele>858.3999999999999</ele><time>2026-03-23T09:48:12Z</time></trkpt><trkpt lat="46.03363178917571" lon="12.203975831530196"><ele>859.6</ele><time>2026-03-23T09:48:13Z</time></trkpt><trkpt lat="46.03368903561511" lon="12.203847724613517"><ele>860.8</ele><time>2026-03-23T09:48:14Z</time></trkpt><trkpt lat="46.03374284843925" lon="12.203721326234662"><ele>862.0</ele><time>2026-03-23T09:48:15Z</time></trkpt><trkpt lat="46.0338089190753" lon="12.203601815788241"><ele>858.8</ele><time>2026-03-23T09:48:16Z</time></trkpt><trkpt lat="46.03388632545674" lon="12.20349883491402"><ele>855.6</ele><time>2026-03-23T09:48:17Z</time></trkpt><trkpt lat="46.0339642497576" lon="12.203403692884153"><ele>852.4</ele><time>2026-03-23T09:48:18Z</time></trkpt><trkpt lat="46.034054506660894" lon="12.203306166710588"><ele>849.1999999999999</ele><time>2026-03-23T09:48:19Z</time></trkpt><trkpt lat="46.03415586798131" lon="12.203204833259191"><ele>846.0</ele><time>2026-03-23T09:48:20Z</time></trkpt><trkpt lat="46.03425813022751" lon="12.203121269264601"><ele>841.1999999999999</ele><time>2026-03-23T09:48:21Z</time></trkpt><trkpt lat="46.03436589467975" lon="12.203056958265408"><ele>836.4</ele><time>2026-03-23T09:48:22Z</time></trkpt><trkpt lat="46.034468787155696" lon="12.20299682370614"><ele>831.6</ele><time>2026-03-23T09:48:23Z</time></trkpt><trkpt lat="46.03456487794089" lon="12.202936281560287"><ele>826.8</ele><time>2026-03-23T09:48:24Z</time></trkpt><trkpt lat="46.034649712237425" lon="12.202876319478722"><ele>822.0</ele><time>2026-03-23T09:48:25Z</time></trkpt><trkpt lat="46.03472888405635" lon="12.202817308240473"><ele>822.0</ele><time>2026-03-23T09:48:26Z</time></trkpt><trkpt lat="46.034809093424066" lon="12.202774285054087"><ele>822.0</ele><time>2026-03-23T09:48:27Z</time></trkpt><trkpt lat="46.034893847518454" lon="12.202739405119807"><ele>822.0</ele><time>2026-03-23T09:48:28Z</time></trkpt><trkpt lat="46.03496779708725" lon="12.202710417131874"><ele>822.0</ele><time>2026-03-23T09:48:29Z</time></trkpt><trkpt lat="46.03505082074048" lon="12.202664812580903"><ele>822.0</ele><time>2026-03-23T09:48:30Z</time></trkpt><trkpt lat="46.03512207412235" lon="12.202604891624295"><ele>822.0</ele><time>2026-03-23T09:48:31Z</time></trkpt><trkpt lat="46.035183411638656" lon="12.202528292765152"><ele>820.3333333333334</ele><time>2026-03-23T09:48:32Z</time></trkpt><trkpt lat="46.03523339337723" lon="12.202442048169095"><ele>818.6666666666667</ele><time>2026-03-23T09:48:33Z</time></trkpt><trkpt lat="46.03527030174644" lon="12.2023682027148"><ele>817.0</ele><time>2026-03-23T09:48:34Z</time></trkpt><trkpt lat="46.03529721079" lon="12.20226070295779"><ele>815.3333333333334</ele><time>2026-03-23T09:48:40Z</time></trkpt><trkpt lat="46.03530016182343" lon="12.202166643817996"><ele>813.6666666666667</ele><time>2026-03-23T09:48:42Z</time></trkpt><trkpt lat="46.035304580192495" lon="12.202056353511729"><ele>812.0</ele><time>2026-03-23T09:48:44Z</time></trkpt><trkpt lat="46.03531988139655" lon="12.201932021650816"><ele>812.0000000000001</ele><time>2026-03-23T09:48:46Z</time></trkpt><trkpt lat="46.03536729368243" lon="12.201785100980867"><ele>812.0</ele><time>2026-03-23T09:48:48Z</time></trkpt><trkpt lat="46.03541942977849" lon="12.201711070401664"><ele>812.0</ele><time>2026-03-23T09:48:49Z</time></trkpt><trkpt lat="46.03547913765286" lon="12.201650828598549"><ele>812.0</ele><time>2026-03-23T09:48:50Z</time></trkpt><trkpt lat="46.03555338469175" lon="12.201601895774312"><ele>812.0000000000001</ele><time>2026-03-23T09:48:51Z</time></trkpt><trkpt lat="46.0356345347106" lon="12.201565436930359"><ele>812.0</ele><time>2026-03-23T09:48:52Z</time></trkpt><trkpt lat="46.03571660745762" lon="12.201526464783552"><ele>808.2</ele><time>2026-03-23T09:48:53Z</time></trkpt><trkpt lat="46.03580166471654" lon="12.201493263634246"><ele>804.4000000000001</ele><time>2026-03-23T09:48:54Z</time></trkpt><trkpt lat="46.035891187314085" lon="12.201453587694607"><ele>800.5999999999999</ele><time>2026-03-23T09:48:55Z</time></trkpt><trkpt lat="46.035989785356485" lon="12.201404737803923"><ele>796.8</ele><time>2026-03-23T09:48:56Z</time></trkpt><trkpt lat="46.03609069699237" lon="12.201357564713062"><ele>793.0</ele><time>2026-03-23T09:48:57Z</time></trkpt><trkpt lat="46.036186789576455" lon="12.201310443363788"><ele>792.9999999999999</ele><time>2026-03-23T09:48:58Z</time></trkpt><trkpt lat="46.03627369689591" lon="12.201266356655605"><ele>793.0</ele><time>2026-03-23T09:48:59Z</time></trkpt><trkpt lat="46.03635841577485" lon="12.201227250871646"><ele>793.0</ele><time>2026-03-23T09:49:00Z</time></trkpt><trkpt lat="46.03644224113941" lon="12.201185300266037"><ele>793.0</ele><time>2026-03-23T09:49:01Z</time></trkpt><trkpt lat="46.036530322858" lon="12.201146713076128"><ele>792.9999999999999</ele><time>2026-03-23T09:49:02Z</time></trkpt><trkpt lat="46.03661357043825" lon="12.201115586717345"><ele>793.0</ele><time>2026-03-23T09:49:03Z</time></trkpt><trkpt lat="46.03669617840144" lon="12.201081644463452"><ele>794.1666666666666</ele><time>2026-03-23T09:49:04Z</time></trkpt><trkpt lat="46.036775249816635" lon="12.201045872426501"><ele>795.3333333333333</ele><time>2026-03-23T09:49:05Z</time></trkpt><trkpt lat="46.03685211319901" lon="12.201007890504304"><ele>796.5</ele><time>2026-03-23T09:49:06Z</time></trkpt><trkpt lat="46.03692887378228" lon="12.200973849253703"><ele>797.6666666666667</ele><time>2026-03-23T09:49:07Z</time></trkpt><trkpt lat="46.03701239017196" lon="12.200948731521239"><ele>798.8333333333334</ele><time>2026-03-23T09:49:08Z</time></trkpt><trkpt lat="46.03710250924498" lon="12.200926758766071"><ele>800.0</ele><time>2026-03-23T09:49:09Z</time></trkpt><trkpt lat="46.037200768522965" lon="12.200904413771918"><ele>800.0</ele><time>2026-03-23T09:49:10Z</time></trkpt><trkpt lat="46.037302586412906" lon="12.200886479591508"><ele>800.0</ele><time>2026-03-23T09:49:11Z</time></trkpt><trkpt lat="46.03740778086308" lon="12.200879077698218"><ele>800.0</ele><time>2026-03-23T09:49:12Z</time></trkpt><trkpt lat="46.03750909991228" lon="12.200882616796967"><ele>800.0</ele><time>2026-03-23T09:49:13Z</time></trkpt><trkpt lat="46.03761280708408" lon="12.200893514636991"><ele>800.0</ele><time>2026-03-23T09:49:14Z</time></trkpt><trkpt lat="46.03771249043406" lon="12.200917711089142"><ele>798.8</ele><time>2026-03-23T09:49:15Z</time></trkpt><trkpt lat="46.03781342273639" lon="12.200930361861603"><ele>797.6</ele><time>2026-03-23T09:49:16Z</time></trkpt><trkpt lat="46.03791786054982" lon="12.200924376931503"><ele>796.4000000000001</ele><time>2026-03-23T09:49:17Z</time></trkpt><trkpt lat="46.038023162948974" lon="12.200912330448732"><ele>795.2</ele><time>2026-03-23T09:49:18Z</time></trkpt><trkpt lat="46.038135684907026" lon="12.200899301985615"><ele>794.0</ele><time>2026-03-23T09:49:19Z</time></trkpt><trkpt lat="46.03825681949354" lon="12.200904362715782"><ele>791.0</ele><time>2026-03-23T09:49:20Z</time></trkpt><trkpt lat="46.038387616976564" lon="12.200900141522554"><ele>788.0</ele><time>2026-03-23T09:49:21Z</time></trkpt><trkpt lat="46.03852229364231" lon="12.200891628195315"><ele>785.0</ele><time>2026-03-23T09:49:22Z</time></trkpt><trkpt lat="46.038635748918196" lon="12.200868090730882"><ele>782.0</ele><time>2026-03-23T09:49:23Z</time></trkpt><trkpt lat="46.03873847241793" lon="12.200830193941103"><ele>782.0000000000001</ele><time>2026-03-23T09:49:24Z</time></trkpt><trkpt lat="46.03881827524403" lon="12.200787563034647"><ele>782.0</ele><time>2026-03-23T09:49:25Z</time></trkpt><trkpt lat="46.03889662463907" lon="12.20076276447254"><ele>782.0</ele><time>2026-03-23T09:49:27Z</time></trkpt><trkpt lat="46.03892483654249" lon="12.20088583422609"><ele>782.0</ele><time>2026-03-23T09:49:31Z</time></trkpt><trkpt lat="46.03892086683636" lon="12.201006549595995"><ele>782.0000000000001</ele><time>2026-03-23T09:49:32Z</time></trkpt><trkpt lat="46.038902407023116" lon="12.201158717111877"><ele>782.0</ele><time>2026-03-23T09:49:33Z</time></trkpt><trkpt lat="46.03890631577313" lon="12.201317841951822"><ele>782.0</ele><time>2026-03-23T09:49:34Z</time></trkpt><trkpt lat="46.03892849991193" lon="12.201477267643037"><ele>782.0</ele><time>2026-03-23T09:49:35Z</time></trkpt><trkpt lat="46.038970422990154" lon="12.201680386596488"><ele>782.0</ele><time>2026-03-23T09:49:36Z</time></trkpt><trkpt lat="46.03904496513133" lon="12.201859022841642"><ele>782.0</ele><time>2026-03-23T09:49:37Z</time></trkpt><trkpt lat="46.03915833974745" lon="12.202063057404539"><ele>783.0</ele><time>2026-03-23T09:49:38Z</time></trkpt><trkpt lat="46.039272828633194" lon="12.20224990014655"><ele>784.0</ele><time>2026-03-23T09:49:39Z</time></trkpt><trkpt lat="46.03935473658528" lon="12.20240953295003"><ele>785.0</ele><time>2026-03-23T09:49:40Z</time></trkpt><trkpt lat="46.039415673855075" lon="12.202567746887723"><ele>786.0</ele><time>2026-03-23T09:49:41Z</time></trkpt><trkpt lat="46.03946413866866" lon="12.202742037361046"><ele>790.0</ele><time>2026-03-23T09:49:42Z</time></trkpt><trkpt lat="46.03949037603424" lon="12.202931541324244"><ele>794.0</ele><time>2026-03-23T09:49:43Z</time></trkpt><trkpt lat="46.03950538091658" lon="12.203156694248428"><ele>798.0</ele><time>2026-03-23T09:49:44Z</time></trkpt><trkpt lat="46.03951370087554" lon="12.203430941871115"><ele>803.6666666666667</ele><time>2026-03-23T09:49:45Z</time></trkpt><trkpt lat="46.039519785104716" lon="12.203749317087633"><ele>809.3333333333334</ele><time>2026-03-23T09:49:46Z</time></trkpt><trkpt lat="46.03952630652831" lon="12.204006930269966"><ele>815.0</ele><time>2026-03-23T09:49:47Z</time></trkpt><trkpt lat="46.039530896879015" lon="12.204214404787239"><ele>818.0</ele><time>2026-03-23T09:49:48Z</time></trkpt><trkpt lat="46.03952934616296" lon="12.20439773682361"><ele>821.0</ele><time>2026-03-23T09:49:49Z</time></trkpt><trkpt lat="46.03954968927955" lon="12.20454713637613"><ele>824.0</ele><time>2026-03-23T09:49:50Z</time></trkpt><trkpt lat="46.039595245967966" lon="12.204690851010373"><ele>827.0</ele><time>2026-03-23T09:49:51Z</time></trkpt><trkpt lat="46.03963732314428" lon="12.204799486709629"><ele>830.0</ele><time>2026-03-23T09:49:52Z</time></trkpt><trkpt lat="46.0397160179846" lon="12.20488883466224"><ele>829.0</ele><time>2026-03-23T09:49:52.999Z</time></trkpt><trkpt lat="46.03981386820202" lon="12.20499281667692"><ele>828.0</ele><time>2026-03-23T09:49:53.999Z</time></trkpt><trkpt lat="46.03993275447996" lon="12.205087102791948"><ele>827.0</ele><time>2026-03-23T09:49:54.999Z</time></trkpt><trkpt lat="46.040041640309795" lon="12.205171129044553"><ele>826.0</ele><time>2026-03-23T09:49:55.999Z</time></trkpt><trkpt lat="46.0401181260863" lon="12.205251617951854"><ele>826.0</ele><time>2026-03-23T09:49:57Z</time></trkpt><trkpt lat="46.04019233494813" lon="12.205342855473605"><ele>826.0</ele><time>2026-03-23T09:49:58Z</time></trkpt><trkpt lat="46.040264455964284" lon="12.205432811315884"><ele>826.0</ele><time>2026-03-23T09:49:59Z</time></trkpt><trkpt lat="46.040331181603165" lon="12.205524691312855"><ele>826.0</ele><time>2026-03-23T09:50:00Z</time></trkpt><trkpt lat="46.04040259985983" lon="12.205622451741291"><ele>826.0</ele><time>2026-03-23T09:50:01Z</time></trkpt><trkpt lat="46.04049907406281" lon="12.205738676724735"><ele>828.0</ele><time>2026-03-23T09:50:02Z</time></trkpt><trkpt lat="46.040603331484604" lon="12.205872295074299"><ele>830.0</ele><time>2026-03-23T09:50:03Z</time></trkpt><trkpt lat="46.0407127234298" lon="12.206017664385552"><ele>832.0</ele><time>2026-03-23T09:50:04Z</time></trkpt><trkpt lat="46.04081609071491" lon="12.206158978510727"><ele>834.0</ele><time>2026-03-23T09:50:05Z</time></trkpt><trkpt lat="46.04090842731634" lon="12.20629866734222"><ele>834.0</ele><time>2026-03-23T09:50:06Z</time></trkpt><trkpt lat="46.04097966428272" lon="12.206428603966824"><ele>834.0</ele><time>2026-03-23T09:50:07Z</time></trkpt><trkpt lat="46.04103941074589" lon="12.206551739254781"><ele>834.0</ele><time>2026-03-23T09:50:08Z</time></trkpt><trkpt lat="46.041096440808" lon="12.20666596712271"><ele>834.0</ele><time>2026-03-23T09:50:09Z</time></trkpt><trkpt lat="46.04114922498285" lon="12.206781870253327"><ele>834.0</ele><time>2026-03-23T09:50:10Z</time></trkpt><trkpt lat="46.04120520911174" lon="12.206906858148434"><ele>834.8000000000001</ele><time>2026-03-23T09:50:11Z</time></trkpt><trkpt lat="46.041265390445425" lon="12.207040244523133"><ele>835.6</ele><time>2026-03-23T09:50:12Z</time></trkpt><trkpt lat="46.041315998284325" lon="12.20716687786815"><ele>836.4</ele><time>2026-03-23T09:50:13Z</time></trkpt><trkpt lat="46.04136490251101" lon="12.20729094339089"><ele>837.2</ele><time>2026-03-23T09:50:14Z</time></trkpt><trkpt lat="46.04140418991158" lon="12.20738335343739"><ele>838.0</ele><time>2026-03-23T09:50:15Z</time></trkpt><trkpt lat="46.04140074414511" lon="12.20748079483333"><ele>838.3333333333333</ele><time>2026-03-23T09:50:26Z</time></trkpt><trkpt lat="46.04134340757388" lon="12.207439403012948"><ele>838.6666666666666</ele><time>2026-03-23T09:53:10Z</time></trkpt><trkpt lat="46.041280766687336" lon="12.207401999167267"><ele>839.0</ele><time>2026-03-23T09:53:13Z</time></trkpt><trkpt lat="46.04127207245983" lon="12.20751006247073"><ele>839.3333333333333</ele><time>2026-03-23T09:53:16Z</time></trkpt><trkpt lat="46.041330129856" lon="12.207632502074677"><ele>839.6666666666666</ele><time>2026-03-23T09:53:18Z</time></trkpt><trkpt lat="46.04139454996719" lon="12.2077517228787"><ele>840.0</ele><time>2026-03-23T09:53:20Z</time></trkpt><trkpt lat="46.04144370845988" lon="12.20785709753026"><ele>840.0</ele><time>2026-03-23T09:53:21.999Z</time></trkpt><trkpt lat="46.041480653712" lon="12.207931141110166"><ele>840.0</ele><time>2026-03-23T09:53:22.999Z</time></trkpt><trkpt lat="46.041509846457885" lon="12.208015034554327"><ele>840.0</ele><time>2026-03-23T09:53:23.999Z</time></trkpt><trkpt lat="46.041562831001855" lon="12.208148116907632"><ele>840.0</ele><time>2026-03-23T09:53:25.999Z</time></trkpt><trkpt lat="46.04161097463686" lon="12.20820824567814"><ele>840.0</ele><time>2026-03-23T09:53:26.999Z</time></trkpt><trkpt lat="46.04166696623432" lon="12.208258841375512"><ele>840.0</ele><time>2026-03-23T09:53:27.999Z</time></trkpt><trkpt lat="46.04173019322115" lon="12.208296498322227"><ele>840.0</ele><time>2026-03-23T09:53:28.999Z</time></trkpt><trkpt lat="46.04179617982765" lon="12.208307760293708"><ele>838.8</ele><time>2026-03-23T09:53:29.999Z</time></trkpt><trkpt lat="46.0418927309494" lon="12.208295928364404"><ele>837.6</ele><time>2026-03-23T09:53:31.999Z</time></trkpt><trkpt lat="46.04197520871797" lon="12.20822775911227"><ele>836.4000000000001</ele><time>2026-03-23T09:53:33.999Z</time></trkpt><trkpt lat="46.04207065522367" lon="12.208182798402278"><ele>835.2</ele><time>2026-03-23T09:53:35.999Z</time></trkpt><trkpt lat="46.04214884286202" lon="12.20819679185549"><ele>834.0</ele><time>2026-03-23T09:53:37.999Z</time></trkpt><trkpt lat="46.04226747840852" lon="12.208274130643444"><ele>834.0</ele><time>2026-03-23T09:53:39.999Z</time></trkpt><trkpt lat="46.04233666859991" lon="12.208339983762462"><ele>834.0</ele><time>2026-03-23T09:53:40.999Z</time></trkpt><trkpt lat="46.042398927926584" lon="12.208436250194058"><ele>834.0</ele><time>2026-03-23T09:53:41.999Z</time></trkpt><trkpt lat="46.04245901963084" lon="12.208522002711774"><ele>834.0</ele><time>2026-03-23T09:53:42.999Z</time></trkpt><trkpt lat="46.04252582224521" lon="12.208603020154353"><ele>834.0</ele><time>2026-03-23T09:53:43.999Z</time></trkpt><trkpt lat="46.04259905030042" lon="12.20867608289755"><ele>834.0</ele><time>2026-03-23T09:53:44.999Z</time></trkpt><trkpt lat="46.04267212324632" lon="12.208739977637284"><ele>833.8333333333334</ele><time>2026-03-23T09:53:45.999Z</time></trkpt><trkpt lat="46.042742899435865" lon="12.208798625828342"><ele>833.6666666666667</ele><time>2026-03-23T09:53:46.999Z</time></trkpt><trkpt lat="46.04281520938866" lon="12.208851220578326"><ele>833.5</ele><time>2026-03-23T09:53:47.999Z</time></trkpt><trkpt lat="46.042880998736614" lon="12.208914557709805"><ele>833.3333333333334</ele><time>2026-03-23T09:53:48.999Z</time></trkpt><trkpt lat="46.042937391565324" lon="12.208994680952497"><ele>833.1666666666667</ele><time>2026-03-23T09:53:49.999Z</time></trkpt><trkpt lat="46.04298297731138" lon="12.209080661750686"><ele>833.0</ele><time>2026-03-23T09:53:50.999Z</time></trkpt><trkpt lat="46.04301538539678" lon="12.209173903810594"><ele>834.0000000000001</ele><time>2026-03-23T09:53:51.999Z</time></trkpt><trkpt lat="46.04304121831351" lon="12.209278745391902"><ele>835.0</ele><time>2026-03-23T09:53:52.999Z</time></trkpt><trkpt lat="46.04306684248133" lon="12.209380596618853"><ele>836.0</ele><time>2026-03-23T09:53:53.999Z</time></trkpt><trkpt lat="46.043098924154066" lon="12.209486309037777"><ele>837.0</ele><time>2026-03-23T09:53:54.999Z</time></trkpt><trkpt lat="46.0431316153283" lon="12.209597302106717"><ele>838.0000000000001</ele><time>2026-03-23T09:53:55.999Z</time></trkpt><trkpt lat="46.04316224192385" lon="12.209698432208459"><ele>839.0</ele><time>2026-03-23T09:53:56.999Z</time></trkpt><trkpt lat="46.04319309423752" lon="12.209808848186864"><ele>841.0000000000001</ele><time>2026-03-23T09:53:57.999Z</time></trkpt><trkpt lat="46.04322322048446" lon="12.209914204388419"><ele>843.0</ele><time>2026-03-23T09:53:58.999Z</time></trkpt><trkpt lat="46.04324933212648" lon="12.21001112710113"><ele>845.0</ele><time>2026-03-23T09:53:59.999Z</time></trkpt><trkpt lat="46.043268349283665" lon="12.210105186436186"><ele>847.0</ele><time>2026-03-23T09:54:00.999Z</time></trkpt><trkpt lat="46.04327371654816" lon="12.210203734127575"><ele>849.0000000000001</ele><time>2026-03-23T09:54:01.999Z</time></trkpt><trkpt lat="46.04325789976146" lon="12.21039017066296"><ele>851.0</ele><time>2026-03-23T09:54:03.999Z</time></trkpt><trkpt lat="46.04325044621295" lon="12.2104817862101"><ele>851.0</ele><time>2026-03-23T09:54:04.999Z</time></trkpt><trkpt lat="46.04323291797632" lon="12.210582769868296"><ele>851.0</ele><time>2026-03-23T09:54:05.999Z</time></trkpt><trkpt lat="46.04320508272323" lon="12.210668008874793"><ele>851.0</ele><time>2026-03-23T09:54:06.999Z</time></trkpt><trkpt lat="46.04316408059276" lon="12.21074866240972"><ele>851.0</ele><time>2026-03-23T09:54:07.999Z</time></trkpt><trkpt lat="46.04310685075042" lon="12.210830205702704"><ele>851.0</ele><time>2026-03-23T09:54:08.999Z</time></trkpt><trkpt lat="46.04305156124595" lon="12.210901331397118"><ele>851.0</ele><time>2026-03-23T09:54:09.999Z</time></trkpt><trkpt lat="46.04299227599435" lon="12.210977656800885"><ele>851.0</ele><time>2026-03-23T09:54:10.999Z</time></trkpt><trkpt lat="46.04293810606263" lon="12.21105754202941"><ele>853.3333333333334</ele><time>2026-03-23T09:54:11.999Z</time></trkpt><trkpt lat="46.042885894635035" lon="12.21114502761642"><ele>855.6666666666667</ele><time>2026-03-23T09:54:12.999Z</time></trkpt><trkpt lat="46.04284070449494" lon="12.21123155354877"><ele>858.0</ele><time>2026-03-23T09:54:13.999Z</time></trkpt><trkpt lat="46.04279022947568" lon="12.211326181712932"><ele>860.3333333333333</ele><time>2026-03-23T09:54:14.999Z</time></trkpt><trkpt lat="46.04275354654979" lon="12.211429140387025"><ele>862.6666666666666</ele><time>2026-03-23T09:54:15.999Z</time></trkpt><trkpt lat="46.04272823399092" lon="12.211528059880644"><ele>865.0</ele><time>2026-03-23T09:54:17Z</time></trkpt><trkpt lat="46.04273261325863" lon="12.211631816979178"><ele>866.4</ele><time>2026-03-23T09:54:18Z</time></trkpt><trkpt lat="46.0427678206687" lon="12.211748143195454"><ele>867.8</ele><time>2026-03-23T09:54:19Z</time></trkpt><trkpt lat="46.042812594293565" lon="12.21187770345456"><ele>869.2</ele><time>2026-03-23T09:54:20Z</time></trkpt><trkpt lat="46.04286157247384" lon="12.212046561541847"><ele>870.6</ele><time>2026-03-23T09:54:21Z</time></trkpt><trkpt lat="46.042905442239864" lon="12.212209481569147"><ele>872.0</ele><time>2026-03-23T09:54:22Z</time></trkpt><trkpt lat="46.0429324781437" lon="12.212363691245871"><ele>874.6</ele><time>2026-03-23T09:54:23Z</time></trkpt><trkpt lat="46.04296446817689" lon="12.212509351608286"><ele>877.2</ele><time>2026-03-23T09:54:24Z</time></trkpt><trkpt lat="46.04299673743011" lon="12.212654104490593"><ele>879.8</ele><time>2026-03-23T09:54:25Z</time></trkpt><trkpt lat="46.04302062986869" lon="12.212806655329317"><ele>882.4</ele><time>2026-03-23T09:54:26Z</time></trkpt><trkpt lat="46.04304973602105" lon="12.212972517069542"><ele>885.0</ele><time>2026-03-23T09:54:27Z</time></trkpt><trkpt lat="46.043069121260835" lon="12.213132016312413"><ele>887.4</ele><time>2026-03-23T09:54:28Z</time></trkpt><trkpt lat="46.04306756784694" lon="12.213290356066487"><ele>889.8</ele><time>2026-03-23T09:54:29Z</time></trkpt><trkpt lat="46.04305338335813" lon="12.213440907735938"><ele>892.2</ele><time>2026-03-23T09:54:30Z</time></trkpt><trkpt lat="46.04304076333939" lon="12.213589235443335"><ele>894.6</ele><time>2026-03-23T09:54:31Z</time></trkpt><trkpt lat="46.04301432767288" lon="12.213742498071293"><ele>897.0</ele><time>2026-03-23T09:54:32Z</time></trkpt><trkpt lat="46.042978882609745" lon="12.213893045053865"><ele>898.0</ele><time>2026-03-23T09:54:33Z</time></trkpt><trkpt lat="46.042966216213266" lon="12.214055181722605"><ele>899.0</ele><time>2026-03-23T09:54:34Z</time></trkpt><trkpt lat="46.04295556890702" lon="12.214226812329029"><ele>900.0</ele><time>2026-03-23T09:54:35Z</time></trkpt><trkpt lat="46.04296752410999" lon="12.214382697053905"><ele>901.0</ele><time>2026-03-23T09:54:36Z</time></trkpt><trkpt lat="46.0429919218114" lon="12.21454686991202"><ele>901.0</ele><time>2026-03-23T09:54:37Z</time></trkpt><trkpt lat="46.04301787148463" lon="12.214702639221933"><ele>900.9999999999999</ele><time>2026-03-23T09:54:38Z</time></trkpt><trkpt lat="46.04304597319059" lon="12.214849359983495"><ele>900.9999999999999</ele><time>2026-03-23T09:54:39Z</time></trkpt><trkpt lat="46.043073830072956" lon="12.214985773460194"><ele>901.0</ele><time>2026-03-23T09:54:40Z</time></trkpt><trkpt lat="46.0430871705902" lon="12.215121970846623"><ele>901.0</ele><time>2026-03-23T09:54:41Z</time></trkpt><trkpt lat="46.04308216316791" lon="12.215271783840539"><ele>902.25</ele><time>2026-03-23T09:54:42Z</time></trkpt><trkpt lat="46.04306265685616" lon="12.215441049643601"><ele>903.5</ele><time>2026-03-23T09:54:43Z</time></trkpt><trkpt lat="46.043033094183855" lon="12.215619980386656"><ele>904.75</ele><time>2026-03-23T09:54:44Z</time></trkpt><trkpt lat="46.043033491719385" lon="12.215795095354054"><ele>906.0</ele><time>2026-03-23T09:54:45Z</time></trkpt><trkpt lat="46.04306668183079" lon="12.215934752028323"><ele>907.25</ele><time>2026-03-23T09:54:46Z</time></trkpt><trkpt lat="46.043116944536195" lon="12.21611998158045"><ele>908.5</ele><time>2026-03-23T09:54:47Z</time></trkpt><trkpt lat="46.04318288013548" lon="12.216311770958377"><ele>909.75</ele><time>2026-03-23T09:54:48Z</time></trkpt><trkpt lat="46.04322836797288" lon="12.216450361177904"><ele>911.0</ele><time>2026-03-23T09:54:49Z</time></trkpt><trkpt lat="46.043241227101" lon="12.216557920196516"><ele>912.75</ele><time>2026-03-23T09:54:50Z</time></trkpt><trkpt lat="46.04320145872551" lon="12.216735222635048"><ele>914.5</ele><time>2026-03-23T09:54:52Z</time></trkpt><trkpt lat="46.043157494635885" lon="12.21687550226368"><ele>916.25</ele><time>2026-03-23T09:54:53Z</time></trkpt><trkpt lat="46.043096272614655" lon="12.217060665509907"><ele>918.0</ele><time>2026-03-23T09:54:54Z</time></trkpt><trkpt lat="46.04304841044055" lon="12.217265738401572"><ele>919.25</ele><time>2026-03-23T09:54:55Z</time></trkpt><trkpt lat="46.04300643168411" lon="12.217494430382954"><ele>920.5</ele><time>2026-03-23T09:54:56Z</time></trkpt><trkpt lat="46.04299125342509" lon="12.217692031220032"><ele>921.75</ele><time>2026-03-23T09:54:57Z</time></trkpt><trkpt lat="46.04299628608538" lon="12.217862806805185"><ele>923.0</ele><time>2026-03-23T09:54:58Z</time></trkpt><trkpt lat="46.04300880541135" lon="12.218066850815866"><ele>924.5</ele><time>2026-03-23T09:54:59Z</time></trkpt><trkpt lat="46.043030316429" lon="12.218292371612211"><ele>926.0</ele><time>2026-03-23T09:55:00Z</time></trkpt><trkpt lat="46.0430382554005" lon="12.218462380213646"><ele>927.5</ele><time>2026-03-23T09:55:01Z</time></trkpt><trkpt lat="46.04305283105936" lon="12.21861565934203"><ele>929.0</ele><time>2026-03-23T09:55:02Z</time></trkpt><trkpt lat="46.04307228219296" lon="12.218777979109403"><ele>929.0000000000001</ele><time>2026-03-23T09:55:03Z</time></trkpt><trkpt lat="46.04309684828198" lon="12.218892624546983"><ele>929.0</ele><time>2026-03-23T09:55:04Z</time></trkpt><trkpt lat="46.043115451161526" lon="12.21898778817607"><ele>929.0</ele><time>2026-03-23T09:55:05Z</time></trkpt><trkpt lat="46.043125689094445" lon="12.219080238159501"><ele>929.0</ele><time>2026-03-23T09:55:07.999Z</time></trkpt><trkpt lat="46.04317196910754" lon="12.219214843703172"><ele>929.0000000000001</ele><time>2026-03-23T09:55:14.999Z</time></trkpt><trkpt lat="46.043197109882755" lon="12.219337490176033"><ele>929.0</ele><time>2026-03-23T09:55:15.999Z</time></trkpt><trkpt lat="46.04321644065403" lon="12.219444882667306"><ele>928.3333333333334</ele><time>2026-03-23T09:55:16.999Z</time></trkpt><trkpt lat="46.04318468949138" lon="12.219568851887866"><ele>927.6666666666667</ele><time>2026-03-23T09:55:18.999Z</time></trkpt><trkpt lat="46.043160051369675" lon="12.219654961297925"><ele>927.0</ele><time>2026-03-23T09:55:19.999Z</time></trkpt><trkpt lat="46.043110192393655" lon="12.219742822020763"><ele>926.3333333333333</ele><time>2026-03-23T09:55:20.999Z</time></trkpt><trkpt lat="46.043063990193815" lon="12.219812164852467"><ele>925.6666666666666</ele><time>2026-03-23T09:55:21.999Z</time></trkpt><trkpt lat="46.04300138222115" lon="12.219882416742276"><ele>925.0</ele><time>2026-03-23T09:55:22.999Z</time></trkpt><trkpt lat="46.04292351200279" lon="12.219960284209133"><ele>922.4</ele><time>2026-03-23T09:55:23.999Z</time></trkpt><trkpt lat="46.042841488545804" lon="12.220010067710541"><ele>919.8</ele><time>2026-03-23T09:55:24.999Z</time></trkpt><trkpt lat="46.04274442414807" lon="12.220049109410489"><ele>917.2</ele><time>2026-03-23T09:55:25.999Z</time></trkpt><trkpt lat="46.04263478273955" lon="12.220064871941378"><ele>914.6</ele><time>2026-03-23T09:55:26.999Z</time></trkpt><trkpt lat="46.04249564213947" lon="12.220081462568256"><ele>912.0</ele><time>2026-03-23T09:55:27.999Z</time></trkpt><trkpt lat="46.04235679504888" lon="12.220105575824482"><ele>912.0</ele><time>2026-03-23T09:55:28.999Z</time></trkpt><trkpt lat="46.04222795733598" lon="12.22014014147089"><ele>912.0</ele><time>2026-03-23T09:55:29.999Z</time></trkpt><trkpt lat="46.042108577461335" lon="12.220178595215241"><ele>912.0</ele><time>2026-03-23T09:55:30.999Z</time></trkpt><trkpt lat="46.041996034805024" lon="12.220217474843986"><ele>912.0</ele><time>2026-03-23T09:55:31.999Z</time></trkpt><trkpt lat="46.04189125840486" lon="12.220253020251745"><ele>912.0</ele><time>2026-03-23T09:55:32.999Z</time></trkpt><trkpt lat="46.041793836062695" lon="12.220291085096205"><ele>912.0</ele><time>2026-03-23T09:55:33.999Z</time></trkpt><trkpt lat="46.04169905660366" lon="12.220354919604421"><ele>912.0</ele><time>2026-03-23T09:55:34.999Z</time></trkpt><trkpt lat="46.04160495761115" lon="12.220442311106561"><ele>912.0</ele><time>2026-03-23T09:55:35.999Z</time></trkpt><trkpt lat="46.04151948564678" lon="12.220549555986107"><ele>912.0</ele><time>2026-03-23T09:55:36.999Z</time></trkpt><trkpt lat="46.041422065776814" lon="12.220700029412782"><ele>910.25</ele><time>2026-03-23T09:55:37.999Z</time></trkpt><trkpt lat="46.04131794679947" lon="12.220860697834192"><ele>908.5</ele><time>2026-03-23T09:55:38.999Z</time></trkpt><trkpt lat="46.04122638589553" lon="12.2209863118546"><ele>906.75</ele><time>2026-03-23T09:55:39.999Z</time></trkpt><trkpt lat="46.04113403306048" lon="12.221100775398005"><ele>905.0</ele><time>2026-03-23T09:55:40.999Z</time></trkpt><trkpt lat="46.04103510459521" lon="12.22123600139862"><ele>905.0</ele><time>2026-03-23T09:55:41.999Z</time></trkpt><trkpt lat="46.040928185276556" lon="12.221373149111068"><ele>905.0</ele><time>2026-03-23T09:55:42.999Z</time></trkpt><trkpt lat="46.040847053247724" lon="12.221508488244721"><ele>905.0</ele><time>2026-03-23T09:55:43.999Z</time></trkpt><trkpt lat="46.04074815191306" lon="12.221652166948015"><ele>905.0</ele><time>2026-03-23T09:55:44.999Z</time></trkpt><trkpt lat="46.04064920258795" lon="12.221774258242824"><ele>904.25</ele><time>2026-03-23T09:55:45.999Z</time></trkpt><trkpt lat="46.04055891597287" lon="12.221898224132154"><ele>903.5</ele><time>2026-03-23T09:55:46.999Z</time></trkpt><trkpt lat="46.04046201307284" lon="12.22199813022962"><ele>902.75</ele><time>2026-03-23T09:55:47.999Z</time></trkpt><trkpt lat="46.04035290188579" lon="12.222090486351721"><ele>902.0</ele><time>2026-03-23T09:55:48.999Z</time></trkpt><trkpt lat="46.04023836741569" lon="12.222169830975917"><ele>902.0</ele><time>2026-03-23T09:55:49.999Z</time></trkpt><trkpt lat="46.04012374545679" lon="12.222241246900742"><ele>902.0</ele><time>2026-03-23T09:55:50.999Z</time></trkpt><trkpt lat="46.04000534133807" lon="12.22232078530937"><ele>902.0</ele><time>2026-03-23T09:55:51.999Z</time></trkpt><trkpt lat="46.03985890267819" lon="12.222400370650165"><ele>902.0</ele><time>2026-03-23T09:55:52.999Z</time></trkpt><trkpt lat="46.0396917770875" lon="12.222498626353383"><ele>901.6666666666667</ele><time>2026-03-23T09:55:53.999Z</time></trkpt><trkpt lat="46.03949293693556" lon="12.22259196886638"><ele>901.3333333333333</ele><time>2026-03-23T09:55:54.999Z</time></trkpt><trkpt lat="46.03929353185117" lon="12.222695239643352"><ele>901.0</ele><time>2026-03-23T09:55:55.999Z</time></trkpt><trkpt lat="46.03912949221823" lon="12.222783366516115"><ele>903.75</ele><time>2026-03-23T09:55:56.999Z</time></trkpt><trkpt lat="46.03898618223716" lon="12.22286447188886"><ele>906.5</ele><time>2026-03-23T09:55:57.999Z</time></trkpt><trkpt lat="46.03886420360764" lon="12.222950447816707"><ele>909.25</ele><time>2026-03-23T09:55:58.999Z</time></trkpt><trkpt lat="46.03874382333533" lon="12.2230375761851"><ele>912.0</ele><time>2026-03-23T09:55:59.999Z</time></trkpt><trkpt lat="46.038627538458314" lon="12.223100119721112"><ele>912.0</ele><time>2026-03-23T09:56:00.999Z</time></trkpt><trkpt lat="46.038532251915704" lon="12.22313639560105"><ele>912.0</ele><time>2026-03-23T09:56:01.999Z</time></trkpt><trkpt lat="46.03843888785014" lon="12.223148229444552"><ele>912.0</ele><time>2026-03-23T09:56:02.999Z</time></trkpt><trkpt lat="46.038335160352375" lon="12.223144779331005"><ele>912.0</ele><time>2026-03-23T09:56:03.999Z</time></trkpt><trkpt lat="46.038191020751334" lon="12.223102897467603"><ele>912.0</ele><time>2026-03-23T09:56:04.999Z</time></trkpt><trkpt lat="46.03804976476213" lon="12.223081347800683"><ele>915.0</ele><time>2026-03-23T09:56:05.999Z</time></trkpt><trkpt lat="46.03789722476018" lon="12.223091306486873"><ele>918.0</ele><time>2026-03-23T09:56:06.999Z</time></trkpt><trkpt lat="46.03773559147842" lon="12.223103873219408"><ele>921.0</ele><time>2026-03-23T09:56:07.999Z</time></trkpt><trkpt lat="46.03756309470736" lon="12.223128260520712"><ele>918.5</ele><time>2026-03-23T09:56:08.999Z</time></trkpt><trkpt lat="46.037400141645435" lon="12.223160683023517"><ele>916.0</ele><time>2026-03-23T09:56:09.999Z</time></trkpt><trkpt lat="46.037259445900794" lon="12.223183491288873"><ele>913.5</ele><time>2026-03-23T09:56:10.999Z</time></trkpt><trkpt lat="46.0371250420477" lon="12.223195552072585"><ele>911.0</ele><time>2026-03-23T09:56:11.999Z</time></trkpt><trkpt lat="46.03700845654873" lon="12.223210290326723"><ele>911.0</ele><time>2026-03-23T09:56:12.999Z</time></trkpt><trkpt lat="46.03689994822464" lon="12.223228460048015"><ele>911.0</ele><time>2026-03-23T09:56:13.999Z</time></trkpt><trkpt lat="46.036787656871034" lon="12.223239757608983"><ele>911.0</ele><time>2026-03-23T09:56:15Z</time></trkpt><trkpt lat="46.03667703557225" lon="12.2232557421089"><ele>911.0</ele><time>2026-03-23T09:56:16Z</time></trkpt><trkpt lat="46.03655786158213" lon="12.223271963670184"><ele>913.0</ele><time>2026-03-23T09:56:17Z</time></trkpt><trkpt lat="46.03642738935757" lon="12.22329076452942"><ele>915.0</ele><time>2026-03-23T09:56:18Z</time></trkpt><trkpt lat="46.03630878347775" lon="12.223311111990425"><ele>917.0</ele><time>2026-03-23T09:56:19Z</time></trkpt><trkpt lat="46.036186942442775" lon="12.223332862504337"><ele>919.0</ele><time>2026-03-23T09:56:20Z</time></trkpt><trkpt lat="46.036068530204204" lon="12.223341459993701"><ele>919.0</ele><time>2026-03-23T09:56:21Z</time></trkpt><trkpt lat="46.03595963148542" lon="12.223342828111916"><ele>919.0000000000001</ele><time>2026-03-23T09:56:22Z</time></trkpt><trkpt lat="46.03584578362553" lon="12.223315843993904"><ele>919.0000000000001</ele><time>2026-03-23T09:56:23Z</time></trkpt><trkpt lat="46.03573410826959" lon="12.223278185726935"><ele>919.0</ele><time>2026-03-23T09:56:24Z</time></trkpt><trkpt lat="46.035637808164864" lon="12.223236670573861"><ele>919.0</ele><time>2026-03-23T09:56:25Z</time></trkpt><trkpt lat="46.035559252689204" lon="12.223203866323207"><ele>919.6</ele><time>2026-03-23T09:56:26Z</time></trkpt><trkpt lat="46.03547270976536" lon="12.223178225176854"><ele>920.2</ele><time>2026-03-23T09:56:28Z</time></trkpt><trkpt lat="46.03535846123865" lon="12.223144125372233"><ele>920.8000000000001</ele><time>2026-03-23T09:56:30Z</time></trkpt><trkpt lat="46.035274002429766" lon="12.223122052074388"><ele>921.4000000000001</ele><time>2026-03-23T09:56:31Z</time></trkpt><trkpt lat="46.03517960342746" lon="12.223096953786344"><ele>922.0</ele><time>2026-03-23T09:56:32Z</time></trkpt><trkpt lat="46.03509607190143" lon="12.223075637561674"><ele>924.1666666666666</ele><time>2026-03-23T09:56:33Z</time></trkpt><trkpt lat="46.03501778184932" lon="12.223050590571695"><ele>926.3333333333333</ele><time>2026-03-23T09:56:34Z</time></trkpt><trkpt lat="46.03494837760736" lon="12.223024060933477"><ele>928.5</ele><time>2026-03-23T09:56:35Z</time></trkpt><trkpt lat="46.034833478678905" lon="12.222973582624476"><ele>930.6666666666667</ele><time>2026-03-23T09:56:37Z</time></trkpt><trkpt lat="46.03477190537437" lon="12.222952922370679"><ele>932.8333333333334</ele><time>2026-03-23T09:56:38Z</time></trkpt><trkpt lat="46.03470469778823" lon="12.222938246216435"><ele>935.0</ele><time>2026-03-23T09:56:39Z</time></trkpt><trkpt lat="46.03463537086526" lon="12.222925975847101"><ele>935.4</ele><time>2026-03-23T09:56:40Z</time></trkpt><trkpt lat="46.034558634856765" lon="12.22294446780564"><ele>935.8</ele><time>2026-03-23T09:56:41Z</time></trkpt><trkpt lat="46.03446782752074" lon="12.222961736505319"><ele>936.2</ele><time>2026-03-23T09:56:42Z</time></trkpt><trkpt lat="46.034351673447205" lon="12.2229808588263"><ele>936.6</ele><time>2026-03-23T09:56:43Z</time></trkpt><trkpt lat="46.03422406085871" lon="12.222991379051715"><ele>937.0</ele><time>2026-03-23T09:56:44Z</time></trkpt><trkpt lat="46.03409129032056" lon="12.222983565323446"><ele>937.6666666666666</ele><time>2026-03-23T09:56:45Z</time></trkpt><trkpt lat="46.033951895872136" lon="12.222985215025203"><ele>938.3333333333333</ele><time>2026-03-23T09:56:46Z</time></trkpt><trkpt lat="46.033779098876174" lon="12.223005009778438"><ele>939.0</ele><time>2026-03-23T09:56:47Z</time></trkpt><trkpt lat="46.033613126445395" lon="12.223019899401214"><ele>939.0</ele><time>2026-03-23T09:56:48Z</time></trkpt><trkpt lat="46.033464631840026" lon="12.223028959174368"><ele>939.0</ele><time>2026-03-23T09:56:49Z</time></trkpt><trkpt lat="46.03333025375242" lon="12.223043022165836"><ele>939.0</ele><time>2026-03-23T09:56:50Z</time></trkpt><trkpt lat="46.0332045978697" lon="12.223050321355053"><ele>939.0</ele><time>2026-03-23T09:56:51Z</time></trkpt><trkpt lat="46.03307902675242" lon="12.223059046055491"><ele>940.5</ele><time>2026-03-23T09:56:52Z</time></trkpt><trkpt lat="46.032955495376726" lon="12.223052319493535"><ele>942.0</ele><time>2026-03-23T09:56:53Z</time></trkpt><trkpt lat="46.032840998804254" lon="12.22303460858607"><ele>943.5</ele><time>2026-03-23T09:56:54Z</time></trkpt><trkpt lat="46.032718568925034" lon="12.223005403554652"><ele>945.0</ele><time>2026-03-23T09:56:55Z</time></trkpt><trkpt lat="46.032598494518716" lon="12.223005822109787"><ele>945.0</ele><time>2026-03-23T09:56:56Z</time></trkpt><trkpt lat="46.032479274049145" lon="12.223032556272832"><ele>945.0</ele><time>2026-03-23T09:56:57Z</time></trkpt><trkpt lat="46.03237086256455" lon="12.223083237565305"><ele>945.0</ele><time>2026-03-23T09:56:58Z</time></trkpt><trkpt lat="46.032266232435354" lon="12.223140395279572"><ele>945.0</ele><time>2026-03-23T09:56:59Z</time></trkpt><trkpt lat="46.03217369996783" lon="12.223210668783555"><ele>943.6666666666666</ele><time>2026-03-23T09:57:00Z</time></trkpt><trkpt lat="46.03210490819467" lon="12.223276601414186"><ele>942.3333333333333</ele><time>2026-03-23T09:57:01Z</time></trkpt><trkpt lat="46.032042546026375" lon="12.223333804774933"><ele>941.0</ele><time>2026-03-23T09:57:02Z</time></trkpt><trkpt lat="46.03197063663908" lon="12.223373028355615"><ele>939.6666666666666</ele><time>2026-03-23T09:57:03Z</time></trkpt><trkpt lat="46.03189572276639" lon="12.223405905789129"><ele>938.3333333333333</ele><time>2026-03-23T09:57:04Z</time></trkpt><trkpt lat="46.03180764564582" lon="12.223438391210491"><ele>937.0</ele><time>2026-03-23T09:57:05Z</time></trkpt><trkpt lat="46.031730727104836" lon="12.223441316564026"><ele>937.0</ele><time>2026-03-23T09:57:06Z</time></trkpt><trkpt lat="46.031640654692794" lon="12.223438475635698"><ele>937.0</ele><time>2026-03-23T09:57:07Z</time></trkpt><trkpt lat="46.03154208243647" lon="12.223453949684854"><ele>937.0</ele><time>2026-03-23T09:57:08Z</time></trkpt><trkpt lat="46.03142026693661" lon="12.223490797318622"><ele>937.0</ele><time>2026-03-23T09:57:09Z</time></trkpt><trkpt lat="46.031310737560375" lon="12.223533142650794"><ele>937.0</ele><time>2026-03-23T09:57:10Z</time></trkpt><trkpt lat="46.03121481072998" lon="12.223565718990404"><ele>937.2</ele><time>2026-03-23T09:57:11Z</time></trkpt><trkpt lat="46.03113665150742" lon="12.223614053000954"><ele>937.4000000000001</ele><time>2026-03-23T09:57:12Z</time></trkpt><trkpt lat="46.03106523472353" lon="12.223688807785352"><ele>937.5999999999999</ele><time>2026-03-23T09:57:13Z</time></trkpt><trkpt lat="46.03099519462915" lon="12.22380220972606"><ele>937.8</ele><time>2026-03-23T09:57:14Z</time></trkpt><trkpt lat="46.03092046914878" lon="12.223935953174127"><ele>938.0</ele><time>2026-03-23T09:57:15Z</time></trkpt><trkpt lat="46.030850110048284" lon="12.224065195991491"><ele>940.8</ele><time>2026-03-23T09:57:16Z</time></trkpt><trkpt lat="46.0307755973384" lon="12.224174431833687"><ele>943.5999999999999</ele><time>2026-03-23T09:57:17Z</time></trkpt><trkpt lat="46.03071132241012" lon="12.224275167884912"><ele>946.4000000000001</ele><time>2026-03-23T09:57:18Z</time></trkpt><trkpt lat="46.03065042276343" lon="12.224391809825484"><ele>949.2</ele><time>2026-03-23T09:57:19Z</time></trkpt><trkpt lat="46.03059077781286" lon="12.224490843134095"><ele>952.0</ele><time>2026-03-23T09:57:20Z</time></trkpt><trkpt lat="46.030523359778705" lon="12.224575454913204"><ele>951.9999999999999</ele><time>2026-03-23T09:57:21Z</time></trkpt><trkpt lat="46.03045817307679" lon="12.224657839610321"><ele>952.0</ele><time>2026-03-23T09:57:22Z</time></trkpt><trkpt lat="46.030395160898486" lon="12.224706464459302"><ele>952.0</ele><time>2026-03-23T09:57:23Z</time></trkpt><trkpt lat="46.03033205072881" lon="12.22472270472893"><ele>952.0</ele><time>2026-03-23T09:57:24Z</time></trkpt><trkpt lat="46.03025135722177" lon="12.224744103487765"><ele>951.9999999999999</ele><time>2026-03-23T09:57:25Z</time></trkpt><trkpt lat="46.03015863384858" lon="12.224762870590148"><ele>952.0</ele><time>2026-03-23T09:57:26Z</time></trkpt><trkpt lat="46.03004924490304" lon="12.224781280065075"><ele>952.8333333333333</ele><time>2026-03-23T09:57:27Z</time></trkpt><trkpt lat="46.02995278734358" lon="12.224797989941205"><ele>953.6666666666666</ele><time>2026-03-23T09:57:28Z</time></trkpt><trkpt lat="46.02986989772881" lon="12.224813322288348"><ele>954.5</ele><time>2026-03-23T09:57:28.999Z</time></trkpt><trkpt lat="46.029789788146815" lon="12.224831757307394"><ele>955.3333333333333</ele><time>2026-03-23T09:57:29.999Z</time></trkpt><trkpt lat="46.029724364011706" lon="12.224870806053117"><ele>956.1666666666666</ele><time>2026-03-23T09:57:30.999Z</time></trkpt><trkpt lat="46.02966401147431" lon="12.224940027909582"><ele>957.0</ele><time>2026-03-23T09:57:31.999Z</time></trkpt><trkpt lat="46.02961516483479" lon="12.225007267977242"><ele>953.8</ele><time>2026-03-23T09:57:32.999Z</time></trkpt><trkpt lat="46.029514033395536" lon="12.225089995581733"><ele>950.6</ele><time>2026-03-23T09:57:34.999Z</time></trkpt><trkpt lat="46.02938436900739" lon="12.22508679582246"><ele>947.3999999999999</ele><time>2026-03-23T09:57:36.999Z</time></trkpt><trkpt lat="46.029310835893945" lon="12.225069472573633"><ele>944.1999999999999</ele><time>2026-03-23T09:57:37.999Z</time></trkpt><trkpt lat="46.02922998668981" lon="12.225044379603931"><ele>941.0</ele><time>2026-03-23T09:57:38.999Z</time></trkpt><trkpt lat="46.02915374540819" lon="12.225035181481518"><ele>943.5000000000001</ele><time>2026-03-23T09:57:39.999Z</time></trkpt><trkpt lat="46.02906819293241" lon="12.225048529513543"><ele>946.0</ele><time>2026-03-23T09:57:40.999Z</time></trkpt><trkpt lat="46.028986509777916" lon="12.225083396953249"><ele>948.5</ele><time>2026-03-23T09:57:41.999Z</time></trkpt><trkpt lat="46.02890084695139" lon="12.22512798209013"><ele>951.0</ele><time>2026-03-23T09:57:42.999Z</time></trkpt><trkpt lat="46.02882403339897" lon="12.225171549054663"><ele>953.5000000000001</ele><time>2026-03-23T09:57:43.999Z</time></trkpt><trkpt lat="46.02873624385625" lon="12.225228256525902"><ele>956.0</ele><time>2026-03-23T09:57:44.999Z</time></trkpt><trkpt lat="46.028650213491595" lon="12.225272333417344"><ele>956.0</ele><time>2026-03-23T09:57:45.999Z</time></trkpt><trkpt lat="46.028563293214866" lon="12.225307754611558"><ele>955.9999999999999</ele><time>2026-03-23T09:57:46.999Z</time></trkpt><trkpt lat="46.02846849072083" lon="12.225350343302338"><ele>955.9999999999999</ele><time>2026-03-23T09:57:47.999Z</time></trkpt><trkpt lat="46.0283824845751" lon="12.225396935108538"><ele>956.0</ele><time>2026-03-23T09:57:48.999Z</time></trkpt><trkpt lat="46.02829041127194" lon="12.225448705591942"><ele>956.0</ele><time>2026-03-23T09:57:49.999Z</time></trkpt><trkpt lat="46.028192923679406" lon="12.225493162632821"><ele>956.1999999999999</ele><time>2026-03-23T09:57:50.999Z</time></trkpt><trkpt lat="46.02809194481086" lon="12.225558517267794"><ele>956.3999999999999</ele><time>2026-03-23T09:57:51.999Z</time></trkpt><trkpt lat="46.028011030508004" lon="12.225625090514955"><ele>956.6</ele><time>2026-03-23T09:57:52.999Z</time></trkpt><trkpt lat="46.02794218077471" lon="12.225692153834645"><ele>956.8</ele><time>2026-03-23T09:57:53.999Z</time></trkpt><trkpt lat="46.02787121210449" lon="12.225756338440737"><ele>957.0</ele><time>2026-03-23T09:57:55.999Z</time></trkpt><trkpt lat="46.02777255602074" lon="12.22581464944629"><ele>957.0</ele><time>2026-03-23T09:58:06.999Z</time></trkpt><trkpt lat="46.02770421664983" lon="12.225873914691292"><ele>957.0</ele><time>2026-03-23T09:58:07.999Z</time></trkpt><trkpt lat="46.02762887232469" lon="12.225941267245735"><ele>957.0</ele><time>2026-03-23T09:58:08.999Z</time></trkpt><trkpt lat="46.02755583692143" lon="12.226021654028763"><ele>957.0</ele><time>2026-03-23T09:58:09.999Z</time></trkpt><trkpt lat="46.027486075743944" lon="12.226101538457229"><ele>957.0</ele><time>2026-03-23T09:58:10.999Z</time></trkpt><trkpt lat="46.027412601567605" lon="12.226181098833477"><ele>957.0</ele><time>2026-03-23T09:58:11.999Z</time></trkpt><trkpt lat="46.0273335383091" lon="12.226263128479669"><ele>956.3333333333334</ele><time>2026-03-23T09:58:12.999Z</time></trkpt><trkpt lat="46.027249450511505" lon="12.226339098753439"><ele>955.6666666666667</ele><time>2026-03-23T09:58:13.999Z</time></trkpt><trkpt lat="46.027176604148345" lon="12.226411677014017"><ele>955.0</ele><time>2026-03-23T09:58:14.999Z</time></trkpt><trkpt lat="46.02710956267438" lon="12.2264791392553"><ele>954.3333333333334</ele><time>2026-03-23T09:58:15.999Z</time></trkpt><trkpt lat="46.02705611071629" lon="12.22653984863656"><ele>953.6666666666667</ele><time>2026-03-23T09:58:16.999Z</time></trkpt><trkpt lat="46.026988268162484" lon="12.226583814482758"><ele>953.0</ele><time>2026-03-23T09:58:17.999Z</time></trkpt><trkpt lat="46.02689553769005" lon="12.226625777809865"><ele>953.0</ele><time>2026-03-23T09:58:18.999Z</time></trkpt><trkpt lat="46.02678336383959" lon="12.22667037155587"><ele>953.0</ele><time>2026-03-23T09:58:19.999Z</time></trkpt><trkpt lat="46.02667018389002" lon="12.226698954961199"><ele>953.0</ele><time>2026-03-23T09:58:21Z</time></trkpt><trkpt lat="46.026545856848024" lon="12.226721529047982"><ele>953.0</ele><time>2026-03-23T09:58:22Z</time></trkpt><trkpt lat="46.0264111876459" lon="12.22672884271364"><ele>956.25</ele><time>2026-03-23T09:58:23Z</time></trkpt><trkpt lat="46.026286727544424" lon="12.22673866845856"><ele>959.5</ele><time>2026-03-23T09:58:24Z</time></trkpt><trkpt lat="46.026173369591284" lon="12.226772517679848"><ele>962.75</ele><time>2026-03-23T09:58:25Z</time></trkpt><trkpt lat="46.02606155675246" lon="12.226805785269427"><ele>966.0</ele><time>2026-03-23T09:58:26Z</time></trkpt><trkpt lat="46.02595511022647" lon="12.22683156219786"><ele>966.0</ele><time>2026-03-23T09:58:27Z</time></trkpt><trkpt lat="46.02586098891138" lon="12.226862792500265"><ele>965.9999999999999</ele><time>2026-03-23T09:58:28Z</time></trkpt><trkpt lat="46.0257765328211" lon="12.226916049603318"><ele>965.9999999999999</ele><time>2026-03-23T09:58:29Z</time></trkpt><trkpt lat="46.02567479408767" lon="12.226982882293306"><ele>966.0</ele><time>2026-03-23T09:58:30Z</time></trkpt><trkpt lat="46.02558830747091" lon="12.227062354845803"><ele>966.0</ele><time>2026-03-23T09:58:31Z</time></trkpt><trkpt lat="46.025515669611416" lon="12.227126204982195"><ele>967.8333333333334</ele><time>2026-03-23T09:58:32Z</time></trkpt><trkpt lat="46.02545413103468" lon="12.227172849738682"><ele>969.6666666666667</ele><time>2026-03-23T09:58:33Z</time></trkpt><trkpt lat="46.0253827769874" lon="12.227269800515984"><ele>971.5</ele><time>2026-03-23T09:58:35Z</time></trkpt><trkpt lat="46.02529653654226" lon="12.22730902459197"><ele>973.3333333333334</ele><time>2026-03-23T09:58:37Z</time></trkpt><trkpt lat="46.02523197655197" lon="12.227285307863854"><ele>975.1666666666667</ele><time>2026-03-23T09:58:38Z</time></trkpt><trkpt lat="46.025162133064455" lon="12.227240017536671"><ele>977.0</ele><time>2026-03-23T09:58:39Z</time></trkpt><trkpt lat="46.02508159884269" lon="12.227212281041515"><ele>977.0</ele><time>2026-03-23T09:58:40Z</time></trkpt><trkpt lat="46.02499001734485" lon="12.227215160913564"><ele>977.0</ele><time>2026-03-23T09:58:41Z</time></trkpt><trkpt lat="46.0248909414272" lon="12.227233104856953"><ele>977.0</ele><time>2026-03-23T09:58:42Z</time></trkpt><trkpt lat="46.02479750885604" lon="12.227254779531464"><ele>977.0</ele><time>2026-03-23T09:58:43Z</time></trkpt><trkpt lat="46.024706449208985" lon="12.227247275331647"><ele>977.0</ele><time>2026-03-23T09:58:44Z</time></trkpt><trkpt lat="46.02461417498022" lon="12.227197247420445"><ele>978.6</ele><time>2026-03-23T09:58:45Z</time></trkpt><trkpt lat="46.02454959107823" lon="12.227135079800778"><ele>980.2</ele><time>2026-03-23T09:58:46Z</time></trkpt><trkpt lat="46.02446542958491" lon="12.22713878013382"><ele>981.8</ele><time>2026-03-23T09:58:47Z</time></trkpt><trkpt lat="46.024387997767775" lon="12.227179873428156"><ele>983.4</ele><time>2026-03-23T09:58:48Z</time></trkpt><trkpt lat="46.02429481489874" lon="12.227261585524394"><ele>985.0</ele><time>2026-03-23T09:58:49Z</time></trkpt><trkpt lat="46.0242006205554" lon="12.227302346812019"><ele>984.2</ele><time>2026-03-23T09:58:50Z</time></trkpt><trkpt lat="46.024112343864374" lon="12.227336079439572"><ele>983.4</ele><time>2026-03-23T09:58:51Z</time></trkpt><trkpt lat="46.024030729597975" lon="12.227230625672227"><ele>982.5999999999999</ele><time>2026-03-23T09:58:53Z</time></trkpt><trkpt lat="46.0239813550029" lon="12.22703691009093"><ele>981.8</ele><time>2026-03-23T09:58:55Z</time></trkpt><trkpt lat="46.023945088405114" lon="12.226959391704952"><ele>981.0</ele><time>2026-03-23T09:58:56Z</time></trkpt><trkpt lat="46.02388563737648" lon="12.226924259847054"><ele>981.0</ele><time>2026-03-23T09:58:57Z</time></trkpt><trkpt lat="46.02379710518279" lon="12.226915705651953"><ele>981.0</ele><time>2026-03-23T09:58:58Z</time></trkpt><trkpt lat="46.02367499169489" lon="12.226908680825526"><ele>981.0</ele><time>2026-03-23T09:58:59Z</time></trkpt><trkpt lat="46.02354414931496" lon="12.226899291424697"><ele>981.0</ele><time>2026-03-23T09:59:00Z</time></trkpt><trkpt lat="46.02341197128796" lon="12.226858197044832"><ele>983.75</ele><time>2026-03-23T09:59:01Z</time></trkpt><trkpt lat="46.02328068357864" lon="12.226837780085619"><ele>986.5</ele><time>2026-03-23T09:59:02Z</time></trkpt><trkpt lat="46.02315527613689" lon="12.226820655413714"><ele>989.25</ele><time>2026-03-23T09:59:03Z</time></trkpt><trkpt lat="46.02305418709623" lon="12.226778436653147"><ele>992.0</ele><time>2026-03-23T09:59:04Z</time></trkpt><trkpt lat="46.022963106276194" lon="12.22672434634658"><ele>992.0</ele><time>2026-03-23T09:59:05Z</time></trkpt><trkpt lat="46.022885148279016" lon="12.226648953968724"><ele>992.0</ele><time>2026-03-23T09:59:06Z</time></trkpt><trkpt lat="46.02280617094967" lon="12.226557525717151"><ele>992.0</ele><time>2026-03-23T09:59:07Z</time></trkpt><trkpt lat="46.022742835901575" lon="12.226486679513837"><ele>992.0</ele><time>2026-03-23T09:59:08Z</time></trkpt><trkpt lat="46.02260982203737" lon="12.226517025265997"><ele>992.0</ele><time>2026-03-23T09:59:10Z</time></trkpt><trkpt lat="46.02251574783829" lon="12.226605014218103"><ele>994.25</ele><time>2026-03-23T09:59:11Z</time></trkpt><trkpt lat="46.02242258906935" lon="12.226667410072805"><ele>996.5</ele><time>2026-03-23T09:59:12Z</time></trkpt><trkpt lat="46.02230967324024" lon="12.226690919890398"><ele>998.75</ele><time>2026-03-23T09:59:13Z</time></trkpt><trkpt lat="46.02217742935788" lon="12.226713113814018"><ele>1001.0</ele><time>2026-03-23T09:59:14Z</time></trkpt><trkpt lat="46.022071173997325" lon="12.226737464683458"><ele>1001.0</ele><time>2026-03-23T09:59:15Z</time></trkpt><trkpt lat="46.0219974640055" lon="12.226739097959685"><ele>1001.0</ele><time>2026-03-23T09:59:16Z</time></trkpt><trkpt lat="46.021937421757954" lon="12.226705747484184"><ele>1001.0</ele><time>2026-03-23T09:59:17Z</time></trkpt><trkpt lat="46.021892713665345" lon="12.226610544980723"><ele>1001.0</ele><time>2026-03-23T09:59:18Z</time></trkpt><trkpt lat="46.021853072438994" lon="12.226500796714317"><ele>1001.0</ele><time>2026-03-23T09:59:19Z</time></trkpt><trkpt lat="46.02181109322596" lon="12.226432135106808"><ele>1001.0</ele><time>2026-03-23T09:59:20Z</time></trkpt><trkpt lat="46.021740310307635" lon="12.22641476553939"><ele>1001.0</ele><time>2026-03-23T09:59:21Z</time></trkpt><trkpt lat="46.02163779262762" lon="12.226435893046652"><ele>1005.5999999999999</ele><time>2026-03-23T09:59:22Z</time></trkpt><trkpt lat="46.02153389693409" lon="12.226473656774232"><ele>1010.1999999999999</ele><time>2026-03-23T09:59:23Z</time></trkpt><trkpt lat="46.02143298812077" lon="12.22646656363266"><ele>1014.8000000000001</ele><time>2026-03-23T09:59:24Z</time></trkpt><trkpt lat="46.02132062293647" lon="12.22643343917387"><ele>1019.4000000000001</ele><time>2026-03-23T09:59:25Z</time></trkpt><trkpt lat="46.02120422950316" lon="12.226392236964418"><ele>1024.0</ele><time>2026-03-23T09:59:26Z</time></trkpt><trkpt lat="46.02106143814157" lon="12.226384318051835"><ele>1024.0</ele><time>2026-03-23T09:59:27Z</time></trkpt><trkpt lat="46.020909537445974" lon="12.226355778845944"><ele>1024.0</ele><time>2026-03-23T09:59:28Z</time></trkpt><trkpt lat="46.02076840606065" lon="12.226326526217134"><ele>1024.0</ele><time>2026-03-23T09:59:29Z</time></trkpt><trkpt lat="46.02064898620833" lon="12.226300591361827"><ele>1024.0</ele><time>2026-03-23T09:59:30Z</time></trkpt><trkpt lat="46.02054397094285" lon="12.22626649400573"><ele>1026.5</ele><time>2026-03-23T09:59:31Z</time></trkpt><trkpt lat="46.02043772840344" lon="12.226202464365745"><ele>1029.0</ele><time>2026-03-23T09:59:32Z</time></trkpt><trkpt lat="46.020333607347034" lon="12.226123887629996"><ele>1031.5</ele><time>2026-03-23T09:59:33Z</time></trkpt><trkpt lat="46.02022121956908" lon="12.22607393166171"><ele>1034.0</ele><time>2026-03-23T09:59:34Z</time></trkpt><trkpt lat="46.020084554152014" lon="12.226037541230673"><ele>1037.25</ele><time>2026-03-23T09:59:35Z</time></trkpt><trkpt lat="46.019944334840574" lon="12.226008053993212"><ele>1040.5</ele><time>2026-03-23T09:59:36Z</time></trkpt><trkpt lat="46.01980986941509" lon="12.226004126240243"><ele>1043.75</ele><time>2026-03-23T09:59:37Z</time></trkpt><trkpt lat="46.01967080173084" lon="12.226002883024051"><ele>1047.0</ele><time>2026-03-23T09:59:38Z</time></trkpt><trkpt lat="46.01953331734764" lon="12.225992600683336"><ele>1047.0</ele><time>2026-03-23T09:59:39Z</time></trkpt><trkpt lat="46.01939451979885" lon="12.225982947747122"><ele>1047.0</ele><time>2026-03-23T09:59:40Z</time></trkpt><trkpt lat="46.01924771903362" lon="12.225973125842756"><ele>1047.0</ele><time>2026-03-23T09:59:41Z</time></trkpt><trkpt lat="46.019097124435866" lon="12.22592742425372"><ele>1047.0</ele><time>2026-03-23T09:59:42Z</time></trkpt><trkpt lat="46.018953860388514" lon="12.225877318043164"><ele>1049.8</ele><time>2026-03-23T09:59:43Z</time></trkpt><trkpt lat="46.01885190688339" lon="12.225818586110114"><ele>1052.6</ele><time>2026-03-23T09:59:44Z</time></trkpt><trkpt lat="46.01875062687901" lon="12.225747928673426"><ele>1055.3999999999999</ele><time>2026-03-23T09:59:45Z</time></trkpt><trkpt lat="46.01866624943389" lon="12.225688379577335"><ele>1058.2</ele><time>2026-03-23T09:59:46Z</time></trkpt><trkpt lat="46.01859000793913" lon="12.225617412735385"><ele>1061.0</ele><time>2026-03-23T09:59:47Z</time></trkpt><trkpt lat="46.01852176767344" lon="12.225584063497987"><ele>1063.6</ele><time>2026-03-23T09:59:48Z</time></trkpt><trkpt lat="46.018419281001464" lon="12.225613677695488"><ele>1066.1999999999998</ele><time>2026-03-23T09:59:49Z</time></trkpt><trkpt lat="46.01832244302426" lon="12.225631607567882"><ele>1068.8000000000002</ele><time>2026-03-23T09:59:50Z</time></trkpt><trkpt lat="46.018224993819395" lon="12.225616861464012"><ele>1071.4</ele><time>2026-03-23T09:59:51Z</time></trkpt><trkpt lat="46.01813097145321" lon="12.225591813829542"><ele>1074.0</ele><time>2026-03-23T09:59:52Z</time></trkpt><trkpt lat="46.01803465757173" lon="12.225570732155479"><ele>1076.4</ele><time>2026-03-23T09:59:53Z</time></trkpt><trkpt lat="46.017933466677555" lon="12.225561773841026"><ele>1078.8000000000002</ele><time>2026-03-23T09:59:54Z</time></trkpt><trkpt lat="46.017841506643855" lon="12.225524884787275"><ele>1081.1999999999998</ele><time>2026-03-23T09:59:55Z</time></trkpt><trkpt lat="46.017728362460495" lon="12.2254644638208"><ele>1083.6</ele><time>2026-03-23T09:59:56Z</time></trkpt><trkpt lat="46.01761701191465" lon="12.2254530357084"><ele>1086.0</ele><time>2026-03-23T09:59:57Z</time></trkpt><trkpt lat="46.017516628482205" lon="12.225458376276551"><ele>1088.0</ele><time>2026-03-23T09:59:58Z</time></trkpt><trkpt lat="46.0174236583141" lon="12.22548632275081"><ele>1090.0</ele><time>2026-03-23T09:59:59Z</time></trkpt><trkpt lat="46.017325039640724" lon="12.225516749631078"><ele>1092.0</ele><time>2026-03-23T10:00:00Z</time></trkpt><trkpt lat="46.01722899835987" lon="12.225494648381892"><ele>1094.0</ele><time>2026-03-23T10:00:01Z</time></trkpt><trkpt lat="46.01715675808313" lon="12.225444060322898"><ele>1096.0</ele><time>2026-03-23T10:00:02Z</time></trkpt><trkpt lat="46.017093908348414" lon="12.225410365158806"><ele>1098.0</ele><time>2026-03-23T10:00:03Z</time></trkpt><trkpt lat="46.01700460644206" lon="12.22541281200093"><ele>1098.0</ele><time>2026-03-23T10:00:04Z</time></trkpt><trkpt lat="46.01689982245" lon="12.225450712785833"><ele>1098.0</ele><time>2026-03-23T10:00:05Z</time></trkpt><trkpt lat="46.01679856290845" lon="12.225462311254383"><ele>1098.0</ele><time>2026-03-23T10:00:06Z</time></trkpt><trkpt lat="46.01671096221321" lon="12.225412271812365"><ele>1098.0</ele><time>2026-03-23T10:00:07Z</time></trkpt><trkpt lat="46.01663586638043" lon="12.225353695072066"><ele>1098.0</ele><time>2026-03-23T10:00:08Z</time></trkpt><trkpt lat="46.01656186924846" lon="12.225292378238656"><ele>1099.3333333333333</ele><time>2026-03-23T10:00:09Z</time></trkpt><trkpt lat="46.01650087017783" lon="12.22526632995109"><ele>1100.6666666666667</ele><time>2026-03-23T10:00:10Z</time></trkpt><trkpt lat="46.01639932371216" lon="12.22535096105051"><ele>1102.0</ele><time>2026-03-23T10:00:12Z</time></trkpt><trkpt lat="46.016269937663104" lon="12.225321423813902"><ele>1103.3333333333335</ele><time>2026-03-23T10:00:14Z</time></trkpt><trkpt lat="46.016217175464185" lon="12.225267652039637"><ele>1104.6666666666667</ele><time>2026-03-23T10:00:15Z</time></trkpt><trkpt lat="46.01615737835206" lon="12.225232487813795"><ele>1106.0</ele><time>2026-03-23T10:00:16Z</time></trkpt><trkpt lat="46.01609229490187" lon="12.225204620401687"><ele>1106.0</ele><time>2026-03-23T10:00:17Z</time></trkpt><trkpt lat="46.016022500912804" lon="12.225237151500057"><ele>1106.0</ele><time>2026-03-23T10:00:18Z</time></trkpt><trkpt lat="46.01593790227498" lon="12.225251927460796"><ele>1106.0</ele><time>2026-03-23T10:00:18.999Z</time></trkpt><trkpt lat="46.015872578864744" lon="12.225262204945686"><ele>1106.0</ele><time>2026-03-23T10:00:19.999Z</time></trkpt><trkpt lat="46.01575101691197" lon="12.225231487419672"><ele>1106.0</ele><time>2026-03-23T10:00:21.999Z</time></trkpt><trkpt lat="46.01568625287549" lon="12.225193499186283"><ele>1106.0</ele><time>2026-03-23T10:00:22.999Z</time></trkpt><trkpt lat="46.01561919097982" lon="12.225158427335904"><ele>1107.6</ele><time>2026-03-23T10:00:23.999Z</time></trkpt><trkpt lat="46.01554776561173" lon="12.225129378279085"><ele>1109.1999999999998</ele><time>2026-03-23T10:00:24.999Z</time></trkpt><trkpt lat="46.01546549579519" lon="12.225110734749434"><ele>1110.8000000000002</ele><time>2026-03-23T10:00:25.999Z</time></trkpt><trkpt lat="46.0153698296414" lon="12.225095076016364"><ele>1112.4</ele><time>2026-03-23T10:00:27Z</time></trkpt><trkpt lat="46.015263796705206" lon="12.225069342276692"><ele>1114.0</ele><time>2026-03-23T10:00:28Z</time></trkpt><trkpt lat="46.015146582148155" lon="12.225040448938273"><ele>1114.0</ele><time>2026-03-23T10:00:29Z</time></trkpt><trkpt lat="46.01504830350755" lon="12.225063088566314"><ele>1114.0</ele><time>2026-03-23T10:00:30Z</time></trkpt><trkpt lat="46.01493892827121" lon="12.225118931781845"><ele>1114.0</ele><time>2026-03-23T10:00:31Z</time></trkpt><trkpt lat="46.01484687510829" lon="12.225165502482332"><ele>1114.0</ele><time>2026-03-23T10:00:32Z</time></trkpt><trkpt lat="46.014741783931264" lon="12.225194886039516"><ele>1114.0</ele><time>2026-03-23T10:00:33Z</time></trkpt><trkpt lat="46.01463548084085" lon="12.225197338543534"><ele>1114.0</ele><time>2026-03-23T10:00:34Z</time></trkpt><trkpt lat="46.014534164701935" lon="12.225190741644775"><ele>1114.0</ele><time>2026-03-23T10:00:35Z</time></trkpt><trkpt lat="46.014438126367004" lon="12.225170897189779"><ele>1114.0</ele><time>2026-03-23T10:00:36Z</time></trkpt><trkpt lat="46.014362777189035" lon="12.22513910117064"><ele>1114.0</ele><time>2026-03-23T10:00:37Z</time></trkpt><trkpt lat="46.014301095064106" lon="12.225107027593529"><ele>1114.0</ele><time>2026-03-23T10:00:38Z</time></trkpt><trkpt lat="46.01423547910948" lon="12.22505971726324"><ele>1114.0</ele><time>2026-03-23T10:00:39Z</time></trkpt><trkpt lat="46.01416278017517" lon="12.22501187423111"><ele>1116.25</ele><time>2026-03-23T10:00:40Z</time></trkpt><trkpt lat="46.01407899149384" lon="12.22495324027329"><ele>1118.5</ele><time>2026-03-23T10:00:41Z</time></trkpt><trkpt lat="46.01395634902401" lon="12.224926806056999"><ele>1120.75</ele><time>2026-03-23T10:00:42Z</time></trkpt><trkpt lat="46.01380782752292" lon="12.224903751305575"><ele>1123.0</ele><time>2026-03-23T10:00:43Z</time></trkpt><trkpt lat="46.01363862713573" lon="12.224881319367565"><ele>1123.0</ele><time>2026-03-23T10:00:44Z</time></trkpt><trkpt lat="46.013501647373865" lon="12.224852590102818"><ele>1123.0</ele><time>2026-03-23T10:00:45Z</time></trkpt><trkpt lat="46.01339947240093" lon="12.224829660157813"><ele>1123.0</ele><time>2026-03-23T10:00:46Z</time></trkpt><trkpt lat="46.01331855889631" lon="12.22478980270215"><ele>1123.0</ele><time>2026-03-23T10:00:47Z</time></trkpt><trkpt lat="46.013252593989264" lon="12.224771033951184"><ele>1123.0</ele><time>2026-03-23T10:00:49Z</time></trkpt><trkpt lat="46.0132890223328" lon="12.224879828239011"><ele>1123.0</ele><time>2026-03-23T10:00:52Z</time></trkpt><trkpt lat="46.01341905379361" lon="12.22493994269267"><ele>1123.0</ele><time>2026-03-23T10:00:54Z</time></trkpt><trkpt lat="46.01350516177124" lon="12.224980516350776"><ele>1123.0</ele><time>2026-03-23T10:00:55Z</time></trkpt><trkpt lat="46.01360683172443" lon="12.22505068577066"><ele>1123.0</ele><time>2026-03-23T10:00:56Z</time></trkpt><trkpt lat="46.01370156874703" lon="12.225130018129951"><ele>1123.0</ele><time>2026-03-23T10:00:57Z</time></trkpt><trkpt lat="46.01378929279926" lon="12.225209808316219"><ele>1123.0</ele><time>2026-03-23T10:00:58Z</time></trkpt><trkpt lat="46.01385679525695" lon="12.225283886421545"><ele>1123.0</ele><time>2026-03-23T10:00:59Z</time></trkpt><trkpt lat="46.01392449654329" lon="12.225402345460731"><ele>1123.0</ele><time>2026-03-23T10:01:01Z</time></trkpt><trkpt lat="46.01388469688417" lon="12.225573558464486"><ele>1123.0</ele><time>2026-03-23T10:01:03Z</time></trkpt><trkpt lat="46.0138484399498" lon="12.225697253401709"><ele>1123.0</ele><time>2026-03-23T10:01:04Z</time></trkpt><trkpt lat="46.01380163978315" lon="12.225847852243952"><ele>1124.2</ele><time>2026-03-23T10:01:05Z</time></trkpt><trkpt lat="46.01375524141238" lon="12.225996469194813"><ele>1125.4</ele><time>2026-03-23T10:01:06Z</time></trkpt><trkpt lat="46.0137068789083" lon="12.226145506323316"><ele>1126.6000000000001</ele><time>2026-03-23T10:01:07Z</time></trkpt><trkpt lat="46.013657875472084" lon="12.226280081282054"><ele>1127.8</ele><time>2026-03-23T10:01:08Z</time></trkpt><trkpt lat="46.01361724564384" lon="12.226388913747822"><ele>1129.0</ele><time>2026-03-23T10:01:09Z</time></trkpt><trkpt lat="46.013585203185535" lon="12.226491093097618"><ele>1129.0</ele><time>2026-03-23T10:01:10Z</time></trkpt><trkpt lat="46.01355805483663" lon="12.226576345039943"><ele>1129.0</ele><time>2026-03-23T10:01:11Z</time></trkpt><trkpt lat="46.01350853533847" lon="12.226736915756709"><ele>1129.0</ele><time>2026-03-23T10:01:13Z</time></trkpt><trkpt lat="46.0134669080528" lon="12.226893488744858"><ele>1129.0</ele><time>2026-03-23T10:01:15Z</time></trkpt><trkpt lat="46.01341787546675" lon="12.227032979824"><ele>1129.0</ele><time>2026-03-23T10:01:17Z</time></trkpt><trkpt lat="46.01337871453833" lon="12.227150579972406"><ele>1129.0</ele><time>2026-03-23T10:01:19Z</time></trkpt><trkpt lat="46.013344647415614" lon="12.227263591494049"><ele>1129.0</ele><time>2026-03-23T10:01:21Z</time></trkpt><trkpt lat="46.01330978080411" lon="12.227396477932707"><ele>1129.0</ele><time>2026-03-23T10:01:23Z</time></trkpt><trkpt lat="46.01326872828844" lon="12.227550153124323"><ele>1129.0</ele><time>2026-03-23T10:01:25Z</time></trkpt><trkpt lat="46.013218154682235" lon="12.227718113331676"><ele>1129.0</ele><time>2026-03-23T10:01:27Z</time></trkpt><trkpt lat="46.01318835709373" lon="12.227808810019638"><ele>1125.1666666666665</ele><time>2026-03-23T10:01:28Z</time></trkpt><trkpt lat="46.01316039717843" lon="12.227901799300568"><ele>1121.3333333333333</ele><time>2026-03-23T10:01:29Z</time></trkpt><trkpt lat="46.013129315018965" lon="12.227990981391699"><ele>1117.5</ele><time>2026-03-23T10:01:30Z</time></trkpt><trkpt lat="46.01309157650492" lon="12.22807366087282"><ele>1113.6666666666667</ele><time>2026-03-23T10:01:31Z</time></trkpt><trkpt lat="46.01304475181462" lon="12.22814906301136"><ele>1109.8333333333335</ele><time>2026-03-23T10:01:32Z</time></trkpt><trkpt lat="46.012988689415245" lon="12.228214154565284"><ele>1106.0</ele><time>2026-03-23T10:01:33Z</time></trkpt><trkpt lat="46.01290070711788" lon="12.22832056208184"><ele>1104.3333333333335</ele><time>2026-03-23T10:01:35Z</time></trkpt><trkpt lat="46.01289741634417" lon="12.228462169373373"><ele>1102.6666666666667</ele><time>2026-03-23T10:01:37Z</time></trkpt><trkpt lat="46.01293736558344" lon="12.228550915551873"><ele>1101.0</ele><time>2026-03-23T10:01:38Z</time></trkpt><trkpt lat="46.01299286581416" lon="12.228643925445613"><ele>1099.3333333333333</ele><time>2026-03-23T10:01:39Z</time></trkpt><trkpt lat="46.01304994949989" lon="12.228745502874727"><ele>1097.6666666666665</ele><time>2026-03-23T10:01:40Z</time></trkpt><trkpt lat="46.01311278683801" lon="12.228849720974813"><ele>1096.0</ele><time>2026-03-23T10:01:41Z</time></trkpt><trkpt lat="46.0131754910314" lon="12.228946368567026"><ele>1099.6666666666665</ele><time>2026-03-23T10:01:42Z</time></trkpt><trkpt lat="46.013239878538826" lon="12.229035193406014"><ele>1103.3333333333333</ele><time>2026-03-23T10:01:43Z</time></trkpt><trkpt lat="46.01330062889207" lon="12.22912502565258"><ele>1107.0</ele><time>2026-03-23T10:01:44Z</time></trkpt><trkpt lat="46.0133656204319" lon="12.229206973545297"><ele>1110.6666666666667</ele><time>2026-03-23T10:01:45Z</time></trkpt><trkpt lat="46.01342863534426" lon="12.22928472462209"><ele>1114.3333333333335</ele><time>2026-03-23T10:01:46Z</time></trkpt><trkpt lat="46.013479945177195" lon="12.22937569485044"><ele>1118.0</ele><time>2026-03-23T10:01:47Z</time></trkpt><trkpt lat="46.013519885862294" lon="12.229481322840941"><ele>1118.0</ele><time>2026-03-23T10:01:48Z</time></trkpt><trkpt lat="46.01355021112853" lon="12.229594738609743"><ele>1118.0</ele><time>2026-03-23T10:01:49Z</time></trkpt><trkpt lat="46.0135851979036" lon="12.229701120376706"><ele>1118.0</ele><time>2026-03-23T10:01:50Z</time></trkpt><trkpt lat="46.01362688628798" lon="12.22980345608972"><ele>1118.0</ele><time>2026-03-23T10:01:51Z</time></trkpt><trkpt lat="46.013671493254066" lon="12.229896806577273"><ele>1118.0</ele><time>2026-03-23T10:01:52Z</time></trkpt><trkpt lat="46.01371844611406" lon="12.22998350094948"><ele>1118.0</ele><time>2026-03-23T10:01:53Z</time></trkpt><trkpt lat="46.01377526100087" lon="12.230069296175838"><ele>1113.0</ele><time>2026-03-23T10:01:54Z</time></trkpt><trkpt lat="46.0138344020151" lon="12.230155331755661"><ele>1108.0</ele><time>2026-03-23T10:01:55Z</time></trkpt><trkpt lat="46.0138876460409" lon="12.23024547316748"><ele>1103.0</ele><time>2026-03-23T10:01:56Z</time></trkpt><trkpt lat="46.013941062635304" lon="12.230333510484911"><ele>1098.0</ele><time>2026-03-23T10:01:57Z</time></trkpt><trkpt lat="46.01399123587273" lon="12.230423372807936"><ele>1093.0</ele><time>2026-03-23T10:01:58Z</time></trkpt><trkpt lat="46.01404175151602" lon="12.230511224426536"><ele>1088.0</ele><time>2026-03-23T10:01:59Z</time></trkpt><trkpt lat="46.014098275310694" lon="12.230609069943865"><ele>1091.0</ele><time>2026-03-23T10:02:00Z</time></trkpt><trkpt lat="46.014158986099964" lon="12.230720211957935"><ele>1094.0</ele><time>2026-03-23T10:02:01Z</time></trkpt><trkpt lat="46.01422275882609" lon="12.230825258579529"><ele>1097.0</ele><time>2026-03-23T10:02:02Z</time></trkpt><trkpt lat="46.014287783227786" lon="12.230919875403702"><ele>1100.0</ele><time>2026-03-23T10:02:03Z</time></trkpt><trkpt lat="46.01435689829885" lon="12.231006952981373"><ele>1103.0</ele><time>2026-03-23T10:02:04Z</time></trkpt><trkpt lat="46.01442631861571" lon="12.231099162115305"><ele>1103.0</ele><time>2026-03-23T10:02:05Z</time></trkpt><trkpt lat="46.01448097477015" lon="12.231199199881484"><ele>1103.0</ele><time>2026-03-23T10:02:06Z</time></trkpt><trkpt lat="46.014523465252054" lon="12.231295044685433"><ele>1103.0</ele><time>2026-03-23T10:02:07Z</time></trkpt><trkpt lat="46.014570256528984" lon="12.231437100702557"><ele>1103.0</ele><time>2026-03-23T10:02:09Z</time></trkpt><trkpt lat="46.014660837750434" lon="12.231535299470684"><ele>1103.0</ele><time>2026-03-23T10:02:13Z</time></trkpt><trkpt lat="46.01471318049599" lon="12.231588582350296"><ele>1105.3333333333335</ele><time>2026-03-23T10:02:14Z</time></trkpt><trkpt lat="46.014765906828" lon="12.231662629861434"><ele>1107.6666666666667</ele><time>2026-03-23T10:02:15Z</time></trkpt><trkpt lat="46.01481611913023" lon="12.231747465498156"><ele>1110.0</ele><time>2026-03-23T10:02:16Z</time></trkpt><trkpt lat="46.01485988618969" lon="12.231829772509986"><ele>1112.3333333333333</ele><time>2026-03-23T10:02:17Z</time></trkpt><trkpt lat="46.01491617928408" lon="12.231918283042686"><ele>1114.6666666666665</ele><time>2026-03-23T10:02:18Z</time></trkpt><trkpt lat="46.014982746214145" lon="12.232011414063303"><ele>1117.0</ele><time>2026-03-23T10:02:19Z</time></trkpt><trkpt lat="46.01504439845799" lon="12.232089624705422"><ele>1117.0</ele><time>2026-03-23T10:02:20Z</time></trkpt><trkpt lat="46.01511043301192" lon="12.232197516619951"><ele>1117.0</ele><time>2026-03-23T10:02:22Z</time></trkpt><trkpt lat="46.01518166852611" lon="12.232306410352352"><ele>1117.0</ele><time>2026-03-23T10:02:24Z</time></trkpt><trkpt lat="46.01525529797427" lon="12.232436475030905"><ele>1117.0</ele><time>2026-03-23T10:02:25.999Z</time></trkpt><trkpt lat="46.01532854238622" lon="12.232547256114822"><ele>1117.0</ele><time>2026-03-23T10:02:27.999Z</time></trkpt><trkpt lat="46.01539901959802" lon="12.232643870081464"><ele>1113.8333333333333</ele><time>2026-03-23T10:02:29.999Z</time></trkpt><trkpt lat="46.0154506018587" lon="12.232714188512588"><ele>1110.6666666666665</ele><time>2026-03-23T10:02:31.999Z</time></trkpt><trkpt lat="46.01552474467015" lon="12.232821636019652"><ele>1107.5</ele><time>2026-03-23T10:02:34Z</time></trkpt><trkpt lat="46.01559464532933" lon="12.2329281460437"><ele>1104.3333333333333</ele><time>2026-03-23T10:02:36Z</time></trkpt><trkpt lat="46.015642163320024" lon="12.232990679223217"><ele>1101.1666666666667</ele><time>2026-03-23T10:02:38Z</time></trkpt><trkpt lat="46.01567115045501" lon="12.233086438775969"><ele>1098.0</ele><time>2026-03-23T10:02:41Z</time></trkpt><trkpt lat="46.01572447171474" lon="12.233142151924362"><ele>1098.0</ele><time>2026-03-23T10:03:56Z</time></trkpt><trkpt lat="46.01567371270247" lon="12.233050892595548"><ele>1098.0</ele><time>2026-03-23T10:04:08Z</time></trkpt><trkpt lat="46.01563702199324" lon="12.232973769522733"><ele>1098.0</ele><time>2026-03-23T10:04:09Z</time></trkpt><trkpt lat="46.01559497575733" lon="12.232903619439908"><ele>1098.0</ele><time>2026-03-23T10:04:10Z</time></trkpt><trkpt lat="46.015531183516735" lon="12.232809583801068"><ele>1098.0</ele><time>2026-03-23T10:04:11Z</time></trkpt><trkpt lat="46.01545133548655" lon="12.232683886778418"><ele>1098.0</ele><time>2026-03-23T10:04:12Z</time></trkpt><trkpt lat="46.01536727913465" lon="12.232572916406447"><ele>1098.0</ele><time>2026-03-23T10:04:13Z</time></trkpt><trkpt lat="46.01529120139" lon="12.232473437681074"><ele>1098.0</ele><time>2026-03-23T10:04:14Z</time></trkpt><trkpt lat="46.01523798326367" lon="12.232393062871202"><ele>1098.0</ele><time>2026-03-23T10:04:15Z</time></trkpt><trkpt lat="46.01519804173382" lon="12.232317132026413"><ele>1098.0</ele><time>2026-03-23T10:04:16Z</time></trkpt><trkpt lat="46.01515819234525" lon="12.232244025444059"><ele>1098.0</ele><time>2026-03-23T10:04:17Z</time></trkpt><trkpt lat="46.015077265916325" lon="12.23212679380483"><ele>1098.0</ele><time>2026-03-23T10:04:19Z</time></trkpt><trkpt lat="46.015029465885334" lon="12.232062987452942"><ele>1094.8</ele><time>2026-03-23T10:04:20Z</time></trkpt><trkpt lat="46.01497574525472" lon="12.232001029593873"><ele>1091.6</ele><time>2026-03-23T10:04:21Z</time></trkpt><trkpt lat="46.0148925368279" lon="12.231891172294308"><ele>1088.4</ele><time>2026-03-23T10:04:23Z</time></trkpt><trkpt lat="46.014818291178656" lon="12.231775294636456"><ele>1085.2</ele><time>2026-03-23T10:04:25Z</time></trkpt><trkpt lat="46.01476231171775" lon="12.231673080739467"><ele>1082.0</ele><time>2026-03-23T10:04:27Z</time></trkpt><trkpt lat="46.014701534220286" lon="12.231575060705351"><ele>1082.0</ele><time>2026-03-23T10:04:29Z</time></trkpt><trkpt lat="46.01463533168837" lon="12.231483545756808"><ele>1082.0</ele><time>2026-03-23T10:04:31Z</time></trkpt><trkpt lat="46.014598285911816" lon="12.23156962084933"><ele>1082.0</ele><time>2026-03-23T10:04:39Z</time></trkpt><trkpt lat="46.014667493683554" lon="12.231692024281905"><ele>1082.0</ele><time>2026-03-23T10:04:49Z</time></trkpt><trkpt lat="46.01471089846266" lon="12.231782497093764"><ele>1082.0</ele><time>2026-03-23T10:04:50Z</time></trkpt><trkpt lat="46.01476139601555" lon="12.231894903137912"><ele>1082.0</ele><time>2026-03-23T10:04:51Z</time></trkpt><trkpt lat="46.01481568958482" lon="12.232037999234745"><ele>1082.0</ele><time>2026-03-23T10:04:52Z</time></trkpt><trkpt lat="46.014867341536224" lon="12.232173198435458"><ele>1082.0</ele><time>2026-03-23T10:04:53Z</time></trkpt><trkpt lat="46.014915454085774" lon="12.232311784590433"><ele>1082.0</ele><time>2026-03-23T10:04:54Z</time></trkpt><trkpt lat="46.01495134055544" lon="12.232452626316599"><ele>1082.0</ele><time>2026-03-23T10:04:55Z</time></trkpt><trkpt lat="46.01497738043008" lon="12.232598159659567"><ele>1082.0</ele><time>2026-03-23T10:04:56Z</time></trkpt><trkpt lat="46.01499585984961" lon="12.232739880920596"><ele>1080.6</ele><time>2026-03-23T10:04:57Z</time></trkpt><trkpt lat="46.01501482914766" lon="12.232875039940616"><ele>1079.2</ele><time>2026-03-23T10:04:58Z</time></trkpt><trkpt lat="46.015042058878294" lon="12.232998331653453"><ele>1077.8</ele><time>2026-03-23T10:04:59Z</time></trkpt><trkpt lat="46.015091739451144" lon="12.23310502845485"><ele>1076.4</ele><time>2026-03-23T10:05:00Z</time></trkpt><trkpt lat="46.01515887443072" lon="12.233207678915313"><ele>1075.0</ele><time>2026-03-23T10:05:01Z</time></trkpt><trkpt lat="46.01523838390521" lon="12.233333578240138"><ele>1075.0</ele><time>2026-03-23T10:05:02Z</time></trkpt><trkpt lat="46.0153001737615" lon="12.233479914979414"><ele>1075.0</ele><time>2026-03-23T10:05:03Z</time></trkpt><trkpt lat="46.01534988062947" lon="12.233621563188242"><ele>1075.0</ele><time>2026-03-23T10:05:04Z</time></trkpt><trkpt lat="46.01539908488793" lon="12.233763158255762"><ele>1075.0</ele><time>2026-03-23T10:05:05Z</time></trkpt><trkpt lat="46.01543870719403" lon="12.233910672633238"><ele>1075.0</ele><time>2026-03-23T10:05:06Z</time></trkpt><trkpt lat="46.01547469898159" lon="12.23405687570899"><ele>1071.2</ele><time>2026-03-23T10:05:07Z</time></trkpt><trkpt lat="46.01550591531813" lon="12.234201919237716"><ele>1067.4</ele><time>2026-03-23T10:05:08Z</time></trkpt><trkpt lat="46.01553928659625" lon="12.234339374646702"><ele>1063.6</ele><time>2026-03-23T10:05:09Z</time></trkpt><trkpt lat="46.015578046537236" lon="12.234471407452103"><ele>1059.8</ele><time>2026-03-23T10:05:10Z</time></trkpt><trkpt lat="46.01562933930738" lon="12.234600488571793"><ele>1056.0</ele><time>2026-03-23T10:05:11Z</time></trkpt><trkpt lat="46.01570746314376" lon="12.234738924531129"><ele>1052.6</ele><time>2026-03-23T10:05:12Z</time></trkpt><trkpt lat="46.01578630707461" lon="12.234863311354417"><ele>1049.1999999999998</ele><time>2026-03-23T10:05:13Z</time></trkpt><trkpt lat="46.01585354154287" lon="12.234980594818863"><ele>1045.8000000000002</ele><time>2026-03-23T10:05:14Z</time></trkpt><trkpt lat="46.01589834698952" lon="12.235096295909303"><ele>1042.4</ele><time>2026-03-23T10:05:15Z</time></trkpt><trkpt lat="46.01592560005485" lon="12.235231512336126"><ele>1039.0</ele><time>2026-03-23T10:05:16Z</time></trkpt><trkpt lat="46.01594300802812" lon="12.235378076431022"><ele>1041.8333333333333</ele><time>2026-03-23T10:05:17Z</time></trkpt><trkpt lat="46.01595964543992" lon="12.23551781965695"><ele>1044.6666666666665</ele><time>2026-03-23T10:05:18Z</time></trkpt><trkpt lat="46.015964768020005" lon="12.23565115870258"><ele>1047.5</ele><time>2026-03-23T10:05:19Z</time></trkpt><trkpt lat="46.01596308374529" lon="12.235760863425526"><ele>1050.3333333333333</ele><time>2026-03-23T10:05:20Z</time></trkpt><trkpt lat="46.01596959252386" lon="12.23588619585379"><ele>1053.1666666666667</ele><time>2026-03-23T10:05:22Z</time></trkpt><trkpt lat="46.01599748169223" lon="12.235982974499107"><ele>1056.0</ele><time>2026-03-23T10:05:25Z</time></trkpt><trkpt lat="46.01603497198238" lon="12.236092001513022"><ele>1056.0</ele><time>2026-03-23T10:05:27Z</time></trkpt><trkpt lat="46.01607943244053" lon="12.236188599218188"><ele>1056.0</ele><time>2026-03-23T10:05:28Z</time></trkpt><trkpt lat="46.01613908096366" lon="12.236312687860869"><ele>1056.0</ele><time>2026-03-23T10:05:29Z</time></trkpt><trkpt lat="46.016210443728596" lon="12.23643948285511"><ele>1056.0</ele><time>2026-03-23T10:05:30Z</time></trkpt><trkpt lat="46.01628502760961" lon="12.236566721625547"><ele>1056.0</ele><time>2026-03-23T10:05:31Z</time></trkpt><trkpt lat="46.01635882833653" lon="12.236681817811116"><ele>1058.8</ele><time>2026-03-23T10:05:32Z</time></trkpt><trkpt lat="46.01643927989228" lon="12.2367752450031"><ele>1061.6</ele><time>2026-03-23T10:05:33Z</time></trkpt><trkpt lat="46.016521237171325" lon="12.236858641248775"><ele>1064.4</ele><time>2026-03-23T10:05:34Z</time></trkpt><trkpt lat="46.016602864537866" lon="12.236944147346392"><ele>1067.2</ele><time>2026-03-23T10:05:35Z</time></trkpt><trkpt lat="46.016681728935104" lon="12.237034213208023"><ele>1070.0</ele><time>2026-03-23T10:05:36Z</time></trkpt><trkpt lat="46.016772709497126" lon="12.237121996470359"><ele>1070.0</ele><time>2026-03-23T10:05:37Z</time></trkpt><trkpt lat="46.01688392219341" lon="12.237222544617195"><ele>1070.0</ele><time>2026-03-23T10:05:38Z</time></trkpt><trkpt lat="46.016998353949155" lon="12.237308641656037"><ele>1070.0</ele><time>2026-03-23T10:05:39Z</time></trkpt><trkpt lat="46.017112507069406" lon="12.237382632519607"><ele>1070.0</ele><time>2026-03-23T10:05:40Z</time></trkpt><trkpt lat="46.017216577435676" lon="12.237462493988097"><ele>1069.0</ele><time>2026-03-23T10:05:41Z</time></trkpt><trkpt lat="46.01732294247116" lon="12.237534721184677"><ele>1068.0</ele><time>2026-03-23T10:05:42Z</time></trkpt><trkpt lat="46.01742128863247" lon="12.23760483501028"><ele>1067.0</ele><time>2026-03-23T10:05:43Z</time></trkpt><trkpt lat="46.01751365735922" lon="12.23769099378403"><ele>1066.0</ele><time>2026-03-23T10:05:44Z</time></trkpt><trkpt lat="46.01758931375598" lon="12.23779196258037"><ele>1065.0</ele><time>2026-03-23T10:05:45Z</time></trkpt><trkpt lat="46.01766120167927" lon="12.23791257445221"><ele>1065.0</ele><time>2026-03-23T10:05:46Z</time></trkpt><trkpt lat="46.01772174154931" lon="12.238039169384452"><ele>1065.0</ele><time>2026-03-23T10:05:47Z</time></trkpt><trkpt lat="46.01777481154286" lon="12.238161134374602"><ele>1065.0</ele><time>2026-03-23T10:05:48Z</time></trkpt><trkpt lat="46.01784625088831" lon="12.238256414682317"><ele>1065.0</ele><time>2026-03-23T10:05:49Z</time></trkpt><trkpt lat="46.017916408893484" lon="12.238342770718834"><ele>1065.0</ele><time>2026-03-23T10:05:50Z</time></trkpt><trkpt lat="46.01796961558171" lon="12.238447066344651"><ele>1059.3333333333333</ele><time>2026-03-23T10:05:51Z</time></trkpt><trkpt lat="46.01800140411599" lon="12.238564784158651"><ele>1053.6666666666667</ele><time>2026-03-23T10:05:52Z</time></trkpt><trkpt lat="46.01800330870961" lon="12.238687254672389"><ele>1048.0</ele><time>2026-03-23T10:05:53Z</time></trkpt><trkpt lat="46.01797050164189" lon="12.238794745452426"><ele>1042.3333333333335</ele><time>2026-03-23T10:05:54Z</time></trkpt><trkpt lat="46.01791266692719" lon="12.238872024308117"><ele>1036.6666666666667</ele><time>2026-03-23T10:05:55Z</time></trkpt><trkpt lat="46.0178617007769" lon="12.238947486760802"><ele>1031.0</ele><time>2026-03-23T10:05:56Z</time></trkpt><trkpt lat="46.01784587224357" lon="12.23904708292758"><ele>1026.8333333333335</ele><time>2026-03-23T10:05:57Z</time></trkpt><trkpt lat="46.01785880519937" lon="12.239142927442607"><ele>1022.6666666666667</ele><time>2026-03-23T10:05:58Z</time></trkpt><trkpt lat="46.01789860763756" lon="12.239238645467426"><ele>1018.5</ele><time>2026-03-23T10:05:59Z</time></trkpt><trkpt lat="46.017965028259056" lon="12.23928700570089"><ele>1014.3333333333333</ele><time>2026-03-23T10:06:00Z</time></trkpt><trkpt lat="46.01804932965481" lon="12.239303442679494"><ele>1010.1666666666666</ele><time>2026-03-23T10:06:01Z</time></trkpt><trkpt lat="46.01813105220548" lon="12.23931670893435"><ele>1006.0</ele><time>2026-03-23T10:06:02Z</time></trkpt><trkpt lat="46.018189402973505" lon="12.239382253616139"><ele>1006.0</ele><time>2026-03-23T10:06:03Z</time></trkpt><trkpt lat="46.01822236986847" lon="12.2394754698491"><ele>1005.9999999999999</ele><time>2026-03-23T10:06:04Z</time></trkpt><trkpt lat="46.01824123955486" lon="12.23960953836786"><ele>1005.9999999999999</ele><time>2026-03-23T10:06:05Z</time></trkpt><trkpt lat="46.01825619376927" lon="12.23977988984933"><ele>1006.0</ele><time>2026-03-23T10:06:06Z</time></trkpt><trkpt lat="46.0182608021699" lon="12.23993585307944"><ele>1006.0</ele><time>2026-03-23T10:06:07Z</time></trkpt><trkpt lat="46.018274596770176" lon="12.24008626304692"><ele>1003.4</ele><time>2026-03-23T10:06:08Z</time></trkpt><trkpt lat="46.01831309383981" lon="12.240220398389315"><ele>1000.8</ele><time>2026-03-23T10:06:09Z</time></trkpt><trkpt lat="46.01836991107051" lon="12.240347024485754"><ele>998.1999999999999</ele><time>2026-03-23T10:06:10Z</time></trkpt><trkpt lat="46.0184191632113" lon="12.240480778227255"><ele>995.5999999999999</ele><time>2026-03-23T10:06:11Z</time></trkpt><trkpt lat="46.018447622909434" lon="12.240631093014098"><ele>993.0</ele><time>2026-03-23T10:06:12Z</time></trkpt><trkpt lat="46.018457794731304" lon="12.240782650161186"><ele>995.75</ele><time>2026-03-23T10:06:13Z</time></trkpt><trkpt lat="46.0184782777733" lon="12.240982274520738"><ele>998.5</ele><time>2026-03-23T10:06:14Z</time></trkpt><trkpt lat="46.01851232979479" lon="12.241216219214166"><ele>1001.25</ele><time>2026-03-23T10:06:15Z</time></trkpt><trkpt lat="46.01853244840312" lon="12.241417888090309"><ele>1004.0</ele><time>2026-03-23T10:06:16Z</time></trkpt><trkpt lat="46.01854226623238" lon="12.241618006090912"><ele>1004.0</ele><time>2026-03-23T10:06:17Z</time></trkpt><trkpt lat="46.0185530326719" lon="12.24180825340199"><ele>1004.0</ele><time>2026-03-23T10:06:18Z</time></trkpt><trkpt lat="46.01857426962089" lon="12.242001431652083"><ele>1004.0</ele><time>2026-03-23T10:06:19Z</time></trkpt><trkpt lat="46.018605434438314" lon="12.24220958061748"><ele>1004.0</ele><time>2026-03-23T10:06:20Z</time></trkpt><trkpt lat="46.018643275193156" lon="12.242423131551343"><ele>1001.25</ele><time>2026-03-23T10:06:21Z</time></trkpt><trkpt lat="46.01869057691447" lon="12.242628158052764"><ele>998.5</ele><time>2026-03-23T10:06:22Z</time></trkpt><trkpt lat="46.01873818769551" lon="12.242817271468724"><ele>995.75</ele><time>2026-03-23T10:06:23Z</time></trkpt><trkpt lat="46.01877519307073" lon="12.242990777069785"><ele>993.0</ele><time>2026-03-23T10:06:24Z</time></trkpt><trkpt lat="46.01879771835366" lon="12.243152594025327"><ele>990.25</ele><time>2026-03-23T10:06:25Z</time></trkpt><trkpt lat="46.01882414282073" lon="12.243302948030788"><ele>987.5</ele><time>2026-03-23T10:06:26Z</time></trkpt><trkpt lat="46.01887902068716" lon="12.243441555152542"><ele>984.75</ele><time>2026-03-23T10:06:27Z</time></trkpt><trkpt lat="46.0189505862554" lon="12.24359157695457"><ele>982.0</ele><time>2026-03-23T10:06:28Z</time></trkpt><trkpt lat="46.01900722087262" lon="12.243739209808393"><ele>982.0</ele><time>2026-03-23T10:06:29Z</time></trkpt><trkpt lat="46.01905867955664" lon="12.243884294036375"><ele>982.0</ele><time>2026-03-23T10:06:30Z</time></trkpt><trkpt lat="46.019098708308796" lon="12.244006115956354"><ele>982.0</ele><time>2026-03-23T10:06:31Z</time></trkpt><trkpt lat="46.019124306825354" lon="12.244104594903352"><ele>982.0</ele><time>2026-03-23T10:06:32Z</time></trkpt><trkpt lat="46.01907608473103" lon="12.244246236601509"><ele>982.0</ele><time>2026-03-23T10:06:34Z</time></trkpt><trkpt lat="46.01900411905782" lon="12.244277766605693"><ele>980.0</ele><time>2026-03-23T10:06:35Z</time></trkpt><trkpt lat="46.01890019703643" lon="12.24429370245728"><ele>978.0</ele><time>2026-03-23T10:06:36Z</time></trkpt><trkpt lat="46.018793841163834" lon="12.244340233163348"><ele>976.0</ele><time>2026-03-23T10:06:37Z</time></trkpt><trkpt lat="46.01866088221374" lon="12.244452290981528"><ele>974.0</ele><time>2026-03-23T10:06:38Z</time></trkpt><trkpt lat="46.018532831909326" lon="12.244562467131868"><ele>974.0</ele><time>2026-03-23T10:06:39Z</time></trkpt><trkpt lat="46.018417112845384" lon="12.244661289932834"><ele>974.0</ele><time>2026-03-23T10:06:40Z</time></trkpt><trkpt lat="46.018318124781274" lon="12.244758343482195"><ele>974.0</ele><time>2026-03-23T10:06:41Z</time></trkpt><trkpt lat="46.01823688165874" lon="12.244860140414685"><ele>974.0</ele><time>2026-03-23T10:06:42Z</time></trkpt><trkpt lat="46.01817567019172" lon="12.244968839029154"><ele>969.4000000000001</ele><time>2026-03-23T10:06:43Z</time></trkpt><trkpt lat="46.01812711460272" lon="12.245090897780354"><ele>964.8000000000001</ele><time>2026-03-23T10:06:44Z</time></trkpt><trkpt lat="46.018093471097195" lon="12.245231648863442"><ele>960.1999999999999</ele><time>2026-03-23T10:06:45Z</time></trkpt><trkpt lat="46.018078204667006" lon="12.245389541804656"><ele>955.5999999999999</ele><time>2026-03-23T10:06:46Z</time></trkpt><trkpt lat="46.01806726003295" lon="12.24555043457784"><ele>951.0</ele><time>2026-03-23T10:06:47Z</time></trkpt><trkpt lat="46.01806134617296" lon="12.245727299829378"><ele>951.0</ele><time>2026-03-23T10:06:48Z</time></trkpt><trkpt lat="46.01805895641845" lon="12.24589483784782"><ele>950.9999999999999</ele><time>2026-03-23T10:06:49Z</time></trkpt><trkpt lat="46.018062228680655" lon="12.246054346049926"><ele>950.9999999999999</ele><time>2026-03-23T10:06:50Z</time></trkpt><trkpt lat="46.01807212278697" lon="12.246193236370383"><ele>951.0</ele><time>2026-03-23T10:06:51Z</time></trkpt><trkpt lat="46.01810529082827" lon="12.246315362724932"><ele>951.0</ele><time>2026-03-23T10:06:52Z</time></trkpt><trkpt lat="46.01814917926861" lon="12.246438279752185"><ele>948.8333333333334</ele><time>2026-03-23T10:06:53Z</time></trkpt><trkpt lat="46.018204559888744" lon="12.246564201487736"><ele>946.6666666666667</ele><time>2026-03-23T10:06:54Z</time></trkpt><trkpt lat="46.01826813179783" lon="12.246668151484341"><ele>944.5</ele><time>2026-03-23T10:06:55Z</time></trkpt><trkpt lat="46.01833784450107" lon="12.246738698296062"><ele>942.3333333333334</ele><time>2026-03-23T10:06:56Z</time></trkpt><trkpt lat="46.01841865988947" lon="12.246777747487267"><ele>940.1666666666667</ele><time>2026-03-23T10:06:57Z</time></trkpt><trkpt lat="46.0184855416925" lon="12.246826755532888"><ele>938.0</ele><time>2026-03-23T10:06:58Z</time></trkpt><trkpt lat="46.018547143270624" lon="12.24697401058544"><ele>938.0000000000001</ele><time>2026-03-23T10:07:00Z</time></trkpt><trkpt lat="46.018515473378606" lon="12.247127420009608"><ele>938.0</ele><time>2026-03-23T10:07:02Z</time></trkpt><trkpt lat="46.01844915107274" lon="12.247182472566262"><ele>938.0</ele><time>2026-03-23T10:07:03Z</time></trkpt><trkpt lat="46.018365491888346" lon="12.247224306561838"><ele>938.0</ele><time>2026-03-23T10:07:04Z</time></trkpt><trkpt lat="46.018297930392094" lon="12.24727496880791"><ele>938.0000000000001</ele><time>2026-03-23T10:07:05Z</time></trkpt><trkpt lat="46.018238756787845" lon="12.247356865182837"><ele>938.0</ele><time>2026-03-23T10:07:06Z</time></trkpt><trkpt lat="46.01819923991517" lon="12.247453865629335"><ele>935.8333333333334</ele><time>2026-03-23T10:07:07Z</time></trkpt><trkpt lat="46.018158800553" lon="12.247558107036655"><ele>933.6666666666667</ele><time>2026-03-23T10:07:08Z</time></trkpt><trkpt lat="46.01812974687585" lon="12.247668711122786"><ele>931.5</ele><time>2026-03-23T10:07:09Z</time></trkpt><trkpt lat="46.018124468839105" lon="12.247784038415844"><ele>929.3333333333333</ele><time>2026-03-23T10:07:10Z</time></trkpt><trkpt lat="46.018143939791464" lon="12.247898318478772"><ele>927.1666666666666</ele><time>2026-03-23T10:07:11Z</time></trkpt><trkpt lat="46.018186146055264" lon="12.247999431538002"><ele>925.0</ele><time>2026-03-23T10:07:12Z</time></trkpt><trkpt lat="46.018255723092146" lon="12.248106197243505"><ele>923.2</ele><time>2026-03-23T10:07:13Z</time></trkpt><trkpt lat="46.0183218983957" lon="12.2482022773823"><ele>921.4</ele><time>2026-03-23T10:07:14Z</time></trkpt><trkpt lat="46.01835946880528" lon="12.248293485843002"><ele>919.5999999999999</ele><time>2026-03-23T10:07:15Z</time></trkpt><trkpt lat="46.01836136636817" lon="12.248406674677799"><ele>917.8</ele><time>2026-03-23T10:07:16Z</time></trkpt><trkpt lat="46.018320297350265" lon="12.248545718787865"><ele>916.0</ele><time>2026-03-23T10:07:17Z</time></trkpt><trkpt lat="46.018262015836925" lon="12.24868789946801"><ele>916.0</ele><time>2026-03-23T10:07:18Z</time></trkpt><trkpt lat="46.01821327191219" lon="12.248813383334888"><ele>915.9999999999999</ele><time>2026-03-23T10:07:19Z</time></trkpt><trkpt lat="46.01819370982948" lon="12.248927723594328"><ele>915.9999999999999</ele><time>2026-03-23T10:07:20Z</time></trkpt><trkpt lat="46.01821092877512" lon="12.249028957981023"><ele>916.0</ele><time>2026-03-23T10:07:21Z</time></trkpt><trkpt lat="46.01825761538299" lon="12.249170800585528"><ele>916.0</ele><time>2026-03-23T10:07:22Z</time></trkpt><trkpt lat="46.01831233726105" lon="12.249311311288036"><ele>913.4</ele><time>2026-03-23T10:07:23Z</time></trkpt><trkpt lat="46.018356085192885" lon="12.249439444933014"><ele>910.8</ele><time>2026-03-23T10:07:24Z</time></trkpt><trkpt lat="46.01837118515895" lon="12.249562604095258"><ele>908.1999999999999</ele><time>2026-03-23T10:07:25Z</time></trkpt><trkpt lat="46.018346040462056" lon="12.249706444674324"><ele>905.5999999999999</ele><time>2026-03-23T10:07:26Z</time></trkpt><trkpt lat="46.01831123285881" lon="12.249867104997355"><ele>903.0</ele><time>2026-03-23T10:07:27Z</time></trkpt><trkpt lat="46.01826597788805" lon="12.250011346022257"><ele>903.0</ele><time>2026-03-23T10:07:28Z</time></trkpt><trkpt lat="46.01821301560203" lon="12.250142395789466"><ele>903.0</ele><time>2026-03-23T10:07:29Z</time></trkpt><trkpt lat="46.01815082882767" lon="12.250259048420315"><ele>903.0</ele><time>2026-03-23T10:07:30Z</time></trkpt><trkpt lat="46.01807583147975" lon="12.250363561501052"><ele>903.0</ele><time>2026-03-23T10:07:31Z</time></trkpt><trkpt lat="46.017984637671866" lon="12.250465887160626"><ele>903.0</ele><time>2026-03-23T10:07:32Z</time></trkpt><trkpt lat="46.01789472604378" lon="12.250562344752264"><ele>906.2</ele><time>2026-03-23T10:07:33Z</time></trkpt><trkpt lat="46.01781148320304" lon="12.25067032697112"><ele>909.4</ele><time>2026-03-23T10:07:34Z</time></trkpt><trkpt lat="46.01772746246365" lon="12.25077935795998"><ele>912.6000000000001</ele><time>2026-03-23T10:07:35Z</time></trkpt><trkpt lat="46.01764243104842" lon="12.250879785605054"><ele>915.8000000000001</ele><time>2026-03-23T10:07:36Z</time></trkpt><trkpt lat="46.01756332684298" lon="12.250981948087132"><ele>919.0</ele><time>2026-03-23T10:07:37Z</time></trkpt><trkpt lat="46.01748217958307" lon="12.251095545765791"><ele>913.75</ele><time>2026-03-23T10:07:38Z</time></trkpt><trkpt lat="46.01740187224222" lon="12.25121083135169"><ele>908.5</ele><time>2026-03-23T10:07:39Z</time></trkpt><trkpt lat="46.01731171729668" lon="12.251342480163515"><ele>903.25</ele><time>2026-03-23T10:07:40Z</time></trkpt><trkpt lat="46.01724071566378" lon="12.251493996161756"><ele>898.0</ele><time>2026-03-23T10:07:41Z</time></trkpt><trkpt lat="46.01716654627035" lon="12.25159887428789"><ele>897.9999999999999</ele><time>2026-03-23T10:07:42Z</time></trkpt><trkpt lat="46.01709447511639" lon="12.25167581537727"><ele>898.0</ele><time>2026-03-23T10:07:43Z</time></trkpt><trkpt lat="46.017033910228726" lon="12.251747485639456"><ele>898.0</ele><time>2026-03-23T10:07:44Z</time></trkpt><trkpt lat="46.016963095267464" lon="12.251861198621594"><ele>898.0</ele><time>2026-03-23T10:07:46Z</time></trkpt><trkpt lat="46.01692374513339" lon="12.251933019623644"><ele>897.9999999999999</ele><time>2026-03-23T10:07:51Z</time></trkpt><trkpt lat="46.01688061800042" lon="12.252050410453885"><ele>898.0</ele><time>2026-03-23T10:08:20Z</time></trkpt><trkpt lat="46.01685351574385" lon="12.252155348078526"><ele>897.9999999999999</ele><time>2026-03-23T10:08:21Z</time></trkpt><trkpt lat="46.016838513148514" lon="12.252266767578888"><ele>898.0</ele><time>2026-03-23T10:08:22Z</time></trkpt><trkpt lat="46.01682428063366" lon="12.252391775539717"><ele>898.0</ele><time>2026-03-23T10:08:23Z</time></trkpt><trkpt lat="46.01681715911763" lon="12.252498316068216"><ele>898.0</ele><time>2026-03-23T10:08:24Z</time></trkpt><trkpt lat="46.01680303840149" lon="12.25259728555864"><ele>897.9999999999999</ele><time>2026-03-23T10:08:25Z</time></trkpt><trkpt lat="46.01678649299434" lon="12.252703024507055"><ele>898.0</ele><time>2026-03-23T10:08:26Z</time></trkpt><trkpt lat="46.01676570711342" lon="12.252813971156858"><ele>900.6666666666666</ele><time>2026-03-23T10:08:27Z</time></trkpt><trkpt lat="46.016752883446934" lon="12.252922680644525"><ele>903.3333333333333</ele><time>2026-03-23T10:08:28Z</time></trkpt><trkpt lat="46.016747323475585" lon="12.253034213814349"><ele>906.0</ele><time>2026-03-23T10:08:29Z</time></trkpt><trkpt lat="46.01676082652045" lon="12.253141102731501"><ele>908.6666666666667</ele><time>2026-03-23T10:08:30Z</time></trkpt><trkpt lat="46.01678505335907" lon="12.253249902150596"><ele>911.3333333333334</ele><time>2026-03-23T10:08:31Z</time></trkpt><trkpt lat="46.0168067816628" lon="12.253353641451069"><ele>914.0</ele><time>2026-03-23T10:08:32Z</time></trkpt><trkpt lat="46.01682692918979" lon="12.253457828120402"><ele>915.3333333333334</ele><time>2026-03-23T10:08:33Z</time></trkpt><trkpt lat="46.01684578263499" lon="12.253559202892017"><ele>916.6666666666667</ele><time>2026-03-23T10:08:34Z</time></trkpt><trkpt lat="46.01686400513868" lon="12.253659614837183"><ele>918.0</ele><time>2026-03-23T10:08:35Z</time></trkpt><trkpt lat="46.01688587747847" lon="12.253749112248158"><ele>919.3333333333333</ele><time>2026-03-23T10:08:36Z</time></trkpt><trkpt lat="46.0169210456769" lon="12.253859058936206"><ele>920.6666666666666</ele><time>2026-03-23T10:08:38Z</time></trkpt><trkpt lat="46.016995219358336" lon="12.253958274120054"><ele>922.0</ele><time>2026-03-23T10:08:39.999Z</time></trkpt><trkpt lat="46.01711152036657" lon="12.25402608406597"><ele>922.3333333333333</ele><time>2026-03-23T10:08:41.999Z</time></trkpt><trkpt lat="46.01716739301201" lon="12.254078875722769"><ele>922.6666666666666</ele><time>2026-03-23T10:08:42.999Z</time></trkpt><trkpt lat="46.01721640644168" lon="12.254162910106952"><ele>923.0</ele><time>2026-03-23T10:08:43.999Z</time></trkpt><trkpt lat="46.01727149705309" lon="12.254270854149006"><ele>923.3333333333333</ele><time>2026-03-23T10:08:44.999Z</time></trkpt><trkpt lat="46.01732359785409" lon="12.25437894335295"><ele>923.6666666666666</ele><time>2026-03-23T10:08:45.999Z</time></trkpt><trkpt lat="46.01735914611177" lon="12.254457084298727"><ele>924.0</ele><time>2026-03-23T10:08:46.999Z</time></trkpt><trkpt lat="46.017439292647" lon="12.25456739905978"><ele>927.8333333333334</ele><time>2026-03-23T10:08:48.999Z</time></trkpt><trkpt lat="46.01753773388459" lon="12.254611340943862"><ele>931.6666666666667</ele><time>2026-03-23T10:08:51Z</time></trkpt><trkpt lat="46.017602726153356" lon="12.254624581713356"><ele>935.5</ele><time>2026-03-23T10:08:52Z</time></trkpt><trkpt lat="46.017682015928955" lon="12.254625452455125"><ele>939.3333333333334</ele><time>2026-03-23T10:08:53Z</time></trkpt><trkpt lat="46.01776992129912" lon="12.254591022286194"><ele>943.1666666666667</ele><time>2026-03-23T10:08:54Z</time></trkpt><trkpt lat="46.01786426530237" lon="12.254551704869218"><ele>947.0</ele><time>2026-03-23T10:08:55Z</time></trkpt><trkpt lat="46.01795963201658" lon="12.254519298948864"><ele>947.0000000000001</ele><time>2026-03-23T10:08:56Z</time></trkpt><trkpt lat="46.0180359763337" lon="12.25449852642632"><ele>947.0</ele><time>2026-03-23T10:08:57Z</time></trkpt><trkpt lat="46.01812720980809" lon="12.254471289760644"><ele>947.0</ele><time>2026-03-23T10:08:58Z</time></trkpt><trkpt lat="46.01820651308581" lon="12.254451777418666"><ele>947.0</ele><time>2026-03-23T10:08:59Z</time></trkpt><trkpt lat="46.01828483573639" lon="12.254419052897372"><ele>947.0000000000001</ele><time>2026-03-23T10:09:00Z</time></trkpt><trkpt lat="46.01836408429721" lon="12.254379626425967"><ele>947.0</ele><time>2026-03-23T10:09:01Z</time></trkpt><trkpt lat="46.01841684402603" lon="12.254328179489187"><ele>949.5000000000001</ele><time>2026-03-23T10:09:02Z</time></trkpt><trkpt lat="46.018495078208396" lon="12.254207623572633"><ele>952.0</ele><time>2026-03-23T10:09:04Z</time></trkpt><trkpt lat="46.01853598530468" lon="12.254132414750545"><ele>954.5</ele><time>2026-03-23T10:09:05Z</time></trkpt><trkpt lat="46.01859152723988" lon="12.25403108741912"><ele>957.0</ele><time>2026-03-23T10:09:06Z</time></trkpt><trkpt lat="46.018656848874045" lon="12.253943138005406"><ele>959.5000000000001</ele><time>2026-03-23T10:09:07Z</time></trkpt><trkpt lat="46.018722052845554" lon="12.253885220071574"><ele>962.0</ele><time>2026-03-23T10:09:08Z</time></trkpt><trkpt lat="46.018822374208675" lon="12.253836853497905"><ele>967.0</ele><time>2026-03-23T10:09:09Z</time></trkpt><trkpt lat="46.01891816514033" lon="12.253791533351533"><ele>972.0</ele><time>2026-03-23T10:09:10Z</time></trkpt><trkpt lat="46.01903460463574" lon="12.253762470168313"><ele>977.0</ele><time>2026-03-23T10:09:11Z</time></trkpt><trkpt lat="46.01917270445008" lon="12.25372625238929"><ele>982.0</ele><time>2026-03-23T10:09:12Z</time></trkpt><trkpt lat="46.01929307940405" lon="12.253684322240515"><ele>983.2</ele><time>2026-03-23T10:09:13Z</time></trkpt><trkpt lat="46.01937606569308" lon="12.253631063694046"><ele>984.4000000000001</ele><time>2026-03-23T10:09:14Z</time></trkpt><trkpt lat="46.01944555345043" lon="12.253607260140443"><ele>985.5999999999999</ele><time>2026-03-23T10:09:15Z</time></trkpt><trkpt lat="46.0195124843584" lon="12.253706794917672"><ele>986.8</ele><time>2026-03-23T10:09:17Z</time></trkpt><trkpt lat="46.01948941189759" lon="12.253905309749547"><ele>988.0</ele><time>2026-03-23T10:09:19Z</time></trkpt><trkpt lat="46.019445980586255" lon="12.254052881048004"><ele>984.2</ele><time>2026-03-23T10:09:20Z</time></trkpt><trkpt lat="46.01938363171714" lon="12.254193377140853"><ele>980.4</ele><time>2026-03-23T10:09:21Z</time></trkpt><trkpt lat="46.01933960669271" lon="12.254278721789555"><ele>976.6000000000001</ele><time>2026-03-23T10:09:22Z</time></trkpt><trkpt lat="46.01934634924222" lon="12.254382973840645"><ele>972.8000000000001</ele><time>2026-03-23T10:09:24Z</time></trkpt><trkpt lat="46.01941519005498" lon="12.254378416459845"><ele>969.0</ele><time>2026-03-23T10:09:26Z</time></trkpt><trkpt lat="46.01950824611724" lon="12.254193604088181"><ele>969.0</ele><time>2026-03-23T10:09:28Z</time></trkpt><trkpt lat="46.01959544047594" lon="12.254056199299177"><ele>969.0</ele><time>2026-03-23T10:09:29Z</time></trkpt><trkpt lat="46.01970365385411" lon="12.253928691801333"><ele>969.0</ele><time>2026-03-23T10:09:30Z</time></trkpt><trkpt lat="46.019799770974366" lon="12.253809195052582"><ele>969.0</ele><time>2026-03-23T10:09:31Z</time></trkpt><trkpt lat="46.01986067995321" lon="12.253680022701602"><ele>972.8000000000001</ele><time>2026-03-23T10:09:32Z</time></trkpt><trkpt lat="46.019904118427036" lon="12.253547542119358"><ele>976.6000000000001</ele><time>2026-03-23T10:09:33Z</time></trkpt><trkpt lat="46.01996682836492" lon="12.253517815709719"><ele>980.4</ele><time>2026-03-23T10:09:35Z</time></trkpt><trkpt lat="46.02000040657335" lon="12.253667174663772"><ele>984.2</ele><time>2026-03-23T10:09:37Z</time></trkpt><trkpt lat="46.020002091942025" lon="12.253792954436722"><ele>988.0</ele><time>2026-03-23T10:09:38Z</time></trkpt><trkpt lat="46.02002641949231" lon="12.25393731473571"><ele>988.9999999999999</ele><time>2026-03-23T10:09:39Z</time></trkpt><trkpt lat="46.02005813219016" lon="12.25404986426329"><ele>990.0</ele><time>2026-03-23T10:09:40Z</time></trkpt><trkpt lat="46.02007921115712" lon="12.254176127301845"><ele>991.0</ele><time>2026-03-23T10:09:41Z</time></trkpt><trkpt lat="46.02009392514509" lon="12.254320382519612"><ele>992.0</ele><time>2026-03-23T10:09:42Z</time></trkpt><trkpt lat="46.020083666092084" lon="12.254437108289778"><ele>992.9999999999999</ele><time>2026-03-23T10:09:43Z</time></trkpt><trkpt lat="46.02006854594122" lon="12.25452969321031"><ele>994.0</ele><time>2026-03-23T10:09:44Z</time></trkpt><trkpt lat="46.0200835630227" lon="12.254652885411645"><ele>993.9999999999999</ele><time>2026-03-23T10:09:46Z</time></trkpt><trkpt lat="46.020113300381226" lon="12.254733206561896"><ele>994.0</ele><time>2026-03-23T10:09:48Z</time></trkpt><trkpt lat="46.0200451445204" lon="12.254782862599843"><ele>994.0</ele><time>2026-03-23T10:10:17Z</time></trkpt><trkpt lat="46.02001923270004" lon="12.254891124761391"><ele>994.0</ele><time>2026-03-23T10:10:19Z</time></trkpt><trkpt lat="46.02007379101829" lon="12.255003556578664"><ele>993.9999999999999</ele><time>2026-03-23T10:10:20Z</time></trkpt><trkpt lat="46.02014518957185" lon="12.25511318323259"><ele>994.0</ele><time>2026-03-23T10:10:21Z</time></trkpt><trkpt lat="46.02021085063192" lon="12.25522827318493"><ele>993.6666666666666</ele><time>2026-03-23T10:10:22Z</time></trkpt><trkpt lat="46.020261471840804" lon="12.255336634643795"><ele>993.3333333333333</ele><time>2026-03-23T10:10:23Z</time></trkpt><trkpt lat="46.02031085846192" lon="12.255455706502826"><ele>993.0</ele><time>2026-03-23T10:10:24Z</time></trkpt><trkpt lat="46.02035581103265" lon="12.255565019092199"><ele>992.6666666666667</ele><time>2026-03-23T10:10:25Z</time></trkpt><trkpt lat="46.02040054550931" lon="12.255667646506062"><ele>992.3333333333334</ele><time>2026-03-23T10:10:26Z</time></trkpt><trkpt lat="46.02044437793802" lon="12.255770658749661"><ele>992.0</ele><time>2026-03-23T10:10:27Z</time></trkpt><trkpt lat="46.02048548525773" lon="12.255876724359846"><ele>988.6666666666667</ele><time>2026-03-23T10:10:28Z</time></trkpt><trkpt lat="46.02053109614725" lon="12.255974884156837"><ele>985.3333333333334</ele><time>2026-03-23T10:10:29Z</time></trkpt><trkpt lat="46.02057582383795" lon="12.256073614555467"><ele>982.0</ele><time>2026-03-23T10:10:30Z</time></trkpt><trkpt lat="46.020624687409615" lon="12.25617621850001"><ele>978.6666666666667</ele><time>2026-03-23T10:10:31Z</time></trkpt><trkpt lat="46.02067554030968" lon="12.25627282729867"><ele>975.3333333333334</ele><time>2026-03-23T10:10:32Z</time></trkpt><trkpt lat="46.02073324910874" lon="12.25636868538932"><ele>972.0</ele><time>2026-03-23T10:10:33Z</time></trkpt><trkpt lat="46.02078118990852" lon="12.25647042836861"><ele>974.6</ele><time>2026-03-23T10:10:34Z</time></trkpt><trkpt lat="46.0208252254369" lon="12.256588421338863"><ele>977.2</ele><time>2026-03-23T10:10:35Z</time></trkpt><trkpt lat="46.02086826460215" lon="12.25670607722561"><ele>979.8</ele><time>2026-03-23T10:10:36Z</time></trkpt><trkpt lat="46.020910936703515" lon="12.256823337745564"><ele>982.4</ele><time>2026-03-23T10:10:37Z</time></trkpt><trkpt lat="46.02095619600064" lon="12.256936984528032"><ele>985.0</ele><time>2026-03-23T10:10:38Z</time></trkpt><trkpt lat="46.0209953329847" lon="12.257044040523768"><ele>984.9999999999999</ele><time>2026-03-23T10:10:39Z</time></trkpt><trkpt lat="46.021038004846844" lon="12.257133926409109"><ele>985.0</ele><time>2026-03-23T10:10:40Z</time></trkpt><trkpt lat="46.02108925854672" lon="12.257209316491313"><ele>985.0</ele><time>2026-03-23T10:10:41Z</time></trkpt><trkpt lat="46.02114475715227" lon="12.257282450113431"><ele>985.0</ele><time>2026-03-23T10:10:42Z</time></trkpt><trkpt lat="46.02120705049322" lon="12.25734370237629"><ele>984.9999999999999</ele><time>2026-03-23T10:10:42.999Z</time></trkpt><trkpt lat="46.021275176741554" lon="12.257395383662457"><ele>985.0</ele><time>2026-03-23T10:10:43.999Z</time></trkpt><trkpt lat="46.02134440569292" lon="12.25744503456143"><ele>979.9999999999999</ele><time>2026-03-23T10:10:44.999Z</time></trkpt><trkpt lat="46.02141286498154" lon="12.25749981311248"><ele>975.0</ele><time>2026-03-23T10:10:45.999Z</time></trkpt><trkpt lat="46.02147281171997" lon="12.2575679305785"><ele>970.0</ele><time>2026-03-23T10:10:46.999Z</time></trkpt><trkpt lat="46.0215223174695" lon="12.257646922323191"><ele>965.0</ele><time>2026-03-23T10:10:47.999Z</time></trkpt><trkpt lat="46.021551002724784" lon="12.257756566963437"><ele>959.9999999999999</ele><time>2026-03-23T10:10:48.999Z</time></trkpt><trkpt lat="46.02157064952953" lon="12.257864309917533"><ele>955.0</ele><time>2026-03-23T10:10:49.999Z</time></trkpt><trkpt lat="46.021587184342195" lon="12.257979214601365"><ele>954.9999999999999</ele><time>2026-03-23T10:10:50.999Z</time></trkpt><trkpt lat="46.02160534482741" lon="12.258099090350347"><ele>955.0</ele><time>2026-03-23T10:10:51.999Z</time></trkpt><trkpt lat="46.021626183094796" lon="12.258216889857987"><ele>955.0</ele><time>2026-03-23T10:10:52.999Z</time></trkpt><trkpt lat="46.02166068926749" lon="12.25833299252114"><ele>955.0</ele><time>2026-03-23T10:10:53.999Z</time></trkpt><trkpt lat="46.02171480897703" lon="12.258433044377272"><ele>954.9999999999999</ele><time>2026-03-23T10:10:54.999Z</time></trkpt><trkpt lat="46.02177999426061" lon="12.258527479862154"><ele>955.0</ele><time>2026-03-23T10:10:55.999Z</time></trkpt><trkpt lat="46.02184160872142" lon="12.258613324889405"><ele>957.2</ele><time>2026-03-23T10:10:57Z</time></trkpt><trkpt lat="46.02191119378081" lon="12.25868457450603"><ele>959.4</ele><time>2026-03-23T10:10:58Z</time></trkpt><trkpt lat="46.02197807875257" lon="12.258736694964588"><ele>961.5999999999999</ele><time>2026-03-23T10:10:59Z</time></trkpt><trkpt lat="46.02203560150574" lon="12.258778848465836"><ele>963.8</ele><time>2026-03-23T10:11:00Z</time></trkpt><trkpt lat="46.02191492994322" lon="12.258735376578226"><ele>966.0</ele><time>2026-03-23T10:11:12Z</time></trkpt><trkpt lat="46.021811023420476" lon="12.258633267683818"><ele>966.0</ele><time>2026-03-23T10:11:13Z</time></trkpt><trkpt lat="46.0217221576979" lon="12.258520018599821"><ele>966.0</ele><time>2026-03-23T10:11:14Z</time></trkpt><trkpt lat="46.021653268314324" lon="12.258355792981167"><ele>966.0</ele><time>2026-03-23T10:11:15Z</time></trkpt><trkpt lat="46.02160649660492" lon="12.258192948385904"><ele>966.0</ele><time>2026-03-23T10:11:16Z</time></trkpt><trkpt lat="46.02156769860463" lon="12.257986246530365"><ele>963.8</ele><time>2026-03-23T10:11:17Z</time></trkpt><trkpt lat="46.02154152024451" lon="12.25783609043155"><ele>961.5999999999999</ele><time>2026-03-23T10:11:18Z</time></trkpt><trkpt lat="46.02150831020782" lon="12.257717895662882"><ele>959.4</ele><time>2026-03-23T10:11:19Z</time></trkpt><trkpt lat="46.02145466308522" lon="12.257611700791287"><ele>957.2</ele><time>2026-03-23T10:11:20Z</time></trkpt><trkpt lat="46.021372951268624" lon="12.257530061038395"><ele>955.0</ele><time>2026-03-23T10:11:21Z</time></trkpt><trkpt lat="46.02125938494658" lon="12.257446363335715"><ele>955.0</ele><time>2026-03-23T10:11:22Z</time></trkpt><trkpt lat="46.02114440636876" lon="12.257349010783274"><ele>955.0</ele><time>2026-03-23T10:11:23Z</time></trkpt><trkpt lat="46.02106408805682" lon="12.257242620362156"><ele>955.0</ele><time>2026-03-23T10:11:24Z</time></trkpt><trkpt lat="46.020997512548355" lon="12.257111011895093"><ele>955.0</ele><time>2026-03-23T10:11:25Z</time></trkpt><trkpt lat="46.020925800257665" lon="12.256936487200651"><ele>951.6666666666666</ele><time>2026-03-23T10:11:26Z</time></trkpt><trkpt lat="46.02084992457992" lon="12.256738243629936"><ele>948.3333333333333</ele><time>2026-03-23T10:11:27Z</time></trkpt><trkpt lat="46.020749900609815" lon="12.256511948347205"><ele>945.0</ele><time>2026-03-23T10:11:28Z</time></trkpt><trkpt lat="46.02064338408818" lon="12.256282157191336"><ele>954.0</ele><time>2026-03-23T10:11:29Z</time></trkpt><trkpt lat="46.02054320174917" lon="12.256093836781558"><ele>963.0</ele><time>2026-03-23T10:11:30Z</time></trkpt><trkpt lat="46.02046276996712" lon="12.255911232713542"><ele>972.0</ele><time>2026-03-23T10:11:31Z</time></trkpt><trkpt lat="46.02038067216766" lon="12.255701909390176"><ele>978.6666666666667</ele><time>2026-03-23T10:11:32Z</time></trkpt><trkpt lat="46.02028296634642" lon="12.255480993003118"><ele>985.3333333333334</ele><time>2026-03-23T10:11:33Z</time></trkpt><trkpt lat="46.02020811754634" lon="12.255290986614021"><ele>992.0</ele><time>2026-03-23T10:11:34Z</time></trkpt><trkpt lat="46.020133733431585" lon="12.255140451060576"><ele>992.0</ele><time>2026-03-23T10:11:35Z</time></trkpt><trkpt lat="46.02006944172945" lon="12.255014270525923"><ele>992.0</ele><time>2026-03-23T10:11:36Z</time></trkpt><trkpt lat="46.02001877185869" lon="12.25490384384437"><ele>992.0</ele><time>2026-03-23T10:11:37Z</time></trkpt><trkpt lat="46.02000053474941" lon="12.254775084474762"><ele>992.0</ele><time>2026-03-23T10:11:39Z</time></trkpt><trkpt lat="46.02010119781514" lon="12.254757694683414"><ele>992.0</ele><time>2026-03-23T10:11:41Z</time></trkpt><trkpt lat="46.02019792631114" lon="12.254916891838072"><ele>992.0</ele><time>2026-03-23T10:11:43Z</time></trkpt><trkpt lat="46.02024447484509" lon="12.255060526811448"><ele>992.0</ele><time>2026-03-23T10:11:44Z</time></trkpt><trkpt lat="46.020330978922196" lon="12.25519162953442"><ele>992.0</ele><time>2026-03-23T10:11:45Z</time></trkpt><trkpt lat="46.02044982198942" lon="12.255342812863685"><ele>992.0</ele><time>2026-03-23T10:11:46Z</time></trkpt><trkpt lat="46.02056920912084" lon="12.255489536707543"><ele>985.3333333333334</ele><time>2026-03-23T10:11:47Z</time></trkpt><trkpt lat="46.02066789847557" lon="12.255636339843052"><ele>978.6666666666667</ele><time>2026-03-23T10:11:48Z</time></trkpt><trkpt lat="46.02077790198449" lon="12.255812651346671"><ele>972.0</ele><time>2026-03-23T10:11:49Z</time></trkpt><trkpt lat="46.02092198384727" lon="12.255951953643601"><ele>987.6666666666667</ele><time>2026-03-23T10:11:50Z</time></trkpt><trkpt lat="46.02109603864564" lon="12.256098460601082"><ele>1003.3333333333334</ele><time>2026-03-23T10:11:51Z</time></trkpt><trkpt lat="46.02124782480887" lon="12.256259183689323"><ele>1019.0</ele><time>2026-03-23T10:11:52Z</time></trkpt><trkpt lat="46.02136952950724" lon="12.256394815329688"><ele>1021.25</ele><time>2026-03-23T10:11:53Z</time></trkpt><trkpt lat="46.02147969267056" lon="12.256488167989597"><ele>1023.5</ele><time>2026-03-23T10:11:54Z</time></trkpt><trkpt lat="46.02158541573644" lon="12.256545350417309"><ele>1025.75</ele><time>2026-03-23T10:11:55Z</time></trkpt><trkpt lat="46.021723884414314" lon="12.25658065218136"><ele>1028.0</ele><time>2026-03-23T10:11:56Z</time></trkpt><trkpt lat="46.021887929477906" lon="12.256582812556598"><ele>1028.0</ele><time>2026-03-23T10:11:57Z</time></trkpt><trkpt lat="46.022021660315794" lon="12.256583925310458"><ele>1028.0</ele><time>2026-03-23T10:11:58Z</time></trkpt><trkpt lat="46.02211452493757" lon="12.256604396160254"><ele>1028.0</ele><time>2026-03-23T10:11:59Z</time></trkpt><trkpt lat="46.02216597398538" lon="12.256673667970068"><ele>1028.0</ele><time>2026-03-23T10:12:00Z</time></trkpt><trkpt lat="46.02221404368593" lon="12.256779883198934"><ele>1028.0</ele><time>2026-03-23T10:12:01Z</time></trkpt><trkpt lat="46.02225494247804" lon="12.256937276622208"><ele>1028.0</ele><time>2026-03-23T10:12:02Z</time></trkpt><trkpt lat="46.0223092817463" lon="12.257090195960972"><ele>1028.0</ele><time>2026-03-23T10:12:03Z</time></trkpt><trkpt lat="46.02238599253225" lon="12.257194184641278"><ele>1028.0</ele><time>2026-03-23T10:12:04Z</time></trkpt><trkpt lat="46.0224961257565" lon="12.257253139574887"><ele>1028.0</ele><time>2026-03-23T10:12:05Z</time></trkpt><trkpt lat="46.022630335938466" lon="12.257305643475647"><ele>1030.6666666666667</ele><time>2026-03-23T10:12:06Z</time></trkpt><trkpt lat="46.02280439831933" lon="12.25733896545311"><ele>1033.3333333333333</ele><time>2026-03-23T10:12:07Z</time></trkpt><trkpt lat="46.02300941554676" lon="12.257387976544711"><ele>1036.0</ele><time>2026-03-23T10:12:08Z</time></trkpt><trkpt lat="46.02322001518433" lon="12.257447861603351"><ele>1043.0</ele><time>2026-03-23T10:12:09Z</time></trkpt><trkpt lat="46.023426589733994" lon="12.25755074272587"><ele>1050.0</ele><time>2026-03-23T10:12:10Z</time></trkpt><trkpt lat="46.02364384209716" lon="12.257659163229977"><ele>1057.0</ele><time>2026-03-23T10:12:11Z</time></trkpt><trkpt lat="46.023826053953805" lon="12.257753740780753"><ele>1057.0</ele><time>2026-03-23T10:12:12Z</time></trkpt><trkpt lat="46.0239465261248" lon="12.25782490462266"><ele>1057.0</ele><time>2026-03-23T10:12:13Z</time></trkpt><trkpt lat="46.024027775942336" lon="12.25786711850442"><ele>1057.0</ele><time>2026-03-23T10:12:14Z</time></trkpt><trkpt lat="46.02408042830486" lon="12.257949269365586"><ele>1057.0</ele><time>2026-03-23T10:12:15Z</time></trkpt><trkpt lat="46.024116660903445" lon="12.258087287163416"><ele>1057.0</ele><time>2026-03-23T10:12:16Z</time></trkpt><trkpt lat="46.02417752117963" lon="12.258268010446262"><ele>1057.6666666666665</ele><time>2026-03-23T10:12:17Z</time></trkpt><trkpt lat="46.02427236447408" lon="12.258460016261322"><ele>1058.3333333333333</ele><time>2026-03-23T10:12:18Z</time></trkpt><trkpt lat="46.02438666696453" lon="12.258645429921229"><ele>1059.0</ele><time>2026-03-23T10:12:19Z</time></trkpt><trkpt lat="46.0245334375195" lon="12.258815501571044"><ele>1053.0</ele><time>2026-03-23T10:12:20Z</time></trkpt><trkpt lat="46.024676065988274" lon="12.25895532082082"><ele>1047.0</ele><time>2026-03-23T10:12:21Z</time></trkpt><trkpt lat="46.02479129472183" lon="12.259071699499891"><ele>1041.0</ele><time>2026-03-23T10:12:22Z</time></trkpt><trkpt lat="46.02488007889092" lon="12.25922071409301"><ele>1041.0</ele><time>2026-03-23T10:12:23Z</time></trkpt><trkpt lat="46.024975397703784" lon="12.259427897332433"><ele>1041.0</ele><time>2026-03-23T10:12:24Z</time></trkpt><trkpt lat="46.025084864108685" lon="12.259662720807285"><ele>1041.0</ele><time>2026-03-23T10:12:25Z</time></trkpt><trkpt lat="46.02521946648724" lon="12.25989667962918"><ele>1050.6666666666667</ele><time>2026-03-23T10:12:26Z</time></trkpt><trkpt lat="46.025358069011375" lon="12.260115182537994"><ele>1060.3333333333335</ele><time>2026-03-23T10:12:27Z</time></trkpt><trkpt lat="46.02547033187355" lon="12.26029824409057"><ele>1070.0</ele><time>2026-03-23T10:12:28Z</time></trkpt><trkpt lat="46.02556570650125" lon="12.26045364599008"><ele>1070.0</ele><time>2026-03-23T10:12:29Z</time></trkpt><trkpt lat="46.02564452311265" lon="12.260563273687868"><ele>1070.0</ele><time>2026-03-23T10:12:30Z</time></trkpt><trkpt lat="46.0257177117784" lon="12.260631554622506"><ele>1070.0</ele><time>2026-03-23T10:12:31Z</time></trkpt><trkpt lat="46.02579466830488" lon="12.260666915728144"><ele>1070.0</ele><time>2026-03-23T10:12:32Z</time></trkpt><trkpt lat="46.025879323794534" lon="12.2606755949731"><ele>1070.0</ele><time>2026-03-23T10:12:33Z</time></trkpt><trkpt lat="46.02595943278946" lon="12.260642682300332"><ele>1070.0</ele><time>2026-03-23T10:12:34Z</time></trkpt><trkpt lat="46.02603956556537" lon="12.260594609679261"><ele>1072.5</ele><time>2026-03-23T10:12:35Z</time></trkpt><trkpt lat="46.02611426753385" lon="12.260540410570005"><ele>1075.0</ele><time>2026-03-23T10:12:36Z</time></trkpt><trkpt lat="46.02619688935927" lon="12.260498741294374"><ele>1077.5</ele><time>2026-03-23T10:12:37Z</time></trkpt><trkpt lat="46.02626623641516" lon="12.260490702845834"><ele>1080.0</ele><time>2026-03-23T10:12:38Z</time></trkpt><trkpt lat="46.02632704619395" lon="12.260533641271312"><ele>1082.5</ele><time>2026-03-23T10:12:39Z</time></trkpt><trkpt lat="46.026380956713126" lon="12.260603371096352"><ele>1085.0</ele><time>2026-03-23T10:12:40Z</time></trkpt><trkpt lat="46.026427190356" lon="12.260729268478308"><ele>1085.0</ele><time>2026-03-23T10:12:41Z</time></trkpt><trkpt lat="46.026476818069995" lon="12.260887467146501"><ele>1085.0</ele><time>2026-03-23T10:12:42Z</time></trkpt><trkpt lat="46.02653270329578" lon="12.261040721290675"><ele>1085.0</ele><time>2026-03-23T10:12:43Z</time></trkpt><trkpt lat="46.0265816787469" lon="12.261153003743276"><ele>1085.0</ele><time>2026-03-23T10:12:44Z</time></trkpt><trkpt lat="46.02665606406188" lon="12.261268026327489"><ele>1085.0</ele><time>2026-03-23T10:12:45Z</time></trkpt><trkpt lat="46.026769476398115" lon="12.261366640616219"><ele>1086.75</ele><time>2026-03-23T10:12:46Z</time></trkpt><trkpt lat="46.02689643328816" lon="12.261453149032926"><ele>1088.5</ele><time>2026-03-23T10:12:46.999Z</time></trkpt><trkpt lat="46.02702755148217" lon="12.261518673452892"><ele>1090.25</ele><time>2026-03-23T10:12:47.999Z</time></trkpt><trkpt lat="46.02713778498964" lon="12.261577293052676"><ele>1092.0</ele><time>2026-03-23T10:12:48.999Z</time></trkpt><trkpt lat="46.02721673270608" lon="12.261657396859022"><ele>1092.0</ele><time>2026-03-23T10:12:49.999Z</time></trkpt><trkpt lat="46.02727901602118" lon="12.261763011619774"><ele>1092.0</ele><time>2026-03-23T10:12:50.999Z</time></trkpt><trkpt lat="46.02733405460662" lon="12.261909303229315"><ele>1092.0</ele><time>2026-03-23T10:12:51.999Z</time></trkpt><trkpt lat="46.02739834801442" lon="12.262098660355116"><ele>1092.0</ele><time>2026-03-23T10:12:52.999Z</time></trkpt><trkpt lat="46.02746027894201" lon="12.262294292132955"><ele>1096.3333333333333</ele><time>2026-03-23T10:12:53.999Z</time></trkpt><trkpt lat="46.02751942810466" lon="12.262438112714886"><ele>1100.6666666666667</ele><time>2026-03-23T10:12:54.999Z</time></trkpt><trkpt lat="46.02757504815603" lon="12.262545033549134"><ele>1105.0</ele><time>2026-03-23T10:12:55.999Z</time></trkpt><trkpt lat="46.02763276525879" lon="12.262616243570722"><ele>1109.3333333333335</ele><time>2026-03-23T10:12:56.999Z</time></trkpt><trkpt lat="46.027695758505175" lon="12.262665329650979"><ele>1113.6666666666667</ele><time>2026-03-23T10:12:57.999Z</time></trkpt><trkpt lat="46.02776316250574" lon="12.262713112477915"><ele>1118.0</ele><time>2026-03-23T10:12:58.999Z</time></trkpt><trkpt lat="46.027833692127636" lon="12.262738965093698"><ele>1118.0</ele><time>2026-03-23T10:12:59.999Z</time></trkpt><trkpt lat="46.027899563441416" lon="12.262750971119122"><ele>1118.0</ele><time>2026-03-23T10:13:00.999Z</time></trkpt><trkpt lat="46.02801500281728" lon="12.26274046430303"><ele>1118.0</ele><time>2026-03-23T10:13:03Z</time></trkpt><trkpt lat="46.0280799667476" lon="12.262709337085239"><ele>1118.0</ele><time>2026-03-23T10:13:04Z</time></trkpt><trkpt lat="46.028155350928" lon="12.262681989550257"><ele>1118.0</ele><time>2026-03-23T10:13:05Z</time></trkpt><trkpt lat="46.02824238778038" lon="12.262650998711926"><ele>1118.0</ele><time>2026-03-23T10:13:06Z</time></trkpt><trkpt lat="46.028349237729564" lon="12.262600230367797"><ele>1120.6</ele><time>2026-03-23T10:13:07Z</time></trkpt><trkpt lat="46.02846148506538" lon="12.262546758525035"><ele>1123.1999999999998</ele><time>2026-03-23T10:13:08Z</time></trkpt><trkpt lat="46.028569902140276" lon="12.262495957827113"><ele>1125.8</ele><time>2026-03-23T10:13:09Z</time></trkpt><trkpt lat="46.028672695596285" lon="12.262443239156982"><ele>1128.3999999999999</ele><time>2026-03-23T10:13:10Z</time></trkpt><trkpt lat="46.02876191758847" lon="12.262403168785674"><ele>1131.0</ele><time>2026-03-23T10:13:11Z</time></trkpt><trkpt lat="46.02883235721859" lon="12.262383858944379"><ele>1131.0</ele><time>2026-03-23T10:13:12Z</time></trkpt><trkpt lat="46.02892797446729" lon="12.262314198221778"><ele>1131.0</ele><time>2026-03-23T10:13:14Z</time></trkpt><trkpt lat="46.028919876894214" lon="12.262190170694444"><ele>1131.0</ele><time>2026-03-23T10:13:16Z</time></trkpt><trkpt lat="46.02880616597876" lon="12.262149970660978"><ele>1131.0</ele><time>2026-03-23T10:13:18Z</time></trkpt><trkpt lat="46.028719919989946" lon="12.262187740085333"><ele>1131.0</ele><time>2026-03-23T10:13:19Z</time></trkpt><trkpt lat="46.028625592602" lon="12.262188688946573"><ele>1130.25</ele><time>2026-03-23T10:13:20Z</time></trkpt><trkpt lat="46.0285112995175" lon="12.262142003569718"><ele>1129.5</ele><time>2026-03-23T10:13:21Z</time></trkpt><trkpt lat="46.02839937095951" lon="12.262063435183558"><ele>1128.75</ele><time>2026-03-23T10:13:22Z</time></trkpt><trkpt lat="46.02829181001205" lon="12.261952368295976"><ele>1128.0</ele><time>2026-03-23T10:13:23Z</time></trkpt><trkpt lat="46.028178721632585" lon="12.261799062826626"><ele>1128.0</ele><time>2026-03-23T10:13:24Z</time></trkpt><trkpt lat="46.02809441091845" lon="12.261666433617648"><ele>1128.0</ele><time>2026-03-23T10:13:25Z</time></trkpt><trkpt lat="46.02801475082666" lon="12.261534951779788"><ele>1128.0</ele><time>2026-03-23T10:13:26Z</time></trkpt><trkpt lat="46.027940843838365" lon="12.261390554617401"><ele>1128.0</ele><time>2026-03-23T10:13:27Z</time></trkpt><trkpt lat="46.027870522284125" lon="12.261224171212373"><ele>1131.0</ele><time>2026-03-23T10:13:28Z</time></trkpt><trkpt lat="46.027817423932056" lon="12.261052664661884"><ele>1134.0</ele><time>2026-03-23T10:13:29Z</time></trkpt><trkpt lat="46.027774034894215" lon="12.260892044495817"><ele>1137.0</ele><time>2026-03-23T10:13:30Z</time></trkpt><trkpt lat="46.02773230082323" lon="12.260754739724723"><ele>1140.0</ele><time>2026-03-23T10:13:31Z</time></trkpt><trkpt lat="46.02769416925089" lon="12.26063601029605"><ele>1143.0</ele><time>2026-03-23T10:13:32Z</time></trkpt><trkpt lat="46.02765933613028" lon="12.260511284333731"><ele>1147.0</ele><time>2026-03-23T10:13:33Z</time></trkpt><trkpt lat="46.027624895358585" lon="12.260390201385402"><ele>1151.0</ele><time>2026-03-23T10:13:34Z</time></trkpt><trkpt lat="46.027582141764576" lon="12.260258373540434"><ele>1155.0</ele><time>2026-03-23T10:13:35Z</time></trkpt><trkpt lat="46.0275441123286" lon="12.260097634518845"><ele>1159.0</ele><time>2026-03-23T10:13:36Z</time></trkpt><trkpt lat="46.027527548284695" lon="12.259920318742488"><ele>1163.0</ele><time>2026-03-23T10:13:37Z</time></trkpt><trkpt lat="46.027533263583415" lon="12.259754952322146"><ele>1163.75</ele><time>2026-03-23T10:13:38Z</time></trkpt><trkpt lat="46.02754722177427" lon="12.259590787452089"><ele>1164.5</ele><time>2026-03-23T10:13:39Z</time></trkpt><trkpt lat="46.027571983903385" lon="12.259416737833341"><ele>1165.25</ele><time>2026-03-23T10:13:40Z</time></trkpt><trkpt lat="46.02761278800201" lon="12.25926065695663"><ele>1166.0</ele><time>2026-03-23T10:13:41Z</time></trkpt><trkpt lat="46.02767173408258" lon="12.259138827430217"><ele>1166.0</ele><time>2026-03-23T10:13:42Z</time></trkpt><trkpt lat="46.02774048739589" lon="12.259032414149683"><ele>1166.0</ele><time>2026-03-23T10:13:43Z</time></trkpt><trkpt lat="46.027779798872395" lon="12.258913440677146"><ele>1166.0</ele><time>2026-03-23T10:13:44Z</time></trkpt><trkpt lat="46.0277921200458" lon="12.258774668307867"><ele>1166.0</ele><time>2026-03-23T10:13:45Z</time></trkpt><trkpt lat="46.027783602859195" lon="12.258645844522288"><ele>1166.0</ele><time>2026-03-23T10:13:46Z</time></trkpt><trkpt lat="46.027748890222995" lon="12.258521529435585"><ele>1169.0</ele><time>2026-03-23T10:13:47Z</time></trkpt><trkpt lat="46.027691464623075" lon="12.258387819903842"><ele>1172.0</ele><time>2026-03-23T10:13:48Z</time></trkpt><trkpt lat="46.02762777619397" lon="12.258263416668116"><ele>1175.0</ele><time>2026-03-23T10:13:49Z</time></trkpt><trkpt lat="46.02755978864345" lon="12.258185372809118"><ele>1178.0</ele><time>2026-03-23T10:13:50Z</time></trkpt><trkpt lat="46.02747778993796" lon="12.258148020305677"><ele>1181.0</ele><time>2026-03-23T10:13:51Z</time></trkpt><trkpt lat="46.027380858522974" lon="12.258140720805583"><ele>1181.0</ele><time>2026-03-23T10:13:52Z</time></trkpt><trkpt lat="46.027246668205095" lon="12.258153090181269"><ele>1181.0</ele><time>2026-03-23T10:13:53Z</time></trkpt><trkpt lat="46.02708197398006" lon="12.258151017647018"><ele>1181.0</ele><time>2026-03-23T10:13:54Z</time></trkpt><trkpt lat="46.0268962671722" lon="12.2581263881212"><ele>1181.6666666666667</ele><time>2026-03-23T10:13:55Z</time></trkpt><trkpt lat="46.02671020596614" lon="12.258102739527725"><ele>1182.3333333333333</ele><time>2026-03-23T10:13:56Z</time></trkpt><trkpt lat="46.02655079156989" lon="12.258087233267709"><ele>1183.0</ele><time>2026-03-23T10:13:57Z</time></trkpt><trkpt lat="46.02640582622143" lon="12.258056259112887"><ele>1183.0</ele><time>2026-03-23T10:13:58Z</time></trkpt><trkpt lat="46.026433080397005" lon="12.257951584116316"><ele>1183.0</ele><time>2026-03-23T10:13:59Z</time></trkpt><trkpt lat="46.02636114519898" lon="12.257870810745139"><ele>1183.0</ele><time>2026-03-23T10:14:00Z</time></trkpt><trkpt lat="46.02629638178351" lon="12.257749848029725"><ele>1183.0</ele><time>2026-03-23T10:14:01Z</time></trkpt><trkpt lat="46.02622197376816" lon="12.257569325008324"><ele>1183.0</ele><time>2026-03-23T10:14:02Z</time></trkpt><trkpt lat="46.02614617579886" lon="12.257349912261029"><ele>1189.6666666666665</ele><time>2026-03-23T10:14:03Z</time></trkpt><trkpt lat="46.02605840841104" lon="12.257107830052204"><ele>1196.3333333333333</ele><time>2026-03-23T10:14:04Z</time></trkpt><trkpt lat="46.025981327521414" lon="12.256926154580933"><ele>1203.0</ele><time>2026-03-23T10:14:05Z</time></trkpt><trkpt lat="46.02591151533237" lon="12.256796542735412"><ele>1203.0</ele><time>2026-03-23T10:14:06Z</time></trkpt><trkpt lat="46.02585325990774" lon="12.25670535745169"><ele>1203.0</ele><time>2026-03-23T10:14:07Z</time></trkpt><trkpt lat="46.02579890650208" lon="12.256589335282847"><ele>1203.0</ele><time>2026-03-23T10:14:09Z</time></trkpt><trkpt lat="46.02586358350218" lon="12.256501927594279"><ele>1203.0</ele><time>2026-03-23T10:14:11Z</time></trkpt><trkpt lat="46.02597558374984" lon="12.256527434201224"><ele>1203.0</ele><time>2026-03-23T10:14:13Z</time></trkpt><trkpt lat="46.02605720531317" lon="12.256621153582266"><ele>1203.0</ele><time>2026-03-23T10:14:14Z</time></trkpt><trkpt lat="46.02615266408905" lon="12.256761120743557"><ele>1203.0</ele><time>2026-03-23T10:14:15Z</time></trkpt><trkpt lat="46.0262520609955" lon="12.256922888689394"><ele>1203.0</ele><time>2026-03-23T10:14:16Z</time></trkpt><trkpt lat="46.02634365392466" lon="12.25707667789194"><ele>1203.0</ele><time>2026-03-23T10:14:17Z</time></trkpt><trkpt lat="46.02642898111867" lon="12.25717609019889"><ele>1203.0</ele><time>2026-03-23T10:14:18Z</time></trkpt><trkpt lat="46.02652426925428" lon="12.2572512353523"><ele>1203.0</ele><time>2026-03-23T10:14:19Z</time></trkpt><trkpt lat="46.026629732793644" lon="12.257278960798603"><ele>1203.0</ele><time>2026-03-23T10:14:20Z</time></trkpt><trkpt lat="46.026765627809894" lon="12.257277659105533"><ele>1203.0</ele><time>2026-03-23T10:14:21Z</time></trkpt><trkpt lat="46.02691731424784" lon="12.257242038666957"><ele>1214.6666666666667</ele><time>2026-03-23T10:14:22Z</time></trkpt><trkpt lat="46.027088884589666" lon="12.257173061633797"><ele>1226.3333333333335</ele><time>2026-03-23T10:14:23Z</time></trkpt><trkpt lat="46.027262329699234" lon="12.257088749603321"><ele>1238.0</ele><time>2026-03-23T10:14:24Z</time></trkpt><trkpt lat="46.027444541475234" lon="12.257001843013654"><ele>1240.0</ele><time>2026-03-23T10:14:25Z</time></trkpt><trkpt lat="46.02758200506492" lon="12.256941699445273"><ele>1242.0</ele><time>2026-03-23T10:14:26Z</time></trkpt><trkpt lat="46.02770225449609" lon="12.25689977554808"><ele>1244.0</ele><time>2026-03-23T10:14:27Z</time></trkpt><trkpt lat="46.02781200814837" lon="12.256873191920038"><ele>1246.0</ele><time>2026-03-23T10:14:28Z</time></trkpt><trkpt lat="46.02792621886076" lon="12.256856711486888"><ele>1246.0</ele><time>2026-03-23T10:14:29Z</time></trkpt><trkpt lat="46.02802531518477" lon="12.256852461123994"><ele>1246.0</ele><time>2026-03-23T10:14:30Z</time></trkpt><trkpt lat="46.02809778497554" lon="12.25687601897767"><ele>1246.0</ele><time>2026-03-23T10:14:31Z</time></trkpt><trkpt lat="46.028154359686475" lon="12.256925618398874"><ele>1246.0</ele><time>2026-03-23T10:14:32Z</time></trkpt><trkpt lat="46.028218371727924" lon="12.257139060667663"><ele>1246.0</ele><time>2026-03-23T10:14:34Z</time></trkpt><trkpt lat="46.028274301109775" lon="12.257292799405883"><ele>1244.0</ele><time>2026-03-23T10:14:35Z</time></trkpt><trkpt lat="46.02836510146263" lon="12.257420939996539"><ele>1242.0</ele><time>2026-03-23T10:14:36Z</time></trkpt><trkpt lat="46.02848193854637" lon="12.257538882258594"><ele>1240.0</ele><time>2026-03-23T10:14:37Z</time></trkpt><trkpt lat="46.02862623713854" lon="12.25765695199986"><ele>1238.0</ele><time>2026-03-23T10:14:38Z</time></trkpt><trkpt lat="46.02878478614599" lon="12.257784324168338"><ele>1238.0</ele><time>2026-03-23T10:14:39Z</time></trkpt><trkpt lat="46.02893097954202" lon="12.257905967676686"><ele>1238.0</ele><time>2026-03-23T10:14:40Z</time></trkpt><trkpt lat="46.02904908505444" lon="12.257995085346554"><ele>1238.0</ele><time>2026-03-23T10:14:41Z</time></trkpt><trkpt lat="46.0291409353182" lon="12.258070111783319"><ele>1238.0</ele><time>2026-03-23T10:14:42Z</time></trkpt><trkpt lat="46.0292302612963" lon="12.25812055025824"><ele>1238.6</ele><time>2026-03-23T10:14:43Z</time></trkpt><trkpt lat="46.02932261942442" lon="12.258133980322475"><ele>1239.1999999999998</ele><time>2026-03-23T10:14:44Z</time></trkpt><trkpt lat="46.02942112434708" lon="12.258099741169286"><ele>1239.8</ele><time>2026-03-23T10:14:45Z</time></trkpt><trkpt lat="46.02953089126437" lon="12.258038330460773"><ele>1240.3999999999999</ele><time>2026-03-23T10:14:46Z</time></trkpt><trkpt lat="46.02964316880944" lon="12.257964611061741"><ele>1241.0</ele><time>2026-03-23T10:14:47Z</time></trkpt><trkpt lat="46.02976258537802" lon="12.257884991341134"><ele>1250.6666666666667</ele><time>2026-03-23T10:14:48Z</time></trkpt><trkpt lat="46.02991002573948" lon="12.257808675210315"><ele>1260.3333333333333</ele><time>2026-03-23T10:14:49Z</time></trkpt><trkpt lat="46.03007894461575" lon="12.257727772027765"><ele>1270.0</ele><time>2026-03-23T10:14:50Z</time></trkpt><trkpt lat="46.03025310180063" lon="12.257643954711957"><ele>1271.75</ele><time>2026-03-23T10:14:51Z</time></trkpt><trkpt lat="46.030398869172586" lon="12.25755277373831"><ele>1273.5</ele><time>2026-03-23T10:14:52Z</time></trkpt><trkpt lat="46.0305138894369" lon="12.257464185379014"><ele>1275.25</ele><time>2026-03-23T10:14:53Z</time></trkpt><trkpt lat="46.03060956293264" lon="12.25737922851619"><ele>1277.0</ele><time>2026-03-23T10:14:54Z</time></trkpt><trkpt lat="46.03068471680091" lon="12.25728461132968"><ele>1279.25</ele><time>2026-03-23T10:14:55Z</time></trkpt><trkpt lat="46.030747711622915" lon="12.25716039901477"><ele>1281.5</ele><time>2026-03-23T10:14:56Z</time></trkpt><trkpt lat="46.030808195280095" lon="12.257006309309949"><ele>1283.75</ele><time>2026-03-23T10:14:57Z</time></trkpt><trkpt lat="46.03087180489661" lon="12.256797854073552"><ele>1286.0</ele><time>2026-03-23T10:14:58Z</time></trkpt><trkpt lat="46.030951035600836" lon="12.256552750609524"><ele>1295.0</ele><time>2026-03-23T10:14:59Z</time></trkpt><trkpt lat="46.031041854508615" lon="12.256298674314273"><ele>1304.0</ele><time>2026-03-23T10:15:00Z</time></trkpt><trkpt lat="46.03111915424265" lon="12.2561088143246"><ele>1313.0</ele><time>2026-03-23T10:15:01Z</time></trkpt><trkpt lat="46.031196798181846" lon="12.25595561352268"><ele>1313.0</ele><time>2026-03-23T10:15:02Z</time></trkpt><trkpt lat="46.03126032863477" lon="12.25583346209263"><ele>1313.0</ele><time>2026-03-23T10:15:03Z</time></trkpt><trkpt lat="46.03132598261177" lon="12.255740211375922"><ele>1313.0</ele><time>2026-03-23T10:15:04Z</time></trkpt><trkpt lat="46.03138887121095" lon="12.25572206925052"><ele>1313.0</ele><time>2026-03-23T10:15:05Z</time></trkpt><trkpt lat="46.031461263022365" lon="12.25568669391394"><ele>1313.0</ele><time>2026-03-23T10:15:06Z</time></trkpt><trkpt lat="46.03153525614985" lon="12.255678629853511"><ele>1313.0</ele><time>2026-03-23T10:15:07Z</time></trkpt><trkpt lat="46.03161500461513" lon="12.255696966851927"><ele>1305.75</ele><time>2026-03-23T10:15:08Z</time></trkpt><trkpt lat="46.03171376419865" lon="12.25576492369015"><ele>1298.5</ele><time>2026-03-23T10:15:09Z</time></trkpt><trkpt lat="46.0318409930956" lon="12.255852532368268"><ele>1291.25</ele><time>2026-03-23T10:15:10Z</time></trkpt><trkpt lat="46.03199899492503" lon="12.25594846433948"><ele>1284.0</ele><time>2026-03-23T10:15:11Z</time></trkpt><trkpt lat="46.032173466364384" lon="12.25604550845952"><ele>1284.0</ele><time>2026-03-23T10:15:12Z</time></trkpt><trkpt lat="46.032352590000585" lon="12.256128053187226"><ele>1284.0</ele><time>2026-03-23T10:15:13Z</time></trkpt><trkpt lat="46.03254401835465" lon="12.256214993692389"><ele>1284.0</ele><time>2026-03-23T10:15:14Z</time></trkpt><trkpt lat="46.032735795886595" lon="12.256275723421114"><ele>1292.0</ele><time>2026-03-23T10:15:15Z</time></trkpt><trkpt lat="46.03291563031412" lon="12.256316442630252"><ele>1300.0</ele><time>2026-03-23T10:15:16Z</time></trkpt><trkpt lat="46.03310782546691" lon="12.256336917790502"><ele>1308.0</ele><time>2026-03-23T10:15:17Z</time></trkpt><trkpt lat="46.03326418372491" lon="12.256336352707347"><ele>1305.6000000000001</ele><time>2026-03-23T10:15:18Z</time></trkpt><trkpt lat="46.03337927066235" lon="12.256345250716741"><ele>1303.2</ele><time>2026-03-23T10:15:19Z</time></trkpt><trkpt lat="46.03347843259799" lon="12.256376953340158"><ele>1300.8</ele><time>2026-03-23T10:15:20Z</time></trkpt><trkpt lat="46.033559818993155" lon="12.256451430883416"><ele>1298.4</ele><time>2026-03-23T10:15:21Z</time></trkpt><trkpt lat="46.033642781599106" lon="12.256565147620229"><ele>1296.0</ele><time>2026-03-23T10:15:22Z</time></trkpt><trkpt lat="46.033732948762086" lon="12.25671886326978"><ele>1296.0</ele><time>2026-03-23T10:15:23Z</time></trkpt><trkpt lat="46.03384506516279" lon="12.256906886083062"><ele>1296.0</ele><time>2026-03-23T10:15:24Z</time></trkpt><trkpt lat="46.03396800304665" lon="12.257124922473196"><ele>1296.0</ele><time>2026-03-23T10:15:25Z</time></trkpt><trkpt lat="46.03409132492752" lon="12.257374001807769"><ele>1300.75</ele><time>2026-03-23T10:15:26Z</time></trkpt><trkpt lat="46.03419110859162" lon="12.257580242348645"><ele>1305.5</ele><time>2026-03-23T10:15:27Z</time></trkpt><trkpt lat="46.03426940581512" lon="12.25772488260859"><ele>1310.25</ele><time>2026-03-23T10:15:28Z</time></trkpt><trkpt lat="46.03435477722994" lon="12.257830368641933"><ele>1315.0</ele><time>2026-03-23T10:15:29Z</time></trkpt><trkpt lat="46.03446238180832" lon="12.25791034277188"><ele>1315.0</ele><time>2026-03-23T10:15:30Z</time></trkpt><trkpt lat="46.03457139689349" lon="12.257981938101947"><ele>1315.0</ele><time>2026-03-23T10:15:31Z</time></trkpt><trkpt lat="46.034645136989795" lon="12.258055002316366"><ele>1315.0</ele><time>2026-03-23T10:15:32Z</time></trkpt><trkpt lat="46.034683334323546" lon="12.258138332202126"><ele>1315.0</ele><time>2026-03-23T10:15:33Z</time></trkpt><trkpt lat="46.03469320404251" lon="12.258244488847195"><ele>1315.0</ele><time>2026-03-23T10:15:34Z</time></trkpt><trkpt lat="46.03468645283955" lon="12.258393647081869"><ele>1310.25</ele><time>2026-03-23T10:15:35Z</time></trkpt><trkpt lat="46.03468144704177" lon="12.25856695597566"><ele>1305.5</ele><time>2026-03-23T10:15:36Z</time></trkpt><trkpt lat="46.0346923804752" lon="12.258769430819163"><ele>1300.75</ele><time>2026-03-23T10:15:37Z</time></trkpt><trkpt lat="46.03471922526157" lon="12.25897119094926"><ele>1296.0</ele><time>2026-03-23T10:15:38Z</time></trkpt><trkpt lat="46.03476053279248" lon="12.259175817235896"><ele>1292.0</ele><time>2026-03-23T10:15:39Z</time></trkpt><trkpt lat="46.034813637036045" lon="12.259378234303885"><ele>1288.0</ele><time>2026-03-23T10:15:40Z</time></trkpt><trkpt lat="46.03488942704892" lon="12.2595894381944"><ele>1284.0</ele><time>2026-03-23T10:15:41Z</time></trkpt><trkpt lat="46.03497833042794" lon="12.25982038818278"><ele>1299.6666666666667</ele><time>2026-03-23T10:15:42Z</time></trkpt><trkpt lat="46.03508029479739" lon="12.26007491840989"><ele>1315.3333333333335</ele><time>2026-03-23T10:15:43Z</time></trkpt><trkpt lat="46.035169057930396" lon="12.260292984732256"><ele>1331.0</ele><time>2026-03-23T10:15:44Z</time></trkpt><trkpt lat="46.03522106662184" lon="12.26048984787584"><ele>1329.75</ele><time>2026-03-23T10:15:45Z</time></trkpt><trkpt lat="46.03525318506266" lon="12.260689280596047"><ele>1328.5</ele><time>2026-03-23T10:15:46Z</time></trkpt><trkpt lat="46.035269702368026" lon="12.260873434571065"><ele>1327.25</ele><time>2026-03-23T10:15:47Z</time></trkpt><trkpt lat="46.03528467678637" lon="12.261059851402734"><ele>1326.0</ele><time>2026-03-23T10:15:48Z</time></trkpt><trkpt lat="46.03530954137874" lon="12.26124023060658"><ele>1326.0</ele><time>2026-03-23T10:15:49Z</time></trkpt><trkpt lat="46.03533807420169" lon="12.261397970319868"><ele>1326.0</ele><time>2026-03-23T10:15:50Z</time></trkpt><trkpt lat="46.03536130914342" lon="12.261527900481546"><ele>1326.0</ele><time>2026-03-23T10:15:51Z</time></trkpt><trkpt lat="46.035395415736126" lon="12.261648994421929"><ele>1326.0</ele><time>2026-03-23T10:15:52Z</time></trkpt><trkpt lat="46.035462114669485" lon="12.261778715815572"><ele>1326.0</ele><time>2026-03-23T10:15:53Z</time></trkpt><trkpt lat="46.035545244923235" lon="12.261913738062102"><ele>1323.5</ele><time>2026-03-23T10:15:54Z</time></trkpt><trkpt lat="46.03563358655913" lon="12.262049360901958"><ele>1321.0</ele><time>2026-03-23T10:15:55Z</time></trkpt><trkpt lat="46.03571642943328" lon="12.262183636731644"><ele>1318.5</ele><time>2026-03-23T10:15:56Z</time></trkpt><trkpt lat="46.03578656543871" lon="12.262313694981723"><ele>1316.0</ele><time>2026-03-23T10:15:57Z</time></trkpt><trkpt lat="46.03583997955782" lon="12.262420200941094"><ele>1322.25</ele><time>2026-03-23T10:15:58Z</time></trkpt><trkpt lat="46.03589618434199" lon="12.26247848634402"><ele>1328.5</ele><time>2026-03-23T10:15:59Z</time></trkpt><trkpt lat="46.03602331575413" lon="12.262476714507029"><ele>1334.75</ele><time>2026-03-23T10:16:01Z</time></trkpt><trkpt lat="46.03613056653922" lon="12.262416374417528"><ele>1341.0</ele><time>2026-03-23T10:16:02Z</time></trkpt><trkpt lat="46.03626484691446" lon="12.262358031329436"><ele>1341.0</ele><time>2026-03-23T10:16:03Z</time></trkpt><trkpt lat="46.036409923699594" lon="12.26230428777066"><ele>1341.0</ele><time>2026-03-23T10:16:04Z</time></trkpt><trkpt lat="46.03655433150834" lon="12.262261309920286"><ele>1341.0</ele><time>2026-03-23T10:16:05Z</time></trkpt><trkpt lat="46.036687476392586" lon="12.262222856870931"><ele>1341.0</ele><time>2026-03-23T10:16:06Z</time></trkpt><trkpt lat="46.036814696319894" lon="12.262210930401514"><ele>1343.6</ele><time>2026-03-23T10:16:07Z</time></trkpt><trkpt lat="46.03692594296586" lon="12.262216732044985"><ele>1346.1999999999998</ele><time>2026-03-23T10:16:08Z</time></trkpt><trkpt lat="46.03702410873529" lon="12.262241900096203"><ele>1348.8000000000002</ele><time>2026-03-23T10:16:09Z</time></trkpt><trkpt lat="46.037109454629075" lon="12.262280970182445"><ele>1351.4</ele><time>2026-03-23T10:16:10Z</time></trkpt><trkpt lat="46.03718847508826" lon="12.262330583039773"><ele>1354.0</ele><time>2026-03-23T10:16:11Z</time></trkpt><trkpt lat="46.03724515881122" lon="12.262392833777962"><ele>1354.0</ele><time>2026-03-23T10:16:12Z</time></trkpt><trkpt lat="46.03727868569853" lon="12.262478284359492"><ele>1354.0</ele><time>2026-03-23T10:16:13Z</time></trkpt><trkpt lat="46.037315743214236" lon="12.262601302971419"><ele>1354.0</ele><time>2026-03-23T10:16:14Z</time></trkpt><trkpt lat="46.03733908620109" lon="12.26276766072282"><ele>1354.0</ele><time>2026-03-23T10:16:15Z</time></trkpt><trkpt lat="46.037350902441986" lon="12.262953848771852"><ele>1354.0</ele><time>2026-03-23T10:16:16Z</time></trkpt><trkpt lat="46.03737701418094" lon="12.2631438163241"><ele>1359.3333333333333</ele><time>2026-03-23T10:16:17Z</time></trkpt><trkpt lat="46.03743053010179" lon="12.263339868656976"><ele>1364.6666666666667</ele><time>2026-03-23T10:16:18Z</time></trkpt><trkpt lat="46.037493875916155" lon="12.26354941548391"><ele>1370.0</ele><time>2026-03-23T10:16:19Z</time></trkpt><trkpt lat="46.037569958292224" lon="12.263729137706601"><ele>1370.0</ele><time>2026-03-23T10:16:20Z</time></trkpt><trkpt lat="46.03764935063867" lon="12.263903316763292"><ele>1370.0</ele><time>2026-03-23T10:16:21Z</time></trkpt><trkpt lat="46.03774477001501" lon="12.264067704213737"><ele>1370.0</ele><time>2026-03-23T10:16:22Z</time></trkpt><trkpt lat="46.037856019489304" lon="12.26422117620532"><ele>1370.0</ele><time>2026-03-23T10:16:23Z</time></trkpt><trkpt lat="46.037960987412646" lon="12.26436780525367"><ele>1364.0</ele><time>2026-03-23T10:16:24Z</time></trkpt><trkpt lat="46.03803548068866" lon="12.26451248147705"><ele>1358.0</ele><time>2026-03-23T10:16:25Z</time></trkpt><trkpt lat="46.03808559645321" lon="12.264691392942968"><ele>1352.0</ele><time>2026-03-23T10:16:26Z</time></trkpt><trkpt lat="46.03813485825711" lon="12.26490586801733"><ele>1346.0</ele><time>2026-03-23T10:16:27Z</time></trkpt><trkpt lat="46.03819325020434" lon="12.26511318642799"><ele>1349.0</ele><time>2026-03-23T10:16:28Z</time></trkpt><trkpt lat="46.038256367322425" lon="12.26528606787123"><ele>1352.0</ele><time>2026-03-23T10:16:29Z</time></trkpt><trkpt lat="46.03832337216438" lon="12.265425347761633"><ele>1355.0</ele><time>2026-03-23T10:16:30Z</time></trkpt><trkpt lat="46.0383806292636" lon="12.265541976365935"><ele>1358.0</ele><time>2026-03-23T10:16:31Z</time></trkpt><trkpt lat="46.03845070796762" lon="12.265642207411885"><ele>1358.0</ele><time>2026-03-23T10:16:32Z</time></trkpt><trkpt lat="46.03854784043102" lon="12.265742036201276"><ele>1358.0</ele><time>2026-03-23T10:16:33Z</time></trkpt><trkpt lat="46.0386648020945" lon="12.265850941437186"><ele>1358.0</ele><time>2026-03-23T10:16:34Z</time></trkpt><trkpt lat="46.03880209650502" lon="12.265952074716473"><ele>1358.0</ele><time>2026-03-23T10:16:35Z</time></trkpt><trkpt lat="46.038941094632285" lon="12.266056244248054"><ele>1358.0</ele><time>2026-03-23T10:16:36Z</time></trkpt><trkpt lat="46.03907106775825" lon="12.266153909681005"><ele>1358.0</ele><time>2026-03-23T10:16:37Z</time></trkpt><trkpt lat="46.039187324594934" lon="12.266230060808104"><ele>1358.0</ele><time>2026-03-23T10:16:38Z</time></trkpt><trkpt lat="46.03927172243015" lon="12.266304877519945"><ele>1358.0</ele><time>2026-03-23T10:16:39Z</time></trkpt><trkpt lat="46.039337885106086" lon="12.266398308035566"><ele>1360.25</ele><time>2026-03-23T10:16:40Z</time></trkpt><trkpt lat="46.03938814250127" lon="12.266522546190092"><ele>1362.5</ele><time>2026-03-23T10:16:41Z</time></trkpt><trkpt lat="46.039440443983914" lon="12.266674127165619"><ele>1364.75</ele><time>2026-03-23T10:16:42Z</time></trkpt><trkpt lat="46.039492542934106" lon="12.266843491401398"><ele>1367.0</ele><time>2026-03-23T10:16:43Z</time></trkpt><trkpt lat="46.03954164159771" lon="12.267029452304472"><ele>1367.0</ele><time>2026-03-23T10:16:44Z</time></trkpt><trkpt lat="46.039583855829804" lon="12.267181733232926"><ele>1367.0</ele><time>2026-03-23T10:16:45Z</time></trkpt><trkpt lat="46.03962217349749" lon="12.267286683205446"><ele>1367.0</ele><time>2026-03-23T10:16:46Z</time></trkpt><trkpt lat="46.03968182304003" lon="12.267385278138368"><ele>1367.0</ele><time>2026-03-23T10:16:47Z</time></trkpt><trkpt lat="46.039767612014096" lon="12.267469618592855"><ele>1367.0</ele><time>2026-03-23T10:16:48Z</time></trkpt><trkpt lat="46.03986640674095" lon="12.267544666540909"><ele>1371.25</ele><time>2026-03-23T10:16:49Z</time></trkpt><trkpt lat="46.03997668039147" lon="12.267598930831912"><ele>1375.5</ele><time>2026-03-23T10:16:50Z</time></trkpt><trkpt lat="46.040103680900444" lon="12.267652985146588"><ele>1379.75</ele><time>2026-03-23T10:16:51Z</time></trkpt><trkpt lat="46.040221444892346" lon="12.267705400824687"><ele>1384.0</ele><time>2026-03-23T10:16:52Z</time></trkpt><trkpt lat="46.04029875761421" lon="12.267777884457105"><ele>1384.0</ele><time>2026-03-23T10:16:53Z</time></trkpt><trkpt lat="46.0403521137186" lon="12.26787041223984"><ele>1384.0</ele><time>2026-03-23T10:16:54Z</time></trkpt><trkpt lat="46.04039882496881" lon="12.267994270105248"><ele>1384.0</ele><time>2026-03-23T10:16:55Z</time></trkpt><trkpt lat="46.040458391897424" lon="12.268157468656893"><ele>1384.0</ele><time>2026-03-23T10:16:56Z</time></trkpt><trkpt lat="46.040527334883585" lon="12.268349536910014"><ele>1385.6666666666665</ele><time>2026-03-23T10:16:57Z</time></trkpt><trkpt lat="46.040601429592016" lon="12.268558097591258"><ele>1387.3333333333333</ele><time>2026-03-23T10:16:58Z</time></trkpt><trkpt lat="46.04070947623376" lon="12.268778099817432"><ele>1389.0</ele><time>2026-03-23T10:16:59Z</time></trkpt><trkpt lat="46.040818719620894" lon="12.269022593430526"><ele>1389.0</ele><time>2026-03-23T10:17:00Z</time></trkpt><trkpt lat="46.0409419986202" lon="12.269271957325797"><ele>1389.0</ele><time>2026-03-23T10:17:01Z</time></trkpt><trkpt lat="46.0410474626277" lon="12.26947903558231"><ele>1389.0</ele><time>2026-03-23T10:17:02Z</time></trkpt><trkpt lat="46.04112726271637" lon="12.269646967926672"><ele>1389.0</ele><time>2026-03-23T10:17:03Z</time></trkpt><trkpt lat="46.04122395029032" lon="12.269771838557608"><ele>1389.0</ele><time>2026-03-23T10:17:04Z</time></trkpt><trkpt lat="46.04132850454889" lon="12.26991826126844"><ele>1389.0</ele><time>2026-03-23T10:17:05Z</time></trkpt><trkpt lat="46.04144596491717" lon="12.270097174599886"><ele>1389.0</ele><time>2026-03-23T10:17:06Z</time></trkpt><trkpt lat="46.04155907509321" lon="12.27027556730622"><ele>1391.25</ele><time>2026-03-23T10:17:07Z</time></trkpt><trkpt lat="46.0416481287532" lon="12.270435661244667"><ele>1393.5</ele><time>2026-03-23T10:17:08Z</time></trkpt><trkpt lat="46.041716134253704" lon="12.270572102204001"><ele>1395.75</ele><time>2026-03-23T10:17:09Z</time></trkpt><trkpt lat="46.04176930711051" lon="12.270720087474803"><ele>1398.0</ele><time>2026-03-23T10:17:10Z</time></trkpt><trkpt lat="46.04181478401761" lon="12.270863080649598"><ele>1398.0</ele><time>2026-03-23T10:17:11Z</time></trkpt><trkpt lat="46.041844913620736" lon="12.270981786251852"><ele>1398.0</ele><time>2026-03-23T10:17:12Z</time></trkpt><trkpt lat="46.04187361145297" lon="12.271071358142317"><ele>1398.0</ele><time>2026-03-23T10:17:13Z</time></trkpt><trkpt lat="46.04193755778937" lon="12.271185990935177"><ele>1398.0</ele><time>2026-03-23T10:17:15Z</time></trkpt><trkpt lat="46.04201242052572" lon="12.271278174440337"><ele>1398.0</ele><time>2026-03-23T10:17:17Z</time></trkpt><trkpt lat="46.04208417680994" lon="12.271331432144168"><ele>1398.0</ele><time>2026-03-23T10:17:19Z</time></trkpt><trkpt lat="46.04215011919872" lon="12.27137328683649"><ele>1396.2</ele><time>2026-03-23T10:17:22Z</time></trkpt><trkpt lat="46.042193700581855" lon="12.27149308907621"><ele>1394.4</ele><time>2026-03-23T10:17:32Z</time></trkpt><trkpt lat="46.042233560178865" lon="12.271646373155702"><ele>1392.6000000000001</ele><time>2026-03-23T10:17:34Z</time></trkpt><trkpt lat="46.0422584817302" lon="12.271821887961481"><ele>1390.8000000000002</ele><time>2026-03-23T10:17:36Z</time></trkpt><trkpt lat="46.042274505332074" lon="12.271937311112675"><ele>1389.0</ele><time>2026-03-23T10:17:37Z</time></trkpt><trkpt lat="46.04228171437727" lon="12.272050461121417"><ele>1389.0</ele><time>2026-03-23T10:17:38Z</time></trkpt><trkpt lat="46.04227607669157" lon="12.27216988654186"><ele>1389.0</ele><time>2026-03-23T10:17:39Z</time></trkpt><trkpt lat="46.042252727086655" lon="12.272285318907127"><ele>1389.0</ele><time>2026-03-23T10:17:40Z</time></trkpt><trkpt lat="46.04223422684471" lon="12.272415264640616"><ele>1389.0</ele><time>2026-03-23T10:17:41Z</time></trkpt><trkpt lat="46.04222437465396" lon="12.272528268447973"><ele>1389.0</ele><time>2026-03-23T10:17:42Z</time></trkpt><trkpt lat="46.042212291361686" lon="12.272675844641492"><ele>1389.0</ele><time>2026-03-23T10:17:43Z</time></trkpt><trkpt lat="46.04219360532706" lon="12.27280685314099"><ele>1390.2</ele><time>2026-03-23T10:17:44Z</time></trkpt><trkpt lat="46.042170371362076" lon="12.272937555405427"><ele>1391.4</ele><time>2026-03-23T10:17:45Z</time></trkpt><trkpt lat="46.04215771952193" lon="12.273068321213682"><ele>1392.6</ele><time>2026-03-23T10:17:46Z</time></trkpt><trkpt lat="46.04214901721187" lon="12.27320882779272"><ele>1393.8</ele><time>2026-03-23T10:17:47Z</time></trkpt><trkpt lat="46.04213641901293" lon="12.273330821236506"><ele>1395.0</ele><time>2026-03-23T10:17:48Z</time></trkpt><trkpt lat="46.04212806261605" lon="12.273453916402998"><ele>1395.8333333333333</ele><time>2026-03-23T10:17:49Z</time></trkpt><trkpt lat="46.04212146720123" lon="12.273557508403862"><ele>1396.6666666666667</ele><time>2026-03-23T10:17:50Z</time></trkpt><trkpt lat="46.04212881475949" lon="12.273650046423747"><ele>1397.5</ele><time>2026-03-23T10:17:51Z</time></trkpt><trkpt lat="46.04214930490115" lon="12.273745872092235"><ele>1398.3333333333335</ele><time>2026-03-23T10:17:52Z</time></trkpt><trkpt lat="46.04218566426773" lon="12.273824945215733"><ele>1399.1666666666667</ele><time>2026-03-23T10:17:53Z</time></trkpt><trkpt lat="46.042240029441245" lon="12.273911815866132"><ele>1400.0</ele><time>2026-03-23T10:17:54Z</time></trkpt><trkpt lat="46.042319094910745" lon="12.274002670777724"><ele>1400.0</ele><time>2026-03-23T10:17:55Z</time></trkpt><trkpt lat="46.042411750288224" lon="12.274116941370464"><ele>1400.0</ele><time>2026-03-23T10:17:56Z</time></trkpt><trkpt lat="46.04251082226834" lon="12.274231612628117"><ele>1400.0</ele><time>2026-03-23T10:17:57Z</time></trkpt><trkpt lat="46.042606838998296" lon="12.274327461978583"><ele>1400.0</ele><time>2026-03-23T10:17:58Z</time></trkpt><trkpt lat="46.042703641186854" lon="12.274423904894554"><ele>1404.5</ele><time>2026-03-23T10:17:59Z</time></trkpt><trkpt lat="46.04281964093219" lon="12.274525177454304"><ele>1409.0</ele><time>2026-03-23T10:18:00Z</time></trkpt><trkpt lat="46.04293919259279" lon="12.274619920867458"><ele>1413.5</ele><time>2026-03-23T10:18:01Z</time></trkpt><trkpt lat="46.04307532689529" lon="12.274723147236688"><ele>1418.0</ele><time>2026-03-23T10:18:02Z</time></trkpt><trkpt lat="46.043198247501685" lon="12.274830879347272"><ele>1426.5</ele><time>2026-03-23T10:18:03Z</time></trkpt><trkpt lat="46.04329821065032" lon="12.274931234654229"><ele>1435.0</ele><time>2026-03-23T10:18:04Z</time></trkpt><trkpt lat="46.043385290074916" lon="12.27502011801613"><ele>1443.5</ele><time>2026-03-23T10:18:05Z</time></trkpt><trkpt lat="46.04348710275547" lon="12.275105032306598"><ele>1452.0</ele><time>2026-03-23T10:18:06Z</time></trkpt><trkpt lat="46.04360306285827" lon="12.275187300673345"><ele>1452.0</ele><time>2026-03-23T10:18:07Z</time></trkpt><trkpt lat="46.043713356504696" lon="12.275261769468246"><ele>1452.0</ele><time>2026-03-23T10:18:08Z</time></trkpt><trkpt lat="46.043815358402895" lon="12.275296746075655"><ele>1452.0</ele><time>2026-03-23T10:18:09Z</time></trkpt><trkpt lat="46.04394023904643" lon="12.27530793814961"><ele>1452.0</ele><time>2026-03-23T10:18:10Z</time></trkpt><trkpt lat="46.04407752338884" lon="12.275306791089182"><ele>1457.3333333333333</ele><time>2026-03-23T10:18:11Z</time></trkpt><trkpt lat="46.04424165566935" lon="12.275304391793822"><ele>1462.6666666666665</ele><time>2026-03-23T10:18:12Z</time></trkpt><trkpt lat="46.04437960102235" lon="12.275312930109925"><ele>1468.0</ele><time>2026-03-23T10:18:13Z</time></trkpt><trkpt lat="46.04453547293319" lon="12.275347668274323"><ele>1468.0</ele><time>2026-03-23T10:18:14Z</time></trkpt><trkpt lat="46.044695463354586" lon="12.275387212965125"><ele>1468.0</ele><time>2026-03-23T10:18:15Z</time></trkpt><trkpt lat="46.044813174981236" lon="12.275421874929647"><ele>1468.0</ele><time>2026-03-23T10:18:16Z</time></trkpt><trkpt lat="46.04494619950984" lon="12.27547104385709"><ele>1468.0</ele><time>2026-03-23T10:18:17Z</time></trkpt><trkpt lat="46.04506256180707" lon="12.275521691475774"><ele>1468.4</ele><time>2026-03-23T10:18:18Z</time></trkpt><trkpt lat="46.04516333321613" lon="12.275583283816237"><ele>1468.8000000000002</ele><time>2026-03-23T10:18:19Z</time></trkpt><trkpt lat="46.045247187815384" lon="12.275643742714644"><ele>1469.2</ele><time>2026-03-23T10:18:20Z</time></trkpt><trkpt lat="46.04533431847202" lon="12.275731713504332"><ele>1469.6</ele><time>2026-03-23T10:18:21Z</time></trkpt><trkpt lat="46.045414147963236" lon="12.27583022414296"><ele>1470.0</ele><time>2026-03-23T10:18:22Z</time></trkpt><trkpt lat="46.045485345521655" lon="12.275946649276127"><ele>1470.0</ele><time>2026-03-23T10:18:23Z</time></trkpt><trkpt lat="46.04555350239662" lon="12.276059791131354"><ele>1470.0</ele><time>2026-03-23T10:18:24Z</time></trkpt><trkpt lat="46.0456352047273" lon="12.276203816045143"><ele>1470.0</ele><time>2026-03-23T10:18:25Z</time></trkpt><trkpt lat="46.04572202428591" lon="12.27635890578063"><ele>1470.0</ele><time>2026-03-23T10:18:26Z</time></trkpt><trkpt lat="46.045801102482116" lon="12.276526242196312"><ele>1478.6666666666667</ele><time>2026-03-23T10:18:27Z</time></trkpt><trkpt lat="46.04585623635857" lon="12.276696231252634"><ele>1487.3333333333335</ele><time>2026-03-23T10:18:28Z</time></trkpt><trkpt lat="46.04591816162769" lon="12.276903990880255"><ele>1496.0</ele><time>2026-03-23T10:18:29Z</time></trkpt><trkpt lat="46.04598204800697" lon="12.277136620647594"><ele>1493.0</ele><time>2026-03-23T10:18:30Z</time></trkpt><trkpt lat="46.046041499510615" lon="12.277395259974867"><ele>1490.0</ele><time>2026-03-23T10:18:31Z</time></trkpt><trkpt lat="46.046099288511385" lon="12.277609905586356"><ele>1487.0</ele><time>2026-03-23T10:18:32Z</time></trkpt><trkpt lat="46.046153466430084" lon="12.277794654865914"><ele>1487.0</ele><time>2026-03-23T10:18:33Z</time></trkpt><trkpt lat="46.04620342424398" lon="12.277951743646819"><ele>1487.0</ele><time>2026-03-23T10:18:34Z</time></trkpt><trkpt lat="46.0462691123889" lon="12.278134701482164"><ele>1487.0</ele><time>2026-03-23T10:18:35Z</time></trkpt><trkpt lat="46.046337342961976" lon="12.278298940337587"><ele>1487.0</ele><time>2026-03-23T10:18:36Z</time></trkpt><trkpt lat="46.04641934767245" lon="12.278448181400384"><ele>1484.25</ele><time>2026-03-23T10:18:37Z</time></trkpt><trkpt lat="46.04651981803461" lon="12.278615315117914"><ele>1481.5</ele><time>2026-03-23T10:18:38Z</time></trkpt><trkpt lat="46.04661536327914" lon="12.278766568446567"><ele>1478.75</ele><time>2026-03-23T10:18:39Z</time></trkpt><trkpt lat="46.04666962767808" lon="12.27887585477357"><ele>1476.0</ele><time>2026-03-23T10:18:40Z</time></trkpt><trkpt lat="46.04673902519683" lon="12.278975494785579"><ele>1476.0</ele><time>2026-03-23T10:18:42Z</time></trkpt><trkpt lat="46.04681758064236" lon="12.278903142464731"><ele>1476.0</ele><time>2026-03-23T10:18:45Z</time></trkpt><trkpt lat="46.04679846278961" lon="12.278735931473465"><ele>1476.0</ele><time>2026-03-23T10:18:47Z</time></trkpt><trkpt lat="46.046740330971076" lon="12.278631538822884"><ele>1476.0</ele><time>2026-03-23T10:18:48Z</time></trkpt><trkpt lat="46.04666560657221" lon="12.278536001196937"><ele>1476.0</ele><time>2026-03-23T10:18:49Z</time></trkpt><trkpt lat="46.04658998997086" lon="12.278437073681044"><ele>1476.0</ele><time>2026-03-23T10:18:50Z</time></trkpt><trkpt lat="46.04652412682124" lon="12.278299379949694"><ele>1476.0</ele><time>2026-03-23T10:18:51Z</time></trkpt><trkpt lat="46.04647664672966" lon="12.278137485555801"><ele>1476.0</ele><time>2026-03-23T10:18:52Z</time></trkpt><trkpt lat="46.046443960754345" lon="12.277950270151473"><ele>1476.0</ele><time>2026-03-23T10:18:53Z</time></trkpt><trkpt lat="46.046416438072434" lon="12.277773482753165"><ele>1477.8333333333333</ele><time>2026-03-23T10:18:54Z</time></trkpt><trkpt lat="46.04640863543701" lon="12.27762129430098"><ele>1479.6666666666667</ele><time>2026-03-23T10:18:55Z</time></trkpt><trkpt lat="46.04639814868555" lon="12.277493359151741"><ele>1481.5</ele><time>2026-03-23T10:18:56Z</time></trkpt><trkpt lat="46.04640056803175" lon="12.277380349457204"><ele>1483.3333333333335</ele><time>2026-03-23T10:18:57Z</time></trkpt><trkpt lat="46.0464130452913" lon="12.277271231532504"><ele>1485.1666666666667</ele><time>2026-03-23T10:18:58Z</time></trkpt><trkpt lat="46.04642677034157" lon="12.277179956501097"><ele>1487.0</ele><time>2026-03-23T10:18:59Z</time></trkpt><trkpt lat="46.04646342684253" lon="12.27702543859967"><ele>1487.0</ele><time>2026-03-23T10:19:01Z</time></trkpt><trkpt lat="46.04653142691026" lon="12.276958157493919"><ele>1487.0</ele><time>2026-03-23T10:19:03Z</time></trkpt><trkpt lat="46.046615206412135" lon="12.277015590968714"><ele>1487.0</ele><time>2026-03-23T10:19:05Z</time></trkpt><trkpt lat="46.04659641329952" lon="12.277173288233358"><ele>1487.0</ele><time>2026-03-23T10:19:07Z</time></trkpt><trkpt lat="46.04656901117124" lon="12.27727174894313"><ele>1487.0</ele><time>2026-03-23T10:19:08Z</time></trkpt><trkpt lat="46.04654998699716" lon="12.277390305010426"><ele>1487.0</ele><time>2026-03-23T10:19:09Z</time></trkpt><trkpt lat="46.04656015437323" lon="12.277514486500749"><ele>1487.0</ele><time>2026-03-23T10:19:10Z</time></trkpt><trkpt lat="46.04658917768161" lon="12.277614531665112"><ele>1487.0</ele><time>2026-03-23T10:19:11Z</time></trkpt><trkpt lat="46.04662190061197" lon="12.277692846464877"><ele>1487.0</ele><time>2026-03-23T10:19:12Z</time></trkpt><trkpt lat="46.04666501953352" lon="12.277819620179562"><ele>1487.0</ele><time>2026-03-23T10:19:13Z</time></trkpt><trkpt lat="46.04670216170313" lon="12.27792281035385"><ele>1487.0</ele><time>2026-03-23T10:19:14Z</time></trkpt><trkpt lat="46.04674715310166" lon="12.278014752805307"><ele>1487.0</ele><time>2026-03-23T10:19:15Z</time></trkpt><trkpt lat="46.046801765607505" lon="12.278109884518713"><ele>1494.6</ele><time>2026-03-23T10:19:16Z</time></trkpt><trkpt lat="46.04688659696564" lon="12.278207936962392"><ele>1502.1999999999998</ele><time>2026-03-23T10:19:17Z</time></trkpt><trkpt lat="46.046951835741886" lon="12.278287246407247"><ele>1509.8</ele><time>2026-03-23T10:19:18Z</time></trkpt><trkpt lat="46.04702236293787" lon="12.278378151464887"><ele>1517.4</ele><time>2026-03-23T10:19:19Z</time></trkpt><trkpt lat="46.047098408655536" lon="12.278465653635841"><ele>1525.0</ele><time>2026-03-23T10:19:20Z</time></trkpt><trkpt lat="46.04719222702878" lon="12.278569647834692"><ele>1525.0</ele><time>2026-03-23T10:19:21Z</time></trkpt><trkpt lat="46.04726927952032" lon="12.278656306245281"><ele>1525.0</ele><time>2026-03-23T10:19:22Z</time></trkpt><trkpt lat="46.04734743873203" lon="12.27874190272722"><ele>1525.0</ele><time>2026-03-23T10:19:23Z</time></trkpt><trkpt lat="46.04742184452406" lon="12.278818158301693"><ele>1525.0</ele><time>2026-03-23T10:19:24Z</time></trkpt><trkpt lat="46.047487946894286" lon="12.27888583112632"><ele>1525.0</ele><time>2026-03-23T10:19:25Z</time></trkpt><trkpt lat="46.04756665638178" lon="12.27896287686416"><ele>1527.5</ele><time>2026-03-23T10:19:26Z</time></trkpt><trkpt lat="46.04762117461832" lon="12.279029519770344"><ele>1530.0</ele><time>2026-03-23T10:19:27Z</time></trkpt><trkpt lat="46.04767256887639" lon="12.27909903508409"><ele>1532.5</ele><time>2026-03-23T10:19:28Z</time></trkpt><trkpt lat="46.04773507876993" lon="12.279169211775555"><ele>1535.0</ele><time>2026-03-23T10:19:29Z</time></trkpt><trkpt lat="46.04780268847936" lon="12.279231745765786"><ele>1537.5000000000002</ele><time>2026-03-23T10:19:30Z</time></trkpt><trkpt lat="46.04786690973525" lon="12.279295482412364"><ele>1540.0</ele><time>2026-03-23T10:19:31Z</time></trkpt><trkpt lat="46.04793167479133" lon="12.279372975796127"><ele>1540.0000000000002</ele><time>2026-03-23T10:19:32Z</time></trkpt><trkpt lat="46.0479860313202" lon="12.279441483126943"><ele>1540.0</ele><time>2026-03-23T10:19:33Z</time></trkpt><trkpt lat="46.04805959579625" lon="12.279505274735449"><ele>1540.0</ele><time>2026-03-23T10:19:34Z</time></trkpt><trkpt lat="46.048134390429134" lon="12.279561202019138"><ele>1540.0</ele><time>2026-03-23T10:19:35Z</time></trkpt><trkpt lat="46.04820478736268" lon="12.279610483674137"><ele>1540.0000000000002</ele><time>2026-03-23T10:19:36Z</time></trkpt><trkpt lat="46.04829497934005" lon="12.279642199201867"><ele>1540.0</ele><time>2026-03-23T10:19:37Z</time></trkpt><trkpt lat="46.04839054523216" lon="12.279670875404737"><ele>1542.6</ele><time>2026-03-23T10:19:38Z</time></trkpt><trkpt lat="46.048484428214145" lon="12.279689152495813"><ele>1545.2</ele><time>2026-03-23T10:19:39Z</time></trkpt><trkpt lat="46.04858333473346" lon="12.279711465218464"><ele>1547.8000000000002</ele><time>2026-03-23T10:19:40Z</time></trkpt><trkpt lat="46.048702510852884" lon="12.279709142678838"><ele>1550.4</ele><time>2026-03-23T10:19:41Z</time></trkpt><trkpt lat="46.048816883096606" lon="12.279695564600742"><ele>1553.0</ele><time>2026-03-23T10:19:42Z</time></trkpt><trkpt lat="46.04891730592152" lon="12.279659969028293"><ele>1553.0</ele><time>2026-03-23T10:19:43Z</time></trkpt><trkpt lat="46.04900671758635" lon="12.279613465872437"><ele>1553.0</ele><time>2026-03-23T10:19:44Z</time></trkpt><trkpt lat="46.04908912546078" lon="12.279539190245822"><ele>1553.0</ele><time>2026-03-23T10:19:45Z</time></trkpt><trkpt lat="46.049161159047536" lon="12.2794368513298"><ele>1553.0</ele><time>2026-03-23T10:19:46Z</time></trkpt><trkpt lat="46.0492300329488" lon="12.279318212004872"><ele>1553.0</ele><time>2026-03-23T10:19:47Z</time></trkpt><trkpt lat="46.04928653585184" lon="12.279194497339564"><ele>1557.2</ele><time>2026-03-23T10:19:48Z</time></trkpt><trkpt lat="46.0493397618936" lon="12.279094938364535"><ele>1561.4</ele><time>2026-03-23T10:19:50Z</time></trkpt><trkpt lat="46.049449762492834" lon="12.279115261791148"><ele>1565.6000000000001</ele><time>2026-03-23T10:19:52Z</time></trkpt><trkpt lat="46.04946532209634" lon="12.279264098091161"><ele>1569.8000000000002</ele><time>2026-03-23T10:19:54Z</time></trkpt><trkpt lat="46.049412948991645" lon="12.279349133394275"><ele>1574.0</ele><time>2026-03-23T10:19:55Z</time></trkpt><trkpt lat="46.04934241327441" lon="12.279449991485338"><ele>1574.0</ele><time>2026-03-23T10:19:56Z</time></trkpt><trkpt lat="46.04928781824138" lon="12.279561322942014"><ele>1574.0</ele><time>2026-03-23T10:19:57Z</time></trkpt><trkpt lat="46.04923266344712" lon="12.27970744306591"><ele>1574.0</ele><time>2026-03-23T10:19:58Z</time></trkpt><trkpt lat="46.049170315423005" lon="12.279853272429724"><ele>1574.0</ele><time>2026-03-23T10:19:59Z</time></trkpt><trkpt lat="46.04909266820105" lon="12.279987689506438"><ele>1572.4</ele><time>2026-03-23T10:20:00Z</time></trkpt><trkpt lat="46.04901477108439" lon="12.280113650877409"><ele>1570.8000000000002</ele><time>2026-03-23T10:20:01Z</time></trkpt><trkpt lat="46.04894098603546" lon="12.280216366080122"><ele>1569.1999999999998</ele><time>2026-03-23T10:20:02Z</time></trkpt><trkpt lat="46.048853935868244" lon="12.280305596945723"><ele>1567.6</ele><time>2026-03-23T10:20:03Z</time></trkpt><trkpt lat="46.04878119536129" lon="12.280377073963766"><ele>1566.0</ele><time>2026-03-23T10:20:04Z</time></trkpt><trkpt lat="46.04875559609487" lon="12.280482990361648"><ele>1566.0</ele><time>2026-03-23T10:20:06Z</time></trkpt><trkpt lat="46.04884247609079" lon="12.280570652191727"><ele>1566.0</ele><time>2026-03-23T10:20:08Z</time></trkpt><trkpt lat="46.04892027776496" lon="12.280547622672584"><ele>1566.0</ele><time>2026-03-23T10:20:09Z</time></trkpt><trkpt lat="46.04899398419871" lon="12.280497546787608"><ele>1566.0</ele><time>2026-03-23T10:20:10Z</time></trkpt><trkpt lat="46.04906538946659" lon="12.280429745336178"><ele>1566.0</ele><time>2026-03-23T10:20:11Z</time></trkpt><trkpt lat="46.0491289068109" lon="12.280362565610513"><ele>1566.0</ele><time>2026-03-23T10:20:12Z</time></trkpt><trkpt lat="46.049216970656275" lon="12.2802792477799"><ele>1568.0</ele><time>2026-03-23T10:20:13Z</time></trkpt><trkpt lat="46.04931257910976" lon="12.280182591647296"><ele>1570.0</ele><time>2026-03-23T10:20:14Z</time></trkpt><trkpt lat="46.04941931775305" lon="12.280053535397128"><ele>1572.0</ele><time>2026-03-23T10:20:15Z</time></trkpt><trkpt lat="46.04953677939416" lon="12.279901987553032"><ele>1574.0</ele><time>2026-03-23T10:20:16Z</time></trkpt><trkpt lat="46.049667171789906" lon="12.279724313676299"><ele>1574.0</ele><time>2026-03-23T10:20:17Z</time></trkpt><trkpt lat="46.04977004331004" lon="12.279571364804404"><ele>1574.0</ele><time>2026-03-23T10:20:18Z</time></trkpt><trkpt lat="46.049861755274186" lon="12.279453222010222"><ele>1574.0</ele><time>2026-03-23T10:20:19Z</time></trkpt><trkpt lat="46.04995618067434" lon="12.279343572478096"><ele>1574.0</ele><time>2026-03-23T10:20:20Z</time></trkpt><trkpt lat="46.05004253390711" lon="12.279246406074545"><ele>1579.8000000000002</ele><time>2026-03-23T10:20:21Z</time></trkpt><trkpt lat="46.05011536094203" lon="12.279163045467332"><ele>1585.6000000000001</ele><time>2026-03-23T10:20:22Z</time></trkpt><trkpt lat="46.05018615774591" lon="12.279092459721586"><ele>1591.4</ele><time>2026-03-23T10:20:23Z</time></trkpt><trkpt lat="46.050280889017095" lon="12.279074580210233"><ele>1597.2</ele><time>2026-03-23T10:20:25Z</time></trkpt><trkpt lat="46.05031434071446" lon="12.279213492371131"><ele>1603.0</ele><time>2026-03-23T10:20:27Z</time></trkpt><trkpt lat="46.05022947924706" lon="12.279316761577784"><ele>1603.0</ele><time>2026-03-23T10:20:29Z</time></trkpt><trkpt lat="46.05015851314186" lon="12.27938021886289"><ele>1603.0</ele><time>2026-03-23T10:20:30Z</time></trkpt><trkpt lat="46.050081194706074" lon="12.279476463797337"><ele>1603.0</ele><time>2026-03-23T10:20:31Z</time></trkpt><trkpt lat="46.050006569876416" lon="12.279610511810098"><ele>1603.0</ele><time>2026-03-23T10:20:32Z</time></trkpt><trkpt lat="46.0499436404368" lon="12.279761662452671"><ele>1603.0</ele><time>2026-03-23T10:20:33Z</time></trkpt><trkpt lat="46.049898372898426" lon="12.279946415994052"><ele>1600.25</ele><time>2026-03-23T10:20:34Z</time></trkpt><trkpt lat="46.04985182114978" lon="12.28015150230625"><ele>1597.5</ele><time>2026-03-23T10:20:35Z</time></trkpt><trkpt lat="46.04981731459453" lon="12.280312144816122"><ele>1594.75</ele><time>2026-03-23T10:20:36Z</time></trkpt><trkpt lat="46.049809188751766" lon="12.28041587687888"><ele>1592.0</ele><time>2026-03-23T10:20:37Z</time></trkpt><trkpt lat="46.049893959148854" lon="12.28052872188492"><ele>1597.3999999999999</ele><time>2026-03-23T10:20:39Z</time></trkpt><trkpt lat="46.049993977364934" lon="12.280442555250326"><ele>1602.8</ele><time>2026-03-23T10:20:41Z</time></trkpt><trkpt lat="46.050009870627896" lon="12.28032612183816"><ele>1608.2</ele><time>2026-03-23T10:20:42Z</time></trkpt><trkpt lat="46.050035114662336" lon="12.280169388491727"><ele>1613.6</ele><time>2026-03-23T10:20:43Z</time></trkpt><trkpt lat="46.05006724848041" lon="12.280032544322108"><ele>1619.0</ele><time>2026-03-23T10:20:44Z</time></trkpt><trkpt lat="46.05012529689771" lon="12.279927622802076"><ele>1619.0</ele><time>2026-03-23T10:20:45Z</time></trkpt><trkpt lat="46.050206920600495" lon="12.279820875533348"><ele>1619.0</ele><time>2026-03-23T10:20:46Z</time></trkpt><trkpt lat="46.05028383758971" lon="12.279730209114701"><ele>1619.0</ele><time>2026-03-23T10:20:47Z</time></trkpt><trkpt lat="46.05039691596277" lon="12.279655366149743"><ele>1619.0</ele><time>2026-03-23T10:20:49Z</time></trkpt><trkpt lat="46.05049299287402" lon="12.279653452530283"><ele>1619.0</ele><time>2026-03-23T10:20:51Z</time></trkpt><trkpt lat="46.05052247805887" lon="12.279778328554286"><ele>1619.0</ele><time>2026-03-23T10:20:53Z</time></trkpt><trkpt lat="46.05043810919394" lon="12.279903216047929"><ele>1619.0</ele><time>2026-03-23T10:20:55Z</time></trkpt><trkpt lat="46.05036259327855" lon="12.279999948451826"><ele>1619.0</ele><time>2026-03-23T10:20:56Z</time></trkpt><trkpt lat="46.05030284495573" lon="12.280132011444817"><ele>1619.0</ele><time>2026-03-23T10:20:57Z</time></trkpt><trkpt lat="46.050273132451814" lon="12.28027046920355"><ele>1619.0</ele><time>2026-03-23T10:20:58Z</time></trkpt><trkpt lat="46.05027787718322" lon="12.280373170040736"><ele>1619.0</ele><time>2026-03-23T10:20:59Z</time></trkpt><trkpt lat="46.05037298779478" lon="12.280486249925948"><ele>1619.0</ele><time>2026-03-23T10:21:01Z</time></trkpt><trkpt lat="46.05047340343399" lon="12.28055279240397"><ele>1619.0</ele><time>2026-03-23T10:21:02Z</time></trkpt><trkpt lat="46.05060932019275" lon="12.28062377154596"><ele>1619.0</ele><time>2026-03-23T10:21:03Z</time></trkpt><trkpt lat="46.050740863579854" lon="12.280710827164363"><ele>1622.0</ele><time>2026-03-23T10:21:04Z</time></trkpt><trkpt lat="46.05085607804681" lon="12.280813620847939"><ele>1625.0</ele><time>2026-03-23T10:21:05Z</time></trkpt><trkpt lat="46.05096362778787" lon="12.280897188014192"><ele>1628.0</ele><time>2026-03-23T10:21:06Z</time></trkpt><trkpt lat="46.051103376877414" lon="12.280990735074187"><ele>1631.0</ele><time>2026-03-23T10:21:07Z</time></trkpt><trkpt lat="46.0512411280041" lon="12.281075328802412"><ele>1631.0</ele><time>2026-03-23T10:21:08Z</time></trkpt><trkpt lat="46.051353598106054" lon="12.281145575940249"><ele>1631.0</ele><time>2026-03-23T10:21:09Z</time></trkpt><trkpt lat="46.05145816654097" lon="12.28120752049095"><ele>1631.0</ele><time>2026-03-23T10:21:10Z</time></trkpt><trkpt lat="46.05155739451939" lon="12.281259856542217"><ele>1631.0</ele><time>2026-03-23T10:21:11Z</time></trkpt><trkpt lat="46.051660956402216" lon="12.281300606917673"><ele>1631.0</ele><time>2026-03-23T10:21:12Z</time></trkpt><trkpt lat="46.05176009934478" lon="12.281336465044937"><ele>1633.1666666666665</ele><time>2026-03-23T10:21:13Z</time></trkpt><trkpt lat="46.051831388610275" lon="12.281350492912194"><ele>1635.3333333333333</ele><time>2026-03-23T10:21:14Z</time></trkpt><trkpt lat="46.0519240768162" lon="12.28134540077583"><ele>1637.5</ele><time>2026-03-23T10:21:15Z</time></trkpt><trkpt lat="46.052012289684164" lon="12.281323986504438"><ele>1639.6666666666665</ele><time>2026-03-23T10:21:16Z</time></trkpt><trkpt lat="46.052095492352436" lon="12.281277219397198"><ele>1641.8333333333333</ele><time>2026-03-23T10:21:17Z</time></trkpt><trkpt lat="46.0521750477004" lon="12.281198874356917"><ele>1644.0</ele><time>2026-03-23T10:21:18Z</time></trkpt><trkpt lat="46.0522427378233" lon="12.281093192151108"><ele>1644.0</ele><time>2026-03-23T10:21:19Z</time></trkpt><trkpt lat="46.052326234142086" lon="12.280953715604177"><ele>1644.0</ele><time>2026-03-23T10:21:20Z</time></trkpt><trkpt lat="46.05240024468676" lon="12.280796405853446"><ele>1644.0</ele><time>2026-03-23T10:21:21Z</time></trkpt><trkpt lat="46.052469422301535" lon="12.280610538420083"><ele>1644.0</ele><time>2026-03-23T10:21:22Z</time></trkpt><trkpt lat="46.05251754205944" lon="12.280472949576128"><ele>1647.8000000000002</ele><time>2026-03-23T10:21:23Z</time></trkpt><trkpt lat="46.052557925765925" lon="12.280360737582276"><ele>1651.6000000000001</ele><time>2026-03-23T10:21:24Z</time></trkpt><trkpt lat="46.05259896607649" lon="12.280283979709196"><ele>1655.4</ele><time>2026-03-23T10:21:25Z</time></trkpt><trkpt lat="46.05269702865259" lon="12.280264128188835"><ele>1659.2</ele><time>2026-03-23T10:21:27Z</time></trkpt><trkpt lat="46.052767721719206" lon="12.280376810511038"><ele>1663.0</ele><time>2026-03-23T10:21:29Z</time></trkpt><trkpt lat="46.05269759789635" lon="12.280541077530906"><ele>1666.5</ele><time>2026-03-23T10:21:31Z</time></trkpt><trkpt lat="46.052656175740616" lon="12.28065920960438"><ele>1670.0</ele><time>2026-03-23T10:21:32Z</time></trkpt><trkpt lat="46.052630394323025" lon="12.280811775629449"><ele>1673.5</ele><time>2026-03-23T10:21:33Z</time></trkpt><trkpt lat="46.052621518606664" lon="12.280991699201866"><ele>1677.0</ele><time>2026-03-23T10:21:34Z</time></trkpt><trkpt lat="46.05261185891513" lon="12.281207455540079"><ele>1677.1999999999998</ele><time>2026-03-23T10:21:35Z</time></trkpt><trkpt lat="46.052594716544284" lon="12.281432774569558"><ele>1677.4</ele><time>2026-03-23T10:21:36Z</time></trkpt><trkpt lat="46.05257904213364" lon="12.28158739645558"><ele>1677.6</ele><time>2026-03-23T10:21:37Z</time></trkpt><trkpt lat="46.05257439620266" lon="12.28168991768086"><ele>1677.8000000000002</ele><time>2026-03-23T10:21:38Z</time></trkpt><trkpt lat="46.0526463846698" lon="12.281754722866376"><ele>1678.0</ele><time>2026-03-23T10:21:40Z</time></trkpt><trkpt lat="46.052731363829075" lon="12.28165794696243"><ele>1678.0</ele><time>2026-03-23T10:21:42Z</time></trkpt><trkpt lat="46.05276021218151" lon="12.281510768718254"><ele>1678.0</ele><time>2026-03-23T10:21:43Z</time></trkpt><trkpt lat="46.052777667134265" lon="12.281360784583143"><ele>1678.0</ele><time>2026-03-23T10:21:44Z</time></trkpt><trkpt lat="46.05281191903214" lon="12.281211493272352"><ele>1678.0</ele><time>2026-03-23T10:21:45Z</time></trkpt><trkpt lat="46.05285350784675" lon="12.281125246618176"><ele>1678.0</ele><time>2026-03-23T10:21:46Z</time></trkpt><trkpt lat="46.052905359394906" lon="12.28104337899548"><ele>1677.8000000000002</ele><time>2026-03-23T10:21:47Z</time></trkpt><trkpt lat="46.05300527405614" lon="12.280967203331429"><ele>1677.6</ele><time>2026-03-23T10:21:49Z</time></trkpt><trkpt lat="46.053070134697464" lon="12.280947915853814"><ele>1677.4</ele><time>2026-03-23T10:21:51Z</time></trkpt><trkpt lat="46.05314892919626" lon="12.281004981983422"><ele>1677.1999999999998</ele><time>2026-03-23T10:21:53Z</time></trkpt><trkpt lat="46.05325501448943" lon="12.281067922949704"><ele>1677.0</ele><time>2026-03-23T10:21:55Z</time></trkpt><trkpt lat="46.053357002743745" lon="12.281141503291202"><ele>1679.75</ele><time>2026-03-23T10:21:57Z</time></trkpt><trkpt lat="46.053461409243006" lon="12.281216490970019"><ele>1682.5</ele><time>2026-03-23T10:21:59Z</time></trkpt><trkpt lat="46.05358023641537" lon="12.281259362221599"><ele>1685.25</ele><time>2026-03-23T10:22:01Z</time></trkpt><trkpt lat="46.05369366782974" lon="12.281297768063821"><ele>1688.0</ele><time>2026-03-23T10:22:03Z</time></trkpt><trkpt lat="46.053795242686725" lon="12.281376673870504"><ele>1687.9999999999998</ele><time>2026-03-23T10:22:05Z</time></trkpt><trkpt lat="46.05389845557407" lon="12.281346047905124"><ele>1688.0</ele><time>2026-03-23T10:22:07Z</time></trkpt><trkpt lat="46.05396385779652" lon="12.28132947672614"><ele>1688.0</ele><time>2026-03-23T10:22:08Z</time></trkpt><trkpt lat="46.05403483947726" lon="12.2813145552534"><ele>1688.0</ele><time>2026-03-23T10:22:09Z</time></trkpt><trkpt lat="46.05412148133953" lon="12.281304875273223"><ele>1687.9999999999998</ele><time>2026-03-23T10:22:10Z</time></trkpt><trkpt lat="46.05418714067983" lon="12.28128790587593"><ele>1688.0</ele><time>2026-03-23T10:22:11Z</time></trkpt><trkpt lat="46.05426213289156" lon="12.281262074346504"><ele>1688.6000000000001</ele><time>2026-03-23T10:22:12Z</time></trkpt><trkpt lat="46.05432764947564" lon="12.281247078146059"><ele>1689.2</ele><time>2026-03-23T10:22:13Z</time></trkpt><trkpt lat="46.05440356538339" lon="12.281232710530288"><ele>1689.8</ele><time>2026-03-23T10:22:14Z</time></trkpt><trkpt lat="46.05448445334683" lon="12.281206847463816"><ele>1690.4</ele><time>2026-03-23T10:22:15Z</time></trkpt><trkpt lat="46.05459573314673" lon="12.281177362422536"><ele>1691.0</ele><time>2026-03-23T10:22:17Z</time></trkpt><trkpt lat="46.05470992227997" lon="12.281164763151487"><ele>1691.0</ele><time>2026-03-23T10:22:19Z</time></trkpt><trkpt lat="46.054826588568154" lon="12.281139176517923"><ele>1691.0</ele><time>2026-03-23T10:22:21Z</time></trkpt><trkpt lat="46.05492932364801" lon="12.281090757021277"><ele>1691.0</ele><time>2026-03-23T10:22:23Z</time></trkpt><trkpt lat="46.05498016070237" lon="12.281152721055264"><ele>1691.0</ele><time>2026-03-23T10:22:25Z</time></trkpt><trkpt lat="46.054954939341926" lon="12.281257616448825"><ele>1691.0</ele><time>2026-03-23T10:22:28Z</time></trkpt><trkpt lat="46.05486349470037" lon="12.281295001003366"><ele>1690.9999999999998</ele><time>2026-03-23T10:22:30Z</time></trkpt><trkpt lat="46.054774720152864" lon="12.281323610601335"><ele>1691.0</ele><time>2026-03-23T10:22:32Z</time></trkpt><trkpt lat="46.054711931407354" lon="12.281350586249989"><ele>1691.0</ele><time>2026-03-23T10:22:33Z</time></trkpt><trkpt lat="46.05464505698424" lon="12.28138462191922"><ele>1691.0</ele><time>2026-03-23T10:22:34Z</time></trkpt><trkpt lat="46.054573920495166" lon="12.281426356099002"><ele>1690.9999999999998</ele><time>2026-03-23T10:22:35Z</time></trkpt><trkpt lat="46.054489737324" lon="12.281488773235427"><ele>1691.0</ele><time>2026-03-23T10:22:36Z</time></trkpt><trkpt lat="46.054405305632095" lon="12.281559882694905"><ele>1695.4999999999998</ele><time>2026-03-23T10:22:37Z</time></trkpt><trkpt lat="46.05432143544687" lon="12.281636217336109"><ele>1700.0</ele><time>2026-03-23T10:22:38Z</time></trkpt><trkpt lat="46.05424602405511" lon="12.281705128772009"><ele>1704.5</ele><time>2026-03-23T10:22:39Z</time></trkpt><trkpt lat="46.05419122901944" lon="12.281762217151876"><ele>1709.0</ele><time>2026-03-23T10:22:40Z</time></trkpt><trkpt lat="46.054280175197256" lon="12.281690735670699"><ele>1713.4999999999998</ele><time>2026-03-23T10:24:57Z</time></trkpt><trkpt lat="46.054333332129815" lon="12.281626098403855"><ele>1718.0</ele><time>2026-03-23T10:24:58Z</time></trkpt><trkpt lat="46.05442093517994" lon="12.281544182468393"><ele>1718.0</ele><time>2026-03-23T10:25:00Z</time></trkpt><trkpt lat="46.054494723278744" lon="12.281499680120431"><ele>1718.0000000000002</ele><time>2026-03-23T10:25:02Z</time></trkpt><trkpt lat="46.05459384233913" lon="12.281427776783119"><ele>1718.0000000000002</ele><time>2026-03-23T10:25:04Z</time></trkpt><trkpt lat="46.0546920921541" lon="12.281359744428014"><ele>1718.0</ele><time>2026-03-23T10:25:06Z</time></trkpt><trkpt lat="46.054751772329126" lon="12.281327948669132"><ele>1718.0</ele><time>2026-03-23T10:25:07Z</time></trkpt><trkpt lat="46.054848336616594" lon="12.281298194738602"><ele>1715.4999999999998</ele><time>2026-03-23T10:25:09Z</time></trkpt><trkpt lat="46.05491744276468" lon="12.281255960954564"><ele>1713.0</ele><time>2026-03-23T10:25:11Z</time></trkpt><trkpt lat="46.05499351374835" lon="12.281189870598066"><ele>1710.5</ele><time>2026-03-23T10:25:13Z</time></trkpt><trkpt lat="46.05497210833404" lon="12.28110240280604"><ele>1708.0</ele><time>2026-03-23T10:25:16Z</time></trkpt><trkpt lat="46.05497104241217" lon="12.28120915789944"><ele>1705.4999999999998</ele><time>2026-03-23T10:25:28Z</time></trkpt><trkpt lat="46.05491314259709" lon="12.281274930785603"><ele>1703.0</ele><time>2026-03-23T10:25:30Z</time></trkpt><trkpt lat="46.054820499647846" lon="12.281304355767784"><ele>1700.6000000000001</ele><time>2026-03-23T10:25:32Z</time></trkpt><trkpt lat="46.05470836576041" lon="12.281350515900389"><ele>1698.2</ele><time>2026-03-23T10:25:34Z</time></trkpt><trkpt lat="46.054593779858266" lon="12.281412283807963"><ele>1695.8</ele><time>2026-03-23T10:25:36Z</time></trkpt><trkpt lat="46.05453273255915" lon="12.28145953116164"><ele>1693.4</ele><time>2026-03-23T10:25:37Z</time></trkpt><trkpt lat="46.05446967823919" lon="12.281504652916638"><ele>1691.0</ele><time>2026-03-23T10:25:38.001Z</time></trkpt><trkpt lat="46.05440348377632" lon="12.281557345821662"><ele>1693.3333333333333</ele><time>2026-03-23T10:25:39.001Z</time></trkpt><trkpt lat="46.05434411738902" lon="12.281612880106014"><ele>1695.6666666666665</ele><time>2026-03-23T10:25:40.001Z</time></trkpt><trkpt lat="46.05427777650268" lon="12.2816793735422"><ele>1698.0</ele><time>2026-03-23T10:25:41.001Z</time></trkpt><trkpt lat="46.05421016850887" lon="12.28174805863364"><ele>1700.3333333333335</ele><time>2026-03-23T10:25:42.001Z</time></trkpt><trkpt lat="46.05414397270208" lon="12.281816314510536"><ele>1702.6666666666667</ele><time>2026-03-23T10:25:43.001Z</time></trkpt><trkpt lat="46.05407679783261" lon="12.281885887975985"><ele>1705.0</ele><time>2026-03-23T10:25:44.001Z</time></trkpt><trkpt lat="46.054009495384236" lon="12.281956766200752"><ele>1705.0</ele><time>2026-03-23T10:25:45.001Z</time></trkpt><trkpt lat="46.0539355594982" lon="12.282024775831655"><ele>1705.0</ele><time>2026-03-23T10:25:46.001Z</time></trkpt><trkpt lat="46.05387642898784" lon="12.28209005469928"><ele>1705.0</ele><time>2026-03-23T10:25:47Z</time></trkpt><trkpt lat="46.0537984082765" lon="12.2821817151692"><ele>1705.0</ele><time>2026-03-23T10:25:49Z</time></trkpt><trkpt lat="46.05373773747489" lon="12.282311115356878"><ele>1705.0</ele><time>2026-03-23T10:25:51Z</time></trkpt><trkpt lat="46.05376746922051" lon="12.282422125992765"><ele>1704.6</ele><time>2026-03-23T10:25:53Z</time></trkpt><trkpt lat="46.05384425604436" lon="12.282468907000146"><ele>1704.2</ele><time>2026-03-23T10:25:55Z</time></trkpt><trkpt lat="46.053948254042034" lon="12.282461686091622"><ele>1703.8000000000002</ele><time>2026-03-23T10:25:57Z</time></trkpt><trkpt lat="46.05405635858607" lon="12.282403875939899"><ele>1703.4</ele><time>2026-03-23T10:25:59Z</time></trkpt><trkpt lat="46.054171114420775" lon="12.282343028922586"><ele>1703.0</ele><time>2026-03-23T10:26:01Z</time></trkpt><trkpt lat="46.05428631760331" lon="12.282281682474226"><ele>1706.75</ele><time>2026-03-23T10:26:03Z</time></trkpt><trkpt lat="46.054402826829026" lon="12.28222989118812"><ele>1710.5</ele><time>2026-03-23T10:26:05Z</time></trkpt><trkpt lat="46.054520062113426" lon="12.28218444326098"><ele>1714.25</ele><time>2026-03-23T10:26:07Z</time></trkpt><trkpt lat="46.054631580754396" lon="12.2821510502732"><ele>1718.0</ele><time>2026-03-23T10:26:09Z</time></trkpt><trkpt lat="46.05474913312267" lon="12.282109019729536"><ele>1718.0</ele><time>2026-03-23T10:26:11Z</time></trkpt><trkpt lat="46.0548673051421" lon="12.282088310275087"><ele>1718.0000000000002</ele><time>2026-03-23T10:26:13Z</time></trkpt><trkpt lat="46.054929826458235" lon="12.282076173179773"><ele>1718.0000000000002</ele><time>2026-03-23T10:26:14Z</time></trkpt><trkpt lat="46.05504340464873" lon="12.282075553697313"><ele>1718.0</ele><time>2026-03-23T10:26:16Z</time></trkpt><trkpt lat="46.0551401999651" lon="12.282082103344953"><ele>1718.0</ele><time>2026-03-23T10:26:18Z</time></trkpt><trkpt lat="46.05523567428526" lon="12.282082794674897"><ele>1720.4</ele><time>2026-03-23T10:26:20Z</time></trkpt><trkpt lat="46.055302808735796" lon="12.282030739836918"><ele>1722.8000000000002</ele><time>2026-03-23T10:26:23Z</time></trkpt><trkpt lat="46.05535907000026" lon="12.281983395371311"><ele>1725.2</ele><time>2026-03-23T10:26:26Z</time></trkpt><trkpt lat="46.05546480452847" lon="12.281985955864078"><ele>1727.6</ele><time>2026-03-23T10:26:28Z</time></trkpt><trkpt lat="46.05559866404886" lon="12.281972197553943"><ele>1730.0</ele><time>2026-03-23T10:26:30Z</time></trkpt><trkpt lat="46.055671673016484" lon="12.281948438223335"><ele>1729.9999999999998</ele><time>2026-03-23T10:26:31Z</time></trkpt><trkpt lat="46.0557508428491" lon="12.281923813446179"><ele>1730.0</ele><time>2026-03-23T10:26:32Z</time></trkpt><trkpt lat="46.055832771297794" lon="12.281893539611337"><ele>1730.0</ele><time>2026-03-23T10:26:33Z</time></trkpt><trkpt lat="46.055912723843484" lon="12.28186334668213"><ele>1730.0</ele><time>2026-03-23T10:26:34Z</time></trkpt><trkpt lat="46.05597411748863" lon="12.281829139444332"><ele>1729.9999999999998</ele><time>2026-03-23T10:26:35Z</time></trkpt><trkpt lat="46.05605071789616" lon="12.281779998680864"><ele>1730.0</ele><time>2026-03-23T10:26:37Z</time></trkpt><trkpt lat="46.05612381515149" lon="12.281749213229984"><ele>1732.8333333333333</ele><time>2026-03-23T10:26:39Z</time></trkpt><trkpt lat="46.0561986785959" lon="12.281707435583161"><ele>1735.6666666666665</ele><time>2026-03-23T10:26:41Z</time></trkpt><trkpt lat="46.056267664453735" lon="12.281664598276615"><ele>1738.5</ele><time>2026-03-23T10:26:46Z</time></trkpt><trkpt lat="46.05632798687141" lon="12.281623215159513"><ele>1741.3333333333335</ele><time>2026-03-23T10:26:49Z</time></trkpt><trkpt lat="46.05626352306964" lon="12.28166836348592"><ele>1744.1666666666667</ele><time>2026-03-23T10:27:31Z</time></trkpt><trkpt lat="46.056176268966986" lon="12.281725709715868"><ele>1747.0</ele><time>2026-03-23T10:27:33Z</time></trkpt><trkpt lat="46.05608082439863" lon="12.281780124517303"><ele>1747.0</ele><time>2026-03-23T10:27:35Z</time></trkpt><trkpt lat="46.05594163328819" lon="12.281859481831795"><ele>1746.9999999999998</ele><time>2026-03-23T10:27:37Z</time></trkpt><trkpt lat="46.05583854658072" lon="12.281906415339671"><ele>1746.9999999999998</ele><time>2026-03-23T10:27:39Z</time></trkpt><trkpt lat="46.05576765280341" lon="12.281922468217024"><ele>1747.0</ele><time>2026-03-23T10:27:40Z</time></trkpt><trkpt lat="46.055687975833095" lon="12.28194879228867"><ele>1747.0</ele><time>2026-03-23T10:27:41Z</time></trkpt><trkpt lat="46.055578717648864" lon="12.281976940244308"><ele>1744.1666666666667</ele><time>2026-03-23T10:27:43Z</time></trkpt><trkpt lat="46.05548762733918" lon="12.281994209724953"><ele>1741.3333333333335</ele><time>2026-03-23T10:27:45Z</time></trkpt><trkpt lat="46.055387221945075" lon="12.282004548469322"><ele>1738.5</ele><time>2026-03-23T10:27:47Z</time></trkpt><trkpt lat="46.05529879644224" lon="12.282035769555279"><ele>1735.6666666666665</ele><time>2026-03-23T10:27:49Z</time></trkpt><trkpt lat="46.05524137214388" lon="12.28207918157457"><ele>1732.8333333333333</ele><time>2026-03-23T10:27:51Z</time></trkpt><trkpt lat="46.055174981865036" lon="12.282083797924175"><ele>1730.0</ele><time>2026-03-23T10:27:53Z</time></trkpt><trkpt lat="46.0551333202825" lon="12.282000431388516"><ele>1729.9999999999998</ele><time>2026-03-23T10:27:56Z</time></trkpt><trkpt lat="46.055087847871384" lon="12.282063751894402"><ele>1730.0</ele><time>2026-03-23T10:31:00Z</time></trkpt><trkpt lat="46.05501254199688" lon="12.282076153947264"><ele>1730.0</ele><time>2026-03-23T10:31:05Z</time></trkpt><trkpt lat="46.054927542350676" lon="12.28208562608733"><ele>1730.0</ele><time>2026-03-23T10:31:08Z</time></trkpt><trkpt lat="46.05485658999383" lon="12.282086358695238"><ele>1729.9999999999998</ele><time>2026-03-23T10:31:10Z</time></trkpt><trkpt lat="46.05477026852531" lon="12.282097913745607"><ele>1730.0</ele><time>2026-03-23T10:31:12Z</time></trkpt><trkpt lat="46.05467321134299" lon="12.28212424864987"><ele>1728.8</ele><time>2026-03-23T10:31:14Z</time></trkpt><trkpt lat="46.05457508975282" lon="12.282159371433975"><ele>1727.6</ele><time>2026-03-23T10:31:16Z</time></trkpt><trkpt lat="46.05446288951705" lon="12.282197112046475"><ele>1726.4</ele><time>2026-03-23T10:31:18Z</time></trkpt><trkpt lat="46.05434719543977" lon="12.282253794492036"><ele>1725.2</ele><time>2026-03-23T10:31:20Z</time></trkpt><trkpt lat="46.05428396873136" lon="12.282284456905291"><ele>1724.0</ele><time>2026-03-23T10:31:21Z</time></trkpt><trkpt lat="46.05422136099978" lon="12.282318996589488"><ele>1719.8000000000002</ele><time>2026-03-23T10:31:22Z</time></trkpt><trkpt lat="46.05411005019811" lon="12.282376796523781"><ele>1715.6000000000001</ele><time>2026-03-23T10:31:24Z</time></trkpt><trkpt lat="46.05401763887491" lon="12.282426642410494"><ele>1711.4</ele><time>2026-03-23T10:31:26Z</time></trkpt><trkpt lat="46.053936065199544" lon="12.282452702156977"><ele>1707.2</ele><time>2026-03-23T10:31:28Z</time></trkpt><trkpt lat="46.05383351888224" lon="12.282465135682502"><ele>1703.0</ele><time>2026-03-23T10:31:30Z</time></trkpt><trkpt lat="46.05375652764372" lon="12.28239662812075"><ele>1703.4</ele><time>2026-03-23T10:31:32Z</time></trkpt><trkpt lat="46.05374995665721" lon="12.28225438218056"><ele>1703.8000000000002</ele><time>2026-03-23T10:31:34Z</time></trkpt><trkpt lat="46.05380562575735" lon="12.282138958050881"><ele>1704.2</ele><time>2026-03-23T10:31:36Z</time></trkpt><trkpt lat="46.05388672224731" lon="12.282060263425754"><ele>1704.6</ele><time>2026-03-23T10:31:38Z</time></trkpt><trkpt lat="46.053975302905" lon="12.281959879009099"><ele>1705.0</ele><time>2026-03-23T10:31:40Z</time></trkpt><trkpt lat="46.05408044202502" lon="12.281866508612437"><ele>1707.1666666666667</ele><time>2026-03-23T10:31:42Z</time></trkpt><trkpt lat="46.054134700760784" lon="12.28180810361356"><ele>1709.3333333333335</ele><time>2026-03-23T10:31:43Z</time></trkpt><trkpt lat="46.05419120606492" lon="12.281747745218695"><ele>1711.5</ele><time>2026-03-23T10:31:44Z</time></trkpt><trkpt lat="46.05424509282565" lon="12.28169100047297"><ele>1713.6666666666665</ele><time>2026-03-23T10:31:45Z</time></trkpt><trkpt lat="46.05434177028361" lon="12.281598994497903"><ele>1715.8333333333333</ele><time>2026-03-23T10:31:47Z</time></trkpt><trkpt lat="46.05443784602702" lon="12.281512217939879"><ele>1718.0</ele><time>2026-03-23T10:31:49Z</time></trkpt><trkpt lat="46.054546203823385" lon="12.281438613179805"><ele>1715.4999999999998</ele><time>2026-03-23T10:31:51Z</time></trkpt><trkpt lat="46.05460553117868" lon="12.281401630235335"><ele>1713.0</ele><time>2026-03-23T10:31:52Z</time></trkpt><trkpt lat="46.05466890757938" lon="12.281362682662659"><ele>1710.5</ele><time>2026-03-23T10:31:53Z</time></trkpt><trkpt lat="46.0547366969253" lon="12.28133044467982"><ele>1708.0</ele><time>2026-03-23T10:31:54Z</time></trkpt><trkpt lat="46.054803164387344" lon="12.28130187343719"><ele>1705.4999999999998</ele><time>2026-03-23T10:31:55.001Z</time></trkpt><trkpt lat="46.05486540672221" lon="12.281278386517744"><ele>1703.0</ele><time>2026-03-23T10:31:56Z</time></trkpt><trkpt lat="46.05497142210127" lon="12.281224094101717"><ele>1702.9999999999998</ele><time>2026-03-23T10:31:58Z</time></trkpt><trkpt lat="46.05495707193008" lon="12.281109196044369"><ele>1703.0</ele><time>2026-03-23T10:32:01Z</time></trkpt><trkpt lat="46.054891882951395" lon="12.281089505972275"><ele>1703.0</ele><time>2026-03-23T10:32:03Z</time></trkpt><trkpt lat="46.05480180919653" lon="12.281119933090308"><ele>1703.0</ele><time>2026-03-23T10:32:05Z</time></trkpt><trkpt lat="46.05471453426918" lon="12.281142887466553"><ele>1702.9999999999998</ele><time>2026-03-23T10:32:07Z</time></trkpt><trkpt lat="46.054628236007986" lon="12.28117661654894"><ele>1703.0</ele><time>2026-03-23T10:32:09Z</time></trkpt><trkpt lat="46.05453978761171" lon="12.281201315764914"><ele>1700.6000000000001</ele><time>2026-03-23T10:32:11Z</time></trkpt><trkpt lat="46.05444047662854" lon="12.281210490572706"><ele>1698.2</ele><time>2026-03-23T10:32:13Z</time></trkpt><trkpt lat="46.054339611051724" lon="12.281234361206248"><ele>1695.8</ele><time>2026-03-23T10:32:15Z</time></trkpt><trkpt lat="46.05424235654359" lon="12.281267747171645"><ele>1693.4</ele><time>2026-03-23T10:32:17Z</time></trkpt><trkpt lat="46.05412677393985" lon="12.281286753213445"><ele>1691.0</ele><time>2026-03-23T10:32:19Z</time></trkpt><trkpt lat="46.054013879355324" lon="12.281313154493356"><ele>1690.4</ele><time>2026-03-23T10:32:21Z</time></trkpt><trkpt lat="46.05390293527186" lon="12.28132382145494"><ele>1689.8</ele><time>2026-03-23T10:32:23Z</time></trkpt><trkpt lat="46.05377621149021" lon="12.28132864801239"><ele>1689.2</ele><time>2026-03-23T10:32:25Z</time></trkpt><trkpt lat="46.053664666169354" lon="12.28129755316818"><ele>1688.6000000000001</ele><time>2026-03-23T10:32:27Z</time></trkpt><trkpt lat="46.0536023096355" lon="12.281279535237399"><ele>1688.0</ele><time>2026-03-23T10:32:28Z</time></trkpt><trkpt lat="46.0534953288405" lon="12.281235173015936"><ele>1687.9999999999998</ele><time>2026-03-23T10:32:30Z</time></trkpt><trkpt lat="46.0534360903017" lon="12.281199830526953"><ele>1688.0</ele><time>2026-03-23T10:32:31Z</time></trkpt><trkpt lat="46.05337701755686" lon="12.28116754496552"><ele>1688.0</ele><time>2026-03-23T10:32:32Z</time></trkpt><trkpt lat="46.053257556485036" lon="12.281101027175115"><ele>1688.0</ele><time>2026-03-23T10:32:34Z</time></trkpt><trkpt lat="46.053199354054165" lon="12.28105775440088"><ele>1687.9999999999998</ele><time>2026-03-23T10:32:35Z</time></trkpt><trkpt lat="46.05313871941762" lon="12.281009557175208"><ele>1688.0</ele><time>2026-03-23T10:32:36Z</time></trkpt><trkpt lat="46.0530802872146" lon="12.280975545143523"><ele>1686.0</ele><time>2026-03-23T10:32:37Z</time></trkpt><trkpt lat="46.05297706921582" lon="12.280967303754103"><ele>1684.0</ele><time>2026-03-23T10:32:39Z</time></trkpt><trkpt lat="46.052885397198686" lon="12.281044605545945"><ele>1682.0</ele><time>2026-03-23T10:32:41Z</time></trkpt><trkpt lat="46.05282443958729" lon="12.281168997335378"><ele>1680.0</ele><time>2026-03-23T10:32:43Z</time></trkpt><trkpt lat="46.052782387557095" lon="12.281312295338376"><ele>1678.0</ele><time>2026-03-23T10:32:45Z</time></trkpt><trkpt lat="46.05275187172383" lon="12.281478389011934"><ele>1678.0</ele><time>2026-03-23T10:32:47Z</time></trkpt><trkpt lat="46.05273892333321" lon="12.281570795818364"><ele>1678.0</ele><time>2026-03-23T10:32:48Z</time></trkpt><trkpt lat="46.052702454537545" lon="12.281721972630494"><ele>1678.0</ele><time>2026-03-23T10:32:50Z</time></trkpt><trkpt lat="46.05259806683709" lon="12.281735676267548"><ele>1678.0</ele><time>2026-03-23T10:32:52Z</time></trkpt><trkpt lat="46.05255455511437" lon="12.281594060774086"><ele>1678.0</ele><time>2026-03-23T10:32:54Z</time></trkpt><trkpt lat="46.05257301539362" lon="12.281432791211198"><ele>1677.8333333333335</ele><time>2026-03-23T10:32:56Z</time></trkpt><trkpt lat="46.05260054969202" lon="12.281268183061563"><ele>1677.6666666666667</ele><time>2026-03-23T10:32:58Z</time></trkpt><trkpt lat="46.05260717478864" lon="12.281176306467183"><ele>1677.5</ele><time>2026-03-23T10:32:59Z</time></trkpt><trkpt lat="46.05261485844506" lon="12.281079519622217"><ele>1677.3333333333335</ele><time>2026-03-23T10:33:00Z</time></trkpt><trkpt lat="46.05261484778135" lon="12.280974627306682"><ele>1677.1666666666667</ele><time>2026-03-23T10:33:01Z</time></trkpt><trkpt lat="46.05262618723175" lon="12.280881926822856"><ele>1677.0</ele><time>2026-03-23T10:33:02Z</time></trkpt><trkpt lat="46.052631465753954" lon="12.280778505686417"><ele>1677.0</ele><time>2026-03-23T10:33:03Z</time></trkpt><trkpt lat="46.05263559236873" lon="12.280683161371897"><ele>1677.0</ele><time>2026-03-23T10:33:04Z</time></trkpt><trkpt lat="46.052654035605826" lon="12.280587059230445"><ele>1677.0</ele><time>2026-03-23T10:33:05Z</time></trkpt><trkpt lat="46.0526895866354" lon="12.280494167478329"><ele>1677.0</ele><time>2026-03-23T10:33:06Z</time></trkpt><trkpt lat="46.05273829234982" lon="12.280358833877532"><ele>1677.0</ele><time>2026-03-23T10:33:08Z</time></trkpt><trkpt lat="46.052692704728244" lon="12.280273138683993"><ele>1677.0</ele><time>2026-03-23T10:33:10Z</time></trkpt><trkpt lat="46.052615039906485" lon="12.280310347070841"><ele>1674.6666666666667</ele><time>2026-03-23T10:33:12Z</time></trkpt><trkpt lat="46.05254397020678" lon="12.280400911417209"><ele>1672.3333333333335</ele><time>2026-03-23T10:33:14Z</time></trkpt><trkpt lat="46.052487756605636" lon="12.280526631127561"><ele>1670.0</ele><time>2026-03-23T10:33:16Z</time></trkpt><trkpt lat="46.052441084918506" lon="12.28067118864577"><ele>1667.6666666666667</ele><time>2026-03-23T10:33:18Z</time></trkpt><trkpt lat="46.05240949311567" lon="12.280751812536858"><ele>1665.3333333333335</ele><time>2026-03-23T10:33:19Z</time></trkpt><trkpt lat="46.05237174134507" lon="12.280832231495982"><ele>1663.0</ele><time>2026-03-23T10:33:20Z</time></trkpt><trkpt lat="46.05232846585832" lon="12.280911199199531"><ele>1660.2857142857144</ele><time>2026-03-23T10:33:21Z</time></trkpt><trkpt lat="46.05228228301345" lon="12.280999723768913"><ele>1657.5714285714287</ele><time>2026-03-23T10:33:22Z</time></trkpt><trkpt lat="46.05224076982442" lon="12.28107251661275"><ele>1654.857142857143</ele><time>2026-03-23T10:33:23Z</time></trkpt><trkpt lat="46.05220017844507" lon="12.281147162910539"><ele>1652.1428571428573</ele><time>2026-03-23T10:33:24Z</time></trkpt><trkpt lat="46.05214943836826" lon="12.281222277937584"><ele>1649.4285714285713</ele><time>2026-03-23T10:33:25Z</time></trkpt><trkpt lat="46.05208244545866" lon="12.281284606568962"><ele>1646.7142857142858</ele><time>2026-03-23T10:33:26Z</time></trkpt><trkpt lat="46.05200905080038" lon="12.281328595792578"><ele>1644.0</ele><time>2026-03-23T10:33:27Z</time></trkpt><trkpt lat="46.051938086115065" lon="12.281350989500215"><ele>1644.0</ele><time>2026-03-23T10:33:28Z</time></trkpt><trkpt lat="46.05185665670288" lon="12.281344265512457"><ele>1644.0</ele><time>2026-03-23T10:33:29Z</time></trkpt><trkpt lat="46.05176989019983" lon="12.2813324385383"><ele>1644.0</ele><time>2026-03-23T10:33:30Z</time></trkpt><trkpt lat="46.05167147253199" lon="12.2813039554888"><ele>1644.0</ele><time>2026-03-23T10:33:31Z</time></trkpt><trkpt lat="46.051577901682094" lon="12.28127155177454"><ele>1644.0</ele><time>2026-03-23T10:33:32Z</time></trkpt><trkpt lat="46.05148379451691" lon="12.281226149513069"><ele>1641.4</ele><time>2026-03-23T10:33:33Z</time></trkpt><trkpt lat="46.051388313249895" lon="12.28116730206073"><ele>1638.8000000000002</ele><time>2026-03-23T10:33:34Z</time></trkpt><trkpt lat="46.05129273706196" lon="12.281106694227585"><ele>1636.1999999999998</ele><time>2026-03-23T10:33:35Z</time></trkpt><trkpt lat="46.0511905613422" lon="12.281055122967322"><ele>1633.6</ele><time>2026-03-23T10:33:36Z</time></trkpt><trkpt lat="46.05108626322687" lon="12.280993196642793"><ele>1631.0</ele><time>2026-03-23T10:33:37Z</time></trkpt><trkpt lat="46.05098658261328" lon="12.280926599468067"><ele>1631.0</ele><time>2026-03-23T10:33:38Z</time></trkpt><trkpt lat="46.05088794970716" lon="12.280852243382554"><ele>1631.0</ele><time>2026-03-23T10:33:39Z</time></trkpt><trkpt lat="46.05079197487553" lon="12.280783369454726"><ele>1631.0</ele><time>2026-03-23T10:33:40Z</time></trkpt><trkpt lat="46.05068727590507" lon="12.280705653583516"><ele>1631.0</ele><time>2026-03-23T10:33:41Z</time></trkpt><trkpt lat="46.05058217656805" lon="12.28061853314072"><ele>1628.9999999999998</ele><time>2026-03-23T10:33:42Z</time></trkpt><trkpt lat="46.0504927558618" lon="12.280550419105996"><ele>1627.0</ele><time>2026-03-23T10:33:43Z</time></trkpt><trkpt lat="46.05041517092993" lon="12.280495298678096"><ele>1625.0</ele><time>2026-03-23T10:33:44Z</time></trkpt><trkpt lat="46.05033521720191" lon="12.280445560510284"><ele>1623.0</ele><time>2026-03-23T10:33:45Z</time></trkpt><trkpt lat="46.05027890140124" lon="12.280393744371002"><ele>1620.9999999999998</ele><time>2026-03-23T10:33:46Z</time></trkpt><trkpt lat="46.0502465670455" lon="12.280246685775559"><ele>1619.0</ele><time>2026-03-23T10:33:48Z</time></trkpt><trkpt lat="46.050261259176956" lon="12.280156663648299"><ele>1618.9999999999998</ele><time>2026-03-23T10:33:49Z</time></trkpt><trkpt lat="46.050287632763116" lon="12.280073063214395"><ele>1619.0</ele><time>2026-03-23T10:33:50Z</time></trkpt><trkpt lat="46.05033179160447" lon="12.279993382178382"><ele>1619.0</ele><time>2026-03-23T10:33:51Z</time></trkpt><trkpt lat="46.05038866140765" lon="12.27991895059182"><ele>1619.0</ele><time>2026-03-23T10:33:52Z</time></trkpt><trkpt lat="46.0504514185921" lon="12.279852854637266"><ele>1618.9999999999998</ele><time>2026-03-23T10:33:53Z</time></trkpt><trkpt lat="46.05052779873941" lon="12.279724125967574"><ele>1619.0</ele><time>2026-03-23T10:33:55Z</time></trkpt><trkpt lat="46.0504688751084" lon="12.279648979704069"><ele>1618.9999999999998</ele><time>2026-03-23T10:33:57Z</time></trkpt><trkpt lat="46.050397898158245" lon="12.279662585940144"><ele>1619.0</ele><time>2026-03-23T10:33:59Z</time></trkpt><trkpt lat="46.050333330702585" lon="12.279710713221537"><ele>1619.0</ele><time>2026-03-23T10:34:01Z</time></trkpt><trkpt lat="46.050267443571734" lon="12.279768070646083"><ele>1619.0</ele><time>2026-03-23T10:34:03Z</time></trkpt><trkpt lat="46.05019384009524" lon="12.279859518189346"><ele>1618.9999999999998</ele><time>2026-03-23T10:34:05Z</time></trkpt><trkpt lat="46.05011838231057" lon="12.279943873279763"><ele>1619.0</ele><time>2026-03-23T10:34:07Z</time></trkpt><trkpt lat="46.05005289117098" lon="12.280077376154175"><ele>1619.0</ele><time>2026-03-23T10:34:09Z</time></trkpt><trkpt lat="46.05000813142742" lon="12.280232370529145"><ele>1619.0</ele><time>2026-03-23T10:34:11Z</time></trkpt><trkpt lat="46.049990451386314" lon="12.280391508344298"><ele>1619.0</ele><time>2026-03-23T10:34:13Z</time></trkpt><trkpt lat="46.04995087852145" lon="12.280522573388481"><ele>1619.0</ele><time>2026-03-23T10:34:15Z</time></trkpt><trkpt lat="46.049852028089084" lon="12.28049661517463"><ele>1619.0</ele><time>2026-03-23T10:34:17Z</time></trkpt><trkpt lat="46.0497992842375" lon="12.280378840191856"><ele>1613.6</ele><time>2026-03-23T10:34:19Z</time></trkpt><trkpt lat="46.049799877654046" lon="12.280254918995135"><ele>1608.2</ele><time>2026-03-23T10:34:21Z</time></trkpt><trkpt lat="46.04985923082744" lon="12.280135479236243"><ele>1602.8</ele><time>2026-03-23T10:34:23Z</time></trkpt><trkpt lat="46.049886535572355" lon="12.279975502803541"><ele>1597.3999999999999</ele><time>2026-03-23T10:34:25Z</time></trkpt><trkpt lat="46.04989796945208" lon="12.279881967185153"><ele>1592.0</ele><time>2026-03-23T10:34:26Z</time></trkpt><trkpt lat="46.049954249171385" lon="12.279715617884944"><ele>1593.8333333333333</ele><time>2026-03-23T10:34:28Z</time></trkpt><trkpt lat="46.050019593553074" lon="12.279560554221323"><ele>1595.6666666666665</ele><time>2026-03-23T10:34:30Z</time></trkpt><trkpt lat="46.050058568796636" lon="12.279488220996237"><ele>1597.5</ele><time>2026-03-23T10:34:31Z</time></trkpt><trkpt lat="46.05011421649423" lon="12.279426186669419"><ele>1599.3333333333335</ele><time>2026-03-23T10:34:32Z</time></trkpt><trkpt lat="46.05016835109936" lon="12.279369352578376"><ele>1601.1666666666667</ele><time>2026-03-23T10:34:33Z</time></trkpt><trkpt lat="46.0502299537458" lon="12.279312502894909"><ele>1603.0</ele><time>2026-03-23T10:34:34Z</time></trkpt><trkpt lat="46.05029244582424" lon="12.27926011269664"><ele>1603.0</ele><time>2026-03-23T10:34:35Z</time></trkpt><trkpt lat="46.05031696838768" lon="12.279118511284532"><ele>1603.0</ele><time>2026-03-23T10:34:37Z</time></trkpt><trkpt lat="46.05021885264056" lon="12.279076161768801"><ele>1603.0</ele><time>2026-03-23T10:34:39Z</time></trkpt><trkpt lat="46.05013260695466" lon="12.27913518989671"><ele>1603.0</ele><time>2026-03-23T10:34:41Z</time></trkpt><trkpt lat="46.05006497092826" lon="12.279232266400657"><ele>1603.0</ele><time>2026-03-23T10:34:43Z</time></trkpt><trkpt lat="46.04999651664462" lon="12.279325086641531"><ele>1600.8000000000002</ele><time>2026-03-23T10:34:45Z</time></trkpt><trkpt lat="46.04992083362705" lon="12.27939881227052"><ele>1598.6</ele><time>2026-03-23T10:34:47Z</time></trkpt><trkpt lat="46.0498531312195" lon="12.27949067890215"><ele>1596.4</ele><time>2026-03-23T10:34:49Z</time></trkpt><trkpt lat="46.04977283586587" lon="12.279613527924795"><ele>1594.1999999999998</ele><time>2026-03-23T10:34:51Z</time></trkpt><trkpt lat="46.04970173404895" lon="12.279715838752239"><ele>1592.0</ele><time>2026-03-23T10:34:53Z</time></trkpt><trkpt lat="46.04965108558928" lon="12.279770374980993"><ele>1592.0</ele><time>2026-03-23T10:34:54Z</time></trkpt><trkpt lat="46.049603168860216" lon="12.279830626832894"><ele>1592.0</ele><time>2026-03-23T10:34:55Z</time></trkpt><trkpt lat="46.04951147093722" lon="12.279958043223717"><ele>1592.0</ele><time>2026-03-23T10:34:57Z</time></trkpt><trkpt lat="46.04941985292879" lon="12.280093832804196"><ele>1592.0</ele><time>2026-03-23T10:34:59Z</time></trkpt><trkpt lat="46.04932678628783" lon="12.280211057071638"><ele>1592.0</ele><time>2026-03-23T10:35:01Z</time></trkpt><trkpt lat="46.049268255978504" lon="12.280261218489711"><ele>1591.9999999999998</ele><time>2026-03-23T10:35:02Z</time></trkpt><trkpt lat="46.049211577773086" lon="12.280306147774697"><ele>1592.0</ele><time>2026-03-23T10:35:03Z</time></trkpt><trkpt lat="46.04914700829472" lon="12.280346987907151"><ele>1592.0</ele><time>2026-03-23T10:35:04Z</time></trkpt><trkpt lat="46.04908012398391" lon="12.280388324418231"><ele>1592.0</ele><time>2026-03-23T10:35:05Z</time></trkpt><trkpt lat="46.04902571808222" lon="12.280438926226452"><ele>1592.0</ele><time>2026-03-23T10:35:06Z</time></trkpt><trkpt lat="46.04895967811639" lon="12.280487671181614"><ele>1591.9999999999998</ele><time>2026-03-23T10:35:07Z</time></trkpt><trkpt lat="46.048901810182045" lon="12.28054257301359"><ele>1592.0</ele><time>2026-03-23T10:35:08Z</time></trkpt><trkpt lat="46.04879617879679" lon="12.280538739252691"><ele>1586.8</ele><time>2026-03-23T10:35:10Z</time></trkpt><trkpt lat="46.048762408614124" lon="12.280400972672973"><ele>1581.6</ele><time>2026-03-23T10:35:12Z</time></trkpt><trkpt lat="46.0488275219619" lon="12.280292964034947"><ele>1576.3999999999999</ele><time>2026-03-23T10:35:14Z</time></trkpt><trkpt lat="46.048915513884154" lon="12.28022146083307"><ele>1571.1999999999998</ele><time>2026-03-23T10:35:16Z</time></trkpt><trkpt lat="46.049003506472324" lon="12.280118534700948"><ele>1566.0</ele><time>2026-03-23T10:35:18Z</time></trkpt><trkpt lat="46.04905119041844" lon="12.280058226973003"><ele>1566.0</ele><time>2026-03-23T10:35:19Z</time></trkpt><trkpt lat="46.04909474720465" lon="12.279983153700108"><ele>1566.0</ele><time>2026-03-23T10:35:20Z</time></trkpt><trkpt lat="46.04913878043313" lon="12.27990478242592"><ele>1566.0</ele><time>2026-03-23T10:35:21Z</time></trkpt><trkpt lat="46.04917907097689" lon="12.279814812542872"><ele>1566.0</ele><time>2026-03-23T10:35:22Z</time></trkpt><trkpt lat="46.049211781525926" lon="12.27972843078742"><ele>1566.0</ele><time>2026-03-23T10:35:22.999Z</time></trkpt><trkpt lat="46.049246859859586" lon="12.279641172634907"><ele>1566.0</ele><time>2026-03-23T10:35:23.999Z</time></trkpt><trkpt lat="46.04928613760767" lon="12.27955387391911"><ele>1566.0</ele><time>2026-03-23T10:35:24.999Z</time></trkpt><trkpt lat="46.04932354512191" lon="12.279469674851132"><ele>1567.3333333333333</ele><time>2026-03-23T10:35:25.999Z</time></trkpt><trkpt lat="46.04935681124621" lon="12.279378324480081"><ele>1568.6666666666665</ele><time>2026-03-23T10:35:26.999Z</time></trkpt><trkpt lat="46.04940619512284" lon="12.279301300890294"><ele>1570.0</ele><time>2026-03-23T10:35:27.999Z</time></trkpt><trkpt lat="46.0494469429247" lon="12.279216169214369"><ele>1571.3333333333333</ele><time>2026-03-23T10:35:28.999Z</time></trkpt><trkpt lat="46.049427481317025" lon="12.279096320104102"><ele>1572.6666666666665</ele><time>2026-03-23T10:35:30.999Z</time></trkpt><trkpt lat="46.049329984937884" lon="12.279111349173222"><ele>1574.0</ele><time>2026-03-23T10:35:32.999Z</time></trkpt><trkpt lat="46.04925796666388" lon="12.279204951042898"><ele>1574.0</ele><time>2026-03-23T10:35:34.999Z</time></trkpt><trkpt lat="46.049203110632845" lon="12.279335482773954"><ele>1574.0</ele><time>2026-03-23T10:35:36.999Z</time></trkpt><trkpt lat="46.04913524244025" lon="12.279451693269094"><ele>1574.0</ele><time>2026-03-23T10:35:38.999Z</time></trkpt><trkpt lat="46.04909196104971" lon="12.279518636588472"><ele>1574.0</ele><time>2026-03-23T10:35:39.999Z</time></trkpt><trkpt lat="46.049043076124015" lon="12.279587205065319"><ele>1574.0</ele><time>2026-03-23T10:35:40.999Z</time></trkpt><trkpt lat="46.0489241571309" lon="12.27967741818973"><ele>1570.4999999999998</ele><time>2026-03-23T10:35:42.999Z</time></trkpt><trkpt lat="46.04885352330073" lon="12.27970411466702"><ele>1567.0</ele><time>2026-03-23T10:35:43.999Z</time></trkpt><trkpt lat="46.0487744435747" lon="12.279709533443711"><ele>1563.5</ele><time>2026-03-23T10:35:44.999Z</time></trkpt><trkpt lat="46.04869122892964" lon="12.279708771405188"><ele>1560.0</ele><time>2026-03-23T10:35:45.999Z</time></trkpt><trkpt lat="46.04861704313935" lon="12.279714154702456"><ele>1556.4999999999998</ele><time>2026-03-23T10:35:46.999Z</time></trkpt><trkpt lat="46.04852669599568" lon="12.279710460225441"><ele>1553.0</ele><time>2026-03-23T10:35:47.999Z</time></trkpt><trkpt lat="46.04844732204563" lon="12.279704081681462"><ele>1553.0</ele><time>2026-03-23T10:35:48.999Z</time></trkpt><trkpt lat="46.048361865950454" lon="12.279675344474109"><ele>1553.0</ele><time>2026-03-23T10:35:49.999Z</time></trkpt><trkpt lat="46.048265719723474" lon="12.279631646164558"><ele>1553.0</ele><time>2026-03-23T10:35:50.999Z</time></trkpt><trkpt lat="46.04818426591146" lon="12.279598907142372"><ele>1553.0</ele><time>2026-03-23T10:35:51.999Z</time></trkpt><trkpt lat="46.04810086749391" lon="12.279552400291594"><ele>1553.0</ele><time>2026-03-23T10:35:52.999Z</time></trkpt><trkpt lat="46.04800784699098" lon="12.279484158386754"><ele>1550.4</ele><time>2026-03-23T10:35:53.999Z</time></trkpt><trkpt lat="46.047937363348254" lon="12.27941308614013"><ele>1547.8000000000002</ele><time>2026-03-23T10:35:54.999Z</time></trkpt><trkpt lat="46.0478628382181" lon="12.279323565898151"><ele>1545.2</ele><time>2026-03-23T10:35:55.999Z</time></trkpt><trkpt lat="46.047789751969155" lon="12.279235036488787"><ele>1542.6</ele><time>2026-03-23T10:35:56.999Z</time></trkpt><trkpt lat="46.04771205184272" lon="12.279157471266643"><ele>1540.0</ele><time>2026-03-23T10:35:57.999Z</time></trkpt><trkpt lat="46.047640863291825" lon="12.27908817056193"><ele>1540.0</ele><time>2026-03-23T10:35:58.999Z</time></trkpt><trkpt lat="46.047562646955946" lon="12.279006334449043"><ele>1540.0</ele><time>2026-03-23T10:35:59.999Z</time></trkpt><trkpt lat="46.047480564289344" lon="12.278902153210138"><ele>1540.0</ele><time>2026-03-23T10:36:00.999Z</time></trkpt><trkpt lat="46.047406346932696" lon="12.27882594856382"><ele>1540.0</ele><time>2026-03-23T10:36:01.999Z</time></trkpt><trkpt lat="46.04732346953087" lon="12.278734944602041"><ele>1540.0</ele><time>2026-03-23T10:36:02.999Z</time></trkpt><trkpt lat="46.04725064075001" lon="12.27865247126007"><ele>1537.0</ele><time>2026-03-23T10:36:03.999Z</time></trkpt><trkpt lat="46.04717645091552" lon="12.278564195996948"><ele>1534.0</ele><time>2026-03-23T10:36:04.999Z</time></trkpt><trkpt lat="46.04710096452971" lon="12.278478193674566"><ele>1531.0</ele><time>2026-03-23T10:36:05.999Z</time></trkpt><trkpt lat="46.047013616567156" lon="12.278375055136905"><ele>1528.0</ele><time>2026-03-23T10:36:07Z</time></trkpt><trkpt lat="46.04694127662209" lon="12.278285308048568"><ele>1525.0</ele><time>2026-03-23T10:36:08Z</time></trkpt><trkpt lat="46.04686333822383" lon="12.27819917346248"><ele>1526.6</ele><time>2026-03-23T10:36:09Z</time></trkpt><trkpt lat="46.04679708892251" lon="12.278100961003515"><ele>1528.2</ele><time>2026-03-23T10:36:10Z</time></trkpt><trkpt lat="46.0467268807778" lon="12.277995602616903"><ele>1529.8000000000002</ele><time>2026-03-23T10:36:11Z</time></trkpt><trkpt lat="46.046672191965804" lon="12.277886046830877"><ele>1531.4</ele><time>2026-03-23T10:36:12Z</time></trkpt><trkpt lat="46.04661593716459" lon="12.277759220755055"><ele>1533.0</ele><time>2026-03-23T10:36:13Z</time></trkpt><trkpt lat="46.04657404215152" lon="12.277644028772176"><ele>1526.8333333333333</ele><time>2026-03-23T10:36:14Z</time></trkpt><trkpt lat="46.046539270902755" lon="12.277538126324965"><ele>1520.6666666666667</ele><time>2026-03-23T10:36:15Z</time></trkpt><trkpt lat="46.04652018924299" lon="12.27742253268204"><ele>1514.5</ele><time>2026-03-23T10:36:16Z</time></trkpt><trkpt lat="46.04652408533468" lon="12.277321280972508"><ele>1508.3333333333335</ele><time>2026-03-23T10:36:17Z</time></trkpt><trkpt lat="46.04653182220796" lon="12.277209059879622"><ele>1502.1666666666667</ele><time>2026-03-23T10:36:18Z</time></trkpt><trkpt lat="46.04659234500723" lon="12.277061457319723"><ele>1496.0</ele><time>2026-03-23T10:36:20Z</time></trkpt><trkpt lat="46.04656609959532" lon="12.276966386229695"><ele>1496.0</ele><time>2026-03-23T10:36:22Z</time></trkpt><trkpt lat="46.046489336199755" lon="12.276983576442188"><ele>1496.0</ele><time>2026-03-23T10:36:24Z</time></trkpt><trkpt lat="46.046444153204426" lon="12.27706075249562"><ele>1496.0</ele><time>2026-03-23T10:36:26Z</time></trkpt><trkpt lat="46.046427198488935" lon="12.277186267060989"><ele>1496.0</ele><time>2026-03-23T10:36:29Z</time></trkpt><trkpt lat="46.04642403073785" lon="12.277286095953851"><ele>1496.0</ele><time>2026-03-23T10:36:31Z</time></trkpt><trkpt lat="46.04642656972544" lon="12.277394265906375"><ele>1496.0</ele><time>2026-03-23T10:36:33Z</time></trkpt><trkpt lat="46.046416668464246" lon="12.2775072751833"><ele>1494.1999999999998</ele><time>2026-03-23T10:36:35Z</time></trkpt><trkpt lat="46.04642601675467" lon="12.277625945239873"><ele>1492.3999999999999</ele><time>2026-03-23T10:36:37Z</time></trkpt><trkpt lat="46.0464408024426" lon="12.277743428408725"><ele>1490.6</ele><time>2026-03-23T10:36:39Z</time></trkpt><trkpt lat="46.04645390622971" lon="12.277869491690957"><ele>1488.8</ele><time>2026-03-23T10:36:41Z</time></trkpt><trkpt lat="46.04647119088606" lon="12.278019253978746"><ele>1487.0</ele><time>2026-03-23T10:36:43Z</time></trkpt><trkpt lat="46.046504500354295" lon="12.278173709824586"><ele>1485.1666666666667</ele><time>2026-03-23T10:36:45Z</time></trkpt><trkpt lat="46.04656048784613" lon="12.278333016404089"><ele>1483.3333333333335</ele><time>2026-03-23T10:36:47Z</time></trkpt><trkpt lat="46.0465952434018" lon="12.278409041378998"><ele>1481.5</ele><time>2026-03-23T10:36:48Z</time></trkpt><trkpt lat="46.04663164964992" lon="12.278488914365132"><ele>1479.6666666666667</ele><time>2026-03-23T10:36:49Z</time></trkpt><trkpt lat="46.04667811435312" lon="12.278552403112608"><ele>1477.8333333333333</ele><time>2026-03-23T10:36:50Z</time></trkpt><trkpt lat="46.04676318866902" lon="12.278680269961294"><ele>1476.0</ele><time>2026-03-23T10:36:52Z</time></trkpt><trkpt lat="46.04682225138983" lon="12.278743667963228"><ele>1476.0</ele><time>2026-03-23T10:36:53Z</time></trkpt><trkpt lat="46.046859132126805" lon="12.278869491037993"><ele>1476.0</ele><time>2026-03-23T10:36:55Z</time></trkpt><trkpt lat="46.046779277766696" lon="12.278959359390928"><ele>1476.0</ele><time>2026-03-23T10:36:57Z</time></trkpt><trkpt lat="46.046673425311916" lon="12.278926048774983"><ele>1476.0</ele><time>2026-03-23T10:36:59Z</time></trkpt><trkpt lat="46.046621566743845" lon="12.278799399016917"><ele>1476.0</ele><time>2026-03-23T10:37:01Z</time></trkpt><trkpt lat="46.04657864854447" lon="12.278687816238872"><ele>1476.0</ele><time>2026-03-23T10:37:03Z</time></trkpt><trkpt lat="46.04651747305165" lon="12.278603336621076"><ele>1476.0</ele><time>2026-03-23T10:37:05Z</time></trkpt><trkpt lat="46.046450335397495" lon="12.278508200254004"><ele>1476.0</ele><time>2026-03-23T10:37:07Z</time></trkpt><trkpt lat="46.046380471310115" lon="12.278405088105643"><ele>1476.0</ele><time>2026-03-23T10:37:09Z</time></trkpt><trkpt lat="46.04632056382688" lon="12.278272300908727"><ele>1476.0</ele><time>2026-03-23T10:37:11Z</time></trkpt><trkpt lat="46.04626273774715" lon="12.278131990497103"><ele>1477.5714285714284</ele><time>2026-03-23T10:37:13Z</time></trkpt><trkpt lat="46.04623203134691" lon="12.278051028354765"><ele>1479.142857142857</ele><time>2026-03-23T10:37:14Z</time></trkpt><trkpt lat="46.046198620692834" lon="12.277969731688522"><ele>1480.7142857142858</ele><time>2026-03-23T10:37:15Z</time></trkpt><trkpt lat="46.046159833225445" lon="12.2778756837516"><ele>1482.2857142857142</ele><time>2026-03-23T10:37:16Z</time></trkpt><trkpt lat="46.046125763073334" lon="12.277775780586646"><ele>1483.857142857143</ele><time>2026-03-23T10:37:17Z</time></trkpt><trkpt lat="46.046103483667515" lon="12.277672194111922"><ele>1485.4285714285713</ele><time>2026-03-23T10:37:18Z</time></trkpt><trkpt lat="46.046081651887086" lon="12.27755463330612"><ele>1487.0</ele><time>2026-03-23T10:37:19Z</time></trkpt><trkpt lat="46.04604999533411" lon="12.277422596030249"><ele>1487.0</ele><time>2026-03-23T10:37:20Z</time></trkpt><trkpt lat="46.046014684344875" lon="12.277311789511392"><ele>1487.0</ele><time>2026-03-23T10:37:21Z</time></trkpt><trkpt lat="46.045984135795834" lon="12.277179615369574"><ele>1487.0</ele><time>2026-03-23T10:37:22Z</time></trkpt><trkpt lat="46.04595661467056" lon="12.277051789917342"><ele>1487.0</ele><time>2026-03-23T10:37:23Z</time></trkpt><trkpt lat="46.04592391554342" lon="12.27691656196044"><ele>1487.0</ele><time>2026-03-23T10:37:24Z</time></trkpt><trkpt lat="46.04588418327859" lon="12.276783539810667"><ele>1488.8</ele><time>2026-03-23T10:37:25Z</time></trkpt><trkpt lat="46.04584258661111" lon="12.276646374437307"><ele>1490.6</ele><time>2026-03-23T10:37:26Z</time></trkpt><trkpt lat="46.045793486670604" lon="12.276506341547819"><ele>1492.3999999999999</ele><time>2026-03-23T10:37:27Z</time></trkpt><trkpt lat="46.045737665395706" lon="12.276381397941448"><ele>1494.1999999999998</ele><time>2026-03-23T10:37:28Z</time></trkpt><trkpt lat="46.045682386899706" lon="12.27626079196372"><ele>1496.0</ele><time>2026-03-23T10:37:29Z</time></trkpt><trkpt lat="46.04561427354924" lon="12.276139439626926"><ele>1490.8</ele><time>2026-03-23T10:37:30Z</time></trkpt><trkpt lat="46.04555210920462" lon="12.276042950153553"><ele>1485.6</ele><time>2026-03-23T10:37:31Z</time></trkpt><trkpt lat="46.04548910232196" lon="12.275955987830063"><ele>1480.4</ele><time>2026-03-23T10:37:32Z</time></trkpt><trkpt lat="46.045413976330956" lon="12.275856577174876"><ele>1475.2</ele><time>2026-03-23T10:37:33Z</time></trkpt><trkpt lat="46.04534404436821" lon="12.27578425866109"><ele>1470.0</ele><time>2026-03-23T10:37:33.999Z</time></trkpt><trkpt lat="46.04525619133703" lon="12.275695670583922"><ele>1469.6</ele><time>2026-03-23T10:37:34.999Z</time></trkpt><trkpt lat="46.04516749905625" lon="12.275601504806888"><ele>1469.2</ele><time>2026-03-23T10:37:35.999Z</time></trkpt><trkpt lat="46.04507984653355" lon="12.275526506761148"><ele>1468.8000000000002</ele><time>2026-03-23T10:37:36.999Z</time></trkpt><trkpt lat="46.04498840452376" lon="12.275479791949188"><ele>1468.4</ele><time>2026-03-23T10:37:37.999Z</time></trkpt><trkpt lat="46.04487744145913" lon="12.27544076817011"><ele>1468.0</ele><time>2026-03-23T10:37:38.999Z</time></trkpt><trkpt lat="46.04477200239847" lon="12.27541128323374"><ele>1468.0</ele><time>2026-03-23T10:37:39.999Z</time></trkpt><trkpt lat="46.044662445157584" lon="12.275392242360407"><ele>1468.0</ele><time>2026-03-23T10:37:40.999Z</time></trkpt><trkpt lat="46.044543400017226" lon="12.27536529387199"><ele>1468.0</ele><time>2026-03-23T10:37:41.999Z</time></trkpt><trkpt lat="46.0444329586807" lon="12.275336180038096"><ele>1468.0</ele><time>2026-03-23T10:37:42.999Z</time></trkpt><trkpt lat="46.04431730159893" lon="12.27531342483459"><ele>1468.0</ele><time>2026-03-23T10:37:43.999Z</time></trkpt><trkpt lat="46.04419638009342" lon="12.275286567441858"><ele>1468.0</ele><time>2026-03-23T10:37:44.999Z</time></trkpt><trkpt lat="46.04408019207042" lon="12.275285085422666"><ele>1468.0</ele><time>2026-03-23T10:37:45.999Z</time></trkpt><trkpt lat="46.043971646216576" lon="12.275285093322546"><ele>1468.0</ele><time>2026-03-23T10:37:46.999Z</time></trkpt><trkpt lat="46.0438641784973" lon="12.275287091747598"><ele>1464.8000000000002</ele><time>2026-03-23T10:37:47.999Z</time></trkpt><trkpt lat="46.04376145629891" lon="12.275281966731717"><ele>1461.6</ele><time>2026-03-23T10:37:48.999Z</time></trkpt><trkpt lat="46.04366533149706" lon="12.275249928218352"><ele>1458.4</ele><time>2026-03-23T10:37:49.999Z</time></trkpt><trkpt lat="46.04358659937939" lon="12.275192481862977"><ele>1455.1999999999998</ele><time>2026-03-23T10:37:50.999Z</time></trkpt><trkpt lat="46.04349810264125" lon="12.27511669543883"><ele>1452.0</ele><time>2026-03-23T10:37:51.999Z</time></trkpt><trkpt lat="46.04342201475198" lon="12.275038066718281"><ele>1452.0</ele><time>2026-03-23T10:37:52.999Z</time></trkpt><trkpt lat="46.04334907425076" lon="12.274956699854952"><ele>1452.0</ele><time>2026-03-23T10:37:53.999Z</time></trkpt><trkpt lat="46.04326193306312" lon="12.274882862177487"><ele>1452.0</ele><time>2026-03-23T10:37:54.999Z</time></trkpt><trkpt lat="46.04317709002584" lon="12.274816985810821"><ele>1452.0</ele><time>2026-03-23T10:37:55.999Z</time></trkpt><trkpt lat="46.04309048403743" lon="12.274739805721527"><ele>1452.0</ele><time>2026-03-23T10:37:56.999Z</time></trkpt><trkpt lat="46.04299628669348" lon="12.274652019412832"><ele>1449.0</ele><time>2026-03-23T10:37:57.999Z</time></trkpt><trkpt lat="46.04290257137473" lon="12.274561009978338"><ele>1446.0</ele><time>2026-03-23T10:37:58.999Z</time></trkpt><trkpt lat="46.0428166649994" lon="12.274492381164162"><ele>1443.0</ele><time>2026-03-23T10:37:59.999Z</time></trkpt><trkpt lat="46.042730030913404" lon="12.274418718737676"><ele>1440.0</ele><time>2026-03-23T10:38:00.999Z</time></trkpt><trkpt lat="46.04264211922334" lon="12.274341931117055"><ele>1437.0</ele><time>2026-03-23T10:38:01.999Z</time></trkpt><trkpt lat="46.042558669596296" lon="12.274256542544586"><ele>1437.0</ele><time>2026-03-23T10:38:02.999Z</time></trkpt><trkpt lat="46.042476117787025" lon="12.274164468958423"><ele>1437.0</ele><time>2026-03-23T10:38:03.999Z</time></trkpt><trkpt lat="46.042391143795385" lon="12.274081009244293"><ele>1437.0</ele><time>2026-03-23T10:38:04.999Z</time></trkpt><trkpt lat="46.042306465282785" lon="12.2739771334219"><ele>1437.0</ele><time>2026-03-23T10:38:05.999Z</time></trkpt><trkpt lat="46.04224036374241" lon="12.273886447154876"><ele>1437.0</ele><time>2026-03-23T10:38:06.999Z</time></trkpt><trkpt lat="46.0421755973749" lon="12.273786121744717"><ele>1431.6666666666667</ele><time>2026-03-23T10:38:07.999Z</time></trkpt><trkpt lat="46.042126615387104" lon="12.27369793212373"><ele>1426.3333333333333</ele><time>2026-03-23T10:38:08.999Z</time></trkpt><trkpt lat="46.04210039556624" lon="12.273614995795905"><ele>1421.0</ele><time>2026-03-23T10:38:09.999Z</time></trkpt><trkpt lat="46.04209632088201" lon="12.273516330742321"><ele>1415.6666666666665</ele><time>2026-03-23T10:38:10.999Z</time></trkpt><trkpt lat="46.04209997928606" lon="12.273409373947944"><ele>1410.3333333333333</ele><time>2026-03-23T10:38:11.999Z</time></trkpt><trkpt lat="46.04211772391911" lon="12.273299517571713"><ele>1405.0</ele><time>2026-03-23T10:38:13Z</time></trkpt><trkpt lat="46.042145613860875" lon="12.273178201722207"><ele>1403.3333333333333</ele><time>2026-03-23T10:38:14Z</time></trkpt><trkpt lat="46.042172674516856" lon="12.273064026824985"><ele>1401.6666666666665</ele><time>2026-03-23T10:38:15Z</time></trkpt><trkpt lat="46.042192186101616" lon="12.272958105556656"><ele>1400.0</ele><time>2026-03-23T10:38:16Z</time></trkpt><trkpt lat="46.04220932521187" lon="12.272822397583221"><ele>1398.3333333333333</ele><time>2026-03-23T10:38:17Z</time></trkpt><trkpt lat="46.042221962664804" lon="12.272694362943389"><ele>1396.6666666666667</ele><time>2026-03-23T10:38:18Z</time></trkpt><trkpt lat="46.04222940064113" lon="12.272570071121764"><ele>1395.0</ele><time>2026-03-23T10:38:19Z</time></trkpt><trkpt lat="46.04222883858599" lon="12.272436529460348"><ele>1395.0</ele><time>2026-03-23T10:38:20Z</time></trkpt><trkpt lat="46.04223370734493" lon="12.27230879733506"><ele>1395.0</ele><time>2026-03-23T10:38:21Z</time></trkpt><trkpt lat="46.042233906941455" lon="12.272186223518203"><ele>1395.0</ele><time>2026-03-23T10:38:22Z</time></trkpt><trkpt lat="46.04224101313887" lon="12.27207601210976"><ele>1395.0</ele><time>2026-03-23T10:38:23Z</time></trkpt><trkpt lat="46.04224633462218" lon="12.271974283902932"><ele>1395.0</ele><time>2026-03-23T10:38:24Z</time></trkpt><trkpt lat="46.042248856389214" lon="12.271875545978254"><ele>1395.0</ele><time>2026-03-23T10:38:25Z</time></trkpt><trkpt lat="46.04224944868988" lon="12.271771464925923"><ele>1395.6</ele><time>2026-03-23T10:38:26Z</time></trkpt><trkpt lat="46.042210461399016" lon="12.271611447057955"><ele>1396.2</ele><time>2026-03-23T10:38:28Z</time></trkpt><trkpt lat="46.042151516323024" lon="12.27149143353996"><ele>1396.8000000000002</ele><time>2026-03-23T10:38:30Z</time></trkpt><trkpt lat="46.04213121884148" lon="12.271368999340067"><ele>1397.4</ele><time>2026-03-23T10:38:32Z</time></trkpt><trkpt lat="46.04216457891235" lon="12.271267296805924"><ele>1398.0</ele><time>2026-03-23T10:38:35Z</time></trkpt><trkpt lat="46.042212038006895" lon="12.271162182452567"><ele>1398.0</ele><time>2026-03-23T10:39:25Z</time></trkpt><trkpt lat="46.04226237056142" lon="12.271060100851024"><ele>1398.0</ele><time>2026-03-23T10:39:28Z</time></trkpt><trkpt lat="46.04231274766809" lon="12.270974905375022"><ele>1398.0</ele><time>2026-03-23T10:39:34.999Z</time></trkpt><trkpt lat="46.042246473156474" lon="12.271015649607829"><ele>1398.0</ele><time>2026-03-23T10:40:07.999Z</time></trkpt><trkpt lat="46.042186155663956" lon="12.271116877959493"><ele>1398.0</ele><time>2026-03-23T10:40:09.999Z</time></trkpt><trkpt lat="46.04210801156377" lon="12.271190064078402"><ele>1398.0</ele><time>2026-03-23T10:40:11.999Z</time></trkpt><trkpt lat="46.042047120909494" lon="12.27121463606311"><ele>1398.0</ele><time>2026-03-23T10:40:12.999Z</time></trkpt><trkpt lat="46.0419650287989" lon="12.271203866571051"><ele>1398.0</ele><time>2026-03-23T10:40:14.999Z</time></trkpt><trkpt lat="46.0419146328974" lon="12.271147226201158"><ele>1398.0</ele><time>2026-03-23T10:40:16.999Z</time></trkpt><trkpt lat="46.04184939993872" lon="12.271132821385047"><ele>1398.0</ele><time>2026-03-23T10:40:27Z</time></trkpt><trkpt lat="46.0418733744947" lon="12.271230174051908"><ele>1398.0</ele><time>2026-03-23T10:40:30Z</time></trkpt><trkpt lat="46.041936837838655" lon="12.27135202626317"><ele>1398.0</ele><time>2026-03-23T10:40:33Z</time></trkpt><trkpt lat="46.04197205501619" lon="12.271429095261258"><ele>1396.2</ele><time>2026-03-23T10:40:34Z</time></trkpt><trkpt lat="46.04200487150157" lon="12.271554835958025"><ele>1394.4</ele><time>2026-03-23T10:40:36Z</time></trkpt><trkpt lat="46.04200267418986" lon="12.271656936348132"><ele>1392.6000000000001</ele><time>2026-03-23T10:40:40Z</time></trkpt><trkpt lat="46.04201689341558" lon="12.271852236048915"><ele>1390.8000000000002</ele><time>2026-03-23T10:40:43Z</time></trkpt><trkpt lat="46.042003141904566" lon="12.271959083741129"><ele>1389.0</ele><time>2026-03-23T10:40:44Z</time></trkpt><trkpt lat="46.041984265809944" lon="12.272096756891488"><ele>1389.0</ele><time>2026-03-23T10:40:45Z</time></trkpt><trkpt lat="46.04196725639569" lon="12.272203426021056"><ele>1389.0</ele><time>2026-03-23T10:40:46Z</time></trkpt><trkpt lat="46.04194540192646" lon="12.272310602873539"><ele>1389.0</ele><time>2026-03-23T10:40:47Z</time></trkpt><trkpt lat="46.041918855415766" lon="12.272417776107513"><ele>1389.0</ele><time>2026-03-23T10:40:48Z</time></trkpt><trkpt lat="46.041891780767486" lon="12.272527502288641"><ele>1389.0</ele><time>2026-03-23T10:40:49Z</time></trkpt><trkpt lat="46.04186072142012" lon="12.272635472327535"><ele>1389.0</ele><time>2026-03-23T10:40:50Z</time></trkpt><trkpt lat="46.04182623898473" lon="12.272747925511247"><ele>1390.0</ele><time>2026-03-23T10:40:51Z</time></trkpt><trkpt lat="46.04177690384524" lon="12.272842525472454"><ele>1391.0</ele><time>2026-03-23T10:40:52Z</time></trkpt><trkpt lat="46.04173706612614" lon="12.272937149558555"><ele>1392.0</ele><time>2026-03-23T10:40:53Z</time></trkpt><trkpt lat="46.04167308615682" lon="12.273045522869086"><ele>1393.0</ele><time>2026-03-23T10:40:54Z</time></trkpt><trkpt lat="46.04161460125644" lon="12.273148057177226"><ele>1394.0</ele><time>2026-03-23T10:40:55Z</time></trkpt><trkpt lat="46.04158242837477" lon="12.273242498414211"><ele>1395.0</ele><time>2026-03-23T10:40:56Z</time></trkpt><trkpt lat="46.04153913515958" lon="12.273337284460391"><ele>1386.6</ele><time>2026-03-23T10:40:57Z</time></trkpt><trkpt lat="46.04151085426589" lon="12.273418629319954"><ele>1378.2</ele><time>2026-03-23T10:40:58Z</time></trkpt><trkpt lat="46.041489267061316" lon="12.27364313431615"><ele>1369.8000000000002</ele><time>2026-03-23T10:41:00Z</time></trkpt><trkpt lat="46.04147617567232" lon="12.273757677022724"><ele>1361.4</ele><time>2026-03-23T10:41:01Z</time></trkpt><trkpt lat="46.04146615533752" lon="12.27387214042379"><ele>1353.0</ele><time>2026-03-23T10:41:02Z</time></trkpt><trkpt lat="46.04146454998685" lon="12.273980107567265"><ele>1352.1666666666667</ele><time>2026-03-23T10:41:03Z</time></trkpt><trkpt lat="46.04147063580501" lon="12.274075194241792"><ele>1351.3333333333333</ele><time>2026-03-23T10:41:04Z</time></trkpt><trkpt lat="46.041523080748206" lon="12.274159819494319"><ele>1350.5</ele><time>2026-03-23T10:41:05Z</time></trkpt><trkpt lat="46.04153821072995" lon="12.274266062055439"><ele>1349.6666666666665</ele><time>2026-03-23T10:41:06Z</time></trkpt><trkpt lat="46.04157845200028" lon="12.274386784436452"><ele>1348.8333333333333</ele><time>2026-03-23T10:41:07Z</time></trkpt><trkpt lat="46.04161876906572" lon="12.274510483392225"><ele>1348.0</ele><time>2026-03-23T10:41:08Z</time></trkpt><trkpt lat="46.04165561439205" lon="12.274636990114631"><ele>1354.0</ele><time>2026-03-23T10:41:09Z</time></trkpt><trkpt lat="46.04169702827533" lon="12.274740249955522"><ele>1360.0</ele><time>2026-03-23T10:41:10Z</time></trkpt><trkpt lat="46.04174380523947" lon="12.274863672911627"><ele>1366.0</ele><time>2026-03-23T10:41:11Z</time></trkpt><trkpt lat="46.04179105786042" lon="12.274987996164988"><ele>1372.0</ele><time>2026-03-23T10:41:12Z</time></trkpt><trkpt lat="46.04185698991019" lon="12.275110452434205"><ele>1378.0</ele><time>2026-03-23T10:41:13Z</time></trkpt><trkpt lat="46.041937516506486" lon="12.275233144596577"><ele>1378.0</ele><time>2026-03-23T10:41:14Z</time></trkpt><trkpt lat="46.04202390613264" lon="12.275341705639349"><ele>1378.0</ele><time>2026-03-23T10:41:15Z</time></trkpt><trkpt lat="46.042105157101204" lon="12.275471243140055"><ele>1378.0</ele><time>2026-03-23T10:41:16Z</time></trkpt><trkpt lat="46.042193992410034" lon="12.27558062085827"><ele>1378.0</ele><time>2026-03-23T10:41:17Z</time></trkpt><trkpt lat="46.04227438108074" lon="12.275691466316026"><ele>1379.0</ele><time>2026-03-23T10:41:18Z</time></trkpt><trkpt lat="46.04232657908054" lon="12.275790946058247"><ele>1380.0</ele><time>2026-03-23T10:41:19Z</time></trkpt><trkpt lat="46.04236517860467" lon="12.275893775722759"><ele>1381.0</ele><time>2026-03-23T10:41:20Z</time></trkpt><trkpt lat="46.04240009223421" lon="12.27597942327987"><ele>1382.0</ele><time>2026-03-23T10:41:21Z</time></trkpt><trkpt lat="46.0424599079878" lon="12.276118559053929"><ele>1383.0</ele><time>2026-03-23T10:41:23Z</time></trkpt><trkpt lat="46.04254161399213" lon="12.276256829011977"><ele>1383.0</ele><time>2026-03-23T10:41:25Z</time></trkpt><trkpt lat="46.04259306985842" lon="12.276336585078827"><ele>1383.0</ele><time>2026-03-23T10:41:26Z</time></trkpt><trkpt lat="46.0426585033794" lon="12.276394978322275"><ele>1383.0</ele><time>2026-03-23T10:41:27Z</time></trkpt><trkpt lat="46.0427501770993" lon="12.27647780313129"><ele>1383.0</ele><time>2026-03-23T10:41:28Z</time></trkpt><trkpt lat="46.042853278048916" lon="12.276547779894624"><ele>1383.0</ele><time>2026-03-23T10:41:29Z</time></trkpt><trkpt lat="46.042951941455065" lon="12.276632939812746"><ele>1382.2</ele><time>2026-03-23T10:41:30Z</time></trkpt><trkpt lat="46.04305329655311" lon="12.276719528098806"><ele>1381.4</ele><time>2026-03-23T10:41:31Z</time></trkpt><trkpt lat="46.043138812974014" lon="12.276803386510023"><ele>1380.6000000000001</ele><time>2026-03-23T10:41:32Z</time></trkpt><trkpt lat="46.04322878287797" lon="12.276901774025468"><ele>1379.8000000000002</ele><time>2026-03-23T10:41:33Z</time></trkpt><trkpt lat="46.043324821133126" lon="12.276979953337046"><ele>1379.0</ele><time>2026-03-23T10:41:34Z</time></trkpt><trkpt lat="46.04342548989262" lon="12.277072454997157"><ele>1379.0</ele><time>2026-03-23T10:41:35Z</time></trkpt><trkpt lat="46.04351279176369" lon="12.27714984372218"><ele>1379.0</ele><time>2026-03-23T10:41:36Z</time></trkpt><trkpt lat="46.0435926648411" lon="12.277250317549726"><ele>1379.0</ele><time>2026-03-23T10:41:37Z</time></trkpt><trkpt lat="46.04365498438836" lon="12.277325990799959"><ele>1379.0</ele><time>2026-03-23T10:41:38Z</time></trkpt><trkpt lat="46.04371213293725" lon="12.27738471912811"><ele>1379.0</ele><time>2026-03-23T10:41:39Z</time></trkpt><trkpt lat="46.04380299791247" lon="12.277430320934437"><ele>1372.0</ele><time>2026-03-23T10:41:40Z</time></trkpt><trkpt lat="46.04387411497962" lon="12.277502810780947"><ele>1365.0</ele><time>2026-03-23T10:41:41Z</time></trkpt><trkpt lat="46.04391564334647" lon="12.27757980702735"><ele>1358.0</ele><time>2026-03-23T10:41:42Z</time></trkpt><trkpt lat="46.043949890698" lon="12.277689751175352"><ele>1351.0</ele><time>2026-03-23T10:41:43Z</time></trkpt><trkpt lat="46.04397549946701" lon="12.27781405076541"><ele>1344.0</ele><time>2026-03-23T10:41:44Z</time></trkpt><trkpt lat="46.0439969655215" lon="12.27795992315739"><ele>1337.0</ele><time>2026-03-23T10:41:45Z</time></trkpt><trkpt lat="46.04403910249264" lon="12.278072298296847"><ele>1331.8</ele><time>2026-03-23T10:41:46Z</time></trkpt><trkpt lat="46.04407421028256" lon="12.278199795256269"><ele>1326.6</ele><time>2026-03-23T10:41:47Z</time></trkpt><trkpt lat="46.04409889829329" lon="12.278315933544397"><ele>1321.3999999999999</ele><time>2026-03-23T10:41:48Z</time></trkpt><trkpt lat="46.044081890054144" lon="12.278459551126302"><ele>1316.1999999999998</ele><time>2026-03-23T10:41:48.999Z</time></trkpt><trkpt lat="46.044067309334785" lon="12.278593170562875"><ele>1311.0</ele><time>2026-03-23T10:41:49.999Z</time></trkpt><trkpt lat="46.044068819973944" lon="12.278745221397417"><ele>1311.0</ele><time>2026-03-23T10:41:50.999Z</time></trkpt><trkpt lat="46.04408858636976" lon="12.27887778381399"><ele>1311.0</ele><time>2026-03-23T10:41:51.999Z</time></trkpt><trkpt lat="46.04411434106873" lon="12.279024455664151"><ele>1311.0</ele><time>2026-03-23T10:41:52.999Z</time></trkpt><trkpt lat="46.0441313983261" lon="12.279157125343213"><ele>1311.0</ele><time>2026-03-23T10:41:53.999Z</time></trkpt><trkpt lat="46.04412986005847" lon="12.279312768930156"><ele>1311.0</ele><time>2026-03-23T10:41:54.999Z</time></trkpt><trkpt lat="46.04412867915675" lon="12.279457532253964"><ele>1306.6</ele><time>2026-03-23T10:41:55.999Z</time></trkpt><trkpt lat="46.04412335809723" lon="12.279612236606484"><ele>1302.1999999999998</ele><time>2026-03-23T10:41:56.999Z</time></trkpt><trkpt lat="46.04412412550897" lon="12.279756409655498"><ele>1297.8000000000002</ele><time>2026-03-23T10:41:57.999Z</time></trkpt><trkpt lat="46.0441217793657" lon="12.279887423212006"><ele>1293.4</ele><time>2026-03-23T10:41:58.999Z</time></trkpt><trkpt lat="46.044119190787086" lon="12.280008935365931"><ele>1289.0</ele><time>2026-03-23T10:41:59.999Z</time></trkpt><trkpt lat="46.044110112127065" lon="12.280131273865795"><ele>1286.5</ele><time>2026-03-23T10:42:00.999Z</time></trkpt><trkpt lat="46.04410317952869" lon="12.28027276870623"><ele>1284.0</ele><time>2026-03-23T10:42:01.999Z</time></trkpt><trkpt lat="46.044098744230766" lon="12.280390497907527"><ele>1281.5</ele><time>2026-03-23T10:42:02.999Z</time></trkpt><trkpt lat="46.04410185371779" lon="12.280497395535669"><ele>1279.0</ele><time>2026-03-23T10:42:03.999Z</time></trkpt><trkpt lat="46.044131944610115" lon="12.280604328452439"><ele>1276.5</ele><time>2026-03-23T10:42:04.999Z</time></trkpt><trkpt lat="46.044176592818836" lon="12.280702006161926"><ele>1274.0</ele><time>2026-03-23T10:42:05.999Z</time></trkpt><trkpt lat="46.04423359167925" lon="12.280804922802464"><ele>1284.0</ele><time>2026-03-23T10:42:06.999Z</time></trkpt><trkpt lat="46.044304330498434" lon="12.280925073779013"><ele>1294.0</ele><time>2026-03-23T10:42:07.999Z</time></trkpt><trkpt lat="46.04437762428462" lon="12.28104245290755"><ele>1304.0</ele><time>2026-03-23T10:42:08.999Z</time></trkpt><trkpt lat="46.044445994685546" lon="12.281150154727369"><ele>1314.0</ele><time>2026-03-23T10:42:09.999Z</time></trkpt><trkpt lat="46.04451069757112" lon="12.281254226226823"><ele>1324.0</ele><time>2026-03-23T10:42:10.999Z</time></trkpt><trkpt lat="46.04457677375797" lon="12.281363737052738"><ele>1318.2</ele><time>2026-03-23T10:42:11.999Z</time></trkpt><trkpt lat="46.04464531880372" lon="12.281465523617586"><ele>1312.4</ele><time>2026-03-23T10:42:12.999Z</time></trkpt><trkpt lat="46.04471187650499" lon="12.28157315566539"><ele>1306.6</ele><time>2026-03-23T10:42:13.999Z</time></trkpt><trkpt lat="46.04477583042813" lon="12.281681828236755"><ele>1300.8</ele><time>2026-03-23T10:42:14.999Z</time></trkpt><trkpt lat="46.04482462389079" lon="12.281782431338886"><ele>1295.0</ele><time>2026-03-23T10:42:15.999Z</time></trkpt><trkpt lat="46.044865286377025" lon="12.281897493731416"><ele>1295.0</ele><time>2026-03-23T10:42:16.999Z</time></trkpt><trkpt lat="46.04488891520681" lon="12.28198946710921"><ele>1295.0</ele><time>2026-03-23T10:42:17.999Z</time></trkpt><trkpt lat="46.0448776472877" lon="12.282102353798836"><ele>1295.0</ele><time>2026-03-23T10:42:18.999Z</time></trkpt><trkpt lat="46.044851262146736" lon="12.28224586956505"><ele>1295.0</ele><time>2026-03-23T10:42:19.999Z</time></trkpt><trkpt lat="46.04482167943508" lon="12.282392206149401"><ele>1295.0</ele><time>2026-03-23T10:42:20.999Z</time></trkpt><trkpt lat="46.04478700632318" lon="12.282533551239368"><ele>1289.6</ele><time>2026-03-23T10:42:21.999Z</time></trkpt><trkpt lat="46.04475430923735" lon="12.282702541464568"><ele>1284.2</ele><time>2026-03-23T10:42:22.999Z</time></trkpt><trkpt lat="46.0447283076357" lon="12.282843567958109"><ele>1278.8</ele><time>2026-03-23T10:42:23.999Z</time></trkpt><trkpt lat="46.04469932775654" lon="12.282995575736429"><ele>1273.4</ele><time>2026-03-23T10:42:25Z</time></trkpt><trkpt lat="46.04468454502444" lon="12.283132825655956"><ele>1268.0</ele><time>2026-03-23T10:42:26Z</time></trkpt><trkpt lat="46.04466468828521" lon="12.283250216206905"><ele>1268.0</ele><time>2026-03-23T10:42:27Z</time></trkpt><trkpt lat="46.04464734740153" lon="12.2833529029161"><ele>1268.0</ele><time>2026-03-23T10:42:28Z</time></trkpt><trkpt lat="46.04462406334941" lon="12.283501342895478"><ele>1268.0</ele><time>2026-03-23T10:42:30Z</time></trkpt><trkpt lat="46.044633250184454" lon="12.283624039665474"><ele>1268.0</ele><time>2026-03-23T10:42:32Z</time></trkpt><trkpt lat="46.044622521598896" lon="12.283749976791231"><ele>1268.0</ele><time>2026-03-23T10:42:34Z</time></trkpt><trkpt lat="46.04459568665544" lon="12.283866760614425"><ele>1268.0</ele><time>2026-03-23T10:42:35Z</time></trkpt><trkpt lat="46.044564278593604" lon="12.283969679363981"><ele>1270.3333333333335</ele><time>2026-03-23T10:42:36Z</time></trkpt><trkpt lat="46.04452077813944" lon="12.28411240179336"><ele>1272.6666666666667</ele><time>2026-03-23T10:42:37Z</time></trkpt><trkpt lat="46.04447688959399" lon="12.284231504287948"><ele>1275.0</ele><time>2026-03-23T10:42:38Z</time></trkpt><trkpt lat="46.0444283636517" lon="12.284331628445925"><ele>1277.3333333333333</ele><time>2026-03-23T10:42:39Z</time></trkpt><trkpt lat="46.04439353321418" lon="12.284439521637944"><ele>1279.6666666666665</ele><time>2026-03-23T10:42:40Z</time></trkpt><trkpt lat="46.044377495692494" lon="12.284534686907973"><ele>1282.0</ele><time>2026-03-23T10:42:41Z</time></trkpt><trkpt lat="46.044405565612955" lon="12.284672000733469"><ele>1281.8333333333333</ele><time>2026-03-23T10:42:43Z</time></trkpt><trkpt lat="46.04444864487023" lon="12.28476683198811"><ele>1281.6666666666665</ele><time>2026-03-23T10:42:45Z</time></trkpt><trkpt lat="46.04451877107846" lon="12.284844900289492"><ele>1281.5</ele><time>2026-03-23T10:42:47Z</time></trkpt><trkpt lat="46.04462594766729" lon="12.284839160044163"><ele>1281.3333333333333</ele><time>2026-03-23T10:42:49Z</time></trkpt><trkpt lat="46.04469057968747" lon="12.284834646282812"><ele>1281.1666666666667</ele><time>2026-03-23T10:42:50Z</time></trkpt><trkpt lat="46.044761306758666" lon="12.284843216147882"><ele>1281.0</ele><time>2026-03-23T10:42:51Z</time></trkpt><trkpt lat="46.0448387744533" lon="12.284875262457556"><ele>1281.0</ele><time>2026-03-23T10:42:52Z</time></trkpt><trkpt lat="46.04491188554742" lon="12.284928632706238"><ele>1281.0</ele><time>2026-03-23T10:42:53Z</time></trkpt><trkpt lat="46.04498284222972" lon="12.285003262180023"><ele>1281.0</ele><time>2026-03-23T10:42:54Z</time></trkpt><trkpt lat="46.04505874503727" lon="12.285091410188366"><ele>1281.0</ele><time>2026-03-23T10:42:55Z</time></trkpt><trkpt lat="46.04511857662632" lon="12.285173478743799"><ele>1281.0</ele><time>2026-03-23T10:42:56Z</time></trkpt><trkpt lat="46.04518538263886" lon="12.285253588480337"><ele>1281.0</ele><time>2026-03-23T10:42:57Z</time></trkpt><trkpt lat="46.04524843741745" lon="12.285339737135532"><ele>1279.2</ele><time>2026-03-23T10:42:58Z</time></trkpt><trkpt lat="46.0453090692659" lon="12.285437817000187"><ele>1277.3999999999999</ele><time>2026-03-23T10:42:59Z</time></trkpt><trkpt lat="46.045360948987835" lon="12.285515061399336"><ele>1275.6</ele><time>2026-03-23T10:43:00Z</time></trkpt><trkpt lat="46.04539681410212" lon="12.285645818748188"><ele>1273.8</ele><time>2026-03-23T10:43:01Z</time></trkpt><trkpt lat="46.045420923015975" lon="12.28576309264604"><ele>1272.0</ele><time>2026-03-23T10:43:02Z</time></trkpt><trkpt lat="46.04546721881802" lon="12.28590156639834"><ele>1272.0</ele><time>2026-03-23T10:43:04Z</time></trkpt><trkpt lat="46.0456003374795" lon="12.285942422708294"><ele>1272.0</ele><time>2026-03-23T10:43:06Z</time></trkpt><trkpt lat="46.04569819097942" lon="12.285967063119738"><ele>1272.0</ele><time>2026-03-23T10:43:07Z</time></trkpt><trkpt lat="46.045790965176444" lon="12.285991305137287"><ele>1272.0</ele><time>2026-03-23T10:43:08Z</time></trkpt><trkpt lat="46.04586994088753" lon="12.286035387249374"><ele>1272.0</ele><time>2026-03-23T10:43:09Z</time></trkpt><trkpt lat="46.04593696218971" lon="12.286083375170522"><ele>1275.8</ele><time>2026-03-23T10:43:10Z</time></trkpt><trkpt lat="46.04600536778989" lon="12.286139374223191"><ele>1279.6</ele><time>2026-03-23T10:43:11Z</time></trkpt><trkpt lat="46.04611629951465" lon="12.286152707194931"><ele>1283.3999999999999</ele><time>2026-03-23T10:43:13Z</time></trkpt><trkpt lat="46.0462262905848" lon="12.286065709734993"><ele>1287.2</ele><time>2026-03-23T10:43:15Z</time></trkpt><trkpt lat="46.0462882832815" lon="12.286023436410474"><ele>1291.0</ele><time>2026-03-23T10:43:16Z</time></trkpt><trkpt lat="46.04635737815076" lon="12.286011427125228"><ele>1291.0</ele><time>2026-03-23T10:43:17Z</time></trkpt><trkpt lat="46.04643326570282" lon="12.28602065245737"><ele>1291.0</ele><time>2026-03-23T10:43:18Z</time></trkpt><trkpt lat="46.04650379982249" lon="12.286044988925923"><ele>1291.0</ele><time>2026-03-23T10:43:19Z</time></trkpt><trkpt lat="46.04658514728575" lon="12.286066782293352"><ele>1291.0</ele><time>2026-03-23T10:43:20Z</time></trkpt><trkpt lat="46.04666535803299" lon="12.286075208254765"><ele>1291.0</ele><time>2026-03-23T10:43:21Z</time></trkpt><trkpt lat="46.04676312594018" lon="12.286079236770979"><ele>1291.0</ele><time>2026-03-23T10:43:23Z</time></trkpt><trkpt lat="46.04682972814377" lon="12.286152040166995"><ele>1290.9999999999998</ele><time>2026-03-23T10:43:24Z</time></trkpt><trkpt lat="46.04686497741458" lon="12.286250252347575"><ele>1291.0</ele><time>2026-03-23T10:43:25Z</time></trkpt><trkpt lat="46.0468858398228" lon="12.286338598935986"><ele>1291.0</ele><time>2026-03-23T10:43:26Z</time></trkpt><trkpt lat="46.046937880088485" lon="12.286396800478133"><ele>1291.0</ele><time>2026-03-23T10:43:27Z</time></trkpt><trkpt lat="46.04700901309432" lon="12.286405348874444"><ele>1291.0</ele><time>2026-03-23T10:43:28Z</time></trkpt><trkpt lat="46.04709279592921" lon="12.286402576251607"><ele>1290.9999999999998</ele><time>2026-03-23T10:43:29Z</time></trkpt><trkpt lat="46.04717233474788" lon="12.286412477247962"><ele>1291.0</ele><time>2026-03-23T10:43:30Z</time></trkpt><trkpt lat="46.047249882783504" lon="12.286468380632082"><ele>1287.5</ele><time>2026-03-23T10:43:31Z</time></trkpt><trkpt lat="46.04733314357276" lon="12.28652190552915"><ele>1284.0</ele><time>2026-03-23T10:43:32Z</time></trkpt><trkpt lat="46.0474153636939" lon="12.286570815965828"><ele>1280.5</ele><time>2026-03-23T10:43:33Z</time></trkpt><trkpt lat="46.04749752936663" lon="12.286598307766809"><ele>1277.0</ele><time>2026-03-23T10:43:34Z</time></trkpt><trkpt lat="46.04757096982968" lon="12.286612030739677"><ele>1273.5</ele><time>2026-03-23T10:43:35Z</time></trkpt><trkpt lat="46.04765805570213" lon="12.286686838148398"><ele>1270.0</ele><time>2026-03-23T10:43:37Z</time></trkpt><trkpt lat="46.04767439315077" lon="12.286883772391537"><ele>1270.0</ele><time>2026-03-23T10:43:39Z</time></trkpt><trkpt lat="46.047694808703966" lon="12.287017297893264"><ele>1270.0</ele><time>2026-03-23T10:43:40Z</time></trkpt><trkpt lat="46.04772420071001" lon="12.287153794679796"><ele>1270.0</ele><time>2026-03-23T10:43:41Z</time></trkpt><trkpt lat="46.04774841759268" lon="12.28729247162769"><ele>1270.0</ele><time>2026-03-23T10:43:42Z</time></trkpt><trkpt lat="46.047769553154716" lon="12.287440680578282"><ele>1270.0</ele><time>2026-03-23T10:43:43Z</time></trkpt><trkpt lat="46.04777958369168" lon="12.287596675496939"><ele>1264.4</ele><time>2026-03-23T10:43:44Z</time></trkpt><trkpt lat="46.04777886931" lon="12.287759359290327"><ele>1258.8</ele><time>2026-03-23T10:43:45Z</time></trkpt><trkpt lat="46.0477816757693" lon="12.28789989064461"><ele>1253.2</ele><time>2026-03-23T10:43:46Z</time></trkpt><trkpt lat="46.047796091967875" lon="12.288050530688706"><ele>1247.6</ele><time>2026-03-23T10:43:47Z</time></trkpt><trkpt lat="46.0478079331243" lon="12.28818902880658"><ele>1242.0</ele><time>2026-03-23T10:43:48Z</time></trkpt><trkpt lat="46.047826730333306" lon="12.28831946364598"><ele>1239.3333333333333</ele><time>2026-03-23T10:43:49Z</time></trkpt><trkpt lat="46.04783549966562" lon="12.288439778116093"><ele>1236.6666666666667</ele><time>2026-03-23T10:43:49.999Z</time></trkpt><trkpt lat="46.04783624192046" lon="12.288538598485781"><ele>1234.0</ele><time>2026-03-23T10:43:50.999Z</time></trkpt><trkpt lat="46.04787582940985" lon="12.288611463010788"><ele>1231.3333333333335</ele><time>2026-03-23T10:43:51.999Z</time></trkpt><trkpt lat="46.04793194712801" lon="12.288704629129235"><ele>1228.6666666666667</ele><time>2026-03-23T10:43:52.999Z</time></trkpt><trkpt lat="46.047986931504134" lon="12.288785491034195"><ele>1226.0</ele><time>2026-03-23T10:43:53.999Z</time></trkpt><trkpt lat="46.04805106906409" lon="12.288856738179708"><ele>1226.0</ele><time>2026-03-23T10:43:54.999Z</time></trkpt><trkpt lat="46.04812493259322" lon="12.288912642115076"><ele>1226.0</ele><time>2026-03-23T10:43:55.999Z</time></trkpt><trkpt lat="46.04819296168951" lon="12.288956819468037"><ele>1226.0</ele><time>2026-03-23T10:43:56.999Z</time></trkpt><trkpt lat="46.04828258184028" lon="12.288978846163705"><ele>1226.0</ele><time>2026-03-23T10:43:57.999Z</time></trkpt><trkpt lat="46.04836325373394" lon="12.28900652522383"><ele>1226.0</ele><time>2026-03-23T10:43:58.999Z</time></trkpt><trkpt lat="46.04843353427805" lon="12.289022624981186"><ele>1226.0</ele><time>2026-03-23T10:43:59.999Z</time></trkpt><trkpt lat="46.04848445518265" lon="12.289087070682353"><ele>1224.0</ele><time>2026-03-23T10:44:00.999Z</time></trkpt><trkpt lat="46.04851071866023" lon="12.289278279062332"><ele>1222.0</ele><time>2026-03-23T10:44:02.999Z</time></trkpt><trkpt lat="46.04851187515203" lon="12.289413203489556"><ele>1220.0</ele><time>2026-03-23T10:44:03.999Z</time></trkpt><trkpt lat="46.04852101608329" lon="12.289561818545673"><ele>1218.0</ele><time>2026-03-23T10:44:04.999Z</time></trkpt><trkpt lat="46.04853023019395" lon="12.289699867190446"><ele>1216.0</ele><time>2026-03-23T10:44:05.999Z</time></trkpt><trkpt lat="46.048538888499145" lon="12.289815419656255"><ele>1216.0</ele><time>2026-03-23T10:44:06.999Z</time></trkpt><trkpt lat="46.04853922489394" lon="12.289940316274665"><ele>1216.0</ele><time>2026-03-23T10:44:07.999Z</time></trkpt><trkpt lat="46.04852893869094" lon="12.290052216157347"><ele>1216.0</ele><time>2026-03-23T10:44:08.999Z</time></trkpt><trkpt lat="46.04852967335068" lon="12.290155902865745"><ele>1216.0</ele><time>2026-03-23T10:44:09.999Z</time></trkpt><trkpt lat="46.04854513853705" lon="12.29034237728387"><ele>1216.0</ele><time>2026-03-23T10:44:11.999Z</time></trkpt><trkpt lat="46.048520633391384" lon="12.29044055702329"><ele>1216.0</ele><time>2026-03-23T10:44:14.999Z</time></trkpt><trkpt lat="46.048460452480384" lon="12.290399135715687"><ele>1216.0</ele><time>2026-03-23T10:44:16.999Z</time></trkpt><trkpt lat="46.04841437998045" lon="12.290185354773582"><ele>1216.0</ele><time>2026-03-23T10:44:18.999Z</time></trkpt><trkpt lat="46.04838574356977" lon="12.290052629076675"><ele>1216.0</ele><time>2026-03-23T10:44:19.999Z</time></trkpt><trkpt lat="46.04834802155966" lon="12.289931215369577"><ele>1216.0</ele><time>2026-03-23T10:44:20.999Z</time></trkpt><trkpt lat="46.04829732252681" lon="12.289813020742017"><ele>1216.0</ele><time>2026-03-23T10:44:21.999Z</time></trkpt><trkpt lat="46.04824191583656" lon="12.289703116693216"><ele>1214.5</ele><time>2026-03-23T10:44:22.999Z</time></trkpt><trkpt lat="46.048192374877985" lon="12.289614780184772"><ele>1213.0</ele><time>2026-03-23T10:44:23.999Z</time></trkpt><trkpt lat="46.048140957172436" lon="12.289547925091204"><ele>1211.5</ele><time>2026-03-23T10:44:24.999Z</time></trkpt><trkpt lat="46.048067004889575" lon="12.289513003385382"><ele>1210.0</ele><time>2026-03-23T10:44:25.999Z</time></trkpt><trkpt lat="46.04797806883532" lon="12.289515372736346"><ele>1208.5</ele><time>2026-03-23T10:44:26.999Z</time></trkpt><trkpt lat="46.04787654125592" lon="12.289545326440642"><ele>1207.0</ele><time>2026-03-23T10:44:27.999Z</time></trkpt><trkpt lat="46.04777924152382" lon="12.289567149353429"><ele>1207.0</ele><time>2026-03-23T10:44:28.999Z</time></trkpt><trkpt lat="46.04768262726752" lon="12.289562509508631"><ele>1207.0</ele><time>2026-03-23T10:44:29.999Z</time></trkpt><trkpt lat="46.04760629904135" lon="12.289526479241536"><ele>1207.0</ele><time>2026-03-23T10:44:31Z</time></trkpt><trkpt lat="46.04753280956006" lon="12.289517036797589"><ele>1207.0</ele><time>2026-03-23T10:44:32Z</time></trkpt><trkpt lat="46.047445010900944" lon="12.28945610819062"><ele>1207.0</ele><time>2026-03-23T10:44:34Z</time></trkpt><trkpt lat="46.04741408627426" lon="12.289366590247667"><ele>1207.0</ele><time>2026-03-23T10:44:35Z</time></trkpt><trkpt lat="46.04736899111354" lon="12.289245291491376"><ele>1202.1666666666665</ele><time>2026-03-23T10:44:36Z</time></trkpt><trkpt lat="46.04732401310314" lon="12.28914421335946"><ele>1197.3333333333333</ele><time>2026-03-23T10:44:37Z</time></trkpt><trkpt lat="46.04727942965883" lon="12.289032325983325"><ele>1192.5</ele><time>2026-03-23T10:44:38Z</time></trkpt><trkpt lat="46.04725362036807" lon="12.288937860801296"><ele>1187.6666666666667</ele><time>2026-03-23T10:44:39Z</time></trkpt><trkpt lat="46.04723348836726" lon="12.288829550862008"><ele>1182.8333333333335</ele><time>2026-03-23T10:44:40Z</time></trkpt><trkpt lat="46.04723296550093" lon="12.288729216539277"><ele>1178.0</ele><time>2026-03-23T10:44:41Z</time></trkpt><trkpt lat="46.04723397881097" lon="12.28861185127789"><ele>1178.0</ele><time>2026-03-23T10:44:42Z</time></trkpt><trkpt lat="46.047224858069406" lon="12.288482038748544"><ele>1178.0</ele><time>2026-03-23T10:44:43Z</time></trkpt><trkpt lat="46.047219815158044" lon="12.288342413520859"><ele>1178.0</ele><time>2026-03-23T10:44:44Z</time></trkpt><trkpt lat="46.04721956605788" lon="12.288211981057465"><ele>1178.0</ele><time>2026-03-23T10:44:45Z</time></trkpt><trkpt lat="46.047211135855065" lon="12.288102705393838"><ele>1178.0</ele><time>2026-03-23T10:44:46Z</time></trkpt><trkpt lat="46.04718060884692" lon="12.28801209112007"><ele>1178.0</ele><time>2026-03-23T10:44:47Z</time></trkpt><trkpt lat="46.04713630882609" lon="12.287933066282244"><ele>1182.5</ele><time>2026-03-23T10:44:48Z</time></trkpt><trkpt lat="46.04709407688949" lon="12.287848947339286"><ele>1187.0</ele><time>2026-03-23T10:44:49Z</time></trkpt><trkpt lat="46.04704957041189" lon="12.287666033256487"><ele>1191.5</ele><time>2026-03-23T10:44:51Z</time></trkpt><trkpt lat="46.04700725307559" lon="12.287596315876481"><ele>1196.0</ele><time>2026-03-23T10:44:52Z</time></trkpt><trkpt lat="46.04693668007067" lon="12.287568458015334"><ele>1200.5</ele><time>2026-03-23T10:44:53Z</time></trkpt><trkpt lat="46.04685117829489" lon="12.28759637223304"><ele>1205.0</ele><time>2026-03-23T10:44:54Z</time></trkpt><trkpt lat="46.046783621064364" lon="12.287660922973101"><ele>1205.0</ele><time>2026-03-23T10:44:55Z</time></trkpt><trkpt lat="46.046708039671955" lon="12.287747301350631"><ele>1205.0</ele><time>2026-03-23T10:44:56Z</time></trkpt><trkpt lat="46.04663267244121" lon="12.287853903539819"><ele>1205.0</ele><time>2026-03-23T10:44:57Z</time></trkpt><trkpt lat="46.04656432965388" lon="12.287913722273752"><ele>1205.0</ele><time>2026-03-23T10:44:58Z</time></trkpt><trkpt lat="46.04650228924445" lon="12.28794497459582"><ele>1205.0</ele><time>2026-03-23T10:44:59Z</time></trkpt><trkpt lat="46.04643624044821" lon="12.287960819011229"><ele>1205.0</ele><time>2026-03-23T10:45:00Z</time></trkpt><trkpt lat="46.04636855144946" lon="12.287974618202805"><ele>1206.0</ele><time>2026-03-23T10:45:01Z</time></trkpt><trkpt lat="46.04629770982511" lon="12.287951014260841"><ele>1207.0</ele><time>2026-03-23T10:45:02Z</time></trkpt><trkpt lat="46.04617168392847" lon="12.288010807052723"><ele>1208.0</ele><time>2026-03-23T10:45:04Z</time></trkpt><trkpt lat="46.04611833066954" lon="12.288110046518955"><ele>1209.0</ele><time>2026-03-23T10:45:05Z</time></trkpt><trkpt lat="46.04606754522786" lon="12.288216916156038"><ele>1210.0</ele><time>2026-03-23T10:45:06Z</time></trkpt><trkpt lat="46.04601267601792" lon="12.288269223874813"><ele>1211.0</ele><time>2026-03-23T10:45:07Z</time></trkpt><trkpt lat="46.045944336978366" lon="12.288303055657268"><ele>1203.6666666666667</ele><time>2026-03-23T10:45:08Z</time></trkpt><trkpt lat="46.04586944887899" lon="12.288322599328836"><ele>1196.3333333333335</ele><time>2026-03-23T10:45:09Z</time></trkpt><trkpt lat="46.04580081292523" lon="12.28829518504756"><ele>1189.0</ele><time>2026-03-23T10:45:10Z</time></trkpt><trkpt lat="46.045719727048244" lon="12.288252219321759"><ele>1181.6666666666667</ele><time>2026-03-23T10:45:11Z</time></trkpt><trkpt lat="46.04561954151049" lon="12.28820119528786"><ele>1174.3333333333333</ele><time>2026-03-23T10:45:12Z</time></trkpt><trkpt lat="46.04552351850084" lon="12.288167366002225"><ele>1167.0</ele><time>2026-03-23T10:45:13Z</time></trkpt><trkpt lat="46.04542601079935" lon="12.28812317254829"><ele>1170.0</ele><time>2026-03-23T10:45:14Z</time></trkpt><trkpt lat="46.04533303653857" lon="12.288086534930548"><ele>1173.0</ele><time>2026-03-23T10:45:15Z</time></trkpt><trkpt lat="46.04522495290159" lon="12.288059902700006"><ele>1176.0</ele><time>2026-03-23T10:45:16Z</time></trkpt><trkpt lat="46.04512853960194" lon="12.288037569511408"><ele>1179.0</ele><time>2026-03-23T10:45:17Z</time></trkpt><trkpt lat="46.04502527025233" lon="12.288037977643688"><ele>1182.0</ele><time>2026-03-23T10:45:18Z</time></trkpt><trkpt lat="46.04492439591481" lon="12.288047641020768"><ele>1182.0</ele><time>2026-03-23T10:45:19Z</time></trkpt><trkpt lat="46.044828832957954" lon="12.288079610816121"><ele>1182.0</ele><time>2026-03-23T10:45:20Z</time></trkpt><trkpt lat="46.0447496923018" lon="12.288119440537605"><ele>1182.0</ele><time>2026-03-23T10:45:21Z</time></trkpt><trkpt lat="46.04467704699092" lon="12.288144562297989"><ele>1182.0</ele><time>2026-03-23T10:45:22Z</time></trkpt><trkpt lat="46.04457723847139" lon="12.288129880990322"><ele>1182.0</ele><time>2026-03-23T10:45:24Z</time></trkpt><trkpt lat="46.04452052569554" lon="12.288082832343092"><ele>1182.0</ele><time>2026-03-23T10:45:25Z</time></trkpt><trkpt lat="46.044447638863474" lon="12.288002929977306"><ele>1182.0</ele><time>2026-03-23T10:45:26Z</time></trkpt><trkpt lat="46.044373256277346" lon="12.287918184436183"><ele>1182.0</ele><time>2026-03-23T10:45:27Z</time></trkpt><trkpt lat="46.044300368395255" lon="12.287839539862619"><ele>1182.0</ele><time>2026-03-23T10:45:28Z</time></trkpt><trkpt lat="46.04422772762678" lon="12.287786711000518"><ele>1182.0</ele><time>2026-03-23T10:45:29Z</time></trkpt><trkpt lat="46.04415735709097" lon="12.287743332430423"><ele>1182.0</ele><time>2026-03-23T10:45:30Z</time></trkpt><trkpt lat="46.04406705724818" lon="12.287687087053621"><ele>1182.0</ele><time>2026-03-23T10:45:32Z</time></trkpt><trkpt lat="46.04399846023055" lon="12.287531065013654"><ele>1181.0</ele><time>2026-03-23T10:45:34Z</time></trkpt><trkpt lat="46.043953309591885" lon="12.287466800175245"><ele>1180.0</ele><time>2026-03-23T10:45:35Z</time></trkpt><trkpt lat="46.04388670687436" lon="12.287469650055085"><ele>1179.0</ele><time>2026-03-23T10:45:36Z</time></trkpt><trkpt lat="46.043801083463656" lon="12.287512840988315"><ele>1178.0</ele><time>2026-03-23T10:45:37Z</time></trkpt><trkpt lat="46.04370229802771" lon="12.287568217580828"><ele>1177.0</ele><time>2026-03-23T10:45:38Z</time></trkpt><trkpt lat="46.04362475331401" lon="12.287635509853942"><ele>1176.0</ele><time>2026-03-23T10:45:39Z</time></trkpt><trkpt lat="46.043564222054556" lon="12.287700843719422"><ele>1176.0</ele><time>2026-03-23T10:45:40Z</time></trkpt><trkpt lat="46.043510755188834" lon="12.28776190021943"><ele>1176.0</ele><time>2026-03-23T10:45:41Z</time></trkpt><trkpt lat="46.04344843404292" lon="12.287893473257936"><ele>1176.0</ele><time>2026-03-23T10:45:43Z</time></trkpt><trkpt lat="46.04336715289108" lon="12.287985789326303"><ele>1176.0</ele><time>2026-03-23T10:45:45Z</time></trkpt><trkpt lat="46.04329895597738" lon="12.288018094534761"><ele>1176.0</ele><time>2026-03-23T10:45:46Z</time></trkpt><trkpt lat="46.04322699324523" lon="12.288055951019206"><ele>1176.0</ele><time>2026-03-23T10:45:47Z</time></trkpt><trkpt lat="46.04316165866108" lon="12.288084542178133"><ele>1175.3333333333333</ele><time>2026-03-23T10:45:48Z</time></trkpt><trkpt lat="46.043097062848844" lon="12.288112182425724"><ele>1174.6666666666667</ele><time>2026-03-23T10:45:49Z</time></trkpt><trkpt lat="46.04302854117304" lon="12.288145687002617"><ele>1174.0</ele><time>2026-03-23T10:45:50Z</time></trkpt><trkpt lat="46.04296331573592" lon="12.28816754453152"><ele>1173.3333333333335</ele><time>2026-03-23T10:45:50.999Z</time></trkpt><trkpt lat="46.042871058932946" lon="12.288149093966648"><ele>1172.6666666666667</ele><time>2026-03-23T10:45:52.999Z</time></trkpt><trkpt lat="46.042802158609" lon="12.288099257260313"><ele>1172.0</ele><time>2026-03-23T10:45:53.999Z</time></trkpt><trkpt lat="46.04271843260063" lon="12.288068747091119"><ele>1172.0</ele><time>2026-03-23T10:45:54.999Z</time></trkpt><trkpt lat="46.0426496593468" lon="12.288066422490305"><ele>1172.0</ele><time>2026-03-23T10:45:55.999Z</time></trkpt><trkpt lat="46.0425655166303" lon="12.288104125055954"><ele>1172.0</ele><time>2026-03-23T10:45:56.999Z</time></trkpt><trkpt lat="46.04248610343682" lon="12.288135385835282"><ele>1172.0</ele><time>2026-03-23T10:45:57.999Z</time></trkpt><trkpt lat="46.04235458572157" lon="12.288152372046893"><ele>1172.0</ele><time>2026-03-23T10:45:59.999Z</time></trkpt><trkpt lat="46.042266495978915" lon="12.288189477439916"><ele>1163.0</ele><time>2026-03-23T10:46:00.999Z</time></trkpt><trkpt lat="46.04217080148686" lon="12.288248993625377"><ele>1154.0</ele><time>2026-03-23T10:46:01.999Z</time></trkpt><trkpt lat="46.04209903379171" lon="12.288303144754222"><ele>1145.0</ele><time>2026-03-23T10:46:02.999Z</time></trkpt><trkpt lat="46.04201578877789" lon="12.28836821747232"><ele>1136.0</ele><time>2026-03-23T10:46:03.999Z</time></trkpt><trkpt lat="46.04194806008889" lon="12.288422375983325"><ele>1127.0</ele><time>2026-03-23T10:46:04.999Z</time></trkpt><trkpt lat="46.04187975821668" lon="12.28846800391025"><ele>1118.0</ele><time>2026-03-23T10:46:05.999Z</time></trkpt><trkpt lat="46.04179810954248" lon="12.288526824623878"><ele>1118.0</ele><time>2026-03-23T10:46:06.999Z</time></trkpt><trkpt lat="46.041726192821734" lon="12.288562843219989"><ele>1118.0</ele><time>2026-03-23T10:46:07.999Z</time></trkpt><trkpt lat="46.04159811273539" lon="12.28858523149766"><ele>1118.0</ele><time>2026-03-23T10:46:09.999Z</time></trkpt><trkpt lat="46.04153189805345" lon="12.288560280210476"><ele>1118.0</ele><time>2026-03-23T10:46:10.999Z</time></trkpt><trkpt lat="46.04146439418572" lon="12.288505491991401"><ele>1118.0</ele><time>2026-03-23T10:46:11.999Z</time></trkpt><trkpt lat="46.04139389655253" lon="12.28841120648226"><ele>1118.0</ele><time>2026-03-23T10:46:12.999Z</time></trkpt><trkpt lat="46.041329465583175" lon="12.288308825061078"><ele>1118.8</ele><time>2026-03-23T10:46:13.999Z</time></trkpt><trkpt lat="46.041254035169736" lon="12.288206120512944"><ele>1119.6</ele><time>2026-03-23T10:46:14.999Z</time></trkpt><trkpt lat="46.04118961555178" lon="12.288131811742439"><ele>1120.4</ele><time>2026-03-23T10:46:15.999Z</time></trkpt><trkpt lat="46.04111348122624" lon="12.288064783187638"><ele>1121.2</ele><time>2026-03-23T10:46:16.999Z</time></trkpt><trkpt lat="46.041021039662525" lon="12.287994851471732"><ele>1122.0</ele><time>2026-03-23T10:46:17.999Z</time></trkpt><trkpt lat="46.040946220336615" lon="12.287931685807742"><ele>1122.0</ele><time>2026-03-23T10:46:18.999Z</time></trkpt><trkpt lat="46.04087776206578" lon="12.287854166129364"><ele>1122.0</ele><time>2026-03-23T10:46:19.999Z</time></trkpt><trkpt lat="46.04080632037806" lon="12.287790931919593"><ele>1122.0</ele><time>2026-03-23T10:46:20.999Z</time></trkpt><trkpt lat="46.04074524063585" lon="12.2877211148107"><ele>1122.0</ele><time>2026-03-23T10:46:21.999Z</time></trkpt><trkpt lat="46.04066678966073" lon="12.28767578089035"><ele>1122.0</ele><time>2026-03-23T10:46:22.999Z</time></trkpt><trkpt lat="46.04057627406255" lon="12.28764214438072"><ele>1122.0</ele><time>2026-03-23T10:46:23.999Z</time></trkpt><trkpt lat="46.04050035874613" lon="12.28761565682922"><ele>1116.5</ele><time>2026-03-23T10:46:24.999Z</time></trkpt><trkpt lat="46.040426373917256" lon="12.287618618992505"><ele>1111.0</ele><time>2026-03-23T10:46:25.999Z</time></trkpt><trkpt lat="46.040353392018076" lon="12.287663030010378"><ele>1105.5</ele><time>2026-03-23T10:46:26.999Z</time></trkpt><trkpt lat="46.04027552809299" lon="12.287715881305838"><ele>1100.0</ele><time>2026-03-23T10:46:27.999Z</time></trkpt><trkpt lat="46.04019316933826" lon="12.287734809590303"><ele>1094.5</ele><time>2026-03-23T10:46:29.999Z</time></trkpt><trkpt lat="46.0401636960434" lon="12.287633433986603"><ele>1089.0</ele><time>2026-03-23T10:46:31.999Z</time></trkpt><trkpt lat="46.040171528066175" lon="12.287536525672966"><ele>1089.0</ele><time>2026-03-23T10:46:32.999Z</time></trkpt><trkpt lat="46.040182155477744" lon="12.28741021481168"><ele>1089.0</ele><time>2026-03-23T10:46:33.999Z</time></trkpt><trkpt lat="46.040185151333674" lon="12.287283890693285"><ele>1089.0</ele><time>2026-03-23T10:46:34.999Z</time></trkpt><trkpt lat="46.04018010188282" lon="12.287124932533416"><ele>1089.0</ele><time>2026-03-23T10:46:37Z</time></trkpt><trkpt lat="46.040248198620546" lon="12.28703371838765"><ele>1089.0</ele><time>2026-03-23T10:46:39Z</time></trkpt><trkpt lat="46.040313726592686" lon="12.286940628908319"><ele>1086.5</ele><time>2026-03-23T10:46:40Z</time></trkpt><trkpt lat="46.04037116155957" lon="12.286833799960217"><ele>1084.0</ele><time>2026-03-23T10:46:41Z</time></trkpt><trkpt lat="46.0404101490316" lon="12.286721975704598"><ele>1081.5</ele><time>2026-03-23T10:46:42Z</time></trkpt><trkpt lat="46.0404398658672" lon="12.286609961461313"><ele>1079.0</ele><time>2026-03-23T10:46:43Z</time></trkpt><trkpt lat="46.040467700662845" lon="12.28649584317795"><ele>1076.5</ele><time>2026-03-23T10:46:44Z</time></trkpt><trkpt lat="46.04047962945509" lon="12.286374297946592"><ele>1074.0</ele><time>2026-03-23T10:46:45Z</time></trkpt><trkpt lat="46.04048267123577" lon="12.286258618267821"><ele>1071.1666666666667</ele><time>2026-03-23T10:46:46Z</time></trkpt><trkpt lat="46.040476645073866" lon="12.28613125727515"><ele>1068.3333333333333</ele><time>2026-03-23T10:46:47Z</time></trkpt><trkpt lat="46.04046214721127" lon="12.285987548683725"><ele>1065.5</ele><time>2026-03-23T10:46:48Z</time></trkpt><trkpt lat="46.04045007918962" lon="12.285863197683991"><ele>1062.6666666666665</ele><time>2026-03-23T10:46:49Z</time></trkpt><trkpt lat="46.04043391055251" lon="12.28574743808519"><ele>1059.8333333333333</ele><time>2026-03-23T10:46:50Z</time></trkpt><trkpt lat="46.04042181574389" lon="12.28561918846278"><ele>1057.0</ele><time>2026-03-23T10:46:51Z</time></trkpt><trkpt lat="46.040410953022494" lon="12.285493422749568"><ele>1054.1666666666665</ele><time>2026-03-23T10:46:52Z</time></trkpt><trkpt lat="46.04040273176292" lon="12.285385302966825"><ele>1051.3333333333333</ele><time>2026-03-23T10:46:53Z</time></trkpt><trkpt lat="46.04038625361174" lon="12.285297114786701"><ele>1048.5</ele><time>2026-03-23T10:46:54Z</time></trkpt><trkpt lat="46.04043000305118" lon="12.285130017207429"><ele>1045.6666666666667</ele><time>2026-03-23T10:46:56Z</time></trkpt><trkpt lat="46.04048601222585" lon="12.285027660921857"><ele>1042.8333333333335</ele><time>2026-03-23T10:46:57Z</time></trkpt><trkpt lat="46.04054880894844" lon="12.28492549311047"><ele>1040.0</ele><time>2026-03-23T10:46:58Z</time></trkpt><trkpt lat="46.04060068173169" lon="12.284811629049102"><ele>1037.0</ele><time>2026-03-23T10:46:59Z</time></trkpt><trkpt lat="46.040638302465766" lon="12.284703134123502"><ele>1034.0</ele><time>2026-03-23T10:47:00Z</time></trkpt><trkpt lat="46.04066619151555" lon="12.284581177576452"><ele>1031.0</ele><time>2026-03-23T10:47:01Z</time></trkpt><trkpt lat="46.0407159666933" lon="12.284490100595482"><ele>1028.0</ele><time>2026-03-23T10:47:02Z</time></trkpt><trkpt lat="46.04077930244348" lon="12.284390936882874"><ele>1025.0</ele><time>2026-03-23T10:47:03Z</time></trkpt><trkpt lat="46.04083696817038" lon="12.284285756048645"><ele>1022.0</ele><time>2026-03-23T10:47:04Z</time></trkpt><trkpt lat="46.04085913500971" lon="12.284166891971182"><ele>1030.6</ele><time>2026-03-23T10:47:05Z</time></trkpt><trkpt lat="46.04086374296681" lon="12.284030135103208"><ele>1039.2</ele><time>2026-03-23T10:47:06Z</time></trkpt><trkpt lat="46.04086802573327" lon="12.283890434587455"><ele>1047.8</ele><time>2026-03-23T10:47:07Z</time></trkpt><trkpt lat="46.04087271482699" lon="12.283740865825054"><ele>1056.4</ele><time>2026-03-23T10:47:08Z</time></trkpt><trkpt lat="46.04087615794329" lon="12.283612320558111"><ele>1065.0</ele><time>2026-03-23T10:47:09Z</time></trkpt><trkpt lat="46.040888513101606" lon="12.283496119185298"><ele>1065.0</ele><time>2026-03-23T10:47:10Z</time></trkpt><trkpt lat="46.04088585941101" lon="12.283399639843575"><ele>1065.0</ele><time>2026-03-23T10:47:11Z</time></trkpt><trkpt lat="46.040843182980645" lon="12.283308149016136"><ele>1065.0</ele><time>2026-03-23T10:47:12Z</time></trkpt><trkpt lat="46.04077905889302" lon="12.283229162802098"><ele>1065.0</ele><time>2026-03-23T10:47:13Z</time></trkpt><trkpt lat="46.04070254646391" lon="12.283137695487316"><ele>1065.0</ele><time>2026-03-23T10:47:14Z</time></trkpt><trkpt lat="46.04062268930708" lon="12.283074461992426"><ele>1065.0</ele><time>2026-03-23T10:47:15Z</time></trkpt><trkpt lat="46.040535167287715" lon="12.283009276955514"><ele>1060.0</ele><time>2026-03-23T10:47:16Z</time></trkpt><trkpt lat="46.04044087880534" lon="12.282983772023742"><ele>1055.0</ele><time>2026-03-23T10:47:17Z</time></trkpt><trkpt lat="46.04036073858617" lon="12.282932692428263"><ele>1050.0</ele><time>2026-03-23T10:47:18Z</time></trkpt><trkpt lat="46.04030077725836" lon="12.282896315670031"><ele>1045.0</ele><time>2026-03-23T10:47:19Z</time></trkpt><trkpt lat="46.04024288822827" lon="12.282747218443937"><ele>1040.0</ele><time>2026-03-23T10:47:21Z</time></trkpt><trkpt lat="46.040226932189114" lon="12.282633113680594"><ele>1035.0</ele><time>2026-03-23T10:47:22Z</time></trkpt><trkpt lat="46.040212265664465" lon="12.2824749182231"><ele>1035.0</ele><time>2026-03-23T10:47:23Z</time></trkpt><trkpt lat="46.04016444679616" lon="12.282344004615178"><ele>1035.0</ele><time>2026-03-23T10:47:24Z</time></trkpt><trkpt lat="46.04013852466107" lon="12.28219021986252"><ele>1035.0</ele><time>2026-03-23T10:47:25Z</time></trkpt><trkpt lat="46.040125368701005" lon="12.282053465101187"><ele>1035.0</ele><time>2026-03-23T10:47:26Z</time></trkpt><trkpt lat="46.04009793905932" lon="12.281941642579698"><ele>1035.0</ele><time>2026-03-23T10:47:27Z</time></trkpt><trkpt lat="46.040006786154834" lon="12.281856954358657"><ele>1036.75</ele><time>2026-03-23T10:47:29Z</time></trkpt><trkpt lat="46.039853463786365" lon="12.281826780046735"><ele>1038.5</ele><time>2026-03-23T10:47:31Z</time></trkpt><trkpt lat="46.039755467726984" lon="12.281872426265661"><ele>1040.25</ele><time>2026-03-23T10:47:32Z</time></trkpt><trkpt lat="46.039656891393626" lon="12.281906995074607"><ele>1042.0</ele><time>2026-03-23T10:47:33Z</time></trkpt><trkpt lat="46.03953088121771" lon="12.281921179150013"><ele>1042.0</ele><time>2026-03-23T10:47:34Z</time></trkpt><trkpt lat="46.03939974453435" lon="12.281907522569263"><ele>1042.0</ele><time>2026-03-23T10:47:35Z</time></trkpt><trkpt lat="46.039264792919575" lon="12.281890616683166"><ele>1042.0</ele><time>2026-03-23T10:47:36Z</time></trkpt><trkpt lat="46.039128000449416" lon="12.281901776290992"><ele>1042.0</ele><time>2026-03-23T10:47:37Z</time></trkpt><trkpt lat="46.039012812993555" lon="12.28192078016639"><ele>1038.8</ele><time>2026-03-23T10:47:38Z</time></trkpt><trkpt lat="46.03892106644869" lon="12.281930956046184"><ele>1035.6</ele><time>2026-03-23T10:47:39Z</time></trkpt><trkpt lat="46.038836677569364" lon="12.281937864956848"><ele>1032.3999999999999</ele><time>2026-03-23T10:47:40Z</time></trkpt><trkpt lat="46.03873486236277" lon="12.281872918858417"><ele>1029.2</ele><time>2026-03-23T10:47:41Z</time></trkpt><trkpt lat="46.03860970652916" lon="12.281817007931172"><ele>1026.0</ele><time>2026-03-23T10:47:42Z</time></trkpt><trkpt lat="46.03849577738472" lon="12.281772935402962"><ele>1026.0</ele><time>2026-03-23T10:47:43Z</time></trkpt><trkpt lat="46.0383838864111" lon="12.281723882325345"><ele>1026.0</ele><time>2026-03-23T10:47:44Z</time></trkpt><trkpt lat="46.03827091445432" lon="12.28165757138076"><ele>1026.0</ele><time>2026-03-23T10:47:45Z</time></trkpt><trkpt lat="46.03816842764582" lon="12.281603655600515"><ele>1026.0</ele><time>2026-03-23T10:47:46Z</time></trkpt><trkpt lat="46.03808284190032" lon="12.281526795452567"><ele>1026.0</ele><time>2026-03-23T10:47:47Z</time></trkpt><trkpt lat="46.037993825191094" lon="12.281450879514743"><ele>1023.5</ele><time>2026-03-23T10:47:48Z</time></trkpt><trkpt lat="46.03791697453136" lon="12.281387323898972"><ele>1021.0</ele><time>2026-03-23T10:47:49Z</time></trkpt><trkpt lat="46.03785423112893" lon="12.281318506234639"><ele>1018.5</ele><time>2026-03-23T10:47:50Z</time></trkpt><trkpt lat="46.037797897676434" lon="12.281246497585038"><ele>1016.0</ele><time>2026-03-23T10:47:51Z</time></trkpt><trkpt lat="46.03774359592235" lon="12.28115213543005"><ele>1013.5</ele><time>2026-03-23T10:47:52Z</time></trkpt><trkpt lat="46.03770975597166" lon="12.28105407871359"><ele>1011.0</ele><time>2026-03-23T10:47:53Z</time></trkpt><trkpt lat="46.03768842247759" lon="12.28095183092958"><ele>1011.0</ele><time>2026-03-23T10:47:54Z</time></trkpt><trkpt lat="46.03767139752024" lon="12.28083432335852"><ele>1010.9999999999999</ele><time>2026-03-23T10:47:54.999Z</time></trkpt><trkpt lat="46.03767774655199" lon="12.280686621717413"><ele>1010.9999999999999</ele><time>2026-03-23T10:47:55.999Z</time></trkpt><trkpt lat="46.03767508031201" lon="12.280514390168918"><ele>1011.0</ele><time>2026-03-23T10:47:56.999Z</time></trkpt><trkpt lat="46.03769449292149" lon="12.280377943110727"><ele>1011.0</ele><time>2026-03-23T10:47:57.999Z</time></trkpt><trkpt lat="46.037703207005904" lon="12.280253648018135"><ele>1010.1999999999999</ele><time>2026-03-23T10:47:58.999Z</time></trkpt><trkpt lat="46.03769313298839" lon="12.280157399613033"><ele>1009.3999999999999</ele><time>2026-03-23T10:47:59.999Z</time></trkpt><trkpt lat="46.037593011527235" lon="12.280110107376977"><ele>1008.6</ele><time>2026-03-23T10:48:01.999Z</time></trkpt><trkpt lat="46.037493657663944" lon="12.280110524166991"><ele>1007.8</ele><time>2026-03-23T10:48:02.999Z</time></trkpt><trkpt lat="46.037375129851064" lon="12.280094315176372"><ele>1007.0</ele><time>2026-03-23T10:48:03.999Z</time></trkpt><trkpt lat="46.03724125298039" lon="12.280049895723991"><ele>1007.0</ele><time>2026-03-23T10:48:04.999Z</time></trkpt><trkpt lat="46.03711123569579" lon="12.280011959013477"><ele>1007.0</ele><time>2026-03-23T10:48:05.999Z</time></trkpt><trkpt lat="46.036976740132665" lon="12.279993530157348"><ele>1007.0</ele><time>2026-03-23T10:48:06.999Z</time></trkpt><trkpt lat="46.03684313015789" lon="12.279965131058681"><ele>1007.0</ele><time>2026-03-23T10:48:07.999Z</time></trkpt><trkpt lat="46.03670150661392" lon="12.279926381117962"><ele>1003.5</ele><time>2026-03-23T10:48:08.999Z</time></trkpt><trkpt lat="46.03655655259873" lon="12.27988596094387"><ele>1000.0</ele><time>2026-03-23T10:48:09.999Z</time></trkpt><trkpt lat="46.03642524384691" lon="12.27986551056868"><ele>996.5</ele><time>2026-03-23T10:48:10.999Z</time></trkpt><trkpt lat="46.03629781542316" lon="12.279867602610537"><ele>993.0</ele><time>2026-03-23T10:48:11.999Z</time></trkpt><trkpt lat="46.036187850837486" lon="12.279841162398128"><ele>993.0</ele><time>2026-03-23T10:48:12.999Z</time></trkpt><trkpt lat="46.036081423134895" lon="12.279817038914764"><ele>993.0</ele><time>2026-03-23T10:48:13.999Z</time></trkpt><trkpt lat="46.03597424071755" lon="12.279791989762257"><ele>993.0</ele><time>2026-03-23T10:48:14.999Z</time></trkpt><trkpt lat="46.035873887719035" lon="12.279747470454229"><ele>993.0</ele><time>2026-03-23T10:48:15.999Z</time></trkpt><trkpt lat="46.035770839560854" lon="12.279706144985877"><ele>993.0</ele><time>2026-03-23T10:48:16.999Z</time></trkpt><trkpt lat="46.03568763680019" lon="12.27965218872294"><ele>990.0</ele><time>2026-03-23T10:48:17.999Z</time></trkpt><trkpt lat="46.03561930335787" lon="12.279587140451438"><ele>987.0</ele><time>2026-03-23T10:48:18.999Z</time></trkpt><trkpt lat="46.035564072003964" lon="12.279510945248406"><ele>984.0</ele><time>2026-03-23T10:48:19.999Z</time></trkpt><trkpt lat="46.03552777534567" lon="12.279433804900417"><ele>981.0</ele><time>2026-03-23T10:48:20.999Z</time></trkpt><trkpt lat="46.03550769678578" lon="12.27926142543087"><ele>978.0</ele><time>2026-03-23T10:48:22.999Z</time></trkpt><trkpt lat="46.03551039978412" lon="12.279161885134423"><ele>975.0</ele><time>2026-03-23T10:48:23.999Z</time></trkpt><trkpt lat="46.03552175147226" lon="12.279039790791838"><ele>973.0</ele><time>2026-03-23T10:48:24.999Z</time></trkpt><trkpt lat="46.0355366190299" lon="12.278895813016568"><ele>971.0</ele><time>2026-03-23T10:48:25.999Z</time></trkpt><trkpt lat="46.0355433030153" lon="12.278762108872705"><ele>969.0</ele><time>2026-03-23T10:48:26.999Z</time></trkpt><trkpt lat="46.0355406961146" lon="12.27864369192703"><ele>967.0</ele><time>2026-03-23T10:48:27.999Z</time></trkpt><trkpt lat="46.03554234114888" lon="12.278547344979165"><ele>965.0</ele><time>2026-03-23T10:48:28.999Z</time></trkpt><trkpt lat="46.03555036162895" lon="12.278452066184704"><ele>963.0</ele><time>2026-03-23T10:48:29.999Z</time></trkpt><trkpt lat="46.035577037599396" lon="12.278364762700082"><ele>963.0</ele><time>2026-03-23T10:48:30.999Z</time></trkpt><trkpt lat="46.03560198930056" lon="12.278265659343592"><ele>963.0</ele><time>2026-03-23T10:48:31.999Z</time></trkpt><trkpt lat="46.035639789363536" lon="12.278160669697177"><ele>963.0</ele><time>2026-03-23T10:48:32.999Z</time></trkpt><trkpt lat="46.035687545949145" lon="12.27806294435562"><ele>963.0</ele><time>2026-03-23T10:48:33.999Z</time></trkpt><trkpt lat="46.03573791218369" lon="12.277973612469754"><ele>963.0</ele><time>2026-03-23T10:48:34.999Z</time></trkpt><trkpt lat="46.035775863609565" lon="12.27788997395638"><ele>963.0</ele><time>2026-03-23T10:48:35.999Z</time></trkpt><trkpt lat="46.03579828539722" lon="12.27779447133069"><ele>961.1666666666666</ele><time>2026-03-23T10:48:36.999Z</time></trkpt><trkpt lat="46.03580120885388" lon="12.277695057756013"><ele>959.3333333333333</ele><time>2026-03-23T10:48:37.999Z</time></trkpt><trkpt lat="46.0357942050376" lon="12.2775871453049"><ele>957.5</ele><time>2026-03-23T10:48:38.999Z</time></trkpt><trkpt lat="46.03578391803094" lon="12.27746462934029"><ele>955.6666666666666</ele><time>2026-03-23T10:48:39.999Z</time></trkpt><trkpt lat="46.035766546999845" lon="12.27732318943068"><ele>953.8333333333333</ele><time>2026-03-23T10:48:40.999Z</time></trkpt><trkpt lat="46.035754835669955" lon="12.27715821695418"><ele>952.0</ele><time>2026-03-23T10:48:42Z</time></trkpt><trkpt lat="46.03572116337677" lon="12.276976549277949"><ele>951.75</ele><time>2026-03-23T10:48:43Z</time></trkpt><trkpt lat="46.03570352238296" lon="12.276757845373503"><ele>951.5</ele><time>2026-03-23T10:48:44Z</time></trkpt><trkpt lat="46.03566937847292" lon="12.276556969229514"><ele>951.25</ele><time>2026-03-23T10:48:45Z</time></trkpt><trkpt lat="46.03562391849439" lon="12.27638403355564"><ele>951.0</ele><time>2026-03-23T10:48:46Z</time></trkpt><trkpt lat="46.03560126477545" lon="12.276213795601079"><ele>951.8</ele><time>2026-03-23T10:48:47Z</time></trkpt><trkpt lat="46.035590840692166" lon="12.276068455270586"><ele>952.5999999999999</ele><time>2026-03-23T10:48:48Z</time></trkpt><trkpt lat="46.03560423604079" lon="12.27590464681669"><ele>953.4</ele><time>2026-03-23T10:48:50Z</time></trkpt><trkpt lat="46.03565166681547" lon="12.275780772752055"><ele>954.2</ele><time>2026-03-23T10:48:51Z</time></trkpt><trkpt lat="46.035692465385715" lon="12.27564058778661"><ele>955.0</ele><time>2026-03-23T10:48:52Z</time></trkpt><trkpt lat="46.03571405244848" lon="12.27551913843257"><ele>955.8</ele><time>2026-03-23T10:48:53Z</time></trkpt><trkpt lat="46.03567679456693" lon="12.275398569259911"><ele>956.6</ele><time>2026-03-23T10:48:54Z</time></trkpt><trkpt lat="46.03562320372448" lon="12.275267433096412"><ele>957.4000000000001</ele><time>2026-03-23T10:48:55Z</time></trkpt><trkpt lat="46.03556110258062" lon="12.275134074855814"><ele>958.2</ele><time>2026-03-23T10:48:56Z</time></trkpt><trkpt lat="46.03553202227601" lon="12.275019299734508"><ele>959.0</ele><time>2026-03-23T10:48:57Z</time></trkpt><trkpt lat="46.03552071831467" lon="12.274875196782753"><ele>959.25</ele><time>2026-03-23T10:48:58Z</time></trkpt><trkpt lat="46.03553785827854" lon="12.27471904781501"><ele>959.5</ele><time>2026-03-23T10:48:59Z</time></trkpt><trkpt lat="46.03555126013191" lon="12.274529934337062"><ele>959.75</ele><time>2026-03-23T10:49:00Z</time></trkpt><trkpt lat="46.035569408521404" lon="12.274348158706832"><ele>960.0</ele><time>2026-03-23T10:49:01Z</time></trkpt><trkpt lat="46.035602869399206" lon="12.274161900565746"><ele>960.0</ele><time>2026-03-23T10:49:02Z</time></trkpt><trkpt lat="46.03562982551259" lon="12.273996741966332"><ele>960.0</ele><time>2026-03-23T10:49:03Z</time></trkpt><trkpt lat="46.035638464632406" lon="12.273866326708578"><ele>960.0</ele><time>2026-03-23T10:49:04Z</time></trkpt><trkpt lat="46.03563859620889" lon="12.273767776951777"><ele>960.0</ele><time>2026-03-23T10:49:05Z</time></trkpt><trkpt lat="46.03559819386767" lon="12.273650106136945"><ele>960.0</ele><time>2026-03-23T10:49:06Z</time></trkpt><trkpt lat="46.03553678602782" lon="12.273541941291757"><ele>962.0</ele><time>2026-03-23T10:49:07Z</time></trkpt><trkpt lat="46.03550958834433" lon="12.273458237742204"><ele>964.0</ele><time>2026-03-23T10:49:08Z</time></trkpt><trkpt lat="46.03552205370187" lon="12.273297274082738"><ele>966.0</ele><time>2026-03-23T10:49:09Z</time></trkpt><trkpt lat="46.035502931721105" lon="12.273132381576824"><ele>968.0</ele><time>2026-03-23T10:49:10Z</time></trkpt><trkpt lat="46.03548541792596" lon="12.272979197042991"><ele>970.0</ele><time>2026-03-23T10:49:11Z</time></trkpt><trkpt lat="46.035495489046184" lon="12.272830595329605"><ele>974.0</ele><time>2026-03-23T10:49:12Z</time></trkpt><trkpt lat="46.03548828881058" lon="12.272694415933918"><ele>978.0</ele><time>2026-03-23T10:49:13Z</time></trkpt><trkpt lat="46.03540183388715" lon="12.272573100213615"><ele>982.0</ele><time>2026-03-23T10:49:15Z</time></trkpt><trkpt lat="46.03529668222362" lon="12.272506072916217"><ele>986.0</ele><time>2026-03-23T10:49:16Z</time></trkpt><trkpt lat="46.0351730593421" lon="12.272430011380015"><ele>986.0</ele><time>2026-03-23T10:49:17Z</time></trkpt><trkpt lat="46.035024850363875" lon="12.272351537975862"><ele>986.0</ele><time>2026-03-23T10:49:18Z</time></trkpt><trkpt lat="46.03487749210283" lon="12.272294249815348"><ele>986.0</ele><time>2026-03-23T10:49:19Z</time></trkpt><trkpt lat="46.03475821464044" lon="12.272275986758588"><ele>986.0</ele><time>2026-03-23T10:49:20Z</time></trkpt><trkpt lat="46.03465221168385" lon="12.272280902563661"><ele>986.0000000000001</ele><time>2026-03-23T10:49:21Z</time></trkpt><trkpt lat="46.03456124811609" lon="12.272283068967715"><ele>986.0</ele><time>2026-03-23T10:49:22Z</time></trkpt><trkpt lat="46.03447968956" lon="12.272259497096579"><ele>986.0</ele><time>2026-03-23T10:49:23Z</time></trkpt><trkpt lat="46.03440129411464" lon="12.272195303297558"><ele>986.0</ele><time>2026-03-23T10:49:24Z</time></trkpt><trkpt lat="46.03434275000636" lon="12.272131362428778"><ele>986.0000000000001</ele><time>2026-03-23T10:49:25Z</time></trkpt><trkpt lat="46.03429924538925" lon="12.272051636128419"><ele>986.0</ele><time>2026-03-23T10:49:26Z</time></trkpt><trkpt lat="46.03425263629739" lon="12.27194200000758"><ele>986.0</ele><time>2026-03-23T10:49:27Z</time></trkpt><trkpt lat="46.03419948177967" lon="12.271793079937188"><ele>986.0</ele><time>2026-03-23T10:49:28Z</time></trkpt><trkpt lat="46.03413120995064" lon="12.271586804539306"><ele>986.0</ele><time>2026-03-23T10:49:29Z</time></trkpt><trkpt lat="46.03406668635972" lon="12.271446266964142"><ele>986.0</ele><time>2026-03-23T10:49:30Z</time></trkpt><trkpt lat="46.034019719629065" lon="12.271355273024774"><ele>980.5</ele><time>2026-03-23T10:49:31Z</time></trkpt><trkpt lat="46.03400553702491" lon="12.271246896462976"><ele>975.0</ele><time>2026-03-23T10:49:32Z</time></trkpt><trkpt lat="46.03399383037331" lon="12.271089089990863"><ele>969.5</ele><time>2026-03-23T10:49:33Z</time></trkpt><trkpt lat="46.03399806310187" lon="12.270883292534274"><ele>964.0</ele><time>2026-03-23T10:49:34Z</time></trkpt><trkpt lat="46.03399908252432" lon="12.270681494634548"><ele>969.4000000000001</ele><time>2026-03-23T10:49:35Z</time></trkpt><trkpt lat="46.03398459103541" lon="12.270506150754779"><ele>974.8000000000001</ele><time>2026-03-23T10:49:36Z</time></trkpt><trkpt lat="46.033970407280265" lon="12.270345737045789"><ele>980.1999999999999</ele><time>2026-03-23T10:49:37Z</time></trkpt><trkpt lat="46.03397442899092" lon="12.27019476986579"><ele>985.5999999999999</ele><time>2026-03-23T10:49:38Z</time></trkpt><trkpt lat="46.03396649341369" lon="12.270071359245257"><ele>991.0</ele><time>2026-03-23T10:49:39Z</time></trkpt><trkpt lat="46.03388881568934" lon="12.269984812568454"><ele>991.0</ele><time>2026-03-23T10:49:41Z</time></trkpt><trkpt lat="46.033829333865796" lon="12.270020861810178"><ele>990.9999999999999</ele><time>2026-03-23T10:49:42Z</time></trkpt><trkpt lat="46.03375011494254" lon="12.27009589608296"><ele>990.9999999999999</ele><time>2026-03-23T10:49:43Z</time></trkpt><trkpt lat="46.03364116619243" lon="12.270184135919576"><ele>991.0</ele><time>2026-03-23T10:49:44Z</time></trkpt><trkpt lat="46.03351941693657" lon="12.270225662841067"><ele>991.0</ele><time>2026-03-23T10:49:45Z</time></trkpt><trkpt lat="46.03338162604159" lon="12.270259271389714"><ele>984.4</ele><time>2026-03-23T10:49:46Z</time></trkpt><trkpt lat="46.033261776300705" lon="12.270289111617517"><ele>977.8</ele><time>2026-03-23T10:49:47Z</time></trkpt><trkpt lat="46.03319039716239" lon="12.270318749212885"><ele>971.1999999999999</ele><time>2026-03-23T10:49:48Z</time></trkpt><trkpt lat="46.03311534429307" lon="12.27030118602963"><ele>964.5999999999999</ele><time>2026-03-23T10:49:50Z</time></trkpt><trkpt lat="46.033057101585705" lon="12.270175746340023"><ele>958.0</ele><time>2026-03-23T10:49:52Z</time></trkpt><trkpt lat="46.03302382918647" lon="12.270052130018877"><ele>958.0</ele><time>2026-03-23T10:49:53Z</time></trkpt><trkpt lat="46.03296962160887" lon="12.269894480899287"><ele>958.0</ele><time>2026-03-23T10:49:54Z</time></trkpt><trkpt lat="46.03292239998309" lon="12.269729018565048"><ele>958.0</ele><time>2026-03-23T10:49:55Z</time></trkpt><trkpt lat="46.032884462419645" lon="12.269527815050456"><ele>958.0</ele><time>2026-03-23T10:49:56Z</time></trkpt><trkpt lat="46.0328424200478" lon="12.269338154109626"><ele>963.0</ele><time>2026-03-23T10:49:57Z</time></trkpt><trkpt lat="46.03279638133729" lon="12.2691782689618"><ele>968.0</ele><time>2026-03-23T10:49:57.999Z</time></trkpt><trkpt lat="46.03272601620865" lon="12.269029209252274"><ele>973.0</ele><time>2026-03-23T10:49:58.999Z</time></trkpt><trkpt lat="46.032644409316475" lon="12.26888994450979"><ele>978.0</ele><time>2026-03-23T10:49:59.999Z</time></trkpt><trkpt lat="46.03257119154048" lon="12.268758635186911"><ele>982.25</ele><time>2026-03-23T10:50:00.999Z</time></trkpt><trkpt lat="46.0325117417484" lon="12.268631340701369"><ele>986.5</ele><time>2026-03-23T10:50:01.999Z</time></trkpt><trkpt lat="46.032462341341294" lon="12.26848799969269"><ele>990.75</ele><time>2026-03-23T10:50:02.999Z</time></trkpt><trkpt lat="46.032420975548554" lon="12.268312978432519"><ele>995.0</ele><time>2026-03-23T10:50:03.999Z</time></trkpt><trkpt lat="46.032380556275015" lon="12.268124339978167"><ele>987.25</ele><time>2026-03-23T10:50:04.999Z</time></trkpt><trkpt lat="46.032320553010635" lon="12.267959294904225"><ele>979.5</ele><time>2026-03-23T10:50:05.999Z</time></trkpt><trkpt lat="46.0322479245241" lon="12.267820817344147"><ele>971.75</ele><time>2026-03-23T10:50:06.999Z</time></trkpt><trkpt lat="46.03216631416801" lon="12.267711304705061"><ele>964.0</ele><time>2026-03-23T10:50:07.999Z</time></trkpt><trkpt lat="46.0321110753692" lon="12.26760831032237"><ele>964.0</ele><time>2026-03-23T10:50:08.999Z</time></trkpt><trkpt lat="46.032075427415094" lon="12.267525129089915"><ele>964.0</ele><time>2026-03-23T10:50:09.999Z</time></trkpt><trkpt lat="46.032050162000424" lon="12.267396676576702"><ele>964.0</ele><time>2026-03-23T10:50:10.999Z</time></trkpt><trkpt lat="46.03201393651249" lon="12.267187970132662"><ele>964.0</ele><time>2026-03-23T10:50:11.999Z</time></trkpt><trkpt lat="46.03196303421895" lon="12.26698043005982"><ele>967.2</ele><time>2026-03-23T10:50:12.999Z</time></trkpt><trkpt lat="46.03192859510892" lon="12.26682014922928"><ele>970.4000000000001</ele><time>2026-03-23T10:50:13.999Z</time></trkpt><trkpt lat="46.031904481141424" lon="12.266680878439509"><ele>973.6</ele><time>2026-03-23T10:50:14.999Z</time></trkpt><trkpt lat="46.03188495929883" lon="12.26657531324363"><ele>976.8</ele><time>2026-03-23T10:50:15.999Z</time></trkpt><trkpt lat="46.031812077749336" lon="12.266484404179513"><ele>980.0</ele><time>2026-03-23T10:50:17.999Z</time></trkpt><trkpt lat="46.03172879905467" lon="12.266485763865719"><ele>980.0</ele><time>2026-03-23T10:50:18.999Z</time></trkpt><trkpt lat="46.03165488678956" lon="12.266460871118722"><ele>980.0</ele><time>2026-03-23T10:50:19.999Z</time></trkpt><trkpt lat="46.03159642413299" lon="12.266409290440222"><ele>980.0</ele><time>2026-03-23T10:50:20.999Z</time></trkpt><trkpt lat="46.03153958493221" lon="12.266302648930221"><ele>980.0</ele><time>2026-03-23T10:50:21.999Z</time></trkpt><trkpt lat="46.03148356804257" lon="12.266145119460507"><ele>980.0</ele><time>2026-03-23T10:50:22.999Z</time></trkpt><trkpt lat="46.03142555494427" lon="12.265986418814295"><ele>981.6</ele><time>2026-03-23T10:50:23.999Z</time></trkpt><trkpt lat="46.03136293295222" lon="12.265868722881267"><ele>983.2</ele><time>2026-03-23T10:50:24.999Z</time></trkpt><trkpt lat="46.03129613339001" lon="12.265769585866456"><ele>984.8</ele><time>2026-03-23T10:50:25.999Z</time></trkpt><trkpt lat="46.03120417265166" lon="12.265692521153948"><ele>986.4</ele><time>2026-03-23T10:50:26.999Z</time></trkpt><trkpt lat="46.03109246337472" lon="12.265599929272955"><ele>988.0</ele><time>2026-03-23T10:50:27.999Z</time></trkpt><trkpt lat="46.0309963325449" lon="12.265517936461077"><ele>988.0</ele><time>2026-03-23T10:50:28.999Z</time></trkpt><trkpt lat="46.03091639883363" lon="12.265440238898986"><ele>988.0</ele><time>2026-03-23T10:50:29.999Z</time></trkpt><trkpt lat="46.03085475469384" lon="12.265352750713589"><ele>988.0</ele><time>2026-03-23T10:50:30.999Z</time></trkpt><trkpt lat="46.03079350016045" lon="12.265228325636008"><ele>988.0</ele><time>2026-03-23T10:50:31.999Z</time></trkpt><trkpt lat="46.030716849410354" lon="12.265077330721029"><ele>988.0</ele><time>2026-03-23T10:50:32.999Z</time></trkpt><trkpt lat="46.03065510108405" lon="12.264955098875644"><ele>988.2</ele><time>2026-03-23T10:50:33.999Z</time></trkpt><trkpt lat="46.030615189294835" lon="12.264824192474249"><ele>988.4</ele><time>2026-03-23T10:50:34.999Z</time></trkpt><trkpt lat="46.03056764068145" lon="12.264695670341435"><ele>988.6000000000001</ele><time>2026-03-23T10:50:35.999Z</time></trkpt><trkpt lat="46.03049046814855" lon="12.26462861184972"><ele>988.8000000000001</ele><time>2026-03-23T10:50:37.999Z</time></trkpt><trkpt lat="46.03037385504772" lon="12.264720674258328"><ele>989.0</ele><time>2026-03-23T10:50:39.999Z</time></trkpt><trkpt lat="46.03031754379173" lon="12.264833761730772"><ele>989.0</ele><time>2026-03-23T10:50:40.999Z</time></trkpt><trkpt lat="46.03023797957361" lon="12.264973535755587"><ele>989.0</ele><time>2026-03-23T10:50:41.999Z</time></trkpt><trkpt lat="46.03014033126575" lon="12.265098483867229"><ele>989.0</ele><time>2026-03-23T10:50:42.999Z</time></trkpt><trkpt lat="46.03007778885324" lon="12.265182512525007"><ele>989.0</ele><time>2026-03-23T10:50:43.999Z</time></trkpt><trkpt lat="46.03000974214682" lon="12.265308866383515"><ele>992.6</ele><time>2026-03-23T10:50:44.999Z</time></trkpt><trkpt lat="46.02994652439792" lon="12.265452274081497"><ele>996.2</ele><time>2026-03-23T10:50:45.999Z</time></trkpt><trkpt lat="46.02987137684825" lon="12.265572642151449"><ele>999.8000000000001</ele><time>2026-03-23T10:50:46.999Z</time></trkpt><trkpt lat="46.02980550674881" lon="12.26567216900148"><ele>1003.4000000000001</ele><time>2026-03-23T10:50:48Z</time></trkpt><trkpt lat="46.02973941634462" lon="12.265789296653079"><ele>1007.0</ele><time>2026-03-23T10:50:49Z</time></trkpt><trkpt lat="46.02968453828034" lon="12.265895894250963"><ele>1007.0000000000001</ele><time>2026-03-23T10:50:50Z</time></trkpt><trkpt lat="46.029630689693356" lon="12.266019554255752"><ele>1007.0</ele><time>2026-03-23T10:50:51Z</time></trkpt><trkpt lat="46.02958434947606" lon="12.26611583999595"><ele>1007.0</ele><time>2026-03-23T10:50:52Z</time></trkpt><trkpt lat="46.02954044025625" lon="12.266223631312224"><ele>1007.0</ele><time>2026-03-23T10:50:53Z</time></trkpt><trkpt lat="46.02950456482303" lon="12.26631858055688"><ele>1007.0000000000001</ele><time>2026-03-23T10:50:54Z</time></trkpt><trkpt lat="46.02946769968131" lon="12.266440099850586"><ele>1007.0</ele><time>2026-03-23T10:50:55Z</time></trkpt><trkpt lat="46.02943100276417" lon="12.266541477625681"><ele>1000.1666666666667</ele><time>2026-03-23T10:50:56Z</time></trkpt><trkpt lat="46.029394320660344" lon="12.266645529514108"><ele>993.3333333333334</ele><time>2026-03-23T10:50:57Z</time></trkpt><trkpt lat="46.029359199557135" lon="12.266758695312214"><ele>986.5</ele><time>2026-03-23T10:50:58Z</time></trkpt><trkpt lat="46.02932198876064" lon="12.26686141440566"><ele>979.6666666666667</ele><time>2026-03-23T10:50:59Z</time></trkpt><trkpt lat="46.029284417636596" lon="12.266959011489162"><ele>972.8333333333334</ele><time>2026-03-23T10:51:00Z</time></trkpt><trkpt lat="46.02924202590943" lon="12.267035340066698"><ele>966.0</ele><time>2026-03-23T10:51:01Z</time></trkpt><trkpt lat="46.0292028887073" lon="12.267107254729002"><ele>966.0</ele><time>2026-03-23T10:51:02Z</time></trkpt><trkpt lat="46.02914518780376" lon="12.267168438008666"><ele>965.9999999999999</ele><time>2026-03-23T10:51:03Z</time></trkpt><trkpt lat="46.029059190681096" lon="12.267231917287749"><ele>965.9999999999999</ele><time>2026-03-23T10:51:04Z</time></trkpt><trkpt lat="46.028972157865894" lon="12.267299724969003"><ele>966.0</ele><time>2026-03-23T10:51:05Z</time></trkpt><trkpt lat="46.02887104784591" lon="12.26737869150328"><ele>966.0</ele><time>2026-03-23T10:51:06Z</time></trkpt><trkpt lat="46.02878136880852" lon="12.26747486779298"><ele>964.0</ele><time>2026-03-23T10:51:07Z</time></trkpt><trkpt lat="46.02868823718522" lon="12.267574641228503"><ele>961.9999999999999</ele><time>2026-03-23T10:51:08Z</time></trkpt><trkpt lat="46.02859795577341" lon="12.267655688614921"><ele>959.9999999999999</ele><time>2026-03-23T10:51:09Z</time></trkpt><trkpt lat="46.028519389462915" lon="12.26770715300106"><ele>958.0</ele><time>2026-03-23T10:51:10Z</time></trkpt><trkpt lat="46.02844598613593" lon="12.267734050712173"><ele>956.0</ele><time>2026-03-23T10:51:11Z</time></trkpt><trkpt lat="46.02834991794314" lon="12.267764276098054"><ele>953.25</ele><time>2026-03-23T10:51:12Z</time></trkpt><trkpt lat="46.02822851587451" lon="12.267798493563381"><ele>950.5</ele><time>2026-03-23T10:51:13Z</time></trkpt><trkpt lat="46.02811269648458" lon="12.267832372856924"><ele>947.75</ele><time>2026-03-23T10:51:14Z</time></trkpt><trkpt lat="46.027996267486174" lon="12.267832992766428"><ele>945.0</ele><time>2026-03-23T10:51:15Z</time></trkpt><trkpt lat="46.02787246154192" lon="12.267820369478276"><ele>945.0</ele><time>2026-03-23T10:51:16Z</time></trkpt><trkpt lat="46.02775558258182" lon="12.267804278007395"><ele>945.0</ele><time>2026-03-23T10:51:17Z</time></trkpt><trkpt lat="46.02763887973927" lon="12.267779792594629"><ele>945.0</ele><time>2026-03-23T10:51:18Z</time></trkpt><trkpt lat="46.02752592997389" lon="12.267785172429273"><ele>945.0</ele><time>2026-03-23T10:51:19Z</time></trkpt><trkpt lat="46.02741465518681" lon="12.26779560633019"><ele>945.6</ele><time>2026-03-23T10:51:20Z</time></trkpt><trkpt lat="46.02731922653327" lon="12.267806509506581"><ele>946.2</ele><time>2026-03-23T10:51:21Z</time></trkpt><trkpt lat="46.0272168446061" lon="12.267791701660222"><ele>946.8</ele><time>2026-03-23T10:51:22Z</time></trkpt><trkpt lat="46.027101131776874" lon="12.267767707878491"><ele>947.4</ele><time>2026-03-23T10:51:23Z</time></trkpt><trkpt lat="46.02699282736645" lon="12.267720964751712"><ele>948.0</ele><time>2026-03-23T10:51:24Z</time></trkpt><trkpt lat="46.026899236594915" lon="12.26769412642141"><ele>948.0</ele><time>2026-03-23T10:51:25Z</time></trkpt><trkpt lat="46.026815764870356" lon="12.267683917528865"><ele>948.0</ele><time>2026-03-23T10:51:26Z</time></trkpt><trkpt lat="46.02672491495302" lon="12.267746992456335"><ele>948.0</ele><time>2026-03-23T10:51:27Z</time></trkpt><trkpt lat="46.02664518603493" lon="12.26783679872596"><ele>948.0</ele><time>2026-03-23T10:51:28Z</time></trkpt><trkpt lat="46.026566806482634" lon="12.26792581034999"><ele>948.0</ele><time>2026-03-23T10:51:29Z</time></trkpt><trkpt lat="46.02647452084529" lon="12.26803403556527"><ele>942.75</ele><time>2026-03-23T10:51:30Z</time></trkpt><trkpt lat="46.026395914210646" lon="12.26811336780097"><ele>937.5</ele><time>2026-03-23T10:51:31Z</time></trkpt><trkpt lat="46.026299145385494" lon="12.268175280689867"><ele>932.25</ele><time>2026-03-23T10:51:32Z</time></trkpt><trkpt lat="46.02619612991225" lon="12.268235225943405"><ele>927.0</ele><time>2026-03-23T10:51:33Z</time></trkpt><trkpt lat="46.026065463919394" lon="12.268326920216325"><ele>927.0</ele><time>2026-03-23T10:51:34Z</time></trkpt><trkpt lat="46.025959647449284" lon="12.26841288879358"><ele>927.0</ele><time>2026-03-23T10:51:35Z</time></trkpt><trkpt lat="46.02586704608584" lon="12.268491972138987"><ele>927.0</ele><time>2026-03-23T10:51:36Z</time></trkpt><trkpt lat="46.02577317891726" lon="12.268590230140205"><ele>927.0</ele><time>2026-03-23T10:51:37Z</time></trkpt><trkpt lat="46.02567672768042" lon="12.26871727950702"><ele>922.25</ele><time>2026-03-23T10:51:38Z</time></trkpt><trkpt lat="46.0255862542312" lon="12.268822943600831"><ele>917.5</ele><time>2026-03-23T10:51:39Z</time></trkpt><trkpt lat="46.02548450719735" lon="12.268923683286292"><ele>912.75</ele><time>2026-03-23T10:51:40Z</time></trkpt><trkpt lat="46.02538707641041" lon="12.269018419352829"><ele>908.0</ele><time>2026-03-23T10:51:41Z</time></trkpt><trkpt lat="46.02530477826448" lon="12.269098424824499"><ele>906.2</ele><time>2026-03-23T10:51:42Z</time></trkpt><trkpt lat="46.02523655927952" lon="12.26918671091049"><ele>904.4</ele><time>2026-03-23T10:51:43Z</time></trkpt><trkpt lat="46.025172901405725" lon="12.269301961723826"><ele>902.6000000000001</ele><time>2026-03-23T10:51:44Z</time></trkpt><trkpt lat="46.025118028608986" lon="12.269423389738368"><ele>900.8000000000001</ele><time>2026-03-23T10:51:45Z</time></trkpt><trkpt lat="46.02507201928871" lon="12.26953180710603"><ele>899.0</ele><time>2026-03-23T10:51:46Z</time></trkpt><trkpt lat="46.025002284264104" lon="12.269642772821436"><ele>895.8000000000001</ele><time>2026-03-23T10:51:48Z</time></trkpt><trkpt lat="46.02489803462372" lon="12.26969589739582"><ele>892.6000000000001</ele><time>2026-03-23T10:51:50Z</time></trkpt><trkpt lat="46.024808250755555" lon="12.269747159826641"><ele>889.4</ele><time>2026-03-23T10:51:52Z</time></trkpt><trkpt lat="46.024853404877646" lon="12.269881104039722"><ele>886.2</ele><time>2026-03-23T10:51:54Z</time></trkpt><trkpt lat="46.02496181952921" lon="12.269895332876487"><ele>883.0</ele><time>2026-03-23T10:51:56Z</time></trkpt><trkpt lat="46.02506515440196" lon="12.269823070355264"><ele>886.2</ele><time>2026-03-23T10:51:58Z</time></trkpt><trkpt lat="46.025146426145014" lon="12.269737188885513"><ele>889.4</ele><time>2026-03-23T10:52:00Z</time></trkpt><trkpt lat="46.0252312756049" lon="12.269703056031968"><ele>892.6000000000001</ele><time>2026-03-23T10:52:01.999Z</time></trkpt><trkpt lat="46.02530331677736" lon="12.269659714587624"><ele>895.8000000000001</ele><time>2026-03-23T10:52:02.999Z</time></trkpt><trkpt lat="46.02538100111625" lon="12.269568160540825"><ele>899.0</ele><time>2026-03-23T10:52:03.999Z</time></trkpt><trkpt lat="46.025482078350606" lon="12.269472120782373"><ele>899.0</ele><time>2026-03-23T10:52:04.999Z</time></trkpt><trkpt lat="46.02560234330166" lon="12.269379717579834"><ele>899.0</ele><time>2026-03-23T10:52:05.999Z</time></trkpt><trkpt lat="46.025720179322796" lon="12.269295226113682"><ele>899.0</ele><time>2026-03-23T10:52:06.999Z</time></trkpt><trkpt lat="46.02583282267589" lon="12.269217812450023"><ele>899.0</ele><time>2026-03-23T10:52:07.999Z</time></trkpt><trkpt lat="46.02594294906076" lon="12.269142036569152"><ele>898.25</ele><time>2026-03-23T10:52:08.999Z</time></trkpt><trkpt lat="46.026055497542714" lon="12.26907945776462"><ele>897.5</ele><time>2026-03-23T10:52:09.999Z</time></trkpt><trkpt lat="46.026167323219724" lon="12.2690158558647"><ele>896.75</ele><time>2026-03-23T10:52:10.999Z</time></trkpt><trkpt lat="46.02627864170649" lon="12.268961194947066"><ele>896.0</ele><time>2026-03-23T10:52:11.999Z</time></trkpt><trkpt lat="46.026390038297414" lon="12.268914442137449"><ele>899.25</ele><time>2026-03-23T10:52:12.999Z</time></trkpt><trkpt lat="46.0265016522911" lon="12.268870182291138"><ele>902.5</ele><time>2026-03-23T10:52:13.999Z</time></trkpt><trkpt lat="46.02661229946573" lon="12.268838439407261"><ele>905.75</ele><time>2026-03-23T10:52:14.999Z</time></trkpt><trkpt lat="46.02672236475781" lon="12.268810568867675"><ele>909.0</ele><time>2026-03-23T10:52:15.999Z</time></trkpt><trkpt lat="46.026832126549536" lon="12.26878346564817"><ele>909.0</ele><time>2026-03-23T10:52:16.999Z</time></trkpt><trkpt lat="46.0269389537759" lon="12.268771013785194"><ele>909.0000000000001</ele><time>2026-03-23T10:52:17.999Z</time></trkpt><trkpt lat="46.027044864975935" lon="12.268791428169004"><ele>909.0000000000001</ele><time>2026-03-23T10:52:18.999Z</time></trkpt><trkpt lat="46.027148256601315" lon="12.268831303691705"><ele>909.0</ele><time>2026-03-23T10:52:19.999Z</time></trkpt><trkpt lat="46.02725098157256" lon="12.268856490840033"><ele>909.0</ele><time>2026-03-23T10:52:20.999Z</time></trkpt><trkpt lat="46.027354056647795" lon="12.268862177965486"><ele>909.0</ele><time>2026-03-23T10:52:21.999Z</time></trkpt><trkpt lat="46.027430633759806" lon="12.268874402117655"><ele>909.0000000000001</ele><time>2026-03-23T10:52:22.999Z</time></trkpt><trkpt lat="46.027490959144764" lon="12.268907635793354"><ele>909.0000000000001</ele><time>2026-03-23T10:52:23.999Z</time></trkpt><trkpt lat="46.027550856242144" lon="12.26901509636234"><ele>909.0</ele><time>2026-03-23T10:52:25.999Z</time></trkpt><trkpt lat="46.027455734780396" lon="12.269129788880571"><ele>909.0</ele><time>2026-03-23T10:52:27.999Z</time></trkpt><trkpt lat="46.02732652237527" lon="12.269134677598037"><ele>898.75</ele><time>2026-03-23T10:52:28.999Z</time></trkpt><trkpt lat="46.027178645297866" lon="12.269136499888393"><ele>888.5</ele><time>2026-03-23T10:52:29.999Z</time></trkpt><trkpt lat="46.027043828363915" lon="12.269128535501734"><ele>878.25</ele><time>2026-03-23T10:52:30.999Z</time></trkpt><trkpt lat="46.02691685021031" lon="12.26914220250927"><ele>868.0</ele><time>2026-03-23T10:52:31.999Z</time></trkpt><trkpt lat="46.02679998459141" lon="12.269158004019763"><ele>868.0</ele><time>2026-03-23T10:52:32.999Z</time></trkpt><trkpt lat="46.02669507416226" lon="12.269194857702125"><ele>868.0</ele><time>2026-03-23T10:52:33.999Z</time></trkpt><trkpt lat="46.02659600083792" lon="12.269270184478128"><ele>868.0</ele><time>2026-03-23T10:52:34.999Z</time></trkpt><trkpt lat="46.026486160625424" lon="12.269376302809212"><ele>868.0</ele><time>2026-03-23T10:52:35.999Z</time></trkpt><trkpt lat="46.02637403895905" lon="12.26949639440673"><ele>866.5</ele><time>2026-03-23T10:52:36.999Z</time></trkpt><trkpt lat="46.02626999850356" lon="12.269608760530295"><ele>865.0</ele><time>2026-03-23T10:52:37.999Z</time></trkpt><trkpt lat="46.026169400343036" lon="12.269722240870488"><ele>863.5</ele><time>2026-03-23T10:52:38.999Z</time></trkpt><trkpt lat="46.02607396247181" lon="12.269840735756286"><ele>862.0</ele><time>2026-03-23T10:52:39.999Z</time></trkpt><trkpt lat="46.02598142916676" lon="12.26996265086694"><ele>862.0</ele><time>2026-03-23T10:52:40.999Z</time></trkpt><trkpt lat="46.0258933358565" lon="12.27008910639336"><ele>862.0</ele><time>2026-03-23T10:52:41.999Z</time></trkpt><trkpt lat="46.02581074756785" lon="12.27022252583026"><ele>862.0</ele><time>2026-03-23T10:52:42.999Z</time></trkpt><trkpt lat="46.0257371276467" lon="12.270363233705245"><ele>862.0</ele><time>2026-03-23T10:52:43.999Z</time></trkpt><trkpt lat="46.0256693460536" lon="12.270508983369831"><ele>861.5</ele><time>2026-03-23T10:52:44.999Z</time></trkpt><trkpt lat="46.02560903465461" lon="12.27065645036409"><ele>861.0</ele><time>2026-03-23T10:52:45.999Z</time></trkpt><trkpt lat="46.025552129064145" lon="12.270803587592935"><ele>860.5</ele><time>2026-03-23T10:52:46.999Z</time></trkpt><trkpt lat="46.02550349346675" lon="12.270951086596027"><ele>860.0</ele><time>2026-03-23T10:52:47.999Z</time></trkpt><trkpt lat="46.02544803547459" lon="12.271096161080136"><ele>860.0</ele><time>2026-03-23T10:52:48.999Z</time></trkpt><trkpt lat="46.025394403196906" lon="12.271237087191613"><ele>860.0</ele><time>2026-03-23T10:52:49.999Z</time></trkpt><trkpt lat="46.02534098726017" lon="12.271381930746866"><ele>860.0</ele><time>2026-03-23T10:52:50.999Z</time></trkpt><trkpt lat="46.025281926905144" lon="12.271515943093153"><ele>860.0</ele><time>2026-03-23T10:52:51.999Z</time></trkpt><trkpt lat="46.025213023712965" lon="12.271641035267193"><ele>860.0</ele><time>2026-03-23T10:52:52.999Z</time></trkpt><trkpt lat="46.02514110695784" lon="12.271756088682382"><ele>853.6</ele><time>2026-03-23T10:52:54Z</time></trkpt><trkpt lat="46.025063319133935" lon="12.27186611162859"><ele>847.2</ele><time>2026-03-23T10:52:55Z</time></trkpt><trkpt lat="46.02498566021143" lon="12.27196508578215"><ele>840.8</ele><time>2026-03-23T10:52:56Z</time></trkpt><trkpt lat="46.024907088368764" lon="12.272061793651222"><ele>834.4</ele><time>2026-03-23T10:52:57Z</time></trkpt><trkpt lat="46.024831726491676" lon="12.272161752713101"><ele>828.0</ele><time>2026-03-23T10:52:58Z</time></trkpt><trkpt lat="46.02474995984424" lon="12.272253076442041"><ele>823.1666666666666</ele><time>2026-03-23T10:52:59Z</time></trkpt><trkpt lat="46.02466317198998" lon="12.272326065926585"><ele>818.3333333333333</ele><time>2026-03-23T10:53:00Z</time></trkpt><trkpt lat="46.02457538668878" lon="12.27237945296903"><ele>813.5</ele><time>2026-03-23T10:53:01Z</time></trkpt><trkpt lat="46.024503116032356" lon="12.272435169993415"><ele>808.6666666666666</ele><time>2026-03-23T10:53:02Z</time></trkpt><trkpt lat="46.024460044599664" lon="12.272505903894722"><ele>803.8333333333333</ele><time>2026-03-23T10:53:03Z</time></trkpt><trkpt lat="46.02447318127222" lon="12.27264147108252"><ele>799.0</ele><time>2026-03-23T10:53:05Z</time></trkpt><trkpt lat="46.02456980560597" lon="12.27266803125451"><ele>799.0</ele><time>2026-03-23T10:53:07Z</time></trkpt><trkpt lat="46.02464150442292" lon="12.27259949171544"><ele>799.0</ele><time>2026-03-23T10:53:08Z</time></trkpt><trkpt lat="46.024719025795136" lon="12.27249634736867"><ele>799.0</ele><time>2026-03-23T10:53:09Z</time></trkpt><trkpt lat="46.02482840400633" lon="12.272373142115319"><ele>799.0</ele><time>2026-03-23T10:53:10Z</time></trkpt><trkpt lat="46.02493548952131" lon="12.272265798679301"><ele>806.25</ele><time>2026-03-23T10:53:11Z</time></trkpt><trkpt lat="46.025048277971" lon="12.272159535410594"><ele>813.5</ele><time>2026-03-23T10:53:12Z</time></trkpt><trkpt lat="46.02516520762238" lon="12.27204538196229"><ele>820.75</ele><time>2026-03-23T10:53:13Z</time></trkpt><trkpt lat="46.02528180862556" lon="12.271921442999497"><ele>828.0</ele><time>2026-03-23T10:53:14Z</time></trkpt><trkpt lat="46.02538396757534" lon="12.271798710805253"><ele>828.0</ele><time>2026-03-23T10:53:15Z</time></trkpt><trkpt lat="46.02547358363604" lon="12.271671042212693"><ele>828.0</ele><time>2026-03-23T10:53:16Z</time></trkpt><trkpt lat="46.02555998932856" lon="12.271545120131584"><ele>828.0</ele><time>2026-03-23T10:53:17Z</time></trkpt><trkpt lat="46.0256419983312" lon="12.271425939199581"><ele>828.0</ele><time>2026-03-23T10:53:18Z</time></trkpt><trkpt lat="46.0257255396645" lon="12.27130746093082"><ele>828.0</ele><time>2026-03-23T10:53:19Z</time></trkpt><trkpt lat="46.02580951874509" lon="12.271192431250373"><ele>828.0</ele><time>2026-03-23T10:53:20Z</time></trkpt><trkpt lat="46.025895345517505" lon="12.271076805842556"><ele>828.0</ele><time>2026-03-23T10:53:21Z</time></trkpt><trkpt lat="46.025982450532254" lon="12.270968651998482"><ele>828.0</ele><time>2026-03-23T10:53:22Z</time></trkpt><trkpt lat="46.02607060387695" lon="12.270869128700983"><ele>828.0</ele><time>2026-03-23T10:53:23Z</time></trkpt><trkpt lat="46.02616345816682" lon="12.270779031426043"><ele>828.0</ele><time>2026-03-23T10:53:24Z</time></trkpt><trkpt lat="46.02626239033349" lon="12.270701807556604"><ele>828.0</ele><time>2026-03-23T10:53:25Z</time></trkpt><trkpt lat="46.026367596293944" lon="12.270637365404651"><ele>828.0</ele><time>2026-03-23T10:53:26Z</time></trkpt><trkpt lat="46.026476275224475" lon="12.270584245811815"><ele>828.75</ele><time>2026-03-23T10:53:27Z</time></trkpt><trkpt lat="46.026584436758974" lon="12.270530032393555"><ele>829.5</ele><time>2026-03-23T10:53:28Z</time></trkpt><trkpt lat="46.026695372390506" lon="12.270482255417965"><ele>830.25</ele><time>2026-03-23T10:53:29Z</time></trkpt><trkpt lat="46.0268027079119" lon="12.27044451768604"><ele>831.0</ele><time>2026-03-23T10:53:30Z</time></trkpt><trkpt lat="46.02691269660597" lon="12.270428234102376"><ele>831.0</ele><time>2026-03-23T10:53:31Z</time></trkpt><trkpt lat="46.027019133758714" lon="12.270429491529748"><ele>831.0</ele><time>2026-03-23T10:53:32Z</time></trkpt><trkpt lat="46.02712366025146" lon="12.270445943228651"><ele>831.0</ele><time>2026-03-23T10:53:33Z</time></trkpt><trkpt lat="46.02723919460438" lon="12.270477324215554"><ele>831.0</ele><time>2026-03-23T10:53:34Z</time></trkpt><trkpt lat="46.02735653311699" lon="12.270524609871043"><ele>828.25</ele><time>2026-03-23T10:53:35Z</time></trkpt><trkpt lat="46.02747732889171" lon="12.2705799228602"><ele>825.5</ele><time>2026-03-23T10:53:36Z</time></trkpt><trkpt lat="46.02760390993658" lon="12.270638480944006"><ele>822.75</ele><time>2026-03-23T10:53:37Z</time></trkpt><trkpt lat="46.02772765887442" lon="12.27069973982411"><ele>820.0</ele><time>2026-03-23T10:53:38Z</time></trkpt><trkpt lat="46.02784862592348" lon="12.270758961280027"><ele>811.25</ele><time>2026-03-23T10:53:39Z</time></trkpt><trkpt lat="46.02796565038588" lon="12.270815758342275"><ele>802.5</ele><time>2026-03-23T10:53:40Z</time></trkpt><trkpt lat="46.02807986955298" lon="12.270875534235811"><ele>793.75</ele><time>2026-03-23T10:53:41Z</time></trkpt><trkpt lat="46.02818958210328" lon="12.270933910331953"><ele>785.0</ele><time>2026-03-23T10:53:42Z</time></trkpt><trkpt lat="46.02829559210719" lon="12.271006067907392"><ele>786.6</ele><time>2026-03-23T10:53:43Z</time></trkpt><trkpt lat="46.02839998175234" lon="12.271082493683368"><ele>788.2</ele><time>2026-03-23T10:53:44Z</time></trkpt><trkpt lat="46.02849761503947" lon="12.271165726162858"><ele>789.8</ele><time>2026-03-23T10:53:45Z</time></trkpt><trkpt lat="46.0285938414597" lon="12.271231699643732"><ele>791.4</ele><time>2026-03-23T10:53:46Z</time></trkpt><trkpt lat="46.028681869445506" lon="12.271269956250416"><ele>793.0</ele><time>2026-03-23T10:53:47Z</time></trkpt><trkpt lat="46.028772405675326" lon="12.271271346914808"><ele>793.0</ele><time>2026-03-23T10:53:48Z</time></trkpt><trkpt lat="46.028871621770385" lon="12.271244366358022"><ele>793.0</ele><time>2026-03-23T10:53:49Z</time></trkpt><trkpt lat="46.028977770988824" lon="12.27118971606451"><ele>793.0</ele><time>2026-03-23T10:53:50Z</time></trkpt><trkpt lat="46.02908271934599" lon="12.271118742863488"><ele>793.0</ele><time>2026-03-23T10:53:51Z</time></trkpt><trkpt lat="46.02917332472382" lon="12.271041411312934"><ele>793.0</ele><time>2026-03-23T10:53:52Z</time></trkpt><trkpt lat="46.0292528892811" lon="12.270984328396057"><ele>791.9999999999999</ele><time>2026-03-23T10:53:53Z</time></trkpt><trkpt lat="46.02933345775612" lon="12.270978624113832"><ele>791.0</ele><time>2026-03-23T10:53:54Z</time></trkpt><trkpt lat="46.02940459237219" lon="12.271005271737295"><ele>790.0</ele><time>2026-03-23T10:53:55Z</time></trkpt><trkpt lat="46.02946019737026" lon="12.271066238530848"><ele>789.0</ele><time>2026-03-23T10:53:56Z</time></trkpt><trkpt lat="46.02949667292716" lon="12.271172694020711"><ele>787.9999999999999</ele><time>2026-03-23T10:53:57Z</time></trkpt><trkpt lat="46.02952427859001" lon="12.271311983139116"><ele>787.0</ele><time>2026-03-23T10:53:58Z</time></trkpt><trkpt lat="46.02954769464883" lon="12.271477446164416"><ele>780.0</ele><time>2026-03-23T10:53:59Z</time></trkpt><trkpt lat="46.02957606204385" lon="12.27166836505897"><ele>773.0</ele><time>2026-03-23T10:54:00Z</time></trkpt><trkpt lat="46.02961766954723" lon="12.271867896398362"><ele>766.0</ele><time>2026-03-23T10:54:01Z</time></trkpt><trkpt lat="46.029669119730315" lon="12.272071595761297"><ele>759.0</ele><time>2026-03-23T10:54:02Z</time></trkpt><trkpt lat="46.02971448986166" lon="12.2722525131738"><ele>754.25</ele><time>2026-03-23T10:54:03Z</time></trkpt><trkpt lat="46.02975943942965" lon="12.272421316493606"><ele>749.5</ele><time>2026-03-23T10:54:03.999Z</time></trkpt><trkpt lat="46.029801864601204" lon="12.272581993858715"><ele>744.75</ele><time>2026-03-23T10:54:04.999Z</time></trkpt><trkpt lat="46.02985303486524" lon="12.272723936823736"><ele>740.0</ele><time>2026-03-23T10:54:05.999Z</time></trkpt><trkpt lat="46.029928239660016" lon="12.272858575846302"><ele>743.5</ele><time>2026-03-23T10:54:06.999Z</time></trkpt><trkpt lat="46.03002432008171" lon="12.272998263736872"><ele>747.0</ele><time>2026-03-23T10:54:07.999Z</time></trkpt><trkpt lat="46.03011824785275" lon="12.273150558497843"><ele>750.5</ele><time>2026-03-23T10:54:08.999Z</time></trkpt><trkpt lat="46.03018489186857" lon="12.27330413278444"><ele>754.0</ele><time>2026-03-23T10:54:09.999Z</time></trkpt><trkpt lat="46.030234661437106" lon="12.27346416128751"><ele>754.0</ele><time>2026-03-23T10:54:10.999Z</time></trkpt><trkpt lat="46.030261015928666" lon="12.273635744615026"><ele>754.0</ele><time>2026-03-23T10:54:11.999Z</time></trkpt><trkpt lat="46.03026284168956" lon="12.273820227163705"><ele>754.0</ele><time>2026-03-23T10:54:12.999Z</time></trkpt><trkpt lat="46.030267980050056" lon="12.274022134831627"><ele>754.0</ele><time>2026-03-23T10:54:13.999Z</time></trkpt><trkpt lat="46.03029768489071" lon="12.274255224519099"><ele>750.3333333333334</ele><time>2026-03-23T10:54:14.999Z</time></trkpt><trkpt lat="46.03034782330022" lon="12.274525343622075"><ele>746.6666666666666</ele><time>2026-03-23T10:54:15.999Z</time></trkpt><trkpt lat="46.030398066732616" lon="12.274789361802538"><ele>743.0</ele><time>2026-03-23T10:54:16.999Z</time></trkpt><trkpt lat="46.030446406636486" lon="12.275029481167756"><ele>740.3333333333333</ele><time>2026-03-23T10:54:17.999Z</time></trkpt><trkpt lat="46.03049223642278" lon="12.275259989324551"><ele>737.6666666666666</ele><time>2026-03-23T10:54:18.999Z</time></trkpt><trkpt lat="46.030535570796744" lon="12.275477264419475"><ele>735.0</ele><time>2026-03-23T10:54:19.999Z</time></trkpt><trkpt lat="46.030581381521536" lon="12.275686656608338"><ele>732.5</ele><time>2026-03-23T10:54:20.999Z</time></trkpt><trkpt lat="46.030626598901144" lon="12.275880244716136"><ele>730.0</ele><time>2026-03-23T10:54:21.999Z</time></trkpt><trkpt lat="46.03067856468722" lon="12.276063078764615"><ele>727.5</ele><time>2026-03-23T10:54:22.999Z</time></trkpt><trkpt lat="46.0307510915665" lon="12.27625931397887"><ele>725.0</ele><time>2026-03-23T10:54:23.999Z</time></trkpt><trkpt lat="46.030835102228274" lon="12.276433127605733"><ele>728.0</ele><time>2026-03-23T10:54:24.999Z</time></trkpt><trkpt lat="46.030909799989765" lon="12.276584596470913"><ele>731.0</ele><time>2026-03-23T10:54:25.999Z</time></trkpt><trkpt lat="46.03095114513272" lon="12.276737363960192"><ele>734.0</ele><time>2026-03-23T10:54:26.999Z</time></trkpt><trkpt lat="46.03097325960836" lon="12.276898082455117"><ele>737.0</ele><time>2026-03-23T10:54:27.999Z</time></trkpt><trkpt lat="46.030971554966776" lon="12.27707920790804"><ele>737.0</ele><time>2026-03-23T10:54:28.999Z</time></trkpt><trkpt lat="46.030951952837455" lon="12.277260592305945"><ele>737.0</ele><time>2026-03-23T10:54:29.999Z</time></trkpt><trkpt lat="46.030940338671684" lon="12.2774180952954"><ele>737.0</ele><time>2026-03-23T10:54:30.999Z</time></trkpt><trkpt lat="46.03094907270659" lon="12.277565159014074"><ele>737.0</ele><time>2026-03-23T10:54:31.999Z</time></trkpt><trkpt lat="46.0309793301492" lon="12.277717580420825"><ele>735.0</ele><time>2026-03-23T10:54:32.999Z</time></trkpt><trkpt lat="46.03103321851161" lon="12.277875113312449"><ele>733.0</ele><time>2026-03-23T10:54:33.999Z</time></trkpt><trkpt lat="46.03110369074274" lon="12.278032539737609"><ele>731.0</ele><time>2026-03-23T10:54:34.999Z</time></trkpt><trkpt lat="46.03115635186605" lon="12.27818993830096"><ele>729.0</ele><time>2026-03-23T10:54:35.999Z</time></trkpt><trkpt lat="46.031194944940424" lon="12.278350623354463"><ele>727.0</ele><time>2026-03-23T10:54:36.999Z</time></trkpt><trkpt lat="46.031215520396415" lon="12.278503685433716"><ele>725.0</ele><time>2026-03-23T10:54:37.999Z</time></trkpt><trkpt lat="46.03121441831516" lon="12.278652515398123"><ele>723.0</ele><time>2026-03-23T10:54:38.999Z</time></trkpt><trkpt lat="46.03120093071914" lon="12.278817831055312"><ele>721.0</ele><time>2026-03-23T10:54:39.999Z</time></trkpt><trkpt lat="46.031175944462454" lon="12.279018075092775"><ele>716.3333333333334</ele><time>2026-03-23T10:54:40.999Z</time></trkpt><trkpt lat="46.03115111315284" lon="12.27924445974859"><ele>711.6666666666666</ele><time>2026-03-23T10:54:41.999Z</time></trkpt><trkpt lat="46.03112671230585" lon="12.279457555525195"><ele>707.0</ele><time>2026-03-23T10:54:42.999Z</time></trkpt><trkpt lat="46.031101749079625" lon="12.27967130665335"><ele>706.5</ele><time>2026-03-23T10:54:43.999Z</time></trkpt><trkpt lat="46.031071815950924" lon="12.279879354567834"><ele>706.0</ele><time>2026-03-23T10:54:44.999Z</time></trkpt><trkpt lat="46.03103895513086" lon="12.280083698245276"><ele>705.5</ele><time>2026-03-23T10:54:45.999Z</time></trkpt><trkpt lat="46.031000596915995" lon="12.28027788870691"><ele>705.0</ele><time>2026-03-23T10:54:46.999Z</time></trkpt><trkpt lat="46.03096266653849" lon="12.280468373943169"><ele>706.25</ele><time>2026-03-23T10:54:47.999Z</time></trkpt><trkpt lat="46.03092918986466" lon="12.280659137189096"><ele>707.5</ele><time>2026-03-23T10:54:48.999Z</time></trkpt><trkpt lat="46.03089632143859" lon="12.2808456742752"><ele>708.75</ele><time>2026-03-23T10:54:49.999Z</time></trkpt><trkpt lat="46.03086754792507" lon="12.281030301808675"><ele>710.0</ele><time>2026-03-23T10:54:50.999Z</time></trkpt><trkpt lat="46.03083879739964" lon="12.281211378061348"><ele>710.0</ele><time>2026-03-23T10:54:51.999Z</time></trkpt><trkpt lat="46.0308090639917" lon="12.281391416379522"><ele>710.0</ele><time>2026-03-23T10:54:52.999Z</time></trkpt><trkpt lat="46.030775817704544" lon="12.281567265945347"><ele>710.0</ele><time>2026-03-23T10:54:53.999Z</time></trkpt><trkpt lat="46.03073197916426" lon="12.2817371277244"><ele>710.0</ele><time>2026-03-23T10:54:54.999Z</time></trkpt><trkpt lat="46.030685858098956" lon="12.281900667585397"><ele>702.4</ele><time>2026-03-23T10:54:55.999Z</time></trkpt><trkpt lat="46.03063842175123" lon="12.282064555486128"><ele>694.8</ele><time>2026-03-23T10:54:56.999Z</time></trkpt><trkpt lat="46.030589893702924" lon="12.28222357013232"><ele>687.2</ele><time>2026-03-23T10:54:57.999Z</time></trkpt><trkpt lat="46.0305366038614" lon="12.282363714474753"><ele>679.6</ele><time>2026-03-23T10:54:58.999Z</time></trkpt><trkpt lat="46.03047492505402" lon="12.282466678269905"><ele>672.0</ele><time>2026-03-23T10:55:00Z</time></trkpt><trkpt lat="46.03039302911007" lon="12.282541562785534"><ele>672.0</ele><time>2026-03-23T10:55:01Z</time></trkpt><trkpt lat="46.03031003385725" lon="12.282583385708417"><ele>672.0</ele><time>2026-03-23T10:55:02Z</time></trkpt><trkpt lat="46.03023389920404" lon="12.282636548390325"><ele>672.0</ele><time>2026-03-23T10:55:03Z</time></trkpt><trkpt lat="46.03016992557967" lon="12.282721737280138"><ele>672.0</ele><time>2026-03-23T10:55:04Z</time></trkpt><trkpt lat="46.03011370142923" lon="12.282838406423902"><ele>672.0</ele><time>2026-03-23T10:55:05Z</time></trkpt><trkpt lat="46.030073186367865" lon="12.28297576990778"><ele>673.0</ele><time>2026-03-23T10:55:06Z</time></trkpt><trkpt lat="46.03004768023777" lon="12.283134841847254"><ele>674.0</ele><time>2026-03-23T10:55:07Z</time></trkpt><trkpt lat="46.030031091564446" lon="12.28330386959292"><ele>675.0</ele><time>2026-03-23T10:55:08Z</time></trkpt><trkpt lat="46.03002162879069" lon="12.283477354184386"><ele>676.0</ele><time>2026-03-23T10:55:09Z</time></trkpt><trkpt lat="46.030020678712155" lon="12.283655255553233"><ele>676.0</ele><time>2026-03-23T10:55:10Z</time></trkpt><trkpt lat="46.0300280373422" lon="12.283829990170647"><ele>676.0</ele><time>2026-03-23T10:55:11Z</time></trkpt><trkpt lat="46.03004727926917" lon="12.283995377723167"><ele>676.0</ele><time>2026-03-23T10:55:12Z</time></trkpt><trkpt lat="46.030075067967566" lon="12.284151114717297"><ele>676.0</ele><time>2026-03-23T10:55:13Z</time></trkpt><trkpt lat="46.030117267157294" lon="12.284296819515008"><ele>674.0</ele><time>2026-03-23T10:55:14Z</time></trkpt><trkpt lat="46.030174070935566" lon="12.284427157722641"><ele>672.0</ele><time>2026-03-23T10:55:15Z</time></trkpt><trkpt lat="46.030239872984986" lon="12.28454411948207"><ele>670.0</ele><time>2026-03-23T10:55:16Z</time></trkpt><trkpt lat="46.03031995951208" lon="12.284654650948621"><ele>668.0</ele><time>2026-03-23T10:55:17Z</time></trkpt><trkpt lat="46.03040679138562" lon="12.284745611329637"><ele>666.0</ele><time>2026-03-23T10:55:18Z</time></trkpt><trkpt lat="46.0304974062501" lon="12.28481790384453"><ele>665.8333333333334</ele><time>2026-03-23T10:55:19Z</time></trkpt><trkpt lat="46.030585268745426" lon="12.284875596832414"><ele>665.6666666666666</ele><time>2026-03-23T10:55:20Z</time></trkpt><trkpt lat="46.03066840282377" lon="12.284911785172953"><ele>665.5</ele><time>2026-03-23T10:55:21Z</time></trkpt><trkpt lat="46.030757535414075" lon="12.284927154684118"><ele>665.3333333333333</ele><time>2026-03-23T10:55:22Z</time></trkpt><trkpt lat="46.03083470177329" lon="12.284926328722712"><ele>665.1666666666666</ele><time>2026-03-23T10:55:23Z</time></trkpt><trkpt lat="46.03089905809601" lon="12.284922837337698"><ele>665.0</ele><time>2026-03-23T10:55:24Z</time></trkpt><trkpt lat="46.030987189536205" lon="12.284990663963343"><ele>665.0</ele><time>2026-03-23T10:55:26Z</time></trkpt><trkpt lat="46.03096490229515" lon="12.285094999198103"><ele>665.0</ele><time>2026-03-23T10:55:28Z</time></trkpt><trkpt lat="46.03084154810371" lon="12.285115372662093"><ele>665.0</ele><time>2026-03-23T10:55:30Z</time></trkpt><trkpt lat="46.03075591079938" lon="12.285086955730337"><ele>665.0</ele><time>2026-03-23T10:55:31Z</time></trkpt><trkpt lat="46.030649739182735" lon="12.285053493910302"><ele>665.0</ele><time>2026-03-23T10:55:32Z</time></trkpt><trkpt lat="46.030507115239836" lon="12.284987453419316"><ele>665.25</ele><time>2026-03-23T10:55:33Z</time></trkpt><trkpt lat="46.03036090041458" lon="12.284901028055058"><ele>665.5</ele><time>2026-03-23T10:55:34Z</time></trkpt><trkpt lat="46.03023678186263" lon="12.284810628844077"><ele>665.75</ele><time>2026-03-23T10:55:35Z</time></trkpt><trkpt lat="46.03012567485232" lon="12.284717594139957"><ele>666.0</ele><time>2026-03-23T10:55:36Z</time></trkpt><trkpt lat="46.03002248459025" lon="12.284621999409886"><ele>657.1999999999999</ele><time>2026-03-23T10:55:37Z</time></trkpt><trkpt lat="46.02993292445722" lon="12.284524077930563"><ele>648.4</ele><time>2026-03-23T10:55:38Z</time></trkpt><trkpt lat="46.02986090719492" lon="12.284413403309985"><ele>639.6</ele><time>2026-03-23T10:55:39Z</time></trkpt><trkpt lat="46.02980679306596" lon="12.284293873859674"><ele>630.8</ele><time>2026-03-23T10:55:40Z</time></trkpt><trkpt lat="46.029761567716164" lon="12.284140231134504"><ele>622.0</ele><time>2026-03-23T10:55:41Z</time></trkpt><trkpt lat="46.029722787957624" lon="12.28396753966019"><ele>623.0</ele><time>2026-03-23T10:55:42Z</time></trkpt><trkpt lat="46.02968626492643" lon="12.283803919633336"><ele>624.0</ele><time>2026-03-23T10:55:43Z</time></trkpt><trkpt lat="46.029647823253526" lon="12.283649386353847"><ele>625.0</ele><time>2026-03-23T10:55:44Z</time></trkpt><trkpt lat="46.02960938785136" lon="12.283499087761522"><ele>626.0</ele><time>2026-03-23T10:55:45Z</time></trkpt><trkpt lat="46.02957757516757" lon="12.283356946326494"><ele>627.0</ele><time>2026-03-23T10:55:46Z</time></trkpt><trkpt lat="46.02957104714354" lon="12.283205408948918"><ele>626.5</ele><time>2026-03-23T10:55:47Z</time></trkpt><trkpt lat="46.029585414979955" lon="12.28302155252492"><ele>626.0</ele><time>2026-03-23T10:55:48Z</time></trkpt><trkpt lat="46.029608230171725" lon="12.28280627866409"><ele>625.5</ele><time>2026-03-23T10:55:49Z</time></trkpt><trkpt lat="46.02962766688029" lon="12.282563583168043"><ele>625.0</ele><time>2026-03-23T10:55:50Z</time></trkpt><trkpt lat="46.02964489192624" lon="12.282349600951447"><ele>623.75</ele><time>2026-03-23T10:55:51Z</time></trkpt><trkpt lat="46.02966362769773" lon="12.282146383531213"><ele>622.5</ele><time>2026-03-23T10:55:52Z</time></trkpt><trkpt lat="46.02967494960838" lon="12.28194666998995"><ele>621.25</ele><time>2026-03-23T10:55:53Z</time></trkpt><trkpt lat="46.02968167781758" lon="12.281752269416486"><ele>620.0</ele><time>2026-03-23T10:55:54Z</time></trkpt><trkpt lat="46.02968772619225" lon="12.281571962983005"><ele>621.0</ele><time>2026-03-23T10:55:55Z</time></trkpt><trkpt lat="46.02971311402751" lon="12.281407694832396"><ele>622.0</ele><time>2026-03-23T10:55:56Z</time></trkpt><trkpt lat="46.02976661061858" lon="12.28126272251287"><ele>623.0</ele><time>2026-03-23T10:55:57Z</time></trkpt><trkpt lat="46.02980592109191" lon="12.281127401039194"><ele>624.0</ele><time>2026-03-23T10:55:58Z</time></trkpt><trkpt lat="46.029809224090656" lon="12.280986229593486"><ele>625.0</ele><time>2026-03-23T10:55:59Z</time></trkpt><trkpt lat="46.02979481732873" lon="12.280854062214575"><ele>625.0</ele><time>2026-03-23T10:56:00Z</time></trkpt><trkpt lat="46.02977481553565" lon="12.280731854311195"><ele>625.0</ele><time>2026-03-23T10:56:01Z</time></trkpt><trkpt lat="46.02975028008765" lon="12.280615815103074"><ele>625.0</ele><time>2026-03-23T10:56:02Z</time></trkpt><trkpt lat="46.02971251291774" lon="12.28050814069682"><ele>625.0</ele><time>2026-03-23T10:56:03Z</time></trkpt><trkpt lat="46.02965577027065" lon="12.280424885401393"><ele>625.0</ele><time>2026-03-23T10:56:04Z</time></trkpt><trkpt lat="46.02958123582622" lon="12.280350020704308"><ele>625.0</ele><time>2026-03-23T10:56:05Z</time></trkpt><trkpt lat="46.02950153606058" lon="12.280287074269927"><ele>626.0</ele><time>2026-03-23T10:56:06Z</time></trkpt><trkpt lat="46.029423228874464" lon="12.280219919086255"><ele>627.0</ele><time>2026-03-23T10:56:07Z</time></trkpt><trkpt lat="46.02935625470011" lon="12.280143642987307"><ele>628.0</ele><time>2026-03-23T10:56:08Z</time></trkpt><trkpt lat="46.02929657380006" lon="12.280052429839987"><ele>629.0</ele><time>2026-03-23T10:56:08.999Z</time></trkpt><trkpt lat="46.02925448219203" lon="12.279942167125117"><ele>630.0</ele><time>2026-03-23T10:56:09.999Z</time></trkpt><trkpt lat="46.029232596552475" lon="12.279826483514126"><ele>631.0</ele><time>2026-03-23T10:56:10.999Z</time></trkpt><trkpt lat="46.02922796572415" lon="12.279727813040545"><ele>632.2857142857143</ele><time>2026-03-23T10:56:11.999Z</time></trkpt><trkpt lat="46.02922427037607" lon="12.27961829233619"><ele>633.5714285714286</ele><time>2026-03-23T10:56:12.999Z</time></trkpt><trkpt lat="46.02921717795599" lon="12.279508356382088"><ele>634.8571428571429</ele><time>2026-03-23T10:56:13.999Z</time></trkpt><trkpt lat="46.0292095464238" lon="12.279401745742506"><ele>636.1428571428571</ele><time>2026-03-23T10:56:14.999Z</time></trkpt><trkpt lat="46.02919228424223" lon="12.279300715042812"><ele>637.4285714285714</ele><time>2026-03-23T10:56:15.999Z</time></trkpt><trkpt lat="46.029168327316555" lon="12.279213433887417"><ele>638.7142857142857</ele><time>2026-03-23T10:56:16.999Z</time></trkpt><trkpt lat="46.029132223325185" lon="12.279106446542716"><ele>640.0</ele><time>2026-03-23T10:56:18.999Z</time></trkpt><trkpt lat="46.02913879800909" lon="12.279005329182668"><ele>636.4</ele><time>2026-03-23T10:56:58.999Z</time></trkpt><trkpt lat="46.02911586014268" lon="12.278917278520524"><ele>632.8</ele><time>2026-03-23T11:30:25.999Z</time></trkpt><trkpt lat="46.02901534485131" lon="12.278843580989921"><ele>629.2</ele><time>2026-03-23T11:30:27.999Z</time></trkpt><trkpt lat="46.02888524393563" lon="12.278761290905727"><ele>625.6</ele><time>2026-03-23T11:30:29.999Z</time></trkpt><trkpt lat="46.02879996159789" lon="12.2787186502715"><ele>622.0</ele><time>2026-03-23T11:30:30.999Z</time></trkpt><trkpt lat="46.02873829684494" lon="12.278653892145869"><ele>622.0</ele><time>2026-03-23T11:30:31.999Z</time></trkpt><trkpt lat="46.02869818430199" lon="12.278571670244668"><ele>622.0</ele><time>2026-03-23T11:30:32.999Z</time></trkpt><trkpt lat="46.028688838379104" lon="12.27848133724646"><ele>622.0</ele><time>2026-03-23T11:30:33.999Z</time></trkpt><trkpt lat="46.02875289186616" lon="12.27831938855141"><ele>622.0</ele><time>2026-03-23T11:30:35.999Z</time></trkpt><trkpt lat="46.02881387885949" lon="12.27823895390391"><ele>622.0</ele><time>2026-03-23T11:30:36.999Z</time></trkpt><trkpt lat="46.02888703753969" lon="12.27817641997384"><ele>622.0</ele><time>2026-03-23T11:30:37.999Z</time></trkpt><trkpt lat="46.028958122732845" lon="12.27813465451054"><ele>623.0</ele><time>2026-03-23T11:30:38.999Z</time></trkpt><trkpt lat="46.029019799235634" lon="12.278101441585207"><ele>624.0</ele><time>2026-03-23T11:30:39.999Z</time></trkpt><trkpt lat="46.02905863467733" lon="12.278025797865483"><ele>625.0</ele><time>2026-03-23T11:30:40.998Z</time></trkpt><trkpt lat="46.02905804329559" lon="12.277918028023974"><ele>626.0</ele><time>2026-03-23T11:30:41.998Z</time></trkpt><trkpt lat="46.02903325092402" lon="12.277818276812539"><ele>627.0</ele><time>2026-03-23T11:30:42.998Z</time></trkpt><trkpt lat="46.02897748987531" lon="12.277753542904803"><ele>628.0</ele><time>2026-03-23T11:30:43.998Z</time></trkpt><trkpt lat="46.028899676379346" lon="12.277720262644058"><ele>629.0</ele><time>2026-03-23T11:30:44.998Z</time></trkpt><trkpt lat="46.02881916302807" lon="12.27766158710854"><ele>629.0</ele><time>2026-03-23T11:30:45.998Z</time></trkpt><trkpt lat="46.028773246268585" lon="12.277548652223263"><ele>629.0</ele><time>2026-03-23T11:30:46.998Z</time></trkpt><trkpt lat="46.02873288288401" lon="12.277429099233473"><ele>629.0</ele><time>2026-03-23T11:30:47.998Z</time></trkpt><trkpt lat="46.02869985251127" lon="12.27732115741113"><ele>629.0</ele><time>2026-03-23T11:30:48.998Z</time></trkpt><trkpt lat="46.02866548310864" lon="12.27722372630233"><ele>629.0</ele><time>2026-03-23T11:30:49.998Z</time></trkpt><trkpt lat="46.02863509661219" lon="12.277124254213657"><ele>629.0</ele><time>2026-03-23T11:30:50.998Z</time></trkpt><trkpt lat="46.02858386099437" lon="12.277022242675974"><ele>630.0</ele><time>2026-03-23T11:30:51.998Z</time></trkpt><trkpt lat="46.02851933360641" lon="12.276897867633364"><ele>631.0</ele><time>2026-03-23T11:30:52.998Z</time></trkpt><trkpt lat="46.02844903928857" lon="12.276746710677742"><ele>632.0</ele><time>2026-03-23T11:30:53.998Z</time></trkpt><trkpt lat="46.02840397442779" lon="12.276621663499457"><ele>633.0</ele><time>2026-03-23T11:30:54.999Z</time></trkpt><trkpt lat="46.02836636106355" lon="12.276518882485233"><ele>634.0</ele><time>2026-03-23T11:30:55.999Z</time></trkpt><trkpt lat="46.02826802628438" lon="12.276432998054144"><ele>634.0</ele><time>2026-03-23T11:30:57.999Z</time></trkpt><trkpt lat="46.02819528194713" lon="12.276417122851441"><ele>634.0</ele><time>2026-03-23T11:30:58.999Z</time></trkpt><trkpt lat="46.02809617614733" lon="12.276383839466096"><ele>634.0</ele><time>2026-03-23T11:31:00.999Z</time></trkpt><trkpt lat="46.02803611367979" lon="12.27630812995837"><ele>634.0</ele><time>2026-03-23T11:31:02.999Z</time></trkpt><trkpt lat="46.02797306693871" lon="12.276199357179584"><ele>634.0</ele><time>2026-03-23T11:31:04.999Z</time></trkpt><trkpt lat="46.0279436954117" lon="12.27610656479783"><ele>634.0</ele><time>2026-03-23T11:31:05.999Z</time></trkpt><trkpt lat="46.027909646278374" lon="12.27601578165039"><ele>634.0</ele><time>2026-03-23T11:31:06.999Z</time></trkpt><trkpt lat="46.02785809543256" lon="12.275929984912759"><ele>634.0</ele><time>2026-03-23T11:31:07.999Z</time></trkpt><trkpt lat="46.02780382548012" lon="12.275835801683467"><ele>634.0</ele><time>2026-03-23T11:31:08.999Z</time></trkpt><trkpt lat="46.02775947177378" lon="12.275738262493435"><ele>634.0</ele><time>2026-03-23T11:31:09.999Z</time></trkpt><trkpt lat="46.027719537793885" lon="12.27561932973575"><ele>634.0</ele><time>2026-03-23T11:31:10.999Z</time></trkpt><trkpt lat="46.0276877379487" lon="12.275526191787606"><ele>634.0</ele><time>2026-03-23T11:31:11.999Z</time></trkpt><trkpt lat="46.027667263361785" lon="12.27543579525198"><ele>635.8333333333334</ele><time>2026-03-23T11:31:12.999Z</time></trkpt><trkpt lat="46.027636432986554" lon="12.275277904641127"><ele>637.6666666666667</ele><time>2026-03-23T11:31:14.999Z</time></trkpt><trkpt lat="46.027578933085884" lon="12.275149847423616"><ele>639.5</ele><time>2026-03-23T11:31:16.999Z</time></trkpt><trkpt lat="46.027518681175" lon="12.275109318602725"><ele>641.3333333333334</ele><time>2026-03-23T11:31:17.999Z</time></trkpt><trkpt lat="46.027443095140754" lon="12.275103878371429"><ele>643.1666666666666</ele><time>2026-03-23T11:31:18.999Z</time></trkpt><trkpt lat="46.027362372856224" lon="12.275128806895584"><ele>645.0</ele><time>2026-03-23T11:31:19.999Z</time></trkpt><trkpt lat="46.0272632583317" lon="12.275171864822399"><ele>645.6666666666666</ele><time>2026-03-23T11:31:20.999Z</time></trkpt><trkpt lat="46.02718859787358" lon="12.275182950898001"><ele>646.3333333333334</ele><time>2026-03-23T11:31:21.999Z</time></trkpt><trkpt lat="46.02711449400414" lon="12.275172448600877"><ele>647.0</ele><time>2026-03-23T11:31:22.999Z</time></trkpt><trkpt lat="46.02704108649687" lon="12.275171152781894"><ele>647.6666666666667</ele><time>2026-03-23T11:31:23.999Z</time></trkpt><trkpt lat="46.026963070480875" lon="12.275178654483703"><ele>648.3333333333334</ele><time>2026-03-23T11:31:24.999Z</time></trkpt><trkpt lat="46.02688557615954" lon="12.275195848852638"><ele>649.0</ele><time>2026-03-23T11:31:25.999Z</time></trkpt><trkpt lat="46.02680907767531" lon="12.275222067758712"><ele>649.0</ele><time>2026-03-23T11:31:26.999Z</time></trkpt><trkpt lat="46.02673963254229" lon="12.27526393470247"><ele>649.0</ele><time>2026-03-23T11:31:27.999Z</time></trkpt><trkpt lat="46.026678661750495" lon="12.275332810402979"><ele>649.0</ele><time>2026-03-23T11:31:28.999Z</time></trkpt><trkpt lat="46.02663123503808" lon="12.275430398366202"><ele>649.0</ele><time>2026-03-23T11:31:29.999Z</time></trkpt><trkpt lat="46.02660138349191" lon="12.275545418223038"><ele>649.0</ele><time>2026-03-23T11:31:30.999Z</time></trkpt><trkpt lat="46.026575855103" lon="12.275704027668946"><ele>649.0</ele><time>2026-03-23T11:31:31.999Z</time></trkpt><trkpt lat="46.02656548770421" lon="12.275844180521721"><ele>649.0</ele><time>2026-03-23T11:31:32.999Z</time></trkpt><trkpt lat="46.02655627208983" lon="12.27597094953922"><ele>649.0</ele><time>2026-03-23T11:31:33.999Z</time></trkpt><trkpt lat="46.0265274051085" lon="12.276089776759328"><ele>649.0</ele><time>2026-03-23T11:31:34.999Z</time></trkpt><trkpt lat="46.0264858478793" lon="12.276169911602294"><ele>649.0</ele><time>2026-03-23T11:31:35.999Z</time></trkpt><trkpt lat="46.0264145925316" lon="12.27623939202607"><ele>649.0</ele><time>2026-03-23T11:31:36.999Z</time></trkpt><trkpt lat="46.026327789146144" lon="12.27631175262472"><ele>649.0</ele><time>2026-03-23T11:31:37.999Z</time></trkpt><trkpt lat="46.026231979328806" lon="12.276390857568739"><ele>645.0</ele><time>2026-03-23T11:31:38.999Z</time></trkpt><trkpt lat="46.0261345489589" lon="12.27647411271462"><ele>641.0</ele><time>2026-03-23T11:31:39.999Z</time></trkpt><trkpt lat="46.02607491567498" lon="12.276566458553132"><ele>637.0</ele><time>2026-03-23T11:31:40.999Z</time></trkpt><trkpt lat="46.02600537410921" lon="12.276698046012836"><ele>633.0</ele><time>2026-03-23T11:31:41.999Z</time></trkpt><trkpt lat="46.025941524404324" lon="12.276861509867144"><ele>629.0</ele><time>2026-03-23T11:31:42.999Z</time></trkpt><trkpt lat="46.02587516819573" lon="12.277001553975254"><ele>629.0</ele><time>2026-03-23T11:31:43.999Z</time></trkpt><trkpt lat="46.025824654959344" lon="12.277135745483553"><ele>629.0</ele><time>2026-03-23T11:31:44.999Z</time></trkpt><trkpt lat="46.025772537666306" lon="12.277284281688901"><ele>629.0</ele><time>2026-03-23T11:31:45.999Z</time></trkpt><trkpt lat="46.02572883565862" lon="12.277431767340047"><ele>629.0</ele><time>2026-03-23T11:31:46.999Z</time></trkpt><trkpt lat="46.02564480591118" lon="12.277585154385978"><ele>632.0</ele><time>2026-03-23T11:31:47.999Z</time></trkpt><trkpt lat="46.02554285490981" lon="12.277733784198315"><ele>635.0</ele><time>2026-03-23T11:31:48.999Z</time></trkpt><trkpt lat="46.02544532441073" lon="12.277881260663007"><ele>638.0</ele><time>2026-03-23T11:31:49.999Z</time></trkpt><trkpt lat="46.025353200942234" lon="12.278011452897154"><ele>641.0</ele><time>2026-03-23T11:31:50.999Z</time></trkpt><trkpt lat="46.02526559503712" lon="12.27814416699274"><ele>636.0</ele><time>2026-03-23T11:31:51.999Z</time></trkpt><trkpt lat="46.02517875371778" lon="12.278254992232133"><ele>631.0</ele><time>2026-03-23T11:31:52.999Z</time></trkpt><trkpt lat="46.025083951095986" lon="12.278367996000473"><ele>626.0</ele><time>2026-03-23T11:31:53.999Z</time></trkpt><trkpt lat="46.0249806138294" lon="12.278475039304473"><ele>621.0</ele><time>2026-03-23T11:31:54.999Z</time></trkpt><trkpt lat="46.02487089142461" lon="12.27857978066465"><ele>621.0</ele><time>2026-03-23T11:31:55.999Z</time></trkpt><trkpt lat="46.02476156107156" lon="12.278686796918308"><ele>621.0</ele><time>2026-03-23T11:31:56.999Z</time></trkpt><trkpt lat="46.02464715789259" lon="12.2787954146536"><ele>621.0</ele><time>2026-03-23T11:31:57.999Z</time></trkpt><trkpt lat="46.02454222055425" lon="12.278899382326808"><ele>621.0</ele><time>2026-03-23T11:31:58.999Z</time></trkpt><trkpt lat="46.024444139388045" lon="12.278996025740952"><ele>615.8</ele><time>2026-03-23T11:31:59.999Z</time></trkpt><trkpt lat="46.02434647642991" lon="12.279080799066428"><ele>610.6</ele><time>2026-03-23T11:32:00.999Z</time></trkpt><trkpt lat="46.02425134014177" lon="12.279164841899092"><ele>605.4</ele><time>2026-03-23T11:32:01.999Z</time></trkpt><trkpt lat="46.02416326752166" lon="12.279248363920042"><ele>600.2</ele><time>2026-03-23T11:32:02.999Z</time></trkpt><trkpt lat="46.02408179478259" lon="12.279298172051424"><ele>595.0</ele><time>2026-03-23T11:32:03.999Z</time></trkpt><trkpt lat="46.02399033478168" lon="12.279319085857535"><ele>595.0</ele><time>2026-03-23T11:32:04.999Z</time></trkpt><trkpt lat="46.023888651528196" lon="12.279308736362866"><ele>595.0</ele><time>2026-03-23T11:32:05.999Z</time></trkpt><trkpt lat="46.02375707303302" lon="12.279287659063401"><ele>595.0</ele><time>2026-03-23T11:32:06.999Z</time></trkpt><trkpt lat="46.02363885460512" lon="12.27928094168952"><ele>595.0</ele><time>2026-03-23T11:32:07.999Z</time></trkpt><trkpt lat="46.02354517556974" lon="12.279304348168017"><ele>595.0</ele><time>2026-03-23T11:32:08.999Z</time></trkpt><trkpt lat="46.02347513115963" lon="12.279345463437606"><ele>595.0</ele><time>2026-03-23T11:32:09.999Z</time></trkpt><trkpt lat="46.023418324944124" lon="12.279409842867555"><ele>595.0</ele><time>2026-03-23T11:32:10.999Z</time></trkpt><trkpt lat="46.02337001719813" lon="12.279501912611535"><ele>595.0</ele><time>2026-03-23T11:32:11.999Z</time></trkpt><trkpt lat="46.02331454667085" lon="12.279606211988359"><ele>595.0</ele><time>2026-03-23T11:32:12.999Z</time></trkpt><trkpt lat="46.023242261034135" lon="12.279687800217918"><ele>595.0</ele><time>2026-03-23T11:32:13.999Z</time></trkpt><trkpt lat="46.02316042500492" lon="12.279753350750752"><ele>595.0</ele><time>2026-03-23T11:32:14.999Z</time></trkpt><trkpt lat="46.02306272428651" lon="12.279787648105554"><ele>586.0</ele><time>2026-03-23T11:32:15.999Z</time></trkpt><trkpt lat="46.02297262540923" lon="12.279774370363501"><ele>577.0</ele><time>2026-03-23T11:32:16.999Z</time></trkpt><trkpt lat="46.02288325157197" lon="12.279769609153258"><ele>568.0</ele><time>2026-03-23T11:32:17.999Z</time></trkpt><trkpt lat="46.022856533426214" lon="12.279877673798437"><ele>559.0</ele><time>2026-03-23T11:32:19.999Z</time></trkpt><trkpt lat="46.02296170950589" lon="12.279967476815061"><ele>550.0</ele><time>2026-03-23T11:32:21.999Z</time></trkpt><trkpt lat="46.02308532653631" lon="12.279990083368874"><ele>550.0</ele><time>2026-03-23T11:32:22.999Z</time></trkpt><trkpt lat="46.023176248039654" lon="12.2799993661238"><ele>550.0</ele><time>2026-03-23T11:32:23.999Z</time></trkpt><trkpt lat="46.02326308796556" lon="12.27997661744134"><ele>550.0</ele><time>2026-03-23T11:32:24.999Z</time></trkpt><trkpt lat="46.023353189625524" lon="12.279921102654589"><ele>550.0</ele><time>2026-03-23T11:32:25.999Z</time></trkpt><trkpt lat="46.02343408884335" lon="12.279854027396944"><ele>550.0</ele><time>2026-03-23T11:32:26.999Z</time></trkpt><trkpt lat="46.02349588698504" lon="12.279794616380494"><ele>550.0</ele><time>2026-03-23T11:32:27.999Z</time></trkpt><trkpt lat="46.02355506512956" lon="12.279759691724436"><ele>553.4</ele><time>2026-03-23T11:32:28.999Z</time></trkpt><trkpt lat="46.023625779374576" lon="12.279815054284153"><ele>556.8</ele><time>2026-03-23T11:32:30.999Z</time></trkpt><trkpt lat="46.02374417010972" lon="12.279898305321359"><ele>560.2</ele><time>2026-03-23T11:32:32.999Z</time></trkpt><trkpt lat="46.02382131167505" lon="12.279933135695993"><ele>563.6</ele><time>2026-03-23T11:32:33.999Z</time></trkpt><trkpt lat="46.02392793791117" lon="12.280035701611016"><ele>567.0</ele><time>2026-03-23T11:32:35.999Z</time></trkpt><trkpt lat="46.024048935426244" lon="12.280078528624774"><ele>567.0</ele><time>2026-03-23T11:32:37.999Z</time></trkpt><trkpt lat="46.024133615014215" lon="12.28005188375161"><ele>567.0</ele><time>2026-03-23T11:32:38.999Z</time></trkpt><trkpt lat="46.02422977531605" lon="12.28001704434826"><ele>567.0</ele><time>2026-03-23T11:32:39.999Z</time></trkpt><trkpt lat="46.024333314100936" lon="12.279980701950256"><ele>567.0</ele><time>2026-03-23T11:32:40.999Z</time></trkpt><trkpt lat="46.0244426722194" lon="12.279957969628718"><ele>567.0</ele><time>2026-03-23T11:32:41.999Z</time></trkpt><trkpt lat="46.02453523629017" lon="12.279945853330776"><ele>565.1666666666666</ele><time>2026-03-23T11:32:42.999Z</time></trkpt><trkpt lat="46.02463192100283" lon="12.279907882871386"><ele>563.3333333333334</ele><time>2026-03-23T11:32:43.999Z</time></trkpt><trkpt lat="46.02472766904172" lon="12.279837481706421"><ele>561.5</ele><time>2026-03-23T11:32:44.999Z</time></trkpt><trkpt lat="46.024802821654966" lon="12.279794507229132"><ele>559.6666666666667</ele><time>2026-03-23T11:32:45.999Z</time></trkpt><trkpt lat="46.024867132083116" lon="12.279780883678336"><ele>557.8333333333334</ele><time>2026-03-23T11:32:46.997Z</time></trkpt><trkpt lat="46.02493764888626" lon="12.279788554118886"><ele>556.0</ele><time>2026-03-23T11:32:47.997Z</time></trkpt><trkpt lat="46.025007373542245" lon="12.279919655681452"><ele>554.1666666666667</ele><time>2026-03-23T11:32:49.997Z</time></trkpt><trkpt lat="46.025039706625854" lon="12.280030302691511"><ele>552.3333333333334</ele><time>2026-03-23T11:32:50.997Z</time></trkpt><trkpt lat="46.025088499601885" lon="12.28011240299311"><ele>550.5</ele><time>2026-03-23T11:32:51.997Z</time></trkpt><trkpt lat="46.02515584620397" lon="12.28017272104511"><ele>548.6666666666666</ele><time>2026-03-23T11:32:52.997Z</time></trkpt><trkpt lat="46.02521279834479" lon="12.280229985523153"><ele>546.8333333333333</ele><time>2026-03-23T11:32:53.997Z</time></trkpt><trkpt lat="46.02529678782519" lon="12.280267985000618"><ele>545.0</ele><time>2026-03-23T11:32:54.998Z</time></trkpt><trkpt lat="46.02540982211114" lon="12.280234442332564"><ele>545.0</ele><time>2026-03-23T11:32:56.998Z</time></trkpt><trkpt lat="46.02547676275894" lon="12.280096776453785"><ele>545.0</ele><time>2026-03-23T11:32:58.998Z</time></trkpt><trkpt lat="46.02547258663074" lon="12.280003892367914"><ele>545.0</ele><time>2026-03-23T11:32:59.998Z</time></trkpt><trkpt lat="46.025475574585215" lon="12.279890523357027"><ele>545.0</ele><time>2026-03-23T11:33:00.998Z</time></trkpt><trkpt lat="46.02557721272383" lon="12.279754773852563"><ele>545.0</ele><time>2026-03-23T11:33:02.998Z</time></trkpt><trkpt lat="46.025664565649926" lon="12.279725427081923"><ele>546.8333333333333</ele><time>2026-03-23T11:33:03.998Z</time></trkpt><trkpt lat="46.025766306590974" lon="12.279691695894542"><ele>548.6666666666666</ele><time>2026-03-23T11:33:04.998Z</time></trkpt><trkpt lat="46.02584178569724" lon="12.279649244510443"><ele>550.5</ele><time>2026-03-23T11:33:05.998Z</time></trkpt><trkpt lat="46.025903854199" lon="12.279606959341464"><ele>552.3333333333334</ele><time>2026-03-23T11:33:06.998Z</time></trkpt><trkpt lat="46.02598961209414" lon="12.27961658511281"><ele>554.1666666666667</ele><time>2026-03-23T11:33:08.998Z</time></trkpt><trkpt lat="46.025988306584715" lon="12.279724379105732"><ele>556.0</ele><time>2026-03-23T11:33:10.998Z</time></trkpt><trkpt lat="46.02588375425442" lon="12.279771736285458"><ele>554.1666666666667</ele><time>2026-03-23T11:33:12.999Z</time></trkpt><trkpt lat="46.02580396876786" lon="12.279782165197952"><ele>552.3333333333334</ele><time>2026-03-23T11:33:13.999Z</time></trkpt><trkpt lat="46.02571369984149" lon="12.279893772453475"><ele>550.5</ele><time>2026-03-23T11:33:15.999Z</time></trkpt><trkpt lat="46.02566592106571" lon="12.27997852049474"><ele>548.6666666666666</ele><time>2026-03-23T11:33:16.999Z</time></trkpt><trkpt lat="46.02565067533221" lon="12.280091915028592"><ele>546.8333333333333</ele><time>2026-03-23T11:33:18.999Z</time></trkpt><trkpt lat="46.02572282805739" lon="12.28004887372038"><ele>545.0</ele><time>2026-03-23T11:33:21.999Z</time></trkpt><trkpt lat="46.02577433161788" lon="12.279960290582972"><ele>542.1428571428571</ele><time>2026-03-23T11:33:22.999Z</time></trkpt><trkpt lat="46.0258299966534" lon="12.279906671324163"><ele>539.2857142857143</ele><time>2026-03-23T11:33:23.999Z</time></trkpt><trkpt lat="46.02590524362872" lon="12.279899855180737"><ele>536.4285714285714</ele><time>2026-03-23T11:33:24.999Z</time></trkpt><trkpt lat="46.025975760392434" lon="12.279945483647667"><ele>533.5714285714286</ele><time>2026-03-23T11:33:25.999Z</time></trkpt><trkpt lat="46.02603949449782" lon="12.27998720189133"><ele>530.7142857142858</ele><time>2026-03-23T11:33:26.999Z</time></trkpt><trkpt lat="46.0261276917236" lon="12.27995363860307"><ele>527.8571428571429</ele><time>2026-03-23T11:33:28.999Z</time></trkpt><trkpt lat="46.02617756315631" lon="12.280015083809005"><ele>525.0</ele><time>2026-03-23T11:33:30.999Z</time></trkpt><trkpt lat="46.02609492576087" lon="12.280114114847164"><ele>525.0</ele><time>2026-03-23T11:33:32.999Z</time></trkpt><trkpt lat="46.026016480195516" lon="12.280136001846207"><ele>525.0</ele><time>2026-03-23T11:33:33.999Z</time></trkpt><trkpt lat="46.025938223842836" lon="12.28014088642452"><ele>525.0</ele><time>2026-03-23T11:33:34.999Z</time></trkpt><trkpt lat="46.02585508854913" lon="12.28016789526005"><ele>525.0</ele><time>2026-03-23T11:33:36.999Z</time></trkpt><trkpt lat="46.02590605981207" lon="12.280262444445869"><ele>525.0</ele><time>2026-03-23T11:33:38.999Z</time></trkpt><trkpt lat="46.02605413440435" lon="12.280261073056412"><ele>525.0</ele><time>2026-03-23T11:33:40.999Z</time></trkpt><trkpt lat="46.02613270464022" lon="12.280243834056442"><ele>525.0</ele><time>2026-03-23T11:33:41.999Z</time></trkpt><trkpt lat="46.0262411851297" lon="12.2801771580689"><ele>525.0</ele><time>2026-03-23T11:33:43.999Z</time></trkpt><trkpt lat="46.026330771858994" lon="12.28012918400018"><ele>525.0</ele><time>2026-03-23T11:33:45.999Z</time></trkpt><trkpt lat="46.026348478395725" lon="12.2802652759502"><ele>525.0</ele><time>2026-03-23T11:33:47.999Z</time></trkpt><trkpt lat="46.0263188945724" lon="12.280380188773822"><ele>525.0</ele><time>2026-03-23T11:33:48.999Z</time></trkpt><trkpt lat="46.02627672079114" lon="12.2805035351726"><ele>525.0</ele><time>2026-03-23T11:33:49.999Z</time></trkpt><trkpt lat="46.02622326586319" lon="12.28057005512192"><ele>525.0</ele><time>2026-03-23T11:33:50.999Z</time></trkpt><trkpt lat="46.02613911319338" lon="12.280598954845644"><ele>525.0</ele><time>2026-03-23T11:33:51.999Z</time></trkpt><trkpt lat="46.02603923876307" lon="12.280647215755916"><ele>525.0</ele><time>2026-03-23T11:33:52.999Z</time></trkpt><trkpt lat="46.025973154586275" lon="12.280737961135136"><ele>525.0</ele><time>2026-03-23T11:33:53.999Z</time></trkpt><trkpt lat="46.025927774297124" lon="12.28084170519781"><ele>521.8</ele><time>2026-03-23T11:33:54.999Z</time></trkpt><trkpt lat="46.0258880884985" lon="12.28097567759229"><ele>518.6</ele><time>2026-03-23T11:33:55.999Z</time></trkpt><trkpt lat="46.02586033042552" lon="12.281110040747908"><ele>515.4</ele><time>2026-03-23T11:33:56.999Z</time></trkpt><trkpt lat="46.02584185008032" lon="12.281273559812346"><ele>512.2</ele><time>2026-03-23T11:33:57.999Z</time></trkpt><trkpt lat="46.02583555938432" lon="12.28141799365152"><ele>509.0</ele><time>2026-03-23T11:33:58.999Z</time></trkpt><trkpt lat="46.025824142650976" lon="12.281559298973315"><ele>507.0</ele><time>2026-03-23T11:33:59.999Z</time></trkpt><trkpt lat="46.02577626273806" lon="12.281682029347536"><ele>505.0</ele><time>2026-03-23T11:34:00.999Z</time></trkpt><trkpt lat="46.02572305933557" lon="12.28179109604103"><ele>503.0</ele><time>2026-03-23T11:34:01.999Z</time></trkpt><trkpt lat="46.025697535271895" lon="12.281909618888317"><ele>501.0</ele><time>2026-03-23T11:34:04Z</time></trkpt><trkpt lat="46.02571353932437" lon="12.282007078763767"><ele>499.0</ele><time>2026-03-23T11:34:06Z</time></trkpt><trkpt lat="46.02579525646867" lon="12.282102155286768"><ele>497.79999999999995</ele><time>2026-03-23T11:34:08Z</time></trkpt><trkpt lat="46.025875825019384" lon="12.282139590764736"><ele>496.59999999999997</ele><time>2026-03-23T11:34:09Z</time></trkpt><trkpt lat="46.025966481201486" lon="12.28220035239686"><ele>495.4</ele><time>2026-03-23T11:34:10Z</time></trkpt><trkpt lat="46.02602197966788" lon="12.282273148010647"><ele>494.2</ele><time>2026-03-23T11:34:11Z</time></trkpt><trkpt lat="46.026094510590376" lon="12.282326765297707"><ele>493.0</ele><time>2026-03-23T11:34:12Z</time></trkpt><trkpt lat="46.026202279506506" lon="12.282378089410905"><ele>494.59999999999997</ele><time>2026-03-23T11:34:13Z</time></trkpt><trkpt lat="46.026340522736994" lon="12.28240931182912"><ele>496.19999999999993</ele><time>2026-03-23T11:34:14Z</time></trkpt><trkpt lat="46.02646011459932" lon="12.282451139270512"><ele>497.8</ele><time>2026-03-23T11:34:15Z</time></trkpt><trkpt lat="46.02654959619816" lon="12.282475574306218"><ele>499.4</ele><time>2026-03-23T11:34:16Z</time></trkpt><trkpt lat="46.02661180039219" lon="12.282513281718172"><ele>501.0</ele><time>2026-03-23T11:34:17Z</time></trkpt><trkpt lat="46.02667106364872" lon="12.282683789096453"><ele>501.0</ele><time>2026-03-23T11:34:19Z</time></trkpt><trkpt lat="46.0266569903358" lon="12.282808271201887"><ele>501.0</ele><time>2026-03-23T11:34:20Z</time></trkpt><trkpt lat="46.02662318916634" lon="12.282948217024376"><ele>501.0</ele><time>2026-03-23T11:34:21Z</time></trkpt><trkpt lat="46.026569036548565" lon="12.28311617101778"><ele>501.0</ele><time>2026-03-23T11:34:22Z</time></trkpt><trkpt lat="46.02656926490747" lon="12.283243482912225"><ele>501.0</ele><time>2026-03-23T11:34:23Z</time></trkpt><trkpt lat="46.02658045827749" lon="12.283445156804651"><ele>498.75</ele><time>2026-03-23T11:34:25Z</time></trkpt><trkpt lat="46.026623142389944" lon="12.28360658045697"><ele>496.5</ele><time>2026-03-23T11:34:26Z</time></trkpt><trkpt lat="46.02667251355553" lon="12.28379650369038"><ele>494.25</ele><time>2026-03-23T11:34:27Z</time></trkpt><trkpt lat="46.02669256821184" lon="12.283959585569669"><ele>492.0</ele><time>2026-03-23T11:34:28Z</time></trkpt><trkpt lat="46.02670115716437" lon="12.284084013923364"><ele>490.20000000000005</ele><time>2026-03-23T11:34:29Z</time></trkpt><trkpt lat="46.026713809589836" lon="12.284193546942479"><ele>488.40000000000003</ele><time>2026-03-23T11:34:30Z</time></trkpt><trkpt lat="46.026776549834906" lon="12.284350494664105"><ele>486.59999999999997</ele><time>2026-03-23T11:34:32Z</time></trkpt><trkpt lat="46.026848008070395" lon="12.284439568793497"><ele>484.79999999999995</ele><time>2026-03-23T11:34:33Z</time></trkpt><trkpt lat="46.02689256632223" lon="12.284513137807295"><ele>483.0</ele><time>2026-03-23T11:34:34Z</time></trkpt><trkpt lat="46.02685882328391" lon="12.284687015516454"><ele>481.4</ele><time>2026-03-23T11:34:36Z</time></trkpt><trkpt lat="46.02681871325358" lon="12.284808569378587"><ele>479.79999999999995</ele><time>2026-03-23T11:34:37Z</time></trkpt><trkpt lat="46.02678225870679" lon="12.284895912247967"><ele>478.2</ele><time>2026-03-23T11:34:38Z</time></trkpt><trkpt lat="46.02679677862995" lon="12.285036352782384"><ele>476.6</ele><time>2026-03-23T11:34:40Z</time></trkpt><trkpt lat="46.026859298961426" lon="12.285133302980633"><ele>475.0</ele><time>2026-03-23T11:34:41Z</time></trkpt><trkpt lat="46.02694552911193" lon="12.28523803810924"><ele>475.0</ele><time>2026-03-23T11:34:42Z</time></trkpt><trkpt lat="46.02706178544325" lon="12.285356619708526"><ele>475.0</ele><time>2026-03-23T11:34:43Z</time></trkpt><trkpt lat="46.0271879864195" lon="12.285495562818507"><ele>475.0</ele><time>2026-03-23T11:34:44Z</time></trkpt><trkpt lat="46.02728837737844" lon="12.28562463173446"><ele>475.0</ele><time>2026-03-23T11:34:45Z</time></trkpt><trkpt lat="46.0273703536292" lon="12.285753678610947"><ele>478.0</ele><time>2026-03-23T11:34:46Z</time></trkpt><trkpt lat="46.02743820073079" lon="12.285871454410936"><ele>481.0</ele><time>2026-03-23T11:34:47Z</time></trkpt><trkpt lat="46.027489742970005" lon="12.285986434577309"><ele>484.0</ele><time>2026-03-23T11:34:48Z</time></trkpt><trkpt lat="46.02752957722593" lon="12.286116414290337"><ele>487.0</ele><time>2026-03-23T11:34:49Z</time></trkpt><trkpt lat="46.02755880840761" lon="12.286247291077325"><ele>490.0</ele><time>2026-03-23T11:34:50Z</time></trkpt><trkpt lat="46.02758929960083" lon="12.286340570384807"><ele>490.00000000000006</ele><time>2026-03-23T11:34:51Z</time></trkpt><trkpt lat="46.02762786652501" lon="12.286418383929172"><ele>490.0</ele><time>2026-03-23T11:34:52Z</time></trkpt><trkpt lat="46.02769897870644" lon="12.286502277838855"><ele>490.0</ele><time>2026-03-23T11:34:52.998Z</time></trkpt><trkpt lat="46.02776234105103" lon="12.286587693590985"><ele>490.0</ele><time>2026-03-23T11:34:53.998Z</time></trkpt><trkpt lat="46.02781373204014" lon="12.286691853072478"><ele>490.00000000000006</ele><time>2026-03-23T11:34:54.998Z</time></trkpt><trkpt lat="46.027853416172505" lon="12.286821924501373"><ele>490.0</ele><time>2026-03-23T11:34:55.998Z</time></trkpt><trkpt lat="46.02787375699477" lon="12.286936176217862"><ele>485.00000000000006</ele><time>2026-03-23T11:34:56.998Z</time></trkpt><trkpt lat="46.027908574800726" lon="12.287030740480708"><ele>480.0</ele><time>2026-03-23T11:34:57.998Z</time></trkpt><trkpt lat="46.027950299550014" lon="12.287105776473515"><ele>475.0</ele><time>2026-03-23T11:34:58.998Z</time></trkpt><trkpt lat="46.0280314434803" lon="12.28723221649193"><ele>470.0</ele><time>2026-03-23T11:35:00.998Z</time></trkpt><trkpt lat="46.02808941796891" lon="12.287301601969219"><ele>465.00000000000006</ele><time>2026-03-23T11:35:01.998Z</time></trkpt><trkpt lat="46.028165716066574" lon="12.287397129520947"><ele>460.0</ele><time>2026-03-23T11:35:02.998Z</time></trkpt><trkpt lat="46.02822976994474" lon="12.287496816964195"><ele>462.50000000000006</ele><time>2026-03-23T11:35:03.998Z</time></trkpt><trkpt lat="46.02829281215524" lon="12.287597740779558"><ele>465.0</ele><time>2026-03-23T11:35:04.998Z</time></trkpt><trkpt lat="46.02834979985075" lon="12.287682461588437"><ele>467.5</ele><time>2026-03-23T11:35:05.998Z</time></trkpt><trkpt lat="46.028415939661485" lon="12.287780180131612"><ele>470.0</ele><time>2026-03-23T11:35:06.998Z</time></trkpt><trkpt lat="46.02847427334944" lon="12.287867575773015"><ele>472.50000000000006</ele><time>2026-03-23T11:35:07.998Z</time></trkpt><trkpt lat="46.02853377984979" lon="12.287942631466299"><ele>475.0</ele><time>2026-03-23T11:35:08.999Z</time></trkpt><trkpt lat="46.02858555591455" lon="12.288006133294797"><ele>473.4</ele><time>2026-03-23T11:35:09.999Z</time></trkpt><trkpt lat="46.02865869216592" lon="12.28813092416566"><ele>471.8</ele><time>2026-03-23T11:35:11.999Z</time></trkpt><trkpt lat="46.028665201071895" lon="12.288242074998642"><ele>470.20000000000005</ele><time>2026-03-23T11:35:13.999Z</time></trkpt><trkpt lat="46.028615105522704" lon="12.288313695616592"><ele>468.6</ele><time>2026-03-23T11:35:15.999Z</time></trkpt><trkpt lat="46.02853864583048" lon="12.288437267123562"><ele>467.0</ele><time>2026-03-23T11:35:17.999Z</time></trkpt><trkpt lat="46.028491037405985" lon="12.28851803334636"><ele>466.99999999999994</ele><time>2026-03-23T11:35:18.999Z</time></trkpt><trkpt lat="46.02844257315023" lon="12.28859485058946"><ele>467.0</ele><time>2026-03-23T11:35:19.999Z</time></trkpt><trkpt lat="46.02839574954132" lon="12.288669164364453"><ele>467.0</ele><time>2026-03-23T11:35:20.999Z</time></trkpt><trkpt lat="46.02834701872887" lon="12.28875423581796"><ele>467.0</ele><time>2026-03-23T11:35:21.999Z</time></trkpt><trkpt lat="46.028307915659354" lon="12.288830478983128"><ele>466.99999999999994</ele><time>2026-03-23T11:35:22.999Z</time></trkpt><trkpt lat="46.0282730847861" lon="12.288983278003492"><ele>467.0</ele><time>2026-03-23T11:35:24.999Z</time></trkpt><trkpt lat="46.028256616067864" lon="12.289143301991325"><ele>466.66666666666663</ele><time>2026-03-23T11:35:26.999Z</time></trkpt><trkpt lat="46.028236796119785" lon="12.289247772148915"><ele>466.3333333333333</ele><time>2026-03-23T11:35:28.999Z</time></trkpt><trkpt lat="46.02824971624822" lon="12.289343028235788"><ele>466.0</ele><time>2026-03-23T11:35:30.999Z</time></trkpt><trkpt lat="46.02828161308222" lon="12.289447078904562"><ele>465.66666666666663</ele><time>2026-03-23T11:35:32.999Z</time></trkpt><trkpt lat="46.02830762734674" lon="12.289559475624566"><ele>465.3333333333333</ele><time>2026-03-23T11:35:34.999Z</time></trkpt><trkpt lat="46.028392250270485" lon="12.289692883515661"><ele>465.0</ele><time>2026-03-23T11:35:37Z</time></trkpt><trkpt lat="46.02846733081573" lon="12.289760318579715"><ele>461.2</ele><time>2026-03-23T11:35:38Z</time></trkpt><trkpt lat="46.02855944392491" lon="12.289829458680014"><ele>457.4</ele><time>2026-03-23T11:35:39Z</time></trkpt><trkpt lat="46.028650152478384" lon="12.28989372179215"><ele>453.6</ele><time>2026-03-23T11:35:40Z</time></trkpt><trkpt lat="46.02873972870593" lon="12.28997585199952"><ele>449.8</ele><time>2026-03-23T11:35:41Z</time></trkpt><trkpt lat="46.02882353152678" lon="12.290056940788155"><ele>446.0</ele><time>2026-03-23T11:35:42Z</time></trkpt><trkpt lat="46.02889812984218" lon="12.290148873660613"><ele>445.99999999999994</ele><time>2026-03-23T11:35:43Z</time></trkpt><trkpt lat="46.028966683341324" lon="12.290240806696145"><ele>446.0</ele><time>2026-03-23T11:35:44Z</time></trkpt><trkpt lat="46.02901922469477" lon="12.290341845020322"><ele>446.0</ele><time>2026-03-23T11:35:45Z</time></trkpt><trkpt lat="46.02905523764712" lon="12.290450728619852"><ele>446.0</ele><time>2026-03-23T11:35:46Z</time></trkpt><trkpt lat="46.029079328113355" lon="12.290565804222576"><ele>445.99999999999994</ele><time>2026-03-23T11:35:47Z</time></trkpt><trkpt lat="46.029099701605126" lon="12.290680799489483"><ele>446.0</ele><time>2026-03-23T11:35:48Z</time></trkpt><trkpt lat="46.02912676441331" lon="12.290808171668663"><ele>447.0</ele><time>2026-03-23T11:35:49Z</time></trkpt><trkpt lat="46.02916980286092" lon="12.29093448154813"><ele>448.0</ele><time>2026-03-23T11:35:50Z</time></trkpt><trkpt lat="46.02923139040108" lon="12.291082809289042"><ele>449.0</ele><time>2026-03-23T11:35:51Z</time></trkpt><trkpt lat="46.02929771526165" lon="12.291221606447968"><ele>450.0</ele><time>2026-03-23T11:35:52Z</time></trkpt><trkpt lat="46.02935685803193" lon="12.29135433671689"><ele>451.0</ele><time>2026-03-23T11:35:53Z</time></trkpt><trkpt lat="46.02941096710145" lon="12.291482228039058"><ele>446.75</ele><time>2026-03-23T11:35:54Z</time></trkpt><trkpt lat="46.02948392499296" lon="12.291621223008235"><ele>442.5</ele><time>2026-03-23T11:35:55Z</time></trkpt><trkpt lat="46.02955039964915" lon="12.291759838597764"><ele>438.25</ele><time>2026-03-23T11:35:56Z</time></trkpt><trkpt lat="46.02960150766573" lon="12.291906626604534"><ele>434.0</ele><time>2026-03-23T11:35:57Z</time></trkpt><trkpt lat="46.02964895322192" lon="12.29207253922436"><ele>434.0</ele><time>2026-03-23T11:35:58Z</time></trkpt><trkpt lat="46.02968231733554" lon="12.292220927062752"><ele>434.0</ele><time>2026-03-23T11:35:59Z</time></trkpt><trkpt lat="46.029721317999716" lon="12.292346798243887"><ele>434.0</ele><time>2026-03-23T11:36:00Z</time></trkpt><trkpt lat="46.0297895816329" lon="12.29245819870725"><ele>434.0</ele><time>2026-03-23T11:36:01Z</time></trkpt><trkpt lat="46.02988584864992" lon="12.292556937223614"><ele>434.0</ele><time>2026-03-23T11:36:02Z</time></trkpt><trkpt lat="46.03002582671561" lon="12.29265981663083"><ele>431.5</ele><time>2026-03-23T11:36:03Z</time></trkpt><trkpt lat="46.030157278976674" lon="12.292750940857765"><ele>429.0</ele><time>2026-03-23T11:36:04Z</time></trkpt><trkpt lat="46.030251624023144" lon="12.292856182951395"><ele>426.5</ele><time>2026-03-23T11:36:05Z</time></trkpt><trkpt lat="46.03034446400403" lon="12.293001804409895"><ele>424.0</ele><time>2026-03-23T11:36:06Z</time></trkpt><trkpt lat="46.030457205957454" lon="12.293169358757478"><ele>424.0</ele><time>2026-03-23T11:36:07Z</time></trkpt><trkpt lat="46.030557048719906" lon="12.293310586446566"><ele>424.0</ele><time>2026-03-23T11:36:08Z</time></trkpt><trkpt lat="46.03063305199334" lon="12.293443994658983"><ele>424.0</ele><time>2026-03-23T11:36:09Z</time></trkpt><trkpt lat="46.03069730853688" lon="12.293594339022466"><ele>424.0</ele><time>2026-03-23T11:36:10Z</time></trkpt><trkpt lat="46.03075535504703" lon="12.2937745516613"><ele>426.0</ele><time>2026-03-23T11:36:11Z</time></trkpt><trkpt lat="46.0308117572818" lon="12.29395845448237"><ele>428.0</ele><time>2026-03-23T11:36:12Z</time></trkpt><trkpt lat="46.030858121714786" lon="12.294137621135508"><ele>430.0</ele><time>2026-03-23T11:36:13Z</time></trkpt><trkpt lat="46.030895130726144" lon="12.2943039660057"><ele>432.0</ele><time>2026-03-23T11:36:14Z</time></trkpt><trkpt lat="46.03092613757664" lon="12.294456792082116"><ele>432.0</ele><time>2026-03-23T11:36:15Z</time></trkpt><trkpt lat="46.03095189646196" lon="12.29459650606763"><ele>432.0</ele><time>2026-03-23T11:36:16Z</time></trkpt><trkpt lat="46.03097175810732" lon="12.294727099831047"><ele>432.0</ele><time>2026-03-23T11:36:17Z</time></trkpt><trkpt lat="46.03098322649302" lon="12.294830768904173"><ele>432.0</ele><time>2026-03-23T11:36:18Z</time></trkpt><trkpt lat="46.03098143973701" lon="12.294945320312667"><ele>432.0</ele><time>2026-03-23T11:36:20Z</time></trkpt><trkpt lat="46.0310062146896" lon="12.295065690640072"><ele>432.0</ele><time>2026-03-23T11:36:27Z</time></trkpt><trkpt lat="46.03107487439856" lon="12.295113826087777"><ele>429.40000000000003</ele><time>2026-03-23T11:36:28Z</time></trkpt><trkpt lat="46.03113940027136" lon="12.295181290960324"><ele>426.80000000000007</ele><time>2026-03-23T11:36:29Z</time></trkpt><trkpt lat="46.031217306827706" lon="12.295269836995416"><ele>424.2</ele><time>2026-03-23T11:36:30Z</time></trkpt><trkpt lat="46.03130248884017" lon="12.295344055902586"><ele>421.6</ele><time>2026-03-23T11:36:31Z</time></trkpt><trkpt lat="46.03137752989817" lon="12.295414390621847"><ele>419.0</ele><time>2026-03-23T11:36:32Z</time></trkpt><trkpt lat="46.031452033345005" lon="12.295498887885834"><ele>421.4</ele><time>2026-03-23T11:36:33Z</time></trkpt><trkpt lat="46.0315265143015" lon="12.295590555128992"><ele>423.79999999999995</ele><time>2026-03-23T11:36:34Z</time></trkpt><trkpt lat="46.03161175998185" lon="12.29569745321891"><ele>426.20000000000005</ele><time>2026-03-23T11:36:35Z</time></trkpt><trkpt lat="46.03167935541375" lon="12.295812408584142"><ele>428.6</ele><time>2026-03-23T11:36:36Z</time></trkpt><trkpt lat="46.03174724080893" lon="12.295932676125577"><ele>431.0</ele><time>2026-03-23T11:36:37Z</time></trkpt><trkpt lat="46.03182160197646" lon="12.296030486091238"><ele>430.99999999999994</ele><time>2026-03-23T11:36:38.001Z</time></trkpt><trkpt lat="46.031900474015885" lon="12.29611091628861"><ele>431.0</ele><time>2026-03-23T11:36:39.001Z</time></trkpt><trkpt lat="46.03197798477477" lon="12.296186084165702"><ele>431.0</ele><time>2026-03-23T11:36:40.001Z</time></trkpt><trkpt lat="46.03205283467158" lon="12.296239492211276"><ele>431.0</ele><time>2026-03-23T11:36:41.001Z</time></trkpt><trkpt lat="46.03213542769222" lon="12.296291967998066"><ele>430.99999999999994</ele><time>2026-03-23T11:36:42.001Z</time></trkpt><trkpt lat="46.03219816520977" lon="12.29631414646857"><ele>431.0</ele><time>2026-03-23T11:36:43.001Z</time></trkpt><trkpt lat="46.032264204081955" lon="12.296322355339493"><ele>430.99999999999994</ele><time>2026-03-23T11:36:44.001Z</time></trkpt><trkpt lat="46.032354201550866" lon="12.296347193246449"><ele>431.0</ele><time>2026-03-23T11:36:45.001Z</time></trkpt><trkpt lat="46.03245838366895" lon="12.296371313482645"><ele>431.0</ele><time>2026-03-23T11:36:46.001Z</time></trkpt><trkpt lat="46.032541503079074" lon="12.29638680593455"><ele>431.0</ele><time>2026-03-23T11:36:47.001Z</time></trkpt><trkpt lat="46.0326136137668" lon="12.296407001409852"><ele>430.99999999999994</ele><time>2026-03-23T11:36:48.001Z</time></trkpt><trkpt lat="46.032685732817406" lon="12.29643155921064"><ele>431.0</ele><time>2026-03-23T11:36:50.001Z</time></trkpt><trkpt lat="46.03275061281233" lon="12.296480272823866"><ele>429.8333333333333</ele><time>2026-03-23T11:36:52.001Z</time></trkpt><trkpt lat="46.032806138263396" lon="12.296526406835566"><ele>428.66666666666663</ele><time>2026-03-23T11:36:53.001Z</time></trkpt><trkpt lat="46.032859438167165" lon="12.29657580161323"><ele>427.5</ele><time>2026-03-23T11:36:54.001Z</time></trkpt><trkpt lat="46.032969181855016" lon="12.296652514655074"><ele>426.33333333333337</ele><time>2026-03-23T11:36:56.001Z</time></trkpt><trkpt lat="46.03302503069779" lon="12.29671767126411"><ele>425.1666666666667</ele><time>2026-03-23T11:36:57.001Z</time></trkpt><trkpt lat="46.0330956273846" lon="12.296789279556139"><ele>424.0</ele><time>2026-03-23T11:36:58.001Z</time></trkpt><trkpt lat="46.03316711530819" lon="12.296856645581556"><ele>424.00000000000006</ele><time>2026-03-23T11:36:58.999Z</time></trkpt><trkpt lat="46.03324659342945" lon="12.296937072732392"><ele>424.0</ele><time>2026-03-23T11:36:59.999Z</time></trkpt><trkpt lat="46.033320604408885" lon="12.297031679611539"><ele>424.0</ele><time>2026-03-23T11:37:00.999Z</time></trkpt><trkpt lat="46.033380209114505" lon="12.297121962336071"><ele>424.0</ele><time>2026-03-23T11:37:01.999Z</time></trkpt><trkpt lat="46.033433608937564" lon="12.297213038396572"><ele>424.00000000000006</ele><time>2026-03-23T11:37:02.999Z</time></trkpt><trkpt lat="46.033492607227515" lon="12.297277842560613"><ele>424.0</ele><time>2026-03-23T11:37:03.999Z</time></trkpt><trkpt lat="46.033555707996925" lon="12.29735477309565"><ele>422.4</ele><time>2026-03-23T11:37:04.999Z</time></trkpt><trkpt lat="46.03362055344147" lon="12.297477675455946"><ele>420.79999999999995</ele><time>2026-03-23T11:37:06.999Z</time></trkpt><trkpt lat="46.03367983823747" lon="12.297552916016187"><ele>419.20000000000005</ele><time>2026-03-23T11:37:08.999Z</time></trkpt><trkpt lat="46.03372276594695" lon="12.297677690042253"><ele>417.6</ele><time>2026-03-23T11:37:10.999Z</time></trkpt><trkpt lat="46.03373466225825" lon="12.297838614410956"><ele>416.0</ele><time>2026-03-23T11:37:12.999Z</time></trkpt><trkpt lat="46.03372017755203" lon="12.298010519525254"><ele>410.8</ele><time>2026-03-23T11:37:14.999Z</time></trkpt><trkpt lat="46.03375843255238" lon="12.298146966390295"><ele>405.6</ele><time>2026-03-23T11:37:16.999Z</time></trkpt><trkpt lat="46.033792678309986" lon="12.298228856430727"><ele>400.4</ele><time>2026-03-23T11:37:17.999Z</time></trkpt><trkpt lat="46.03389031637864" lon="12.298339787023005"><ele>395.2</ele><time>2026-03-23T11:37:20Z</time></trkpt><trkpt lat="46.03398619038549" lon="12.298453278349044"><ele>390.0</ele><time>2026-03-23T11:37:22Z</time></trkpt><trkpt lat="46.034085524285615" lon="12.298552304982184"><ele>392.42857142857144</ele><time>2026-03-23T11:37:24Z</time></trkpt><trkpt lat="46.03414085748299" lon="12.298606605124657"><ele>394.85714285714283</ele><time>2026-03-23T11:37:25Z</time></trkpt><trkpt lat="46.03420397812995" lon="12.298659519323849"><ele>397.28571428571433</ele><time>2026-03-23T11:37:26Z</time></trkpt><trkpt lat="46.03425992553787" lon="12.298701369121645"><ele>399.7142857142857</ele><time>2026-03-23T11:37:27Z</time></trkpt><trkpt lat="46.034323632568835" lon="12.298749200090148"><ele>402.14285714285717</ele><time>2026-03-23T11:37:28Z</time></trkpt><trkpt lat="46.034381115349156" lon="12.298795974476189"><ele>404.5714285714286</ele><time>2026-03-23T11:37:29Z</time></trkpt><trkpt lat="46.03444359776126" lon="12.298833625669431"><ele>407.0</ele><time>2026-03-23T11:37:30Z</time></trkpt><trkpt lat="46.034503765364114" lon="12.298884160444766"><ele>401.8333333333333</ele><time>2026-03-23T11:37:31Z</time></trkpt><trkpt lat="46.03457061800853" lon="12.298920691076185"><ele>396.66666666666663</ele><time>2026-03-23T11:37:32Z</time></trkpt><trkpt lat="46.03462134463551" lon="12.298983067673982"><ele>391.5</ele><time>2026-03-23T11:37:33Z</time></trkpt><trkpt lat="46.034673103174626" lon="12.299036774751931"><ele>386.3333333333333</ele><time>2026-03-23T11:37:34Z</time></trkpt><trkpt lat="46.03472688539519" lon="12.299086068422064"><ele>381.16666666666663</ele><time>2026-03-23T11:37:35Z</time></trkpt><trkpt lat="46.03483900041754" lon="12.299169488263392"><ele>376.0</ele><time>2026-03-23T11:37:37Z</time></trkpt><trkpt lat="46.03493071426177" lon="12.299275838706858"><ele>378.0</ele><time>2026-03-23T11:37:39Z</time></trkpt><trkpt lat="46.035021161668055" lon="12.299365433479196"><ele>380.0</ele><time>2026-03-23T11:37:41Z</time></trkpt><trkpt lat="46.035102712897796" lon="12.299454982959245"><ele>382.0</ele><time>2026-03-23T11:37:43Z</time></trkpt><trkpt lat="46.03519611778543" lon="12.299515704297582"><ele>384.0</ele><time>2026-03-23T11:37:45Z</time></trkpt><trkpt lat="46.03527975544767" lon="12.29955659156395"><ele>386.0</ele><time>2026-03-23T11:37:47Z</time></trkpt><trkpt lat="46.03536546123816" lon="12.299551939661487"><ele>385.99999999999994</ele><time>2026-03-23T11:37:49Z</time></trkpt><trkpt lat="46.03545505134235" lon="12.299593262440904"><ele>386.0</ele><time>2026-03-23T11:37:51Z</time></trkpt><trkpt lat="46.03557097515233" lon="12.299633863801308"><ele>386.0</ele><time>2026-03-23T11:37:53Z</time></trkpt><trkpt lat="46.03565911973714" lon="12.29966848220651"><ele>386.0</ele><time>2026-03-23T11:37:55Z</time></trkpt><trkpt lat="46.03572202950769" lon="12.299683883424347"><ele>385.99999999999994</ele><time>2026-03-23T11:37:57Z</time></trkpt><trkpt lat="46.03578181385558" lon="12.29971692926276"><ele>386.0</ele><time>2026-03-23T11:38:13.001Z</time></trkpt><trkpt lat="46.03586485733572" lon="12.299756309025424"><ele>381.49999999999994</ele><time>2026-03-23T11:38:15.001Z</time></trkpt><trkpt lat="46.03598057471782" lon="12.299826798311454"><ele>377.0</ele><time>2026-03-23T11:38:17.001Z</time></trkpt><trkpt lat="46.03604267092626" lon="12.299887993627754"><ele>372.5</ele><time>2026-03-23T11:38:18.001Z</time></trkpt><trkpt lat="46.036102729057156" lon="12.299941843474992"><ele>368.0</ele><time>2026-03-23T11:38:19.001Z</time></trkpt><trkpt lat="46.036161586684734" lon="12.299980506141363"><ele>363.5</ele><time>2026-03-23T11:38:20.001Z</time></trkpt><trkpt lat="46.03622557232895" lon="12.30000128348222"><ele>359.0</ele><time>2026-03-23T11:38:21.001Z</time></trkpt><trkpt lat="46.03634725359531" lon="12.30004199279658"><ele>359.0</ele><time>2026-03-23T11:38:23.001Z</time></trkpt><trkpt lat="46.03639982296683" lon="12.300092574442155"><ele>359.0</ele><time>2026-03-23T11:38:24.001Z</time></trkpt><trkpt lat="46.03648625888622" lon="12.300228106545841"><ele>359.0</ele><time>2026-03-23T11:38:26.001Z</time></trkpt><trkpt lat="46.03656135377288" lon="12.300300905509856"><ele>359.0</ele><time>2026-03-23T11:38:27.001Z</time></trkpt><trkpt lat="46.03663373775028" lon="12.300349999014772"><ele>359.0</ele><time>2026-03-23T11:38:28.001Z</time></trkpt><trkpt lat="46.036706598597036" lon="12.300406785795468"><ele>359.0</ele><time>2026-03-23T11:38:29.001Z</time></trkpt><trkpt lat="46.036766037264044" lon="12.300465312872237"><ele>359.6666666666667</ele><time>2026-03-23T11:38:30.001Z</time></trkpt><trkpt lat="46.036838589171964" lon="12.300508354135939"><ele>360.33333333333337</ele><time>2026-03-23T11:38:31.001Z</time></trkpt><trkpt lat="46.036890497171875" lon="12.300562553673794"><ele>361.0</ele><time>2026-03-23T11:38:32.001Z</time></trkpt><trkpt lat="46.03694705555993" lon="12.300602741891055"><ele>361.6666666666667</ele><time>2026-03-23T11:38:33.001Z</time></trkpt><trkpt lat="46.03699343085461" lon="12.300676450638454"><ele>362.3333333333333</ele><time>2026-03-23T11:38:34.001Z</time></trkpt><trkpt lat="46.03707858182675" lon="12.30078611864317"><ele>363.0</ele><time>2026-03-23T11:38:36.001Z</time></trkpt><trkpt lat="46.03714836239622" lon="12.30089326409917"><ele>356.3333333333333</ele><time>2026-03-23T11:38:38.001Z</time></trkpt><trkpt lat="46.037216844731596" lon="12.30098299136892"><ele>349.6666666666667</ele><time>2026-03-23T11:38:40.001Z</time></trkpt><trkpt lat="46.037276162516925" lon="12.30106247549995"><ele>343.0</ele><time>2026-03-23T11:38:42.001Z</time></trkpt><trkpt lat="46.03729813205613" lon="12.301153347057657"><ele>336.33333333333337</ele><time>2026-03-23T11:38:44.001Z</time></trkpt><trkpt lat="46.03733901841398" lon="12.301248669639348"><ele>329.6666666666667</ele><time>2026-03-23T11:38:46.001Z</time></trkpt><trkpt lat="46.037383754443944" lon="12.301327732896931"><ele>323.0</ele><time>2026-03-23T11:38:48.001Z</time></trkpt><trkpt lat="46.037417017959385" lon="12.301419282352347"><ele>318.59999999999997</ele><time>2026-03-23T11:38:50.001Z</time></trkpt><trkpt lat="46.037426362814685" lon="12.30151401351651"><ele>314.2</ele><time>2026-03-23T11:38:52.001Z</time></trkpt><trkpt lat="46.037444127616" lon="12.30165627298176"><ele>309.8</ele><time>2026-03-23T11:38:54.001Z</time></trkpt><trkpt lat="46.03748485861509" lon="12.301822683408375"><ele>305.4</ele><time>2026-03-23T11:38:56.001Z</time></trkpt><trkpt lat="46.03751677566526" lon="12.30197387079072"><ele>301.0</ele><time>2026-03-23T11:38:58.001Z</time></trkpt><trkpt lat="46.03758198036908" lon="12.302099642965473"><ele>301.0</ele><time>2026-03-23T11:39:00.001Z</time></trkpt><trkpt lat="46.03767522397792" lon="12.302196481039596"><ele>301.0</ele><time>2026-03-23T11:39:02.001Z</time></trkpt><trkpt lat="46.037715072296855" lon="12.302267481204819"><ele>301.0</ele><time>2026-03-23T11:39:03.001Z</time></trkpt><trkpt lat="46.037793785710605" lon="12.302377257963094"><ele>301.0</ele><time>2026-03-23T11:39:05Z</time></trkpt><trkpt lat="46.03787508421154" lon="12.302510021174957"><ele>301.0</ele><time>2026-03-23T11:39:07Z</time></trkpt><trkpt lat="46.03794094800281" lon="12.302612585510413"><ele>296.8333333333333</ele><time>2026-03-23T11:39:09Z</time></trkpt><trkpt lat="46.03802728273009" lon="12.30269762356472"><ele>292.66666666666663</ele><time>2026-03-23T11:39:11Z</time></trkpt><trkpt lat="46.03809643599121" lon="12.302775823208906"><ele>288.5</ele><time>2026-03-23T11:39:13Z</time></trkpt><trkpt lat="46.038163311689324" lon="12.302833394547513"><ele>284.3333333333333</ele><time>2026-03-23T11:39:14Z</time></trkpt><trkpt lat="46.03821628135709" lon="12.302887030567007"><ele>280.1666666666667</ele><time>2026-03-23T11:39:15Z</time></trkpt><trkpt lat="46.038299533696325" lon="12.302992458565775"><ele>276.0</ele><time>2026-03-23T11:39:17Z</time></trkpt><trkpt lat="46.03839130699684" lon="12.303091646220329"><ele>275.0</ele><time>2026-03-23T11:39:19Z</time></trkpt><trkpt lat="46.03845504635612" lon="12.303166807683418"><ele>274.0</ele><time>2026-03-23T11:39:20Z</time></trkpt><trkpt lat="46.038566439549406" lon="12.303277736336486"><ele>273.0</ele><time>2026-03-23T11:39:22Z</time></trkpt><trkpt lat="46.03862792730715" lon="12.303342493842845"><ele>272.0</ele><time>2026-03-23T11:39:23Z</time></trkpt><trkpt lat="46.0386843976993" lon="12.303417311692824"><ele>271.0</ele><time>2026-03-23T11:39:24Z</time></trkpt><trkpt lat="46.038730151217464" lon="12.303492487364355"><ele>270.0</ele><time>2026-03-23T11:39:25Z</time></trkpt><trkpt lat="46.03878497496473" lon="12.303656151088635"><ele>270.0</ele><time>2026-03-23T11:39:27Z</time></trkpt><trkpt lat="46.038839705460035" lon="12.303808558504272"><ele>270.0</ele><time>2026-03-23T11:39:29Z</time></trkpt><trkpt lat="46.03886341973214" lon="12.303933406308042"><ele>270.0</ele><time>2026-03-23T11:39:31Z</time></trkpt><trkpt lat="46.03883781164105" lon="12.303809515626236"><ele>270.0</ele><time>2026-03-23T11:39:44Z</time></trkpt><trkpt lat="46.03877946488692" lon="12.303657973172825"><ele>270.0</ele><time>2026-03-23T11:39:46Z</time></trkpt><trkpt lat="46.038752411483166" lon="12.303568155182433"><ele>270.0</ele><time>2026-03-23T11:39:47Z</time></trkpt><trkpt lat="46.038720185245396" lon="12.303479158188717"><ele>270.0</ele><time>2026-03-23T11:39:48Z</time></trkpt><trkpt lat="46.03866717752183" lon="12.303380669040942"><ele>270.0</ele><time>2026-03-23T11:39:49Z</time></trkpt><trkpt lat="46.03859008680826" lon="12.303301411979632"><ele>270.0</ele><time>2026-03-23T11:39:50Z</time></trkpt><trkpt lat="46.038515249860964" lon="12.303231331319354"><ele>270.0</ele><time>2026-03-23T11:39:51Z</time></trkpt><trkpt lat="46.03843106257668" lon="12.303161790843797"><ele>270.0</ele><time>2026-03-23T11:39:52Z</time></trkpt><trkpt lat="46.03834752827477" lon="12.30310970931665"><ele>271.0</ele><time>2026-03-23T11:39:53Z</time></trkpt><trkpt lat="46.03828328333566" lon="12.303024317507829"><ele>272.0</ele><time>2026-03-23T11:39:54Z</time></trkpt><trkpt lat="46.038226411284946" lon="12.302920155334185"><ele>273.0</ele><time>2026-03-23T11:39:55Z</time></trkpt><trkpt lat="46.03815749776651" lon="12.30282868101988"><ele>274.0</ele><time>2026-03-23T11:39:56Z</time></trkpt><trkpt lat="46.03808846599586" lon="12.30276949884968"><ele>275.0</ele><time>2026-03-23T11:39:57Z</time></trkpt><trkpt lat="46.03802359026371" lon="12.302696287284329"><ele>276.0</ele><time>2026-03-23T11:39:58Z</time></trkpt><trkpt lat="46.03794816724219" lon="12.302625983821372"><ele>276.0</ele><time>2026-03-23T11:39:59.001Z</time></trkpt><trkpt lat="46.03789339038318" lon="12.302544458492044"><ele>276.0</ele><time>2026-03-23T11:40:00.001Z</time></trkpt><trkpt lat="46.0378348165564" lon="12.302466278193837"><ele>276.0</ele><time>2026-03-23T11:40:01.001Z</time></trkpt><trkpt lat="46.037768860376744" lon="12.302372863420617"><ele>276.0</ele><time>2026-03-23T11:40:02.001Z</time></trkpt><trkpt lat="46.03771204030812" lon="12.30229603837588"><ele>276.0</ele><time>2026-03-23T11:40:03.001Z</time></trkpt><trkpt lat="46.037664347278856" lon="12.302198296533918"><ele>276.0</ele><time>2026-03-23T11:40:04.001Z</time></trkpt><trkpt lat="46.03761546575944" lon="12.302122392348418"><ele>277.6666666666667</ele><time>2026-03-23T11:40:05.001Z</time></trkpt><trkpt lat="46.03756359789067" lon="12.302042472636957"><ele>279.3333333333333</ele><time>2026-03-23T11:40:06.001Z</time></trkpt><trkpt lat="46.03751833187033" lon="12.301954501016148"><ele>281.0</ele><time>2026-03-23T11:40:07.001Z</time></trkpt><trkpt lat="46.03750072755489" lon="12.301867099420017"><ele>282.66666666666663</ele><time>2026-03-23T11:40:08.001Z</time></trkpt><trkpt lat="46.0374930092516" lon="12.301750022314371"><ele>284.3333333333333</ele><time>2026-03-23T11:40:09.001Z</time></trkpt><trkpt lat="46.03746234750605" lon="12.301633720495674"><ele>286.0</ele><time>2026-03-23T11:40:10.001Z</time></trkpt><trkpt lat="46.03743846301723" lon="12.301515360532582"><ele>292.16666666666663</ele><time>2026-03-23T11:40:11.001Z</time></trkpt><trkpt lat="46.03741975418357" lon="12.301393103501672"><ele>298.3333333333333</ele><time>2026-03-23T11:40:12.001Z</time></trkpt><trkpt lat="46.03740568927631" lon="12.301298931738584"><ele>304.5</ele><time>2026-03-23T11:40:13.001Z</time></trkpt><trkpt lat="46.0373639797281" lon="12.301211191390026"><ele>310.6666666666667</ele><time>2026-03-23T11:40:14.001Z</time></trkpt><trkpt lat="46.03732231667976" lon="12.301132127993817"><ele>316.83333333333337</ele><time>2026-03-23T11:40:15.001Z</time></trkpt><trkpt lat="46.037269567134956" lon="12.30102308023236"><ele>323.0</ele><time>2026-03-23T11:40:16.001Z</time></trkpt><trkpt lat="46.03721127191893" lon="12.300923079305075"><ele>323.0</ele><time>2026-03-23T11:40:17.001Z</time></trkpt><trkpt lat="46.03713556106509" lon="12.300847667413757"><ele>323.0</ele><time>2026-03-23T11:40:18.001Z</time></trkpt><trkpt lat="46.037065011453066" lon="12.300757793799074"><ele>323.0</ele><time>2026-03-23T11:40:19.001Z</time></trkpt><trkpt lat="46.03698744053982" lon="12.300652384313777"><ele>323.0</ele><time>2026-03-23T11:40:20.001Z</time></trkpt><trkpt lat="46.03690409067094" lon="12.30055107404663"><ele>323.0</ele><time>2026-03-23T11:40:21.001Z</time></trkpt><trkpt lat="46.036809410368186" lon="12.300461599402288"><ele>330.2</ele><time>2026-03-23T11:40:22.001Z</time></trkpt><trkpt lat="46.03670004365212" lon="12.300368818458393"><ele>337.4</ele><time>2026-03-23T11:40:23.001Z</time></trkpt><trkpt lat="46.03660764329485" lon="12.30030462571074"><ele>344.59999999999997</ele><time>2026-03-23T11:40:24.001Z</time></trkpt><trkpt lat="46.036529946508715" lon="12.300252632022213"><ele>351.79999999999995</ele><time>2026-03-23T11:40:25.001Z</time></trkpt><trkpt lat="46.03647144085709" lon="12.300190099235651"><ele>359.0</ele><time>2026-03-23T11:40:26.001Z</time></trkpt><trkpt lat="46.03640004193569" lon="12.300121150078942"><ele>359.0</ele><time>2026-03-23T11:40:27.001Z</time></trkpt><trkpt lat="46.03634779102353" lon="12.300059920319823"><ele>359.0</ele><time>2026-03-23T11:40:28.001Z</time></trkpt><trkpt lat="46.036292141182095" lon="12.299989244407076"><ele>359.0</ele><time>2026-03-23T11:40:29.001Z</time></trkpt><trkpt lat="46.03620514621571" lon="12.2999566178601"><ele>359.0</ele><time>2026-03-23T11:40:30.001Z</time></trkpt><trkpt lat="46.03610874207626" lon="12.299929282938207"><ele>359.0</ele><time>2026-03-23T11:40:31.001Z</time></trkpt><trkpt lat="46.03602588673851" lon="12.299898375135186"><ele>359.0</ele><time>2026-03-23T11:40:32.001Z</time></trkpt><trkpt lat="46.03597207126402" lon="12.299841365081226"><ele>364.4</ele><time>2026-03-23T11:40:33.001Z</time></trkpt><trkpt lat="46.035894199104824" lon="12.299748569457746"><ele>369.79999999999995</ele><time>2026-03-23T11:40:34.001Z</time></trkpt><trkpt lat="46.03583641399829" lon="12.29969346180009"><ele>375.20000000000005</ele><time>2026-03-23T11:40:35.001Z</time></trkpt><trkpt lat="46.03575045346939" lon="12.299695246827213"><ele>380.6</ele><time>2026-03-23T11:40:36.001Z</time></trkpt><trkpt lat="46.03565823950186" lon="12.299668202662401"><ele>386.0</ele><time>2026-03-23T11:40:37.001Z</time></trkpt><trkpt lat="46.03554661149794" lon="12.29963271028967"><ele>386.0</ele><time>2026-03-23T11:40:38.001Z</time></trkpt><trkpt lat="46.035456541568365" lon="12.299606935580167"><ele>386.0</ele><time>2026-03-23T11:40:39.001Z</time></trkpt><trkpt lat="46.035344087453225" lon="12.299552551903423"><ele>386.0</ele><time>2026-03-23T11:40:41.001Z</time></trkpt><trkpt lat="46.03521701516401" lon="12.299544257915652"><ele>386.0</ele><time>2026-03-23T11:40:43.001Z</time></trkpt><trkpt lat="46.03515442250207" lon="12.299502487914742"><ele>386.0</ele><time>2026-03-23T11:40:44.001Z</time></trkpt><trkpt lat="46.03504488038054" lon="12.29941580310588"><ele>385.99999999999994</ele><time>2026-03-23T11:40:46.001Z</time></trkpt><trkpt lat="46.035112149893365" lon="12.299455702023117"><ele>386.0</ele><time>2026-03-23T11:41:06.002Z</time></trkpt><trkpt lat="46.03519030090387" lon="12.29948270912496"><ele>386.0</ele><time>2026-03-23T11:41:09.002Z</time></trkpt><trkpt lat="46.035255723526724" lon="12.299521292735573"><ele>386.0</ele><time>2026-03-23T11:41:11Z</time></trkpt><trkpt lat="46.035338415491296" lon="12.29953074335926"><ele>385.99999999999994</ele><time>2026-03-23T11:41:13Z</time></trkpt><trkpt lat="46.0354389259789" lon="12.299542688624642"><ele>386.0</ele><time>2026-03-23T11:41:15Z</time></trkpt><trkpt lat="46.035542567278085" lon="12.299599542594644"><ele>386.0</ele><time>2026-03-23T11:41:17.001Z</time></trkpt><trkpt lat="46.03564579871945" lon="12.299664256216419"><ele>386.0</ele><time>2026-03-23T11:41:19.001Z</time></trkpt><trkpt lat="46.035710743975706" lon="12.29966432659623"><ele>386.0</ele><time>2026-03-23T11:41:20.001Z</time></trkpt><trkpt lat="46.035799927442156" lon="12.299698273501809"><ele>386.0</ele><time>2026-03-23T11:41:22Z</time></trkpt><trkpt lat="46.035902640468684" lon="12.299763189716902"><ele>386.0</ele><time>2026-03-23T11:41:24Z</time></trkpt><trkpt lat="46.03597246713559" lon="12.299805676723695"><ele>381.49999999999994</ele><time>2026-03-23T11:41:25Z</time></trkpt><trkpt lat="46.03603157015873" lon="12.299851912770336"><ele>377.0</ele><time>2026-03-23T11:41:26.001Z</time></trkpt><trkpt lat="46.036088378683026" lon="12.299909601336088"><ele>372.5</ele><time>2026-03-23T11:41:27.001Z</time></trkpt><trkpt lat="46.03617712450231" lon="12.299983128155013"><ele>368.0</ele><time>2026-03-23T11:41:29.001Z</time></trkpt><trkpt lat="46.036295041406525" lon="12.299981058178606"><ele>363.5</ele><time>2026-03-23T11:41:31.001Z</time></trkpt><trkpt lat="46.036351608015195" lon="12.300023170550583"><ele>359.0</ele><time>2026-03-23T11:41:32.001Z</time></trkpt><trkpt lat="46.036426844906984" lon="12.300146893740667"><ele>359.0</ele><time>2026-03-23T11:41:34.001Z</time></trkpt><trkpt lat="46.036470208630746" lon="12.300216011904325"><ele>359.0</ele><time>2026-03-23T11:41:35.001Z</time></trkpt><trkpt lat="46.03658923816972" lon="12.300302985399805"><ele>359.0</ele><time>2026-03-23T11:41:37.001Z</time></trkpt><trkpt lat="46.03666278158698" lon="12.300367941971148"><ele>359.0</ele><time>2026-03-23T11:41:38.001Z</time></trkpt><trkpt lat="46.03673155636002" lon="12.300429617390918"><ele>359.0</ele><time>2026-03-23T11:41:39.001Z</time></trkpt><trkpt lat="46.03680026832227" lon="12.300488041317964"><ele>359.0</ele><time>2026-03-23T11:41:40.001Z</time></trkpt><trkpt lat="46.0368626477667" lon="12.300526174753724"><ele>351.79999999999995</ele><time>2026-03-23T11:41:41.001Z</time></trkpt><trkpt lat="46.036917659092026" lon="12.30058436351543"><ele>344.59999999999997</ele><time>2026-03-23T11:41:42.001Z</time></trkpt><trkpt lat="46.0370074052654" lon="12.300692453004874"><ele>337.4</ele><time>2026-03-23T11:41:44.001Z</time></trkpt><trkpt lat="46.037097386815645" lon="12.300788776293452"><ele>330.2</ele><time>2026-03-23T11:41:46.001Z</time></trkpt><trkpt lat="46.03718893566898" lon="12.300915643396346"><ele>323.0</ele><time>2026-03-23T11:41:48.001Z</time></trkpt><trkpt lat="46.03724115576482" lon="12.300980084983426"><ele>323.0</ele><time>2026-03-23T11:41:49.001Z</time></trkpt><trkpt lat="46.03730976827172" lon="12.301106225703483"><ele>323.0</ele><time>2026-03-23T11:41:51.001Z</time></trkpt><trkpt lat="46.03736139512657" lon="12.30125982156614"><ele>323.0</ele><time>2026-03-23T11:41:53.001Z</time></trkpt><trkpt lat="46.037415296465575" lon="12.30138755607563"><ele>323.0</ele><time>2026-03-23T11:41:55.001Z</time></trkpt><trkpt lat="46.03743190030936" lon="12.30156044213848"><ele>318.59999999999997</ele><time>2026-03-23T11:41:57.001Z</time></trkpt><trkpt lat="46.037457716978295" lon="12.30170944798449"><ele>314.2</ele><time>2026-03-23T11:41:59.001Z</time></trkpt><trkpt lat="46.03749063692187" lon="12.301802876592014"><ele>309.8</ele><time>2026-03-23T11:42:00.001Z</time></trkpt><trkpt lat="46.037531417640146" lon="12.30196932656645"><ele>305.4</ele><time>2026-03-23T11:42:02.001Z</time></trkpt><trkpt lat="46.03761005534059" lon="12.30211043205996"><ele>301.0</ele><time>2026-03-23T11:42:04.001Z</time></trkpt><trkpt lat="46.03766482582743" lon="12.302183656632184"><ele>296.8333333333333</ele><time>2026-03-23T11:42:05.001Z</time></trkpt><trkpt lat="46.037709993120664" lon="12.302259509930765"><ele>292.66666666666663</ele><time>2026-03-23T11:42:06.001Z</time></trkpt><trkpt lat="46.0377974227822" lon="12.302388905334725"><ele>288.5</ele><time>2026-03-23T11:42:08.001Z</time></trkpt><trkpt lat="46.03784610214152" lon="12.302454378965091"><ele>284.3333333333333</ele><time>2026-03-23T11:42:09.001Z</time></trkpt><trkpt lat="46.03789933875796" lon="12.302534315523712"><ele>280.1666666666667</ele><time>2026-03-23T11:42:10.001Z</time></trkpt><trkpt lat="46.03794821854825" lon="12.302599456899163"><ele>276.0</ele><time>2026-03-23T11:42:11.001Z</time></trkpt><trkpt lat="46.038042028197005" lon="12.302724407517537"><ele>276.0</ele><time>2026-03-23T11:42:13.001Z</time></trkpt><trkpt lat="46.03815496719506" lon="12.302817053473353"><ele>276.0</ele><time>2026-03-23T11:42:15.001Z</time></trkpt><trkpt lat="46.038211731893774" lon="12.302873134858585"><ele>276.0</ele><time>2026-03-23T11:42:16.001Z</time></trkpt><trkpt lat="46.038273381220606" lon="12.302945928273989"><ele>276.0</ele><time>2026-03-23T11:42:17.001Z</time></trkpt><trkpt lat="46.03833298806623" lon="12.303011223297421"><ele>276.0</ele><time>2026-03-23T11:42:18.001Z</time></trkpt><trkpt lat="46.03838382132983" lon="12.303096030597109"><ele>276.0</ele><time>2026-03-23T11:42:19.001Z</time></trkpt><trkpt lat="46.03844676418335" lon="12.303158259797287"><ele>275.0</ele><time>2026-03-23T11:42:20.001Z</time></trkpt><trkpt lat="46.03851003822083" lon="12.303228831290774"><ele>274.0</ele><time>2026-03-23T11:42:21.001Z</time></trkpt><trkpt lat="46.03857020002077" lon="12.303298363684794"><ele>273.0</ele><time>2026-03-23T11:42:22.001Z</time></trkpt><trkpt lat="46.03863342571301" lon="12.303362243462644"><ele>272.0</ele><time>2026-03-23T11:42:23.001Z</time></trkpt><trkpt lat="46.03869168096293" lon="12.303439743437083"><ele>271.0</ele><time>2026-03-23T11:42:24.001Z</time></trkpt><trkpt lat="46.03873857374744" lon="12.303530662244258"><ele>270.0</ele><time>2026-03-23T11:42:25.001Z</time></trkpt><trkpt lat="46.03877727718116" lon="12.30364620506852"><ele>270.0</ele><time>2026-03-23T11:42:26.001Z</time></trkpt><trkpt lat="46.03881029293051" lon="12.303760415915761"><ele>270.0</ele><time>2026-03-23T11:42:27.001Z</time></trkpt><trkpt lat="46.03884694418538" lon="12.303852053947384"><ele>270.0</ele><time>2026-03-23T11:42:28.001Z</time></trkpt><trkpt lat="46.038882019560596" lon="12.303941911638644"><ele>270.0</ele><time>2026-03-23T11:42:29.001Z</time></trkpt><trkpt lat="46.03893199493032" lon="12.304007279926507"><ele>270.0</ele><time>2026-03-23T11:42:30.001Z</time></trkpt><trkpt lat="46.039013088938546" lon="12.304087055959718"><ele>270.0</ele><time>2026-03-23T11:42:31.001Z</time></trkpt><trkpt lat="46.03911745049082" lon="12.30416637380348"><ele>269.4</ele><time>2026-03-23T11:42:32.001Z</time></trkpt><trkpt lat="46.039216778440334" lon="12.30423210183956"><ele>268.8</ele><time>2026-03-23T11:42:33.001Z</time></trkpt><trkpt lat="46.03929336685868" lon="12.304309708629646"><ele>268.2</ele><time>2026-03-23T11:42:34.001Z</time></trkpt><trkpt lat="46.03937637076445" lon="12.3044201976973"><ele>267.6</ele><time>2026-03-23T11:42:35.001Z</time></trkpt><trkpt lat="46.039458596717814" lon="12.304533868952067"><ele>267.0</ele><time>2026-03-23T11:42:36.001Z</time></trkpt><trkpt lat="46.03954666339092" lon="12.304620587715686"><ele>267.0</ele><time>2026-03-23T11:42:37.001Z</time></trkpt><trkpt lat="46.03963435247316" lon="12.304699030182643"><ele>267.0</ele><time>2026-03-23T11:42:38.002Z</time></trkpt><trkpt lat="46.0397349797063" lon="12.304784867136243"><ele>267.0</ele><time>2026-03-23T11:42:39.002Z</time></trkpt><trkpt lat="46.0398216933071" lon="12.304853368252306"><ele>267.0</ele><time>2026-03-23T11:42:40.002Z</time></trkpt><trkpt lat="46.03989792365181" lon="12.304927092647098"><ele>267.0</ele><time>2026-03-23T11:42:41.002Z</time></trkpt><trkpt lat="46.03996818334494" lon="12.304989034406518"><ele>265.4</ele><time>2026-03-23T11:42:42.002Z</time></trkpt><trkpt lat="46.040041905993206" lon="12.305037111100747"><ele>263.79999999999995</ele><time>2026-03-23T11:42:43.002Z</time></trkpt><trkpt lat="46.04011373262688" lon="12.305071673823532"><ele>262.2</ele><time>2026-03-23T11:42:44.002Z</time></trkpt><trkpt lat="46.04022694835135" lon="12.305102866387243"><ele>260.59999999999997</ele><time>2026-03-23T11:42:45.002Z</time></trkpt><trkpt lat="46.04033576084015" lon="12.305127092294443"><ele>259.0</ele><time>2026-03-23T11:42:46.002Z</time></trkpt><trkpt lat="46.04042198599426" lon="12.305138278326309"><ele>259.0</ele><time>2026-03-23T11:42:47.002Z</time></trkpt><trkpt lat="46.040495106677376" lon="12.305153361175291"><ele>259.0</ele><time>2026-03-23T11:42:48.002Z</time></trkpt><trkpt lat="46.040588659786614" lon="12.30518863030363"><ele>259.0</ele><time>2026-03-23T11:42:50.002Z</time></trkpt><trkpt lat="46.04055671908732" lon="12.305268789406956"><ele>259.0</ele><time>2026-03-23T11:42:55.002Z</time></trkpt><trkpt lat="46.040597520718315" lon="12.305154464068812"><ele>259.0</ele><time>2026-03-23T11:44:29.001Z</time></trkpt><trkpt lat="46.04067116123448" lon="12.305122334089061"><ele>259.0</ele><time>2026-03-23T11:44:31.001Z</time></trkpt><trkpt lat="46.04076492722503" lon="12.305111244541665"><ele>260.8333333333333</ele><time>2026-03-23T11:44:33.001Z</time></trkpt><trkpt lat="46.04085739627035" lon="12.30509879888113"><ele>262.66666666666663</ele><time>2026-03-23T11:44:35.001Z</time></trkpt><trkpt lat="46.04093433874425" lon="12.305090132751788"><ele>264.5</ele><time>2026-03-23T11:44:37.001Z</time></trkpt><trkpt lat="46.040999369210304" lon="12.305071457477581"><ele>266.3333333333333</ele><time>2026-03-23T11:44:39.001Z</time></trkpt><trkpt lat="46.04106794886869" lon="12.30504706010107"><ele>268.1666666666667</ele><time>2026-03-23T11:44:41.001Z</time></trkpt><trkpt lat="46.041146186648575" lon="12.305020266542973"><ele>270.0</ele><time>2026-03-23T11:44:43.001Z</time></trkpt><trkpt lat="46.04122305387293" lon="12.30500713726618"><ele>270.0</ele><time>2026-03-23T11:44:45.001Z</time></trkpt><trkpt lat="46.04133595153379" lon="12.305057957211424"><ele>270.0</ele><time>2026-03-23T11:44:47.001Z</time></trkpt><trkpt lat="46.041400914495455" lon="12.30510254370956"><ele>270.0</ele><time>2026-03-23T11:44:48.001Z</time></trkpt><trkpt lat="46.04146152385971" lon="12.305143744480098"><ele>270.0</ele><time>2026-03-23T11:44:49.001Z</time></trkpt><trkpt lat="46.04156172870034" lon="12.305202564117845"><ele>270.0</ele><time>2026-03-23T11:44:51.001Z</time></trkpt><trkpt lat="46.04165099974633" lon="12.305292638943222"><ele>270.6</ele><time>2026-03-23T11:44:53.001Z</time></trkpt><trkpt lat="46.04171144020337" lon="12.305412034087128"><ele>271.2</ele><time>2026-03-23T11:44:55.002Z</time></trkpt><trkpt lat="46.041742241337175" lon="12.305495583675048"><ele>271.8</ele><time>2026-03-23T11:44:57.002Z</time></trkpt><trkpt lat="46.04181039968618" lon="12.305658712691034"><ele>272.4</ele><time>2026-03-23T11:44:59.002Z</time></trkpt><trkpt lat="46.04184518989985" lon="12.305756123057904"><ele>273.0</ele><time>2026-03-23T11:45:00.002Z</time></trkpt><trkpt lat="46.04187304014602" lon="12.305863585063907"><ele>269.8333333333333</ele><time>2026-03-23T11:45:01.002Z</time></trkpt><trkpt lat="46.04189217282121" lon="12.305975960866576"><ele>266.6666666666667</ele><time>2026-03-23T11:45:02.002Z</time></trkpt><trkpt lat="46.0419085402162" lon="12.306078272129824"><ele>263.5</ele><time>2026-03-23T11:45:03.002Z</time></trkpt><trkpt lat="46.041926982503924" lon="12.306175020472487"><ele>260.33333333333337</ele><time>2026-03-23T11:45:04.002Z</time></trkpt><trkpt lat="46.04194265191737" lon="12.30628481027275"><ele>257.1666666666667</ele><time>2026-03-23T11:45:05.002Z</time></trkpt><trkpt lat="46.041956246285324" lon="12.30639524989346"><ele>254.0</ele><time>2026-03-23T11:45:06.002Z</time></trkpt><trkpt lat="46.04198885961253" lon="12.306490996770279"><ele>252.0</ele><time>2026-03-23T11:45:07.002Z</time></trkpt><trkpt lat="46.04202308036929" lon="12.306585574757017"><ele>249.99999999999997</ele><time>2026-03-23T11:45:08.002Z</time></trkpt><trkpt lat="46.04206327676333" lon="12.306671427915"><ele>247.99999999999997</ele><time>2026-03-23T11:45:09.002Z</time></trkpt><trkpt lat="46.04215122381697" lon="12.306784977860604"><ele>246.0</ele><time>2026-03-23T11:45:11.002Z</time></trkpt><trkpt lat="46.04224468952873" lon="12.306878810333684"><ele>244.0</ele><time>2026-03-23T11:45:13.002Z</time></trkpt><trkpt lat="46.042340475795584" lon="12.306947455406616"><ele>243.99999999999997</ele><time>2026-03-23T11:45:15.002Z</time></trkpt><trkpt lat="46.04243948576493" lon="12.306986696900875"><ele>244.0</ele><time>2026-03-23T11:45:17.002Z</time></trkpt><trkpt lat="46.04252443122367" lon="12.307025422048161"><ele>244.0</ele><time>2026-03-23T11:45:19.002Z</time></trkpt><trkpt lat="46.04252219801604" lon="12.307194995653086"><ele>244.0</ele><time>2026-03-23T11:45:30.001Z</time></trkpt><trkpt lat="46.04248514580139" lon="12.30726877948415"><ele>243.99999999999997</ele><time>2026-03-23T11:45:31.001Z</time></trkpt><trkpt lat="46.04244561021075" lon="12.30736278654579"><ele>244.0</ele><time>2026-03-23T11:45:32.001Z</time></trkpt><trkpt lat="46.04242368226488" lon="12.30748761859999"><ele>243.2</ele><time>2026-03-23T11:45:33.001Z</time></trkpt><trkpt lat="46.04241682674805" lon="12.307621183094994"><ele>242.39999999999998</ele><time>2026-03-23T11:45:34.001Z</time></trkpt><trkpt lat="46.042421028631395" lon="12.30775011100667"><ele>241.6</ele><time>2026-03-23T11:45:35.001Z</time></trkpt><trkpt lat="46.04243162390801" lon="12.307890135166074"><ele>240.8</ele><time>2026-03-23T11:45:36.001Z</time></trkpt><trkpt lat="46.042434997936695" lon="12.308033961128947"><ele>240.0</ele><time>2026-03-23T11:45:37.001Z</time></trkpt><trkpt lat="46.042426711625474" lon="12.308170480378774"><ele>241.33333333333334</ele><time>2026-03-23T11:45:38.001Z</time></trkpt><trkpt lat="46.042406950868596" lon="12.308300053061707"><ele>242.66666666666669</ele><time>2026-03-23T11:45:39.001Z</time></trkpt><trkpt lat="46.04237880711664" lon="12.308418747630098"><ele>244.0</ele><time>2026-03-23T11:45:40.001Z</time></trkpt><trkpt lat="46.042336158641206" lon="12.308529432644736"><ele>245.33333333333334</ele><time>2026-03-23T11:45:41.001Z</time></trkpt><trkpt lat="46.0422819096472" lon="12.308623261725245"><ele>246.66666666666669</ele><time>2026-03-23T11:45:42.001Z</time></trkpt><trkpt lat="46.04221380404185" lon="12.308694849125612"><ele>248.0</ele><time>2026-03-23T11:45:43.001Z</time></trkpt><trkpt lat="46.04213895644293" lon="12.308745216415874"><ele>248.0</ele><time>2026-03-23T11:45:44.001Z</time></trkpt><trkpt lat="46.04205064814128" lon="12.308772374707605"><ele>248.0</ele><time>2026-03-23T11:45:45.001Z</time></trkpt><trkpt lat="46.04195839415058" lon="12.308772629931534"><ele>248.0</ele><time>2026-03-23T11:45:46.001Z</time></trkpt><trkpt lat="46.041862381213015" lon="12.308751736653875"><ele>248.0</ele><time>2026-03-23T11:45:47.001Z</time></trkpt><trkpt lat="46.041764947064216" lon="12.308710727312855"><ele>248.0</ele><time>2026-03-23T11:45:48.001Z</time></trkpt><trkpt lat="46.04166485007323" lon="12.308663483730664"><ele>246.2</ele><time>2026-03-23T11:45:49.001Z</time></trkpt><trkpt lat="46.04156520508383" lon="12.308613083731656"><ele>244.4</ele><time>2026-03-23T11:45:50.001Z</time></trkpt><trkpt lat="46.04146497761765" lon="12.308566381949836"><ele>242.59999999999997</ele><time>2026-03-23T11:45:51.001Z</time></trkpt><trkpt lat="46.04136379719037" lon="12.308515980396853"><ele>240.79999999999998</ele><time>2026-03-23T11:45:52.001Z</time></trkpt><trkpt lat="46.04126151746876" lon="12.308463310466298"><ele>239.0</ele><time>2026-03-23T11:45:53.001Z</time></trkpt><trkpt lat="46.04116286316542" lon="12.308411203871179"><ele>239.0</ele><time>2026-03-23T11:45:54.001Z</time></trkpt><trkpt lat="46.04106821886069" lon="12.30836403878821"><ele>238.99999999999997</ele><time>2026-03-23T11:45:55.001Z</time></trkpt><trkpt lat="46.040972891084856" lon="12.30833771314661"><ele>238.99999999999997</ele><time>2026-03-23T11:45:56.001Z</time></trkpt><trkpt lat="46.04087642842684" lon="12.3083349865295"><ele>239.0</ele><time>2026-03-23T11:45:57.001Z</time></trkpt><trkpt lat="46.0407863390376" lon="12.308373341725657"><ele>239.0</ele><time>2026-03-23T11:45:58.001Z</time></trkpt><trkpt lat="46.04070321018571" lon="12.308437610647312"><ele>235.2</ele><time>2026-03-23T11:45:59.001Z</time></trkpt><trkpt lat="46.040625825731624" lon="12.308524872065071"><ele>231.39999999999998</ele><time>2026-03-23T11:46:00.001Z</time></trkpt><trkpt lat="46.04054602290324" lon="12.308609678630349"><ele>227.6</ele><time>2026-03-23T11:46:01.001Z</time></trkpt><trkpt lat="46.04046107315459" lon="12.30869601777702"><ele>223.8</ele><time>2026-03-23T11:46:02.001Z</time></trkpt><trkpt lat="46.0403730123382" lon="12.308781249243859"><ele>220.0</ele><time>2026-03-23T11:46:03.001Z</time></trkpt><trkpt lat="46.04027730577762" lon="12.30886918339823"><ele>218.0</ele><time>2026-03-23T11:46:04.001Z</time></trkpt><trkpt lat="46.04017959756768" lon="12.30895638193326"><ele>216.0</ele><time>2026-03-23T11:46:05.001Z</time></trkpt><trkpt lat="46.04007611775429" lon="12.309048750259235"><ele>214.0</ele><time>2026-03-23T11:46:06.001Z</time></trkpt><trkpt lat="46.03997462080614" lon="12.309147452225933"><ele>212.0</ele><time>2026-03-23T11:46:07.001Z</time></trkpt><trkpt lat="46.03987048900296" lon="12.309242440366102"><ele>212.0</ele><time>2026-03-23T11:46:08.001Z</time></trkpt><trkpt lat="46.03976855378767" lon="12.309337814761355"><ele>212.0</ele><time>2026-03-23T11:46:09.001Z</time></trkpt><trkpt lat="46.03966622717436" lon="12.309438145241717"><ele>212.0</ele><time>2026-03-23T11:46:10.001Z</time></trkpt><trkpt lat="46.03955881433189" lon="12.30954282213322"><ele>212.0</ele><time>2026-03-23T11:46:11.001Z</time></trkpt><trkpt lat="46.03944827010533" lon="12.309642689478261"><ele>212.0</ele><time>2026-03-23T11:46:12.001Z</time></trkpt><trkpt lat="46.03934267446834" lon="12.309734160869866"><ele>212.0</ele><time>2026-03-23T11:46:13.001Z</time></trkpt><trkpt lat="46.039239397913335" lon="12.30982084058727"><ele>212.0</ele><time>2026-03-23T11:46:14.001Z</time></trkpt><trkpt lat="46.039134946449025" lon="12.309900555216657"><ele>212.0</ele><time>2026-03-23T11:46:15.001Z</time></trkpt><trkpt lat="46.03902602370702" lon="12.309967334804838"><ele>216.0</ele><time>2026-03-23T11:46:16.001Z</time></trkpt><trkpt lat="46.03891158514785" lon="12.310014927875983"><ele>220.0</ele><time>2026-03-23T11:46:17.001Z</time></trkpt><trkpt lat="46.038789035738496" lon="12.310042870188408"><ele>224.0</ele><time>2026-03-23T11:46:18.001Z</time></trkpt><trkpt lat="46.038659157677486" lon="12.31005335827078"><ele>228.0</ele><time>2026-03-23T11:46:19.001Z</time></trkpt><trkpt lat="46.03852782451757" lon="12.310042035049028"><ele>228.0</ele><time>2026-03-23T11:46:20.001Z</time></trkpt><trkpt lat="46.038402914632876" lon="12.310007902726504"><ele>228.0</ele><time>2026-03-23T11:46:21.001Z</time></trkpt><trkpt lat="46.03827814549648" lon="12.309955679873093"><ele>228.0</ele><time>2026-03-23T11:46:22.001Z</time></trkpt><trkpt lat="46.03815235635244" lon="12.309879698943261"><ele>228.0</ele><time>2026-03-23T11:46:23.001Z</time></trkpt><trkpt lat="46.03803677616128" lon="12.309786953472088"><ele>223.5</ele><time>2026-03-23T11:46:24.001Z</time></trkpt><trkpt lat="46.03792230088441" lon="12.30966932254952"><ele>219.0</ele><time>2026-03-23T11:46:25.001Z</time></trkpt><trkpt lat="46.037802106228334" lon="12.309537418180984"><ele>214.5</ele><time>2026-03-23T11:46:26.001Z</time></trkpt><trkpt lat="46.03767360862709" lon="12.309405724930157"><ele>210.0</ele><time>2026-03-23T11:46:27.001Z</time></trkpt><trkpt lat="46.03754797907506" lon="12.309287739738528"><ele>217.33333333333331</ele><time>2026-03-23T11:46:28.001Z</time></trkpt><trkpt lat="46.03741791960104" lon="12.30918479940291"><ele>224.66666666666666</ele><time>2026-03-23T11:46:29.001Z</time></trkpt><trkpt lat="46.03728083381336" lon="12.309082050375798"><ele>232.0</ele><time>2026-03-23T11:46:30.001Z</time></trkpt><trkpt lat="46.03714677589348" lon="12.308994035803652"><ele>232.0</ele><time>2026-03-23T11:46:31.001Z</time></trkpt><trkpt lat="46.0370062207428" lon="12.308921501522446"><ele>232.0</ele><time>2026-03-23T11:46:32.001Z</time></trkpt><trkpt lat="46.03685701850158" lon="12.308859575339378"><ele>232.0</ele><time>2026-03-23T11:46:33.001Z</time></trkpt><trkpt lat="46.036700799241665" lon="12.308799489138023"><ele>224.0</ele><time>2026-03-23T11:46:34.001Z</time></trkpt><trkpt lat="46.036539828581134" lon="12.3087408696176"><ele>216.0</ele><time>2026-03-23T11:46:35.001Z</time></trkpt><trkpt lat="46.0363823821998" lon="12.30868426995607"><ele>208.0</ele><time>2026-03-23T11:46:36.001Z</time></trkpt><trkpt lat="46.03622919987791" lon="12.30861891273612"><ele>208.0</ele><time>2026-03-23T11:46:37.001Z</time></trkpt><trkpt lat="46.036082607258095" lon="12.30854790429367"><ele>208.0</ele><time>2026-03-23T11:46:38.001Z</time></trkpt><trkpt lat="46.03594219966456" lon="12.30846676080479"><ele>208.0</ele><time>2026-03-23T11:46:39.001Z</time></trkpt><trkpt lat="46.03581394963535" lon="12.308363573552649"><ele>204.0</ele><time>2026-03-23T11:46:40.001Z</time></trkpt><trkpt lat="46.035696031238366" lon="12.308234674565883"><ele>200.0</ele><time>2026-03-23T11:46:41.001Z</time></trkpt><trkpt lat="46.035577789033844" lon="12.308089174316251"><ele>196.0</ele><time>2026-03-23T11:46:42.001Z</time></trkpt><trkpt lat="46.0354486365702" lon="12.30794091710364"><ele>196.0</ele><time>2026-03-23T11:46:43.001Z</time></trkpt><trkpt lat="46.03531766538761" lon="12.307793259180146"><ele>196.0</ele><time>2026-03-23T11:46:44.001Z</time></trkpt><trkpt lat="46.03518700755299" lon="12.307642662318381"><ele>196.0</ele><time>2026-03-23T11:46:45.001Z</time></trkpt><trkpt lat="46.03506540941117" lon="12.307494894767618"><ele>195.66666666666666</ele><time>2026-03-23T11:46:46.001Z</time></trkpt><trkpt lat="46.03495143586873" lon="12.307336596212458"><ele>195.33333333333331</ele><time>2026-03-23T11:46:47.001Z</time></trkpt><trkpt lat="46.03483501245279" lon="12.3071787024608"><ele>195.0</ele><time>2026-03-23T11:46:48.001Z</time></trkpt><trkpt lat="46.034722699984506" lon="12.307014130296855"><ele>195.0</ele><time>2026-03-23T11:46:49.001Z</time></trkpt><trkpt lat="46.034613545120735" lon="12.306850430721576"><ele>195.0</ele><time>2026-03-23T11:46:50.001Z</time></trkpt><trkpt lat="46.034504469822934" lon="12.306687366424946"><ele>195.0</ele><time>2026-03-23T11:46:51.001Z</time></trkpt><trkpt lat="46.03439551599083" lon="12.306524457923656"><ele>193.33333333333334</ele><time>2026-03-23T11:46:52.001Z</time></trkpt><trkpt lat="46.0342845118305" lon="12.306366231165912"><ele>191.66666666666669</ele><time>2026-03-23T11:46:53.001Z</time></trkpt><trkpt lat="46.03416888938574" lon="12.30621896788478"><ele>190.0</ele><time>2026-03-23T11:46:54.001Z</time></trkpt><trkpt lat="46.03404632470694" lon="12.306085812950458"><ele>189.66666666666669</ele><time>2026-03-23T11:46:55.001Z</time></trkpt><trkpt lat="46.03391460877705" lon="12.305953464449248"><ele>189.33333333333334</ele><time>2026-03-23T11:46:56.001Z</time></trkpt><trkpt lat="46.03378318293511" lon="12.30581822231441"><ele>189.0</ele><time>2026-03-23T11:46:57.001Z</time></trkpt><trkpt lat="46.03365004248616" lon="12.30568136611578"><ele>189.33333333333334</ele><time>2026-03-23T11:46:58.001Z</time></trkpt><trkpt lat="46.033517294173436" lon="12.30554123274187"><ele>189.66666666666669</ele><time>2026-03-23T11:46:59.001Z</time></trkpt><trkpt lat="46.03339114351406" lon="12.305402088818516"><ele>190.0</ele><time>2026-03-23T11:47:00.001Z</time></trkpt><trkpt lat="46.03326389284141" lon="12.305265369845303"><ele>190.0</ele><time>2026-03-23T11:47:01.001Z</time></trkpt><trkpt lat="46.03313417454953" lon="12.305131723216578"><ele>190.0</ele><time>2026-03-23T11:47:02.001Z</time></trkpt><trkpt lat="46.03300635013244" lon="12.305002783102477"><ele>190.0</ele><time>2026-03-23T11:47:03.001Z</time></trkpt><trkpt lat="46.032880166415275" lon="12.304874945216179"><ele>190.0</ele><time>2026-03-23T11:47:04.001Z</time></trkpt><trkpt lat="46.032759558337546" lon="12.3047504348889"><ele>190.0</ele><time>2026-03-23T11:47:05.001Z</time></trkpt><trkpt lat="46.032638804385954" lon="12.304624901398196"><ele>190.0</ele><time>2026-03-23T11:47:06.001Z</time></trkpt><trkpt lat="46.03252211974369" lon="12.304498470874224"><ele>190.0</ele><time>2026-03-23T11:47:07.001Z</time></trkpt><trkpt lat="46.032408556917346" lon="12.30437604040886"><ele>189.75</ele><time>2026-03-23T11:47:08.001Z</time></trkpt><trkpt lat="46.03229505926312" lon="12.304246532687875"><ele>189.5</ele><time>2026-03-23T11:47:09.001Z</time></trkpt><trkpt lat="46.03217846397109" lon="12.304116742576353"><ele>189.25</ele><time>2026-03-23T11:47:10.001Z</time></trkpt><trkpt lat="46.03206720367083" lon="12.303975210392252"><ele>189.0</ele><time>2026-03-23T11:47:11.001Z</time></trkpt><trkpt lat="46.03196729359326" lon="12.30382052094133"><ele>189.0</ele><time>2026-03-23T11:47:12.001Z</time></trkpt><trkpt lat="46.03187450592927" lon="12.303655143315082"><ele>189.0</ele><time>2026-03-23T11:47:13.001Z</time></trkpt><trkpt lat="46.03178824896878" lon="12.30349046741255"><ele>189.0</ele><time>2026-03-23T11:47:14.001Z</time></trkpt><trkpt lat="46.03170808599395" lon="12.303317775580478"><ele>189.0</ele><time>2026-03-23T11:47:15.001Z</time></trkpt><trkpt lat="46.031635098634915" lon="12.303134914640486"><ele>191.5</ele><time>2026-03-23T11:47:16.001Z</time></trkpt><trkpt lat="46.03156000524048" lon="12.302957055022128"><ele>194.0</ele><time>2026-03-23T11:47:17.001Z</time></trkpt><trkpt lat="46.031483122785815" lon="12.302776839498119"><ele>196.5</ele><time>2026-03-23T11:47:18.002Z</time></trkpt><trkpt lat="46.03140648409376" lon="12.30260250896024"><ele>199.0</ele><time>2026-03-23T11:47:19.002Z</time></trkpt><trkpt lat="46.03133551264677" lon="12.302439265983457"><ele>199.0</ele><time>2026-03-23T11:47:20.002Z</time></trkpt><trkpt lat="46.031267558213976" lon="12.30228928013488"><ele>199.0</ele><time>2026-03-23T11:47:21.002Z</time></trkpt><trkpt lat="46.03119298430723" lon="12.302159116881993"><ele>199.0</ele><time>2026-03-23T11:47:22.002Z</time></trkpt><trkpt lat="46.03111345839446" lon="12.30204480353727"><ele>199.0</ele><time>2026-03-23T11:47:23.002Z</time></trkpt><trkpt lat="46.03102082675877" lon="12.301966620354278"><ele>195.79999999999998</ele><time>2026-03-23T11:47:24.002Z</time></trkpt><trkpt lat="46.030930510812695" lon="12.301900735783448"><ele>192.6</ele><time>2026-03-23T11:47:25.002Z</time></trkpt><trkpt lat="46.030840307110566" lon="12.301849664403788"><ele>189.4</ele><time>2026-03-23T11:47:26.002Z</time></trkpt><trkpt lat="46.03074644841072" lon="12.301827516078129"><ele>186.2</ele><time>2026-03-23T11:47:27.002Z</time></trkpt><trkpt lat="46.0306551855059" lon="12.301839719317995"><ele>183.0</ele><time>2026-03-23T11:47:28.002Z</time></trkpt><trkpt lat="46.03057089785901" lon="12.301891697186647"><ele>183.4</ele><time>2026-03-23T11:47:29.001Z</time></trkpt><trkpt lat="46.0305027370181" lon="12.301972347256168"><ele>183.8</ele><time>2026-03-23T11:47:30.001Z</time></trkpt><trkpt lat="46.03044544535219" lon="12.302083743978878"><ele>184.2</ele><time>2026-03-23T11:47:31.001Z</time></trkpt><trkpt lat="46.03039022176036" lon="12.302208934752464"><ele>184.6</ele><time>2026-03-23T11:47:32.001Z</time></trkpt><trkpt lat="46.030324424945135" lon="12.302338533482429"><ele>185.0</ele><time>2026-03-23T11:47:33.001Z</time></trkpt><trkpt lat="46.030241922370486" lon="12.30245362179569"><ele>185.0</ele><time>2026-03-23T11:47:34.001Z</time></trkpt><trkpt lat="46.03014990653283" lon="12.302579924298424"><ele>185.0</ele><time>2026-03-23T11:47:35.001Z</time></trkpt><trkpt lat="46.03006191767644" lon="12.302722630141051"><ele>185.0</ele><time>2026-03-23T11:47:36.001Z</time></trkpt><trkpt lat="46.02999662374472" lon="12.302877198492357"><ele>185.0</ele><time>2026-03-23T11:47:37.001Z</time></trkpt><trkpt lat="46.02994129112196" lon="12.303061415191745"><ele>182.25</ele><time>2026-03-23T11:47:38.001Z</time></trkpt><trkpt lat="46.029893052681494" lon="12.303239439700613"><ele>179.5</ele><time>2026-03-23T11:47:39.001Z</time></trkpt><trkpt lat="46.02984124016882" lon="12.30340518101"><ele>176.75</ele><time>2026-03-23T11:47:40.001Z</time></trkpt><trkpt lat="46.02979278777189" lon="12.303569715524109"><ele>174.0</ele><time>2026-03-23T11:47:41.001Z</time></trkpt><trkpt lat="46.02973500565342" lon="12.303709909035573"><ele>174.0</ele><time>2026-03-23T11:47:42.001Z</time></trkpt><trkpt lat="46.02965731221991" lon="12.303815261788438"><ele>174.0</ele><time>2026-03-23T11:47:43.001Z</time></trkpt><trkpt lat="46.02956818270526" lon="12.303880284550232"><ele>174.0</ele><time>2026-03-23T11:47:44.001Z</time></trkpt><trkpt lat="46.02946811652971" lon="12.303909256042795"><ele>174.0</ele><time>2026-03-23T11:47:45.001Z</time></trkpt><trkpt lat="46.029369893969545" lon="12.303892982543443"><ele>174.0</ele><time>2026-03-23T11:47:46.001Z</time></trkpt><trkpt lat="46.029262066164" lon="12.303835342886412"><ele>174.0</ele><time>2026-03-23T11:47:47Z</time></trkpt><trkpt lat="46.02916197912584" lon="12.30374949198786"><ele>174.0</ele><time>2026-03-23T11:47:48Z</time></trkpt><trkpt lat="46.0290644071579" lon="12.303641066337029"><ele>174.0</ele><time>2026-03-23T11:47:49Z</time></trkpt><trkpt lat="46.028984534030265" lon="12.303493111215216"><ele>174.0</ele><time>2026-03-23T11:47:50Z</time></trkpt><trkpt lat="46.02891432015428" lon="12.30333791299514"><ele>174.5</ele><time>2026-03-23T11:47:51Z</time></trkpt><trkpt lat="46.028871195914675" lon="12.303168699894892"><ele>175.0</ele><time>2026-03-23T11:47:52Z</time></trkpt><trkpt lat="46.028850025919" lon="12.302973561206516"><ele>175.5</ele><time>2026-03-23T11:47:53Z</time></trkpt><trkpt lat="46.02883073632654" lon="12.302761865727327"><ele>176.0</ele><time>2026-03-23T11:47:54Z</time></trkpt><trkpt lat="46.02881204259973" lon="12.302535037157627"><ele>172.33333333333331</ele><time>2026-03-23T11:47:55Z</time></trkpt><trkpt lat="46.028790242732505" lon="12.302308789815497"><ele>168.66666666666666</ele><time>2026-03-23T11:47:56Z</time></trkpt><trkpt lat="46.02876842762109" lon="12.302098789978599"><ele>165.0</ele><time>2026-03-23T11:47:57Z</time></trkpt><trkpt lat="46.028739336639205" lon="12.301895123308343"><ele>165.0</ele><time>2026-03-23T11:47:58Z</time></trkpt><trkpt lat="46.028694324518106" lon="12.301696841715257"><ele>165.0</ele><time>2026-03-23T11:47:59Z</time></trkpt><trkpt lat="46.02862600990259" lon="12.301500256597688"><ele>165.0</ele><time>2026-03-23T11:48:00Z</time></trkpt><trkpt lat="46.02853349583064" lon="12.301310927318784"><ele>165.66666666666666</ele><time>2026-03-23T11:48:01Z</time></trkpt><trkpt lat="46.02843067272579" lon="12.301132413329736"><ele>166.33333333333331</ele><time>2026-03-23T11:48:02Z</time></trkpt><trkpt lat="46.028318767131644" lon="12.30096152752046"><ele>167.0</ele><time>2026-03-23T11:48:03Z</time></trkpt><trkpt lat="46.028198656648215" lon="12.300799424036418"><ele>166.0</ele><time>2026-03-23T11:48:04Z</time></trkpt><trkpt lat="46.02807514765499" lon="12.300636687777779"><ele>165.0</ele><time>2026-03-23T11:48:05Z</time></trkpt><trkpt lat="46.02795123829399" lon="12.300469427987121"><ele>164.0</ele><time>2026-03-23T11:48:06Z</time></trkpt><trkpt lat="46.02782661588841" lon="12.300296790028456"><ele>164.0</ele><time>2026-03-23T11:48:07Z</time></trkpt><trkpt lat="46.027702971859824" lon="12.300122657302392"><ele>164.0</ele><time>2026-03-23T11:48:08Z</time></trkpt><trkpt lat="46.02758325050933" lon="12.299953615110951"><ele>164.0</ele><time>2026-03-23T11:48:09Z</time></trkpt><trkpt lat="46.027473076401726" lon="12.299797879705633"><ele>164.25</ele><time>2026-03-23T11:48:10Z</time></trkpt><trkpt lat="46.027367990113774" lon="12.299648630231992"><ele>164.5</ele><time>2026-03-23T11:48:11Z</time></trkpt><trkpt lat="46.02726648155853" lon="12.299507330398933"><ele>164.75</ele><time>2026-03-23T11:48:12Z</time></trkpt><trkpt lat="46.02716509416386" lon="12.299366509646973"><ele>165.0</ele><time>2026-03-23T11:48:13Z</time></trkpt><trkpt lat="46.02706371007976" lon="12.29921947213304"><ele>165.0</ele><time>2026-03-23T11:48:14Z</time></trkpt><trkpt lat="46.02696138172754" lon="12.299071484944669"><ele>165.0</ele><time>2026-03-23T11:48:15Z</time></trkpt><trkpt lat="46.02686395755004" lon="12.298926183957112"><ele>165.0</ele><time>2026-03-23T11:48:16Z</time></trkpt><trkpt lat="46.02676926342572" lon="12.29878725725609"><ele>165.0</ele><time>2026-03-23T11:48:17.001Z</time></trkpt><trkpt lat="46.026671175076615" lon="12.29864861058875"><ele>164.75</ele><time>2026-03-23T11:48:18.001Z</time></trkpt><trkpt lat="46.02657045881147" lon="12.298506218505066"><ele>164.5</ele><time>2026-03-23T11:48:19.001Z</time></trkpt><trkpt lat="46.026468464394256" lon="12.298365489312953"><ele>164.25</ele><time>2026-03-23T11:48:20.001Z</time></trkpt><trkpt lat="46.02637088013053" lon="12.298227144554183"><ele>164.0</ele><time>2026-03-23T11:48:21.001Z</time></trkpt><trkpt lat="46.0262734452024" lon="12.298092755617349"><ele>164.5</ele><time>2026-03-23T11:48:22.001Z</time></trkpt><trkpt lat="46.026179592047484" lon="12.297951628705079"><ele>165.0</ele><time>2026-03-23T11:48:23.001Z</time></trkpt><trkpt lat="46.02609024375288" lon="12.297803341415408"><ele>165.5</ele><time>2026-03-23T11:48:24.001Z</time></trkpt><trkpt lat="46.02600991214853" lon="12.29764762716117"><ele>166.0</ele><time>2026-03-23T11:48:25.001Z</time></trkpt><trkpt lat="46.025933174958304" lon="12.297484377104821"><ele>166.0</ele><time>2026-03-23T11:48:26.001Z</time></trkpt><trkpt lat="46.02585911793168" lon="12.297319983474376"><ele>166.0</ele><time>2026-03-23T11:48:27.001Z</time></trkpt><trkpt lat="46.025783289298566" lon="12.297156976564006"><ele>166.0</ele><time>2026-03-23T11:48:28.001Z</time></trkpt><trkpt lat="46.02569857788701" lon="12.297000032950194"><ele>166.0</ele><time>2026-03-23T11:48:29.001Z</time></trkpt><trkpt lat="46.02560577811467" lon="12.296851574982922"><ele>166.25</ele><time>2026-03-23T11:48:30.001Z</time></trkpt><trkpt lat="46.02550595640571" lon="12.296705414827125"><ele>166.5</ele><time>2026-03-23T11:48:31.001Z</time></trkpt><trkpt lat="46.02540638133077" lon="12.29656106866749"><ele>166.75</ele><time>2026-03-23T11:48:32.001Z</time></trkpt><trkpt lat="46.02530363313899" lon="12.29642560015429"><ele>167.0</ele><time>2026-03-23T11:48:33.001Z</time></trkpt><trkpt lat="46.025198594794105" lon="12.296296655450801"><ele>167.0</ele><time>2026-03-23T11:48:34.001Z</time></trkpt><trkpt lat="46.025089617241434" lon="12.296173399196455"><ele>167.0</ele><time>2026-03-23T11:48:35.001Z</time></trkpt><trkpt lat="46.02497650383124" lon="12.29605343832153"><ele>167.0</ele><time>2026-03-23T11:48:36.001Z</time></trkpt><trkpt lat="46.02486254652575" lon="12.295933563788081"><ele>167.0</ele><time>2026-03-23T11:48:37.001Z</time></trkpt><trkpt lat="46.02474444537042" lon="12.295818041991772"><ele>166.0</ele><time>2026-03-23T11:48:38.001Z</time></trkpt><trkpt lat="46.024621955824806" lon="12.295703003831862"><ele>165.0</ele><time>2026-03-23T11:48:39.001Z</time></trkpt><trkpt lat="46.02449554506935" lon="12.295585199988034"><ele>164.0</ele><time>2026-03-23T11:48:40.001Z</time></trkpt><trkpt lat="46.0243641813161" lon="12.295468953894908"><ele>164.25</ele><time>2026-03-23T11:48:41.001Z</time></trkpt><trkpt lat="46.02423556509994" lon="12.295357276163239"><ele>164.5</ele><time>2026-03-23T11:48:42.001Z</time></trkpt><trkpt lat="46.02410979896866" lon="12.295246106078919"><ele>164.75</ele><time>2026-03-23T11:48:43.001Z</time></trkpt><trkpt lat="46.02398144975146" lon="12.295142929073936"><ele>165.0</ele><time>2026-03-23T11:48:44.001Z</time></trkpt><trkpt lat="46.02384337803639" lon="12.295058545626674"><ele>165.0</ele><time>2026-03-23T11:48:45.001Z</time></trkpt><trkpt lat="46.023696765329454" lon="12.294989867964482"><ele>165.0</ele><time>2026-03-23T11:48:46.001Z</time></trkpt><trkpt lat="46.02355735732688" lon="12.294924528325742"><ele>165.0</ele><time>2026-03-23T11:48:47.001Z</time></trkpt><trkpt lat="46.023431735611105" lon="12.294855877523675"><ele>165.0</ele><time>2026-03-23T11:48:48.001Z</time></trkpt><trkpt lat="46.02332004255951" lon="12.294765705484203"><ele>164.5</ele><time>2026-03-23T11:48:49.001Z</time></trkpt><trkpt lat="46.023216436079736" lon="12.294645691287528"><ele>164.0</ele><time>2026-03-23T11:48:50.001Z</time></trkpt><trkpt lat="46.02311150302162" lon="12.29449962769223"><ele>163.5</ele><time>2026-03-23T11:48:51.001Z</time></trkpt><trkpt lat="46.02300192664487" lon="12.294351520853384"><ele>163.0</ele><time>2026-03-23T11:48:52.001Z</time></trkpt><trkpt lat="46.02288813134979" lon="12.294194787700796"><ele>163.0</ele><time>2026-03-23T11:48:53.001Z</time></trkpt><trkpt lat="46.022770856728485" lon="12.294026256991716"><ele>163.0</ele><time>2026-03-23T11:48:54.001Z</time></trkpt><trkpt lat="46.02264722647592" lon="12.29385404005141"><ele>163.0</ele><time>2026-03-23T11:48:55.001Z</time></trkpt><trkpt lat="46.02252396348575" lon="12.29368133389611"><ele>164.0</ele><time>2026-03-23T11:48:56.001Z</time></trkpt><trkpt lat="46.02239769678799" lon="12.293507565070115"><ele>165.0</ele><time>2026-03-23T11:48:57.001Z</time></trkpt><trkpt lat="46.0222715801898" lon="12.293329823383857"><ele>166.0</ele><time>2026-03-23T11:48:58.001Z</time></trkpt><trkpt lat="46.02214610215415" lon="12.293147636014591"><ele>167.0</ele><time>2026-03-23T11:48:59.001Z</time></trkpt><trkpt lat="46.02201914485166" lon="12.292961073736125"><ele>168.0</ele><time>2026-03-23T11:49:00.001Z</time></trkpt><trkpt lat="46.02189190506024" lon="12.292774350678043"><ele>169.0</ele><time>2026-03-23T11:49:01.001Z</time></trkpt><trkpt lat="46.02176936861477" lon="12.292590488636808"><ele>169.0</ele><time>2026-03-23T11:49:02.001Z</time></trkpt><trkpt lat="46.021649867719276" lon="12.292415212978382"><ele>169.0</ele><time>2026-03-23T11:49:03.001Z</time></trkpt><trkpt lat="46.02153119359044" lon="12.292247424192789"><ele>169.0</ele><time>2026-03-23T11:49:04.001Z</time></trkpt><trkpt lat="46.021408944199024" lon="12.292096641993156"><ele>169.33333333333334</ele><time>2026-03-23T11:49:05.001Z</time></trkpt><trkpt lat="46.02128904324205" lon="12.291956724828058"><ele>169.66666666666666</ele><time>2026-03-23T11:49:06.001Z</time></trkpt><trkpt lat="46.021166466525266" lon="12.291827519212749"><ele>170.0</ele><time>2026-03-23T11:49:07.001Z</time></trkpt><trkpt lat="46.0210451867236" lon="12.291707317931959"><ele>170.0</ele><time>2026-03-23T11:49:08.001Z</time></trkpt><trkpt lat="46.02092234797857" lon="12.291599966840986"><ele>170.0</ele><time>2026-03-23T11:49:09.001Z</time></trkpt><trkpt lat="46.020797774701435" lon="12.291509891870652"><ele>170.0</ele><time>2026-03-23T11:49:10.001Z</time></trkpt><trkpt lat="46.0206735430732" lon="12.291431964799543"><ele>170.0</ele><time>2026-03-23T11:49:11.001Z</time></trkpt><trkpt lat="46.020553644814576" lon="12.29136624347139"><ele>170.0</ele><time>2026-03-23T11:49:12.001Z</time></trkpt><trkpt lat="46.02043379865015" lon="12.291302024556714"><ele>170.0</ele><time>2026-03-23T11:49:13.001Z</time></trkpt><trkpt lat="46.020312261045746" lon="12.291236496017603"><ele>170.0</ele><time>2026-03-23T11:49:14.001Z</time></trkpt><trkpt lat="46.02018788113755" lon="12.29116448866012"><ele>170.0</ele><time>2026-03-23T11:49:15.001Z</time></trkpt><trkpt lat="46.02006366618762" lon="12.291092027019982"><ele>168.75</ele><time>2026-03-23T11:49:16.001Z</time></trkpt><trkpt lat="46.019943689599685" lon="12.291023710237784"><ele>167.5</ele><time>2026-03-23T11:49:17.001Z</time></trkpt><trkpt lat="46.01982204289776" lon="12.290954072357657"><ele>166.25</ele><time>2026-03-23T11:49:18.001Z</time></trkpt><trkpt lat="46.019698974160754" lon="12.290877919635129"><ele>165.0</ele><time>2026-03-23T11:49:19.001Z</time></trkpt><trkpt lat="46.019573131522016" lon="12.29080134893357"><ele>165.0</ele><time>2026-03-23T11:49:20.001Z</time></trkpt><trkpt lat="46.01944277197878" lon="12.29072539898304"><ele>165.0</ele><time>2026-03-23T11:49:21.001Z</time></trkpt><trkpt lat="46.019310245587135" lon="12.290652668651852"><ele>165.0</ele><time>2026-03-23T11:49:22.001Z</time></trkpt><trkpt lat="46.019176364407556" lon="12.290579533698457"><ele>165.0</ele><time>2026-03-23T11:49:23.001Z</time></trkpt><trkpt lat="46.01904356312315" lon="12.290505210539465"><ele>164.75</ele><time>2026-03-23T11:49:24.001Z</time></trkpt><trkpt lat="46.01891576664119" lon="12.29043504475142"><ele>164.5</ele><time>2026-03-23T11:49:25.001Z</time></trkpt><trkpt lat="46.01879278964677" lon="12.290365564185935"><ele>164.25</ele><time>2026-03-23T11:49:26.001Z</time></trkpt><trkpt lat="46.01867186324767" lon="12.290297719594651"><ele>164.0</ele><time>2026-03-23T11:49:27.001Z</time></trkpt><trkpt lat="46.01855251629962" lon="12.29022286229956"><ele>164.0</ele><time>2026-03-23T11:49:28.001Z</time></trkpt><trkpt lat="46.018436119257395" lon="12.290144356263614"><ele>164.0</ele><time>2026-03-23T11:49:29.001Z</time></trkpt><trkpt lat="46.018317523124125" lon="12.29006813449075"><ele>164.0</ele><time>2026-03-23T11:49:30.001Z</time></trkpt><trkpt lat="46.01820009046947" lon="12.289990401532426"><ele>164.0</ele><time>2026-03-23T11:49:31.001Z</time></trkpt><trkpt lat="46.018083747933154" lon="12.289909662498873"><ele>164.25</ele><time>2026-03-23T11:49:32.001Z</time></trkpt><trkpt lat="46.01796877096449" lon="12.28982562896021"><ele>164.5</ele><time>2026-03-23T11:49:33.001Z</time></trkpt><trkpt lat="46.01785554972227" lon="12.289734274758949"><ele>164.75</ele><time>2026-03-23T11:49:34.001Z</time></trkpt><trkpt lat="46.01774148818918" lon="12.289640707247424"><ele>165.0</ele><time>2026-03-23T11:49:35Z</time></trkpt><trkpt lat="46.01762682124805" lon="12.289542212148154"><ele>165.0</ele><time>2026-03-23T11:49:36Z</time></trkpt><trkpt lat="46.01751356133144" lon="12.289441687150623"><ele>165.0</ele><time>2026-03-23T11:49:37Z</time></trkpt><trkpt lat="46.01740069088188" lon="12.289338364616858"><ele>165.0</ele><time>2026-03-23T11:49:38Z</time></trkpt><trkpt lat="46.01728791165073" lon="12.289233505315101"><ele>165.0</ele><time>2026-03-23T11:49:39Z</time></trkpt><trkpt lat="46.017171258364165" lon="12.289131966596363"><ele>164.0</ele><time>2026-03-23T11:49:40Z</time></trkpt><trkpt lat="46.01704962979561" lon="12.289041861210942"><ele>163.0</ele><time>2026-03-23T11:49:41Z</time></trkpt><trkpt lat="46.01692465169616" lon="12.288958149170584"><ele>162.0</ele><time>2026-03-23T11:49:42Z</time></trkpt><trkpt lat="46.016797894159474" lon="12.288879622612182"><ele>161.0</ele><time>2026-03-23T11:49:43Z</time></trkpt><trkpt lat="46.01666813470056" lon="12.288812234270697"><ele>166.25</ele><time>2026-03-23T11:49:44Z</time></trkpt><trkpt lat="46.016532021222105" lon="12.288776300395545"><ele>171.5</ele><time>2026-03-23T11:49:45Z</time></trkpt><trkpt lat="46.016393242245485" lon="12.288778219323243"><ele>176.75</ele><time>2026-03-23T11:49:46Z</time></trkpt><trkpt lat="46.016255564500106" lon="12.288798853211075"><ele>182.0</ele><time>2026-03-23T11:49:47Z</time></trkpt><trkpt lat="46.016116662672225" lon="12.288815267806328"><ele>182.0</ele><time>2026-03-23T11:49:48Z</time></trkpt><trkpt lat="46.0159791234439" lon="12.28881413233992"><ele>182.0</ele><time>2026-03-23T11:49:49Z</time></trkpt><trkpt lat="46.015842068429684" lon="12.288786543499496"><ele>182.0</ele><time>2026-03-23T11:49:50Z</time></trkpt><trkpt lat="46.015706705241904" lon="12.288766823425467"><ele>182.0</ele><time>2026-03-23T11:49:51Z</time></trkpt><trkpt lat="46.01556966568235" lon="12.288758374275726"><ele>181.0</ele><time>2026-03-23T11:49:52Z</time></trkpt><trkpt lat="46.01543514574533" lon="12.28876990475885"><ele>180.0</ele><time>2026-03-23T11:49:53Z</time></trkpt><trkpt lat="46.015302598155735" lon="12.28881549262523"><ele>179.0</ele><time>2026-03-23T11:49:54Z</time></trkpt><trkpt lat="46.01517152342381" lon="12.288867736068008"><ele>178.0</ele><time>2026-03-23T11:49:55Z</time></trkpt><trkpt lat="46.01504451557768" lon="12.28891084977216"><ele>176.25</ele><time>2026-03-23T11:49:56Z</time></trkpt><trkpt lat="46.01491661978533" lon="12.288951332318772"><ele>174.5</ele><time>2026-03-23T11:49:57Z</time></trkpt><trkpt lat="46.01478991508437" lon="12.288987485028699"><ele>172.75</ele><time>2026-03-23T11:49:58Z</time></trkpt><trkpt lat="46.01466391000868" lon="12.289003418784159"><ele>171.0</ele><time>2026-03-23T11:49:59Z</time></trkpt><trkpt lat="46.014540158959754" lon="12.289006713715791"><ele>171.0</ele><time>2026-03-23T11:50:00Z</time></trkpt><trkpt lat="46.01441466720266" lon="12.28900808064837"><ele>171.0</ele><time>2026-03-23T11:50:01Z</time></trkpt><trkpt lat="46.01429108366371" lon="12.289031175883602"><ele>171.0</ele><time>2026-03-23T11:50:02Z</time></trkpt><trkpt lat="46.014176093701714" lon="12.289087821473396"><ele>171.0</ele><time>2026-03-23T11:50:03Z</time></trkpt><trkpt lat="46.01407507316475" lon="12.289186358006507"><ele>177.25</ele><time>2026-03-23T11:50:04Z</time></trkpt><trkpt lat="46.01398813301945" lon="12.289303360338035"><ele>183.5</ele><time>2026-03-23T11:50:05Z</time></trkpt><trkpt lat="46.01392500754486" lon="12.289442810739999"><ele>189.75</ele><time>2026-03-23T11:50:06Z</time></trkpt><trkpt lat="46.01387771093488" lon="12.289586835747977"><ele>196.0</ele><time>2026-03-23T11:50:07Z</time></trkpt><trkpt lat="46.01382676932801" lon="12.289726478500766"><ele>191.60000000000002</ele><time>2026-03-23T11:50:08Z</time></trkpt><trkpt lat="46.013768538424976" lon="12.289857316219774"><ele>187.2</ele><time>2026-03-23T11:50:09Z</time></trkpt><trkpt lat="46.01370074318186" lon="12.289975224923058"><ele>182.8</ele><time>2026-03-23T11:50:10Z</time></trkpt><trkpt lat="46.01362405090681" lon="12.290073482182361"><ele>178.39999999999998</ele><time>2026-03-23T11:50:11Z</time></trkpt><trkpt lat="46.013542836714414" lon="12.290148494541992"><ele>174.0</ele><time>2026-03-23T11:50:12Z</time></trkpt><trkpt lat="46.01345925507988" lon="12.290194745268074"><ele>174.0</ele><time>2026-03-23T11:50:13Z</time></trkpt><trkpt lat="46.01337389161943" lon="12.290214317016098"><ele>174.0</ele><time>2026-03-23T11:50:14Z</time></trkpt><trkpt lat="46.01326962798323" lon="12.290198858507143"><ele>174.0</ele><time>2026-03-23T11:50:15Z</time></trkpt><trkpt lat="46.01318502925894" lon="12.290150695395488"><ele>174.0</ele><time>2026-03-23T11:50:16Z</time></trkpt><trkpt lat="46.01310296894618" lon="12.290108339639948"><ele>174.0</ele><time>2026-03-23T11:50:17Z</time></trkpt><trkpt lat="46.01300163927846" lon="12.29004390136563"><ele>173.25</ele><time>2026-03-23T11:50:18Z</time></trkpt><trkpt lat="46.012890251878886" lon="12.28998553105043"><ele>172.5</ele><time>2026-03-23T11:50:19Z</time></trkpt><trkpt lat="46.012772851392434" lon="12.289928431329265"><ele>171.75</ele><time>2026-03-23T11:50:20Z</time></trkpt><trkpt lat="46.0126498127043" lon="12.289878089476368"><ele>171.0</ele><time>2026-03-23T11:50:21Z</time></trkpt><trkpt lat="46.01251944036416" lon="12.289832025868618"><ele>171.0</ele><time>2026-03-23T11:50:22Z</time></trkpt><trkpt lat="46.012384517596956" lon="12.28978920915968"><ele>171.0</ele><time>2026-03-23T11:50:23Z</time></trkpt><trkpt lat="46.01225372422172" lon="12.289755433257804"><ele>171.0</ele><time>2026-03-23T11:50:24Z</time></trkpt><trkpt lat="46.01212473945357" lon="12.28973503395429"><ele>171.0</ele><time>2026-03-23T11:50:25Z</time></trkpt><trkpt lat="46.01199881466199" lon="12.289716470911202"><ele>171.0</ele><time>2026-03-23T11:50:26Z</time></trkpt><trkpt lat="46.01187654670032" lon="12.289691752085972"><ele>171.0</ele><time>2026-03-23T11:50:27Z</time></trkpt><trkpt lat="46.01176045585896" lon="12.289651391088295"><ele>171.0</ele><time>2026-03-23T11:50:28Z</time></trkpt><trkpt lat="46.01165339355123" lon="12.289582919835157"><ele>171.0</ele><time>2026-03-23T11:50:29Z</time></trkpt><trkpt lat="46.01154936707293" lon="12.289491585210905"><ele>167.75</ele><time>2026-03-23T11:50:30Z</time></trkpt><trkpt lat="46.0114448863555" lon="12.289386792931824"><ele>164.5</ele><time>2026-03-23T11:50:31Z</time></trkpt><trkpt lat="46.011340097102085" lon="12.28927587385669"><ele>161.25</ele><time>2026-03-23T11:50:32Z</time></trkpt><trkpt lat="46.0112382728926" lon="12.289154327787488"><ele>158.0</ele><time>2026-03-23T11:50:33Z</time></trkpt><trkpt lat="46.01114149292431" lon="12.289017770618393"><ele>158.5</ele><time>2026-03-23T11:50:34Z</time></trkpt><trkpt lat="46.0110438288909" lon="12.288878908682308"><ele>159.0</ele><time>2026-03-23T11:50:35Z</time></trkpt><trkpt lat="46.01094312597039" lon="12.28874168245008"><ele>159.5</ele><time>2026-03-23T11:50:36Z</time></trkpt><trkpt lat="46.010843090305315" lon="12.288604041778855"><ele>160.0</ele><time>2026-03-23T11:50:37Z</time></trkpt><trkpt lat="46.01074178737514" lon="12.288465535249312"><ele>160.0</ele><time>2026-03-23T11:50:38Z</time></trkpt><trkpt lat="46.01064371324352" lon="12.288317959226585"><ele>160.0</ele><time>2026-03-23T11:50:39.001Z</time></trkpt><trkpt lat="46.01054373184405" lon="12.288171762299179"><ele>160.0</ele><time>2026-03-23T11:50:40.001Z</time></trkpt><trkpt lat="46.010445610001895" lon="12.28802953283607"><ele>160.0</ele><time>2026-03-23T11:50:41.001Z</time></trkpt><trkpt lat="46.01034819010023" lon="12.28789087891567"><ele>160.25</ele><time>2026-03-23T11:50:42.001Z</time></trkpt><trkpt lat="46.01024941870365" lon="12.287759374352309"><ele>160.5</ele><time>2026-03-23T11:50:43.001Z</time></trkpt><trkpt lat="46.01015205135955" lon="12.287635145545702"><ele>160.75</ele><time>2026-03-23T11:50:44.001Z</time></trkpt><trkpt lat="46.01005891598956" lon="12.287523073904177"><ele>161.0</ele><time>2026-03-23T11:50:45.001Z</time></trkpt><trkpt lat="46.009959182845776" lon="12.287424382915967"><ele>160.8</ele><time>2026-03-23T11:50:46.001Z</time></trkpt><trkpt lat="46.00985495755037" lon="12.287352268154839"><ele>160.60000000000002</ele><time>2026-03-23T11:50:47.001Z</time></trkpt><trkpt lat="46.009748741971315" lon="12.287308509735706"><ele>160.4</ele><time>2026-03-23T11:50:48.001Z</time></trkpt><trkpt lat="46.00964325091496" lon="12.287277850463118"><ele>160.2</ele><time>2026-03-23T11:50:49.001Z</time></trkpt><trkpt lat="46.0095543426914" lon="12.287220877862781"><ele>160.0</ele><time>2026-03-23T11:50:50.001Z</time></trkpt><trkpt lat="46.00949172634787" lon="12.287139406659422"><ele>160.0</ele><time>2026-03-23T11:50:51.001Z</time></trkpt><trkpt lat="46.009447693893414" lon="12.287050252496593"><ele>160.0</ele><time>2026-03-23T11:50:52.001Z</time></trkpt><trkpt lat="46.00939904398423" lon="12.286985815944377"><ele>160.0</ele><time>2026-03-23T11:50:53.001Z</time></trkpt><trkpt lat="46.009269999367646" lon="12.286982756882674"><ele>160.0</ele><time>2026-03-23T11:50:55.001Z</time></trkpt><trkpt lat="46.00920905543111" lon="12.287049078588907"><ele>160.0</ele><time>2026-03-23T11:50:56.001Z</time></trkpt><trkpt lat="46.009170104031725" lon="12.287156300871805"><ele>160.0</ele><time>2026-03-23T11:50:57.001Z</time></trkpt><trkpt lat="46.00913132423707" lon="12.287317815911663"><ele>162.0</ele><time>2026-03-23T11:50:58.001Z</time></trkpt><trkpt lat="46.009087116226134" lon="12.28745694510976"><ele>164.0</ele><time>2026-03-23T11:50:59.001Z</time></trkpt><trkpt lat="46.00899727075757" lon="12.287581784387866"><ele>166.0</ele><time>2026-03-23T11:51:00.001Z</time></trkpt><trkpt lat="46.008876627080056" lon="12.287690663880941"><ele>168.0</ele><time>2026-03-23T11:51:01.001Z</time></trkpt><trkpt lat="46.00873389045766" lon="12.287791235912675"><ele>168.0</ele><time>2026-03-23T11:51:02.001Z</time></trkpt><trkpt lat="46.008577384294355" lon="12.287893891825552"><ele>168.0</ele><time>2026-03-23T11:51:03.001Z</time></trkpt><trkpt lat="46.008439518537045" lon="12.287994377880727"><ele>168.0</ele><time>2026-03-23T11:51:04.001Z</time></trkpt><trkpt lat="46.00829932905618" lon="12.288105896666929"><ele>173.66666666666666</ele><time>2026-03-23T11:51:05.001Z</time></trkpt><trkpt lat="46.0081324802225" lon="12.288236084238715"><ele>179.33333333333331</ele><time>2026-03-23T11:51:06.023Z</time></trkpt><trkpt lat="46.00795798408225" lon="12.288367849726285"><ele>185.0</ele><time>2026-03-23T11:51:07.023Z</time></trkpt><trkpt lat="46.007804170604594" lon="12.288488381238864"><ele>185.0</ele><time>2026-03-23T11:51:08.022Z</time></trkpt><trkpt lat="46.007661137996664" lon="12.288604191877102"><ele>185.0</ele><time>2026-03-23T11:51:09.024Z</time></trkpt><trkpt lat="46.00752341480764" lon="12.288714160590262"><ele>185.0</ele><time>2026-03-23T11:51:10.023Z</time></trkpt><trkpt lat="45.99800990898721" lon="12.300325641420018"><ele>167.5</ele><time>2026-03-23T11:52:18.001Z</time></trkpt><trkpt lat="45.99785535719862" lon="12.300536770608154"><ele>150.0</ele><time>2026-03-23T11:52:19.001Z</time></trkpt><trkpt lat="45.99759809117758" lon="12.300711574407785"><ele>148.33333333333334</ele><time>2026-03-23T11:52:20.001Z</time></trkpt><trkpt lat="45.997437682636495" lon="12.300906250584486"><ele>146.66666666666669</ele><time>2026-03-23T11:52:21.001Z</time></trkpt><trkpt lat="45.997285029622255" lon="12.301115193229041"><ele>145.0</ele><time>2026-03-23T11:52:22.001Z</time></trkpt><trkpt lat="45.99716084077289" lon="12.301268725290655"><ele>145.0</ele><time>2026-03-23T11:52:23.001Z</time></trkpt><trkpt lat="45.99705083172218" lon="12.301414124708211"><ele>145.0</ele><time>2026-03-23T11:52:24.001Z</time></trkpt><trkpt lat="45.9969458386538" lon="12.301556534301245"><ele>145.0</ele><time>2026-03-23T11:52:25.001Z</time></trkpt><trkpt lat="45.99683664524804" lon="12.301654451179251"><ele>145.0</ele><time>2026-03-23T11:52:26.001Z</time></trkpt><trkpt lat="45.99674438649509" lon="12.301720486032641"><ele>145.0</ele><time>2026-03-23T11:52:27.001Z</time></trkpt><trkpt lat="45.99665676003416" lon="12.301737522068082"><ele>145.0</ele><time>2026-03-23T11:52:28.001Z</time></trkpt><trkpt lat="45.99657548660162" lon="12.301737583299536"><ele>145.0</ele><time>2026-03-23T11:52:29.001Z</time></trkpt><trkpt lat="45.99649856319504" lon="12.301717281061023"><ele>145.0</ele><time>2026-03-23T11:52:30.001Z</time></trkpt><trkpt lat="45.99642355555303" lon="12.30168139677121"><ele>145.0</ele><time>2026-03-23T11:52:31.001Z</time></trkpt><trkpt lat="45.99635944636763" lon="12.301676253449658"><ele>145.0</ele><time>2026-03-23T11:52:32.001Z</time></trkpt><trkpt lat="45.99629234339555" lon="12.301702858043338"><ele>145.0</ele><time>2026-03-23T11:52:33Z</time></trkpt><trkpt lat="45.996237274384214" lon="12.301769608027763"><ele>145.0</ele><time>2026-03-23T11:52:34Z</time></trkpt><trkpt lat="45.99619192926773" lon="12.301872254347153"><ele>145.0</ele><time>2026-03-23T11:52:35Z</time></trkpt><trkpt lat="45.99615398686993" lon="12.301994840483548"><ele>145.0</ele><time>2026-03-23T11:52:36Z</time></trkpt><trkpt lat="45.996100108007454" lon="12.302125785432928"><ele>145.0</ele><time>2026-03-23T11:52:37Z</time></trkpt><trkpt lat="45.99601114368892" lon="12.302231751102548"><ele>145.0</ele><time>2026-03-23T11:52:38Z</time></trkpt><trkpt lat="45.995921351226244" lon="12.302311838280513"><ele>145.0</ele><time>2026-03-23T11:52:39Z</time></trkpt><trkpt lat="45.99582855649359" lon="12.3023800126104"><ele>145.0</ele><time>2026-03-23T11:52:40Z</time></trkpt><trkpt lat="45.99572490937398" lon="12.30243385398748"><ele>145.0</ele><time>2026-03-23T11:52:41Z</time></trkpt><trkpt lat="45.99561429664694" lon="12.302466939392968"><ele>145.0</ele><time>2026-03-23T11:52:42Z</time></trkpt><trkpt lat="45.995501525929825" lon="12.302477576604687"><ele>144.4</ele><time>2026-03-23T11:52:43Z</time></trkpt><trkpt lat="45.99540473368703" lon="12.302466894318536"><ele>143.8</ele><time>2026-03-23T11:52:44Z</time></trkpt><trkpt lat="45.99531672381774" lon="12.302440271694968"><ele>143.2</ele><time>2026-03-23T11:52:45Z</time></trkpt><trkpt lat="45.9952190868984" lon="12.302400375105028"><ele>142.6</ele><time>2026-03-23T11:52:46Z</time></trkpt><trkpt lat="45.99511972216479" lon="12.302347249686129"><ele>142.0</ele><time>2026-03-23T11:52:47Z</time></trkpt><trkpt lat="45.995034245892526" lon="12.30228485132088"><ele>141.33333333333334</ele><time>2026-03-23T11:52:48Z</time></trkpt><trkpt lat="45.994959055295624" lon="12.302216839191436"><ele>140.66666666666669</ele><time>2026-03-23T11:52:49Z</time></trkpt><trkpt lat="45.99489040917406" lon="12.302143397303036"><ele>140.0</ele><time>2026-03-23T11:52:50Z</time></trkpt><trkpt lat="45.99483018844192" lon="12.302064100657248"><ele>139.33333333333334</ele><time>2026-03-23T11:52:51Z</time></trkpt><trkpt lat="45.99478653088202" lon="12.301995891258976"><ele>138.66666666666666</ele><time>2026-03-23T11:52:52Z</time></trkpt><trkpt lat="45.994719160742704" lon="12.30187830535671"><ele>138.0</ele><time>2026-03-23T11:52:54Z</time></trkpt><trkpt lat="45.99466078836207" lon="12.301754656298368"><ele>138.0</ele><time>2026-03-23T11:52:56Z</time></trkpt><trkpt lat="45.99463234961035" lon="12.301649440599537"><ele>138.0</ele><time>2026-03-23T11:52:58Z</time></trkpt><trkpt lat="45.99462024983596" lon="12.301472394193215"><ele>138.0</ele><time>2026-03-23T11:53:00Z</time></trkpt><trkpt lat="45.99457263093034" lon="12.301339509827155"><ele>138.0</ele><time>2026-03-23T11:53:02Z</time></trkpt><trkpt lat="45.99448378741804" lon="12.301300787884184"><ele>138.0</ele><time>2026-03-23T11:53:04Z</time></trkpt><trkpt lat="45.99435837041893" lon="12.301376238084972"><ele>138.0</ele><time>2026-03-23T11:53:06Z</time></trkpt><trkpt lat="45.994285795104155" lon="12.30142790569466"><ele>138.0</ele><time>2026-03-23T11:53:07Z</time></trkpt><trkpt lat="45.99421583067835" lon="12.301474675774058"><ele>138.0</ele><time>2026-03-23T11:53:08Z</time></trkpt><trkpt lat="45.994151603976825" lon="12.301523777017128"><ele>138.0</ele><time>2026-03-23T11:53:09Z</time></trkpt><trkpt lat="45.99408667817372" lon="12.30158110221337"><ele>138.0</ele><time>2026-03-23T11:53:10Z</time></trkpt><trkpt lat="45.99402003917568" lon="12.30165158006614"><ele>138.0</ele><time>2026-03-23T11:53:11Z</time></trkpt><trkpt lat="45.99395226096324" lon="12.30172812874035"><ele>138.0</ele><time>2026-03-23T11:53:12Z</time></trkpt><trkpt lat="45.9938864260559" lon="12.301809534681059"><ele>138.0</ele><time>2026-03-23T11:53:13Z</time></trkpt><trkpt lat="45.99382308645653" lon="12.301893438193215"><ele>138.0</ele><time>2026-03-23T11:53:14Z</time></trkpt><trkpt lat="45.99375608805594" lon="12.301970640509614"><ele>138.0</ele><time>2026-03-23T11:53:15Z</time></trkpt><trkpt lat="45.993684178862345" lon="12.302048813056375"><ele>138.0</ele><time>2026-03-23T11:53:16Z</time></trkpt><trkpt lat="45.99360994797691" lon="12.302129286261465"><ele>138.0</ele><time>2026-03-23T11:53:17Z</time></trkpt><trkpt lat="45.993534794826786" lon="12.302219224845373"><ele>138.0</ele><time>2026-03-23T11:53:18Z</time></trkpt><trkpt lat="45.9934531718941" lon="12.302311976340611"><ele>138.0</ele><time>2026-03-23T11:53:19Z</time></trkpt><trkpt lat="45.993372756490544" lon="12.302409694784316"><ele>138.0</ele><time>2026-03-23T11:53:20Z</time></trkpt><trkpt lat="45.99328896238959" lon="12.302512623179627"><ele>138.0</ele><time>2026-03-23T11:53:21Z</time></trkpt><trkpt lat="45.99320085519724" lon="12.302617857526453"><ele>138.0</ele><time>2026-03-23T11:53:22Z</time></trkpt><trkpt lat="45.99311600877231" lon="12.302714639775962"><ele>137.5</ele><time>2026-03-23T11:53:23Z</time></trkpt><trkpt lat="45.99303604857031" lon="12.302809578352575"><ele>137.0</ele><time>2026-03-23T11:53:24Z</time></trkpt><trkpt lat="45.992950066176874" lon="12.30291121412313"><ele>136.5</ele><time>2026-03-23T11:53:25Z</time></trkpt><trkpt lat="45.992857332807496" lon="12.303014500690075"><ele>136.0</ele><time>2026-03-23T11:53:26Z</time></trkpt><trkpt lat="45.99276010883725" lon="12.303120396937395"><ele>136.0</ele><time>2026-03-23T11:53:27.001Z</time></trkpt><trkpt lat="45.99266123071645" lon="12.303232744271584"><ele>136.0</ele><time>2026-03-23T11:53:28.001Z</time></trkpt><trkpt lat="45.992560443171044" lon="12.303349623862815"><ele>136.0</ele><time>2026-03-23T11:53:29.001Z</time></trkpt><trkpt lat="45.99246082371354" lon="12.303465293454412"><ele>136.0</ele><time>2026-03-23T11:53:30.001Z</time></trkpt><trkpt lat="45.99235997708941" lon="12.303579965133256"><ele>136.0</ele><time>2026-03-23T11:53:31.001Z</time></trkpt><trkpt lat="45.992266428475695" lon="12.30369435527127"><ele>136.0</ele><time>2026-03-23T11:53:32.001Z</time></trkpt><trkpt lat="45.9921784489957" lon="12.30380102564551"><ele>136.0</ele><time>2026-03-23T11:53:33.001Z</time></trkpt><trkpt lat="45.99209333938238" lon="12.303894465658646"><ele>136.0</ele><time>2026-03-23T11:53:34.001Z</time></trkpt><trkpt lat="45.99201726380773" lon="12.303981294030324"><ele>136.0</ele><time>2026-03-23T11:53:35.001Z</time></trkpt><trkpt lat="45.99194299257468" lon="12.304063271937014"><ele>136.0</ele><time>2026-03-23T11:53:36.001Z</time></trkpt><trkpt lat="45.991876413228255" lon="12.304138635501076"><ele>136.0</ele><time>2026-03-23T11:53:37.001Z</time></trkpt><trkpt lat="45.99181359026336" lon="12.304213142922192"><ele>136.0</ele><time>2026-03-23T11:53:38.001Z</time></trkpt><trkpt lat="45.99174636410067" lon="12.304291966251874"><ele>136.0</ele><time>2026-03-23T11:53:39.001Z</time></trkpt><trkpt lat="45.99167388713475" lon="12.304376674577883"><ele>136.0</ele><time>2026-03-23T11:53:40.001Z</time></trkpt><trkpt lat="45.991599954747" lon="12.304459990908502"><ele>136.0</ele><time>2026-03-23T11:53:41.001Z</time></trkpt><trkpt lat="45.99152149387587" lon="12.304545545503109"><ele>136.0</ele><time>2026-03-23T11:53:42.001Z</time></trkpt><trkpt lat="45.99143510555473" lon="12.304649204560683"><ele>136.0</ele><time>2026-03-23T11:53:43.001Z</time></trkpt><trkpt lat="45.9913377873227" lon="12.304761289696359"><ele>136.0</ele><time>2026-03-23T11:53:44.001Z</time></trkpt><trkpt lat="45.99123712072232" lon="12.304880880653075"><ele>136.0</ele><time>2026-03-23T11:53:45.001Z</time></trkpt><trkpt lat="45.99113213275929" lon="12.305001439225094"><ele>135.5</ele><time>2026-03-23T11:53:46.001Z</time></trkpt><trkpt lat="45.991026627999105" lon="12.305122823164865"><ele>135.0</ele><time>2026-03-23T11:53:47.001Z</time></trkpt><trkpt lat="45.99091661622009" lon="12.305247913244024"><ele>134.5</ele><time>2026-03-23T11:53:48.001Z</time></trkpt><trkpt lat="45.99080689425784" lon="12.305370616231947"><ele>134.0</ele><time>2026-03-23T11:53:49.001Z</time></trkpt><trkpt lat="45.990706897573034" lon="12.305484121802433"><ele>133.25</ele><time>2026-03-23T11:53:50.001Z</time></trkpt><trkpt lat="45.99060853265443" lon="12.30559571658508"><ele>132.5</ele><time>2026-03-23T11:53:51.001Z</time></trkpt><trkpt lat="45.99050830028621" lon="12.30570597838147"><ele>131.75</ele><time>2026-03-23T11:53:52.001Z</time></trkpt><trkpt lat="45.99040753232459" lon="12.30581826618222"><ele>131.0</ele><time>2026-03-23T11:53:53.001Z</time></trkpt><trkpt lat="45.99030620795143" lon="12.305937037494337"><ele>131.0</ele><time>2026-03-23T11:53:54.001Z</time></trkpt><trkpt lat="45.99019686953909" lon="12.306059979251149"><ele>131.0</ele><time>2026-03-23T11:53:55.001Z</time></trkpt><trkpt lat="45.99008723379314" lon="12.306186136607629"><ele>131.0</ele><time>2026-03-23T11:53:56.001Z</time></trkpt><trkpt lat="45.98997590909894" lon="12.306310293023342"><ele>131.0</ele><time>2026-03-23T11:53:57.001Z</time></trkpt><trkpt lat="45.98986002022011" lon="12.306443505153576"><ele>131.0</ele><time>2026-03-23T11:53:58.001Z</time></trkpt><trkpt lat="45.98974421804435" lon="12.306578269204305"><ele>131.0</ele><time>2026-03-23T11:53:59.001Z</time></trkpt><trkpt lat="45.98963204247574" lon="12.306712297459669"><ele>131.0</ele><time>2026-03-23T11:54:00.001Z</time></trkpt><trkpt lat="45.989517001950965" lon="12.306844266014798"><ele>131.0</ele><time>2026-03-23T11:54:01.001Z</time></trkpt><trkpt lat="45.98940311002009" lon="12.30697619300857"><ele>131.0</ele><time>2026-03-23T11:54:02.001Z</time></trkpt><trkpt lat="45.98929055259636" lon="12.307101924199417"><ele>131.0</ele><time>2026-03-23T11:54:03.001Z</time></trkpt><trkpt lat="45.989182383025096" lon="12.307213538853842"><ele>131.0</ele><time>2026-03-23T11:54:04.001Z</time></trkpt><trkpt lat="45.98907753655591" lon="12.307311666737037"><ele>131.0</ele><time>2026-03-23T11:54:05.001Z</time></trkpt><trkpt lat="45.9889776945531" lon="12.307392864286061"><ele>131.8</ele><time>2026-03-23T11:54:06.001Z</time></trkpt><trkpt lat="45.988882269702664" lon="12.307464304282032"><ele>132.6</ele><time>2026-03-23T11:54:07.001Z</time></trkpt><trkpt lat="45.98879098583777" lon="12.307523450101924"><ele>133.4</ele><time>2026-03-23T11:54:08.001Z</time></trkpt><trkpt lat="45.98870970827073" lon="12.307603494478222"><ele>134.2</ele><time>2026-03-23T11:54:09.001Z</time></trkpt><trkpt lat="45.98863466329618" lon="12.307684543244747"><ele>135.0</ele><time>2026-03-23T11:54:10.001Z</time></trkpt><trkpt lat="45.98857377786328" lon="12.307768153998232"><ele>135.0</ele><time>2026-03-23T11:54:11.001Z</time></trkpt><trkpt lat="45.98851802186772" lon="12.307852485749299"><ele>135.0</ele><time>2026-03-23T11:54:12.001Z</time></trkpt><trkpt lat="45.98846579055859" lon="12.307926481070396"><ele>135.0</ele><time>2026-03-23T11:54:13.001Z</time></trkpt><trkpt lat="45.988396471271265" lon="12.307958257960939"><ele>135.0</ele><time>2026-03-23T11:54:14.001Z</time></trkpt><trkpt lat="45.98832982298231" lon="12.307972563393385"><ele>135.0</ele><time>2026-03-23T11:54:15.001Z</time></trkpt><trkpt lat="45.9882229956258" lon="12.308033130118245"><ele>135.0</ele><time>2026-03-23T11:54:17.001Z</time></trkpt><trkpt lat="45.9882160584416" lon="12.30820646569365"><ele>134.66666666666666</ele><time>2026-03-23T11:54:19.001Z</time></trkpt><trkpt lat="45.98826206069507" lon="12.308297906104784"><ele>134.33333333333334</ele><time>2026-03-23T11:54:20.001Z</time></trkpt><trkpt lat="45.98831766422096" lon="12.30841431925632"><ele>134.0</ele><time>2026-03-23T11:54:21.001Z</time></trkpt><trkpt lat="45.98832719307087" lon="12.30855311015915"><ele>133.66666666666669</ele><time>2026-03-23T11:54:22.001Z</time></trkpt><trkpt lat="45.988331154285355" lon="12.308682086838852"><ele>133.33333333333334</ele><time>2026-03-23T11:54:23.001Z</time></trkpt><trkpt lat="45.9883270838288" lon="12.308799061107576"><ele>133.0</ele><time>2026-03-23T11:54:24.001Z</time></trkpt><trkpt lat="45.98832206234241" lon="12.30892473959744"><ele>133.0</ele><time>2026-03-23T11:54:25.001Z</time></trkpt><trkpt lat="45.9883168853837" lon="12.309059515249334"><ele>133.0</ele><time>2026-03-23T11:54:26.001Z</time></trkpt><trkpt lat="45.98831039563364" lon="12.309181995025659"><ele>133.0</ele><time>2026-03-23T11:54:27.001Z</time></trkpt><trkpt lat="45.98831131358387" lon="12.30930294013012"><ele>133.0</ele><time>2026-03-23T11:54:28.001Z</time></trkpt><trkpt lat="45.98830673439618" lon="12.309439333556991"><ele>133.0</ele><time>2026-03-23T11:54:29.001Z</time></trkpt><trkpt lat="45.988298293435044" lon="12.30958509608783"><ele>133.0</ele><time>2026-03-23T11:54:30.001Z</time></trkpt><trkpt lat="45.988287543554215" lon="12.309714482261832"><ele>133.0</ele><time>2026-03-23T11:54:31.001Z</time></trkpt><trkpt lat="45.988282289717056" lon="12.30983724268277"><ele>133.0</ele><time>2026-03-23T11:54:32.001Z</time></trkpt><trkpt lat="45.98827745143959" lon="12.309978297890348"><ele>133.0</ele><time>2026-03-23T11:54:33.001Z</time></trkpt><trkpt lat="45.98826716270209" lon="12.310143519501047"><ele>133.0</ele><time>2026-03-23T11:54:34.001Z</time></trkpt><trkpt lat="45.988256569676885" lon="12.310298378374355"><ele>133.0</ele><time>2026-03-23T11:54:35.001Z</time></trkpt><trkpt lat="45.98825484898373" lon="12.31047420377732"><ele>133.0</ele><time>2026-03-23T11:54:36.001Z</time></trkpt><trkpt lat="45.98825027740852" lon="12.310675953490277"><ele>133.0</ele><time>2026-03-23T11:54:37.001Z</time></trkpt><trkpt lat="45.988243771463104" lon="12.310868508212366"><ele>133.0</ele><time>2026-03-23T11:54:38.001Z</time></trkpt><trkpt lat="45.988235788920164" lon="12.311047173162766"><ele>133.0</ele><time>2026-03-23T11:54:39.001Z</time></trkpt><trkpt lat="45.988227919889184" lon="12.311211177678345"><ele>133.0</ele><time>2026-03-23T11:54:40.001Z</time></trkpt><trkpt lat="45.98821702365031" lon="12.311368900968258"><ele>133.0</ele><time>2026-03-23T11:54:41.001Z</time></trkpt><trkpt lat="45.98820679819335" lon="12.311527692039009"><ele>133.0</ele><time>2026-03-23T11:54:42.001Z</time></trkpt><trkpt lat="45.98819849156824" lon="12.311694876692295"><ele>133.0</ele><time>2026-03-23T11:54:43Z</time></trkpt><trkpt lat="45.98818892096646" lon="12.311867096062047"><ele>133.0</ele><time>2026-03-23T11:54:44Z</time></trkpt><trkpt lat="45.9881770693404" lon="12.312043513680376"><ele>133.0</ele><time>2026-03-23T11:54:45Z</time></trkpt><trkpt lat="45.98816374467262" lon="12.312217599841007"><ele>133.0</ele><time>2026-03-23T11:54:46Z</time></trkpt><trkpt lat="45.988147112689155" lon="12.312382173163764"><ele>133.0</ele><time>2026-03-23T11:54:47Z</time></trkpt><trkpt lat="45.988133551061395" lon="12.312530396985105"><ele>133.0</ele><time>2026-03-23T11:54:48Z</time></trkpt><trkpt lat="45.98811565874992" lon="12.312658159029004"><ele>133.0</ele><time>2026-03-23T11:54:49Z</time></trkpt><trkpt lat="45.98809722293516" lon="12.312778693676721"><ele>133.0</ele><time>2026-03-23T11:54:50Z</time></trkpt><trkpt lat="45.98807853512539" lon="12.312889567740791"><ele>133.0</ele><time>2026-03-23T11:54:51Z</time></trkpt><trkpt lat="45.988055192820575" lon="12.312998060456522"><ele>133.0</ele><time>2026-03-23T11:54:52Z</time></trkpt><trkpt lat="45.98802886854853" lon="12.313110443803422"><ele>133.0</ele><time>2026-03-23T11:54:53Z</time></trkpt><trkpt lat="45.987999125356126" lon="12.313227152995212"><ele>133.0</ele><time>2026-03-23T11:54:54Z</time></trkpt><trkpt lat="45.98796477518401" lon="12.313352163952487"><ele>133.0</ele><time>2026-03-23T11:54:55Z</time></trkpt><trkpt lat="45.98793734268498" lon="12.313484739794037"><ele>133.0</ele><time>2026-03-23T11:54:56Z</time></trkpt><trkpt lat="45.987909042331516" lon="12.313624821868752"><ele>133.0</ele><time>2026-03-23T11:54:57Z</time></trkpt><trkpt lat="45.98787900458866" lon="12.313768274327165"><ele>133.0</ele><time>2026-03-23T11:54:58Z</time></trkpt><trkpt lat="45.98784337687696" lon="12.313921217836269"><ele>133.0</ele><time>2026-03-23T11:54:59Z</time></trkpt><trkpt lat="45.98780187733718" lon="12.314073994589338"><ele>133.0</ele><time>2026-03-23T11:55:00Z</time></trkpt><trkpt lat="45.98776142363827" lon="12.314230510523066"><ele>133.0</ele><time>2026-03-23T11:55:01Z</time></trkpt><trkpt lat="45.987722926927205" lon="12.314380811345321"><ele>133.0</ele><time>2026-03-23T11:55:02Z</time></trkpt><trkpt lat="45.98768395018718" lon="12.314524309604112"><ele>133.0</ele><time>2026-03-23T11:55:03Z</time></trkpt><trkpt lat="45.98765249630326" lon="12.314664306881205"><ele>133.0</ele><time>2026-03-23T11:55:04Z</time></trkpt><trkpt lat="45.98761929549779" lon="12.314797733502449"><ele>133.0</ele><time>2026-03-23T11:55:05Z</time></trkpt><trkpt lat="45.98758371944716" lon="12.314937420366439"><ele>133.0</ele><time>2026-03-23T11:55:06Z</time></trkpt><trkpt lat="45.98754815091837" lon="12.315080059475276"><ele>133.20000000000002</ele><time>2026-03-23T11:55:07Z</time></trkpt><trkpt lat="45.98751229604809" lon="12.315226202224757"><ele>133.4</ele><time>2026-03-23T11:55:08Z</time></trkpt><trkpt lat="45.98747520584977" lon="12.31537303690445"><ele>133.60000000000002</ele><time>2026-03-23T11:55:09Z</time></trkpt><trkpt lat="45.98743485885726" lon="12.315521805037694"><ele>133.8</ele><time>2026-03-23T11:55:10Z</time></trkpt><trkpt lat="45.987392467432635" lon="12.315672258362701"><ele>134.0</ele><time>2026-03-23T11:55:11Z</time></trkpt><trkpt lat="45.98734837390922" lon="12.31582394867763"><ele>133.25</ele><time>2026-03-23T11:55:12Z</time></trkpt><trkpt lat="45.98729976317954" lon="12.315978158777702"><ele>132.5</ele><time>2026-03-23T11:55:13Z</time></trkpt><trkpt lat="45.98724576417359" lon="12.316129660427714"><ele>131.75</ele><time>2026-03-23T11:55:14Z</time></trkpt><trkpt lat="45.98718730676115" lon="12.316281437904204"><ele>131.0</ele><time>2026-03-23T11:55:15Z</time></trkpt><trkpt lat="45.98712533574584" lon="12.31643372464689"><ele>130.75</ele><time>2026-03-23T11:55:16Z</time></trkpt><trkpt lat="45.987061634474756" lon="12.316586298540035"><ele>130.5</ele><time>2026-03-23T11:55:17Z</time></trkpt><trkpt lat="45.986992730297764" lon="12.316739606696741"><ele>130.25</ele><time>2026-03-23T11:55:18Z</time></trkpt><trkpt lat="45.98692052225965" lon="12.316889581556353"><ele>130.0</ele><time>2026-03-23T11:55:19Z</time></trkpt><trkpt lat="45.986851524802724" lon="12.317042571826729"><ele>130.0</ele><time>2026-03-23T11:55:20Z</time></trkpt><trkpt lat="45.98678418666556" lon="12.317191661453812"><ele>130.0</ele><time>2026-03-23T11:55:21Z</time></trkpt><trkpt lat="45.98671670073162" lon="12.31732587582797"><ele>130.0</ele><time>2026-03-23T11:55:22Z</time></trkpt><trkpt lat="45.98665388052177" lon="12.31745484416533"><ele>130.0</ele><time>2026-03-23T11:55:23Z</time></trkpt><trkpt lat="45.98659091697825" lon="12.317582193456348"><ele>129.5</ele><time>2026-03-23T11:55:24Z</time></trkpt><trkpt lat="45.986529374689574" lon="12.317715323216627"><ele>129.0</ele><time>2026-03-23T11:55:25Z</time></trkpt><trkpt lat="45.98646882477806" lon="12.317857308722742"><ele>128.5</ele><time>2026-03-23T11:55:26Z</time></trkpt><trkpt lat="45.98641243410911" lon="12.318004960128695"><ele>128.0</ele><time>2026-03-23T11:55:27Z</time></trkpt><trkpt lat="45.986359517003" lon="12.318156867881994"><ele>128.0</ele><time>2026-03-23T11:55:28Z</time></trkpt><trkpt lat="45.98630933544984" lon="12.318313197633223"><ele>128.0</ele><time>2026-03-23T11:55:29Z</time></trkpt><trkpt lat="45.9862608501312" lon="12.318472520383255"><ele>128.0</ele><time>2026-03-23T11:55:30Z</time></trkpt><trkpt lat="45.986218919432964" lon="12.318630669107597"><ele>128.0</ele><time>2026-03-23T11:55:31Z</time></trkpt><trkpt lat="45.98618435650095" lon="12.318791068769471"><ele>128.4</ele><time>2026-03-23T11:55:32Z</time></trkpt><trkpt lat="45.98615232886458" lon="12.318950062997345"><ele>128.8</ele><time>2026-03-23T11:55:33Z</time></trkpt><trkpt lat="45.986124291769784" lon="12.31910790408549"><ele>129.2</ele><time>2026-03-23T11:55:34Z</time></trkpt><trkpt lat="45.986100144151045" lon="12.319257167529258"><ele>129.6</ele><time>2026-03-23T11:55:35Z</time></trkpt><trkpt lat="45.986081785497426" lon="12.31939719691179"><ele>130.0</ele><time>2026-03-23T11:55:36Z</time></trkpt><trkpt lat="45.98606605060359" lon="12.319528468145462"><ele>130.0</ele><time>2026-03-23T11:55:37.001Z</time></trkpt><trkpt lat="45.98603833765706" lon="12.319647655511153"><ele>130.0</ele><time>2026-03-23T11:55:38.001Z</time></trkpt><trkpt lat="45.98599112420823" lon="12.319744145181009"><ele>130.0</ele><time>2026-03-23T11:55:39.001Z</time></trkpt><trkpt lat="45.985931086055835" lon="12.319813687259442"><ele>130.0</ele><time>2026-03-23T11:55:40.001Z</time></trkpt><trkpt lat="45.98585884157786" lon="12.319879477722637"><ele>130.0</ele><time>2026-03-23T11:55:41.001Z</time></trkpt><trkpt lat="45.98577738206442" lon="12.319939535248295"><ele>130.0</ele><time>2026-03-23T11:55:42.001Z</time></trkpt><trkpt lat="45.98569973980325" lon="12.320016757745297"><ele>129.6</ele><time>2026-03-23T11:55:43.001Z</time></trkpt><trkpt lat="45.98564254420133" lon="12.320127066890302"><ele>129.2</ele><time>2026-03-23T11:55:44.001Z</time></trkpt><trkpt lat="45.98561019071639" lon="12.320246368081156"><ele>128.8</ele><time>2026-03-23T11:55:45.001Z</time></trkpt><trkpt lat="45.985598395394696" lon="12.320381944067371"><ele>128.4</ele><time>2026-03-23T11:55:46.001Z</time></trkpt><trkpt lat="45.98561309603326" lon="12.320515199428504"><ele>128.0</ele><time>2026-03-23T11:55:47.001Z</time></trkpt><trkpt lat="45.98565582982819" lon="12.320641501078242"><ele>127.99999999999999</ele><time>2026-03-23T11:55:48.001Z</time></trkpt><trkpt lat="45.98571891790115" lon="12.320753679943916"><ele>128.0</ele><time>2026-03-23T11:55:49.001Z</time></trkpt><trkpt lat="45.98578611401045" lon="12.320850387484496"><ele>128.0</ele><time>2026-03-23T11:55:50.001Z</time></trkpt><trkpt lat="45.985846211813445" lon="12.320947350979656"><ele>128.0</ele><time>2026-03-23T11:55:51.001Z</time></trkpt><trkpt lat="45.98587706121936" lon="12.321057516602911"><ele>127.99999999999999</ele><time>2026-03-23T11:55:52.001Z</time></trkpt><trkpt lat="45.98588694317469" lon="12.32116446438644"><ele>128.0</ele><time>2026-03-23T11:55:53.001Z</time></trkpt><trkpt lat="45.985876581134676" lon="12.321270427357286"><ele>128.0</ele><time>2026-03-23T11:55:54.001Z</time></trkpt><trkpt lat="45.98585906770401" lon="12.32139151683098"><ele>128.0</ele><time>2026-03-23T11:55:55.001Z</time></trkpt><trkpt lat="45.98584189641251" lon="12.32152149964136"><ele>128.0</ele><time>2026-03-23T11:55:56.001Z</time></trkpt><trkpt lat="45.98582801216878" lon="12.32166239588615"><ele>128.0</ele><time>2026-03-23T11:55:57.001Z</time></trkpt><trkpt lat="45.985813010583215" lon="12.321812751599541"><ele>128.0</ele><time>2026-03-23T11:55:58.001Z</time></trkpt><trkpt lat="45.98579501829671" lon="12.321964964706657"><ele>128.0</ele><time>2026-03-23T11:55:59.001Z</time></trkpt><trkpt lat="45.985777203033194" lon="12.322121819122932"><ele>128.0</ele><time>2026-03-23T11:56:00.001Z</time></trkpt><trkpt lat="45.98575991584225" lon="12.322279345610712"><ele>128.0</ele><time>2026-03-23T11:56:01.001Z</time></trkpt><trkpt lat="45.98574621480389" lon="12.322438893260546"><ele>128.0</ele><time>2026-03-23T11:56:02.001Z</time></trkpt><trkpt lat="45.985731037662894" lon="12.322598466734355"><ele>128.0</ele><time>2026-03-23T11:56:03.001Z</time></trkpt><trkpt lat="45.98571194646908" lon="12.32276514242622"><ele>128.25</ele><time>2026-03-23T11:56:04.001Z</time></trkpt><trkpt lat="45.985694146703594" lon="12.322940970398747"><ele>128.5</ele><time>2026-03-23T11:56:05.001Z</time></trkpt><trkpt lat="45.985682551065615" lon="12.323124363028567"><ele>128.75</ele><time>2026-03-23T11:56:06.001Z</time></trkpt><trkpt lat="45.98566952127494" lon="12.323317588970228"><ele>129.0</ele><time>2026-03-23T11:56:07.001Z</time></trkpt><trkpt lat="45.98565059713476" lon="12.323516541050804"><ele>129.0</ele><time>2026-03-23T11:56:08.001Z</time></trkpt><trkpt lat="45.98563261751105" lon="12.323700368367714"><ele>129.0</ele><time>2026-03-23T11:56:09.001Z</time></trkpt><trkpt lat="45.98561908970763" lon="12.323877936080821"><ele>129.0</ele><time>2026-03-23T11:56:10.001Z</time></trkpt><trkpt lat="45.98561056773612" lon="12.324057013937557"><ele>129.0</ele><time>2026-03-23T11:56:11.001Z</time></trkpt><trkpt lat="45.98560581973697" lon="12.32423656932353"><ele>129.25</ele><time>2026-03-23T11:56:12.001Z</time></trkpt><trkpt lat="45.985603161484576" lon="12.324415756604989"><ele>129.5</ele><time>2026-03-23T11:56:13.001Z</time></trkpt><trkpt lat="45.98560822702971" lon="12.324597376245524"><ele>129.75</ele><time>2026-03-23T11:56:14.001Z</time></trkpt><trkpt lat="45.98562057593848" lon="12.324778310232924"><ele>130.0</ele><time>2026-03-23T11:56:15.001Z</time></trkpt><trkpt lat="45.98563597716448" lon="12.324961392380402"><ele>130.0</ele><time>2026-03-23T11:56:16.001Z</time></trkpt><trkpt lat="45.98565170883714" lon="12.325162511260126"><ele>130.0</ele><time>2026-03-23T11:56:17.001Z</time></trkpt><trkpt lat="45.9856721092324" lon="12.325373054023508"><ele>130.0</ele><time>2026-03-23T11:56:18.001Z</time></trkpt><trkpt lat="45.98569366354272" lon="12.3255912865998"><ele>130.0</ele><time>2026-03-23T11:56:19.001Z</time></trkpt><trkpt lat="45.985714143594045" lon="12.3258223686469"><ele>130.33333333333334</ele><time>2026-03-23T11:56:20.001Z</time></trkpt><trkpt lat="45.98573272025633" lon="12.326047078103269"><ele>130.66666666666666</ele><time>2026-03-23T11:56:21.001Z</time></trkpt><trkpt lat="45.98575552592024" lon="12.326274013567163"><ele>131.0</ele><time>2026-03-23T11:56:22.001Z</time></trkpt><trkpt lat="45.9857751235795" lon="12.326490301967299"><ele>131.0</ele><time>2026-03-23T11:56:23.001Z</time></trkpt><trkpt lat="45.9857913418513" lon="12.326691473193632"><ele>131.0</ele><time>2026-03-23T11:56:24.001Z</time></trkpt><trkpt lat="45.985808276494154" lon="12.326881410214474"><ele>131.0</ele><time>2026-03-23T11:56:25.001Z</time></trkpt><trkpt lat="45.985824727124175" lon="12.327060526034124"><ele>131.0</ele><time>2026-03-23T11:56:26.001Z</time></trkpt><trkpt lat="45.98584327002335" lon="12.327227125456336"><ele>131.6</ele><time>2026-03-23T11:56:27.001Z</time></trkpt><trkpt lat="45.98586480363667" lon="12.327381181109375"><ele>132.2</ele><time>2026-03-23T11:56:28.001Z</time></trkpt><trkpt lat="45.98588668131929" lon="12.327524601411405"><ele>132.8</ele><time>2026-03-23T11:56:29.001Z</time></trkpt><trkpt lat="45.985903658799344" lon="12.32765399554087"><ele>133.4</ele><time>2026-03-23T11:56:30.001Z</time></trkpt><trkpt lat="45.98591843206693" lon="12.327782704794748"><ele>134.0</ele><time>2026-03-23T11:56:31.001Z</time></trkpt><trkpt lat="45.98592718771135" lon="12.32791100193233"><ele>134.0</ele><time>2026-03-23T11:56:32.001Z</time></trkpt><trkpt lat="45.985935068122586" lon="12.328041445543322"><ele>134.0</ele><time>2026-03-23T11:56:33.001Z</time></trkpt><trkpt lat="45.985945187166365" lon="12.328175172953893"><ele>134.0</ele><time>2026-03-23T11:56:34.001Z</time></trkpt><trkpt lat="45.98595371108791" lon="12.328311045044334"><ele>134.0</ele><time>2026-03-23T11:56:35.001Z</time></trkpt><trkpt lat="45.98596522525123" lon="12.32844888216587"><ele>134.0</ele><time>2026-03-23T11:56:36.001Z</time></trkpt><trkpt lat="45.985977008246216" lon="12.328586960337995"><ele>134.2</ele><time>2026-03-23T11:56:37.001Z</time></trkpt><trkpt lat="45.985982992419764" lon="12.328732187031534"><ele>134.4</ele><time>2026-03-23T11:56:38.001Z</time></trkpt><trkpt lat="45.985989855831704" lon="12.328878613130579"><ele>134.6</ele><time>2026-03-23T11:56:39Z</time></trkpt><trkpt lat="45.98599756840155" lon="12.329038555545026"><ele>134.8</ele><time>2026-03-23T11:56:40Z</time></trkpt><trkpt lat="45.986006986055855" lon="12.329206449149266"><ele>135.0</ele><time>2026-03-23T11:56:41Z</time></trkpt><trkpt lat="45.98601285646454" lon="12.329386051353746"><ele>135.25</ele><time>2026-03-23T11:56:42Z</time></trkpt><trkpt lat="45.98600694782123" lon="12.329564156090036"><ele>135.5</ele><time>2026-03-23T11:56:43Z</time></trkpt><trkpt lat="45.98598459586748" lon="12.329732738963589"><ele>135.75</ele><time>2026-03-23T11:56:44Z</time></trkpt><trkpt lat="45.985948894902805" lon="12.329902967595027"><ele>136.0</ele><time>2026-03-23T11:56:45Z</time></trkpt><trkpt lat="45.98590605898633" lon="12.33007888036066"><ele>136.5</ele><time>2026-03-23T11:56:46Z</time></trkpt><trkpt lat="45.98585025223748" lon="12.33024984365879"><ele>137.0</ele><time>2026-03-23T11:56:47Z</time></trkpt><trkpt lat="45.98578514617323" lon="12.330418809321186"><ele>137.5</ele><time>2026-03-23T11:56:48Z</time></trkpt><trkpt lat="45.98571334829073" lon="12.330586620183821"><ele>138.0</ele><time>2026-03-23T11:56:49Z</time></trkpt><trkpt lat="45.98563535397367" lon="12.33075371521217"><ele>137.5</ele><time>2026-03-23T11:56:50Z</time></trkpt><trkpt lat="45.985553981732544" lon="12.330918958856701"><ele>137.0</ele><time>2026-03-23T11:56:51Z</time></trkpt><trkpt lat="45.98547564336851" lon="12.331083865498357"><ele>136.5</ele><time>2026-03-23T11:56:52Z</time></trkpt><trkpt lat="45.985398599794514" lon="12.331250345892677"><ele>136.0</ele><time>2026-03-23T11:56:53Z</time></trkpt><trkpt lat="45.98532077928421" lon="12.331414706571154"><ele>136.0</ele><time>2026-03-23T11:56:54Z</time></trkpt><trkpt lat="45.985242288975776" lon="12.331579849484271"><ele>136.0</ele><time>2026-03-23T11:56:55Z</time></trkpt><trkpt lat="45.985166676676876" lon="12.33174681795525"><ele>136.0</ele><time>2026-03-23T11:56:56Z</time></trkpt><trkpt lat="45.985092604112744" lon="12.331906671347062"><ele>136.0</ele><time>2026-03-23T11:56:57Z</time></trkpt><trkpt lat="45.98502165093269" lon="12.33206403708364"><ele>134.0</ele><time>2026-03-23T11:56:58Z</time></trkpt><trkpt lat="45.98495303753611" lon="12.332218561643877"><ele>132.0</ele><time>2026-03-23T11:56:59Z</time></trkpt><trkpt lat="45.984881630504645" lon="12.332375720052706"><ele>130.0</ele><time>2026-03-23T11:57:00Z</time></trkpt><trkpt lat="45.984806318322846" lon="12.332533588972046"><ele>128.0</ele><time>2026-03-23T11:57:01Z</time></trkpt><trkpt lat="45.98473078517849" lon="12.332694882892689"><ele>127.75</ele><time>2026-03-23T11:57:02Z</time></trkpt><trkpt lat="45.984653790608775" lon="12.332857756984435"><ele>127.5</ele><time>2026-03-23T11:57:03Z</time></trkpt><trkpt lat="45.984573514767106" lon="12.333028570977804"><ele>127.25</ele><time>2026-03-23T11:57:04Z</time></trkpt><trkpt lat="45.984489378694114" lon="12.333204088373451"><ele>127.0</ele><time>2026-03-23T11:57:05Z</time></trkpt><trkpt lat="45.98440465123011" lon="12.333380721896573"><ele>126.33333333333334</ele><time>2026-03-23T11:57:06Z</time></trkpt><trkpt lat="45.98431816351106" lon="12.333564778593091"><ele>125.66666666666666</ele><time>2026-03-23T11:57:07Z</time></trkpt><trkpt lat="45.984232068624586" lon="12.333746515831626"><ele>125.0</ele><time>2026-03-23T11:57:08Z</time></trkpt><trkpt lat="45.98414786321441" lon="12.333928375899225"><ele>125.0</ele><time>2026-03-23T11:57:09Z</time></trkpt><trkpt lat="45.984063091978236" lon="12.334107889917789"><ele>125.0</ele><time>2026-03-23T11:57:10Z</time></trkpt><trkpt lat="45.98397469813874" lon="12.3342700310619"><ele>125.0</ele><time>2026-03-23T11:57:11Z</time></trkpt><trkpt lat="45.98387581765664" lon="12.334410791432664"><ele>125.0</ele><time>2026-03-23T11:57:12Z</time></trkpt><trkpt lat="45.98376877959394" lon="12.334525495306142"><ele>125.0</ele><time>2026-03-23T11:57:13Z</time></trkpt><trkpt lat="45.98365377531425" lon="12.334645464746611"><ele>125.0</ele><time>2026-03-23T11:57:14Z</time></trkpt><trkpt lat="45.98353445936195" lon="12.334770001503049"><ele>125.0</ele><time>2026-03-23T11:57:15Z</time></trkpt><trkpt lat="45.98341443016075" lon="12.334895015221738"><ele>125.0</ele><time>2026-03-23T11:57:16Z</time></trkpt><trkpt lat="45.98329183368609" lon="12.335021874551023"><ele>123.33333333333333</ele><time>2026-03-23T11:57:17Z</time></trkpt><trkpt lat="45.983165797127846" lon="12.335148384007246"><ele>121.66666666666666</ele><time>2026-03-23T11:57:18Z</time></trkpt><trkpt lat="45.98304154978949" lon="12.335272315811899"><ele>120.0</ele><time>2026-03-23T11:57:19Z</time></trkpt><trkpt lat="45.98291634310466" lon="12.335400242939668"><ele>120.0</ele><time>2026-03-23T11:57:20Z</time></trkpt><trkpt lat="45.98279535475372" lon="12.335534353886992"><ele>120.0</ele><time>2026-03-23T11:57:21Z</time></trkpt><trkpt lat="45.98267584090686" lon="12.335675902770328"><ele>120.0</ele><time>2026-03-23T11:57:22Z</time></trkpt><trkpt lat="45.98256192192278" lon="12.335821933380494"><ele>119.5</ele><time>2026-03-23T11:57:23Z</time></trkpt><trkpt lat="45.98245371466598" lon="12.335968438876032"><ele>119.0</ele><time>2026-03-23T11:57:24Z</time></trkpt><trkpt lat="45.98234819271869" lon="12.33611788893033"><ele>118.5</ele><time>2026-03-23T11:57:25Z</time></trkpt><trkpt lat="45.98224738148024" lon="12.336267655968859"><ele>118.0</ele><time>2026-03-23T11:57:26Z</time></trkpt><trkpt lat="45.98214867892881" lon="12.33642030562013"><ele>118.0</ele><time>2026-03-23T11:57:27Z</time></trkpt><trkpt lat="45.98205315911308" lon="12.336571504497664"><ele>118.0</ele><time>2026-03-23T11:57:28Z</time></trkpt><trkpt lat="45.98195818327004" lon="12.336715529329915"><ele>118.0</ele><time>2026-03-23T11:57:29Z</time></trkpt><trkpt lat="45.98186956063995" lon="12.336853836791958"><ele>118.0</ele><time>2026-03-23T11:57:30Z</time></trkpt><trkpt lat="45.98178287130446" lon="12.336984334405543"><ele>118.0</ele><time>2026-03-23T11:57:31Z</time></trkpt><trkpt lat="45.98169806983373" lon="12.33710314672604"><ele>118.00000000000001</ele><time>2026-03-23T11:57:32Z</time></trkpt><trkpt lat="45.981625099991035" lon="12.33721607384237"><ele>118.00000000000001</ele><time>2026-03-23T11:57:33Z</time></trkpt><trkpt lat="45.98156214135248" lon="12.33732189256436"><ele>118.0</ele><time>2026-03-23T11:57:34Z</time></trkpt><trkpt lat="45.98150405056971" lon="12.33740493238156"><ele>118.0</ele><time>2026-03-23T11:57:35Z</time></trkpt><trkpt lat="45.981449171433326" lon="12.337472532229189"><ele>117.4</ele><time>2026-03-23T11:57:36Z</time></trkpt><trkpt lat="45.98139808040911" lon="12.3375315159937"><ele>116.80000000000001</ele><time>2026-03-23T11:57:37Z</time></trkpt><trkpt lat="45.98135112561774" lon="12.3375982666128"><ele>116.2</ele><time>2026-03-23T11:57:38Z</time></trkpt><trkpt lat="45.98126813573777" lon="12.337731558172496"><ele>115.6</ele><time>2026-03-23T11:57:40Z</time></trkpt><trkpt lat="45.98118288449124" lon="12.337871269216341"><ele>115.0</ele><time>2026-03-23T11:57:42Z</time></trkpt><trkpt lat="45.98112969513054" lon="12.33794914871938"><ele>115.0</ele><time>2026-03-23T11:57:43Z</time></trkpt><trkpt lat="45.98106946939814" lon="12.338036505788363"><ele>115.0</ele><time>2026-03-23T11:57:44Z</time></trkpt><trkpt lat="45.981000416541455" lon="12.338144012977969"><ele>115.0</ele><time>2026-03-23T11:57:45Z</time></trkpt><trkpt lat="45.980926424585334" lon="12.33825762784845"><ele>115.0</ele><time>2026-03-23T11:57:46Z</time></trkpt><trkpt lat="45.980849150522566" lon="12.338374079551485"><ele>115.0</ele><time>2026-03-23T11:57:47Z</time></trkpt><trkpt lat="45.98076590208306" lon="12.338489132546924"><ele>114.75</ele><time>2026-03-23T11:57:48Z</time></trkpt><trkpt lat="45.98068064126126" lon="12.33860587225706"><ele>114.5</ele><time>2026-03-23T11:57:49Z</time></trkpt><trkpt lat="45.98059635637525" lon="12.338722884727659"><ele>114.25</ele><time>2026-03-23T11:57:50Z</time></trkpt><trkpt lat="45.98051361539644" lon="12.338839844741393"><ele>114.0</ele><time>2026-03-23T11:57:51Z</time></trkpt><trkpt lat="45.980432431084196" lon="12.338967744187478"><ele>114.5</ele><time>2026-03-23T11:57:52Z</time></trkpt><trkpt lat="45.98034667118609" lon="12.339101017335004"><ele>115.0</ele><time>2026-03-23T11:57:53Z</time></trkpt><trkpt lat="45.980254590479554" lon="12.339238608244738"><ele>115.5</ele><time>2026-03-23T11:57:54Z</time></trkpt><trkpt lat="45.98016324882576" lon="12.339377632271901"><ele>116.0</ele><time>2026-03-23T11:57:55Z</time></trkpt><trkpt lat="45.98006682391502" lon="12.33952599906103"><ele>115.5</ele><time>2026-03-23T11:57:56Z</time></trkpt><trkpt lat="45.97997050707707" lon="12.33967517194862"><ele>115.0</ele><time>2026-03-23T11:57:57Z</time></trkpt><trkpt lat="45.97987448579917" lon="12.33982942665528"><ele>114.5</ele><time>2026-03-23T11:57:58Z</time></trkpt><trkpt lat="45.979767116801625" lon="12.339983376968558"><ele>114.0</ele><time>2026-03-23T11:57:59Z</time></trkpt><trkpt lat="45.97964998071656" lon="12.3401362166107"><ele>114.0</ele><time>2026-03-23T11:58:00Z</time></trkpt><trkpt lat="45.97952247848133" lon="12.340276529068875"><ele>114.0</ele><time>2026-03-23T11:58:01Z</time></trkpt><trkpt lat="45.97938439771653" lon="12.340412654339167"><ele>114.0</ele><time>2026-03-23T11:58:02Z</time></trkpt><trkpt lat="45.979237676772264" lon="12.340538747839117"><ele>115.0</ele><time>2026-03-23T11:58:03Z</time></trkpt><trkpt lat="45.97908514196971" lon="12.340654816933254"><ele>116.0</ele><time>2026-03-23T11:58:04Z</time></trkpt><trkpt lat="45.97894303977341" lon="12.340755379525435"><ele>117.0</ele><time>2026-03-23T11:58:05Z</time></trkpt><trkpt lat="45.97880840758899" lon="12.34083849024057"><ele>117.0</ele><time>2026-03-23T11:58:06Z</time></trkpt><trkpt lat="45.978678397183096" lon="12.340915970805383"><ele>117.0</ele><time>2026-03-23T11:58:07Z</time></trkpt><trkpt lat="45.97854201404838" lon="12.340993790349266"><ele>117.0</ele><time>2026-03-23T11:58:08Z</time></trkpt><trkpt lat="45.97841358104477" lon="12.341067009547144"><ele>117.0</ele><time>2026-03-23T11:58:09Z</time></trkpt><trkpt lat="45.97829180222226" lon="12.341133582217516"><ele>117.5</ele><time>2026-03-23T11:58:10Z</time></trkpt><trkpt lat="45.978175917486965" lon="12.341199834599003"><ele>118.0</ele><time>2026-03-23T11:58:11Z</time></trkpt><trkpt lat="45.97805710070359" lon="12.341269144130843"><ele>118.5</ele><time>2026-03-23T11:58:12Z</time></trkpt><trkpt lat="45.977923313131" lon="12.341344289791"><ele>119.0</ele><time>2026-03-23T11:58:13Z</time></trkpt><trkpt lat="45.977775294007614" lon="12.341425303546945"><ele>119.0</ele><time>2026-03-23T11:58:14Z</time></trkpt><trkpt lat="45.977642711909084" lon="12.341505775021387"><ele>119.0</ele><time>2026-03-23T11:58:15.001Z</time></trkpt><trkpt lat="45.97751059002921" lon="12.341594763420563"><ele>119.0</ele><time>2026-03-23T11:58:16.001Z</time></trkpt><trkpt lat="45.97738255138277" lon="12.341690600496522"><ele>119.0</ele><time>2026-03-23T11:58:17.001Z</time></trkpt><trkpt lat="45.97725869762662" lon="12.34180304038217"><ele>119.75</ele><time>2026-03-23T11:58:18.001Z</time></trkpt><trkpt lat="45.97713729796239" lon="12.341926559499615"><ele>120.5</ele><time>2026-03-23T11:58:19.001Z</time></trkpt><trkpt lat="45.97702495453683" lon="12.342055969248626"><ele>121.25</ele><time>2026-03-23T11:58:20.001Z</time></trkpt><trkpt lat="45.97691504800975" lon="12.342182069513926"><ele>122.0</ele><time>2026-03-23T11:58:21.001Z</time></trkpt><trkpt lat="45.97680869800461" lon="12.342305357049952"><ele>122.0</ele><time>2026-03-23T11:58:22.001Z</time></trkpt><trkpt lat="45.97670691721618" lon="12.34242727167746"><ele>122.0</ele><time>2026-03-23T11:58:23.001Z</time></trkpt><trkpt lat="45.97660589389436" lon="12.342546737609505"><ele>122.0</ele><time>2026-03-23T11:58:24.001Z</time></trkpt><trkpt lat="45.97650410989411" lon="12.342667984242837"><ele>122.0</ele><time>2026-03-23T11:58:25.001Z</time></trkpt><trkpt lat="45.97639992578907" lon="12.342796204608728"><ele>121.25</ele><time>2026-03-23T11:58:26.001Z</time></trkpt><trkpt lat="45.976295381659405" lon="12.34292389092645"><ele>120.5</ele><time>2026-03-23T11:58:27.001Z</time></trkpt><trkpt lat="45.976182846166736" lon="12.343048284040414"><ele>119.75</ele><time>2026-03-23T11:58:28.001Z</time></trkpt><trkpt lat="45.97606863427223" lon="12.343168092234105"><ele>119.0</ele><time>2026-03-23T11:58:29.001Z</time></trkpt><trkpt lat="45.97595604552491" lon="12.34327664096439"><ele>116.0</ele><time>2026-03-23T11:58:30.001Z</time></trkpt><trkpt lat="45.975843061719004" lon="12.343367189287717"><ele>113.0</ele><time>2026-03-23T11:58:31.001Z</time></trkpt><trkpt lat="45.97573250875286" lon="12.343443459947018"><ele>110.0</ele><time>2026-03-23T11:58:32.001Z</time></trkpt><trkpt lat="45.97562265646854" lon="12.343511077529707"><ele>107.0</ele><time>2026-03-23T11:58:33.001Z</time></trkpt><trkpt lat="45.97551491620572" lon="12.343577724132185"><ele>107.0</ele><time>2026-03-23T11:58:34.001Z</time></trkpt><trkpt lat="45.97540259436019" lon="12.343648138672599"><ele>107.0</ele><time>2026-03-23T11:58:35.001Z</time></trkpt><trkpt lat="45.975286922002994" lon="12.343722533749856"><ele>107.0</ele><time>2026-03-23T11:58:36.001Z</time></trkpt><trkpt lat="45.97516847674347" lon="12.34379915363251"><ele>107.0</ele><time>2026-03-23T11:58:37.001Z</time></trkpt><trkpt lat="45.975045292501676" lon="12.343874020570404"><ele>107.0</ele><time>2026-03-23T11:58:38.001Z</time></trkpt><trkpt lat="45.97491888944826" lon="12.34395168983466"><ele>107.0</ele><time>2026-03-23T11:58:39.001Z</time></trkpt><trkpt lat="45.974789780703404" lon="12.344035720162154"><ele>107.0</ele><time>2026-03-23T11:58:40.001Z</time></trkpt><trkpt lat="45.97465822917639" lon="12.344123488767988"><ele>107.0</ele><time>2026-03-23T11:58:41.001Z</time></trkpt><trkpt lat="45.974531487576556" lon="12.344214480540206"><ele>107.0</ele><time>2026-03-23T11:58:42Z</time></trkpt><trkpt lat="45.974409822822366" lon="12.344310693772577"><ele>107.0</ele><time>2026-03-23T11:58:43Z</time></trkpt><trkpt lat="45.97429679718038" lon="12.344424486372123"><ele>107.0</ele><time>2026-03-23T11:58:44Z</time></trkpt><trkpt lat="45.97418814243252" lon="12.344557582813104"><ele>107.0</ele><time>2026-03-23T11:58:45Z</time></trkpt><trkpt lat="45.97408334172273" lon="12.344709197961468"><ele>106.33333333333333</ele><time>2026-03-23T11:58:46Z</time></trkpt><trkpt lat="45.97397177523172" lon="12.344869072166716"><ele>105.66666666666666</ele><time>2026-03-23T11:58:47Z</time></trkpt><trkpt lat="45.973861376626296" lon="12.345029148658202"><ele>105.0</ele><time>2026-03-23T11:58:48Z</time></trkpt><trkpt lat="45.9737609892349" lon="12.345178468897219"><ele>105.0</ele><time>2026-03-23T11:58:49Z</time></trkpt><trkpt lat="45.97366652957035" lon="12.345319039249164"><ele>105.0</ele><time>2026-03-23T11:58:50Z</time></trkpt><trkpt lat="45.97356756990528" lon="12.345457988415198"><ele>105.0</ele><time>2026-03-23T11:58:51Z</time></trkpt><trkpt lat="45.973458289566636" lon="12.34561645451354"><ele>105.0</ele><time>2026-03-23T11:58:52Z</time></trkpt><trkpt lat="45.97334339544271" lon="12.345790297741516"><ele>104.33333333333334</ele><time>2026-03-23T11:58:53Z</time></trkpt><trkpt lat="45.97322034311215" lon="12.345977911275394"><ele>103.66666666666667</ele><time>2026-03-23T11:58:54Z</time></trkpt><trkpt lat="45.97309130792992" lon="12.346168371613137"><ele>103.0</ele><time>2026-03-23T11:58:55Z</time></trkpt><trkpt lat="45.972959077888504" lon="12.346361761068316"><ele>105.0</ele><time>2026-03-23T11:58:56Z</time></trkpt><trkpt lat="45.97283984122143" lon="12.34654226369217"><ele>107.0</ele><time>2026-03-23T11:58:57Z</time></trkpt><trkpt lat="45.97272740717213" lon="12.346712003298576"><ele>109.0</ele><time>2026-03-23T11:58:58Z</time></trkpt><trkpt lat="45.97261845574889" lon="12.346873500510222"><ele>108.5</ele><time>2026-03-23T11:58:59Z</time></trkpt><trkpt lat="45.97251739374464" lon="12.347025994772583"><ele>108.0</ele><time>2026-03-23T11:59:00Z</time></trkpt><trkpt lat="45.97241879645146" lon="12.347169879605378"><ele>107.5</ele><time>2026-03-23T11:59:01Z</time></trkpt><trkpt lat="45.97232152303605" lon="12.347314767680142"><ele>107.0</ele><time>2026-03-23T11:59:02Z</time></trkpt><trkpt lat="45.97221886147059" lon="12.347470829544056"><ele>107.0</ele><time>2026-03-23T11:59:03Z</time></trkpt><trkpt lat="45.97211689748908" lon="12.347623673717019"><ele>107.0</ele><time>2026-03-23T11:59:04Z</time></trkpt><trkpt lat="45.9720223145832" lon="12.347764930379487"><ele>107.0</ele><time>2026-03-23T11:59:05Z</time></trkpt><trkpt lat="45.97193736801384" lon="12.347884907112205"><ele>107.0</ele><time>2026-03-23T11:59:06Z</time></trkpt><trkpt lat="45.97186024487699" lon="12.34798289757476"><ele>106.16666666666666</ele><time>2026-03-23T11:59:07Z</time></trkpt><trkpt lat="45.97180205425336" lon="12.348062204212388"><ele>105.33333333333333</ele><time>2026-03-23T11:59:08Z</time></trkpt><trkpt lat="45.97175290150023" lon="12.34813182330837"><ele>104.5</ele><time>2026-03-23T11:59:09Z</time></trkpt><trkpt lat="45.97167212507665" lon="12.348268431984145"><ele>103.66666666666666</ele><time>2026-03-23T11:59:11Z</time></trkpt><trkpt lat="45.97161232684814" lon="12.348352850736"><ele>102.83333333333333</ele><time>2026-03-23T11:59:12Z</time></trkpt><trkpt lat="45.97154990421903" lon="12.348448815533997"><ele>102.0</ele><time>2026-03-23T11:59:13Z</time></trkpt><trkpt lat="45.971487650519805" lon="12.348539884964438"><ele>102.0</ele><time>2026-03-23T11:59:14Z</time></trkpt><trkpt lat="45.97142727628454" lon="12.348622465798176"><ele>102.0</ele><time>2026-03-23T11:59:15Z</time></trkpt><trkpt lat="45.97136827903658" lon="12.348706490410201"><ele>102.0</ele><time>2026-03-23T11:59:16Z</time></trkpt><trkpt lat="45.9713021980815" lon="12.348794312288256"><ele>102.0</ele><time>2026-03-23T11:59:17Z</time></trkpt><trkpt lat="45.97123256817276" lon="12.348892068493088"><ele>102.0</ele><time>2026-03-23T11:59:18Z</time></trkpt><trkpt lat="45.971153834752904" lon="12.349018491457874"><ele>101.75</ele><time>2026-03-23T11:59:19Z</time></trkpt><trkpt lat="45.971059794293446" lon="12.34916463136664"><ele>101.5</ele><time>2026-03-23T11:59:20Z</time></trkpt><trkpt lat="45.97095731952874" lon="12.34931839092181"><ele>101.25</ele><time>2026-03-23T11:59:21Z</time></trkpt><trkpt lat="45.970865030030346" lon="12.349459611166884"><ele>101.0</ele><time>2026-03-23T11:59:22Z</time></trkpt><trkpt lat="45.97077033710683" lon="12.349601563495153"><ele>101.75</ele><time>2026-03-23T11:59:23Z</time></trkpt><trkpt lat="45.970665702323096" lon="12.349746999079402"><ele>102.5</ele><time>2026-03-23T11:59:24Z</time></trkpt><trkpt lat="45.97056032362027" lon="12.34989384503846"><ele>103.25</ele><time>2026-03-23T11:59:25Z</time></trkpt><trkpt lat="45.97045114414773" lon="12.350049673754086"><ele>104.0</ele><time>2026-03-23T11:59:26Z</time></trkpt><trkpt lat="45.97034467702008" lon="12.350214054389976"><ele>104.0</ele><time>2026-03-23T11:59:27Z</time></trkpt><trkpt lat="45.97023287931281" lon="12.35038180661746"><ele>104.0</ele><time>2026-03-23T11:59:28Z</time></trkpt><trkpt lat="45.970121519045236" lon="12.35054888708199"><ele>104.0</ele><time>2026-03-23T11:59:29Z</time></trkpt><trkpt lat="45.97000576066579" lon="12.350711775671906"><ele>102.0</ele><time>2026-03-23T11:59:30Z</time></trkpt><trkpt lat="45.96988928695245" lon="12.350878937381667"><ele>100.0</ele><time>2026-03-23T11:59:31Z</time></trkpt><trkpt lat="45.96977483958491" lon="12.35104662744549"><ele>98.0</ele><time>2026-03-23T11:59:32Z</time></trkpt><trkpt lat="45.96966893918561" lon="12.351206178398737"><ele>98.0</ele><time>2026-03-23T11:59:33Z</time></trkpt><trkpt lat="45.96956745590445" lon="12.351358540007844"><ele>98.0</ele><time>2026-03-23T11:59:34Z</time></trkpt><trkpt lat="45.969476222506195" lon="12.351495809183549"><ele>98.0</ele><time>2026-03-23T11:59:35Z</time></trkpt><trkpt lat="45.969390050064185" lon="12.351623356973686"><ele>98.0</ele><time>2026-03-23T11:59:36Z</time></trkpt><trkpt lat="45.96931074638129" lon="12.351745293823681"><ele>98.0</ele><time>2026-03-23T11:59:37Z</time></trkpt><trkpt lat="45.96923269996902" lon="12.351859427776198"><ele>98.0</ele><time>2026-03-23T11:59:38Z</time></trkpt><trkpt lat="45.969149852680886" lon="12.351985721057178"><ele>98.0</ele><time>2026-03-23T11:59:39Z</time></trkpt><trkpt lat="45.969063470522" lon="12.35211730663284"><ele>98.0</ele><time>2026-03-23T11:59:40Z</time></trkpt><trkpt lat="45.96897202700234" lon="12.352251675795936"><ele>98.0</ele><time>2026-03-23T11:59:41Z</time></trkpt><trkpt lat="45.968877003985355" lon="12.352397290022134"><ele>98.0</ele><time>2026-03-23T11:59:42Z</time></trkpt><trkpt lat="45.9687799270379" lon="12.35254533281321"><ele>98.0</ele><time>2026-03-23T11:59:43Z</time></trkpt><trkpt lat="45.96867785108055" lon="12.352697414233928"><ele>98.0</ele><time>2026-03-23T11:59:44Z</time></trkpt><trkpt lat="45.96858227740888" lon="12.35283513976013"><ele>98.0</ele><time>2026-03-23T11:59:45Z</time></trkpt><trkpt lat="45.96849339350967" lon="12.352965779235491"><ele>98.0</ele><time>2026-03-23T11:59:46Z</time></trkpt><trkpt lat="45.96840247090519" lon="12.353094254608196"><ele>98.0</ele><time>2026-03-23T11:59:47Z</time></trkpt><trkpt lat="45.96831408181865" lon="12.353213813747804"><ele>98.0</ele><time>2026-03-23T11:59:48Z</time></trkpt><trkpt lat="45.96822997554111" lon="12.353342556734821"><ele>97.5</ele><time>2026-03-23T11:59:49Z</time></trkpt><trkpt lat="45.96814963488729" lon="12.35346530348937"><ele>97.0</ele><time>2026-03-23T11:59:50Z</time></trkpt><trkpt lat="45.96807340246029" lon="12.353581081441435"><ele>96.5</ele><time>2026-03-23T11:59:51Z</time></trkpt><trkpt lat="45.96799414016363" lon="12.353703549940642"><ele>96.0</ele><time>2026-03-23T11:59:52Z</time></trkpt><trkpt lat="45.967910550101365" lon="12.353829887729088"><ele>95.6</ele><time>2026-03-23T11:59:53Z</time></trkpt><trkpt lat="45.9678395010298" lon="12.353934701555087"><ele>95.19999999999999</ele><time>2026-03-23T11:59:54Z</time></trkpt><trkpt lat="45.96778755365901" lon="12.354016050059625"><ele>94.80000000000001</ele><time>2026-03-23T11:59:55Z</time></trkpt><trkpt lat="45.96770418041662" lon="12.354133429281971"><ele>94.4</ele><time>2026-03-23T11:59:57Z</time></trkpt><trkpt lat="45.967657974889605" lon="12.354206542189482"><ele>94.0</ele><time>2026-03-23T11:59:58Z</time></trkpt><trkpt lat="45.96757319450744" lon="12.354340496301957"><ele>94.2</ele><time>2026-03-23T12:00:00Z</time></trkpt><trkpt lat="45.96751490189805" lon="12.354426305560144"><ele>94.4</ele><time>2026-03-23T12:00:01Z</time></trkpt><trkpt lat="45.96745203340459" lon="12.354511896041323"><ele>94.6</ele><time>2026-03-23T12:00:02Z</time></trkpt><trkpt lat="45.9673870560328" lon="12.354610410657608"><ele>94.8</ele><time>2026-03-23T12:00:03Z</time></trkpt><trkpt lat="45.96731407466963" lon="12.354724770549772"><ele>95.0</ele><time>2026-03-23T12:00:04Z</time></trkpt><trkpt lat="45.96724837738372" lon="12.354829009795244"><ele>94.5</ele><time>2026-03-23T12:00:05Z</time></trkpt><trkpt lat="45.96717886659594" lon="12.354942335180606"><ele>94.0</ele><time>2026-03-23T12:00:06Z</time></trkpt><trkpt lat="45.96710281675028" lon="12.355065645837946"><ele>93.5</ele><time>2026-03-23T12:00:07Z</time></trkpt><trkpt lat="45.967026510038906" lon="12.355184228690947"><ele>93.0</ele><time>2026-03-23T12:00:08Z</time></trkpt><trkpt lat="45.966944816943155" lon="12.355311741130825"><ele>93.0</ele><time>2026-03-23T12:00:09Z</time></trkpt><trkpt lat="45.96686121055056" lon="12.3554474901338"><ele>93.0</ele><time>2026-03-23T12:00:10Z</time></trkpt><trkpt lat="45.9667684750127" lon="12.355598571770164"><ele>93.0</ele><time>2026-03-23T12:00:11Z</time></trkpt><trkpt lat="45.96667198191667" lon="12.355762031799893"><ele>93.0</ele><time>2026-03-23T12:00:12Z</time></trkpt><trkpt lat="45.96657594037042" lon="12.355917145206885"><ele>93.0</ele><time>2026-03-23T12:00:13Z</time></trkpt><trkpt lat="45.966484637333586" lon="12.356069353641738"><ele>93.0</ele><time>2026-03-23T12:00:14Z</time></trkpt><trkpt lat="45.96638671042981" lon="12.356231893397574"><ele>93.0</ele><time>2026-03-23T12:00:15Z</time></trkpt><trkpt lat="45.96628491303496" lon="12.356398896628457"><ele>93.0</ele><time>2026-03-23T12:00:16Z</time></trkpt><trkpt lat="45.966187129153184" lon="12.356549623176086"><ele>93.0</ele><time>2026-03-23T12:00:17Z</time></trkpt><trkpt lat="45.966098988399644" lon="12.35669783964665"><ele>93.0</ele><time>2026-03-23T12:00:18Z</time></trkpt><trkpt lat="45.966024539286586" lon="12.356832951198108"><ele>93.0</ele><time>2026-03-23T12:00:19Z</time></trkpt><trkpt lat="45.965964159023194" lon="12.356928532820142"><ele>93.0</ele><time>2026-03-23T12:00:20Z</time></trkpt><trkpt lat="45.96591598393186" lon="12.357001800781195"><ele>93.0</ele><time>2026-03-23T12:00:21Z</time></trkpt><trkpt lat="45.965871355902905" lon="12.357071548285726"><ele>93.0</ele><time>2026-03-23T12:00:22Z</time></trkpt><trkpt lat="45.965801482078746" lon="12.357199216121256"><ele>93.0</ele><time>2026-03-23T12:00:24Z</time></trkpt><trkpt lat="45.96575830075112" lon="12.357275458830374"><ele>93.0</ele><time>2026-03-23T12:00:25Z</time></trkpt><trkpt lat="45.96571015795573" lon="12.357356036159109"><ele>93.0</ele><time>2026-03-23T12:00:26Z</time></trkpt><trkpt lat="45.96565887308209" lon="12.357432440752646"><ele>93.0</ele><time>2026-03-23T12:00:27Z</time></trkpt><trkpt lat="45.96560197683503" lon="12.35751822671852"><ele>93.0</ele><time>2026-03-23T12:00:28Z</time></trkpt><trkpt lat="45.96553792768672" lon="12.357615460028802"><ele>93.0</ele><time>2026-03-23T12:00:29Z</time></trkpt><trkpt lat="45.96546690655223" lon="12.357743677075396"><ele>93.0</ele><time>2026-03-23T12:00:30Z</time></trkpt><trkpt lat="45.9653899800375" lon="12.357878107023412"><ele>93.0</ele><time>2026-03-23T12:00:31Z</time></trkpt><trkpt lat="45.96530799827425" lon="12.358019577076387"><ele>93.0</ele><time>2026-03-23T12:00:32Z</time></trkpt><trkpt lat="45.96520133022335" lon="12.358205667139046"><ele>92.5</ele><time>2026-03-23T12:00:33Z</time></trkpt><trkpt lat="45.96506267002902" lon="12.35843298302416"><ele>92.0</ele><time>2026-03-23T12:00:34Z</time></trkpt><trkpt lat="45.96488978259349" lon="12.358691569717934"><ele>92.5</ele><time>2026-03-23T12:00:35Z</time></trkpt><trkpt lat="45.96470510755772" lon="12.3589678825187"><ele>93.0</ele><time>2026-03-23T12:00:36Z</time></trkpt><trkpt lat="45.964527358394136" lon="12.359253126507017"><ele>93.0</ele><time>2026-03-23T12:00:37Z</time></trkpt><trkpt lat="45.964377381572426" lon="12.359498758550009"><ele>93.0</ele><time>2026-03-23T12:00:38Z</time></trkpt><trkpt lat="45.96423584431676" lon="12.359729377283877"><ele>93.0</ele><time>2026-03-23T12:00:39Z</time></trkpt><trkpt lat="45.96410376567332" lon="12.359941760040435"><ele>92.66666666666667</ele><time>2026-03-23T12:00:40Z</time></trkpt><trkpt lat="45.96398212233832" lon="12.360135839641627"><ele>92.33333333333334</ele><time>2026-03-23T12:00:41Z</time></trkpt><trkpt lat="45.96386887701153" lon="12.360317652510021"><ele>92.0</ele><time>2026-03-23T12:00:42Z</time></trkpt><trkpt lat="45.96376787698762" lon="12.360483766449462"><ele>91.66666666666667</ele><time>2026-03-23T12:00:43Z</time></trkpt><trkpt lat="45.96366627014113" lon="12.360654129829722"><ele>91.33333333333333</ele><time>2026-03-23T12:00:44Z</time></trkpt><trkpt lat="45.963560689153475" lon="12.36082725345346"><ele>91.0</ele><time>2026-03-23T12:00:45Z</time></trkpt><trkpt lat="45.96345536279183" lon="12.361000783082954"><ele>90.75</ele><time>2026-03-23T12:00:46Z</time></trkpt><trkpt lat="45.96335617418532" lon="12.361168041583024"><ele>90.5</ele><time>2026-03-23T12:00:47Z</time></trkpt><trkpt lat="45.96326129290705" lon="12.361321530333802"><ele>90.25</ele><time>2026-03-23T12:00:48Z</time></trkpt><trkpt lat="45.9631708135582" lon="12.361458216319589"><ele>90.0</ele><time>2026-03-23T12:00:49Z</time></trkpt><trkpt lat="45.963084916608096" lon="12.36158733484806"><ele>90.6</ele><time>2026-03-23T12:00:50Z</time></trkpt><trkpt lat="45.96300679881088" lon="12.361711296278791"><ele>91.2</ele><time>2026-03-23T12:00:51Z</time></trkpt><trkpt lat="45.96293490657325" lon="12.361828747409144"><ele>91.80000000000001</ele><time>2026-03-23T12:00:52Z</time></trkpt><trkpt lat="45.96286615158033" lon="12.36193639708295"><ele>92.4</ele><time>2026-03-23T12:00:53Z</time></trkpt><trkpt lat="45.962806004372" lon="12.362026637880893"><ele>93.0</ele><time>2026-03-23T12:00:54Z</time></trkpt><trkpt lat="45.96274264276764" lon="12.362111049607696"><ele>93.0</ele><time>2026-03-23T12:00:56Z</time></trkpt><trkpt lat="45.96267620162" lon="12.362164154073907"><ele>93.0</ele><time>2026-03-23T12:00:58Z</time></trkpt><trkpt lat="45.9626158159768" lon="12.362192588964097"><ele>93.0</ele><time>2026-03-23T12:00:59Z</time></trkpt><trkpt lat="45.962548425637614" lon="12.362226356891034"><ele>93.0</ele><time>2026-03-23T12:01:00Z</time></trkpt><trkpt lat="45.96248497296176" lon="12.36235042974781"><ele>93.0</ele><time>2026-03-23T12:01:02Z</time></trkpt><trkpt lat="45.96247548170154" lon="12.36248368658427"><ele>93.0</ele><time>2026-03-23T12:01:03Z</time></trkpt><trkpt lat="45.96244328874337" lon="12.362627482275963"><ele>92.33333333333333</ele><time>2026-03-23T12:01:04Z</time></trkpt><trkpt lat="45.96235736230124" lon="12.362790063006765"><ele>91.66666666666666</ele><time>2026-03-23T12:01:05Z</time></trkpt><trkpt lat="45.96223185236932" lon="12.362993666791565"><ele>91.0</ele><time>2026-03-23T12:01:06Z</time></trkpt><trkpt lat="45.962076609905985" lon="12.363229393007913"><ele>91.0</ele><time>2026-03-23T12:01:07Z</time></trkpt><trkpt lat="45.96191687722239" lon="12.363490880695608"><ele>91.0</ele><time>2026-03-23T12:01:08Z</time></trkpt><trkpt lat="45.961752767999144" lon="12.363765480118575"><ele>91.5</ele><time>2026-03-23T12:01:09Z</time></trkpt><trkpt lat="45.961586974403346" lon="12.36403662753029"><ele>92.0</ele><time>2026-03-23T12:01:10Z</time></trkpt><trkpt lat="45.96141789170073" lon="12.364311792855787"><ele>92.0</ele><time>2026-03-23T12:01:11Z</time></trkpt><trkpt lat="45.961248199622084" lon="12.364580050119232"><ele>92.0</ele><time>2026-03-23T12:01:12Z</time></trkpt><trkpt lat="45.96113230730082" lon="12.364778740595884"><ele>92.0</ele><time>2026-03-23T12:01:13Z</time></trkpt><trkpt lat="45.961009286107746" lon="12.364985313285022"><ele>92.0</ele><time>2026-03-23T12:01:14Z</time></trkpt><trkpt lat="45.960884122544904" lon="12.365185640895806"><ele>92.0</ele><time>2026-03-23T12:01:15Z</time></trkpt><trkpt lat="45.96076205055267" lon="12.365379597398572"><ele>92.0</ele><time>2026-03-23T12:01:16Z</time></trkpt><trkpt lat="45.960633210404836" lon="12.36557308188955"><ele>90.66666666666667</ele><time>2026-03-23T12:01:17Z</time></trkpt><trkpt lat="45.960491808079986" lon="12.365749201503142"><ele>89.33333333333333</ele><time>2026-03-23T12:01:18Z</time></trkpt><trkpt lat="45.96032665939449" lon="12.365911272615932"><ele>88.0</ele><time>2026-03-23T12:01:19Z</time></trkpt><trkpt lat="45.96013876979993" lon="12.366079725451709"><ele>87.5</ele><time>2026-03-23T12:01:20Z</time></trkpt><trkpt lat="45.95993465694039" lon="12.366258689259084"><ele>87.0</ele><time>2026-03-23T12:01:21Z</time></trkpt><trkpt lat="45.959724108962554" lon="12.366445070211135"><ele>87.0</ele><time>2026-03-23T12:01:22Z</time></trkpt><trkpt lat="45.95952392787955" lon="12.366621400916987"><ele>87.0</ele><time>2026-03-23T12:01:23Z</time></trkpt><trkpt lat="45.95932979386205" lon="12.366790554256783"><ele>86.33333333333333</ele><time>2026-03-23T12:01:24Z</time></trkpt><trkpt lat="45.95914401535377" lon="12.366949983000017"><ele>85.66666666666666</ele><time>2026-03-23T12:01:25Z</time></trkpt><trkpt lat="45.95895951209577" lon="12.367108767883902"><ele>85.0</ele><time>2026-03-23T12:01:26Z</time></trkpt><trkpt lat="45.958769175012215" lon="12.36727717533845"><ele>85.5</ele><time>2026-03-23T12:01:27Z</time></trkpt><trkpt lat="45.95856620607787" lon="12.367461453714519"><ele>86.0</ele><time>2026-03-23T12:01:28Z</time></trkpt><trkpt lat="45.95836237148979" lon="12.367642767320325"><ele>86.0</ele><time>2026-03-23T12:01:29Z</time></trkpt><trkpt lat="45.9581721330313" lon="12.367807555213611"><ele>86.0</ele><time>2026-03-23T12:01:30Z</time></trkpt><trkpt lat="45.95799224913035" lon="12.367961492766364"><ele>86.0</ele><time>2026-03-23T12:01:31Z</time></trkpt><trkpt lat="45.957821904257415" lon="12.368106747291325"><ele>84.66666666666667</ele><time>2026-03-23T12:01:32Z</time></trkpt><trkpt lat="45.957667166960185" lon="12.368242497629348"><ele>83.33333333333333</ele><time>2026-03-23T12:01:33Z</time></trkpt><trkpt lat="45.95752264986445" lon="12.368396692287233"><ele>82.0</ele><time>2026-03-23T12:01:34Z</time></trkpt><trkpt lat="45.957390789700234" lon="12.368580364815863"><ele>81.66666666666666</ele><time>2026-03-23T12:01:35Z</time></trkpt><trkpt lat="45.95727670778986" lon="12.368773127915611"><ele>81.33333333333333</ele><time>2026-03-23T12:01:36Z</time></trkpt><trkpt lat="45.95717804246483" lon="12.368961587751695"><ele>81.0</ele><time>2026-03-23T12:01:37Z</time></trkpt><trkpt lat="45.95709580638048" lon="12.369179368214459"><ele>81.0</ele><time>2026-03-23T12:01:38Z</time></trkpt><trkpt lat="45.9570257588921" lon="12.369448398688254"><ele>81.0</ele><time>2026-03-23T12:01:39Z</time></trkpt><trkpt lat="45.95696355876986" lon="12.36975076489193"><ele>81.0</ele><time>2026-03-23T12:01:40Z</time></trkpt><trkpt lat="45.956901648574465" lon="12.370085305641645"><ele>81.0</ele><time>2026-03-23T12:01:41Z</time></trkpt><trkpt lat="45.956830817055895" lon="12.370446160857053"><ele>81.0</ele><time>2026-03-23T12:01:42Z</time></trkpt><trkpt lat="45.95675561047338" lon="12.370828951098126"><ele>81.0</ele><time>2026-03-23T12:01:43Z</time></trkpt><trkpt lat="45.95667682755206" lon="12.371234759616858"><ele>81.0</ele><time>2026-03-23T12:01:44Z</time></trkpt><trkpt lat="45.95660340941538" lon="12.371597661959584"><ele>81.0</ele><time>2026-03-23T12:01:45Z</time></trkpt><trkpt lat="45.956528874570985" lon="12.371962253285323"><ele>81.0</ele><time>2026-03-23T12:01:46Z</time></trkpt><trkpt lat="45.95645131246152" lon="12.372340411953731"><ele>80.0</ele><time>2026-03-23T12:01:47Z</time></trkpt><trkpt lat="45.95637410849561" lon="12.372724086137527"><ele>79.0</ele><time>2026-03-23T12:01:48Z</time></trkpt><trkpt lat="45.95629660069655" lon="12.373116315593283"><ele>78.5</ele><time>2026-03-23T12:01:49Z</time></trkpt><trkpt lat="45.95621724036266" lon="12.373501409323161"><ele>78.0</ele><time>2026-03-23T12:01:50Z</time></trkpt><trkpt lat="45.95613889306233" lon="12.373883914110273"><ele>77.5</ele><time>2026-03-23T12:01:51Z</time></trkpt><trkpt lat="45.95606328673614" lon="12.374268829571154"><ele>77.0</ele><time>2026-03-23T12:01:52Z</time></trkpt><trkpt lat="45.955994233912655" lon="12.374619581544275"><ele>77.0</ele><time>2026-03-23T12:01:53Z</time></trkpt><trkpt lat="45.95592811753382" lon="12.374947490009488"><ele>77.0</ele><time>2026-03-23T12:01:54Z</time></trkpt><trkpt lat="45.9558648142757" lon="12.375257650019375"><ele>77.33333333333334</ele><time>2026-03-23T12:01:55Z</time></trkpt><trkpt lat="45.95580441190077" lon="12.37555091122776"><ele>77.66666666666667</ele><time>2026-03-23T12:01:56Z</time></trkpt><trkpt lat="45.95574992941003" lon="12.37582760385844"><ele>78.0</ele><time>2026-03-23T12:01:57Z</time></trkpt><trkpt lat="45.95569785188366" lon="12.376088491298198"><ele>78.0</ele><time>2026-03-23T12:01:58Z</time></trkpt><trkpt lat="45.95565031190512" lon="12.376328334473296"><ele>78.0</ele><time>2026-03-23T12:01:59Z</time></trkpt><trkpt lat="45.9556033936959" lon="12.376552843544644"><ele>78.0</ele><time>2026-03-23T12:02:00Z</time></trkpt><trkpt lat="45.955554409185496" lon="12.376760053728677"><ele>78.0</ele><time>2026-03-23T12:02:01Z</time></trkpt><trkpt lat="45.9555023965991" lon="12.376950789449577"><ele>78.0</ele><time>2026-03-23T12:02:02Z</time></trkpt><trkpt lat="45.955438844890864" lon="12.377119429597448"><ele>78.0</ele><time>2026-03-23T12:02:03Z</time></trkpt><trkpt lat="45.95536351664282" lon="12.377262158578814"><ele>78.0</ele><time>2026-03-23T12:02:04Z</time></trkpt><trkpt lat="45.95527577024943" lon="12.37736697298737"><ele>78.0</ele><time>2026-03-23T12:02:05Z</time></trkpt><trkpt lat="45.9551674857225" lon="12.377449390980663"><ele>78.0</ele><time>2026-03-23T12:02:06Z</time></trkpt><trkpt lat="45.955027276512254" lon="12.377520495877702"><ele>78.0</ele><time>2026-03-23T12:02:07Z</time></trkpt><trkpt lat="45.95489780429533" lon="12.377568798454025"><ele>78.0</ele><time>2026-03-23T12:02:08Z</time></trkpt><trkpt lat="45.954785105215024" lon="12.37762857694931"><ele>78.0</ele><time>2026-03-23T12:02:09Z</time></trkpt><trkpt lat="45.95467894913204" lon="12.377714804009612"><ele>78.0</ele><time>2026-03-23T12:02:10Z</time></trkpt><trkpt lat="45.954573470002366" lon="12.377849357614558"><ele>78.0</ele><time>2026-03-23T12:02:11Z</time></trkpt><trkpt lat="45.9544733258339" lon="12.378020953205219"><ele>78.0</ele><time>2026-03-23T12:02:12Z</time></trkpt><trkpt lat="45.95435996973368" lon="12.378240478144669"><ele>77.66666666666667</ele><time>2026-03-23T12:02:13Z</time></trkpt><trkpt lat="45.95423961614997" lon="12.378478781367297"><ele>77.33333333333334</ele><time>2026-03-23T12:02:14Z</time></trkpt><trkpt lat="45.95413348627671" lon="12.378681770295074"><ele>77.0</ele><time>2026-03-23T12:02:15Z</time></trkpt><trkpt lat="45.95403433187186" lon="12.378874376240178"><ele>76.5</ele><time>2026-03-23T12:02:16Z</time></trkpt><trkpt lat="45.953943128141226" lon="12.379057029138487"><ele>76.0</ele><time>2026-03-23T12:02:17Z</time></trkpt><trkpt lat="45.9538615068965" lon="12.379228278746755"><ele>75.5</ele><time>2026-03-23T12:02:18Z</time></trkpt><trkpt lat="45.95378094881408" lon="12.379382959528117"><ele>75.0</ele><time>2026-03-23T12:02:19Z</time></trkpt><trkpt lat="45.95370324088969" lon="12.379505778621887"><ele>75.0</ele><time>2026-03-23T12:02:20Z</time></trkpt><trkpt lat="45.95362970941872" lon="12.379592820213777"><ele>75.0</ele><time>2026-03-23T12:02:21Z</time></trkpt><trkpt lat="45.95356571543728" lon="12.379659281044715"><ele>75.0</ele><time>2026-03-23T12:02:22Z</time></trkpt><trkpt lat="45.95351079941574" lon="12.379739971529398"><ele>75.0</ele><time>2026-03-23T12:02:27Z</time></trkpt><trkpt lat="45.953471436502554" lon="12.37983840800958"><ele>75.0</ele><time>2026-03-23T12:02:28Z</time></trkpt><trkpt lat="45.953440000325394" lon="12.379973367078469"><ele>75.0</ele><time>2026-03-23T12:02:29Z</time></trkpt><trkpt lat="45.95340888515327" lon="12.380128741098664"><ele>74.33333333333333</ele><time>2026-03-23T12:02:30Z</time></trkpt><trkpt lat="45.95337348461398" lon="12.380323419773497"><ele>73.66666666666666</ele><time>2026-03-23T12:02:31Z</time></trkpt><trkpt lat="45.953342172938356" lon="12.380550565633998"><ele>73.0</ele><time>2026-03-23T12:02:32Z</time></trkpt><trkpt lat="45.953311434423995" lon="12.38080254901237"><ele>73.66666666666666</ele><time>2026-03-23T12:02:33Z</time></trkpt><trkpt lat="45.953278209611256" lon="12.381027764136588"><ele>74.33333333333333</ele><time>2026-03-23T12:02:34Z</time></trkpt><trkpt lat="45.95323910163304" lon="12.38127159124188"><ele>75.0</ele><time>2026-03-23T12:02:35Z</time></trkpt><trkpt lat="45.95320147317155" lon="12.381521550769437"><ele>75.0</ele><time>2026-03-23T12:02:36Z</time></trkpt><trkpt lat="45.95316308113742" lon="12.381778721297916"><ele>75.0</ele><time>2026-03-23T12:02:37Z</time></trkpt><trkpt lat="45.953120728548704" lon="12.382045166699656"><ele>75.0</ele><time>2026-03-23T12:02:38Z</time></trkpt><trkpt lat="45.953077145013914" lon="12.382309259815926"><ele>75.0</ele><time>2026-03-23T12:02:39Z</time></trkpt><trkpt lat="45.953034846426235" lon="12.38257352289456"><ele>75.0</ele><time>2026-03-23T12:02:40Z</time></trkpt><trkpt lat="45.9529955326465" lon="12.382836925198134"><ele>75.0</ele><time>2026-03-23T12:02:41Z</time></trkpt><trkpt lat="45.952957825434524" lon="12.383097089951718"><ele>75.0</ele><time>2026-03-23T12:02:42Z</time></trkpt><trkpt lat="45.95291708190626" lon="12.383356965897764"><ele>75.0</ele><time>2026-03-23T12:02:43Z</time></trkpt><trkpt lat="45.952876781946856" lon="12.38361474141308"><ele>75.0</ele><time>2026-03-23T12:02:44Z</time></trkpt><trkpt lat="45.9528371647289" lon="12.383855683339503"><ele>74.66666666666667</ele><time>2026-03-23T12:02:45Z</time></trkpt><trkpt lat="45.95279864941403" lon="12.384088847135331"><ele>74.33333333333334</ele><time>2026-03-23T12:02:46Z</time></trkpt><trkpt lat="45.952762125446355" lon="12.384316155290318"><ele>74.0</ele><time>2026-03-23T12:02:47Z</time></trkpt><trkpt lat="45.952727711954935" lon="12.384538467154044"><ele>73.25</ele><time>2026-03-23T12:02:48Z</time></trkpt><trkpt lat="45.952695901347205" lon="12.384751934795963"><ele>72.5</ele><time>2026-03-23T12:02:49Z</time></trkpt><trkpt lat="45.95266540719238" lon="12.38495071548538"><ele>71.75</ele><time>2026-03-23T12:02:50Z</time></trkpt><trkpt lat="45.95263717832375" lon="12.385140829505206"><ele>71.0</ele><time>2026-03-23T12:02:51Z</time></trkpt><trkpt lat="45.952608554557315" lon="12.385322018249616"><ele>71.0</ele><time>2026-03-23T12:02:52Z</time></trkpt><trkpt lat="45.952579439045756" lon="12.385503307651339"><ele>71.0</ele><time>2026-03-23T12:02:53Z</time></trkpt><trkpt lat="45.95255256937239" lon="12.385682670019703"><ele>71.0</ele><time>2026-03-23T12:02:54Z</time></trkpt><trkpt lat="45.95252654908333" lon="12.385861713105731"><ele>71.0</ele><time>2026-03-23T12:02:55Z</time></trkpt><trkpt lat="45.95250053383831" lon="12.386037972293243"><ele>71.25</ele><time>2026-03-23T12:02:56Z</time></trkpt><trkpt lat="45.952473372685894" lon="12.386209409497937"><ele>71.5</ele><time>2026-03-23T12:02:57Z</time></trkpt><trkpt lat="45.95244401819009" lon="12.386375764498755"><ele>71.75</ele><time>2026-03-23T12:02:58Z</time></trkpt><trkpt lat="45.95241558434705" lon="12.386543925344903"><ele>72.0</ele><time>2026-03-23T12:02:59Z</time></trkpt><trkpt lat="45.9523876674444" lon="12.386718554607334"><ele>72.0</ele><time>2026-03-23T12:03:00Z</time></trkpt><trkpt lat="45.95235628344082" lon="12.38689648697197"><ele>72.0</ele><time>2026-03-23T12:03:01Z</time></trkpt><trkpt lat="45.95232628291293" lon="12.387077647577657"><ele>72.0</ele><time>2026-03-23T12:03:02Z</time></trkpt><trkpt lat="45.95229963482487" lon="12.387261486317254"><ele>72.0</ele><time>2026-03-23T12:03:03Z</time></trkpt><trkpt lat="45.95227035793202" lon="12.38745003493371"><ele>71.75</ele><time>2026-03-23T12:03:04Z</time></trkpt><trkpt lat="45.9522413464432" lon="12.387639509509876"><ele>71.5</ele><time>2026-03-23T12:03:05Z</time></trkpt><trkpt lat="45.952209998814276" lon="12.387831753748156"><ele>71.25</ele><time>2026-03-23T12:03:06Z</time></trkpt><trkpt lat="45.95217712450027" lon="12.388027041769018"><ele>71.0</ele><time>2026-03-23T12:03:07Z</time></trkpt><trkpt lat="45.95214212960493" lon="12.388224875179771"><ele>70.75</ele><time>2026-03-23T12:03:08Z</time></trkpt><trkpt lat="45.95210775465147" lon="12.388425449481286"><ele>70.5</ele><time>2026-03-23T12:03:09Z</time></trkpt><trkpt lat="45.952076979120726" lon="12.388628780676745"><ele>70.25</ele><time>2026-03-23T12:03:10Z</time></trkpt><trkpt lat="45.9520502159658" lon="12.388835305740361"><ele>70.0</ele><time>2026-03-23T12:03:11Z</time></trkpt><trkpt lat="45.95203119199268" lon="12.389046655088547"><ele>69.66666666666666</ele><time>2026-03-23T12:03:12Z</time></trkpt><trkpt lat="45.952017994648145" lon="12.389258814212678"><ele>69.33333333333333</ele><time>2026-03-23T12:03:13Z</time></trkpt><trkpt lat="45.952008213290654" lon="12.389475686856834"><ele>69.0</ele><time>2026-03-23T12:03:14Z</time></trkpt><trkpt lat="45.95200050597774" lon="12.389691942364472"><ele>68.66666666666667</ele><time>2026-03-23T12:03:15Z</time></trkpt><trkpt lat="45.95199759623801" lon="12.389909930803245"><ele>68.33333333333334</ele><time>2026-03-23T12:03:16Z</time></trkpt><trkpt lat="45.951997518659844" lon="12.390128266468789"><ele>68.0</ele><time>2026-03-23T12:03:17Z</time></trkpt><trkpt lat="45.951997157355436" lon="12.390342293764766"><ele>68.0</ele><time>2026-03-23T12:03:18Z</time></trkpt><trkpt lat="45.95199453322626" lon="12.390544108709319"><ele>68.0</ele><time>2026-03-23T12:03:19Z</time></trkpt><trkpt lat="45.95198222394505" lon="12.390736626029398"><ele>68.0</ele><time>2026-03-23T12:03:20Z</time></trkpt><trkpt lat="45.951957935773265" lon="12.390916175466538"><ele>68.0</ele><time>2026-03-23T12:03:21Z</time></trkpt><trkpt lat="45.95192078588153" lon="12.391079531925865"><ele>68.0</ele><time>2026-03-23T12:03:22Z</time></trkpt><trkpt lat="45.951877493412276" lon="12.391212366764966"><ele>68.0</ele><time>2026-03-23T12:03:23Z</time></trkpt><trkpt lat="45.95181645402438" lon="12.39132431890031"><ele>68.0</ele><time>2026-03-23T12:03:24Z</time></trkpt><trkpt lat="45.95175846918524" lon="12.391450643050579"><ele>68.0</ele><time>2026-03-23T12:03:25Z</time></trkpt><trkpt lat="45.95172054628897" lon="12.39162505677738"><ele>68.0</ele><time>2026-03-23T12:03:26Z</time></trkpt><trkpt lat="45.95168403244434" lon="12.391859817424988"><ele>68.33333333333334</ele><time>2026-03-23T12:03:27Z</time></trkpt><trkpt lat="45.95162557797056" lon="12.39209203634203"><ele>68.66666666666667</ele><time>2026-03-23T12:03:28Z</time></trkpt><trkpt lat="45.951562100137394" lon="12.392294027301334"><ele>69.0</ele><time>2026-03-23T12:03:29Z</time></trkpt><trkpt lat="45.95149955275578" lon="12.392479665676133"><ele>69.0</ele><time>2026-03-23T12:03:30Z</time></trkpt><trkpt lat="45.951437828663195" lon="12.392670273513524"><ele>69.0</ele><time>2026-03-23T12:03:31Z</time></trkpt><trkpt lat="45.95137491384898" lon="12.39286783258487"><ele>69.0</ele><time>2026-03-23T12:03:32Z</time></trkpt><trkpt lat="45.95131194171435" lon="12.393068332451648"><ele>69.0</ele><time>2026-03-23T12:03:33Z</time></trkpt><trkpt lat="45.95125075435963" lon="12.393262902392152"><ele>69.0</ele><time>2026-03-23T12:03:34Z</time></trkpt><trkpt lat="45.95119011446518" lon="12.393452908259462"><ele>69.0</ele><time>2026-03-23T12:03:35Z</time></trkpt><trkpt lat="45.95113171219978" lon="12.393638912825908"><ele>69.0</ele><time>2026-03-23T12:03:36Z</time></trkpt><trkpt lat="45.95107546198686" lon="12.393822820033764"><ele>69.0</ele><time>2026-03-23T12:03:37Z</time></trkpt><trkpt lat="45.951020552785714" lon="12.394002589002179"><ele>69.0</ele><time>2026-03-23T12:03:38Z</time></trkpt><trkpt lat="45.95096761519503" lon="12.394176444763602"><ele>69.0</ele><time>2026-03-23T12:03:39Z</time></trkpt><trkpt lat="45.95091412222294" lon="12.39433870683618"><ele>69.0</ele><time>2026-03-23T12:03:40Z</time></trkpt><trkpt lat="45.95086577996138" lon="12.39449872028986"><ele>69.0</ele><time>2026-03-23T12:03:41Z</time></trkpt><trkpt lat="45.95081712060763" lon="12.394656874516054"><ele>69.0</ele><time>2026-03-23T12:03:42Z</time></trkpt><trkpt lat="45.95077103100675" lon="12.394814189988448"><ele>69.0</ele><time>2026-03-23T12:03:43Z</time></trkpt><trkpt lat="45.95072462800105" lon="12.39497311706566"><ele>69.0</ele><time>2026-03-23T12:03:44Z</time></trkpt><trkpt lat="45.95067304281184" lon="12.395133061697887"><ele>69.0</ele><time>2026-03-23T12:03:45Z</time></trkpt><trkpt lat="45.95061660349513" lon="12.395302240587734"><ele>69.0</ele><time>2026-03-23T12:03:46Z</time></trkpt><trkpt lat="45.95056816799745" lon="12.395484264871424"><ele>69.0</ele><time>2026-03-23T12:03:47Z</time></trkpt><trkpt lat="45.95052784973553" lon="12.39568064249131"><ele>69.0</ele><time>2026-03-23T12:03:48Z</time></trkpt><trkpt lat="45.9504991434664" lon="12.395889348448167"><ele>68.33333333333333</ele><time>2026-03-23T12:03:49Z</time></trkpt><trkpt lat="45.95047754249593" lon="12.396109892616716"><ele>67.66666666666666</ele><time>2026-03-23T12:03:50Z</time></trkpt><trkpt lat="45.950460415746015" lon="12.396337768163065"><ele>67.0</ele><time>2026-03-23T12:03:51Z</time></trkpt><trkpt lat="45.950442351409556" lon="12.396567656136346"><ele>67.0</ele><time>2026-03-23T12:03:52Z</time></trkpt><trkpt lat="45.95042390809129" lon="12.396804555978518"><ele>67.0</ele><time>2026-03-23T12:03:53Z</time></trkpt><trkpt lat="45.95040919041473" lon="12.397051234926584"><ele>67.0</ele><time>2026-03-23T12:03:54Z</time></trkpt><trkpt lat="45.95039047218962" lon="12.397301282224612"><ele>67.0</ele><time>2026-03-23T12:03:55Z</time></trkpt><trkpt lat="45.95037089686309" lon="12.397557967111371"><ele>67.0</ele><time>2026-03-23T12:03:56Z</time></trkpt><trkpt lat="45.9503528715393" lon="12.397816601602186"><ele>67.0</ele><time>2026-03-23T12:03:57Z</time></trkpt><trkpt lat="45.950335380118794" lon="12.398081456295825"><ele>67.0</ele><time>2026-03-23T12:03:58Z</time></trkpt><trkpt lat="45.95031796623599" lon="12.398351373830339"><ele>67.0</ele><time>2026-03-23T12:03:59Z</time></trkpt><trkpt lat="45.950300035170606" lon="12.398621994579486"><ele>67.0</ele><time>2026-03-23T12:04:00Z</time></trkpt><trkpt lat="45.95028129693926" lon="12.398894300957554"><ele>65.66666666666666</ele><time>2026-03-23T12:04:01Z</time></trkpt><trkpt lat="45.95026414350602" lon="12.39916154580435"><ele>64.33333333333333</ele><time>2026-03-23T12:04:02Z</time></trkpt><trkpt lat="45.95024686333975" lon="12.399419944558396"><ele>63.0</ele><time>2026-03-23T12:04:03Z</time></trkpt><trkpt lat="45.95022889005089" lon="12.399677996184474"><ele>62.33333333333333</ele><time>2026-03-23T12:04:04Z</time></trkpt><trkpt lat="45.95021220286909" lon="12.399935841726279"><ele>61.666666666666664</ele><time>2026-03-23T12:04:05Z</time></trkpt><trkpt lat="45.95019433782084" lon="12.40019425943158"><ele>61.0</ele><time>2026-03-23T12:04:06Z</time></trkpt><trkpt lat="45.9501778648101" lon="12.400453292968377"><ele>61.666666666666664</ele><time>2026-03-23T12:04:07Z</time></trkpt><trkpt lat="45.95016315556404" lon="12.40070902013617"><ele>62.33333333333333</ele><time>2026-03-23T12:04:08Z</time></trkpt><trkpt lat="45.95014799144514" lon="12.40096521462916"><ele>63.0</ele><time>2026-03-23T12:04:09Z</time></trkpt><trkpt lat="45.95013233927273" lon="12.40120414945981"><ele>63.33333333333333</ele><time>2026-03-23T12:04:10Z</time></trkpt><trkpt lat="45.95012009537265" lon="12.401433924873318"><ele>63.666666666666664</ele><time>2026-03-23T12:04:11Z</time></trkpt><trkpt lat="45.95010348406485" lon="12.401649783989983"><ele>64.0</ele><time>2026-03-23T12:04:12Z</time></trkpt><trkpt lat="45.95008148496682" lon="12.401861050563049"><ele>64.0</ele><time>2026-03-23T12:04:13Z</time></trkpt><trkpt lat="45.95005505917698" lon="12.402074850061606"><ele>64.0</ele><time>2026-03-23T12:04:14Z</time></trkpt><trkpt lat="45.95002339781292" lon="12.402287434561021"><ele>64.0</ele><time>2026-03-23T12:04:15Z</time></trkpt><trkpt lat="45.94998368484716" lon="12.40250127771548"><ele>63.33333333333333</ele><time>2026-03-23T12:04:16Z</time></trkpt><trkpt lat="45.94993349981303" lon="12.402716637680122"><ele>62.66666666666667</ele><time>2026-03-23T12:04:17Z</time></trkpt><trkpt lat="45.94987324122853" lon="12.402930685957177"><ele>62.0</ele><time>2026-03-23T12:04:18Z</time></trkpt><trkpt lat="45.94980855534585" lon="12.403149797307899"><ele>62.0</ele><time>2026-03-23T12:04:19Z</time></trkpt><trkpt lat="45.94973854246858" lon="12.403373468779545"><ele>62.0</ele><time>2026-03-23T12:04:20Z</time></trkpt><trkpt lat="45.949661832817036" lon="12.403599516589177"><ele>62.0</ele><time>2026-03-23T12:04:21Z</time></trkpt><trkpt lat="45.949569794738274" lon="12.403831045469174"><ele>62.0</ele><time>2026-03-23T12:04:22Z</time></trkpt><trkpt lat="45.949483442679146" lon="12.404065240280305"><ele>62.0</ele><time>2026-03-23T12:04:23Z</time></trkpt><trkpt lat="45.949395430597875" lon="12.404304107219138"><ele>62.0</ele><time>2026-03-23T12:04:24Z</time></trkpt><trkpt lat="45.94930427128949" lon="12.404550946635508"><ele>62.0</ele><time>2026-03-23T12:04:25Z</time></trkpt><trkpt lat="45.9492114544221" lon="12.404800123616207"><ele>62.0</ele><time>2026-03-23T12:04:26Z</time></trkpt><trkpt lat="45.94911775677386" lon="12.405052437803354"><ele>62.0</ele><time>2026-03-23T12:04:27Z</time></trkpt><trkpt lat="45.949021777640645" lon="12.405311788192598"><ele>61.66666666666667</ele><time>2026-03-23T12:04:28Z</time></trkpt><trkpt lat="45.948922669003295" lon="12.405573365356183"><ele>61.33333333333333</ele><time>2026-03-23T12:04:29Z</time></trkpt><trkpt lat="45.94882021116911" lon="12.405838344840033"><ele>61.0</ele><time>2026-03-23T12:04:30Z</time></trkpt><trkpt lat="45.948717646678595" lon="12.406103060888679"><ele>61.0</ele><time>2026-03-23T12:04:31Z</time></trkpt><trkpt lat="45.948618165926504" lon="12.4063682638763"><ele>61.0</ele><time>2026-03-23T12:04:32Z</time></trkpt><trkpt lat="45.948520612760454" lon="12.406631671028162"><ele>61.0</ele><time>2026-03-23T12:04:33Z</time></trkpt><trkpt lat="45.94842428226031" lon="12.40689659464653"><ele>59.33333333333333</ele><time>2026-03-23T12:04:34Z</time></trkpt><trkpt lat="45.94832762045697" lon="12.407161865314977"><ele>57.66666666666667</ele><time>2026-03-23T12:04:35Z</time></trkpt><trkpt lat="45.94823118818014" lon="12.407423448371022"><ele>56.0</ele><time>2026-03-23T12:04:36Z</time></trkpt><trkpt lat="45.94813523758759" lon="12.40768741730274"><ele>56.0</ele><time>2026-03-23T12:04:37Z</time></trkpt><trkpt lat="45.9480395946179" lon="12.407951406859468"><ele>56.0</ele><time>2026-03-23T12:04:38Z</time></trkpt><trkpt lat="45.94794155347069" lon="12.40821789761423"><ele>56.0</ele><time>2026-03-23T12:04:39Z</time></trkpt><trkpt lat="45.94784117146252" lon="12.408485357667471"><ele>56.0</ele><time>2026-03-23T12:04:40Z</time></trkpt><trkpt lat="45.94774373587686" lon="12.408750144150543"><ele>56.0</ele><time>2026-03-23T12:04:41Z</time></trkpt><trkpt lat="45.94764434984791" lon="12.40902109555963"><ele>56.0</ele><time>2026-03-23T12:04:42Z</time></trkpt><trkpt lat="45.94754150627036" lon="12.40930015888244"><ele>56.333333333333336</ele><time>2026-03-23T12:04:43Z</time></trkpt><trkpt lat="45.947437866171896" lon="12.409578862598007"><ele>56.66666666666667</ele><time>2026-03-23T12:04:44Z</time></trkpt><trkpt lat="45.94733781443568" lon="12.409846241127063"><ele>57.0</ele><time>2026-03-23T12:04:45Z</time></trkpt><trkpt lat="45.94723711348527" lon="12.410117473175221"><ele>57.66666666666667</ele><time>2026-03-23T12:04:46Z</time></trkpt><trkpt lat="45.947134128552946" lon="12.41039569816225"><ele>58.333333333333336</ele><time>2026-03-23T12:04:47Z</time></trkpt><trkpt lat="45.947030606161555" lon="12.410676220764913"><ele>59.0</ele><time>2026-03-23T12:04:48Z</time></trkpt><trkpt lat="45.94692750687695" lon="12.410959051776903"><ele>59.0</ele><time>2026-03-23T12:04:49Z</time></trkpt><trkpt lat="45.946824065602826" lon="12.411243511815165"><ele>59.0</ele><time>2026-03-23T12:04:50Z</time></trkpt><trkpt lat="45.9467186510436" lon="12.41152563952639"><ele>59.0</ele><time>2026-03-23T12:04:51Z</time></trkpt><trkpt lat="45.94661515604656" lon="12.411812120728305"><ele>58.333333333333336</ele><time>2026-03-23T12:04:52Z</time></trkpt><trkpt lat="45.946512008249066" lon="12.412093403450502"><ele>57.66666666666667</ele><time>2026-03-23T12:04:53Z</time></trkpt><trkpt lat="45.946406838980245" lon="12.41236842926257"><ele>57.0</ele><time>2026-03-23T12:04:54Z</time></trkpt><trkpt lat="45.946302581297516" lon="12.412643558310979"><ele>57.0</ele><time>2026-03-23T12:04:55Z</time></trkpt><trkpt lat="45.94620157644943" lon="12.412913605556595"><ele>57.0</ele><time>2026-03-23T12:04:56Z</time></trkpt><trkpt lat="45.94610120023582" lon="12.413185881838857"><ele>57.0</ele><time>2026-03-23T12:04:57Z</time></trkpt><trkpt lat="45.94600535366575" lon="12.413439594413374"><ele>57.0</ele><time>2026-03-23T12:04:58Z</time></trkpt><trkpt lat="45.94591654367025" lon="12.41368484882841"><ele>57.0</ele><time>2026-03-23T12:04:59Z</time></trkpt><trkpt lat="45.94583784693656" lon="12.413907413640302"><ele>57.0</ele><time>2026-03-23T12:05:00Z</time></trkpt><trkpt lat="45.945767595537454" lon="12.41412711063211"><ele>57.0</ele><time>2026-03-23T12:05:01Z</time></trkpt><trkpt lat="45.94570522556157" lon="12.414334274467107"><ele>57.0</ele><time>2026-03-23T12:05:02Z</time></trkpt><trkpt lat="45.94564941252022" lon="12.414556730015592"><ele>57.0</ele><time>2026-03-23T12:05:03Z</time></trkpt><trkpt lat="45.94559572713193" lon="12.414811472805889"><ele>57.0</ele><time>2026-03-23T12:05:04Z</time></trkpt><trkpt lat="45.945542074781144" lon="12.415068930326555"><ele>57.0</ele><time>2026-03-23T12:05:05Z</time></trkpt><trkpt lat="45.945496024845916" lon="12.415305959940651"><ele>57.0</ele><time>2026-03-23T12:05:06Z</time></trkpt><trkpt lat="45.94545690924121" lon="12.415539725958565"><ele>57.0</ele><time>2026-03-23T12:05:07Z</time></trkpt><trkpt lat="45.9454197634481" lon="12.415748740011367"><ele>57.0</ele><time>2026-03-23T12:05:08Z</time></trkpt><trkpt lat="45.945381048638275" lon="12.415932085687954"><ele>57.0</ele><time>2026-03-23T12:05:09Z</time></trkpt><trkpt lat="45.94534637103316" lon="12.416069309408938"><ele>57.0</ele><time>2026-03-23T12:05:10Z</time></trkpt><trkpt lat="45.9453024652443" lon="12.416187600184456"><ele>57.0</ele><time>2026-03-23T12:05:11Z</time></trkpt><trkpt lat="45.94524288060118" lon="12.416281629141224"><ele>57.0</ele><time>2026-03-23T12:05:12Z</time></trkpt><trkpt lat="45.94518622281194" lon="12.416389193183408"><ele>57.0</ele><time>2026-03-23T12:05:13Z</time></trkpt><trkpt lat="45.94517093767394" lon="12.416500121747802"><ele>57.0</ele><time>2026-03-23T12:05:14Z</time></trkpt><trkpt lat="45.94518195728289" lon="12.416617084436275"><ele>57.0</ele><time>2026-03-23T12:05:15Z</time></trkpt><trkpt lat="45.94521805052634" lon="12.4167406486072"><ele>57.0</ele><time>2026-03-23T12:05:16Z</time></trkpt><trkpt lat="45.94527773068849" lon="12.416872729912091"><ele>57.0</ele><time>2026-03-23T12:05:17Z</time></trkpt><trkpt lat="45.94533887741956" lon="12.417030863921703"><ele>57.0</ele><time>2026-03-23T12:05:18Z</time></trkpt><trkpt lat="45.945381383052634" lon="12.417222313324789"><ele>57.0</ele><time>2026-03-23T12:05:19Z</time></trkpt><trkpt lat="45.94540531741534" lon="12.417448836112566"><ele>57.0</ele><time>2026-03-23T12:05:20Z</time></trkpt><trkpt lat="45.9454182049531" lon="12.417700146867823"><ele>57.0</ele><time>2026-03-23T12:05:21Z</time></trkpt><trkpt lat="45.94542163468066" lon="12.417976070272351"><ele>57.0</ele><time>2026-03-23T12:05:22Z</time></trkpt><trkpt lat="45.94544093297821" lon="12.418277462199937"><ele>57.0</ele><time>2026-03-23T12:05:23Z</time></trkpt><trkpt lat="45.94547257051316" lon="12.418618343382457"><ele>54.5</ele><time>2026-03-23T12:05:24Z</time></trkpt><trkpt lat="45.94549926707212" lon="12.418954486380837"><ele>52.0</ele><time>2026-03-23T12:05:25Z</time></trkpt><trkpt lat="45.94552522817394" lon="12.41930288603523"><ele>52.0</ele><time>2026-03-23T12:05:26Z</time></trkpt><trkpt lat="45.94555075153567" lon="12.419617788828269"><ele>52.0</ele><time>2026-03-23T12:05:27Z</time></trkpt><trkpt lat="45.94557477360365" lon="12.419915653724733"><ele>52.0</ele><time>2026-03-23T12:05:28Z</time></trkpt><trkpt lat="45.94559322386493" lon="12.420193542316404"><ele>51.666666666666664</ele><time>2026-03-23T12:05:29Z</time></trkpt><trkpt lat="45.94560980957786" lon="12.420457792620255"><ele>51.33333333333333</ele><time>2026-03-23T12:05:30Z</time></trkpt><trkpt lat="45.94562331641547" lon="12.420705839949882"><ele>51.0</ele><time>2026-03-23T12:05:31Z</time></trkpt><trkpt lat="45.94563802744563" lon="12.420940853465304"><ele>51.0</ele><time>2026-03-23T12:05:32Z</time></trkpt><trkpt lat="45.94565269715402" lon="12.421162261751919"><ele>51.0</ele><time>2026-03-23T12:05:33Z</time></trkpt><trkpt lat="45.94566216551001" lon="12.421374272377887"><ele>51.0</ele><time>2026-03-23T12:05:34Z</time></trkpt><trkpt lat="45.94566897117099" lon="12.421594129161706"><ele>51.0</ele><time>2026-03-23T12:05:35Z</time></trkpt><trkpt lat="45.94566390056273" lon="12.421819341033343"><ele>51.0</ele><time>2026-03-23T12:05:36Z</time></trkpt><trkpt lat="45.94564558164778" lon="12.42204544674764"><ele>51.0</ele><time>2026-03-23T12:05:37Z</time></trkpt><trkpt lat="45.94561771989676" lon="12.422272669414816"><ele>51.0</ele><time>2026-03-23T12:05:38Z</time></trkpt><trkpt lat="45.945583945748886" lon="12.422498707186682"><ele>51.0</ele><time>2026-03-23T12:05:39Z</time></trkpt><trkpt lat="45.94555083217976" lon="12.422718988218179"><ele>51.0</ele><time>2026-03-23T12:05:40Z</time></trkpt><trkpt lat="45.94551951261643" lon="12.422922504688444"><ele>51.0</ele><time>2026-03-23T12:05:41Z</time></trkpt><trkpt lat="45.945489612851595" lon="12.423124000159744"><ele>51.0</ele><time>2026-03-23T12:05:42Z</time></trkpt><trkpt lat="45.94546285898321" lon="12.423326297889481"><ele>51.0</ele><time>2026-03-23T12:05:43Z</time></trkpt><trkpt lat="45.945443035809156" lon="12.42353342737285"><ele>51.0</ele><time>2026-03-23T12:05:44Z</time></trkpt><trkpt lat="45.945434904666" lon="12.423730951486869"><ele>51.0</ele><time>2026-03-23T12:05:45Z</time></trkpt><trkpt lat="45.94543221745272" lon="12.423915063874816"><ele>51.0</ele><time>2026-03-23T12:05:46Z</time></trkpt><trkpt lat="45.94542896164893" lon="12.424088278482149"><ele>51.0</ele><time>2026-03-23T12:05:47Z</time></trkpt><trkpt lat="45.94542401879409" lon="12.424270110845018"><ele>51.0</ele><time>2026-03-23T12:05:48Z</time></trkpt><trkpt lat="45.94541630206618" lon="12.424461110279275"><ele>51.0</ele><time>2026-03-23T12:05:49Z</time></trkpt><trkpt lat="45.94541050820088" lon="12.424654923785807"><ele>51.0</ele><time>2026-03-23T12:05:50Z</time></trkpt><trkpt lat="45.94540789133583" lon="12.424852882732402"><ele>51.0</ele><time>2026-03-23T12:05:51Z</time></trkpt><trkpt lat="45.9453961761593" lon="12.42505794915913"><ele>51.0</ele><time>2026-03-23T12:05:52Z</time></trkpt><trkpt lat="45.94538681907405" lon="12.425263464240833"><ele>51.0</ele><time>2026-03-23T12:05:53Z</time></trkpt><trkpt lat="45.94538194813284" lon="12.425480373742369"><ele>51.0</ele><time>2026-03-23T12:05:54Z</time></trkpt><trkpt lat="45.945376698647124" lon="12.4257030006021"><ele>51.0</ele><time>2026-03-23T12:05:55Z</time></trkpt><trkpt lat="45.94537200195271" lon="12.425933453731098"><ele>51.0</ele><time>2026-03-23T12:05:56Z</time></trkpt><trkpt lat="45.94536428248409" lon="12.426171487500724"><ele>51.0</ele><time>2026-03-23T12:05:57Z</time></trkpt><trkpt lat="45.94535503722541" lon="12.426415045894682"><ele>51.0</ele><time>2026-03-23T12:05:58Z</time></trkpt><trkpt lat="45.94534497793502" lon="12.426662672026325"><ele>50.66666666666667</ele><time>2026-03-23T12:05:59Z</time></trkpt><trkpt lat="45.9453367250307" lon="12.426916938031734"><ele>50.333333333333336</ele><time>2026-03-23T12:06:00Z</time></trkpt><trkpt lat="45.945330221029465" lon="12.427172261007126"><ele>50.0</ele><time>2026-03-23T12:06:01Z</time></trkpt><trkpt lat="45.94532805455274" lon="12.427425994587622"><ele>49.66666666666667</ele><time>2026-03-23T12:06:02Z</time></trkpt><trkpt lat="45.945328822746035" lon="12.427681571288856"><ele>49.33333333333333</ele><time>2026-03-23T12:06:03Z</time></trkpt><trkpt lat="45.945331298297106" lon="12.42793765710448"><ele>49.0</ele><time>2026-03-23T12:06:04Z</time></trkpt><trkpt lat="45.945336865108764" lon="12.428194750293459"><ele>49.0</ele><time>2026-03-23T12:06:05Z</time></trkpt><trkpt lat="45.945347301618085" lon="12.42845275542502"><ele>49.0</ele><time>2026-03-23T12:06:06Z</time></trkpt><trkpt lat="45.94535896333567" lon="12.428704405978957"><ele>49.0</ele><time>2026-03-23T12:06:07Z</time></trkpt><trkpt lat="45.9453735118539" lon="12.428951244917972"><ele>49.0</ele><time>2026-03-23T12:06:08Z</time></trkpt><trkpt lat="45.945388143389884" lon="12.429195144237562"><ele>49.0</ele><time>2026-03-23T12:06:09Z</time></trkpt><trkpt lat="45.94540303192546" lon="12.42944083213521"><ele>49.0</ele><time>2026-03-23T12:06:10Z</time></trkpt><trkpt lat="45.94541287038622" lon="12.42968213000931"><ele>49.0</ele><time>2026-03-23T12:06:11Z</time></trkpt><trkpt lat="45.94541839201906" lon="12.429913435973528"><ele>49.0</ele><time>2026-03-23T12:06:12Z</time></trkpt><trkpt lat="45.94541430139384" lon="12.430136009824768"><ele>49.0</ele><time>2026-03-23T12:06:13Z</time></trkpt><trkpt lat="45.94539917735508" lon="12.43034199453248"><ele>48.666666666666664</ele><time>2026-03-23T12:06:14Z</time></trkpt><trkpt lat="45.945375415476" lon="12.430552799802813"><ele>48.33333333333333</ele><time>2026-03-23T12:06:15Z</time></trkpt><trkpt lat="45.94534148208727" lon="12.43076682586958"><ele>48.0</ele><time>2026-03-23T12:06:16Z</time></trkpt><trkpt lat="45.945300817545714" lon="12.430982201174073"><ele>48.0</ele><time>2026-03-23T12:06:17Z</time></trkpt><trkpt lat="45.94525480091905" lon="12.43120060191452"><ele>48.0</ele><time>2026-03-23T12:06:18Z</time></trkpt><trkpt lat="45.94520213338645" lon="12.431421245317587"><ele>48.0</ele><time>2026-03-23T12:06:19Z</time></trkpt><trkpt lat="45.94514906014501" lon="12.43164144583188"><ele>47.666666666666664</ele><time>2026-03-23T12:06:20Z</time></trkpt><trkpt lat="45.94509533774691" lon="12.431866852698352"><ele>47.33333333333333</ele><time>2026-03-23T12:06:21Z</time></trkpt><trkpt lat="45.94504073375082" lon="12.432094964879084"><ele>47.0</ele><time>2026-03-23T12:06:22Z</time></trkpt><trkpt lat="45.94498493183711" lon="12.43232363260303"><ele>46.666666666666664</ele><time>2026-03-23T12:06:23Z</time></trkpt><trkpt lat="45.94493070467926" lon="12.432549997043845"><ele>46.333333333333336</ele><time>2026-03-23T12:06:24Z</time></trkpt><trkpt lat="45.944875197348985" lon="12.432779502117784"><ele>46.0</ele><time>2026-03-23T12:06:25Z</time></trkpt><trkpt lat="45.944819656049006" lon="12.433008362451492"><ele>46.0</ele><time>2026-03-23T12:06:26Z</time></trkpt><trkpt lat="45.94476320212461" lon="12.433236097637494"><ele>46.0</ele><time>2026-03-23T12:06:27Z</time></trkpt><trkpt lat="45.94470853035771" lon="12.433464223191306"><ele>46.0</ele><time>2026-03-23T12:06:28Z</time></trkpt><trkpt lat="45.944654512973116" lon="12.433692342406015"><ele>45.66666666666667</ele><time>2026-03-23T12:06:29Z</time></trkpt><trkpt lat="45.94459954775654" lon="12.433923499161583"><ele>45.333333333333336</ele><time>2026-03-23T12:06:30Z</time></trkpt><trkpt lat="45.94454769469058" lon="12.434152619738894"><ele>45.0</ele><time>2026-03-23T12:06:31Z</time></trkpt><trkpt lat="45.94449860074009" lon="12.434382423074187"><ele>45.0</ele><time>2026-03-23T12:06:32Z</time></trkpt><trkpt lat="45.94445072613315" lon="12.434613225728592"><ele>45.0</ele><time>2026-03-23T12:06:33Z</time></trkpt><trkpt lat="45.94440781034647" lon="12.434843932784927"><ele>45.0</ele><time>2026-03-23T12:06:34Z</time></trkpt><trkpt lat="45.944377823045265" lon="12.435078257742365"><ele>45.333333333333336</ele><time>2026-03-23T12:06:35Z</time></trkpt><trkpt lat="45.94436257555874" lon="12.43531880029344"><ele>45.66666666666667</ele><time>2026-03-23T12:06:36Z</time></trkpt><trkpt lat="45.944363390009" lon="12.435562752822255"><ele>46.0</ele><time>2026-03-23T12:06:37Z</time></trkpt><trkpt lat="45.94437142703971" lon="12.43580395727157"><ele>45.66666666666667</ele><time>2026-03-23T12:06:38Z</time></trkpt><trkpt lat="45.94439440226879" lon="12.43604534107987"><ele>45.333333333333336</ele><time>2026-03-23T12:06:39Z</time></trkpt><trkpt lat="45.94442903521452" lon="12.436283293489039"><ele>45.0</ele><time>2026-03-23T12:06:40Z</time></trkpt><trkpt lat="45.94446267403108" lon="12.436524783765009"><ele>45.0</ele><time>2026-03-23T12:06:41Z</time></trkpt><trkpt lat="45.944502806354066" lon="12.436767319032256"><ele>45.0</ele><time>2026-03-23T12:06:42Z</time></trkpt><trkpt lat="45.94454360512721" lon="12.437010711513729"><ele>45.0</ele><time>2026-03-23T12:06:43Z</time></trkpt><trkpt lat="45.944583285999464" lon="12.437255429685798"><ele>45.333333333333336</ele><time>2026-03-23T12:06:44Z</time></trkpt><trkpt lat="45.944623267877766" lon="12.437500617476017"><ele>45.66666666666667</ele><time>2026-03-23T12:06:45Z</time></trkpt><trkpt lat="45.94466233241016" lon="12.437744776211096"><ele>46.0</ele><time>2026-03-23T12:06:46Z</time></trkpt><trkpt lat="45.94470152610469" lon="12.437985758227498"><ele>46.0</ele><time>2026-03-23T12:06:47Z</time></trkpt><trkpt lat="45.94473635769753" lon="12.438224402483247"><ele>46.0</ele><time>2026-03-23T12:06:48Z</time></trkpt><trkpt lat="45.94476973590356" lon="12.438464659147114"><ele>46.0</ele><time>2026-03-23T12:06:49Z</time></trkpt><trkpt lat="45.94480141523936" lon="12.438690653069036"><ele>46.0</ele><time>2026-03-23T12:06:50Z</time></trkpt><trkpt lat="45.9448297323935" lon="12.438905948440912"><ele>46.0</ele><time>2026-03-23T12:06:51Z</time></trkpt><trkpt lat="45.944854329546004" lon="12.439112832343826"><ele>46.0</ele><time>2026-03-23T12:06:52Z</time></trkpt><trkpt lat="45.94487788515427" lon="12.43930648425622"><ele>46.0</ele><time>2026-03-23T12:06:53Z</time></trkpt><trkpt lat="45.944898645421596" lon="12.439492277886957"><ele>45.75</ele><time>2026-03-23T12:06:54Z</time></trkpt><trkpt lat="45.94491195327669" lon="12.43967833919778"><ele>45.5</ele><time>2026-03-23T12:06:55Z</time></trkpt><trkpt lat="45.94491069265021" lon="12.439848158110651"><ele>45.25</ele><time>2026-03-23T12:06:56Z</time></trkpt><trkpt lat="45.94489901848662" lon="12.440023660056564"><ele>45.0</ele><time>2026-03-23T12:06:57Z</time></trkpt><trkpt lat="45.944886143340376" lon="12.440204775818737"><ele>45.0</ele><time>2026-03-23T12:06:58Z</time></trkpt><trkpt lat="45.9448643005905" lon="12.440389817073136"><ele>45.0</ele><time>2026-03-23T12:06:59Z</time></trkpt><trkpt lat="45.94484002671023" lon="12.440573970059583"><ele>45.0</ele><time>2026-03-23T12:07:00Z</time></trkpt><trkpt lat="45.94481002411106" lon="12.440765087828993"><ele>45.0</ele><time>2026-03-23T12:07:01Z</time></trkpt><trkpt lat="45.944779558440175" lon="12.440960152030833"><ele>45.0</ele><time>2026-03-23T12:07:02Z</time></trkpt><trkpt lat="45.9447540555959" lon="12.441162275461856"><ele>45.0</ele><time>2026-03-23T12:07:03Z</time></trkpt><trkpt lat="45.94473633029655" lon="12.441373315661902"><ele>45.0</ele><time>2026-03-23T12:07:04Z</time></trkpt><trkpt lat="45.94472483302534" lon="12.441591474227963"><ele>45.0</ele><time>2026-03-23T12:07:05Z</time></trkpt><trkpt lat="45.94471889550787" lon="12.441814056451774"><ele>45.0</ele><time>2026-03-23T12:07:06Z</time></trkpt><trkpt lat="45.9447049588179" lon="12.44204159734526"><ele>45.0</ele><time>2026-03-23T12:07:07Z</time></trkpt><trkpt lat="45.94468960555103" lon="12.442275886764406"><ele>45.0</ele><time>2026-03-23T12:07:08Z</time></trkpt><trkpt lat="45.94467619137807" lon="12.442515451093893"><ele>44.666666666666664</ele><time>2026-03-23T12:07:09Z</time></trkpt><trkpt lat="45.9446638864721" lon="12.442762282632463"><ele>44.33333333333333</ele><time>2026-03-23T12:07:10Z</time></trkpt><trkpt lat="45.944653630493896" lon="12.443011883851387"><ele>44.0</ele><time>2026-03-23T12:07:11Z</time></trkpt><trkpt lat="45.94464029543617" lon="12.44326045820748"><ele>43.666666666666664</ele><time>2026-03-23T12:07:12Z</time></trkpt><trkpt lat="45.94462632099324" lon="12.44351110573574"><ele>43.333333333333336</ele><time>2026-03-23T12:07:13Z</time></trkpt><trkpt lat="45.94460257446239" lon="12.443746749253823"><ele>43.0</ele><time>2026-03-23T12:07:14Z</time></trkpt><trkpt lat="45.94457539201457" lon="12.443972343722649"><ele>43.0</ele><time>2026-03-23T12:07:15Z</time></trkpt><trkpt lat="45.94454480848693" lon="12.444201084733"><ele>43.0</ele><time>2026-03-23T12:07:16Z</time></trkpt><trkpt lat="45.94450576515064" lon="12.444427119758197"><ele>43.0</ele><time>2026-03-23T12:07:17Z</time></trkpt><trkpt lat="45.94446025885559" lon="12.444654079779562"><ele>43.0</ele><time>2026-03-23T12:07:18Z</time></trkpt><trkpt lat="45.94440950468352" lon="12.444877349438043"><ele>43.0</ele><time>2026-03-23T12:07:19Z</time></trkpt><trkpt lat="45.944354108846355" lon="12.445100894976184"><ele>43.0</ele><time>2026-03-23T12:07:20Z</time></trkpt><trkpt lat="45.94429625134193" lon="12.44532529193668"><ele>43.0</ele><time>2026-03-23T12:07:21Z</time></trkpt><trkpt lat="45.94423660878284" lon="12.445551379878426"><ele>43.0</ele><time>2026-03-23T12:07:22Z</time></trkpt><trkpt lat="45.94417423742207" lon="12.445779822284134"><ele>43.0</ele><time>2026-03-23T12:07:23Z</time></trkpt><trkpt lat="45.944112260185626" lon="12.446006886230776"><ele>43.0</ele><time>2026-03-23T12:07:24Z</time></trkpt><trkpt lat="45.944050173315176" lon="12.446237369474677"><ele>43.0</ele><time>2026-03-23T12:07:25Z</time></trkpt><trkpt lat="45.943994273972514" lon="12.44644925641855"><ele>43.0</ele><time>2026-03-23T12:07:26Z</time></trkpt><trkpt lat="45.94394165485945" lon="12.446652747077025"><ele>42.5</ele><time>2026-03-23T12:07:27Z</time></trkpt><trkpt lat="45.94389359848497" lon="12.446859804302113"><ele>42.0</ele><time>2026-03-23T12:07:28Z</time></trkpt><trkpt lat="45.94385163136075" lon="12.447054461474659"><ele>41.5</ele><time>2026-03-23T12:07:29Z</time></trkpt><trkpt lat="45.943812598220454" lon="12.447237357223047"><ele>41.0</ele><time>2026-03-23T12:07:30Z</time></trkpt><trkpt lat="45.94377901433007" lon="12.44741346950788"><ele>40.8</ele><time>2026-03-23T12:07:31Z</time></trkpt><trkpt lat="45.943767543717605" lon="12.447578415660205"><ele>40.599999999999994</ele><time>2026-03-23T12:07:32Z</time></trkpt><trkpt lat="45.943780915008915" lon="12.447733911770023"><ele>40.4</ele><time>2026-03-23T12:07:33Z</time></trkpt><trkpt lat="45.943821671124596" lon="12.447875612312131"><ele>40.2</ele><time>2026-03-23T12:07:34Z</time></trkpt><trkpt lat="45.94388069125906" lon="12.44801054433053"><ele>40.0</ele><time>2026-03-23T12:07:35Z</time></trkpt><trkpt lat="45.94396219998546" lon="12.448127746538596"><ele>40.0</ele><time>2026-03-23T12:07:36Z</time></trkpt><trkpt lat="45.944035006825516" lon="12.448241159069024"><ele>40.0</ele><time>2026-03-23T12:07:37Z</time></trkpt><trkpt lat="45.944062627717344" lon="12.448366409208754"><ele>40.0</ele><time>2026-03-23T12:07:38Z</time></trkpt><trkpt lat="45.94405891805004" lon="12.44848083656519"><ele>40.0</ele><time>2026-03-23T12:07:39Z</time></trkpt><trkpt lat="45.944021648751175" lon="12.448570326372671"><ele>40.0</ele><time>2026-03-23T12:07:40Z</time></trkpt><trkpt lat="45.94396234155062" lon="12.448641049635183"><ele>40.0</ele><time>2026-03-23T12:07:41Z</time></trkpt><trkpt lat="45.94387850771259" lon="12.448678376536478"><ele>40.0</ele><time>2026-03-23T12:07:42Z</time></trkpt><trkpt lat="45.94378718294096" lon="12.448676723226884"><ele>40.0</ele><time>2026-03-23T12:07:43Z</time></trkpt><trkpt lat="45.943671330480356" lon="12.448653475682157"><ele>40.0</ele><time>2026-03-23T12:07:44Z</time></trkpt><trkpt lat="45.94356894200833" lon="12.448674687706646"><ele>40.0</ele><time>2026-03-23T12:07:45Z</time></trkpt><trkpt lat="45.94348109225263" lon="12.448740445085614"><ele>40.0</ele><time>2026-03-23T12:07:46Z</time></trkpt><trkpt lat="45.94340838427488" lon="12.448830039772814"><ele>39.75</ele><time>2026-03-23T12:07:47Z</time></trkpt><trkpt lat="45.94336657622541" lon="12.44894002759627"><ele>39.5</ele><time>2026-03-23T12:07:48Z</time></trkpt><trkpt lat="45.943353541712185" lon="12.449083875290167"><ele>39.25</ele><time>2026-03-23T12:07:49Z</time></trkpt><trkpt lat="45.94336178075311" lon="12.44927366101821"><ele>39.0</ele><time>2026-03-23T12:07:50Z</time></trkpt><trkpt lat="45.94336062374251" lon="12.44950717322365"><ele>39.333333333333336</ele><time>2026-03-23T12:07:51Z</time></trkpt><trkpt lat="45.9433310398269" lon="12.44976302924665"><ele>39.66666666666667</ele><time>2026-03-23T12:07:52Z</time></trkpt><trkpt lat="45.9433084003499" lon="12.450039908343633"><ele>40.0</ele><time>2026-03-23T12:07:53Z</time></trkpt><trkpt lat="45.9433103142862" lon="12.450334583733138"><ele>39.333333333333336</ele><time>2026-03-23T12:07:54Z</time></trkpt><trkpt lat="45.94330922298913" lon="12.45065968171196"><ele>38.666666666666664</ele><time>2026-03-23T12:07:55Z</time></trkpt><trkpt lat="45.94328687508036" lon="12.450967926635588"><ele>38.0</ele><time>2026-03-23T12:07:56Z</time></trkpt><trkpt lat="45.943243191939345" lon="12.45129985619501"><ele>38.0</ele><time>2026-03-23T12:07:57Z</time></trkpt><trkpt lat="45.94319129803261" lon="12.451652223434236"><ele>38.0</ele><time>2026-03-23T12:07:58Z</time></trkpt><trkpt lat="45.943137523673755" lon="12.452023105798517"><ele>38.0</ele><time>2026-03-23T12:07:59Z</time></trkpt><trkpt lat="45.943085878903986" lon="12.452408554344297"><ele>38.0</ele><time>2026-03-23T12:08:00Z</time></trkpt><trkpt lat="45.943035744999456" lon="12.452782332853987"><ele>38.0</ele><time>2026-03-23T12:08:01Z</time></trkpt><trkpt lat="45.94298897636574" lon="12.453120872357598"><ele>38.0</ele><time>2026-03-23T12:08:02Z</time></trkpt><trkpt lat="45.94294535358525" lon="12.453437193047744"><ele>38.0</ele><time>2026-03-23T12:08:03Z</time></trkpt><trkpt lat="45.942904045276485" lon="12.453735928138938"><ele>38.0</ele><time>2026-03-23T12:08:04Z</time></trkpt><trkpt lat="45.94286569153791" lon="12.454018585053232"><ele>38.0</ele><time>2026-03-23T12:08:05Z</time></trkpt><trkpt lat="45.94283062698671" lon="12.454282600075121"><ele>38.666666666666664</ele><time>2026-03-23T12:08:06Z</time></trkpt><trkpt lat="45.94280018860126" lon="12.454530491759163"><ele>39.333333333333336</ele><time>2026-03-23T12:08:07Z</time></trkpt><trkpt lat="45.94276822843188" lon="12.454764710901204"><ele>40.0</ele><time>2026-03-23T12:08:08Z</time></trkpt><trkpt lat="45.942741086781034" lon="12.45498396151879"><ele>40.0</ele><time>2026-03-23T12:08:09Z</time></trkpt><trkpt lat="45.94271977664288" lon="12.455189675256545"><ele>40.0</ele><time>2026-03-23T12:08:10Z</time></trkpt><trkpt lat="45.94270196579686" lon="12.455373695175675"><ele>40.0</ele><time>2026-03-23T12:08:11Z</time></trkpt><trkpt lat="45.94268691523311" lon="12.45552586026482"><ele>40.0</ele><time>2026-03-23T12:08:12Z</time></trkpt><trkpt lat="45.942670758975176" lon="12.45563580286522"><ele>39.8</ele><time>2026-03-23T12:08:13Z</time></trkpt><trkpt lat="45.94261101147408" lon="12.455721567377422"><ele>39.6</ele><time>2026-03-23T12:08:15Z</time></trkpt><trkpt lat="45.94250196275961" lon="12.455683790141968"><ele>39.4</ele><time>2026-03-23T12:08:17Z</time></trkpt><trkpt lat="45.942416242040586" lon="12.455629013032942"><ele>39.2</ele><time>2026-03-23T12:08:18Z</time></trkpt><trkpt lat="45.94232258217849" lon="12.4555970558726"><ele>39.0</ele><time>2026-03-23T12:08:19Z</time></trkpt><trkpt lat="45.94221724952807" lon="12.455566684166394"><ele>39.0</ele><time>2026-03-23T12:08:20Z</time></trkpt><trkpt lat="45.94209709805101" lon="12.455532535912203"><ele>39.0</ele><time>2026-03-23T12:08:21Z</time></trkpt><trkpt lat="45.941969405888265" lon="12.455494412242434"><ele>39.0</ele><time>2026-03-23T12:08:22Z</time></trkpt><trkpt lat="45.941854501191216" lon="12.455462174938154"><ele>39.0</ele><time>2026-03-23T12:08:23Z</time></trkpt><trkpt lat="45.941742335189474" lon="12.455435650581178"><ele>38.75</ele><time>2026-03-23T12:08:24Z</time></trkpt><trkpt lat="45.94162502683281" lon="12.45540538911541"><ele>38.5</ele><time>2026-03-23T12:08:25Z</time></trkpt><trkpt lat="45.941507539547956" lon="12.455367312770925"><ele>38.25</ele><time>2026-03-23T12:08:26Z</time></trkpt><trkpt lat="45.941389002725984" lon="12.455329856734355"><ele>38.0</ele><time>2026-03-23T12:08:27Z</time></trkpt><trkpt lat="45.94128069757155" lon="12.455295090577005"><ele>38.0</ele><time>2026-03-23T12:08:28Z</time></trkpt><trkpt lat="45.94117501058424" lon="12.455265621251192"><ele>38.0</ele><time>2026-03-23T12:08:29Z</time></trkpt><trkpt lat="45.9410598610975" lon="12.455250894197617"><ele>38.0</ele><time>2026-03-23T12:08:30Z</time></trkpt><trkpt lat="45.94094627205319" lon="12.455247261085054"><ele>38.0</ele><time>2026-03-23T12:08:31Z</time></trkpt><trkpt lat="45.94084507492287" lon="12.455265576418325"><ele>38.0</ele><time>2026-03-23T12:08:32Z</time></trkpt><trkpt lat="45.94075593339843" lon="12.455311062762231"><ele>37.6</ele><time>2026-03-23T12:08:33Z</time></trkpt><trkpt lat="45.94067081476283" lon="12.455390143473037"><ele>37.199999999999996</ele><time>2026-03-23T12:08:34Z</time></trkpt><trkpt lat="45.94060404902008" lon="12.455493678550356"><ele>36.8</ele><time>2026-03-23T12:08:35Z</time></trkpt><trkpt lat="45.940559298942055" lon="12.455629267971652"><ele>36.4</ele><time>2026-03-23T12:08:36Z</time></trkpt><trkpt lat="45.94051951074152" lon="12.455783851201035"><ele>36.0</ele><time>2026-03-23T12:08:37Z</time></trkpt><trkpt lat="45.94047949897054" lon="12.455944304302093"><ele>35.75</ele><time>2026-03-23T12:08:38Z</time></trkpt><trkpt lat="45.9404341270868" lon="12.456113960295406"><ele>35.5</ele><time>2026-03-23T12:08:39Z</time></trkpt><trkpt lat="45.94038137922812" lon="12.45629780484036"><ele>35.25</ele><time>2026-03-23T12:08:40Z</time></trkpt><trkpt lat="45.94034059627458" lon="12.45646559152763"><ele>35.0</ele><time>2026-03-23T12:08:41Z</time></trkpt><trkpt lat="45.94029652291278" lon="12.456637061668944"><ele>35.0</ele><time>2026-03-23T12:08:42Z</time></trkpt><trkpt lat="45.94025086265561" lon="12.456795877782698"><ele>35.0</ele><time>2026-03-23T12:08:43Z</time></trkpt><trkpt lat="45.94021709411135" lon="12.456949224959597"><ele>35.0</ele><time>2026-03-23T12:08:44Z</time></trkpt><trkpt lat="45.940200137507155" lon="12.457137787419736"><ele>35.0</ele><time>2026-03-23T12:08:45Z</time></trkpt><trkpt lat="45.940190289887525" lon="12.457385126488193"><ele>35.0</ele><time>2026-03-23T12:08:46Z</time></trkpt><trkpt lat="45.940182596559154" lon="12.457626822661775"><ele>35.0</ele><time>2026-03-23T12:08:47Z</time></trkpt><trkpt lat="45.940184209704874" lon="12.457857230723087"><ele>35.0</ele><time>2026-03-23T12:08:48Z</time></trkpt><trkpt lat="45.9401860610887" lon="12.458071760409206"><ele>34.75</ele><time>2026-03-23T12:08:49Z</time></trkpt><trkpt lat="45.94017920120839" lon="12.458270844655308"><ele>34.5</ele><time>2026-03-23T12:08:50Z</time></trkpt><trkpt lat="45.940155728235446" lon="12.45847537850654"><ele>34.25</ele><time>2026-03-23T12:08:51Z</time></trkpt><trkpt lat="45.94010906363732" lon="12.458680364727666"><ele>34.0</ele><time>2026-03-23T12:08:52Z</time></trkpt><trkpt lat="45.94003188591377" lon="12.45888757322155"><ele>34.0</ele><time>2026-03-23T12:08:53Z</time></trkpt><trkpt lat="45.93995658387888" lon="12.459088495293942"><ele>34.0</ele><time>2026-03-23T12:08:54Z</time></trkpt><trkpt lat="45.939870958737195" lon="12.45927362043319"><ele>34.0</ele><time>2026-03-23T12:08:55Z</time></trkpt><trkpt lat="45.93977940278092" lon="12.459428515846199"><ele>34.0</ele><time>2026-03-23T12:08:56Z</time></trkpt><trkpt lat="45.939671199371766" lon="12.459579679513944"><ele>34.0</ele><time>2026-03-23T12:08:57Z</time></trkpt><trkpt lat="45.93955455630302" lon="12.45971410764127"><ele>34.0</ele><time>2026-03-23T12:08:58Z</time></trkpt><trkpt lat="45.9394150575473" lon="12.459851186388393"><ele>33.75</ele><time>2026-03-23T12:08:59Z</time></trkpt><trkpt lat="45.93926989345584" lon="12.459973959706385"><ele>33.5</ele><time>2026-03-23T12:09:00Z</time></trkpt><trkpt lat="45.93914257222553" lon="12.460042875384481"><ele>33.25</ele><time>2026-03-23T12:09:01Z</time></trkpt><trkpt lat="45.9390447063899" lon="12.460079671527193"><ele>33.0</ele><time>2026-03-23T12:09:02Z</time></trkpt><trkpt lat="45.93895673374528" lon="12.460115531432827"><ele>33.0</ele><time>2026-03-23T12:09:03Z</time></trkpt><trkpt lat="45.93886634364823" lon="12.460159599563148"><ele>33.0</ele><time>2026-03-23T12:09:04Z</time></trkpt><trkpt lat="45.93875249703162" lon="12.460225304013553"><ele>33.0</ele><time>2026-03-23T12:09:05Z</time></trkpt><trkpt lat="45.9386372575473" lon="12.460283379139257"><ele>33.0</ele><time>2026-03-23T12:09:06Z</time></trkpt><trkpt lat="45.93849203497306" lon="12.460346039261555"><ele>33.25</ele><time>2026-03-23T12:09:07Z</time></trkpt><trkpt lat="45.938366499095466" lon="12.460395838406237"><ele>33.5</ele><time>2026-03-23T12:09:08Z</time></trkpt><trkpt lat="45.93824502857364" lon="12.4604528968694"><ele>33.75</ele><time>2026-03-23T12:09:09Z</time></trkpt><trkpt lat="45.938116954494454" lon="12.460514970586672"><ele>34.0</ele><time>2026-03-23T12:09:10Z</time></trkpt><trkpt lat="45.9379991652305" lon="12.460594280726825"><ele>33.5</ele><time>2026-03-23T12:09:11Z</time></trkpt><trkpt lat="45.93790568931377" lon="12.46068968964476"><ele>33.0</ele><time>2026-03-23T12:09:11.999Z</time></trkpt><trkpt lat="45.93782716577775" lon="12.460818997366488"><ele>32.5</ele><time>2026-03-23T12:09:12.999Z</time></trkpt><trkpt lat="45.93776265564766" lon="12.460993341826486"><ele>32.0</ele><time>2026-03-23T12:09:13.999Z</time></trkpt><trkpt lat="45.93769062207718" lon="12.461241993046928"><ele>32.0</ele><time>2026-03-23T12:09:14.999Z</time></trkpt><trkpt lat="45.93759864629594" lon="12.461568080173649"><ele>32.0</ele><time>2026-03-23T12:09:15.999Z</time></trkpt><trkpt lat="45.937508989606656" lon="12.461889695680254"><ele>31.666666666666664</ele><time>2026-03-23T12:09:16.999Z</time></trkpt><trkpt lat="45.937436550054954" lon="12.462164399739262"><ele>31.333333333333336</ele><time>2026-03-23T12:09:17.999Z</time></trkpt><trkpt lat="45.93736233757545" lon="12.462421708633793"><ele>31.0</ele><time>2026-03-23T12:09:18.999Z</time></trkpt><trkpt lat="45.937288917627626" lon="12.462666639985397"><ele>31.0</ele><time>2026-03-23T12:09:19.999Z</time></trkpt><trkpt lat="45.937230138799556" lon="12.462884856722816"><ele>31.0</ele><time>2026-03-23T12:09:20.999Z</time></trkpt><trkpt lat="45.93717888675455" lon="12.463091924396013"><ele>31.0</ele><time>2026-03-23T12:09:21.999Z</time></trkpt><trkpt lat="45.93714103164475" lon="12.463280251966108"><ele>31.0</ele><time>2026-03-23T12:09:22.999Z</time></trkpt><trkpt lat="45.93712248052551" lon="12.463455589480212"><ele>31.0</ele><time>2026-03-23T12:09:23.999Z</time></trkpt><trkpt lat="45.9371013609475" lon="12.46365498658463"><ele>31.0</ele><time>2026-03-23T12:09:25Z</time></trkpt><trkpt lat="45.93708244330592" lon="12.463879822010867"><ele>31.0</ele><time>2026-03-23T12:09:26Z</time></trkpt><trkpt lat="45.93706354512772" lon="12.464134970821965"><ele>31.333333333333336</ele><time>2026-03-23T12:09:27Z</time></trkpt><trkpt lat="45.93704202989019" lon="12.464430226501229"><ele>31.666666666666664</ele><time>2026-03-23T12:09:28Z</time></trkpt><trkpt lat="45.93702061855195" lon="12.46472257722363"><ele>32.0</ele><time>2026-03-23T12:09:29Z</time></trkpt><trkpt lat="45.93700191204702" lon="12.464971630882172"><ele>32.0</ele><time>2026-03-23T12:09:30Z</time></trkpt><trkpt lat="45.93698632087911" lon="12.46521166428678"><ele>32.0</ele><time>2026-03-23T12:09:31Z</time></trkpt><trkpt lat="45.936970804593514" lon="12.465434664645016"><ele>32.0</ele><time>2026-03-23T12:09:32Z</time></trkpt><trkpt lat="45.93695345662693" lon="12.465640595698884"><ele>32.0</ele><time>2026-03-23T12:09:33Z</time></trkpt><trkpt lat="45.93693780939359" lon="12.465838291833524"><ele>32.0</ele><time>2026-03-23T12:09:34Z</time></trkpt><trkpt lat="45.93692194503676" lon="12.466020200272062"><ele>32.0</ele><time>2026-03-23T12:09:35Z</time></trkpt><trkpt lat="45.93690640476051" lon="12.466181137423536"><ele>32.0</ele><time>2026-03-23T12:09:36Z</time></trkpt><trkpt lat="45.93688446679762" lon="12.466310783919301"><ele>32.0</ele><time>2026-03-23T12:09:37Z</time></trkpt><trkpt lat="45.936840829344575" lon="12.466411235713858"><ele>32.0</ele><time>2026-03-23T12:09:38Z</time></trkpt><trkpt lat="45.93677804230806" lon="12.466505767667206"><ele>32.0</ele><time>2026-03-23T12:09:39Z</time></trkpt><trkpt lat="45.93670352361271" lon="12.466601471977171"><ele>32.0</ele><time>2026-03-23T12:09:40Z</time></trkpt><trkpt lat="45.93661226794665" lon="12.466685739396727"><ele>32.0</ele><time>2026-03-23T12:09:41Z</time></trkpt><trkpt lat="45.936504532842605" lon="12.466747267118375"><ele>32.0</ele><time>2026-03-23T12:09:42Z</time></trkpt><trkpt lat="45.936388654477966" lon="12.466791014768882"><ele>32.0</ele><time>2026-03-23T12:09:43Z</time></trkpt><trkpt lat="45.93624919721659" lon="12.46683015784966"><ele>32.0</ele><time>2026-03-23T12:09:44Z</time></trkpt><trkpt lat="45.93609922469461" lon="12.46688604855364"><ele>32.0</ele><time>2026-03-23T12:09:45Z</time></trkpt><trkpt lat="45.93595949144671" lon="12.46695777994923"><ele>32.33333333333333</ele><time>2026-03-23T12:09:46Z</time></trkpt><trkpt lat="45.93582056646695" lon="12.46703357481891"><ele>32.666666666666664</ele><time>2026-03-23T12:09:47Z</time></trkpt><trkpt lat="45.935677619938396" lon="12.467120986366934"><ele>33.0</ele><time>2026-03-23T12:09:48Z</time></trkpt><trkpt lat="45.93554169681821" lon="12.467216991061669"><ele>31.666666666666664</ele><time>2026-03-23T12:09:49Z</time></trkpt><trkpt lat="45.935400305239035" lon="12.46732398816291"><ele>30.333333333333332</ele><time>2026-03-23T12:09:50Z</time></trkpt><trkpt lat="45.93526209402101" lon="12.467439645771462"><ele>29.0</ele><time>2026-03-23T12:09:51Z</time></trkpt><trkpt lat="45.935127940784085" lon="12.467568420065687"><ele>29.0</ele><time>2026-03-23T12:09:52Z</time></trkpt><trkpt lat="45.934993467179" lon="12.467709191913393"><ele>29.0</ele><time>2026-03-23T12:09:53Z</time></trkpt><trkpt lat="45.93485808653036" lon="12.467854847855513"><ele>29.0</ele><time>2026-03-23T12:09:54Z</time></trkpt><trkpt lat="45.93472356260065" lon="12.468011212893154"><ele>29.666666666666664</ele><time>2026-03-23T12:09:55Z</time></trkpt><trkpt lat="45.934592688708136" lon="12.468178819353874"><ele>30.333333333333336</ele><time>2026-03-23T12:09:56Z</time></trkpt><trkpt lat="45.934463347665925" lon="12.468349524771526"><ele>31.0</ele><time>2026-03-23T12:09:57Z</time></trkpt><trkpt lat="45.9343331413671" lon="12.468528070918492"><ele>30.666666666666668</ele><time>2026-03-23T12:09:58Z</time></trkpt><trkpt lat="45.93420599175966" lon="12.468713958407161"><ele>30.333333333333336</ele><time>2026-03-23T12:09:59Z</time></trkpt><trkpt lat="45.93408118957553" lon="12.46890753832268"><ele>30.0</ele><time>2026-03-23T12:10:00Z</time></trkpt><trkpt lat="45.93395861638027" lon="12.469109034686074"><ele>29.333333333333336</ele><time>2026-03-23T12:10:01Z</time></trkpt><trkpt lat="45.933833657185" lon="12.469310238135304"><ele>28.666666666666668</ele><time>2026-03-23T12:10:02Z</time></trkpt><trkpt lat="45.93370569805695" lon="12.4695143450011"><ele>28.0</ele><time>2026-03-23T12:10:03Z</time></trkpt><trkpt lat="45.93357901497219" lon="12.469714763047877"><ele>27.666666666666668</ele><time>2026-03-23T12:10:04Z</time></trkpt><trkpt lat="45.933450691893405" lon="12.469921937752583"><ele>27.333333333333336</ele><time>2026-03-23T12:10:05Z</time></trkpt><trkpt lat="45.93332171647805" lon="12.47012766135633"><ele>27.0</ele><time>2026-03-23T12:10:06Z</time></trkpt><trkpt lat="45.933190911496794" lon="12.470337594808552"><ele>28.333333333333336</ele><time>2026-03-23T12:10:07Z</time></trkpt><trkpt lat="45.933061138134995" lon="12.470544379931589"><ele>29.666666666666668</ele><time>2026-03-23T12:10:08Z</time></trkpt><trkpt lat="45.932929380484474" lon="12.470759742201942"><ele>31.0</ele><time>2026-03-23T12:10:09Z</time></trkpt><trkpt lat="45.93280094677777" lon="12.470974798563846"><ele>31.0</ele><time>2026-03-23T12:10:10Z</time></trkpt><trkpt lat="45.93268079336994" lon="12.47119419278647"><ele>31.0</ele><time>2026-03-23T12:10:11Z</time></trkpt><trkpt lat="45.93256760974307" lon="12.471407933476316"><ele>31.0</ele><time>2026-03-23T12:10:12Z</time></trkpt><trkpt lat="45.932461047069886" lon="12.471632603224736"><ele>30.666666666666668</ele><time>2026-03-23T12:10:13Z</time></trkpt><trkpt lat="45.932358619987255" lon="12.471866286555603"><ele>30.333333333333336</ele><time>2026-03-23T12:10:14Z</time></trkpt><trkpt lat="45.93226206716904" lon="12.47210679820815"><ele>30.0</ele><time>2026-03-23T12:10:15Z</time></trkpt><trkpt lat="45.932171335653955" lon="12.472352557125369"><ele>30.0</ele><time>2026-03-23T12:10:16Z</time></trkpt><trkpt lat="45.93208498193159" lon="12.472602409846601"><ele>30.0</ele><time>2026-03-23T12:10:17Z</time></trkpt><trkpt lat="45.93200552259669" lon="12.47286086180534"><ele>30.0</ele><time>2026-03-23T12:10:18Z</time></trkpt><trkpt lat="45.93192987325492" lon="12.473120410060567"><ele>29.666666666666664</ele><time>2026-03-23T12:10:19Z</time></trkpt><trkpt lat="45.93185178972285" lon="12.473384430610148"><ele>29.333333333333332</ele><time>2026-03-23T12:10:20Z</time></trkpt><trkpt lat="45.93177504531015" lon="12.47364717664312"><ele>29.0</ele><time>2026-03-23T12:10:21Z</time></trkpt><trkpt lat="45.9316989391928" lon="12.473914584108924"><ele>29.0</ele><time>2026-03-23T12:10:22Z</time></trkpt><trkpt lat="45.931620035860334" lon="12.474184722270204"><ele>29.0</ele><time>2026-03-23T12:10:23Z</time></trkpt><trkpt lat="45.93153969063717" lon="12.474455345239182"><ele>29.0</ele><time>2026-03-23T12:10:24Z</time></trkpt><trkpt lat="45.93145743918677" lon="12.47472752646731"><ele>28.666666666666664</ele><time>2026-03-23T12:10:25Z</time></trkpt><trkpt lat="45.93137672524497" lon="12.475003653547937"><ele>28.333333333333336</ele><time>2026-03-23T12:10:26Z</time></trkpt><trkpt lat="45.931295474350826" lon="12.475277780178141"><ele>28.0</ele><time>2026-03-23T12:10:27Z</time></trkpt><trkpt lat="45.931211861845306" lon="12.475551990908594"><ele>27.666666666666668</ele><time>2026-03-23T12:10:28Z</time></trkpt><trkpt lat="45.931124428203084" lon="12.475825417028409"><ele>27.333333333333336</ele><time>2026-03-23T12:10:29Z</time></trkpt><trkpt lat="45.93103714074419" lon="12.476095221360646"><ele>27.0</ele><time>2026-03-23T12:10:30Z</time></trkpt><trkpt lat="45.93094747088667" lon="12.476366503606519"><ele>27.0</ele><time>2026-03-23T12:10:31Z</time></trkpt><trkpt lat="45.930857639147916" lon="12.476637918817401"><ele>27.0</ele><time>2026-03-23T12:10:32Z</time></trkpt><trkpt lat="45.93076970606531" lon="12.47691051127554"><ele>27.0</ele><time>2026-03-23T12:10:33Z</time></trkpt><trkpt lat="45.93068473793354" lon="12.477177713472665"><ele>27.0</ele><time>2026-03-23T12:10:34Z</time></trkpt><trkpt lat="45.930600155363045" lon="12.47744619211092"><ele>27.0</ele><time>2026-03-23T12:10:35Z</time></trkpt><trkpt lat="45.93051764190914" lon="12.477709423261613"><ele>27.0</ele><time>2026-03-23T12:10:36Z</time></trkpt><trkpt lat="45.930432454189365" lon="12.477973817679077"><ele>26.333333333333336</ele><time>2026-03-23T12:10:37Z</time></trkpt><trkpt lat="45.93035114020621" lon="12.478242264712359"><ele>25.666666666666668</ele><time>2026-03-23T12:10:38Z</time></trkpt><trkpt lat="45.93028801355843" lon="12.47851242231034"><ele>25.0</ele><time>2026-03-23T12:10:39Z</time></trkpt><trkpt lat="45.9302441428624" lon="12.478787201711414"><ele>25.0</ele><time>2026-03-23T12:10:40Z</time></trkpt><trkpt lat="45.930215280580285" lon="12.479064459694795"><ele>25.0</ele><time>2026-03-23T12:10:41Z</time></trkpt><trkpt lat="45.93019960916067" lon="12.479343972229627"><ele>25.0</ele><time>2026-03-23T12:10:42Z</time></trkpt><trkpt lat="45.9301991093042" lon="12.479623048764951"><ele>26.0</ele><time>2026-03-23T12:10:43Z</time></trkpt><trkpt lat="45.93020636632509" lon="12.479903029329142"><ele>27.0</ele><time>2026-03-23T12:10:44Z</time></trkpt><trkpt lat="45.930212506935774" lon="12.480184606893328"><ele>28.0</ele><time>2026-03-23T12:10:45Z</time></trkpt><trkpt lat="45.93021849871615" lon="12.480468460777908"><ele>29.666666666666668</ele><time>2026-03-23T12:10:46Z</time></trkpt><trkpt lat="45.93022399100206" lon="12.48075393194877"><ele>31.333333333333336</ele><time>2026-03-23T12:10:47Z</time></trkpt><trkpt lat="45.930231609459575" lon="12.481038994528722"><ele>33.0</ele><time>2026-03-23T12:10:48Z</time></trkpt><trkpt lat="45.93023872726454" lon="12.481321633460674"><ele>33.333333333333336</ele><time>2026-03-23T12:10:49Z</time></trkpt><trkpt lat="45.93024807506264" lon="12.481600810787391"><ele>33.66666666666667</ele><time>2026-03-23T12:10:50Z</time></trkpt><trkpt lat="45.93025810546693" lon="12.481877447663289"><ele>34.0</ele><time>2026-03-23T12:10:51Z</time></trkpt><trkpt lat="45.93026777759334" lon="12.482150233213618"><ele>33.333333333333336</ele><time>2026-03-23T12:10:52Z</time></trkpt><trkpt lat="45.930274709329694" lon="12.482422691419696"><ele>32.666666666666664</ele><time>2026-03-23T12:10:53Z</time></trkpt><trkpt lat="45.93028005726441" lon="12.482687752342299"><ele>32.0</ele><time>2026-03-23T12:10:54Z</time></trkpt><trkpt lat="45.93028723692999" lon="12.4829500967231"><ele>29.666666666666664</ele><time>2026-03-23T12:10:55Z</time></trkpt><trkpt lat="45.93029399887195" lon="12.483209556456913"><ele>27.333333333333336</ele><time>2026-03-23T12:10:56Z</time></trkpt><trkpt lat="45.93029631380253" lon="12.48346584894359"><ele>25.0</ele><time>2026-03-23T12:10:57Z</time></trkpt><trkpt lat="45.9302885204886" lon="12.483718154831807"><ele>24.0</ele><time>2026-03-23T12:10:58Z</time></trkpt><trkpt lat="45.93026518069797" lon="12.483964893999147"><ele>23.0</ele><time>2026-03-23T12:10:59Z</time></trkpt><trkpt lat="45.930225821169955" lon="12.484205911321338"><ele>22.0</ele><time>2026-03-23T12:11:00Z</time></trkpt><trkpt lat="45.93017776061744" lon="12.484424210755451"><ele>22.0</ele><time>2026-03-23T12:11:01Z</time></trkpt><trkpt lat="45.9301288106757" lon="12.484629198300158"><ele>22.0</ele><time>2026-03-23T12:11:02Z</time></trkpt><trkpt lat="45.9300784271175" lon="12.484830152966824"><ele>22.0</ele><time>2026-03-23T12:11:03Z</time></trkpt><trkpt lat="45.93002576533803" lon="12.485038642256765"><ele>21.666666666666664</ele><time>2026-03-23T12:11:04Z</time></trkpt><trkpt lat="45.929976833461126" lon="12.48524937452378"><ele>21.333333333333332</ele><time>2026-03-23T12:11:05Z</time></trkpt><trkpt lat="45.92993239949369" lon="12.48546558851608"><ele>21.0</ele><time>2026-03-23T12:11:06Z</time></trkpt><trkpt lat="45.929887288314305" lon="12.48568228977908"><ele>20.666666666666668</ele><time>2026-03-23T12:11:07Z</time></trkpt><trkpt lat="45.92983823229339" lon="12.48589742649247"><ele>20.333333333333336</ele><time>2026-03-23T12:11:08Z</time></trkpt><trkpt lat="45.92979260695103" lon="12.486114636158408"><ele>20.0</ele><time>2026-03-23T12:11:09Z</time></trkpt><trkpt lat="45.929756012194574" lon="12.48633427093407"><ele>20.666666666666668</ele><time>2026-03-23T12:11:10.001Z</time></trkpt><trkpt lat="45.929730149317436" lon="12.486558689495272"><ele>21.333333333333332</ele><time>2026-03-23T12:11:11.001Z</time></trkpt><trkpt lat="45.92971350262305" lon="12.486780932886147"><ele>22.0</ele><time>2026-03-23T12:11:12.001Z</time></trkpt><trkpt lat="45.92970191126184" lon="12.4870054020015"><ele>23.0</ele><time>2026-03-23T12:11:13.001Z</time></trkpt><trkpt lat="45.92969666328424" lon="12.487231837680183"><ele>24.0</ele><time>2026-03-23T12:11:14.001Z</time></trkpt><trkpt lat="45.92969024064793" lon="12.487458365891108"><ele>25.0</ele><time>2026-03-23T12:11:15.001Z</time></trkpt><trkpt lat="45.92968124154015" lon="12.4876845255558"><ele>25.0</ele><time>2026-03-23T12:11:16.001Z</time></trkpt><trkpt lat="45.92966768761527" lon="12.487911718507695"><ele>25.0</ele><time>2026-03-23T12:11:17.001Z</time></trkpt><trkpt lat="45.92964329101153" lon="12.488138690193493"><ele>25.0</ele><time>2026-03-23T12:11:17.999Z</time></trkpt><trkpt lat="45.92960999181241" lon="12.48836300725055"><ele>25.0</ele><time>2026-03-23T12:11:18.999Z</time></trkpt><trkpt lat="45.929565396805614" lon="12.488586499644747"><ele>25.0</ele><time>2026-03-23T12:11:19.999Z</time></trkpt><trkpt lat="45.92950730337912" lon="12.488804364322904"><ele>25.0</ele><time>2026-03-23T12:11:20.999Z</time></trkpt><trkpt lat="45.92943546758605" lon="12.489012290866425"><ele>25.0</ele><time>2026-03-23T12:11:21.999Z</time></trkpt><trkpt lat="45.929351764309935" lon="12.489217463199433"><ele>25.0</ele><time>2026-03-23T12:11:22.999Z</time></trkpt><trkpt lat="45.92926223314075" lon="12.489418684083956"><ele>25.0</ele><time>2026-03-23T12:11:23.999Z</time></trkpt><trkpt lat="45.92916950098965" lon="12.48962037500433"><ele>25.0</ele><time>2026-03-23T12:11:24.999Z</time></trkpt><trkpt lat="45.92907687437097" lon="12.489825532217377"><ele>25.0</ele><time>2026-03-23T12:11:26Z</time></trkpt><trkpt lat="45.92898383143222" lon="12.49003369575551"><ele>25.0</ele><time>2026-03-23T12:11:27Z</time></trkpt><trkpt lat="45.92888850214266" lon="12.490243727168062"><ele>24.333333333333336</ele><time>2026-03-23T12:11:28Z</time></trkpt><trkpt lat="45.92879474536468" lon="12.490453004941683"><ele>23.666666666666668</ele><time>2026-03-23T12:11:29Z</time></trkpt><trkpt lat="45.92869936653624" lon="12.490660207741865"><ele>23.0</ele><time>2026-03-23T12:11:30Z</time></trkpt><trkpt lat="45.92860205366319" lon="12.490867404287277"><ele>23.0</ele><time>2026-03-23T12:11:31Z</time></trkpt><trkpt lat="45.92850276138146" lon="12.491071437017284"><ele>23.0</ele><time>2026-03-23T12:11:32Z</time></trkpt><trkpt lat="45.92840356850324" lon="12.491277285279558"><ele>23.0</ele><time>2026-03-23T12:11:33Z</time></trkpt><trkpt lat="45.92830538318357" lon="12.491485258049162"><ele>23.0</ele><time>2026-03-23T12:11:34Z</time></trkpt><trkpt lat="45.92820769871455" lon="12.491691815964332"><ele>23.0</ele><time>2026-03-23T12:11:35Z</time></trkpt><trkpt lat="45.92810903536744" lon="12.491897628630234"><ele>23.0</ele><time>2026-03-23T12:11:36Z</time></trkpt><trkpt lat="45.9280106405031" lon="12.492102341730256"><ele>23.0</ele><time>2026-03-23T12:11:37Z</time></trkpt><trkpt lat="45.927912025053054" lon="12.49230957096382"><ele>23.0</ele><time>2026-03-23T12:11:38Z</time></trkpt><trkpt lat="45.92781460394588" lon="12.492515396545452"><ele>23.0</ele><time>2026-03-23T12:11:39Z</time></trkpt><trkpt lat="45.92771690932039" lon="12.49272192102757"><ele>22.666666666666668</ele><time>2026-03-23T12:11:40Z</time></trkpt><trkpt lat="45.927620036016876" lon="12.492926083834586"><ele>22.333333333333332</ele><time>2026-03-23T12:11:41Z</time></trkpt><trkpt lat="45.92752141597573" lon="12.493130187554934"><ele>22.0</ele><time>2026-03-23T12:11:42Z</time></trkpt><trkpt lat="45.92742329153466" lon="12.493333762910355"><ele>22.0</ele><time>2026-03-23T12:11:43Z</time></trkpt><trkpt lat="45.92732678089747" lon="12.493536213662471"><ele>22.0</ele><time>2026-03-23T12:11:44Z</time></trkpt><trkpt lat="45.92723199509462" lon="12.493741924681347"><ele>22.0</ele><time>2026-03-23T12:11:45Z</time></trkpt><trkpt lat="45.927141993418125" lon="12.493951686543278"><ele>21.333333333333332</ele><time>2026-03-23T12:11:46Z</time></trkpt><trkpt lat="45.92705945694235" lon="12.494168366257966"><ele>20.666666666666668</ele><time>2026-03-23T12:11:47Z</time></trkpt><trkpt lat="45.92698236509102" lon="12.49438731417311"><ele>20.0</ele><time>2026-03-23T12:11:48Z</time></trkpt><trkpt lat="45.92690850509414" lon="12.49461021421784"><ele>20.0</ele><time>2026-03-23T12:11:49Z</time></trkpt><trkpt lat="45.92684108471843" lon="12.49483758752948"><ele>20.0</ele><time>2026-03-23T12:11:50Z</time></trkpt><trkpt lat="45.9267777594242" lon="12.495067581102022"><ele>20.0</ele><time>2026-03-23T12:11:51Z</time></trkpt><trkpt lat="45.92671914324821" lon="12.495300850339973"><ele>21.0</ele><time>2026-03-23T12:11:52Z</time></trkpt><trkpt lat="45.926661442597144" lon="12.495530189501485"><ele>22.0</ele><time>2026-03-23T12:11:53Z</time></trkpt><trkpt lat="45.92660511707756" lon="12.49575913348929"><ele>23.0</ele><time>2026-03-23T12:11:54Z</time></trkpt><trkpt lat="45.92654953430272" lon="12.49598821869532"><ele>23.0</ele><time>2026-03-23T12:11:55Z</time></trkpt><trkpt lat="45.9264942271345" lon="12.496217330120817"><ele>23.0</ele><time>2026-03-23T12:11:56Z</time></trkpt><trkpt lat="45.926439516297826" lon="12.49645391260026"><ele>23.0</ele><time>2026-03-23T12:11:57Z</time></trkpt><trkpt lat="45.92638019713362" lon="12.496690233803994"><ele>22.333333333333336</ele><time>2026-03-23T12:11:58Z</time></trkpt><trkpt lat="45.92634148613386" lon="12.496927519138865"><ele>21.666666666666668</ele><time>2026-03-23T12:11:59Z</time></trkpt><trkpt lat="45.92631875991279" lon="12.49716036342706"><ele>21.0</ele><time>2026-03-23T12:12:00Z</time></trkpt><trkpt lat="45.926306682878796" lon="12.497392213895369"><ele>20.666666666666668</ele><time>2026-03-23T12:12:01Z</time></trkpt><trkpt lat="45.92630450197307" lon="12.497621645265793"><ele>20.333333333333336</ele><time>2026-03-23T12:12:02Z</time></trkpt><trkpt lat="45.92631128412178" lon="12.49784909200901"><ele>20.0</ele><time>2026-03-23T12:12:03Z</time></trkpt><trkpt lat="45.926315654802515" lon="12.498061391115982"><ele>19.5</ele><time>2026-03-23T12:12:04Z</time></trkpt><trkpt lat="45.92631441311674" lon="12.498260061197199"><ele>19.0</ele><time>2026-03-23T12:12:05Z</time></trkpt><trkpt lat="45.926303312747194" lon="12.498440174268476"><ele>18.5</ele><time>2026-03-23T12:12:06Z</time></trkpt><trkpt lat="45.92627780803667" lon="12.498614357845648"><ele>18.0</ele><time>2026-03-23T12:12:07Z</time></trkpt><trkpt lat="45.92623872412123" lon="12.498773856700883"><ele>18.0</ele><time>2026-03-23T12:12:08Z</time></trkpt><trkpt lat="45.926192825232086" lon="12.498925008301418"><ele>18.0</ele><time>2026-03-23T12:12:09Z</time></trkpt><trkpt lat="45.9261422580895" lon="12.499059370507442"><ele>18.0</ele><time>2026-03-23T12:12:10Z</time></trkpt><trkpt lat="45.92608678729756" lon="12.499179407064041"><ele>18.0</ele><time>2026-03-23T12:12:11Z</time></trkpt><trkpt lat="45.92602685458086" lon="12.499287788023254"><ele>18.0</ele><time>2026-03-23T12:12:12Z</time></trkpt><trkpt lat="45.925963981966554" lon="12.499370516509234"><ele>18.5</ele><time>2026-03-23T12:12:13Z</time></trkpt><trkpt lat="45.9258926990159" lon="12.49942162071837"><ele>19.0</ele><time>2026-03-23T12:12:14Z</time></trkpt><trkpt lat="45.92582211456487" lon="12.499439609982227"><ele>19.5</ele><time>2026-03-23T12:12:15Z</time></trkpt><trkpt lat="45.92574757011853" lon="12.499412982116464"><ele>20.0</ele><time>2026-03-23T12:12:16Z</time></trkpt><trkpt lat="45.9256753407483" lon="12.499344977897566"><ele>20.5</ele><time>2026-03-23T12:12:17Z</time></trkpt><trkpt lat="45.92562843096486" lon="12.499240834320158"><ele>21.0</ele><time>2026-03-23T12:12:18Z</time></trkpt><trkpt lat="45.925591677891674" lon="12.499066739128034"><ele>21.0</ele><time>2026-03-23T12:12:19Z</time></trkpt><trkpt lat="45.92555566656932" lon="12.498822108803454"><ele>21.0</ele><time>2026-03-23T12:12:20Z</time></trkpt><trkpt lat="45.925525518575746" lon="12.498511157139164"><ele>21.0</ele><time>2026-03-23T12:12:21Z</time></trkpt><trkpt lat="45.925492121600875" lon="12.498150396815262"><ele>20.0</ele><time>2026-03-23T12:12:22Z</time></trkpt><trkpt lat="45.92545207173731" lon="12.497773167864187"><ele>19.0</ele><time>2026-03-23T12:12:23Z</time></trkpt><trkpt lat="45.92540413388518" lon="12.497363917202001"><ele>19.0</ele><time>2026-03-23T12:12:24Z</time></trkpt><trkpt lat="45.92536288430488" lon="12.496986466210224"><ele>19.0</ele><time>2026-03-23T12:12:25Z</time></trkpt><trkpt lat="45.925326559819744" lon="12.496650608408535"><ele>19.0</ele><time>2026-03-23T12:12:26Z</time></trkpt><trkpt lat="45.925288064928985" lon="12.496325112014777"><ele>19.0</ele><time>2026-03-23T12:12:27Z</time></trkpt><trkpt lat="45.92525141586926" lon="12.496032395094785"><ele>19.0</ele><time>2026-03-23T12:12:28Z</time></trkpt><trkpt lat="45.92522084529575" lon="12.495756518440176"><ele>18.666666666666664</ele><time>2026-03-23T12:12:29Z</time></trkpt><trkpt lat="45.92521396046865" lon="12.495508212828383"><ele>18.333333333333332</ele><time>2026-03-23T12:12:30Z</time></trkpt><trkpt lat="45.925232576442646" lon="12.495287392482098"><ele>18.0</ele><time>2026-03-23T12:12:31Z</time></trkpt><trkpt lat="45.92527077264768" lon="12.495087250223161"><ele>18.5</ele><time>2026-03-23T12:12:32Z</time></trkpt><trkpt lat="45.92532941272178" lon="12.494913321932268"><ele>19.0</ele><time>2026-03-23T12:12:33Z</time></trkpt><trkpt lat="45.925416422398335" lon="12.494771269506904"><ele>19.5</ele><time>2026-03-23T12:12:34Z</time></trkpt><trkpt lat="45.925515532876176" lon="12.494660869864704"><ele>20.0</ele><time>2026-03-23T12:12:35Z</time></trkpt><trkpt lat="45.92562187334027" lon="12.494592637830394"><ele>20.25</ele><time>2026-03-23T12:12:36Z</time></trkpt><trkpt lat="45.925736688252414" lon="12.494554973007114"><ele>20.5</ele><time>2026-03-23T12:12:37Z</time></trkpt><trkpt lat="45.92585703077992" lon="12.494562111574197"><ele>20.75</ele><time>2026-03-23T12:12:38Z</time></trkpt><trkpt lat="45.92598604887412" lon="12.49460141000625"><ele>21.0</ele><time>2026-03-23T12:12:39Z</time></trkpt><trkpt lat="45.926106477288904" lon="12.494680368617562"><ele>21.666666666666668</ele><time>2026-03-23T12:12:40Z</time></trkpt><trkpt lat="45.92622393239653" lon="12.494809734535645"><ele>22.333333333333336</ele><time>2026-03-23T12:12:41Z</time></trkpt><trkpt lat="45.9263264027262" lon="12.494969466136997"><ele>23.0</ele><time>2026-03-23T12:12:42Z</time></trkpt><trkpt lat="45.9264218255155" lon="12.495178075094671"><ele>23.0</ele><time>2026-03-23T12:12:43Z</time></trkpt><trkpt lat="45.92649240325857" lon="12.495405286922562"><ele>23.0</ele><time>2026-03-23T12:12:44Z</time></trkpt><trkpt lat="45.9265517125246" lon="12.495681121916775"><ele>23.0</ele><time>2026-03-23T12:12:45Z</time></trkpt><trkpt lat="45.92661028970559" lon="12.496000029387593"><ele>22.0</ele><time>2026-03-23T12:12:46Z</time></trkpt><trkpt lat="45.92666434792159" lon="12.496333976366964"><ele>21.0</ele><time>2026-03-23T12:12:47Z</time></trkpt><trkpt lat="45.926726240782365" lon="12.496700962937659"><ele>20.5</ele><time>2026-03-23T12:12:48Z</time></trkpt><trkpt lat="45.92679423232994" lon="12.49708995065909"><ele>20.0</ele><time>2026-03-23T12:12:49Z</time></trkpt><trkpt lat="45.926860020584584" lon="12.497494494963163"><ele>20.0</ele><time>2026-03-23T12:12:50Z</time></trkpt><trkpt lat="45.92691967610588" lon="12.497904700137047"><ele>20.0</ele><time>2026-03-23T12:12:51Z</time></trkpt><trkpt lat="45.926976892113295" lon="12.498333666176862"><ele>18.5</ele><time>2026-03-23T12:12:52Z</time></trkpt><trkpt lat="45.927032826660415" lon="12.498776977204729"><ele>17.0</ele><time>2026-03-23T12:12:53Z</time></trkpt><trkpt lat="45.92708744313072" lon="12.49923343021607"><ele>15.5</ele><time>2026-03-23T12:12:54Z</time></trkpt><trkpt lat="45.92713866177785" lon="12.499702582780804"><ele>14.0</ele><time>2026-03-23T12:12:55Z</time></trkpt><trkpt lat="45.92718375267381" lon="12.500177039727562"><ele>15.5</ele><time>2026-03-23T12:12:56.001Z</time></trkpt><trkpt lat="45.92722864958061" lon="12.500655639911685"><ele>17.0</ele><time>2026-03-23T12:12:57.001Z</time></trkpt><trkpt lat="45.927273499629436" lon="12.501139875043355"><ele>17.0</ele><time>2026-03-23T12:12:58.001Z</time></trkpt><trkpt lat="45.927321200750995" lon="12.501628931864689"><ele>17.0</ele><time>2026-03-23T12:12:59.001Z</time></trkpt><trkpt lat="45.927362330881024" lon="12.502125366683806"><ele>17.0</ele><time>2026-03-23T12:13:00.001Z</time></trkpt><trkpt lat="45.92740356555888" lon="12.502625669362306"><ele>17.0</ele><time>2026-03-23T12:13:01.001Z</time></trkpt><trkpt lat="45.927443099741666" lon="12.503127088234363"><ele>18.0</ele><time>2026-03-23T12:13:02.001Z</time></trkpt><trkpt lat="45.92748308321313" lon="12.503624996777566"><ele>19.0</ele><time>2026-03-23T12:13:03.001Z</time></trkpt><trkpt lat="45.92752086713591" lon="12.504120093897164"><ele>19.0</ele><time>2026-03-23T12:13:04.001Z</time></trkpt><trkpt lat="45.927558732389365" lon="12.50461685521562"><ele>19.0</ele><time>2026-03-23T12:13:05.001Z</time></trkpt><trkpt lat="45.92759765248611" lon="12.505116462448324"><ele>18.5</ele><time>2026-03-23T12:13:06.001Z</time></trkpt><trkpt lat="45.92763978218389" lon="12.50561582361781"><ele>18.0</ele><time>2026-03-23T12:13:07.001Z</time></trkpt><trkpt lat="45.92768836964984" lon="12.506108405898887"><ele>17.5</ele><time>2026-03-23T12:13:08.001Z</time></trkpt><trkpt lat="45.927734843074575" lon="12.506589483703506"><ele>17.0</ele><time>2026-03-23T12:13:09.001Z</time></trkpt><trkpt lat="45.92777752932777" lon="12.507073590584735"><ele>16.5</ele><time>2026-03-23T12:13:10.001Z</time></trkpt><trkpt lat="45.927819489197844" lon="12.507550485492127"><ele>16.0</ele><time>2026-03-23T12:13:11.001Z</time></trkpt><trkpt lat="45.927860863144424" lon="12.50802200748746"><ele>17.0</ele><time>2026-03-23T12:13:12.001Z</time></trkpt><trkpt lat="45.92790543833757" lon="12.508489002571967"><ele>18.0</ele><time>2026-03-23T12:13:13.001Z</time></trkpt><trkpt lat="45.92795476715138" lon="12.508954225526256"><ele>18.0</ele><time>2026-03-23T12:13:14.001Z</time></trkpt><trkpt lat="45.9280105351061" lon="12.50941326565674"><ele>18.0</ele><time>2026-03-23T12:13:15.001Z</time></trkpt><trkpt lat="45.9280774290313" lon="12.509868986969204"><ele>17.0</ele><time>2026-03-23T12:13:16.001Z</time></trkpt><trkpt lat="45.92815522046643" lon="12.510320202652922"><ele>16.0</ele><time>2026-03-23T12:13:17.001Z</time></trkpt><trkpt lat="45.92822554888818" lon="12.510736239011685"><ele>16.0</ele><time>2026-03-23T12:13:18.001Z</time></trkpt><trkpt lat="45.928323892485125" lon="12.511157594953126"><ele>16.0</ele><time>2026-03-23T12:13:19.001Z</time></trkpt><trkpt lat="45.92842824468526" lon="12.511584482227168"><ele>16.0</ele><time>2026-03-23T12:13:20.001Z</time></trkpt><trkpt lat="45.92855032057207" lon="12.512011829308033"><ele>16.0</ele><time>2026-03-23T12:13:21.001Z</time></trkpt><trkpt lat="45.92867620271791" lon="12.51242009061685"><ele>16.5</ele><time>2026-03-23T12:13:22.001Z</time></trkpt><trkpt lat="45.92881726310939" lon="12.512815267408381"><ele>17.0</ele><time>2026-03-23T12:13:23.001Z</time></trkpt><trkpt lat="45.928966313017625" lon="12.513202961763982"><ele>17.0</ele><time>2026-03-23T12:13:24Z</time></trkpt><trkpt lat="45.92912613891091" lon="12.513592383689986"><ele>17.0</ele><time>2026-03-23T12:13:25Z</time></trkpt><trkpt lat="45.929295509316574" lon="12.51397712774131"><ele>17.0</ele><time>2026-03-23T12:13:26Z</time></trkpt><trkpt lat="45.929479897541604" lon="12.514355393153775"><ele>17.0</ele><time>2026-03-23T12:13:27Z</time></trkpt><trkpt lat="45.929681382013996" lon="12.514735326459839"><ele>18.0</ele><time>2026-03-23T12:13:28Z</time></trkpt><trkpt lat="45.9298998022157" lon="12.51511840929177"><ele>19.0</ele><time>2026-03-23T12:13:29Z</time></trkpt><trkpt lat="45.93012316069809" lon="12.515511224695365"><ele>19.0</ele><time>2026-03-23T12:13:30Z</time></trkpt><trkpt lat="45.9303636536897" lon="12.515905040707409"><ele>19.0</ele><time>2026-03-23T12:13:31Z</time></trkpt><trkpt lat="45.930604392817465" lon="12.516295031310632"><ele>19.5</ele><time>2026-03-23T12:13:32Z</time></trkpt><trkpt lat="45.930848481431994" lon="12.51667468136013"><ele>20.0</ele><time>2026-03-23T12:13:33Z</time></trkpt><trkpt lat="45.931101776471685" lon="12.517049150704073"><ele>20.0</ele><time>2026-03-23T12:13:34Z</time></trkpt><trkpt lat="45.93135157267242" lon="12.517423659758105"><ele>20.0</ele><time>2026-03-23T12:13:35Z</time></trkpt><trkpt lat="45.93160257660542" lon="12.51779256734695"><ele>18.5</ele><time>2026-03-23T12:13:36Z</time></trkpt><trkpt lat="45.93185257303948" lon="12.51816819914704"><ele>17.0</ele><time>2026-03-23T12:13:37Z</time></trkpt><trkpt lat="45.93209799315733" lon="12.518542744009316"><ele>18.0</ele><time>2026-03-23T12:13:38Z</time></trkpt><trkpt lat="45.932344194875974" lon="12.51892351447655"><ele>19.0</ele><time>2026-03-23T12:13:39Z</time></trkpt><trkpt lat="45.93259729313377" lon="12.519297701770258"><ele>19.0</ele><time>2026-03-23T12:13:40Z</time></trkpt><trkpt lat="45.93284499066826" lon="12.519667834741314"><ele>19.0</ele><time>2026-03-23T12:13:41Z</time></trkpt><trkpt lat="45.933094846645716" lon="12.520039303596848"><ele>19.0</ele><time>2026-03-23T12:13:42Z</time></trkpt><trkpt lat="45.93334157676959" lon="12.520407913762114"><ele>19.0</ele><time>2026-03-23T12:13:43Z</time></trkpt><trkpt lat="45.93358598787122" lon="12.520772294231149"><ele>19.0</ele><time>2026-03-23T12:13:44Z</time></trkpt><trkpt lat="45.93382942288006" lon="12.521134729802787"><ele>19.0</ele><time>2026-03-23T12:13:45Z</time></trkpt><trkpt lat="45.93407426794821" lon="12.521494877646798"><ele>19.0</ele><time>2026-03-23T12:13:46Z</time></trkpt><trkpt lat="45.93431849191647" lon="12.521857707120478"><ele>19.0</ele><time>2026-03-23T12:13:47Z</time></trkpt><trkpt lat="45.934562014617406" lon="12.522221857105384"><ele>19.0</ele><time>2026-03-23T12:13:48Z</time></trkpt><trkpt lat="45.93481114562686" lon="12.522580726660234"><ele>19.0</ele><time>2026-03-23T12:13:49Z</time></trkpt><trkpt lat="45.93504665759283" lon="12.522934516848341"><ele>19.0</ele><time>2026-03-23T12:13:50Z</time></trkpt><trkpt lat="45.93528837065254" lon="12.523284060305226"><ele>19.0</ele><time>2026-03-23T12:13:51Z</time></trkpt><trkpt lat="45.9355269887775" lon="12.523634416625871"><ele>19.5</ele><time>2026-03-23T12:13:52Z</time></trkpt><trkpt lat="45.9357623364912" lon="12.523989875398325"><ele>20.0</ele><time>2026-03-23T12:13:53Z</time></trkpt><trkpt lat="45.935996211500424" lon="12.524345375289482"><ele>19.0</ele><time>2026-03-23T12:13:54Z</time></trkpt><trkpt lat="45.93623139181096" lon="12.524697999295235"><ele>18.0</ele><time>2026-03-23T12:13:55Z</time></trkpt><trkpt lat="45.93646666839517" lon="12.525046834794736"><ele>19.5</ele><time>2026-03-23T12:13:56Z</time></trkpt><trkpt lat="45.936700531445034" lon="12.525396542258623"><ele>21.0</ele><time>2026-03-23T12:13:57Z</time></trkpt><trkpt lat="45.93693193446766" lon="12.525743608611235"><ele>21.0</ele><time>2026-03-23T12:13:58Z</time></trkpt><trkpt lat="45.937161860494186" lon="12.526090084405658"><ele>21.0</ele><time>2026-03-23T12:13:59Z</time></trkpt><trkpt lat="45.93739098049693" lon="12.526431147001855"><ele>22.0</ele><time>2026-03-23T12:14:00Z</time></trkpt><trkpt lat="45.93761612539893" lon="12.526778513492344"><ele>23.0</ele><time>2026-03-23T12:14:01Z</time></trkpt><trkpt lat="45.937843437484425" lon="12.527125142902005"><ele>23.0</ele><time>2026-03-23T12:14:02Z</time></trkpt><trkpt lat="45.938065169515994" lon="12.527473884562106"><ele>23.0</ele><time>2026-03-23T12:14:03Z</time></trkpt><trkpt lat="45.93827989249279" lon="12.527826302984863"><ele>22.0</ele><time>2026-03-23T12:14:04Z</time></trkpt><trkpt lat="45.93849294575886" lon="12.52818762755759"><ele>21.0</ele><time>2026-03-23T12:14:05Z</time></trkpt><trkpt lat="45.938690207587456" lon="12.528557089283844"><ele>22.5</ele><time>2026-03-23T12:14:06Z</time></trkpt><trkpt lat="45.938885760030914" lon="12.52892874047734"><ele>24.0</ele><time>2026-03-23T12:14:07Z</time></trkpt><trkpt lat="45.93908214565239" lon="12.529304100047195"><ele>23.0</ele><time>2026-03-23T12:14:08Z</time></trkpt><trkpt lat="45.93927991789948" lon="12.529679639525563"><ele>22.0</ele><time>2026-03-23T12:14:09Z</time></trkpt><trkpt lat="45.93947658637947" lon="12.53006420011966"><ele>22.0</ele><time>2026-03-23T12:14:10Z</time></trkpt><trkpt lat="45.93966830752055" lon="12.530454620472545"><ele>22.0</ele><time>2026-03-23T12:14:11Z</time></trkpt><trkpt lat="45.93985319705875" lon="12.530851371278068"><ele>22.5</ele><time>2026-03-23T12:14:12Z</time></trkpt><trkpt lat="45.94002790757958" lon="12.531262839414357"><ele>23.0</ele><time>2026-03-23T12:14:13Z</time></trkpt><trkpt lat="45.94019409234355" lon="12.53168060650138"><ele>23.5</ele><time>2026-03-23T12:14:14Z</time></trkpt><trkpt lat="45.940350512343045" lon="12.532107147406867"><ele>24.0</ele><time>2026-03-23T12:14:15Z</time></trkpt><trkpt lat="45.940496202419965" lon="12.532543508476653"><ele>23.0</ele><time>2026-03-23T12:14:16Z</time></trkpt><trkpt lat="45.9406336023617" lon="12.532985715579802"><ele>22.0</ele><time>2026-03-23T12:14:17Z</time></trkpt><trkpt lat="45.940767438396904" lon="12.533431447042513"><ele>24.0</ele><time>2026-03-23T12:14:18Z</time></trkpt><trkpt lat="45.94089622061573" lon="12.533879233919038"><ele>26.0</ele><time>2026-03-23T12:14:19Z</time></trkpt><trkpt lat="45.941009858089544" lon="12.534330088458637"><ele>26.0</ele><time>2026-03-23T12:14:20Z</time></trkpt><trkpt lat="45.941114959314774" lon="12.534784371613824"><ele>26.0</ele><time>2026-03-23T12:14:21Z</time></trkpt><trkpt lat="45.94120869107963" lon="12.535241771517786"><ele>25.0</ele><time>2026-03-23T12:14:22Z</time></trkpt><trkpt lat="45.941291139064724" lon="12.53570252989462"><ele>24.0</ele><time>2026-03-23T12:14:23Z</time></trkpt><trkpt lat="45.94136116896586" lon="12.536165312381726"><ele>25.0</ele><time>2026-03-23T12:14:24Z</time></trkpt><trkpt lat="45.94142697029458" lon="12.53662702735351"><ele>26.0</ele><time>2026-03-23T12:14:25Z</time></trkpt><trkpt lat="45.941486538761254" lon="12.537097274954728"><ele>26.0</ele><time>2026-03-23T12:14:26Z</time></trkpt><trkpt lat="45.94153677970173" lon="12.537567515557859"><ele>26.0</ele><time>2026-03-23T12:14:27Z</time></trkpt><trkpt lat="45.94157728584371" lon="12.538040889328421"><ele>25.0</ele><time>2026-03-23T12:14:28Z</time></trkpt><trkpt lat="45.941606210510294" lon="12.538517588500156"><ele>24.0</ele><time>2026-03-23T12:14:29Z</time></trkpt><trkpt lat="45.94162376853569" lon="12.538996457028281"><ele>24.0</ele><time>2026-03-23T12:14:30Z</time></trkpt><trkpt lat="45.94163239042251" lon="12.53947645037557"><ele>24.0</ele><time>2026-03-23T12:14:31Z</time></trkpt><trkpt lat="45.94163323739454" lon="12.539956976404717"><ele>25.0</ele><time>2026-03-23T12:14:32Z</time></trkpt><trkpt lat="45.941626990038166" lon="12.540436884064595"><ele>26.0</ele><time>2026-03-23T12:14:33Z</time></trkpt><trkpt lat="45.94160943370576" lon="12.540928699010758"><ele>26.0</ele><time>2026-03-23T12:14:34Z</time></trkpt><trkpt lat="45.94158165820299" lon="12.541439285433"><ele>26.0</ele><time>2026-03-23T12:14:35Z</time></trkpt><trkpt lat="45.94154685968721" lon="12.541949823525668"><ele>25.0</ele><time>2026-03-23T12:14:36Z</time></trkpt><trkpt lat="45.94150737815935" lon="12.542445593139682"><ele>24.0</ele><time>2026-03-23T12:14:37Z</time></trkpt><trkpt lat="45.94145857072207" lon="12.5428982155509"><ele>23.5</ele><time>2026-03-23T12:14:38Z</time></trkpt><trkpt lat="45.9413999411143" lon="12.543333962224018"><ele>23.0</ele><time>2026-03-23T12:14:39Z</time></trkpt><trkpt lat="45.941339386125236" lon="12.543773430084288"><ele>23.0</ele><time>2026-03-23T12:14:40Z</time></trkpt><trkpt lat="45.94127309694394" lon="12.544215208456952"><ele>23.0</ele><time>2026-03-23T12:14:41Z</time></trkpt><trkpt lat="45.9412017874669" lon="12.544662504472559"><ele>23.5</ele><time>2026-03-23T12:14:42Z</time></trkpt><trkpt lat="45.94113034469317" lon="12.54511460021485"><ele>24.0</ele><time>2026-03-23T12:14:43Z</time></trkpt><trkpt lat="45.941058361776584" lon="12.54558256027467"><ele>24.0</ele><time>2026-03-23T12:14:44Z</time></trkpt><trkpt lat="45.940983852352446" lon="12.54604859340618"><ele>24.0</ele><time>2026-03-23T12:14:45Z</time></trkpt><trkpt lat="45.940908618447125" lon="12.54651626722274"><ele>23.5</ele><time>2026-03-23T12:14:46Z</time></trkpt><trkpt lat="45.94083256225886" lon="12.546985603669548"><ele>23.0</ele><time>2026-03-23T12:14:47Z</time></trkpt><trkpt lat="45.94075429341468" lon="12.547456821891311"><ele>22.5</ele><time>2026-03-23T12:14:48Z</time></trkpt><trkpt lat="45.94067067952881" lon="12.54793023520689"><ele>22.0</ele><time>2026-03-23T12:14:49Z</time></trkpt><trkpt lat="45.940585943372255" lon="12.548404667419941"><ele>22.5</ele><time>2026-03-23T12:14:50Z</time></trkpt><trkpt lat="45.94050346258027" lon="12.548876126220307"><ele>23.0</ele><time>2026-03-23T12:14:51Z</time></trkpt><trkpt lat="45.94042645479198" lon="12.549345621401615"><ele>22.5</ele><time>2026-03-23T12:14:52Z</time></trkpt><trkpt lat="45.94035522440284" lon="12.549823725087386"><ele>22.0</ele><time>2026-03-23T12:14:53Z</time></trkpt><trkpt lat="45.94029049328874" lon="12.550306687821214"><ele>22.5</ele><time>2026-03-23T12:14:54.001Z</time></trkpt><trkpt lat="45.94023435406593" lon="12.55077738332085"><ele>23.0</ele><time>2026-03-23T12:14:55.001Z</time></trkpt><trkpt lat="45.94018962413932" lon="12.55125096608895"><ele>23.0</ele><time>2026-03-23T12:14:56.001Z</time></trkpt><trkpt lat="45.94015134619076" lon="12.551726495320688"><ele>23.0</ele><time>2026-03-23T12:14:57.001Z</time></trkpt><trkpt lat="45.94012429410397" lon="12.552204874596635"><ele>23.5</ele><time>2026-03-23T12:14:58.001Z</time></trkpt><trkpt lat="45.940106766655006" lon="12.552679135473682"><ele>24.0</ele><time>2026-03-23T12:14:59.001Z</time></trkpt><trkpt lat="45.940103281381944" lon="12.553156161935897"><ele>24.0</ele><time>2026-03-23T12:15:00.001Z</time></trkpt><trkpt lat="45.940111695069255" lon="12.553640695176522"><ele>24.0</ele><time>2026-03-23T12:15:01.001Z</time></trkpt><trkpt lat="45.94012904059295" lon="12.554129567150897"><ele>23.0</ele><time>2026-03-23T12:15:02.001Z</time></trkpt><trkpt lat="45.94016088299263" lon="12.554627564296506"><ele>22.0</ele><time>2026-03-23T12:15:03.001Z</time></trkpt><trkpt lat="45.94020162950025" lon="12.555123719492228"><ele>22.5</ele><time>2026-03-23T12:15:04.001Z</time></trkpt><trkpt lat="45.940258130147946" lon="12.555621212225207"><ele>23.0</ele><time>2026-03-23T12:15:05.001Z</time></trkpt><trkpt lat="45.940325760662354" lon="12.556121557398619"><ele>23.0</ele><time>2026-03-23T12:15:06.001Z</time></trkpt><trkpt lat="45.940404758175156" lon="12.556620657448244"><ele>23.0</ele><time>2026-03-23T12:15:07.001Z</time></trkpt><trkpt lat="45.94049500707256" lon="12.557116316515845"><ele>23.0</ele><time>2026-03-23T12:15:08.001Z</time></trkpt><trkpt lat="45.940598446029504" lon="12.557612400512413"><ele>23.0</ele><time>2026-03-23T12:15:09.001Z</time></trkpt><trkpt lat="45.940712904214166" lon="12.558106219648616"><ele>23.0</ele><time>2026-03-23T12:15:10.001Z</time></trkpt><trkpt lat="45.94082958200248" lon="12.558599654333305"><ele>23.0</ele><time>2026-03-23T12:15:11.001Z</time></trkpt><trkpt lat="45.94094468675238" lon="12.559093393424465"><ele>23.0</ele><time>2026-03-23T12:15:12.001Z</time></trkpt><trkpt lat="45.94106001585583" lon="12.559588532827668"><ele>23.0</ele><time>2026-03-23T12:15:13.001Z</time></trkpt><trkpt lat="45.941180643556756" lon="12.560083993562724"><ele>23.0</ele><time>2026-03-23T12:15:14.001Z</time></trkpt><trkpt lat="45.941303490839246" lon="12.560578519206283"><ele>23.0</ele><time>2026-03-23T12:15:15.001Z</time></trkpt><trkpt lat="45.94142550238351" lon="12.561070916370605"><ele>24.0</ele><time>2026-03-23T12:15:16.001Z</time></trkpt><trkpt lat="45.94154238504487" lon="12.561566318638757"><ele>25.0</ele><time>2026-03-23T12:15:17.001Z</time></trkpt><trkpt lat="45.94165513738798" lon="12.562061923565073"><ele>25.0</ele><time>2026-03-23T12:15:18.001Z</time></trkpt><trkpt lat="45.9417662730484" lon="12.562560506802425"><ele>25.0</ele><time>2026-03-23T12:15:19.001Z</time></trkpt><trkpt lat="45.941879159666236" lon="12.563059240211032"><ele>24.5</ele><time>2026-03-23T12:15:20.001Z</time></trkpt><trkpt lat="45.94199324888514" lon="12.563556069314695"><ele>24.0</ele><time>2026-03-23T12:15:21.001Z</time></trkpt><trkpt lat="45.94211110732313" lon="12.564052691266955"><ele>23.0</ele><time>2026-03-23T12:15:22.001Z</time></trkpt><trkpt lat="45.94223271542439" lon="12.564544656805895"><ele>22.0</ele><time>2026-03-23T12:15:23.001Z</time></trkpt><trkpt lat="45.94235447856026" lon="12.565041757359614"><ele>22.0</ele><time>2026-03-23T12:15:24.001Z</time></trkpt><trkpt lat="45.94247551788718" lon="12.565537029263865"><ele>22.0</ele><time>2026-03-23T12:15:25.001Z</time></trkpt><trkpt lat="45.94259983079002" lon="12.566032085249116"><ele>22.5</ele><time>2026-03-23T12:15:26.001Z</time></trkpt><trkpt lat="45.942723690524836" lon="12.566528842803532"><ele>23.0</ele><time>2026-03-23T12:15:27.001Z</time></trkpt><trkpt lat="45.94284357707602" lon="12.567031374315102"><ele>23.5</ele><time>2026-03-23T12:15:28.001Z</time></trkpt><trkpt lat="45.94296055702162" lon="12.567533706952805"><ele>24.0</ele><time>2026-03-23T12:15:29.001Z</time></trkpt><trkpt lat="45.943078708909574" lon="12.568035729250473"><ele>24.0</ele><time>2026-03-23T12:15:30Z</time></trkpt><trkpt lat="45.94319217874298" lon="12.568541392700562"><ele>24.0</ele><time>2026-03-23T12:15:31Z</time></trkpt><trkpt lat="45.94331281534591" lon="12.569049085828862"><ele>22.5</ele><time>2026-03-23T12:15:32Z</time></trkpt><trkpt lat="45.94343382685271" lon="12.569554165519552"><ele>21.0</ele><time>2026-03-23T12:15:33Z</time></trkpt><trkpt lat="45.9435597615893" lon="12.570061739258405"><ele>20.5</ele><time>2026-03-23T12:15:34Z</time></trkpt><trkpt lat="45.94367645251547" lon="12.570538231133819"><ele>20.0</ele><time>2026-03-23T12:15:35Z</time></trkpt><trkpt lat="45.94378145761698" lon="12.570972329054493"><ele>19.5</ele><time>2026-03-23T12:15:36Z</time></trkpt><trkpt lat="45.943870739019474" lon="12.571378238484522"><ele>19.0</ele><time>2026-03-23T12:15:37Z</time></trkpt><trkpt lat="45.94395717350714" lon="12.571763285433873"><ele>18.5</ele><time>2026-03-23T12:15:38Z</time></trkpt><trkpt lat="45.94403733870072" lon="12.572126001950583"><ele>18.0</ele><time>2026-03-23T12:15:39Z</time></trkpt><trkpt lat="45.944120005840894" lon="12.572469247755453"><ele>18.0</ele><time>2026-03-23T12:15:40Z</time></trkpt><trkpt lat="45.944197252438386" lon="12.57279213872518"><ele>18.0</ele><time>2026-03-23T12:15:41Z</time></trkpt><trkpt lat="45.94426978407893" lon="12.573098819258378"><ele>18.333333333333332</ele><time>2026-03-23T12:15:42Z</time></trkpt><trkpt lat="45.944338323098805" lon="12.573387365370177"><ele>18.666666666666664</ele><time>2026-03-23T12:15:43Z</time></trkpt><trkpt lat="45.944405242492806" lon="12.573659680455712"><ele>19.0</ele><time>2026-03-23T12:15:44Z</time></trkpt><trkpt lat="45.94446420219376" lon="12.57392103272135"><ele>19.333333333333332</ele><time>2026-03-23T12:15:45Z</time></trkpt><trkpt lat="45.944509598974214" lon="12.574171440410398"><ele>19.666666666666668</ele><time>2026-03-23T12:15:46Z</time></trkpt><trkpt lat="45.94453130443695" lon="12.57441556425977"><ele>20.0</ele><time>2026-03-23T12:15:47Z</time></trkpt><trkpt lat="45.94452169390397" lon="12.574648360830844"><ele>20.0</ele><time>2026-03-23T12:15:48Z</time></trkpt><trkpt lat="45.944489175964115" lon="12.574884093860492"><ele>20.0</ele><time>2026-03-23T12:15:49Z</time></trkpt><trkpt lat="45.94443147335605" lon="12.57512182180478"><ele>20.0</ele><time>2026-03-23T12:15:50Z</time></trkpt><trkpt lat="45.94434338229808" lon="12.575358484159478"><ele>20.333333333333336</ele><time>2026-03-23T12:15:51Z</time></trkpt><trkpt lat="45.94423536262433" lon="12.575599769983707"><ele>20.666666666666668</ele><time>2026-03-23T12:15:52Z</time></trkpt><trkpt lat="45.94411851371682" lon="12.575830598299307"><ele>21.0</ele><time>2026-03-23T12:15:53Z</time></trkpt><trkpt lat="45.944019451868634" lon="12.576029247959156"><ele>21.25</ele><time>2026-03-23T12:15:54Z</time></trkpt><trkpt lat="45.94393994759665" lon="12.576227449530881"><ele>21.5</ele><time>2026-03-23T12:15:55Z</time></trkpt><trkpt lat="45.94390362849079" lon="12.576418877349578"><ele>21.75</ele><time>2026-03-23T12:15:56Z</time></trkpt><trkpt lat="45.94389888397447" lon="12.576592757729047"><ele>22.0</ele><time>2026-03-23T12:15:57Z</time></trkpt><trkpt lat="45.94392054452268" lon="12.576748985611713"><ele>22.0</ele><time>2026-03-23T12:15:58Z</time></trkpt><trkpt lat="45.94395902809663" lon="12.576898533480906"><ele>22.0</ele><time>2026-03-23T12:15:59Z</time></trkpt><trkpt lat="45.944022524725206" lon="12.577059134254284"><ele>22.0</ele><time>2026-03-23T12:16:00Z</time></trkpt><trkpt lat="45.9440958809605" lon="12.57718782285617"><ele>22.0</ele><time>2026-03-23T12:16:01Z</time></trkpt><trkpt lat="45.94418969094752" lon="12.577278454501515"><ele>22.25</ele><time>2026-03-23T12:16:02Z</time></trkpt><trkpt lat="45.944299457563204" lon="12.57734837320811"><ele>22.5</ele><time>2026-03-23T12:16:03Z</time></trkpt><trkpt lat="45.944427548517446" lon="12.577388488685152"><ele>22.75</ele><time>2026-03-23T12:16:04Z</time></trkpt><trkpt lat="45.94457788001043" lon="12.577403572692461"><ele>23.0</ele><time>2026-03-23T12:16:05Z</time></trkpt><trkpt lat="45.944745725682196" lon="12.577380004106944"><ele>23.0</ele><time>2026-03-23T12:16:06Z</time></trkpt><trkpt lat="45.94492315816618" lon="12.577313754531955"><ele>23.0</ele><time>2026-03-23T12:16:07Z</time></trkpt><trkpt lat="45.945134779209646" lon="12.577203343128165"><ele>23.0</ele><time>2026-03-23T12:16:08Z</time></trkpt><trkpt lat="45.94536594248688" lon="12.577088973648342"><ele>23.666666666666668</ele><time>2026-03-23T12:16:09Z</time></trkpt><trkpt lat="45.9455724229746" lon="12.576989564024213"><ele>24.333333333333336</ele><time>2026-03-23T12:16:10Z</time></trkpt><trkpt lat="45.94577089174692" lon="12.576900622870244"><ele>25.0</ele><time>2026-03-23T12:16:11Z</time></trkpt><trkpt lat="45.94596193946802" lon="12.576832177361789"><ele>25.333333333333336</ele><time>2026-03-23T12:16:12Z</time></trkpt><trkpt lat="45.94614289653317" lon="12.576791160377956"><ele>25.666666666666664</ele><time>2026-03-23T12:16:13Z</time></trkpt><trkpt lat="45.94631325834186" lon="12.576765845787095"><ele>26.0</ele><time>2026-03-23T12:16:14Z</time></trkpt><trkpt lat="45.94648340501506" lon="12.576753517858311"><ele>26.0</ele><time>2026-03-23T12:16:15Z</time></trkpt><trkpt lat="45.94665934603643" lon="12.576766076603617"><ele>26.0</ele><time>2026-03-23T12:16:16Z</time></trkpt><trkpt lat="45.94683471570129" lon="12.576801734308283"><ele>26.0</ele><time>2026-03-23T12:16:17Z</time></trkpt><trkpt lat="45.94700312558193" lon="12.576853707017657"><ele>25.333333333333332</ele><time>2026-03-23T12:16:18Z</time></trkpt><trkpt lat="45.94715689354139" lon="12.576922615648254"><ele>24.666666666666664</ele><time>2026-03-23T12:16:19Z</time></trkpt><trkpt lat="45.947301027487015" lon="12.577006477090917"><ele>24.0</ele><time>2026-03-23T12:16:20Z</time></trkpt><trkpt lat="45.94747548905052" lon="12.577125105700942"><ele>24.0</ele><time>2026-03-23T12:16:21Z</time></trkpt><trkpt lat="45.94765244496562" lon="12.577270708018524"><ele>24.0</ele><time>2026-03-23T12:16:22Z</time></trkpt><trkpt lat="45.947815181591054" lon="12.577420582554707"><ele>24.0</ele><time>2026-03-23T12:16:23Z</time></trkpt><trkpt lat="45.94799244174195" lon="12.577589951537469"><ele>24.0</ele><time>2026-03-23T12:16:24Z</time></trkpt><trkpt lat="45.9481685383199" lon="12.577763603323284"><ele>24.0</ele><time>2026-03-23T12:16:25Z</time></trkpt><trkpt lat="45.94832600507032" lon="12.577928834895644"><ele>24.0</ele><time>2026-03-23T12:16:26Z</time></trkpt><trkpt lat="45.94847461708633" lon="12.578100698527198"><ele>23.666666666666668</ele><time>2026-03-23T12:16:27Z</time></trkpt><trkpt lat="45.94861585805915" lon="12.578266720430934"><ele>23.333333333333336</ele><time>2026-03-23T12:16:28Z</time></trkpt><trkpt lat="45.94876231485177" lon="12.578420624162469"><ele>23.0</ele><time>2026-03-23T12:16:29Z</time></trkpt><trkpt lat="45.94891511525082" lon="12.578573206656214"><ele>23.333333333333336</ele><time>2026-03-23T12:16:30Z</time></trkpt><trkpt lat="45.94908430459273" lon="12.578739792099151"><ele>23.666666666666668</ele><time>2026-03-23T12:16:31Z</time></trkpt><trkpt lat="45.94925285078289" lon="12.578898957458454"><ele>24.0</ele><time>2026-03-23T12:16:32Z</time></trkpt><trkpt lat="45.94942374660585" lon="12.579051581836005"><ele>24.5</ele><time>2026-03-23T12:16:33Z</time></trkpt><trkpt lat="45.94961079701168" lon="12.579200180652881"><ele>25.0</ele><time>2026-03-23T12:16:34Z</time></trkpt><trkpt lat="45.949825015923935" lon="12.579356192753924"><ele>24.5</ele><time>2026-03-23T12:16:35Z</time></trkpt><trkpt lat="45.95004896694154" lon="12.579510477566641"><ele>24.0</ele><time>2026-03-23T12:16:36Z</time></trkpt><trkpt lat="45.95029056305476" lon="12.579669324202515"><ele>24.0</ele><time>2026-03-23T12:16:37Z</time></trkpt><trkpt lat="45.95056497462186" lon="12.579855900244546"><ele>24.0</ele><time>2026-03-23T12:16:38.001Z</time></trkpt><trkpt lat="45.95085170712904" lon="12.580070596671755"><ele>24.5</ele><time>2026-03-23T12:16:39.001Z</time></trkpt><trkpt lat="45.951125609951866" lon="12.580285157940299"><ele>25.0</ele><time>2026-03-23T12:16:40.001Z</time></trkpt><trkpt lat="45.95137716434178" lon="12.580479379595085"><ele>26.5</ele><time>2026-03-23T12:16:41.001Z</time></trkpt><trkpt lat="45.951614796568485" lon="12.580659181755944"><ele>28.0</ele><time>2026-03-23T12:16:42.001Z</time></trkpt><trkpt lat="45.95183827140748" lon="12.58083104897581"><ele>29.0</ele><time>2026-03-23T12:16:43.001Z</time></trkpt><trkpt lat="45.95204957164573" lon="12.580988751636797"><ele>30.0</ele><time>2026-03-23T12:16:44.001Z</time></trkpt><trkpt lat="45.95226110209459" lon="12.581140003913129"><ele>29.5</ele><time>2026-03-23T12:16:45.001Z</time></trkpt><trkpt lat="45.95247538442067" lon="12.58128629481774"><ele>29.0</ele><time>2026-03-23T12:16:46.001Z</time></trkpt><trkpt lat="45.95268590800068" lon="12.58141912222733"><ele>28.666666666666664</ele><time>2026-03-23T12:16:47.001Z</time></trkpt><trkpt lat="45.952888252911116" lon="12.581534123410302"><ele>28.333333333333336</ele><time>2026-03-23T12:16:48.001Z</time></trkpt><trkpt lat="45.953094070532394" lon="12.581638562530408"><ele>28.0</ele><time>2026-03-23T12:16:49.001Z</time></trkpt><trkpt lat="45.953304208087935" lon="12.581742595925066"><ele>27.666666666666668</ele><time>2026-03-23T12:16:50.001Z</time></trkpt><trkpt lat="45.9535155294186" lon="12.581846646048012"><ele>27.333333333333336</ele><time>2026-03-23T12:16:51.001Z</time></trkpt><trkpt lat="45.95372316443091" lon="12.581960897099542"><ele>27.0</ele><time>2026-03-23T12:16:52.001Z</time></trkpt><trkpt lat="45.953926721209555" lon="12.582083122873126"><ele>27.0</ele><time>2026-03-23T12:16:53.001Z</time></trkpt><trkpt lat="45.95411704555287" lon="12.582210779292698"><ele>27.0</ele><time>2026-03-23T12:16:54.001Z</time></trkpt><trkpt lat="45.95429337892883" lon="12.582332702223352"><ele>27.0</ele><time>2026-03-23T12:16:55.001Z</time></trkpt><trkpt lat="45.95446120027782" lon="12.58244653664127"><ele>26.333333333333336</ele><time>2026-03-23T12:16:56.001Z</time></trkpt><trkpt lat="45.95461890499163" lon="12.582557896751009"><ele>25.666666666666668</ele><time>2026-03-23T12:16:57.001Z</time></trkpt><trkpt lat="45.954770121766316" lon="12.582666560355404"><ele>25.0</ele><time>2026-03-23T12:16:58.001Z</time></trkpt><trkpt lat="45.95492393206343" lon="12.58277957056112"><ele>25.666666666666668</ele><time>2026-03-23T12:16:59.001Z</time></trkpt><trkpt lat="45.955084269869616" lon="12.582889604943267"><ele>26.333333333333336</ele><time>2026-03-23T12:17:00.001Z</time></trkpt><trkpt lat="45.955254595625675" lon="12.582993646845425"><ele>27.0</ele><time>2026-03-23T12:17:01.001Z</time></trkpt><trkpt lat="45.95543250577026" lon="12.5830920272238"><ele>27.0</ele><time>2026-03-23T12:17:02.001Z</time></trkpt><trkpt lat="45.95562664624624" lon="12.583178617479911"><ele>27.0</ele><time>2026-03-23T12:17:03.001Z</time></trkpt><trkpt lat="45.95583027808558" lon="12.583248478301018"><ele>27.0</ele><time>2026-03-23T12:17:04.001Z</time></trkpt><trkpt lat="45.95601716112547" lon="12.583303212877752"><ele>26.666666666666664</ele><time>2026-03-23T12:17:05.001Z</time></trkpt><trkpt lat="45.956206434251705" lon="12.583349562074607"><ele>26.333333333333332</ele><time>2026-03-23T12:17:06.001Z</time></trkpt><trkpt lat="45.95638928691206" lon="12.583388870914915"><ele>26.0</ele><time>2026-03-23T12:17:07.001Z</time></trkpt><trkpt lat="45.956561610036076" lon="12.583432312425016"><ele>26.333333333333332</ele><time>2026-03-23T12:17:08.001Z</time></trkpt><trkpt lat="45.95673396261305" lon="12.5834856092347"><ele>26.666666666666664</ele><time>2026-03-23T12:17:09.001Z</time></trkpt><trkpt lat="45.95690411161855" lon="12.583553410500437"><ele>27.0</ele><time>2026-03-23T12:17:10.001Z</time></trkpt><trkpt lat="45.95705931469126" lon="12.583639245638272"><ele>26.75</ele><time>2026-03-23T12:17:11.001Z</time></trkpt><trkpt lat="45.95719381578347" lon="12.583740247337003"><ele>26.5</ele><time>2026-03-23T12:17:12.001Z</time></trkpt><trkpt lat="45.95730354835354" lon="12.583844294725424"><ele>26.25</ele><time>2026-03-23T12:17:13.001Z</time></trkpt><trkpt lat="45.957390346938304" lon="12.583948607048399"><ele>26.0</ele><time>2026-03-23T12:17:14.001Z</time></trkpt><trkpt lat="45.95744104444522" lon="12.584058084076343"><ele>26.0</ele><time>2026-03-23T12:17:15.001Z</time></trkpt><trkpt lat="45.95746430667311" lon="12.584183347138978"><ele>26.0</ele><time>2026-03-23T12:17:16.001Z</time></trkpt><trkpt lat="45.95746915381795" lon="12.584349418833787"><ele>26.0</ele><time>2026-03-23T12:17:17.001Z</time></trkpt><trkpt lat="45.9574712190385" lon="12.584557906726012"><ele>26.0</ele><time>2026-03-23T12:17:18.001Z</time></trkpt><trkpt lat="45.957481113000476" lon="12.584794708871335"><ele>25.666666666666664</ele><time>2026-03-23T12:17:19.001Z</time></trkpt><trkpt lat="45.95750527268557" lon="12.585072734056586"><ele>25.333333333333336</ele><time>2026-03-23T12:17:20.001Z</time></trkpt><trkpt lat="45.95754555556852" lon="12.585333958794346"><ele>25.0</ele><time>2026-03-23T12:17:21.001Z</time></trkpt><trkpt lat="45.95759819611558" lon="12.585583455888651"><ele>26.0</ele><time>2026-03-23T12:17:22.001Z</time></trkpt><trkpt lat="45.95766793322478" lon="12.585814308405972"><ele>27.0</ele><time>2026-03-23T12:17:23.001Z</time></trkpt><trkpt lat="45.95773394735097" lon="12.586012624218785"><ele>28.0</ele><time>2026-03-23T12:17:24.001Z</time></trkpt><trkpt lat="45.957788313068335" lon="12.586186504905903"><ele>28.0</ele><time>2026-03-23T12:17:25.001Z</time></trkpt><trkpt lat="45.95782905880927" lon="12.586357057306728"><ele>28.0</ele><time>2026-03-23T12:17:26.001Z</time></trkpt><trkpt lat="45.9578419374101" lon="12.586524735672398"><ele>28.0</ele><time>2026-03-23T12:17:27.001Z</time></trkpt><trkpt lat="45.95783415157055" lon="12.586696971583024"><ele>28.0</ele><time>2026-03-23T12:17:28.001Z</time></trkpt><trkpt lat="45.95780147148535" lon="12.586868077262109"><ele>28.25</ele><time>2026-03-23T12:17:29.001Z</time></trkpt><trkpt lat="45.957744024925255" lon="12.587043009683603"><ele>28.5</ele><time>2026-03-23T12:17:30.001Z</time></trkpt><trkpt lat="45.957665288211984" lon="12.587215975687535"><ele>28.75</ele><time>2026-03-23T12:17:31.001Z</time></trkpt><trkpt lat="45.95758234068735" lon="12.587371595103562"><ele>29.0</ele><time>2026-03-23T12:17:32.001Z</time></trkpt><trkpt lat="45.95749075848329" lon="12.587520325644514"><ele>29.25</ele><time>2026-03-23T12:17:33.001Z</time></trkpt><trkpt lat="45.95738341552093" lon="12.587645344066292"><ele>29.5</ele><time>2026-03-23T12:17:34.001Z</time></trkpt><trkpt lat="45.95729726260454" lon="12.587761315524151"><ele>29.75</ele><time>2026-03-23T12:17:35.001Z</time></trkpt><trkpt lat="45.95724311845904" lon="12.58788567848954"><ele>30.0</ele><time>2026-03-23T12:17:36Z</time></trkpt><trkpt lat="45.95721200017797" lon="12.588016464211655"><ele>30.0</ele><time>2026-03-23T12:17:37Z</time></trkpt><trkpt lat="45.95720707318169" lon="12.588143680370495"><ele>30.0</ele><time>2026-03-23T12:17:38Z</time></trkpt><trkpt lat="45.95723275517826" lon="12.588274059900334"><ele>30.0</ele><time>2026-03-23T12:17:39Z</time></trkpt><trkpt lat="45.95729389317282" lon="12.588423216213384"><ele>30.0</ele><time>2026-03-23T12:17:40Z</time></trkpt><trkpt lat="45.95738555038911" lon="12.58859904856876"><ele>29.333333333333336</ele><time>2026-03-23T12:17:41Z</time></trkpt><trkpt lat="45.95748015364936" lon="12.588806391914575"><ele>28.666666666666668</ele><time>2026-03-23T12:17:42Z</time></trkpt><trkpt lat="45.95754889669633" lon="12.589028855668618"><ele>28.0</ele><time>2026-03-23T12:17:43Z</time></trkpt><trkpt lat="45.957596860593426" lon="12.589282739868846"><ele>27.333333333333336</ele><time>2026-03-23T12:17:44Z</time></trkpt><trkpt lat="45.95763808482276" lon="12.589579033802188"><ele>26.666666666666664</ele><time>2026-03-23T12:17:45Z</time></trkpt><trkpt lat="45.957670540034336" lon="12.589913736371331"><ele>26.0</ele><time>2026-03-23T12:17:46Z</time></trkpt><trkpt lat="45.957704668748455" lon="12.590278338479331"><ele>25.5</ele><time>2026-03-23T12:17:47Z</time></trkpt><trkpt lat="45.95774191066395" lon="12.590684910145118"><ele>25.0</ele><time>2026-03-23T12:17:48Z</time></trkpt><trkpt lat="45.95777914289437" lon="12.59110981635975"><ele>26.0</ele><time>2026-03-23T12:17:49Z</time></trkpt><trkpt lat="45.957812736090894" lon="12.591493306542736"><ele>27.0</ele><time>2026-03-23T12:17:50Z</time></trkpt><trkpt lat="45.95784023152311" lon="12.591849011946024"><ele>27.666666666666664</ele><time>2026-03-23T12:17:51Z</time></trkpt><trkpt lat="45.957864566726464" lon="12.592178352969173"><ele>28.333333333333332</ele><time>2026-03-23T12:17:52Z</time></trkpt><trkpt lat="45.95788748627683" lon="12.592491140311635"><ele>29.0</ele><time>2026-03-23T12:17:53Z</time></trkpt><trkpt lat="45.957907660987175" lon="12.592772962237502"><ele>29.0</ele><time>2026-03-23T12:17:54Z</time></trkpt><trkpt lat="45.95792576699556" lon="12.593033047452524"><ele>29.0</ele><time>2026-03-23T12:17:55Z</time></trkpt><trkpt lat="45.957940479186036" lon="12.593270153334801"><ele>29.0</ele><time>2026-03-23T12:17:56Z</time></trkpt><trkpt lat="45.957951640678445" lon="12.593526666561724"><ele>29.666666666666664</ele><time>2026-03-23T12:17:57Z</time></trkpt><trkpt lat="45.95796631445242" lon="12.593804641154993"><ele>30.333333333333336</ele><time>2026-03-23T12:17:58Z</time></trkpt><trkpt lat="45.95797499438062" lon="12.594089637619723"><ele>31.0</ele><time>2026-03-23T12:17:59Z</time></trkpt><trkpt lat="45.957972953284774" lon="12.594361417235074"><ele>31.0</ele><time>2026-03-23T12:18:00Z</time></trkpt><trkpt lat="45.957961888682696" lon="12.594638037430476"><ele>31.0</ele><time>2026-03-23T12:18:01Z</time></trkpt><trkpt lat="45.957944820124816" lon="12.594919089571867"><ele>31.0</ele><time>2026-03-23T12:18:02Z</time></trkpt><trkpt lat="45.95792651357469" lon="12.595220256415304"><ele>31.0</ele><time>2026-03-23T12:18:03Z</time></trkpt><trkpt lat="45.95792162011438" lon="12.595561096316604"><ele>31.0</ele><time>2026-03-23T12:18:04Z</time></trkpt><trkpt lat="45.95792126419911" lon="12.595888737036919"><ele>30.333333333333336</ele><time>2026-03-23T12:18:05Z</time></trkpt><trkpt lat="45.95791007192621" lon="12.596189659143175"><ele>29.666666666666664</ele><time>2026-03-23T12:18:06Z</time></trkpt><trkpt lat="45.95790304611543" lon="12.596460098557026"><ele>29.0</ele><time>2026-03-23T12:18:07Z</time></trkpt><trkpt lat="45.95790132229481" lon="12.59671164740471"><ele>29.0</ele><time>2026-03-23T12:18:08Z</time></trkpt><trkpt lat="45.95791525265853" lon="12.596951333955259"><ele>29.0</ele><time>2026-03-23T12:18:09Z</time></trkpt><trkpt lat="45.95796151015177" lon="12.597165245881381"><ele>29.0</ele><time>2026-03-23T12:18:10Z</time></trkpt><trkpt lat="45.958023454452054" lon="12.597359855605644"><ele>28.666666666666664</ele><time>2026-03-23T12:18:11Z</time></trkpt><trkpt lat="45.958096202554735" lon="12.597557413549913"><ele>28.333333333333336</ele><time>2026-03-23T12:18:12Z</time></trkpt><trkpt lat="45.95818753193352" lon="12.597775153010744"><ele>28.0</ele><time>2026-03-23T12:18:13Z</time></trkpt><trkpt lat="45.95830657835267" lon="12.598038176217958"><ele>29.0</ele><time>2026-03-23T12:18:14Z</time></trkpt><trkpt lat="45.95843358770091" lon="12.598339972017058"><ele>30.0</ele><time>2026-03-23T12:18:15Z</time></trkpt><trkpt lat="45.95854658269612" lon="12.598613117313297"><ele>30.333333333333336</ele><time>2026-03-23T12:18:16Z</time></trkpt><trkpt lat="45.95865460469606" lon="12.598858288917276"><ele>30.666666666666668</ele><time>2026-03-23T12:18:17Z</time></trkpt><trkpt lat="45.958756204025015" lon="12.599083434050883"><ele>31.0</ele><time>2026-03-23T12:18:18Z</time></trkpt><trkpt lat="45.95884765290353" lon="12.599288861241828"><ele>31.0</ele><time>2026-03-23T12:18:19Z</time></trkpt><trkpt lat="45.95893121703556" lon="12.599483866598268"><ele>31.0</ele><time>2026-03-23T12:18:20Z</time></trkpt><trkpt lat="45.9590084097258" lon="12.599660697914233"><ele>31.0</ele><time>2026-03-23T12:18:21Z</time></trkpt><trkpt lat="45.95907677316957" lon="12.599828577357126"><ele>31.0</ele><time>2026-03-23T12:18:22Z</time></trkpt><trkpt lat="45.95913963895759" lon="12.599988089321977"><ele>31.0</ele><time>2026-03-23T12:18:23Z</time></trkpt><trkpt lat="45.95919236348299" lon="12.600130878064862"><ele>31.0</ele><time>2026-03-23T12:18:24Z</time></trkpt><trkpt lat="45.95924311294944" lon="12.600280097894084"><ele>31.0</ele><time>2026-03-23T12:18:25Z</time></trkpt><trkpt lat="45.95928570274064" lon="12.600436951787623"><ele>31.0</ele><time>2026-03-23T12:18:26Z</time></trkpt><trkpt lat="45.95932635884541" lon="12.60059515667288"><ele>30.75</ele><time>2026-03-23T12:18:27Z</time></trkpt><trkpt lat="45.959370094326815" lon="12.600764214256056"><ele>30.5</ele><time>2026-03-23T12:18:28Z</time></trkpt><trkpt lat="45.95941309569138" lon="12.600938148158626"><ele>30.25</ele><time>2026-03-23T12:18:29Z</time></trkpt><trkpt lat="45.95945560005254" lon="12.601118258774644"><ele>30.0</ele><time>2026-03-23T12:18:30Z</time></trkpt><trkpt lat="45.959501537144405" lon="12.601306115713735"><ele>30.0</ele><time>2026-03-23T12:18:31Z</time></trkpt><trkpt lat="45.959548541788294" lon="12.601495825087301"><ele>30.0</ele><time>2026-03-23T12:18:32Z</time></trkpt></trkseg></trk></gpx>